<?xml version="1.0" encoding="UTF-8" standalone="no" ?>
<gpx xmlns="http://www.topografix.com/GPX/1/1" xmlns:xsi="http://www.w3.org/2001/XMLSchema-instance" xsi:schemaLocation="http://www.topografix.com/GPX/1/1 http://www.topografix.com/GPX/1/1/gpx.xsd" version="1.1" creator="VisuGPX - https://www.visugpx.com">
  <metadata>
    <name>2017-05-07 Bike ride-Amberieux en Dombes O via Toussieux</name>
    <desc><![CDATA[2017-05-07 Bike ride-Amberieux en Dombes O via Toussieux]]></desc>
  </metadata>
  <wpt lat="45.92454" lon="4.7371">
    <ele>174</ele>
    <name><![CDATA[2017-05-07 09:56 (Start)]]></name>
  </wpt>
  <wpt lat="45.92458" lon="4.73712">
    <ele>174</ele>
    <name><![CDATA[2017-05-07 09:56 (End)]]></name>
    <desc><![CDATA[Created by Google My Tracks on Android  Name: 2017-05-07 09:56 Activity type: biking Description: - Total distance: 41.06 km (25.5 mi) Total time: 2:03:22 Moving time: 2:02:31 Average speed: 19.97 km/h (12.4 mi/h) Average moving speed: 20.11 km/h (12.5 mi/h) Max speed: 46.43 km/h (28.8 mi/h) Average pace: 3:00 min/km (4:50 min/mi) Average moving pace: 2:59 min/km (4:48 min/mi) Fastest pace: 1:18 min/km (2:05 min/mi) Max elevation: 312 m (1022 ft) Min elevation: 167 m (547 ft) Elevation gain: 621 m (2036 ft) Max grade: 19 % Min grade: -33 % Recorded: 07/05/2017 09:56]]></desc>
  </wpt>
  <trk>
    <name><![CDATA[2017-05-07 09:56]]></name>
    <trkseg>
      <trkpt lat="45.92454" lon="4.7371">
        <ele>174</ele>
        <time>2017-05-07T07:56:32.286Z</time>
      </trkpt>
      <trkpt lat="45.92462" lon="4.73707">
        <ele>174</ele>
        <time>2017-05-07T07:57:28Z</time>
      </trkpt>
      <trkpt lat="45.92464" lon="4.73705">
        <ele>174</ele>
        <time>2017-05-07T07:57:29Z</time>
      </trkpt>
      <trkpt lat="45.92467" lon="4.73696">
        <ele>174</ele>
        <time>2017-05-07T07:57:32Z</time>
      </trkpt>
      <trkpt lat="45.92467" lon="4.73692">
        <ele>174</ele>
        <time>2017-05-07T07:57:33Z</time>
      </trkpt>
      <trkpt lat="45.92468" lon="4.7368">
        <ele>174</ele>
        <time>2017-05-07T07:57:36Z</time>
      </trkpt>
      <trkpt lat="45.92469" lon="4.73674">
        <ele>174</ele>
        <time>2017-05-07T07:57:37Z</time>
      </trkpt>
      <trkpt lat="45.92472" lon="4.73663">
        <ele>174</ele>
        <time>2017-05-07T07:57:39Z</time>
      </trkpt>
      <trkpt lat="45.92473" lon="4.73657">
        <ele>174</ele>
        <time>2017-05-07T07:57:40Z</time>
      </trkpt>
      <trkpt lat="45.92477" lon="4.73646">
        <ele>174</ele>
        <time>2017-05-07T07:57:42Z</time>
      </trkpt>
      <trkpt lat="45.92483" lon="4.73632">
        <ele>174</ele>
        <time>2017-05-07T07:57:43Z</time>
      </trkpt>
      <trkpt lat="45.92488" lon="4.73626">
        <ele>174</ele>
        <time>2017-05-07T07:57:45Z</time>
      </trkpt>
      <trkpt lat="45.92492" lon="4.73625">
        <ele>174</ele>
        <time>2017-05-07T07:57:46Z</time>
      </trkpt>
      <trkpt lat="45.92499" lon="4.73625">
        <ele>174</ele>
        <time>2017-05-07T07:57:48Z</time>
      </trkpt>
      <trkpt lat="45.92503" lon="4.73624">
        <ele>173</ele>
        <time>2017-05-07T07:57:49Z</time>
      </trkpt>
      <trkpt lat="45.92511" lon="4.73624">
        <ele>173</ele>
        <time>2017-05-07T07:57:51Z</time>
      </trkpt>
      <trkpt lat="45.92516" lon="4.73625">
        <ele>173</ele>
        <time>2017-05-07T07:57:52Z</time>
      </trkpt>
      <trkpt lat="45.9252" lon="4.73625">
        <ele>173</ele>
        <time>2017-05-07T07:57:53Z</time>
      </trkpt>
      <trkpt lat="45.92525" lon="4.73625">
        <ele>173</ele>
        <time>2017-05-07T07:57:54Z</time>
      </trkpt>
      <trkpt lat="45.9253" lon="4.73625">
        <ele>173</ele>
        <time>2017-05-07T07:57:55Z</time>
      </trkpt>
      <trkpt lat="45.92535" lon="4.73625">
        <ele>173</ele>
        <time>2017-05-07T07:57:56Z</time>
      </trkpt>
      <trkpt lat="45.9254" lon="4.73625">
        <ele>173</ele>
        <time>2017-05-07T07:57:57Z</time>
      </trkpt>
      <trkpt lat="45.92545" lon="4.73624">
        <ele>173</ele>
        <time>2017-05-07T07:57:58Z</time>
      </trkpt>
      <trkpt lat="45.9255" lon="4.73624">
        <ele>173</ele>
        <time>2017-05-07T07:57:59Z</time>
      </trkpt>
      <trkpt lat="45.92555" lon="4.73623">
        <ele>173</ele>
        <time>2017-05-07T07:58:00Z</time>
      </trkpt>
      <trkpt lat="45.92559" lon="4.73622">
        <ele>173</ele>
        <time>2017-05-07T07:58:01Z</time>
      </trkpt>
      <trkpt lat="45.92564" lon="4.73621">
        <ele>173</ele>
        <time>2017-05-07T07:58:02Z</time>
      </trkpt>
      <trkpt lat="45.92573" lon="4.7362">
        <ele>173</ele>
        <time>2017-05-07T07:58:04Z</time>
      </trkpt>
      <trkpt lat="45.92577" lon="4.73619">
        <ele>173</ele>
        <time>2017-05-07T07:58:05Z</time>
      </trkpt>
      <trkpt lat="45.92585" lon="4.73618">
        <ele>173</ele>
        <time>2017-05-07T07:58:07Z</time>
      </trkpt>
      <trkpt lat="45.9259" lon="4.73618">
        <ele>173</ele>
        <time>2017-05-07T07:58:08Z</time>
      </trkpt>
      <trkpt lat="45.92598" lon="4.73619">
        <ele>173</ele>
        <time>2017-05-07T07:58:10Z</time>
      </trkpt>
      <trkpt lat="45.92603" lon="4.73619">
        <ele>173</ele>
        <time>2017-05-07T07:58:11Z</time>
      </trkpt>
      <trkpt lat="45.92608" lon="4.73619">
        <ele>173</ele>
        <time>2017-05-07T07:58:12Z</time>
      </trkpt>
      <trkpt lat="45.92612" lon="4.73623">
        <ele>173</ele>
        <time>2017-05-07T07:58:13Z</time>
      </trkpt>
      <trkpt lat="45.92617" lon="4.73631">
        <ele>173</ele>
        <time>2017-05-07T07:58:14Z</time>
      </trkpt>
      <trkpt lat="45.9262" lon="4.73639">
        <ele>173</ele>
        <time>2017-05-07T07:58:15Z</time>
      </trkpt>
      <trkpt lat="45.92623" lon="4.73646">
        <ele>173</ele>
        <time>2017-05-07T07:58:16Z</time>
      </trkpt>
      <trkpt lat="45.92626" lon="4.73653">
        <ele>173</ele>
        <time>2017-05-07T07:58:17Z</time>
      </trkpt>
      <trkpt lat="45.92629" lon="4.73659">
        <ele>173</ele>
        <time>2017-05-07T07:58:18Z</time>
      </trkpt>
      <trkpt lat="45.92632" lon="4.73665">
        <ele>173</ele>
        <time>2017-05-07T07:58:19Z</time>
      </trkpt>
      <trkpt lat="45.92636" lon="4.73672">
        <ele>173</ele>
        <time>2017-05-07T07:58:20Z</time>
      </trkpt>
      <trkpt lat="45.92639" lon="4.73678">
        <ele>173</ele>
        <time>2017-05-07T07:58:21Z</time>
      </trkpt>
      <trkpt lat="45.92643" lon="4.73684">
        <ele>173</ele>
        <time>2017-05-07T07:58:22Z</time>
      </trkpt>
      <trkpt lat="45.92647" lon="4.7369">
        <ele>173</ele>
        <time>2017-05-07T07:58:23Z</time>
      </trkpt>
      <trkpt lat="45.92652" lon="4.73694">
        <ele>173</ele>
        <time>2017-05-07T07:58:24Z</time>
      </trkpt>
      <trkpt lat="45.92657" lon="4.73698">
        <ele>173</ele>
        <time>2017-05-07T07:58:25Z</time>
      </trkpt>
      <trkpt lat="45.92662" lon="4.73702">
        <ele>173</ele>
        <time>2017-05-07T07:58:26Z</time>
      </trkpt>
      <trkpt lat="45.92667" lon="4.73704">
        <ele>174</ele>
        <time>2017-05-07T07:58:27Z</time>
      </trkpt>
      <trkpt lat="45.92673" lon="4.73706">
        <ele>174</ele>
        <time>2017-05-07T07:58:28Z</time>
      </trkpt>
      <trkpt lat="45.92678" lon="4.73708">
        <ele>173</ele>
        <time>2017-05-07T07:58:29Z</time>
      </trkpt>
      <trkpt lat="45.92683" lon="4.73709">
        <ele>173</ele>
        <time>2017-05-07T07:58:30Z</time>
      </trkpt>
      <trkpt lat="45.92688" lon="4.7371">
        <ele>173</ele>
        <time>2017-05-07T07:58:31Z</time>
      </trkpt>
      <trkpt lat="45.92693" lon="4.73712">
        <ele>173</ele>
        <time>2017-05-07T07:58:32Z</time>
      </trkpt>
      <trkpt lat="45.92698" lon="4.73713">
        <ele>173</ele>
        <time>2017-05-07T07:58:33Z</time>
      </trkpt>
      <trkpt lat="45.92703" lon="4.73715">
        <ele>173</ele>
        <time>2017-05-07T07:58:34Z</time>
      </trkpt>
      <trkpt lat="45.92708" lon="4.73718">
        <ele>173</ele>
        <time>2017-05-07T07:58:35Z</time>
      </trkpt>
      <trkpt lat="45.92712" lon="4.7372">
        <ele>173</ele>
        <time>2017-05-07T07:58:36Z</time>
      </trkpt>
      <trkpt lat="45.92717" lon="4.73722">
        <ele>173</ele>
        <time>2017-05-07T07:58:37Z</time>
      </trkpt>
      <trkpt lat="45.92722" lon="4.73723">
        <ele>173</ele>
        <time>2017-05-07T07:58:38Z</time>
      </trkpt>
      <trkpt lat="45.92728" lon="4.73723">
        <ele>173</ele>
        <time>2017-05-07T07:58:39Z</time>
      </trkpt>
      <trkpt lat="45.92733" lon="4.73723">
        <ele>173</ele>
        <time>2017-05-07T07:58:40Z</time>
      </trkpt>
      <trkpt lat="45.92738" lon="4.73724">
        <ele>173</ele>
        <time>2017-05-07T07:58:41Z</time>
      </trkpt>
      <trkpt lat="45.92744" lon="4.73725">
        <ele>173</ele>
        <time>2017-05-07T07:58:42Z</time>
      </trkpt>
      <trkpt lat="45.92749" lon="4.73726">
        <ele>173</ele>
        <time>2017-05-07T07:58:43Z</time>
      </trkpt>
      <trkpt lat="45.92754" lon="4.73728">
        <ele>172</ele>
        <time>2017-05-07T07:58:44Z</time>
      </trkpt>
      <trkpt lat="45.92758" lon="4.7373">
        <ele>172</ele>
        <time>2017-05-07T07:58:45Z</time>
      </trkpt>
      <trkpt lat="45.92763" lon="4.73731">
        <ele>172</ele>
        <time>2017-05-07T07:58:46Z</time>
      </trkpt>
      <trkpt lat="45.92768" lon="4.73732">
        <ele>172</ele>
        <time>2017-05-07T07:58:47Z</time>
      </trkpt>
      <trkpt lat="45.92774" lon="4.73738">
        <ele>172</ele>
        <time>2017-05-07T07:58:49Z</time>
      </trkpt>
      <trkpt lat="45.92776" lon="4.73742">
        <ele>172</ele>
        <time>2017-05-07T07:58:50Z</time>
      </trkpt>
      <trkpt lat="45.92779" lon="4.73751">
        <ele>173</ele>
        <time>2017-05-07T07:58:52Z</time>
      </trkpt>
      <trkpt lat="45.92782" lon="4.73755">
        <ele>173</ele>
        <time>2017-05-07T07:58:53Z</time>
      </trkpt>
      <trkpt lat="45.92789" lon="4.73761">
        <ele>173</ele>
        <time>2017-05-07T07:58:55Z</time>
      </trkpt>
      <trkpt lat="45.92793" lon="4.73765">
        <ele>173</ele>
        <time>2017-05-07T07:58:56Z</time>
      </trkpt>
      <trkpt lat="45.92797" lon="4.73767">
        <ele>173</ele>
        <time>2017-05-07T07:58:57Z</time>
      </trkpt>
      <trkpt lat="45.92802" lon="4.7377">
        <ele>173</ele>
        <time>2017-05-07T07:58:58Z</time>
      </trkpt>
      <trkpt lat="45.92806" lon="4.73773">
        <ele>173</ele>
        <time>2017-05-07T07:58:59Z</time>
      </trkpt>
      <trkpt lat="45.92811" lon="4.73777">
        <ele>173</ele>
        <time>2017-05-07T07:59:00Z</time>
      </trkpt>
      <trkpt lat="45.92816" lon="4.7378">
        <ele>173</ele>
        <time>2017-05-07T07:59:01Z</time>
      </trkpt>
      <trkpt lat="45.92821" lon="4.73784">
        <ele>173</ele>
        <time>2017-05-07T07:59:02Z</time>
      </trkpt>
      <trkpt lat="45.92826" lon="4.73789">
        <ele>173</ele>
        <time>2017-05-07T07:59:03Z</time>
      </trkpt>
      <trkpt lat="45.9283" lon="4.73793">
        <ele>173</ele>
        <time>2017-05-07T07:59:04Z</time>
      </trkpt>
      <trkpt lat="45.92836" lon="4.73796">
        <ele>173</ele>
        <time>2017-05-07T07:59:05Z</time>
      </trkpt>
      <trkpt lat="45.92841" lon="4.738">
        <ele>173</ele>
        <time>2017-05-07T07:59:06Z</time>
      </trkpt>
      <trkpt lat="45.92845" lon="4.73806">
        <ele>173</ele>
        <time>2017-05-07T07:59:07Z</time>
      </trkpt>
      <trkpt lat="45.92849" lon="4.73812">
        <ele>173</ele>
        <time>2017-05-07T07:59:08Z</time>
      </trkpt>
      <trkpt lat="45.92851" lon="4.73819">
        <ele>173</ele>
        <time>2017-05-07T07:59:09Z</time>
      </trkpt>
      <trkpt lat="45.92853" lon="4.73826">
        <ele>173</ele>
        <time>2017-05-07T07:59:10Z</time>
      </trkpt>
      <trkpt lat="45.92856" lon="4.73834">
        <ele>173</ele>
        <time>2017-05-07T07:59:11Z</time>
      </trkpt>
      <trkpt lat="45.92858" lon="4.73841">
        <ele>173</ele>
        <time>2017-05-07T07:59:12Z</time>
      </trkpt>
      <trkpt lat="45.9286" lon="4.73849">
        <ele>173</ele>
        <time>2017-05-07T07:59:13Z</time>
      </trkpt>
      <trkpt lat="45.92862" lon="4.73856">
        <ele>173</ele>
        <time>2017-05-07T07:59:14Z</time>
      </trkpt>
      <trkpt lat="45.92864" lon="4.73864">
        <ele>173</ele>
        <time>2017-05-07T07:59:15Z</time>
      </trkpt>
      <trkpt lat="45.92866" lon="4.73872">
        <ele>173</ele>
        <time>2017-05-07T07:59:16Z</time>
      </trkpt>
      <trkpt lat="45.92868" lon="4.7388">
        <ele>173</ele>
        <time>2017-05-07T07:59:17Z</time>
      </trkpt>
      <trkpt lat="45.92868" lon="4.73888">
        <ele>173</ele>
        <time>2017-05-07T07:59:18Z</time>
      </trkpt>
      <trkpt lat="45.92869" lon="4.73896">
        <ele>173</ele>
        <time>2017-05-07T07:59:19Z</time>
      </trkpt>
      <trkpt lat="45.92869" lon="4.73904">
        <ele>173</ele>
        <time>2017-05-07T07:59:20Z</time>
      </trkpt>
      <trkpt lat="45.9287" lon="4.73913">
        <ele>173</ele>
        <time>2017-05-07T07:59:21Z</time>
      </trkpt>
      <trkpt lat="45.92871" lon="4.73921">
        <ele>173</ele>
        <time>2017-05-07T07:59:22Z</time>
      </trkpt>
      <trkpt lat="45.92872" lon="4.73929">
        <ele>173</ele>
        <time>2017-05-07T07:59:23Z</time>
      </trkpt>
      <trkpt lat="45.92873" lon="4.73938">
        <ele>173</ele>
        <time>2017-05-07T07:59:24Z</time>
      </trkpt>
      <trkpt lat="45.92873" lon="4.73946">
        <ele>173</ele>
        <time>2017-05-07T07:59:25Z</time>
      </trkpt>
      <trkpt lat="45.92874" lon="4.73955">
        <ele>173</ele>
        <time>2017-05-07T07:59:26Z</time>
      </trkpt>
      <trkpt lat="45.92875" lon="4.73962">
        <ele>173</ele>
        <time>2017-05-07T07:59:27Z</time>
      </trkpt>
      <trkpt lat="45.92875" lon="4.7397">
        <ele>172</ele>
        <time>2017-05-07T07:59:28Z</time>
      </trkpt>
      <trkpt lat="45.92875" lon="4.73977">
        <ele>172</ele>
        <time>2017-05-07T07:59:29Z</time>
      </trkpt>
      <trkpt lat="45.92875" lon="4.73985">
        <ele>173</ele>
        <time>2017-05-07T07:59:30Z</time>
      </trkpt>
      <trkpt lat="45.92874" lon="4.73992">
        <ele>173</ele>
        <time>2017-05-07T07:59:31Z</time>
      </trkpt>
      <trkpt lat="45.92872" lon="4.74">
        <ele>173</ele>
        <time>2017-05-07T07:59:32Z</time>
      </trkpt>
      <trkpt lat="45.92871" lon="4.74007">
        <ele>172</ele>
        <time>2017-05-07T07:59:33Z</time>
      </trkpt>
      <trkpt lat="45.92869" lon="4.74015">
        <ele>172</ele>
        <time>2017-05-07T07:59:34Z</time>
      </trkpt>
      <trkpt lat="45.92868" lon="4.74022">
        <ele>172</ele>
        <time>2017-05-07T07:59:35Z</time>
      </trkpt>
      <trkpt lat="45.92866" lon="4.7403">
        <ele>172</ele>
        <time>2017-05-07T07:59:36Z</time>
      </trkpt>
      <trkpt lat="45.92864" lon="4.74037">
        <ele>172</ele>
        <time>2017-05-07T07:59:37Z</time>
      </trkpt>
      <trkpt lat="45.92861" lon="4.74044">
        <ele>172</ele>
        <time>2017-05-07T07:59:38Z</time>
      </trkpt>
      <trkpt lat="45.92857" lon="4.74051">
        <ele>172</ele>
        <time>2017-05-07T07:59:39Z</time>
      </trkpt>
      <trkpt lat="45.92853" lon="4.74056">
        <ele>172</ele>
        <time>2017-05-07T07:59:40Z</time>
      </trkpt>
      <trkpt lat="45.92849" lon="4.74062">
        <ele>172</ele>
        <time>2017-05-07T07:59:41Z</time>
      </trkpt>
      <trkpt lat="45.92845" lon="4.74067">
        <ele>172</ele>
        <time>2017-05-07T07:59:42Z</time>
      </trkpt>
      <trkpt lat="45.9284" lon="4.74073">
        <ele>172</ele>
        <time>2017-05-07T07:59:43Z</time>
      </trkpt>
      <trkpt lat="45.92835" lon="4.74079">
        <ele>171</ele>
        <time>2017-05-07T07:59:44Z</time>
      </trkpt>
      <trkpt lat="45.92831" lon="4.74085">
        <ele>171</ele>
        <time>2017-05-07T07:59:45Z</time>
      </trkpt>
      <trkpt lat="45.92826" lon="4.7409">
        <ele>171</ele>
        <time>2017-05-07T07:59:46Z</time>
      </trkpt>
      <trkpt lat="45.92821" lon="4.74096">
        <ele>171</ele>
        <time>2017-05-07T07:59:47Z</time>
      </trkpt>
      <trkpt lat="45.92817" lon="4.74101">
        <ele>171</ele>
        <time>2017-05-07T07:59:48Z</time>
      </trkpt>
      <trkpt lat="45.92812" lon="4.74107">
        <ele>172</ele>
        <time>2017-05-07T07:59:49Z</time>
      </trkpt>
      <trkpt lat="45.92808" lon="4.74112">
        <ele>172</ele>
        <time>2017-05-07T07:59:50Z</time>
      </trkpt>
      <trkpt lat="45.92803" lon="4.74117">
        <ele>172</ele>
        <time>2017-05-07T07:59:51Z</time>
      </trkpt>
      <trkpt lat="45.92799" lon="4.74121">
        <ele>172</ele>
        <time>2017-05-07T07:59:52Z</time>
      </trkpt>
      <trkpt lat="45.92794" lon="4.74126">
        <ele>172</ele>
        <time>2017-05-07T07:59:53Z</time>
      </trkpt>
      <trkpt lat="45.92789" lon="4.74131">
        <ele>172</ele>
        <time>2017-05-07T07:59:54Z</time>
      </trkpt>
      <trkpt lat="45.92785" lon="4.74135">
        <ele>172</ele>
        <time>2017-05-07T07:59:55Z</time>
      </trkpt>
      <trkpt lat="45.9278" lon="4.7414">
        <ele>172</ele>
        <time>2017-05-07T07:59:56Z</time>
      </trkpt>
      <trkpt lat="45.92775" lon="4.74145">
        <ele>172</ele>
        <time>2017-05-07T07:59:57Z</time>
      </trkpt>
      <trkpt lat="45.92771" lon="4.7415">
        <ele>172</ele>
        <time>2017-05-07T07:59:58Z</time>
      </trkpt>
      <trkpt lat="45.92766" lon="4.74155">
        <ele>172</ele>
        <time>2017-05-07T07:59:59Z</time>
      </trkpt>
      <trkpt lat="45.92762" lon="4.7416">
        <ele>172</ele>
        <time>2017-05-07T08:00:00Z</time>
      </trkpt>
      <trkpt lat="45.92758" lon="4.74165">
        <ele>172</ele>
        <time>2017-05-07T08:00:01Z</time>
      </trkpt>
      <trkpt lat="45.92754" lon="4.7417">
        <ele>172</ele>
        <time>2017-05-07T08:00:02Z</time>
      </trkpt>
      <trkpt lat="45.9275" lon="4.74175">
        <ele>172</ele>
        <time>2017-05-07T08:00:03Z</time>
      </trkpt>
      <trkpt lat="45.92746" lon="4.74181">
        <ele>172</ele>
        <time>2017-05-07T08:00:04Z</time>
      </trkpt>
      <trkpt lat="45.92742" lon="4.74187">
        <ele>172</ele>
        <time>2017-05-07T08:00:05Z</time>
      </trkpt>
      <trkpt lat="45.92738" lon="4.74192">
        <ele>171</ele>
        <time>2017-05-07T08:00:06Z</time>
      </trkpt>
      <trkpt lat="45.92733" lon="4.74198">
        <ele>171</ele>
        <time>2017-05-07T08:00:07Z</time>
      </trkpt>
      <trkpt lat="45.92729" lon="4.74204">
        <ele>171</ele>
        <time>2017-05-07T08:00:08Z</time>
      </trkpt>
      <trkpt lat="45.92725" lon="4.74209">
        <ele>171</ele>
        <time>2017-05-07T08:00:09Z</time>
      </trkpt>
      <trkpt lat="45.92721" lon="4.74215">
        <ele>171</ele>
        <time>2017-05-07T08:00:10Z</time>
      </trkpt>
      <trkpt lat="45.92717" lon="4.74222">
        <ele>171</ele>
        <time>2017-05-07T08:00:11Z</time>
      </trkpt>
      <trkpt lat="45.92713" lon="4.74228">
        <ele>171</ele>
        <time>2017-05-07T08:00:12Z</time>
      </trkpt>
      <trkpt lat="45.92709" lon="4.74234">
        <ele>171</ele>
        <time>2017-05-07T08:00:13Z</time>
      </trkpt>
      <trkpt lat="45.92705" lon="4.74241">
        <ele>171</ele>
        <time>2017-05-07T08:00:14Z</time>
      </trkpt>
      <trkpt lat="45.92701" lon="4.74248">
        <ele>171</ele>
        <time>2017-05-07T08:00:15Z</time>
      </trkpt>
      <trkpt lat="45.92698" lon="4.74255">
        <ele>171</ele>
        <time>2017-05-07T08:00:16Z</time>
      </trkpt>
      <trkpt lat="45.92694" lon="4.74261">
        <ele>171</ele>
        <time>2017-05-07T08:00:17Z</time>
      </trkpt>
      <trkpt lat="45.9269" lon="4.74268">
        <ele>171</ele>
        <time>2017-05-07T08:00:18Z</time>
      </trkpt>
      <trkpt lat="45.92687" lon="4.74275">
        <ele>171</ele>
        <time>2017-05-07T08:00:19Z</time>
      </trkpt>
      <trkpt lat="45.92683" lon="4.74281">
        <ele>171</ele>
        <time>2017-05-07T08:00:20Z</time>
      </trkpt>
      <trkpt lat="45.92679" lon="4.74288">
        <ele>171</ele>
        <time>2017-05-07T08:00:21Z</time>
      </trkpt>
      <trkpt lat="45.92676" lon="4.74295">
        <ele>171</ele>
        <time>2017-05-07T08:00:22Z</time>
      </trkpt>
      <trkpt lat="45.92672" lon="4.74301">
        <ele>171</ele>
        <time>2017-05-07T08:00:23Z</time>
      </trkpt>
      <trkpt lat="45.92668" lon="4.74308">
        <ele>171</ele>
        <time>2017-05-07T08:00:24Z</time>
      </trkpt>
      <trkpt lat="45.92664" lon="4.74314">
        <ele>171</ele>
        <time>2017-05-07T08:00:25Z</time>
      </trkpt>
      <trkpt lat="45.92661" lon="4.74321">
        <ele>171</ele>
        <time>2017-05-07T08:00:26Z</time>
      </trkpt>
      <trkpt lat="45.92657" lon="4.74327">
        <ele>171</ele>
        <time>2017-05-07T08:00:27Z</time>
      </trkpt>
      <trkpt lat="45.92653" lon="4.74334">
        <ele>171</ele>
        <time>2017-05-07T08:00:28Z</time>
      </trkpt>
      <trkpt lat="45.92649" lon="4.74341">
        <ele>171</ele>
        <time>2017-05-07T08:00:29Z</time>
      </trkpt>
      <trkpt lat="45.92646" lon="4.74348">
        <ele>171</ele>
        <time>2017-05-07T08:00:30Z</time>
      </trkpt>
      <trkpt lat="45.92642" lon="4.74355">
        <ele>171</ele>
        <time>2017-05-07T08:00:31Z</time>
      </trkpt>
      <trkpt lat="45.92638" lon="4.74362">
        <ele>171</ele>
        <time>2017-05-07T08:00:32Z</time>
      </trkpt>
      <trkpt lat="45.92634" lon="4.74369">
        <ele>171</ele>
        <time>2017-05-07T08:00:33Z</time>
      </trkpt>
      <trkpt lat="45.9263" lon="4.74377">
        <ele>170</ele>
        <time>2017-05-07T08:00:34Z</time>
      </trkpt>
      <trkpt lat="45.92626" lon="4.74384">
        <ele>170</ele>
        <time>2017-05-07T08:00:35Z</time>
      </trkpt>
      <trkpt lat="45.92622" lon="4.74391">
        <ele>170</ele>
        <time>2017-05-07T08:00:36Z</time>
      </trkpt>
      <trkpt lat="45.92614" lon="4.74406">
        <ele>170</ele>
        <time>2017-05-07T08:00:38Z</time>
      </trkpt>
      <trkpt lat="45.9261" lon="4.74413">
        <ele>170</ele>
        <time>2017-05-07T08:00:39Z</time>
      </trkpt>
      <trkpt lat="45.92606" lon="4.74421">
        <ele>170</ele>
        <time>2017-05-07T08:00:40Z</time>
      </trkpt>
      <trkpt lat="45.92602" lon="4.74429">
        <ele>170</ele>
        <time>2017-05-07T08:00:41Z</time>
      </trkpt>
      <trkpt lat="45.92593" lon="4.74444">
        <ele>170</ele>
        <time>2017-05-07T08:00:43Z</time>
      </trkpt>
      <trkpt lat="45.92589" lon="4.74451">
        <ele>170</ele>
        <time>2017-05-07T08:00:44Z</time>
      </trkpt>
      <trkpt lat="45.92585" lon="4.74459">
        <ele>170</ele>
        <time>2017-05-07T08:00:45Z</time>
      </trkpt>
      <trkpt lat="45.92581" lon="4.74466">
        <ele>170</ele>
        <time>2017-05-07T08:00:46Z</time>
      </trkpt>
      <trkpt lat="45.92577" lon="4.74474">
        <ele>170</ele>
        <time>2017-05-07T08:00:47Z</time>
      </trkpt>
      <trkpt lat="45.92573" lon="4.74481">
        <ele>170</ele>
        <time>2017-05-07T08:00:48Z</time>
      </trkpt>
      <trkpt lat="45.92569" lon="4.74489">
        <ele>170</ele>
        <time>2017-05-07T08:00:49Z</time>
      </trkpt>
      <trkpt lat="45.92565" lon="4.74496">
        <ele>170</ele>
        <time>2017-05-07T08:00:50Z</time>
      </trkpt>
      <trkpt lat="45.92561" lon="4.74504">
        <ele>170</ele>
        <time>2017-05-07T08:00:51Z</time>
      </trkpt>
      <trkpt lat="45.92557" lon="4.74511">
        <ele>170</ele>
        <time>2017-05-07T08:00:52Z</time>
      </trkpt>
      <trkpt lat="45.92553" lon="4.74518">
        <ele>170</ele>
        <time>2017-05-07T08:00:53Z</time>
      </trkpt>
      <trkpt lat="45.92549" lon="4.74525">
        <ele>170</ele>
        <time>2017-05-07T08:00:54Z</time>
      </trkpt>
      <trkpt lat="45.92544" lon="4.74532">
        <ele>170</ele>
        <time>2017-05-07T08:00:55Z</time>
      </trkpt>
      <trkpt lat="45.9254" lon="4.74539">
        <ele>171</ele>
        <time>2017-05-07T08:00:56Z</time>
      </trkpt>
      <trkpt lat="45.92536" lon="4.74546">
        <ele>171</ele>
        <time>2017-05-07T08:00:57Z</time>
      </trkpt>
      <trkpt lat="45.92531" lon="4.74553">
        <ele>171</ele>
        <time>2017-05-07T08:00:58Z</time>
      </trkpt>
      <trkpt lat="45.92526" lon="4.7456">
        <ele>171</ele>
        <time>2017-05-07T08:00:59Z</time>
      </trkpt>
      <trkpt lat="45.92521" lon="4.74566">
        <ele>171</ele>
        <time>2017-05-07T08:01:00Z</time>
      </trkpt>
      <trkpt lat="45.92516" lon="4.74572">
        <ele>171</ele>
        <time>2017-05-07T08:01:01Z</time>
      </trkpt>
      <trkpt lat="45.92511" lon="4.74578">
        <ele>171</ele>
        <time>2017-05-07T08:01:02Z</time>
      </trkpt>
      <trkpt lat="45.92506" lon="4.74584">
        <ele>171</ele>
        <time>2017-05-07T08:01:03Z</time>
      </trkpt>
      <trkpt lat="45.92501" lon="4.7459">
        <ele>171</ele>
        <time>2017-05-07T08:01:04Z</time>
      </trkpt>
      <trkpt lat="45.92497" lon="4.74596">
        <ele>171</ele>
        <time>2017-05-07T08:01:05Z</time>
      </trkpt>
      <trkpt lat="45.92492" lon="4.74602">
        <ele>171</ele>
        <time>2017-05-07T08:01:06Z</time>
      </trkpt>
      <trkpt lat="45.92487" lon="4.74608">
        <ele>171</ele>
        <time>2017-05-07T08:01:07Z</time>
      </trkpt>
      <trkpt lat="45.92482" lon="4.74614">
        <ele>171</ele>
        <time>2017-05-07T08:01:08Z</time>
      </trkpt>
      <trkpt lat="45.92478" lon="4.7462">
        <ele>171</ele>
        <time>2017-05-07T08:01:09Z</time>
      </trkpt>
      <trkpt lat="45.92474" lon="4.74627">
        <ele>171</ele>
        <time>2017-05-07T08:01:10Z</time>
      </trkpt>
      <trkpt lat="45.92469" lon="4.74633">
        <ele>171</ele>
        <time>2017-05-07T08:01:11Z</time>
      </trkpt>
      <trkpt lat="45.92465" lon="4.7464">
        <ele>171</ele>
        <time>2017-05-07T08:01:12Z</time>
      </trkpt>
      <trkpt lat="45.92461" lon="4.74646">
        <ele>171</ele>
        <time>2017-05-07T08:01:13Z</time>
      </trkpt>
      <trkpt lat="45.92457" lon="4.74652">
        <ele>171</ele>
        <time>2017-05-07T08:01:14Z</time>
      </trkpt>
      <trkpt lat="45.92453" lon="4.74658">
        <ele>171</ele>
        <time>2017-05-07T08:01:15Z</time>
      </trkpt>
      <trkpt lat="45.9245" lon="4.74665">
        <ele>171</ele>
        <time>2017-05-07T08:01:16Z</time>
      </trkpt>
      <trkpt lat="45.92447" lon="4.74672">
        <ele>171</ele>
        <time>2017-05-07T08:01:17Z</time>
      </trkpt>
      <trkpt lat="45.92444" lon="4.74679">
        <ele>171</ele>
        <time>2017-05-07T08:01:18Z</time>
      </trkpt>
      <trkpt lat="45.9244" lon="4.74685">
        <ele>171</ele>
        <time>2017-05-07T08:01:19Z</time>
      </trkpt>
      <trkpt lat="45.92437" lon="4.74693">
        <ele>171</ele>
        <time>2017-05-07T08:01:20Z</time>
      </trkpt>
      <trkpt lat="45.92433" lon="4.747">
        <ele>171</ele>
        <time>2017-05-07T08:01:21Z</time>
      </trkpt>
      <trkpt lat="45.9243" lon="4.74708">
        <ele>171</ele>
        <time>2017-05-07T08:01:22Z</time>
      </trkpt>
      <trkpt lat="45.92427" lon="4.74716">
        <ele>171</ele>
        <time>2017-05-07T08:01:23Z</time>
      </trkpt>
      <trkpt lat="45.92424" lon="4.74725">
        <ele>171</ele>
        <time>2017-05-07T08:01:24Z</time>
      </trkpt>
      <trkpt lat="45.92421" lon="4.74733">
        <ele>171</ele>
        <time>2017-05-07T08:01:25Z</time>
      </trkpt>
      <trkpt lat="45.92418" lon="4.74742">
        <ele>172</ele>
        <time>2017-05-07T08:01:26Z</time>
      </trkpt>
      <trkpt lat="45.92416" lon="4.74752">
        <ele>172</ele>
        <time>2017-05-07T08:01:27Z</time>
      </trkpt>
      <trkpt lat="45.92414" lon="4.74761">
        <ele>172</ele>
        <time>2017-05-07T08:01:28Z</time>
      </trkpt>
      <trkpt lat="45.92411" lon="4.7477">
        <ele>172</ele>
        <time>2017-05-07T08:01:29Z</time>
      </trkpt>
      <trkpt lat="45.92409" lon="4.74779">
        <ele>171</ele>
        <time>2017-05-07T08:01:30Z</time>
      </trkpt>
      <trkpt lat="45.92407" lon="4.74789">
        <ele>171</ele>
        <time>2017-05-07T08:01:31Z</time>
      </trkpt>
      <trkpt lat="45.92405" lon="4.74798">
        <ele>171</ele>
        <time>2017-05-07T08:01:32Z</time>
      </trkpt>
      <trkpt lat="45.92403" lon="4.74808">
        <ele>171</ele>
        <time>2017-05-07T08:01:33Z</time>
      </trkpt>
      <trkpt lat="45.92401" lon="4.74817">
        <ele>171</ele>
        <time>2017-05-07T08:01:34Z</time>
      </trkpt>
      <trkpt lat="45.92399" lon="4.74827">
        <ele>171</ele>
        <time>2017-05-07T08:01:35Z</time>
      </trkpt>
      <trkpt lat="45.92397" lon="4.74836">
        <ele>171</ele>
        <time>2017-05-07T08:01:36Z</time>
      </trkpt>
      <trkpt lat="45.92394" lon="4.74845">
        <ele>171</ele>
        <time>2017-05-07T08:01:37Z</time>
      </trkpt>
      <trkpt lat="45.92392" lon="4.74854">
        <ele>171</ele>
        <time>2017-05-07T08:01:38Z</time>
      </trkpt>
      <trkpt lat="45.92389" lon="4.74863">
        <ele>171</ele>
        <time>2017-05-07T08:01:39Z</time>
      </trkpt>
      <trkpt lat="45.92386" lon="4.74872">
        <ele>171</ele>
        <time>2017-05-07T08:01:40Z</time>
      </trkpt>
      <trkpt lat="45.92383" lon="4.7488">
        <ele>171</ele>
        <time>2017-05-07T08:01:41Z</time>
      </trkpt>
      <trkpt lat="45.9238" lon="4.74889">
        <ele>171</ele>
        <time>2017-05-07T08:01:42Z</time>
      </trkpt>
      <trkpt lat="45.92377" lon="4.74898">
        <ele>171</ele>
        <time>2017-05-07T08:01:43Z</time>
      </trkpt>
      <trkpt lat="45.92373" lon="4.74906">
        <ele>171</ele>
        <time>2017-05-07T08:01:44Z</time>
      </trkpt>
      <trkpt lat="45.9237" lon="4.74914">
        <ele>171</ele>
        <time>2017-05-07T08:01:45Z</time>
      </trkpt>
      <trkpt lat="45.92367" lon="4.74922">
        <ele>170</ele>
        <time>2017-05-07T08:01:46Z</time>
      </trkpt>
      <trkpt lat="45.92364" lon="4.7493">
        <ele>170</ele>
        <time>2017-05-07T08:01:47Z</time>
      </trkpt>
      <trkpt lat="45.92361" lon="4.74937">
        <ele>170</ele>
        <time>2017-05-07T08:01:48Z</time>
      </trkpt>
      <trkpt lat="45.92358" lon="4.74945">
        <ele>170</ele>
        <time>2017-05-07T08:01:49Z</time>
      </trkpt>
      <trkpt lat="45.92355" lon="4.74952">
        <ele>170</ele>
        <time>2017-05-07T08:01:50Z</time>
      </trkpt>
      <trkpt lat="45.92352" lon="4.74959">
        <ele>170</ele>
        <time>2017-05-07T08:01:51Z</time>
      </trkpt>
      <trkpt lat="45.92349" lon="4.74967">
        <ele>170</ele>
        <time>2017-05-07T08:01:52Z</time>
      </trkpt>
      <trkpt lat="45.92347" lon="4.74974">
        <ele>170</ele>
        <time>2017-05-07T08:01:53Z</time>
      </trkpt>
      <trkpt lat="45.92343" lon="4.74982">
        <ele>170</ele>
        <time>2017-05-07T08:01:54Z</time>
      </trkpt>
      <trkpt lat="45.9234" lon="4.7499">
        <ele>170</ele>
        <time>2017-05-07T08:01:55Z</time>
      </trkpt>
      <trkpt lat="45.92337" lon="4.74999">
        <ele>170</ele>
        <time>2017-05-07T08:01:56Z</time>
      </trkpt>
      <trkpt lat="45.92333" lon="4.75006">
        <ele>170</ele>
        <time>2017-05-07T08:01:57Z</time>
      </trkpt>
      <trkpt lat="45.9233" lon="4.75015">
        <ele>171</ele>
        <time>2017-05-07T08:01:58Z</time>
      </trkpt>
      <trkpt lat="45.92326" lon="4.75023">
        <ele>171</ele>
        <time>2017-05-07T08:01:59Z</time>
      </trkpt>
      <trkpt lat="45.92322" lon="4.7503">
        <ele>171</ele>
        <time>2017-05-07T08:02:00Z</time>
      </trkpt>
      <trkpt lat="45.92318" lon="4.75037">
        <ele>171</ele>
        <time>2017-05-07T08:02:01Z</time>
      </trkpt>
      <trkpt lat="45.92314" lon="4.75044">
        <ele>172</ele>
        <time>2017-05-07T08:02:02Z</time>
      </trkpt>
      <trkpt lat="45.9231" lon="4.7505">
        <ele>172</ele>
        <time>2017-05-07T08:02:03Z</time>
      </trkpt>
      <trkpt lat="45.92306" lon="4.75055">
        <ele>172</ele>
        <time>2017-05-07T08:02:04Z</time>
      </trkpt>
      <trkpt lat="45.92302" lon="4.7506">
        <ele>172</ele>
        <time>2017-05-07T08:02:05Z</time>
      </trkpt>
      <trkpt lat="45.92297" lon="4.75066">
        <ele>172</ele>
        <time>2017-05-07T08:02:06Z</time>
      </trkpt>
      <trkpt lat="45.92293" lon="4.75071">
        <ele>172</ele>
        <time>2017-05-07T08:02:07Z</time>
      </trkpt>
      <trkpt lat="45.92288" lon="4.75076">
        <ele>172</ele>
        <time>2017-05-07T08:02:08Z</time>
      </trkpt>
      <trkpt lat="45.92284" lon="4.75081">
        <ele>172</ele>
        <time>2017-05-07T08:02:09Z</time>
      </trkpt>
      <trkpt lat="45.92279" lon="4.75085">
        <ele>173</ele>
        <time>2017-05-07T08:02:10Z</time>
      </trkpt>
      <trkpt lat="45.92274" lon="4.75091">
        <ele>173</ele>
        <time>2017-05-07T08:02:11Z</time>
      </trkpt>
      <trkpt lat="45.92269" lon="4.75096">
        <ele>173</ele>
        <time>2017-05-07T08:02:12Z</time>
      </trkpt>
      <trkpt lat="45.92264" lon="4.75101">
        <ele>173</ele>
        <time>2017-05-07T08:02:13Z</time>
      </trkpt>
      <trkpt lat="45.9226" lon="4.75106">
        <ele>174</ele>
        <time>2017-05-07T08:02:14Z</time>
      </trkpt>
      <trkpt lat="45.92255" lon="4.75111">
        <ele>174</ele>
        <time>2017-05-07T08:02:15Z</time>
      </trkpt>
      <trkpt lat="45.9225" lon="4.75116">
        <ele>174</ele>
        <time>2017-05-07T08:02:16Z</time>
      </trkpt>
      <trkpt lat="45.92246" lon="4.75121">
        <ele>174</ele>
        <time>2017-05-07T08:02:17Z</time>
      </trkpt>
      <trkpt lat="45.92242" lon="4.75127">
        <ele>174</ele>
        <time>2017-05-07T08:02:18Z</time>
      </trkpt>
      <trkpt lat="45.92238" lon="4.75132">
        <ele>174</ele>
        <time>2017-05-07T08:02:19Z</time>
      </trkpt>
      <trkpt lat="45.92234" lon="4.75138">
        <ele>174</ele>
        <time>2017-05-07T08:02:20Z</time>
      </trkpt>
      <trkpt lat="45.9223" lon="4.75144">
        <ele>174</ele>
        <time>2017-05-07T08:02:21Z</time>
      </trkpt>
      <trkpt lat="45.92227" lon="4.75151">
        <ele>174</ele>
        <time>2017-05-07T08:02:22Z</time>
      </trkpt>
      <trkpt lat="45.92224" lon="4.75159">
        <ele>174</ele>
        <time>2017-05-07T08:02:23Z</time>
      </trkpt>
      <trkpt lat="45.92221" lon="4.75167">
        <ele>174</ele>
        <time>2017-05-07T08:02:24Z</time>
      </trkpt>
      <trkpt lat="45.92219" lon="4.75174">
        <ele>175</ele>
        <time>2017-05-07T08:02:25Z</time>
      </trkpt>
      <trkpt lat="45.92216" lon="4.75181">
        <ele>175</ele>
        <time>2017-05-07T08:02:26Z</time>
      </trkpt>
      <trkpt lat="45.92215" lon="4.75189">
        <ele>175</ele>
        <time>2017-05-07T08:02:27Z</time>
      </trkpt>
      <trkpt lat="45.92213" lon="4.75197">
        <ele>175</ele>
        <time>2017-05-07T08:02:28Z</time>
      </trkpt>
      <trkpt lat="45.92212" lon="4.75205">
        <ele>175</ele>
        <time>2017-05-07T08:02:29Z</time>
      </trkpt>
      <trkpt lat="45.9221" lon="4.75213">
        <ele>175</ele>
        <time>2017-05-07T08:02:30Z</time>
      </trkpt>
      <trkpt lat="45.9221" lon="4.75221">
        <ele>175</ele>
        <time>2017-05-07T08:02:31Z</time>
      </trkpt>
      <trkpt lat="45.9221" lon="4.75229">
        <ele>175</ele>
        <time>2017-05-07T08:02:32Z</time>
      </trkpt>
      <trkpt lat="45.92209" lon="4.75237">
        <ele>175</ele>
        <time>2017-05-07T08:02:33Z</time>
      </trkpt>
      <trkpt lat="45.92209" lon="4.75245">
        <ele>175</ele>
        <time>2017-05-07T08:02:34Z</time>
      </trkpt>
      <trkpt lat="45.92209" lon="4.75252">
        <ele>175</ele>
        <time>2017-05-07T08:02:35Z</time>
      </trkpt>
      <trkpt lat="45.9221" lon="4.75259">
        <ele>176</ele>
        <time>2017-05-07T08:02:36Z</time>
      </trkpt>
      <trkpt lat="45.92209" lon="4.75267">
        <ele>176</ele>
        <time>2017-05-07T08:02:37Z</time>
      </trkpt>
      <trkpt lat="45.92209" lon="4.75274">
        <ele>176</ele>
        <time>2017-05-07T08:02:38Z</time>
      </trkpt>
      <trkpt lat="45.92208" lon="4.75281">
        <ele>176</ele>
        <time>2017-05-07T08:02:39Z</time>
      </trkpt>
      <trkpt lat="45.92208" lon="4.75289">
        <ele>176</ele>
        <time>2017-05-07T08:02:40Z</time>
      </trkpt>
      <trkpt lat="45.92208" lon="4.75297">
        <ele>176</ele>
        <time>2017-05-07T08:02:41Z</time>
      </trkpt>
      <trkpt lat="45.92207" lon="4.75305">
        <ele>176</ele>
        <time>2017-05-07T08:02:42Z</time>
      </trkpt>
      <trkpt lat="45.92207" lon="4.75313">
        <ele>176</ele>
        <time>2017-05-07T08:02:43Z</time>
      </trkpt>
      <trkpt lat="45.92205" lon="4.75321">
        <ele>176</ele>
        <time>2017-05-07T08:02:44Z</time>
      </trkpt>
      <trkpt lat="45.92205" lon="4.75328">
        <ele>176</ele>
        <time>2017-05-07T08:02:45Z</time>
      </trkpt>
      <trkpt lat="45.92203" lon="4.75335">
        <ele>177</ele>
        <time>2017-05-07T08:02:46Z</time>
      </trkpt>
      <trkpt lat="45.92202" lon="4.75343">
        <ele>177</ele>
        <time>2017-05-07T08:02:47Z</time>
      </trkpt>
      <trkpt lat="45.922" lon="4.7535">
        <ele>177</ele>
        <time>2017-05-07T08:02:48Z</time>
      </trkpt>
      <trkpt lat="45.92197" lon="4.75357">
        <ele>177</ele>
        <time>2017-05-07T08:02:49Z</time>
      </trkpt>
      <trkpt lat="45.92195" lon="4.75364">
        <ele>177</ele>
        <time>2017-05-07T08:02:50Z</time>
      </trkpt>
      <trkpt lat="45.92192" lon="4.7537">
        <ele>177</ele>
        <time>2017-05-07T08:02:51Z</time>
      </trkpt>
      <trkpt lat="45.9219" lon="4.75378">
        <ele>177</ele>
        <time>2017-05-07T08:02:52Z</time>
      </trkpt>
      <trkpt lat="45.92187" lon="4.75385">
        <ele>177</ele>
        <time>2017-05-07T08:02:53Z</time>
      </trkpt>
      <trkpt lat="45.92184" lon="4.75392">
        <ele>177</ele>
        <time>2017-05-07T08:02:54Z</time>
      </trkpt>
      <trkpt lat="45.92181" lon="4.75398">
        <ele>177</ele>
        <time>2017-05-07T08:02:55Z</time>
      </trkpt>
      <trkpt lat="45.92179" lon="4.75406">
        <ele>177</ele>
        <time>2017-05-07T08:02:56Z</time>
      </trkpt>
      <trkpt lat="45.92176" lon="4.75413">
        <ele>178</ele>
        <time>2017-05-07T08:02:57Z</time>
      </trkpt>
      <trkpt lat="45.92173" lon="4.7542">
        <ele>177</ele>
        <time>2017-05-07T08:02:58Z</time>
      </trkpt>
      <trkpt lat="45.9217" lon="4.75428">
        <ele>177</ele>
        <time>2017-05-07T08:02:59Z</time>
      </trkpt>
      <trkpt lat="45.92167" lon="4.75435">
        <ele>177</ele>
        <time>2017-05-07T08:03:00Z</time>
      </trkpt>
      <trkpt lat="45.92165" lon="4.75442">
        <ele>177</ele>
        <time>2017-05-07T08:03:01Z</time>
      </trkpt>
      <trkpt lat="45.92163" lon="4.75449">
        <ele>176</ele>
        <time>2017-05-07T08:03:02Z</time>
      </trkpt>
      <trkpt lat="45.9216" lon="4.75457">
        <ele>176</ele>
        <time>2017-05-07T08:03:03Z</time>
      </trkpt>
      <trkpt lat="45.92157" lon="4.75465">
        <ele>176</ele>
        <time>2017-05-07T08:03:04Z</time>
      </trkpt>
      <trkpt lat="45.92153" lon="4.75474">
        <ele>176</ele>
        <time>2017-05-07T08:03:05Z</time>
      </trkpt>
      <trkpt lat="45.9215" lon="4.75482">
        <ele>176</ele>
        <time>2017-05-07T08:03:06Z</time>
      </trkpt>
      <trkpt lat="45.92146" lon="4.7549">
        <ele>176</ele>
        <time>2017-05-07T08:03:07Z</time>
      </trkpt>
      <trkpt lat="45.92141" lon="4.75498">
        <ele>175</ele>
        <time>2017-05-07T08:03:08Z</time>
      </trkpt>
      <trkpt lat="45.92137" lon="4.75506">
        <ele>174</ele>
        <time>2017-05-07T08:03:09Z</time>
      </trkpt>
      <trkpt lat="45.92133" lon="4.75513">
        <ele>174</ele>
        <time>2017-05-07T08:03:10Z</time>
      </trkpt>
      <trkpt lat="45.9213" lon="4.75521">
        <ele>174</ele>
        <time>2017-05-07T08:03:11Z</time>
      </trkpt>
      <trkpt lat="45.92126" lon="4.75528">
        <ele>174</ele>
        <time>2017-05-07T08:03:12Z</time>
      </trkpt>
      <trkpt lat="45.92123" lon="4.75535">
        <ele>174</ele>
        <time>2017-05-07T08:03:13Z</time>
      </trkpt>
      <trkpt lat="45.9212" lon="4.75541">
        <ele>174</ele>
        <time>2017-05-07T08:03:14Z</time>
      </trkpt>
      <trkpt lat="45.92118" lon="4.75546">
        <ele>174</ele>
        <time>2017-05-07T08:03:15Z</time>
      </trkpt>
      <trkpt lat="45.92113" lon="4.75555">
        <ele>174</ele>
        <time>2017-05-07T08:03:17Z</time>
      </trkpt>
      <trkpt lat="45.92111" lon="4.75559">
        <ele>174</ele>
        <time>2017-05-07T08:03:18Z</time>
      </trkpt>
      <trkpt lat="45.92107" lon="4.75567">
        <ele>174</ele>
        <time>2017-05-07T08:03:21Z</time>
      </trkpt>
      <trkpt lat="45.92106" lon="4.7557">
        <ele>174</ele>
        <time>2017-05-07T08:03:22Z</time>
      </trkpt>
      <trkpt lat="45.92105" lon="4.75578">
        <ele>174</ele>
        <time>2017-05-07T08:03:24Z</time>
      </trkpt>
      <trkpt lat="45.92106" lon="4.75584">
        <ele>174</ele>
        <time>2017-05-07T08:03:25Z</time>
      </trkpt>
      <trkpt lat="45.92109" lon="4.75588">
        <ele>174</ele>
        <time>2017-05-07T08:03:26Z</time>
      </trkpt>
      <trkpt lat="45.92113" lon="4.75593">
        <ele>174</ele>
        <time>2017-05-07T08:03:27Z</time>
      </trkpt>
      <trkpt lat="45.92117" lon="4.75597">
        <ele>174</ele>
        <time>2017-05-07T08:03:28Z</time>
      </trkpt>
      <trkpt lat="45.92121" lon="4.756">
        <ele>174</ele>
        <time>2017-05-07T08:03:29Z</time>
      </trkpt>
      <trkpt lat="45.92126" lon="4.75605">
        <ele>174</ele>
        <time>2017-05-07T08:03:30Z</time>
      </trkpt>
      <trkpt lat="45.9213" lon="4.7561">
        <ele>174</ele>
        <time>2017-05-07T08:03:31Z</time>
      </trkpt>
      <trkpt lat="45.92134" lon="4.75615">
        <ele>174</ele>
        <time>2017-05-07T08:03:32Z</time>
      </trkpt>
      <trkpt lat="45.92138" lon="4.75619">
        <ele>174</ele>
        <time>2017-05-07T08:03:33Z</time>
      </trkpt>
      <trkpt lat="45.92143" lon="4.75624">
        <ele>174</ele>
        <time>2017-05-07T08:03:34Z</time>
      </trkpt>
      <trkpt lat="45.92147" lon="4.75628">
        <ele>174</ele>
        <time>2017-05-07T08:03:35Z</time>
      </trkpt>
      <trkpt lat="45.92152" lon="4.75633">
        <ele>174</ele>
        <time>2017-05-07T08:03:36Z</time>
      </trkpt>
      <trkpt lat="45.92156" lon="4.75637">
        <ele>174</ele>
        <time>2017-05-07T08:03:37Z</time>
      </trkpt>
      <trkpt lat="45.9216" lon="4.75642">
        <ele>174</ele>
        <time>2017-05-07T08:03:38Z</time>
      </trkpt>
      <trkpt lat="45.92164" lon="4.75646">
        <ele>174</ele>
        <time>2017-05-07T08:03:39Z</time>
      </trkpt>
      <trkpt lat="45.92168" lon="4.7565">
        <ele>174</ele>
        <time>2017-05-07T08:03:40Z</time>
      </trkpt>
      <trkpt lat="45.92172" lon="4.75654">
        <ele>174</ele>
        <time>2017-05-07T08:03:41Z</time>
      </trkpt>
      <trkpt lat="45.92177" lon="4.75658">
        <ele>174</ele>
        <time>2017-05-07T08:03:42Z</time>
      </trkpt>
      <trkpt lat="45.92181" lon="4.75662">
        <ele>174</ele>
        <time>2017-05-07T08:03:43Z</time>
      </trkpt>
      <trkpt lat="45.92186" lon="4.75665">
        <ele>174</ele>
        <time>2017-05-07T08:03:44Z</time>
      </trkpt>
      <trkpt lat="45.9219" lon="4.75669">
        <ele>174</ele>
        <time>2017-05-07T08:03:45Z</time>
      </trkpt>
      <trkpt lat="45.92193" lon="4.75672">
        <ele>174</ele>
        <time>2017-05-07T08:03:46Z</time>
      </trkpt>
      <trkpt lat="45.92197" lon="4.75677">
        <ele>174</ele>
        <time>2017-05-07T08:03:47Z</time>
      </trkpt>
      <trkpt lat="45.92201" lon="4.75682">
        <ele>174</ele>
        <time>2017-05-07T08:03:48Z</time>
      </trkpt>
      <trkpt lat="45.92205" lon="4.75687">
        <ele>174</ele>
        <time>2017-05-07T08:03:49Z</time>
      </trkpt>
      <trkpt lat="45.92209" lon="4.75692">
        <ele>174</ele>
        <time>2017-05-07T08:03:50Z</time>
      </trkpt>
      <trkpt lat="45.92213" lon="4.75696">
        <ele>174</ele>
        <time>2017-05-07T08:03:51Z</time>
      </trkpt>
      <trkpt lat="45.92218" lon="4.757">
        <ele>174</ele>
        <time>2017-05-07T08:03:52Z</time>
      </trkpt>
      <trkpt lat="45.92221" lon="4.75706">
        <ele>174</ele>
        <time>2017-05-07T08:03:53Z</time>
      </trkpt>
      <trkpt lat="45.92225" lon="4.75711">
        <ele>174</ele>
        <time>2017-05-07T08:03:54Z</time>
      </trkpt>
      <trkpt lat="45.92229" lon="4.75716">
        <ele>174</ele>
        <time>2017-05-07T08:03:55Z</time>
      </trkpt>
      <trkpt lat="45.92232" lon="4.75724">
        <ele>174</ele>
        <time>2017-05-07T08:03:56Z</time>
      </trkpt>
      <trkpt lat="45.92235" lon="4.75731">
        <ele>174</ele>
        <time>2017-05-07T08:03:57Z</time>
      </trkpt>
      <trkpt lat="45.92237" lon="4.75738">
        <ele>174</ele>
        <time>2017-05-07T08:03:58Z</time>
      </trkpt>
      <trkpt lat="45.92239" lon="4.75745">
        <ele>174</ele>
        <time>2017-05-07T08:03:59Z</time>
      </trkpt>
      <trkpt lat="45.92241" lon="4.75752">
        <ele>174</ele>
        <time>2017-05-07T08:04:00Z</time>
      </trkpt>
      <trkpt lat="45.92243" lon="4.75759">
        <ele>174</ele>
        <time>2017-05-07T08:04:01Z</time>
      </trkpt>
      <trkpt lat="45.92245" lon="4.75765">
        <ele>174</ele>
        <time>2017-05-07T08:04:02Z</time>
      </trkpt>
      <trkpt lat="45.92246" lon="4.75772">
        <ele>174</ele>
        <time>2017-05-07T08:04:03Z</time>
      </trkpt>
      <trkpt lat="45.92247" lon="4.7578">
        <ele>173</ele>
        <time>2017-05-07T08:04:04Z</time>
      </trkpt>
      <trkpt lat="45.92249" lon="4.75787">
        <ele>173</ele>
        <time>2017-05-07T08:04:05Z</time>
      </trkpt>
      <trkpt lat="45.9225" lon="4.75794">
        <ele>174</ele>
        <time>2017-05-07T08:04:06Z</time>
      </trkpt>
      <trkpt lat="45.92252" lon="4.75801">
        <ele>174</ele>
        <time>2017-05-07T08:04:07Z</time>
      </trkpt>
      <trkpt lat="45.92254" lon="4.75808">
        <ele>174</ele>
        <time>2017-05-07T08:04:08Z</time>
      </trkpt>
      <trkpt lat="45.92256" lon="4.75815">
        <ele>174</ele>
        <time>2017-05-07T08:04:09Z</time>
      </trkpt>
      <trkpt lat="45.92259" lon="4.75822">
        <ele>174</ele>
        <time>2017-05-07T08:04:10Z</time>
      </trkpt>
      <trkpt lat="45.92263" lon="4.75828">
        <ele>174</ele>
        <time>2017-05-07T08:04:11Z</time>
      </trkpt>
      <trkpt lat="45.92267" lon="4.75834">
        <ele>173</ele>
        <time>2017-05-07T08:04:12Z</time>
      </trkpt>
      <trkpt lat="45.92272" lon="4.75839">
        <ele>173</ele>
        <time>2017-05-07T08:04:13Z</time>
      </trkpt>
      <trkpt lat="45.92276" lon="4.75843">
        <ele>173</ele>
        <time>2017-05-07T08:04:14Z</time>
      </trkpt>
      <trkpt lat="45.92282" lon="4.75847">
        <ele>173</ele>
        <time>2017-05-07T08:04:15Z</time>
      </trkpt>
      <trkpt lat="45.92287" lon="4.75851">
        <ele>173</ele>
        <time>2017-05-07T08:04:16Z</time>
      </trkpt>
      <trkpt lat="45.92293" lon="4.75854">
        <ele>173</ele>
        <time>2017-05-07T08:04:17Z</time>
      </trkpt>
      <trkpt lat="45.92298" lon="4.75858">
        <ele>173</ele>
        <time>2017-05-07T08:04:18Z</time>
      </trkpt>
      <trkpt lat="45.92304" lon="4.75861">
        <ele>173</ele>
        <time>2017-05-07T08:04:19Z</time>
      </trkpt>
      <trkpt lat="45.92309" lon="4.75865">
        <ele>173</ele>
        <time>2017-05-07T08:04:20Z</time>
      </trkpt>
      <trkpt lat="45.92315" lon="4.75868">
        <ele>173</ele>
        <time>2017-05-07T08:04:21Z</time>
      </trkpt>
      <trkpt lat="45.9232" lon="4.75872">
        <ele>173</ele>
        <time>2017-05-07T08:04:22Z</time>
      </trkpt>
      <trkpt lat="45.92326" lon="4.75876">
        <ele>173</ele>
        <time>2017-05-07T08:04:23Z</time>
      </trkpt>
      <trkpt lat="45.92331" lon="4.75879">
        <ele>173</ele>
        <time>2017-05-07T08:04:24Z</time>
      </trkpt>
      <trkpt lat="45.92337" lon="4.75883">
        <ele>173</ele>
        <time>2017-05-07T08:04:25Z</time>
      </trkpt>
      <trkpt lat="45.92342" lon="4.75886">
        <ele>173</ele>
        <time>2017-05-07T08:04:26Z</time>
      </trkpt>
      <trkpt lat="45.92349" lon="4.75888">
        <ele>173</ele>
        <time>2017-05-07T08:04:27Z</time>
      </trkpt>
      <trkpt lat="45.92354" lon="4.7589">
        <ele>173</ele>
        <time>2017-05-07T08:04:28Z</time>
      </trkpt>
      <trkpt lat="45.9236" lon="4.75893">
        <ele>173</ele>
        <time>2017-05-07T08:04:29Z</time>
      </trkpt>
      <trkpt lat="45.92365" lon="4.75895">
        <ele>173</ele>
        <time>2017-05-07T08:04:30Z</time>
      </trkpt>
      <trkpt lat="45.9237" lon="4.75899">
        <ele>173</ele>
        <time>2017-05-07T08:04:31Z</time>
      </trkpt>
      <trkpt lat="45.92375" lon="4.75902">
        <ele>173</ele>
        <time>2017-05-07T08:04:32Z</time>
      </trkpt>
      <trkpt lat="45.9238" lon="4.75904">
        <ele>173</ele>
        <time>2017-05-07T08:04:33Z</time>
      </trkpt>
      <trkpt lat="45.92385" lon="4.75907">
        <ele>173</ele>
        <time>2017-05-07T08:04:34Z</time>
      </trkpt>
      <trkpt lat="45.9239" lon="4.7591">
        <ele>173</ele>
        <time>2017-05-07T08:04:35Z</time>
      </trkpt>
      <trkpt lat="45.92395" lon="4.75913">
        <ele>173</ele>
        <time>2017-05-07T08:04:36Z</time>
      </trkpt>
      <trkpt lat="45.924" lon="4.75916">
        <ele>172</ele>
        <time>2017-05-07T08:04:37Z</time>
      </trkpt>
      <trkpt lat="45.92404" lon="4.75919">
        <ele>172</ele>
        <time>2017-05-07T08:04:38Z</time>
      </trkpt>
      <trkpt lat="45.92409" lon="4.75923">
        <ele>172</ele>
        <time>2017-05-07T08:04:39Z</time>
      </trkpt>
      <trkpt lat="45.92413" lon="4.75927">
        <ele>172</ele>
        <time>2017-05-07T08:04:40Z</time>
      </trkpt>
      <trkpt lat="45.92418" lon="4.7593">
        <ele>172</ele>
        <time>2017-05-07T08:04:41Z</time>
      </trkpt>
      <trkpt lat="45.92422" lon="4.75934">
        <ele>172</ele>
        <time>2017-05-07T08:04:42Z</time>
      </trkpt>
      <trkpt lat="45.92427" lon="4.75937">
        <ele>172</ele>
        <time>2017-05-07T08:04:43Z</time>
      </trkpt>
      <trkpt lat="45.92432" lon="4.7594">
        <ele>172</ele>
        <time>2017-05-07T08:04:44Z</time>
      </trkpt>
      <trkpt lat="45.92436" lon="4.75944">
        <ele>172</ele>
        <time>2017-05-07T08:04:45Z</time>
      </trkpt>
      <trkpt lat="45.92441" lon="4.75947">
        <ele>172</ele>
        <time>2017-05-07T08:04:46Z</time>
      </trkpt>
      <trkpt lat="45.92446" lon="4.7595">
        <ele>172</ele>
        <time>2017-05-07T08:04:47Z</time>
      </trkpt>
      <trkpt lat="45.9245" lon="4.75954">
        <ele>172</ele>
        <time>2017-05-07T08:04:48Z</time>
      </trkpt>
      <trkpt lat="45.92455" lon="4.75958">
        <ele>172</ele>
        <time>2017-05-07T08:04:49Z</time>
      </trkpt>
      <trkpt lat="45.92459" lon="4.75961">
        <ele>172</ele>
        <time>2017-05-07T08:04:50Z</time>
      </trkpt>
      <trkpt lat="45.92464" lon="4.75965">
        <ele>172</ele>
        <time>2017-05-07T08:04:51Z</time>
      </trkpt>
      <trkpt lat="45.92468" lon="4.75969">
        <ele>172</ele>
        <time>2017-05-07T08:04:52Z</time>
      </trkpt>
      <trkpt lat="45.92472" lon="4.75973">
        <ele>172</ele>
        <time>2017-05-07T08:04:53Z</time>
      </trkpt>
      <trkpt lat="45.92477" lon="4.75976">
        <ele>172</ele>
        <time>2017-05-07T08:04:54Z</time>
      </trkpt>
      <trkpt lat="45.92481" lon="4.75979">
        <ele>172</ele>
        <time>2017-05-07T08:04:55Z</time>
      </trkpt>
      <trkpt lat="45.92485" lon="4.75983">
        <ele>172</ele>
        <time>2017-05-07T08:04:56Z</time>
      </trkpt>
      <trkpt lat="45.92489" lon="4.75986">
        <ele>172</ele>
        <time>2017-05-07T08:04:57Z</time>
      </trkpt>
      <trkpt lat="45.92496" lon="4.75992">
        <ele>172</ele>
        <time>2017-05-07T08:04:59Z</time>
      </trkpt>
      <trkpt lat="45.925" lon="4.75995">
        <ele>172</ele>
        <time>2017-05-07T08:05:00Z</time>
      </trkpt>
      <trkpt lat="45.92507" lon="4.76001">
        <ele>172</ele>
        <time>2017-05-07T08:05:02Z</time>
      </trkpt>
      <trkpt lat="45.92511" lon="4.76004">
        <ele>172</ele>
        <time>2017-05-07T08:05:03Z</time>
      </trkpt>
      <trkpt lat="45.92517" lon="4.7601">
        <ele>172</ele>
        <time>2017-05-07T08:05:05Z</time>
      </trkpt>
      <trkpt lat="45.92519" lon="4.76013">
        <ele>172</ele>
        <time>2017-05-07T08:05:06Z</time>
      </trkpt>
      <trkpt lat="45.92526" lon="4.76015">
        <ele>172</ele>
        <time>2017-05-07T08:06:12Z</time>
      </trkpt>
      <trkpt lat="45.92528" lon="4.76015">
        <ele>172</ele>
        <time>2017-05-07T08:06:13Z</time>
      </trkpt>
      <trkpt lat="45.92535" lon="4.76019">
        <ele>172</ele>
        <time>2017-05-07T08:06:17Z</time>
      </trkpt>
      <trkpt lat="45.92537" lon="4.76021">
        <ele>172</ele>
        <time>2017-05-07T08:06:18Z</time>
      </trkpt>
      <trkpt lat="45.92542" lon="4.76025">
        <ele>172</ele>
        <time>2017-05-07T08:06:20Z</time>
      </trkpt>
      <trkpt lat="45.92545" lon="4.76027">
        <ele>172</ele>
        <time>2017-05-07T08:06:21Z</time>
      </trkpt>
      <trkpt lat="45.92553" lon="4.76033">
        <ele>172</ele>
        <time>2017-05-07T08:06:23Z</time>
      </trkpt>
      <trkpt lat="45.92557" lon="4.76036">
        <ele>172</ele>
        <time>2017-05-07T08:06:24Z</time>
      </trkpt>
      <trkpt lat="45.92561" lon="4.76039">
        <ele>172</ele>
        <time>2017-05-07T08:06:25Z</time>
      </trkpt>
      <trkpt lat="45.92566" lon="4.76042">
        <ele>171</ele>
        <time>2017-05-07T08:06:26Z</time>
      </trkpt>
      <trkpt lat="45.92571" lon="4.76046">
        <ele>171</ele>
        <time>2017-05-07T08:06:27Z</time>
      </trkpt>
      <trkpt lat="45.92576" lon="4.7605">
        <ele>171</ele>
        <time>2017-05-07T08:06:28Z</time>
      </trkpt>
      <trkpt lat="45.92581" lon="4.76054">
        <ele>171</ele>
        <time>2017-05-07T08:06:29Z</time>
      </trkpt>
      <trkpt lat="45.92586" lon="4.76058">
        <ele>171</ele>
        <time>2017-05-07T08:06:30Z</time>
      </trkpt>
      <trkpt lat="45.92592" lon="4.76062">
        <ele>171</ele>
        <time>2017-05-07T08:06:31Z</time>
      </trkpt>
      <trkpt lat="45.92598" lon="4.76067">
        <ele>171</ele>
        <time>2017-05-07T08:06:32Z</time>
      </trkpt>
      <trkpt lat="45.92604" lon="4.76071">
        <ele>171</ele>
        <time>2017-05-07T08:06:33Z</time>
      </trkpt>
      <trkpt lat="45.9261" lon="4.76075">
        <ele>171</ele>
        <time>2017-05-07T08:06:34Z</time>
      </trkpt>
      <trkpt lat="45.92616" lon="4.76079">
        <ele>171</ele>
        <time>2017-05-07T08:06:35Z</time>
      </trkpt>
      <trkpt lat="45.92622" lon="4.76084">
        <ele>170</ele>
        <time>2017-05-07T08:06:36Z</time>
      </trkpt>
      <trkpt lat="45.92628" lon="4.76088">
        <ele>170</ele>
        <time>2017-05-07T08:06:37Z</time>
      </trkpt>
      <trkpt lat="45.92634" lon="4.76092">
        <ele>170</ele>
        <time>2017-05-07T08:06:38Z</time>
      </trkpt>
      <trkpt lat="45.92641" lon="4.76097">
        <ele>170</ele>
        <time>2017-05-07T08:06:39Z</time>
      </trkpt>
      <trkpt lat="45.92647" lon="4.76101">
        <ele>170</ele>
        <time>2017-05-07T08:06:40Z</time>
      </trkpt>
      <trkpt lat="45.92654" lon="4.76105">
        <ele>170</ele>
        <time>2017-05-07T08:06:41Z</time>
      </trkpt>
      <trkpt lat="45.92661" lon="4.76109">
        <ele>170</ele>
        <time>2017-05-07T08:06:42Z</time>
      </trkpt>
      <trkpt lat="45.92668" lon="4.76114">
        <ele>169</ele>
        <time>2017-05-07T08:06:43Z</time>
      </trkpt>
      <trkpt lat="45.92675" lon="4.76118">
        <ele>169</ele>
        <time>2017-05-07T08:06:44Z</time>
      </trkpt>
      <trkpt lat="45.92682" lon="4.76122">
        <ele>169</ele>
        <time>2017-05-07T08:06:45Z</time>
      </trkpt>
      <trkpt lat="45.92689" lon="4.76127">
        <ele>169</ele>
        <time>2017-05-07T08:06:46Z</time>
      </trkpt>
      <trkpt lat="45.92696" lon="4.76132">
        <ele>169</ele>
        <time>2017-05-07T08:06:47Z</time>
      </trkpt>
      <trkpt lat="45.92703" lon="4.76137">
        <ele>169</ele>
        <time>2017-05-07T08:06:48Z</time>
      </trkpt>
      <trkpt lat="45.9271" lon="4.76142">
        <ele>168</ele>
        <time>2017-05-07T08:06:49Z</time>
      </trkpt>
      <trkpt lat="45.92717" lon="4.76147">
        <ele>168</ele>
        <time>2017-05-07T08:06:50Z</time>
      </trkpt>
      <trkpt lat="45.92724" lon="4.76153">
        <ele>168</ele>
        <time>2017-05-07T08:06:51Z</time>
      </trkpt>
      <trkpt lat="45.92731" lon="4.76157">
        <ele>168</ele>
        <time>2017-05-07T08:06:52Z</time>
      </trkpt>
      <trkpt lat="45.92737" lon="4.76162">
        <ele>168</ele>
        <time>2017-05-07T08:06:53Z</time>
      </trkpt>
      <trkpt lat="45.92743" lon="4.76167">
        <ele>167</ele>
        <time>2017-05-07T08:06:54Z</time>
      </trkpt>
      <trkpt lat="45.9275" lon="4.76172">
        <ele>167</ele>
        <time>2017-05-07T08:06:55Z</time>
      </trkpt>
      <trkpt lat="45.92756" lon="4.76176">
        <ele>167</ele>
        <time>2017-05-07T08:06:56Z</time>
      </trkpt>
      <trkpt lat="45.92762" lon="4.76181">
        <ele>167</ele>
        <time>2017-05-07T08:06:57Z</time>
      </trkpt>
      <trkpt lat="45.92768" lon="4.76186">
        <ele>167</ele>
        <time>2017-05-07T08:06:58Z</time>
      </trkpt>
      <trkpt lat="45.92773" lon="4.76191">
        <ele>168</ele>
        <time>2017-05-07T08:06:59Z</time>
      </trkpt>
      <trkpt lat="45.92779" lon="4.76196">
        <ele>168</ele>
        <time>2017-05-07T08:07:00Z</time>
      </trkpt>
      <trkpt lat="45.92785" lon="4.76201">
        <ele>168</ele>
        <time>2017-05-07T08:07:01Z</time>
      </trkpt>
      <trkpt lat="45.9279" lon="4.76207">
        <ele>168</ele>
        <time>2017-05-07T08:07:02Z</time>
      </trkpt>
      <trkpt lat="45.92796" lon="4.76212">
        <ele>168</ele>
        <time>2017-05-07T08:07:03Z</time>
      </trkpt>
      <trkpt lat="45.92801" lon="4.76218">
        <ele>168</ele>
        <time>2017-05-07T08:07:04Z</time>
      </trkpt>
      <trkpt lat="45.92807" lon="4.76224">
        <ele>168</ele>
        <time>2017-05-07T08:07:05Z</time>
      </trkpt>
      <trkpt lat="45.92813" lon="4.7623">
        <ele>168</ele>
        <time>2017-05-07T08:07:06Z</time>
      </trkpt>
      <trkpt lat="45.92819" lon="4.76236">
        <ele>168</ele>
        <time>2017-05-07T08:07:07Z</time>
      </trkpt>
      <trkpt lat="45.92824" lon="4.76242">
        <ele>169</ele>
        <time>2017-05-07T08:07:08Z</time>
      </trkpt>
      <trkpt lat="45.9283" lon="4.76248">
        <ele>169</ele>
        <time>2017-05-07T08:07:09Z</time>
      </trkpt>
      <trkpt lat="45.92835" lon="4.76253">
        <ele>169</ele>
        <time>2017-05-07T08:07:10Z</time>
      </trkpt>
      <trkpt lat="45.9284" lon="4.76257">
        <ele>169</ele>
        <time>2017-05-07T08:07:11Z</time>
      </trkpt>
      <trkpt lat="45.92845" lon="4.76261">
        <ele>169</ele>
        <time>2017-05-07T08:07:12Z</time>
      </trkpt>
      <trkpt lat="45.9285" lon="4.76266">
        <ele>169</ele>
        <time>2017-05-07T08:07:13Z</time>
      </trkpt>
      <trkpt lat="45.92855" lon="4.76271">
        <ele>169</ele>
        <time>2017-05-07T08:07:14Z</time>
      </trkpt>
      <trkpt lat="45.9286" lon="4.76277">
        <ele>169</ele>
        <time>2017-05-07T08:07:15Z</time>
      </trkpt>
      <trkpt lat="45.92865" lon="4.76282">
        <ele>169</ele>
        <time>2017-05-07T08:07:16Z</time>
      </trkpt>
      <trkpt lat="45.9287" lon="4.76288">
        <ele>169</ele>
        <time>2017-05-07T08:07:17Z</time>
      </trkpt>
      <trkpt lat="45.92875" lon="4.76293">
        <ele>169</ele>
        <time>2017-05-07T08:07:18Z</time>
      </trkpt>
      <trkpt lat="45.92881" lon="4.76297">
        <ele>169</ele>
        <time>2017-05-07T08:07:19Z</time>
      </trkpt>
      <trkpt lat="45.92886" lon="4.76303">
        <ele>169</ele>
        <time>2017-05-07T08:07:20Z</time>
      </trkpt>
      <trkpt lat="45.92891" lon="4.76308">
        <ele>169</ele>
        <time>2017-05-07T08:07:21Z</time>
      </trkpt>
      <trkpt lat="45.92896" lon="4.76313">
        <ele>169</ele>
        <time>2017-05-07T08:07:22Z</time>
      </trkpt>
      <trkpt lat="45.929" lon="4.76317">
        <ele>169</ele>
        <time>2017-05-07T08:07:23Z</time>
      </trkpt>
      <trkpt lat="45.92906" lon="4.76322">
        <ele>169</ele>
        <time>2017-05-07T08:07:24Z</time>
      </trkpt>
      <trkpt lat="45.92911" lon="4.76328">
        <ele>169</ele>
        <time>2017-05-07T08:07:25Z</time>
      </trkpt>
      <trkpt lat="45.92916" lon="4.76333">
        <ele>169</ele>
        <time>2017-05-07T08:07:26Z</time>
      </trkpt>
      <trkpt lat="45.92921" lon="4.76338">
        <ele>169</ele>
        <time>2017-05-07T08:07:27Z</time>
      </trkpt>
      <trkpt lat="45.92927" lon="4.76344">
        <ele>169</ele>
        <time>2017-05-07T08:07:28Z</time>
      </trkpt>
      <trkpt lat="45.92932" lon="4.7635">
        <ele>169</ele>
        <time>2017-05-07T08:07:29Z</time>
      </trkpt>
      <trkpt lat="45.92938" lon="4.76356">
        <ele>169</ele>
        <time>2017-05-07T08:07:30Z</time>
      </trkpt>
      <trkpt lat="45.92943" lon="4.76362">
        <ele>169</ele>
        <time>2017-05-07T08:07:31Z</time>
      </trkpt>
      <trkpt lat="45.92949" lon="4.76367">
        <ele>169</ele>
        <time>2017-05-07T08:07:32Z</time>
      </trkpt>
      <trkpt lat="45.92954" lon="4.76373">
        <ele>169</ele>
        <time>2017-05-07T08:07:33Z</time>
      </trkpt>
      <trkpt lat="45.92959" lon="4.76378">
        <ele>169</ele>
        <time>2017-05-07T08:07:34Z</time>
      </trkpt>
      <trkpt lat="45.92965" lon="4.76383">
        <ele>169</ele>
        <time>2017-05-07T08:07:35Z</time>
      </trkpt>
      <trkpt lat="45.9297" lon="4.76388">
        <ele>169</ele>
        <time>2017-05-07T08:07:36Z</time>
      </trkpt>
      <trkpt lat="45.92975" lon="4.76394">
        <ele>169</ele>
        <time>2017-05-07T08:07:37Z</time>
      </trkpt>
      <trkpt lat="45.9298" lon="4.76399">
        <ele>169</ele>
        <time>2017-05-07T08:07:38Z</time>
      </trkpt>
      <trkpt lat="45.92984" lon="4.76403">
        <ele>169</ele>
        <time>2017-05-07T08:07:39Z</time>
      </trkpt>
      <trkpt lat="45.92989" lon="4.76408">
        <ele>169</ele>
        <time>2017-05-07T08:07:40Z</time>
      </trkpt>
      <trkpt lat="45.92993" lon="4.76413">
        <ele>169</ele>
        <time>2017-05-07T08:07:41Z</time>
      </trkpt>
      <trkpt lat="45.92998" lon="4.76418">
        <ele>169</ele>
        <time>2017-05-07T08:07:42Z</time>
      </trkpt>
      <trkpt lat="45.93003" lon="4.76422">
        <ele>169</ele>
        <time>2017-05-07T08:07:43Z</time>
      </trkpt>
      <trkpt lat="45.93007" lon="4.76427">
        <ele>169</ele>
        <time>2017-05-07T08:07:44Z</time>
      </trkpt>
      <trkpt lat="45.93011" lon="4.76431">
        <ele>169</ele>
        <time>2017-05-07T08:07:45Z</time>
      </trkpt>
      <trkpt lat="45.93016" lon="4.76436">
        <ele>169</ele>
        <time>2017-05-07T08:07:46Z</time>
      </trkpt>
      <trkpt lat="45.93021" lon="4.76441">
        <ele>169</ele>
        <time>2017-05-07T08:07:47Z</time>
      </trkpt>
      <trkpt lat="45.93026" lon="4.76446">
        <ele>169</ele>
        <time>2017-05-07T08:07:48Z</time>
      </trkpt>
      <trkpt lat="45.93031" lon="4.76451">
        <ele>169</ele>
        <time>2017-05-07T08:07:49Z</time>
      </trkpt>
      <trkpt lat="45.93036" lon="4.76457">
        <ele>169</ele>
        <time>2017-05-07T08:07:50Z</time>
      </trkpt>
      <trkpt lat="45.93041" lon="4.76462">
        <ele>169</ele>
        <time>2017-05-07T08:07:51Z</time>
      </trkpt>
      <trkpt lat="45.93047" lon="4.76467">
        <ele>169</ele>
        <time>2017-05-07T08:07:52Z</time>
      </trkpt>
      <trkpt lat="45.93052" lon="4.76471">
        <ele>169</ele>
        <time>2017-05-07T08:07:53Z</time>
      </trkpt>
      <trkpt lat="45.93056" lon="4.76476">
        <ele>169</ele>
        <time>2017-05-07T08:07:54Z</time>
      </trkpt>
      <trkpt lat="45.93062" lon="4.7648">
        <ele>169</ele>
        <time>2017-05-07T08:07:55Z</time>
      </trkpt>
      <trkpt lat="45.93066" lon="4.76485">
        <ele>169</ele>
        <time>2017-05-07T08:07:56Z</time>
      </trkpt>
      <trkpt lat="45.93071" lon="4.7649">
        <ele>169</ele>
        <time>2017-05-07T08:07:57Z</time>
      </trkpt>
      <trkpt lat="45.93076" lon="4.76495">
        <ele>170</ele>
        <time>2017-05-07T08:07:58Z</time>
      </trkpt>
      <trkpt lat="45.93081" lon="4.76499">
        <ele>170</ele>
        <time>2017-05-07T08:07:59Z</time>
      </trkpt>
      <trkpt lat="45.93087" lon="4.76504">
        <ele>170</ele>
        <time>2017-05-07T08:08:00Z</time>
      </trkpt>
      <trkpt lat="45.93092" lon="4.76509">
        <ele>170</ele>
        <time>2017-05-07T08:08:01Z</time>
      </trkpt>
      <trkpt lat="45.93097" lon="4.76514">
        <ele>170</ele>
        <time>2017-05-07T08:08:02Z</time>
      </trkpt>
      <trkpt lat="45.93102" lon="4.76519">
        <ele>170</ele>
        <time>2017-05-07T08:08:03Z</time>
      </trkpt>
      <trkpt lat="45.93108" lon="4.76524">
        <ele>170</ele>
        <time>2017-05-07T08:08:04Z</time>
      </trkpt>
      <trkpt lat="45.93113" lon="4.7653">
        <ele>170</ele>
        <time>2017-05-07T08:08:05Z</time>
      </trkpt>
      <trkpt lat="45.93118" lon="4.76535">
        <ele>170</ele>
        <time>2017-05-07T08:08:06Z</time>
      </trkpt>
      <trkpt lat="45.93123" lon="4.7654">
        <ele>170</ele>
        <time>2017-05-07T08:08:07Z</time>
      </trkpt>
      <trkpt lat="45.93128" lon="4.76544">
        <ele>170</ele>
        <time>2017-05-07T08:08:08Z</time>
      </trkpt>
      <trkpt lat="45.93133" lon="4.76549">
        <ele>170</ele>
        <time>2017-05-07T08:08:09Z</time>
      </trkpt>
      <trkpt lat="45.93137" lon="4.76554">
        <ele>170</ele>
        <time>2017-05-07T08:08:10Z</time>
      </trkpt>
      <trkpt lat="45.93141" lon="4.76558">
        <ele>170</ele>
        <time>2017-05-07T08:08:11Z</time>
      </trkpt>
      <trkpt lat="45.93146" lon="4.76563">
        <ele>170</ele>
        <time>2017-05-07T08:08:12Z</time>
      </trkpt>
      <trkpt lat="45.93151" lon="4.76567">
        <ele>170</ele>
        <time>2017-05-07T08:08:13Z</time>
      </trkpt>
      <trkpt lat="45.93156" lon="4.76572">
        <ele>170</ele>
        <time>2017-05-07T08:08:14Z</time>
      </trkpt>
      <trkpt lat="45.93161" lon="4.76576">
        <ele>171</ele>
        <time>2017-05-07T08:08:15Z</time>
      </trkpt>
      <trkpt lat="45.93166" lon="4.7658">
        <ele>171</ele>
        <time>2017-05-07T08:08:16Z</time>
      </trkpt>
      <trkpt lat="45.93171" lon="4.76585">
        <ele>171</ele>
        <time>2017-05-07T08:08:17Z</time>
      </trkpt>
      <trkpt lat="45.93178" lon="4.7659">
        <ele>171</ele>
        <time>2017-05-07T08:08:18Z</time>
      </trkpt>
      <trkpt lat="45.93184" lon="4.76595">
        <ele>171</ele>
        <time>2017-05-07T08:08:19Z</time>
      </trkpt>
      <trkpt lat="45.9319" lon="4.76599">
        <ele>170</ele>
        <time>2017-05-07T08:08:20Z</time>
      </trkpt>
      <trkpt lat="45.93195" lon="4.76604">
        <ele>170</ele>
        <time>2017-05-07T08:08:21Z</time>
      </trkpt>
      <trkpt lat="45.932" lon="4.76609">
        <ele>170</ele>
        <time>2017-05-07T08:08:22Z</time>
      </trkpt>
      <trkpt lat="45.93205" lon="4.76614">
        <ele>170</ele>
        <time>2017-05-07T08:08:23Z</time>
      </trkpt>
      <trkpt lat="45.93209" lon="4.76618">
        <ele>170</ele>
        <time>2017-05-07T08:08:24Z</time>
      </trkpt>
      <trkpt lat="45.93213" lon="4.76623">
        <ele>170</ele>
        <time>2017-05-07T08:08:25Z</time>
      </trkpt>
      <trkpt lat="45.93218" lon="4.76627">
        <ele>170</ele>
        <time>2017-05-07T08:08:26Z</time>
      </trkpt>
      <trkpt lat="45.93222" lon="4.76632">
        <ele>171</ele>
        <time>2017-05-07T08:08:27Z</time>
      </trkpt>
      <trkpt lat="45.93226" lon="4.76636">
        <ele>171</ele>
        <time>2017-05-07T08:08:28Z</time>
      </trkpt>
      <trkpt lat="45.9323" lon="4.76641">
        <ele>171</ele>
        <time>2017-05-07T08:08:29Z</time>
      </trkpt>
      <trkpt lat="45.93234" lon="4.76645">
        <ele>171</ele>
        <time>2017-05-07T08:08:30Z</time>
      </trkpt>
      <trkpt lat="45.93238" lon="4.76651">
        <ele>171</ele>
        <time>2017-05-07T08:08:31Z</time>
      </trkpt>
      <trkpt lat="45.93243" lon="4.76656">
        <ele>171</ele>
        <time>2017-05-07T08:08:32Z</time>
      </trkpt>
      <trkpt lat="45.93247" lon="4.7666">
        <ele>172</ele>
        <time>2017-05-07T08:08:33Z</time>
      </trkpt>
      <trkpt lat="45.93251" lon="4.76665">
        <ele>172</ele>
        <time>2017-05-07T08:08:34Z</time>
      </trkpt>
      <trkpt lat="45.93256" lon="4.7667">
        <ele>172</ele>
        <time>2017-05-07T08:08:35Z</time>
      </trkpt>
      <trkpt lat="45.9326" lon="4.76674">
        <ele>172</ele>
        <time>2017-05-07T08:08:36Z</time>
      </trkpt>
      <trkpt lat="45.93264" lon="4.76679">
        <ele>172</ele>
        <time>2017-05-07T08:08:37Z</time>
      </trkpt>
      <trkpt lat="45.93269" lon="4.76683">
        <ele>172</ele>
        <time>2017-05-07T08:08:38Z</time>
      </trkpt>
      <trkpt lat="45.93273" lon="4.76687">
        <ele>172</ele>
        <time>2017-05-07T08:08:39Z</time>
      </trkpt>
      <trkpt lat="45.93277" lon="4.76692">
        <ele>172</ele>
        <time>2017-05-07T08:08:40Z</time>
      </trkpt>
      <trkpt lat="45.93282" lon="4.76697">
        <ele>172</ele>
        <time>2017-05-07T08:08:41Z</time>
      </trkpt>
      <trkpt lat="45.93287" lon="4.76701">
        <ele>172</ele>
        <time>2017-05-07T08:08:42Z</time>
      </trkpt>
      <trkpt lat="45.93291" lon="4.76706">
        <ele>172</ele>
        <time>2017-05-07T08:08:43Z</time>
      </trkpt>
      <trkpt lat="45.93296" lon="4.7671">
        <ele>172</ele>
        <time>2017-05-07T08:08:44Z</time>
      </trkpt>
      <trkpt lat="45.933" lon="4.76715">
        <ele>172</ele>
        <time>2017-05-07T08:08:45Z</time>
      </trkpt>
      <trkpt lat="45.93305" lon="4.76719">
        <ele>172</ele>
        <time>2017-05-07T08:08:46Z</time>
      </trkpt>
      <trkpt lat="45.93309" lon="4.76723">
        <ele>172</ele>
        <time>2017-05-07T08:08:47Z</time>
      </trkpt>
      <trkpt lat="45.93313" lon="4.76728">
        <ele>172</ele>
        <time>2017-05-07T08:08:48Z</time>
      </trkpt>
      <trkpt lat="45.93319" lon="4.76734">
        <ele>172</ele>
        <time>2017-05-07T08:08:49Z</time>
      </trkpt>
      <trkpt lat="45.93323" lon="4.76739">
        <ele>172</ele>
        <time>2017-05-07T08:08:50Z</time>
      </trkpt>
      <trkpt lat="45.93328" lon="4.76744">
        <ele>173</ele>
        <time>2017-05-07T08:08:51Z</time>
      </trkpt>
      <trkpt lat="45.93333" lon="4.7675">
        <ele>173</ele>
        <time>2017-05-07T08:08:52Z</time>
      </trkpt>
      <trkpt lat="45.93338" lon="4.76754">
        <ele>173</ele>
        <time>2017-05-07T08:08:53Z</time>
      </trkpt>
      <trkpt lat="45.93343" lon="4.76759">
        <ele>172</ele>
        <time>2017-05-07T08:08:54Z</time>
      </trkpt>
      <trkpt lat="45.93348" lon="4.76764">
        <ele>172</ele>
        <time>2017-05-07T08:08:55Z</time>
      </trkpt>
      <trkpt lat="45.93353" lon="4.76769">
        <ele>172</ele>
        <time>2017-05-07T08:08:56Z</time>
      </trkpt>
      <trkpt lat="45.93358" lon="4.76774">
        <ele>172</ele>
        <time>2017-05-07T08:08:57Z</time>
      </trkpt>
      <trkpt lat="45.93363" lon="4.7678">
        <ele>172</ele>
        <time>2017-05-07T08:08:58Z</time>
      </trkpt>
      <trkpt lat="45.93368" lon="4.76785">
        <ele>172</ele>
        <time>2017-05-07T08:08:59Z</time>
      </trkpt>
      <trkpt lat="45.93373" lon="4.7679">
        <ele>172</ele>
        <time>2017-05-07T08:09:00Z</time>
      </trkpt>
      <trkpt lat="45.93378" lon="4.76795">
        <ele>172</ele>
        <time>2017-05-07T08:09:01Z</time>
      </trkpt>
      <trkpt lat="45.93383" lon="4.76801">
        <ele>172</ele>
        <time>2017-05-07T08:09:02Z</time>
      </trkpt>
      <trkpt lat="45.93387" lon="4.76806">
        <ele>172</ele>
        <time>2017-05-07T08:09:03Z</time>
      </trkpt>
      <trkpt lat="45.93391" lon="4.76812">
        <ele>172</ele>
        <time>2017-05-07T08:09:04Z</time>
      </trkpt>
      <trkpt lat="45.93395" lon="4.76819">
        <ele>172</ele>
        <time>2017-05-07T08:09:05Z</time>
      </trkpt>
      <trkpt lat="45.93399" lon="4.76825">
        <ele>172</ele>
        <time>2017-05-07T08:09:06Z</time>
      </trkpt>
      <trkpt lat="45.93403" lon="4.76831">
        <ele>172</ele>
        <time>2017-05-07T08:09:07Z</time>
      </trkpt>
      <trkpt lat="45.93407" lon="4.76838">
        <ele>172</ele>
        <time>2017-05-07T08:09:08Z</time>
      </trkpt>
      <trkpt lat="45.9341" lon="4.76844">
        <ele>172</ele>
        <time>2017-05-07T08:09:09Z</time>
      </trkpt>
      <trkpt lat="45.93414" lon="4.76851">
        <ele>171</ele>
        <time>2017-05-07T08:09:10Z</time>
      </trkpt>
      <trkpt lat="45.93418" lon="4.76858">
        <ele>171</ele>
        <time>2017-05-07T08:09:11Z</time>
      </trkpt>
      <trkpt lat="45.93421" lon="4.76864">
        <ele>171</ele>
        <time>2017-05-07T08:09:12Z</time>
      </trkpt>
      <trkpt lat="45.93425" lon="4.76871">
        <ele>171</ele>
        <time>2017-05-07T08:09:13Z</time>
      </trkpt>
      <trkpt lat="45.93428" lon="4.76879">
        <ele>171</ele>
        <time>2017-05-07T08:09:14Z</time>
      </trkpt>
      <trkpt lat="45.93431" lon="4.76887">
        <ele>171</ele>
        <time>2017-05-07T08:09:15Z</time>
      </trkpt>
      <trkpt lat="45.93433" lon="4.76895">
        <ele>171</ele>
        <time>2017-05-07T08:09:16Z</time>
      </trkpt>
      <trkpt lat="45.93436" lon="4.76903">
        <ele>171</ele>
        <time>2017-05-07T08:09:17Z</time>
      </trkpt>
      <trkpt lat="45.93438" lon="4.76911">
        <ele>171</ele>
        <time>2017-05-07T08:09:18Z</time>
      </trkpt>
      <trkpt lat="45.9344" lon="4.7692">
        <ele>170</ele>
        <time>2017-05-07T08:09:19Z</time>
      </trkpt>
      <trkpt lat="45.93442" lon="4.76929">
        <ele>170</ele>
        <time>2017-05-07T08:09:20Z</time>
      </trkpt>
      <trkpt lat="45.93444" lon="4.76938">
        <ele>170</ele>
        <time>2017-05-07T08:09:21Z</time>
      </trkpt>
      <trkpt lat="45.93445" lon="4.76947">
        <ele>170</ele>
        <time>2017-05-07T08:09:22Z</time>
      </trkpt>
      <trkpt lat="45.93447" lon="4.76955">
        <ele>170</ele>
        <time>2017-05-07T08:09:23Z</time>
      </trkpt>
      <trkpt lat="45.93448" lon="4.76963">
        <ele>170</ele>
        <time>2017-05-07T08:09:24Z</time>
      </trkpt>
      <trkpt lat="45.9345" lon="4.76971">
        <ele>170</ele>
        <time>2017-05-07T08:09:25Z</time>
      </trkpt>
      <trkpt lat="45.93451" lon="4.76978">
        <ele>170</ele>
        <time>2017-05-07T08:09:26Z</time>
      </trkpt>
      <trkpt lat="45.93452" lon="4.76986">
        <ele>170</ele>
        <time>2017-05-07T08:09:27Z</time>
      </trkpt>
      <trkpt lat="45.93453" lon="4.76993">
        <ele>170</ele>
        <time>2017-05-07T08:09:28Z</time>
      </trkpt>
      <trkpt lat="45.93454" lon="4.77001">
        <ele>170</ele>
        <time>2017-05-07T08:09:29Z</time>
      </trkpt>
      <trkpt lat="45.93456" lon="4.77009">
        <ele>170</ele>
        <time>2017-05-07T08:09:30Z</time>
      </trkpt>
      <trkpt lat="45.93457" lon="4.77017">
        <ele>170</ele>
        <time>2017-05-07T08:09:31Z</time>
      </trkpt>
      <trkpt lat="45.93458" lon="4.77025">
        <ele>170</ele>
        <time>2017-05-07T08:09:32Z</time>
      </trkpt>
      <trkpt lat="45.9346" lon="4.77032">
        <ele>170</ele>
        <time>2017-05-07T08:09:33Z</time>
      </trkpt>
      <trkpt lat="45.93461" lon="4.7704">
        <ele>170</ele>
        <time>2017-05-07T08:09:34Z</time>
      </trkpt>
      <trkpt lat="45.93463" lon="4.77048">
        <ele>170</ele>
        <time>2017-05-07T08:09:35Z</time>
      </trkpt>
      <trkpt lat="45.93464" lon="4.77056">
        <ele>170</ele>
        <time>2017-05-07T08:09:36Z</time>
      </trkpt>
      <trkpt lat="45.93466" lon="4.77063">
        <ele>170</ele>
        <time>2017-05-07T08:09:37Z</time>
      </trkpt>
      <trkpt lat="45.93467" lon="4.77071">
        <ele>170</ele>
        <time>2017-05-07T08:09:38Z</time>
      </trkpt>
      <trkpt lat="45.93468" lon="4.7708">
        <ele>170</ele>
        <time>2017-05-07T08:09:39Z</time>
      </trkpt>
      <trkpt lat="45.9347" lon="4.77088">
        <ele>170</ele>
        <time>2017-05-07T08:09:40Z</time>
      </trkpt>
      <trkpt lat="45.93472" lon="4.77097">
        <ele>169</ele>
        <time>2017-05-07T08:09:41Z</time>
      </trkpt>
      <trkpt lat="45.93473" lon="4.77105">
        <ele>169</ele>
        <time>2017-05-07T08:09:42Z</time>
      </trkpt>
      <trkpt lat="45.93475" lon="4.77113">
        <ele>169</ele>
        <time>2017-05-07T08:09:43Z</time>
      </trkpt>
      <trkpt lat="45.93476" lon="4.77121">
        <ele>169</ele>
        <time>2017-05-07T08:09:44Z</time>
      </trkpt>
      <trkpt lat="45.93478" lon="4.7713">
        <ele>169</ele>
        <time>2017-05-07T08:09:45Z</time>
      </trkpt>
      <trkpt lat="45.93479" lon="4.77137">
        <ele>169</ele>
        <time>2017-05-07T08:09:46Z</time>
      </trkpt>
      <trkpt lat="45.93481" lon="4.77145">
        <ele>169</ele>
        <time>2017-05-07T08:09:47Z</time>
      </trkpt>
      <trkpt lat="45.93482" lon="4.77153">
        <ele>169</ele>
        <time>2017-05-07T08:09:48Z</time>
      </trkpt>
      <trkpt lat="45.93484" lon="4.7716">
        <ele>169</ele>
        <time>2017-05-07T08:09:49Z</time>
      </trkpt>
      <trkpt lat="45.93486" lon="4.77167">
        <ele>169</ele>
        <time>2017-05-07T08:09:50Z</time>
      </trkpt>
      <trkpt lat="45.93487" lon="4.77174">
        <ele>169</ele>
        <time>2017-05-07T08:09:51Z</time>
      </trkpt>
      <trkpt lat="45.93488" lon="4.7718">
        <ele>169</ele>
        <time>2017-05-07T08:09:52Z</time>
      </trkpt>
      <trkpt lat="45.9349" lon="4.77188">
        <ele>169</ele>
        <time>2017-05-07T08:09:53Z</time>
      </trkpt>
      <trkpt lat="45.93491" lon="4.77195">
        <ele>169</ele>
        <time>2017-05-07T08:09:54Z</time>
      </trkpt>
      <trkpt lat="45.93493" lon="4.77202">
        <ele>169</ele>
        <time>2017-05-07T08:09:55Z</time>
      </trkpt>
      <trkpt lat="45.93495" lon="4.77209">
        <ele>169</ele>
        <time>2017-05-07T08:09:56Z</time>
      </trkpt>
      <trkpt lat="45.93496" lon="4.77216">
        <ele>169</ele>
        <time>2017-05-07T08:09:57Z</time>
      </trkpt>
      <trkpt lat="45.93498" lon="4.77223">
        <ele>169</ele>
        <time>2017-05-07T08:09:58Z</time>
      </trkpt>
      <trkpt lat="45.93499" lon="4.7723">
        <ele>170</ele>
        <time>2017-05-07T08:09:59Z</time>
      </trkpt>
      <trkpt lat="45.935" lon="4.77238">
        <ele>169</ele>
        <time>2017-05-07T08:10:00Z</time>
      </trkpt>
      <trkpt lat="45.93502" lon="4.77245">
        <ele>170</ele>
        <time>2017-05-07T08:10:01Z</time>
      </trkpt>
      <trkpt lat="45.93504" lon="4.77252">
        <ele>170</ele>
        <time>2017-05-07T08:10:02Z</time>
      </trkpt>
      <trkpt lat="45.93505" lon="4.77259">
        <ele>170</ele>
        <time>2017-05-07T08:10:03Z</time>
      </trkpt>
      <trkpt lat="45.93507" lon="4.77266">
        <ele>170</ele>
        <time>2017-05-07T08:10:04Z</time>
      </trkpt>
      <trkpt lat="45.93508" lon="4.77274">
        <ele>170</ele>
        <time>2017-05-07T08:10:05Z</time>
      </trkpt>
      <trkpt lat="45.9351" lon="4.77281">
        <ele>170</ele>
        <time>2017-05-07T08:10:06Z</time>
      </trkpt>
      <trkpt lat="45.93511" lon="4.77288">
        <ele>170</ele>
        <time>2017-05-07T08:10:07Z</time>
      </trkpt>
      <trkpt lat="45.93513" lon="4.77295">
        <ele>170</ele>
        <time>2017-05-07T08:10:08Z</time>
      </trkpt>
      <trkpt lat="45.93514" lon="4.77303">
        <ele>170</ele>
        <time>2017-05-07T08:10:09Z</time>
      </trkpt>
      <trkpt lat="45.93515" lon="4.7731">
        <ele>170</ele>
        <time>2017-05-07T08:10:10Z</time>
      </trkpt>
      <trkpt lat="45.93517" lon="4.77317">
        <ele>170</ele>
        <time>2017-05-07T08:10:11Z</time>
      </trkpt>
      <trkpt lat="45.93519" lon="4.77324">
        <ele>170</ele>
        <time>2017-05-07T08:10:12Z</time>
      </trkpt>
      <trkpt lat="45.93521" lon="4.77332">
        <ele>170</ele>
        <time>2017-05-07T08:10:13Z</time>
      </trkpt>
      <trkpt lat="45.93522" lon="4.77339">
        <ele>170</ele>
        <time>2017-05-07T08:10:14Z</time>
      </trkpt>
      <trkpt lat="45.93524" lon="4.77346">
        <ele>170</ele>
        <time>2017-05-07T08:10:15Z</time>
      </trkpt>
      <trkpt lat="45.93526" lon="4.77354">
        <ele>170</ele>
        <time>2017-05-07T08:10:16Z</time>
      </trkpt>
      <trkpt lat="45.93528" lon="4.77361">
        <ele>170</ele>
        <time>2017-05-07T08:10:17Z</time>
      </trkpt>
      <trkpt lat="45.93529" lon="4.77369">
        <ele>170</ele>
        <time>2017-05-07T08:10:18Z</time>
      </trkpt>
      <trkpt lat="45.93531" lon="4.77376">
        <ele>170</ele>
        <time>2017-05-07T08:10:19Z</time>
      </trkpt>
      <trkpt lat="45.93533" lon="4.77383">
        <ele>170</ele>
        <time>2017-05-07T08:10:20Z</time>
      </trkpt>
      <trkpt lat="45.93535" lon="4.77391">
        <ele>170</ele>
        <time>2017-05-07T08:10:21Z</time>
      </trkpt>
      <trkpt lat="45.93537" lon="4.77399">
        <ele>170</ele>
        <time>2017-05-07T08:10:22Z</time>
      </trkpt>
      <trkpt lat="45.93539" lon="4.77407">
        <ele>170</ele>
        <time>2017-05-07T08:10:23Z</time>
      </trkpt>
      <trkpt lat="45.93541" lon="4.77416">
        <ele>170</ele>
        <time>2017-05-07T08:10:24Z</time>
      </trkpt>
      <trkpt lat="45.93542" lon="4.77424">
        <ele>170</ele>
        <time>2017-05-07T08:10:25Z</time>
      </trkpt>
      <trkpt lat="45.93544" lon="4.77433">
        <ele>169</ele>
        <time>2017-05-07T08:10:26Z</time>
      </trkpt>
      <trkpt lat="45.93546" lon="4.77442">
        <ele>169</ele>
        <time>2017-05-07T08:10:27Z</time>
      </trkpt>
      <trkpt lat="45.93547" lon="4.77451">
        <ele>169</ele>
        <time>2017-05-07T08:10:28Z</time>
      </trkpt>
      <trkpt lat="45.93549" lon="4.7746">
        <ele>169</ele>
        <time>2017-05-07T08:10:29Z</time>
      </trkpt>
      <trkpt lat="45.93551" lon="4.77469">
        <ele>169</ele>
        <time>2017-05-07T08:10:30Z</time>
      </trkpt>
      <trkpt lat="45.93553" lon="4.77478">
        <ele>169</ele>
        <time>2017-05-07T08:10:31Z</time>
      </trkpt>
      <trkpt lat="45.93555" lon="4.77487">
        <ele>169</ele>
        <time>2017-05-07T08:10:32Z</time>
      </trkpt>
      <trkpt lat="45.93557" lon="4.77495">
        <ele>169</ele>
        <time>2017-05-07T08:10:33Z</time>
      </trkpt>
      <trkpt lat="45.93559" lon="4.77503">
        <ele>169</ele>
        <time>2017-05-07T08:10:34Z</time>
      </trkpt>
      <trkpt lat="45.93561" lon="4.77511">
        <ele>169</ele>
        <time>2017-05-07T08:10:35Z</time>
      </trkpt>
      <trkpt lat="45.93563" lon="4.7752">
        <ele>169</ele>
        <time>2017-05-07T08:10:36Z</time>
      </trkpt>
      <trkpt lat="45.93565" lon="4.77527">
        <ele>169</ele>
        <time>2017-05-07T08:10:37Z</time>
      </trkpt>
      <trkpt lat="45.93566" lon="4.77535">
        <ele>169</ele>
        <time>2017-05-07T08:10:38Z</time>
      </trkpt>
      <trkpt lat="45.93568" lon="4.77543">
        <ele>169</ele>
        <time>2017-05-07T08:10:39Z</time>
      </trkpt>
      <trkpt lat="45.9357" lon="4.77551">
        <ele>169</ele>
        <time>2017-05-07T08:10:40Z</time>
      </trkpt>
      <trkpt lat="45.93572" lon="4.77558">
        <ele>169</ele>
        <time>2017-05-07T08:10:41Z</time>
      </trkpt>
      <trkpt lat="45.93574" lon="4.77565">
        <ele>169</ele>
        <time>2017-05-07T08:10:42Z</time>
      </trkpt>
      <trkpt lat="45.93576" lon="4.77572">
        <ele>170</ele>
        <time>2017-05-07T08:10:43Z</time>
      </trkpt>
      <trkpt lat="45.93578" lon="4.77579">
        <ele>170</ele>
        <time>2017-05-07T08:10:44Z</time>
      </trkpt>
      <trkpt lat="45.93581" lon="4.77586">
        <ele>170</ele>
        <time>2017-05-07T08:10:45Z</time>
      </trkpt>
      <trkpt lat="45.93583" lon="4.77594">
        <ele>170</ele>
        <time>2017-05-07T08:10:46Z</time>
      </trkpt>
      <trkpt lat="45.93586" lon="4.77601">
        <ele>170</ele>
        <time>2017-05-07T08:10:47Z</time>
      </trkpt>
      <trkpt lat="45.93588" lon="4.77609">
        <ele>170</ele>
        <time>2017-05-07T08:10:48Z</time>
      </trkpt>
      <trkpt lat="45.93591" lon="4.77616">
        <ele>170</ele>
        <time>2017-05-07T08:10:49Z</time>
      </trkpt>
      <trkpt lat="45.93593" lon="4.77624">
        <ele>170</ele>
        <time>2017-05-07T08:10:50Z</time>
      </trkpt>
      <trkpt lat="45.93596" lon="4.77631">
        <ele>169</ele>
        <time>2017-05-07T08:10:51Z</time>
      </trkpt>
      <trkpt lat="45.93598" lon="4.77638">
        <ele>169</ele>
        <time>2017-05-07T08:10:52Z</time>
      </trkpt>
      <trkpt lat="45.93601" lon="4.77645">
        <ele>169</ele>
        <time>2017-05-07T08:10:53Z</time>
      </trkpt>
      <trkpt lat="45.93604" lon="4.77652">
        <ele>169</ele>
        <time>2017-05-07T08:10:54Z</time>
      </trkpt>
      <trkpt lat="45.93607" lon="4.77659">
        <ele>169</ele>
        <time>2017-05-07T08:10:55Z</time>
      </trkpt>
      <trkpt lat="45.93611" lon="4.77666">
        <ele>169</ele>
        <time>2017-05-07T08:10:56Z</time>
      </trkpt>
      <trkpt lat="45.93614" lon="4.77673">
        <ele>169</ele>
        <time>2017-05-07T08:10:57Z</time>
      </trkpt>
      <trkpt lat="45.93617" lon="4.77679">
        <ele>169</ele>
        <time>2017-05-07T08:10:58Z</time>
      </trkpt>
      <trkpt lat="45.9362" lon="4.77686">
        <ele>169</ele>
        <time>2017-05-07T08:10:59Z</time>
      </trkpt>
      <trkpt lat="45.93623" lon="4.77692">
        <ele>169</ele>
        <time>2017-05-07T08:11:00Z</time>
      </trkpt>
      <trkpt lat="45.93626" lon="4.77697">
        <ele>169</ele>
        <time>2017-05-07T08:11:01Z</time>
      </trkpt>
      <trkpt lat="45.93629" lon="4.77703">
        <ele>169</ele>
        <time>2017-05-07T08:11:02Z</time>
      </trkpt>
      <trkpt lat="45.93631" lon="4.77708">
        <ele>170</ele>
        <time>2017-05-07T08:11:03Z</time>
      </trkpt>
      <trkpt lat="45.93634" lon="4.77714">
        <ele>170</ele>
        <time>2017-05-07T08:11:04Z</time>
      </trkpt>
      <trkpt lat="45.93637" lon="4.7772">
        <ele>170</ele>
        <time>2017-05-07T08:11:05Z</time>
      </trkpt>
      <trkpt lat="45.9364" lon="4.77726">
        <ele>170</ele>
        <time>2017-05-07T08:11:06Z</time>
      </trkpt>
      <trkpt lat="45.93643" lon="4.77731">
        <ele>170</ele>
        <time>2017-05-07T08:11:07Z</time>
      </trkpt>
      <trkpt lat="45.93646" lon="4.77736">
        <ele>170</ele>
        <time>2017-05-07T08:11:08Z</time>
      </trkpt>
      <trkpt lat="45.93649" lon="4.77742">
        <ele>170</ele>
        <time>2017-05-07T08:11:09Z</time>
      </trkpt>
      <trkpt lat="45.93652" lon="4.77747">
        <ele>170</ele>
        <time>2017-05-07T08:11:10Z</time>
      </trkpt>
      <trkpt lat="45.93658" lon="4.77756">
        <ele>171</ele>
        <time>2017-05-07T08:11:12Z</time>
      </trkpt>
      <trkpt lat="45.93661" lon="4.77761">
        <ele>171</ele>
        <time>2017-05-07T08:11:13Z</time>
      </trkpt>
      <trkpt lat="45.93668" lon="4.7777">
        <ele>170</ele>
        <time>2017-05-07T08:11:15Z</time>
      </trkpt>
      <trkpt lat="45.93671" lon="4.77774">
        <ele>170</ele>
        <time>2017-05-07T08:11:16Z</time>
      </trkpt>
      <trkpt lat="45.93677" lon="4.77783">
        <ele>170</ele>
        <time>2017-05-07T08:11:18Z</time>
      </trkpt>
      <trkpt lat="45.9368" lon="4.77787">
        <ele>170</ele>
        <time>2017-05-07T08:11:19Z</time>
      </trkpt>
      <trkpt lat="45.93686" lon="4.77795">
        <ele>170</ele>
        <time>2017-05-07T08:11:21Z</time>
      </trkpt>
      <trkpt lat="45.93689" lon="4.77799">
        <ele>169</ele>
        <time>2017-05-07T08:11:22Z</time>
      </trkpt>
      <trkpt lat="45.93695" lon="4.77806">
        <ele>169</ele>
        <time>2017-05-07T08:11:24Z</time>
      </trkpt>
      <trkpt lat="45.93698" lon="4.7781">
        <ele>169</ele>
        <time>2017-05-07T08:11:25Z</time>
      </trkpt>
      <trkpt lat="45.93704" lon="4.77818">
        <ele>169</ele>
        <time>2017-05-07T08:11:27Z</time>
      </trkpt>
      <trkpt lat="45.93707" lon="4.77822">
        <ele>169</ele>
        <time>2017-05-07T08:11:28Z</time>
      </trkpt>
      <trkpt lat="45.93712" lon="4.7783">
        <ele>169</ele>
        <time>2017-05-07T08:11:30Z</time>
      </trkpt>
      <trkpt lat="45.93715" lon="4.77834">
        <ele>167</ele>
        <time>2017-05-07T08:11:31Z</time>
      </trkpt>
      <trkpt lat="45.93721" lon="4.77841">
        <ele>167</ele>
        <time>2017-05-07T08:11:33Z</time>
      </trkpt>
      <trkpt lat="45.93723" lon="4.77845">
        <ele>167</ele>
        <time>2017-05-07T08:11:34Z</time>
      </trkpt>
      <trkpt lat="45.93729" lon="4.77852">
        <ele>167</ele>
        <time>2017-05-07T08:11:36Z</time>
      </trkpt>
      <trkpt lat="45.93732" lon="4.77856">
        <ele>167</ele>
        <time>2017-05-07T08:11:37Z</time>
      </trkpt>
      <trkpt lat="45.93737" lon="4.77864">
        <ele>167</ele>
        <time>2017-05-07T08:11:39Z</time>
      </trkpt>
      <trkpt lat="45.9374" lon="4.77868">
        <ele>167</ele>
        <time>2017-05-07T08:11:40Z</time>
      </trkpt>
      <trkpt lat="45.93747" lon="4.77876">
        <ele>167</ele>
        <time>2017-05-07T08:11:42Z</time>
      </trkpt>
      <trkpt lat="45.9375" lon="4.77881">
        <ele>167</ele>
        <time>2017-05-07T08:11:43Z</time>
      </trkpt>
      <trkpt lat="45.93756" lon="4.77889">
        <ele>166</ele>
        <time>2017-05-07T08:11:45Z</time>
      </trkpt>
      <trkpt lat="45.93759" lon="4.77893">
        <ele>166</ele>
        <time>2017-05-07T08:11:46Z</time>
      </trkpt>
      <trkpt lat="45.93765" lon="4.77901">
        <ele>166</ele>
        <time>2017-05-07T08:11:48Z</time>
      </trkpt>
      <trkpt lat="45.93768" lon="4.77905">
        <ele>166</ele>
        <time>2017-05-07T08:11:49Z</time>
      </trkpt>
      <trkpt lat="45.93774" lon="4.77913">
        <ele>166</ele>
        <time>2017-05-07T08:11:51Z</time>
      </trkpt>
      <trkpt lat="45.93777" lon="4.77917">
        <ele>168</ele>
        <time>2017-05-07T08:11:52Z</time>
      </trkpt>
      <trkpt lat="45.93781" lon="4.77921">
        <ele>168</ele>
        <time>2017-05-07T08:11:53Z</time>
      </trkpt>
      <trkpt lat="45.93784" lon="4.77926">
        <ele>168</ele>
        <time>2017-05-07T08:11:54Z</time>
      </trkpt>
      <trkpt lat="45.93788" lon="4.7793">
        <ele>168</ele>
        <time>2017-05-07T08:11:55Z</time>
      </trkpt>
      <trkpt lat="45.93792" lon="4.77935">
        <ele>168</ele>
        <time>2017-05-07T08:11:56Z</time>
      </trkpt>
      <trkpt lat="45.93796" lon="4.7794">
        <ele>169</ele>
        <time>2017-05-07T08:11:57Z</time>
      </trkpt>
      <trkpt lat="45.938" lon="4.77944">
        <ele>169</ele>
        <time>2017-05-07T08:11:58Z</time>
      </trkpt>
      <trkpt lat="45.93803" lon="4.77949">
        <ele>169</ele>
        <time>2017-05-07T08:11:59Z</time>
      </trkpt>
      <trkpt lat="45.93807" lon="4.77954">
        <ele>170</ele>
        <time>2017-05-07T08:12:00Z</time>
      </trkpt>
      <trkpt lat="45.93811" lon="4.77959">
        <ele>170</ele>
        <time>2017-05-07T08:12:01Z</time>
      </trkpt>
      <trkpt lat="45.93815" lon="4.77965">
        <ele>171</ele>
        <time>2017-05-07T08:12:02Z</time>
      </trkpt>
      <trkpt lat="45.93819" lon="4.7797">
        <ele>171</ele>
        <time>2017-05-07T08:12:03Z</time>
      </trkpt>
      <trkpt lat="45.93824" lon="4.77976">
        <ele>172</ele>
        <time>2017-05-07T08:12:04Z</time>
      </trkpt>
      <trkpt lat="45.93828" lon="4.77981">
        <ele>173</ele>
        <time>2017-05-07T08:12:05Z</time>
      </trkpt>
      <trkpt lat="45.93832" lon="4.77986">
        <ele>175</ele>
        <time>2017-05-07T08:12:06Z</time>
      </trkpt>
      <trkpt lat="45.93835" lon="4.77993">
        <ele>179</ele>
        <time>2017-05-07T08:12:07Z</time>
      </trkpt>
      <trkpt lat="45.93838" lon="4.78">
        <ele>180</ele>
        <time>2017-05-07T08:12:08Z</time>
      </trkpt>
      <trkpt lat="45.9384" lon="4.78009">
        <ele>181</ele>
        <time>2017-05-07T08:12:09Z</time>
      </trkpt>
      <trkpt lat="45.93841" lon="4.78017">
        <ele>181</ele>
        <time>2017-05-07T08:12:10Z</time>
      </trkpt>
      <trkpt lat="45.93843" lon="4.78025">
        <ele>182</ele>
        <time>2017-05-07T08:12:11Z</time>
      </trkpt>
      <trkpt lat="45.93847" lon="4.78032">
        <ele>182</ele>
        <time>2017-05-07T08:12:12Z</time>
      </trkpt>
      <trkpt lat="45.93851" lon="4.78035">
        <ele>183</ele>
        <time>2017-05-07T08:12:13Z</time>
      </trkpt>
      <trkpt lat="45.93855" lon="4.78036">
        <ele>183</ele>
        <time>2017-05-07T08:12:14Z</time>
      </trkpt>
      <trkpt lat="45.93863" lon="4.78034">
        <ele>183</ele>
        <time>2017-05-07T08:12:16Z</time>
      </trkpt>
      <trkpt lat="45.93867" lon="4.78032">
        <ele>183</ele>
        <time>2017-05-07T08:12:17Z</time>
      </trkpt>
      <trkpt lat="45.93874" lon="4.78029">
        <ele>184</ele>
        <time>2017-05-07T08:12:19Z</time>
      </trkpt>
      <trkpt lat="45.93877" lon="4.78027">
        <ele>184</ele>
        <time>2017-05-07T08:12:20Z</time>
      </trkpt>
      <trkpt lat="45.93885" lon="4.78021">
        <ele>184</ele>
        <time>2017-05-07T08:12:23Z</time>
      </trkpt>
      <trkpt lat="45.93887" lon="4.78019">
        <ele>184</ele>
        <time>2017-05-07T08:12:24Z</time>
      </trkpt>
      <trkpt lat="45.93893" lon="4.7801">
        <ele>184</ele>
        <time>2017-05-07T08:12:27Z</time>
      </trkpt>
      <trkpt lat="45.93894" lon="4.78008">
        <ele>184</ele>
        <time>2017-05-07T08:12:28Z</time>
      </trkpt>
      <trkpt lat="45.939" lon="4.77999">
        <ele>183</ele>
        <time>2017-05-07T08:12:31Z</time>
      </trkpt>
      <trkpt lat="45.93903" lon="4.77997">
        <ele>183</ele>
        <time>2017-05-07T08:12:32Z</time>
      </trkpt>
      <trkpt lat="45.93908" lon="4.77992">
        <ele>183</ele>
        <time>2017-05-07T08:12:34Z</time>
      </trkpt>
      <trkpt lat="45.93911" lon="4.7799">
        <ele>183</ele>
        <time>2017-05-07T08:12:35Z</time>
      </trkpt>
      <trkpt lat="45.93917" lon="4.77983">
        <ele>188</ele>
        <time>2017-05-07T08:12:38Z</time>
      </trkpt>
      <trkpt lat="45.93919" lon="4.77981">
        <ele>188</ele>
        <time>2017-05-07T08:12:39Z</time>
      </trkpt>
      <trkpt lat="45.93927" lon="4.77975">
        <ele>188</ele>
        <time>2017-05-07T08:12:42Z</time>
      </trkpt>
      <trkpt lat="45.93929" lon="4.77974">
        <ele>188</ele>
        <time>2017-05-07T08:12:43Z</time>
      </trkpt>
      <trkpt lat="45.93935" lon="4.77969">
        <ele>189</ele>
        <time>2017-05-07T08:12:46Z</time>
      </trkpt>
      <trkpt lat="45.93938" lon="4.77967">
        <ele>189</ele>
        <time>2017-05-07T08:12:47Z</time>
      </trkpt>
      <trkpt lat="45.93945" lon="4.77961">
        <ele>189</ele>
        <time>2017-05-07T08:12:51Z</time>
      </trkpt>
      <trkpt lat="45.93947" lon="4.77959">
        <ele>189</ele>
        <time>2017-05-07T08:12:52Z</time>
      </trkpt>
      <trkpt lat="45.93953" lon="4.77954">
        <ele>190</ele>
        <time>2017-05-07T08:12:55Z</time>
      </trkpt>
      <trkpt lat="45.93957" lon="4.77952">
        <ele>190</ele>
        <time>2017-05-07T08:12:56Z</time>
      </trkpt>
      <trkpt lat="45.93963" lon="4.77949">
        <ele>190</ele>
        <time>2017-05-07T08:12:58Z</time>
      </trkpt>
      <trkpt lat="45.93966" lon="4.77948">
        <ele>190</ele>
        <time>2017-05-07T08:12:59Z</time>
      </trkpt>
      <trkpt lat="45.93973" lon="4.77944">
        <ele>191</ele>
        <time>2017-05-07T08:13:02Z</time>
      </trkpt>
      <trkpt lat="45.93975" lon="4.77943">
        <ele>191</ele>
        <time>2017-05-07T08:13:03Z</time>
      </trkpt>
      <trkpt lat="45.93982" lon="4.77939">
        <ele>191</ele>
        <time>2017-05-07T08:13:06Z</time>
      </trkpt>
      <trkpt lat="45.93984" lon="4.77938">
        <ele>191</ele>
        <time>2017-05-07T08:13:07Z</time>
      </trkpt>
      <trkpt lat="45.9399" lon="4.77935">
        <ele>192</ele>
        <time>2017-05-07T08:13:10Z</time>
      </trkpt>
      <trkpt lat="45.93992" lon="4.77933">
        <ele>192</ele>
        <time>2017-05-07T08:13:11Z</time>
      </trkpt>
      <trkpt lat="45.94" lon="4.77929">
        <ele>193</ele>
        <time>2017-05-07T08:13:14Z</time>
      </trkpt>
      <trkpt lat="45.94002" lon="4.77928">
        <ele>197</ele>
        <time>2017-05-07T08:13:15Z</time>
      </trkpt>
      <trkpt lat="45.94009" lon="4.7793">
        <ele>197</ele>
        <time>2017-05-07T08:13:18Z</time>
      </trkpt>
      <trkpt lat="45.94011" lon="4.77933">
        <ele>198</ele>
        <time>2017-05-07T08:13:19Z</time>
      </trkpt>
      <trkpt lat="45.94015" lon="4.77944">
        <ele>199</ele>
        <time>2017-05-07T08:13:23Z</time>
      </trkpt>
      <trkpt lat="45.94016" lon="4.77946">
        <ele>199</ele>
        <time>2017-05-07T08:13:24Z</time>
      </trkpt>
      <trkpt lat="45.94018" lon="4.77958">
        <ele>200</ele>
        <time>2017-05-07T08:13:28Z</time>
      </trkpt>
      <trkpt lat="45.94018" lon="4.77962">
        <ele>200</ele>
        <time>2017-05-07T08:13:29Z</time>
      </trkpt>
      <trkpt lat="45.94018" lon="4.77972">
        <ele>200</ele>
        <time>2017-05-07T08:13:32Z</time>
      </trkpt>
      <trkpt lat="45.94018" lon="4.77975">
        <ele>200</ele>
        <time>2017-05-07T08:13:33Z</time>
      </trkpt>
      <trkpt lat="45.94018" lon="4.77985">
        <ele>199</ele>
        <time>2017-05-07T08:13:36Z</time>
      </trkpt>
      <trkpt lat="45.94017" lon="4.77989">
        <ele>199</ele>
        <time>2017-05-07T08:13:37Z</time>
      </trkpt>
      <trkpt lat="45.94018" lon="4.78001">
        <ele>200</ele>
        <time>2017-05-07T08:13:41Z</time>
      </trkpt>
      <trkpt lat="45.94018" lon="4.78005">
        <ele>200</ele>
        <time>2017-05-07T08:13:42Z</time>
      </trkpt>
      <trkpt lat="45.94017" lon="4.78015">
        <ele>200</ele>
        <time>2017-05-07T08:13:45Z</time>
      </trkpt>
      <trkpt lat="45.94016" lon="4.78019">
        <ele>200</ele>
        <time>2017-05-07T08:13:46Z</time>
      </trkpt>
      <trkpt lat="45.94012" lon="4.78029">
        <ele>201</ele>
        <time>2017-05-07T08:13:48Z</time>
      </trkpt>
      <trkpt lat="45.94011" lon="4.78033">
        <ele>201</ele>
        <time>2017-05-07T08:13:49Z</time>
      </trkpt>
      <trkpt lat="45.94008" lon="4.78041">
        <ele>201</ele>
        <time>2017-05-07T08:13:51Z</time>
      </trkpt>
      <trkpt lat="45.94007" lon="4.78046">
        <ele>201</ele>
        <time>2017-05-07T08:13:52Z</time>
      </trkpt>
      <trkpt lat="45.94006" lon="4.78055">
        <ele>201</ele>
        <time>2017-05-07T08:13:54Z</time>
      </trkpt>
      <trkpt lat="45.94004" lon="4.7806">
        <ele>201</ele>
        <time>2017-05-07T08:13:55Z</time>
      </trkpt>
      <trkpt lat="45.94001" lon="4.78069">
        <ele>201</ele>
        <time>2017-05-07T08:13:57Z</time>
      </trkpt>
      <trkpt lat="45.93999" lon="4.78074">
        <ele>197</ele>
        <time>2017-05-07T08:13:58Z</time>
      </trkpt>
      <trkpt lat="45.93997" lon="4.78083">
        <ele>198</ele>
        <time>2017-05-07T08:14:00Z</time>
      </trkpt>
      <trkpt lat="45.93996" lon="4.78088">
        <ele>198</ele>
        <time>2017-05-07T08:14:01Z</time>
      </trkpt>
      <trkpt lat="45.93993" lon="4.78099">
        <ele>198</ele>
        <time>2017-05-07T08:14:03Z</time>
      </trkpt>
      <trkpt lat="45.93994" lon="4.78104">
        <ele>197</ele>
        <time>2017-05-07T08:14:04Z</time>
      </trkpt>
      <trkpt lat="45.93994" lon="4.78112">
        <ele>197</ele>
        <time>2017-05-07T08:14:06Z</time>
      </trkpt>
      <trkpt lat="45.93993" lon="4.78117">
        <ele>197</ele>
        <time>2017-05-07T08:14:07Z</time>
      </trkpt>
      <trkpt lat="45.93991" lon="4.78127">
        <ele>197</ele>
        <time>2017-05-07T08:14:09Z</time>
      </trkpt>
      <trkpt lat="45.9399" lon="4.78132">
        <ele>197</ele>
        <time>2017-05-07T08:14:10Z</time>
      </trkpt>
      <trkpt lat="45.93989" lon="4.78143">
        <ele>198</ele>
        <time>2017-05-07T08:14:12Z</time>
      </trkpt>
      <trkpt lat="45.93988" lon="4.78149">
        <ele>198</ele>
        <time>2017-05-07T08:14:13Z</time>
      </trkpt>
      <trkpt lat="45.93987" lon="4.78159">
        <ele>199</ele>
        <time>2017-05-07T08:14:15Z</time>
      </trkpt>
      <trkpt lat="45.93988" lon="4.78162">
        <ele>199</ele>
        <time>2017-05-07T08:14:16Z</time>
      </trkpt>
      <trkpt lat="45.93996" lon="4.78167">
        <ele>200</ele>
        <time>2017-05-07T08:14:20Z</time>
      </trkpt>
      <trkpt lat="45.93999" lon="4.7817">
        <ele>200</ele>
        <time>2017-05-07T08:14:21Z</time>
      </trkpt>
      <trkpt lat="45.94005" lon="4.78175">
        <ele>202</ele>
        <time>2017-05-07T08:14:24Z</time>
      </trkpt>
      <trkpt lat="45.94008" lon="4.78176">
        <ele>202</ele>
        <time>2017-05-07T08:14:25Z</time>
      </trkpt>
      <trkpt lat="45.94016" lon="4.7818">
        <ele>203</ele>
        <time>2017-05-07T08:14:29Z</time>
      </trkpt>
      <trkpt lat="45.94018" lon="4.78182">
        <ele>203</ele>
        <time>2017-05-07T08:14:30Z</time>
      </trkpt>
      <trkpt lat="45.94025" lon="4.78184">
        <ele>204</ele>
        <time>2017-05-07T08:14:33Z</time>
      </trkpt>
      <trkpt lat="45.94027" lon="4.78184">
        <ele>204</ele>
        <time>2017-05-07T08:14:34Z</time>
      </trkpt>
      <trkpt lat="45.94034" lon="4.78188">
        <ele>204</ele>
        <time>2017-05-07T08:14:37Z</time>
      </trkpt>
      <trkpt lat="45.94035" lon="4.78189">
        <ele>205</ele>
        <time>2017-05-07T08:14:38Z</time>
      </trkpt>
      <trkpt lat="45.94042" lon="4.78196">
        <ele>205</ele>
        <time>2017-05-07T08:14:41Z</time>
      </trkpt>
      <trkpt lat="45.94044" lon="4.78198">
        <ele>205</ele>
        <time>2017-05-07T08:14:42Z</time>
      </trkpt>
      <trkpt lat="45.94052" lon="4.78204">
        <ele>205</ele>
        <time>2017-05-07T08:14:46Z</time>
      </trkpt>
      <trkpt lat="45.94053" lon="4.78207">
        <ele>205</ele>
        <time>2017-05-07T08:14:47Z</time>
      </trkpt>
      <trkpt lat="45.94059" lon="4.78216">
        <ele>206</ele>
        <time>2017-05-07T08:14:50Z</time>
      </trkpt>
      <trkpt lat="45.9406" lon="4.78219">
        <ele>206</ele>
        <time>2017-05-07T08:14:51Z</time>
      </trkpt>
      <trkpt lat="45.94067" lon="4.78225">
        <ele>206</ele>
        <time>2017-05-07T08:14:54Z</time>
      </trkpt>
      <trkpt lat="45.94069" lon="4.78227">
        <ele>206</ele>
        <time>2017-05-07T08:14:55Z</time>
      </trkpt>
      <trkpt lat="45.94077" lon="4.7823">
        <ele>206</ele>
        <time>2017-05-07T08:14:58Z</time>
      </trkpt>
      <trkpt lat="45.94079" lon="4.78231">
        <ele>206</ele>
        <time>2017-05-07T08:14:59Z</time>
      </trkpt>
      <trkpt lat="45.94088" lon="4.78232">
        <ele>212</ele>
        <time>2017-05-07T08:15:03Z</time>
      </trkpt>
      <trkpt lat="45.9409" lon="4.78234">
        <ele>212</ele>
        <time>2017-05-07T08:15:04Z</time>
      </trkpt>
      <trkpt lat="45.94098" lon="4.78238">
        <ele>212</ele>
        <time>2017-05-07T08:15:08Z</time>
      </trkpt>
      <trkpt lat="45.941" lon="4.7824">
        <ele>212</ele>
        <time>2017-05-07T08:15:09Z</time>
      </trkpt>
      <trkpt lat="45.94107" lon="4.78245">
        <ele>213</ele>
        <time>2017-05-07T08:15:12Z</time>
      </trkpt>
      <trkpt lat="45.94109" lon="4.78247">
        <ele>213</ele>
        <time>2017-05-07T08:15:13Z</time>
      </trkpt>
      <trkpt lat="45.94117" lon="4.78254">
        <ele>213</ele>
        <time>2017-05-07T08:15:16Z</time>
      </trkpt>
      <trkpt lat="45.94119" lon="4.78256">
        <ele>213</ele>
        <time>2017-05-07T08:15:17Z</time>
      </trkpt>
      <trkpt lat="45.94126" lon="4.78261">
        <ele>214</ele>
        <time>2017-05-07T08:15:20Z</time>
      </trkpt>
      <trkpt lat="45.94128" lon="4.78262">
        <ele>214</ele>
        <time>2017-05-07T08:15:21Z</time>
      </trkpt>
      <trkpt lat="45.94136" lon="4.78268">
        <ele>215</ele>
        <time>2017-05-07T08:15:25Z</time>
      </trkpt>
      <trkpt lat="45.94138" lon="4.78268">
        <ele>215</ele>
        <time>2017-05-07T08:15:26Z</time>
      </trkpt>
      <trkpt lat="45.94144" lon="4.78273">
        <ele>215</ele>
        <time>2017-05-07T08:15:29Z</time>
      </trkpt>
      <trkpt lat="45.94146" lon="4.78274">
        <ele>215</ele>
        <time>2017-05-07T08:15:30Z</time>
      </trkpt>
      <trkpt lat="45.94155" lon="4.78277">
        <ele>216</ele>
        <time>2017-05-07T08:15:34Z</time>
      </trkpt>
      <trkpt lat="45.94157" lon="4.78277">
        <ele>216</ele>
        <time>2017-05-07T08:15:35Z</time>
      </trkpt>
      <trkpt lat="45.94165" lon="4.7828">
        <ele>216</ele>
        <time>2017-05-07T08:15:39Z</time>
      </trkpt>
      <trkpt lat="45.94167" lon="4.78281">
        <ele>220</ele>
        <time>2017-05-07T08:15:40Z</time>
      </trkpt>
      <trkpt lat="45.94174" lon="4.78287">
        <ele>221</ele>
        <time>2017-05-07T08:15:43Z</time>
      </trkpt>
      <trkpt lat="45.94177" lon="4.78289">
        <ele>221</ele>
        <time>2017-05-07T08:15:44Z</time>
      </trkpt>
      <trkpt lat="45.94185" lon="4.78292">
        <ele>221</ele>
        <time>2017-05-07T08:15:47Z</time>
      </trkpt>
      <trkpt lat="45.94187" lon="4.78293">
        <ele>221</ele>
        <time>2017-05-07T08:15:48Z</time>
      </trkpt>
      <trkpt lat="45.94195" lon="4.78295">
        <ele>221</ele>
        <time>2017-05-07T08:15:51Z</time>
      </trkpt>
      <trkpt lat="45.94197" lon="4.78296">
        <ele>221</ele>
        <time>2017-05-07T08:15:52Z</time>
      </trkpt>
      <trkpt lat="45.94204" lon="4.78296">
        <ele>221</ele>
        <time>2017-05-07T08:15:55Z</time>
      </trkpt>
      <trkpt lat="45.94207" lon="4.78296">
        <ele>221</ele>
        <time>2017-05-07T08:15:56Z</time>
      </trkpt>
      <trkpt lat="45.94214" lon="4.78298">
        <ele>222</ele>
        <time>2017-05-07T08:15:59Z</time>
      </trkpt>
      <trkpt lat="45.94216" lon="4.78298">
        <ele>222</ele>
        <time>2017-05-07T08:16:00Z</time>
      </trkpt>
      <trkpt lat="45.94224" lon="4.78299">
        <ele>222</ele>
        <time>2017-05-07T08:16:03Z</time>
      </trkpt>
      <trkpt lat="45.94226" lon="4.783">
        <ele>222</ele>
        <time>2017-05-07T08:16:04Z</time>
      </trkpt>
      <trkpt lat="45.94234" lon="4.78302">
        <ele>222</ele>
        <time>2017-05-07T08:16:07Z</time>
      </trkpt>
      <trkpt lat="45.94236" lon="4.78303">
        <ele>222</ele>
        <time>2017-05-07T08:16:08Z</time>
      </trkpt>
      <trkpt lat="45.94243" lon="4.78306">
        <ele>222</ele>
        <time>2017-05-07T08:16:11Z</time>
      </trkpt>
      <trkpt lat="45.94246" lon="4.78307">
        <ele>222</ele>
        <time>2017-05-07T08:16:12Z</time>
      </trkpt>
      <trkpt lat="45.94254" lon="4.78312">
        <ele>226</ele>
        <time>2017-05-07T08:16:15Z</time>
      </trkpt>
      <trkpt lat="45.94256" lon="4.78313">
        <ele>226</ele>
        <time>2017-05-07T08:16:16Z</time>
      </trkpt>
      <trkpt lat="45.94264" lon="4.78317">
        <ele>226</ele>
        <time>2017-05-07T08:16:19Z</time>
      </trkpt>
      <trkpt lat="45.94266" lon="4.78318">
        <ele>226</ele>
        <time>2017-05-07T08:16:20Z</time>
      </trkpt>
      <trkpt lat="45.94273" lon="4.78323">
        <ele>227</ele>
        <time>2017-05-07T08:16:23Z</time>
      </trkpt>
      <trkpt lat="45.94275" lon="4.78325">
        <ele>227</ele>
        <time>2017-05-07T08:16:24Z</time>
      </trkpt>
      <trkpt lat="45.94282" lon="4.78332">
        <ele>228</ele>
        <time>2017-05-07T08:16:28Z</time>
      </trkpt>
      <trkpt lat="45.94284" lon="4.78334">
        <ele>227</ele>
        <time>2017-05-07T08:16:29Z</time>
      </trkpt>
      <trkpt lat="45.9429" lon="4.78341">
        <ele>228</ele>
        <time>2017-05-07T08:16:33Z</time>
      </trkpt>
      <trkpt lat="45.94292" lon="4.78344">
        <ele>228</ele>
        <time>2017-05-07T08:16:34Z</time>
      </trkpt>
      <trkpt lat="45.94298" lon="4.78353">
        <ele>229</ele>
        <time>2017-05-07T08:16:38Z</time>
      </trkpt>
      <trkpt lat="45.943" lon="4.78355">
        <ele>229</ele>
        <time>2017-05-07T08:16:39Z</time>
      </trkpt>
      <trkpt lat="45.94303" lon="4.78364">
        <ele>229</ele>
        <time>2017-05-07T08:16:42Z</time>
      </trkpt>
      <trkpt lat="45.94304" lon="4.78367">
        <ele>229</ele>
        <time>2017-05-07T08:16:43Z</time>
      </trkpt>
      <trkpt lat="45.94309" lon="4.78375">
        <ele>229</ele>
        <time>2017-05-07T08:16:46Z</time>
      </trkpt>
      <trkpt lat="45.9431" lon="4.78377">
        <ele>230</ele>
        <time>2017-05-07T08:16:47Z</time>
      </trkpt>
      <trkpt lat="45.94315" lon="4.78385">
        <ele>230</ele>
        <time>2017-05-07T08:16:50Z</time>
      </trkpt>
      <trkpt lat="45.94317" lon="4.78388">
        <ele>230</ele>
        <time>2017-05-07T08:16:51Z</time>
      </trkpt>
      <trkpt lat="45.9432" lon="4.78399">
        <ele>230</ele>
        <time>2017-05-07T08:16:54Z</time>
      </trkpt>
      <trkpt lat="45.94321" lon="4.78402">
        <ele>230</ele>
        <time>2017-05-07T08:16:55Z</time>
      </trkpt>
      <trkpt lat="45.94325" lon="4.78413">
        <ele>229</ele>
        <time>2017-05-07T08:16:59Z</time>
      </trkpt>
      <trkpt lat="45.94327" lon="4.78415">
        <ele>229</ele>
        <time>2017-05-07T08:17:00Z</time>
      </trkpt>
      <trkpt lat="45.94332" lon="4.78424">
        <ele>232</ele>
        <time>2017-05-07T08:17:04Z</time>
      </trkpt>
      <trkpt lat="45.94333" lon="4.78428">
        <ele>233</ele>
        <time>2017-05-07T08:17:05Z</time>
      </trkpt>
      <trkpt lat="45.9434" lon="4.78436">
        <ele>233</ele>
        <time>2017-05-07T08:17:09Z</time>
      </trkpt>
      <trkpt lat="45.94341" lon="4.78438">
        <ele>233</ele>
        <time>2017-05-07T08:17:10Z</time>
      </trkpt>
      <trkpt lat="45.94345" lon="4.78447">
        <ele>234</ele>
        <time>2017-05-07T08:17:13Z</time>
      </trkpt>
      <trkpt lat="45.94346" lon="4.78449">
        <ele>235</ele>
        <time>2017-05-07T08:17:14Z</time>
      </trkpt>
      <trkpt lat="45.94351" lon="4.78457">
        <ele>235</ele>
        <time>2017-05-07T08:17:18Z</time>
      </trkpt>
      <trkpt lat="45.94352" lon="4.78459">
        <ele>235</ele>
        <time>2017-05-07T08:17:19Z</time>
      </trkpt>
      <trkpt lat="45.94358" lon="4.78467">
        <ele>236</ele>
        <time>2017-05-07T08:17:23Z</time>
      </trkpt>
      <trkpt lat="45.9436" lon="4.78469">
        <ele>236</ele>
        <time>2017-05-07T08:17:24Z</time>
      </trkpt>
      <trkpt lat="45.94365" lon="4.78476">
        <ele>236</ele>
        <time>2017-05-07T08:17:27Z</time>
      </trkpt>
      <trkpt lat="45.94366" lon="4.78478">
        <ele>236</ele>
        <time>2017-05-07T08:17:28Z</time>
      </trkpt>
      <trkpt lat="45.94373" lon="4.78484">
        <ele>236</ele>
        <time>2017-05-07T08:17:31Z</time>
      </trkpt>
      <trkpt lat="45.94375" lon="4.78486">
        <ele>236</ele>
        <time>2017-05-07T08:17:32Z</time>
      </trkpt>
      <trkpt lat="45.94382" lon="4.78492">
        <ele>236</ele>
        <time>2017-05-07T08:17:35Z</time>
      </trkpt>
      <trkpt lat="45.94385" lon="4.78493">
        <ele>236</ele>
        <time>2017-05-07T08:17:36Z</time>
      </trkpt>
      <trkpt lat="45.94392" lon="4.785">
        <ele>235</ele>
        <time>2017-05-07T08:17:40Z</time>
      </trkpt>
      <trkpt lat="45.94393" lon="4.78502">
        <ele>237</ele>
        <time>2017-05-07T08:17:41Z</time>
      </trkpt>
      <trkpt lat="45.94399" lon="4.7851">
        <ele>237</ele>
        <time>2017-05-07T08:17:45Z</time>
      </trkpt>
      <trkpt lat="45.944" lon="4.78513">
        <ele>237</ele>
        <time>2017-05-07T08:17:46Z</time>
      </trkpt>
      <trkpt lat="45.94408" lon="4.78519">
        <ele>237</ele>
        <time>2017-05-07T08:17:50Z</time>
      </trkpt>
      <trkpt lat="45.94409" lon="4.78521">
        <ele>237</ele>
        <time>2017-05-07T08:17:51Z</time>
      </trkpt>
      <trkpt lat="45.94415" lon="4.7853">
        <ele>237</ele>
        <time>2017-05-07T08:17:55Z</time>
      </trkpt>
      <trkpt lat="45.94417" lon="4.78532">
        <ele>238</ele>
        <time>2017-05-07T08:17:56Z</time>
      </trkpt>
      <trkpt lat="45.94421" lon="4.78541">
        <ele>238</ele>
        <time>2017-05-07T08:17:59Z</time>
      </trkpt>
      <trkpt lat="45.94423" lon="4.78544">
        <ele>238</ele>
        <time>2017-05-07T08:18:00Z</time>
      </trkpt>
      <trkpt lat="45.94428" lon="4.78551">
        <ele>238</ele>
        <time>2017-05-07T08:18:03Z</time>
      </trkpt>
      <trkpt lat="45.94429" lon="4.78553">
        <ele>239</ele>
        <time>2017-05-07T08:18:04Z</time>
      </trkpt>
      <trkpt lat="45.94435" lon="4.78562">
        <ele>239</ele>
        <time>2017-05-07T08:18:07Z</time>
      </trkpt>
      <trkpt lat="45.94436" lon="4.78564">
        <ele>239</ele>
        <time>2017-05-07T08:18:08Z</time>
      </trkpt>
      <trkpt lat="45.94442" lon="4.78571">
        <ele>239</ele>
        <time>2017-05-07T08:18:11Z</time>
      </trkpt>
      <trkpt lat="45.94443" lon="4.78574">
        <ele>239</ele>
        <time>2017-05-07T08:18:12Z</time>
      </trkpt>
      <trkpt lat="45.94448" lon="4.78582">
        <ele>239</ele>
        <time>2017-05-07T08:18:15Z</time>
      </trkpt>
      <trkpt lat="45.9445" lon="4.78585">
        <ele>240</ele>
        <time>2017-05-07T08:18:16Z</time>
      </trkpt>
      <trkpt lat="45.94452" lon="4.78595">
        <ele>240</ele>
        <time>2017-05-07T08:18:20Z</time>
      </trkpt>
      <trkpt lat="45.94453" lon="4.78598">
        <ele>240</ele>
        <time>2017-05-07T08:18:21Z</time>
      </trkpt>
      <trkpt lat="45.94457" lon="4.78608">
        <ele>240</ele>
        <time>2017-05-07T08:18:25Z</time>
      </trkpt>
      <trkpt lat="45.94458" lon="4.78611">
        <ele>241</ele>
        <time>2017-05-07T08:18:26Z</time>
      </trkpt>
      <trkpt lat="45.94461" lon="4.78621">
        <ele>241</ele>
        <time>2017-05-07T08:18:30Z</time>
      </trkpt>
      <trkpt lat="45.94462" lon="4.78624">
        <ele>241</ele>
        <time>2017-05-07T08:18:31Z</time>
      </trkpt>
      <trkpt lat="45.94466" lon="4.78632">
        <ele>241</ele>
        <time>2017-05-07T08:18:34Z</time>
      </trkpt>
      <trkpt lat="45.94467" lon="4.78635">
        <ele>241</ele>
        <time>2017-05-07T08:18:35Z</time>
      </trkpt>
      <trkpt lat="45.9447" lon="4.78646">
        <ele>241</ele>
        <time>2017-05-07T08:18:38Z</time>
      </trkpt>
      <trkpt lat="45.94472" lon="4.78649">
        <ele>241</ele>
        <time>2017-05-07T08:18:39Z</time>
      </trkpt>
      <trkpt lat="45.94476" lon="4.78659">
        <ele>241</ele>
        <time>2017-05-07T08:18:43Z</time>
      </trkpt>
      <trkpt lat="45.94476" lon="4.78662">
        <ele>241</ele>
        <time>2017-05-07T08:18:44Z</time>
      </trkpt>
      <trkpt lat="45.94478" lon="4.78675">
        <ele>243</ele>
        <time>2017-05-07T08:18:48Z</time>
      </trkpt>
      <trkpt lat="45.94479" lon="4.78678">
        <ele>244</ele>
        <time>2017-05-07T08:18:49Z</time>
      </trkpt>
      <trkpt lat="45.9448" lon="4.78689">
        <ele>244</ele>
        <time>2017-05-07T08:18:53Z</time>
      </trkpt>
      <trkpt lat="45.9448" lon="4.78692">
        <ele>244</ele>
        <time>2017-05-07T08:18:54Z</time>
      </trkpt>
      <trkpt lat="45.9448" lon="4.78704">
        <ele>245</ele>
        <time>2017-05-07T08:18:58Z</time>
      </trkpt>
      <trkpt lat="45.94481" lon="4.78707">
        <ele>245</ele>
        <time>2017-05-07T08:18:59Z</time>
      </trkpt>
      <trkpt lat="45.94482" lon="4.78717">
        <ele>245</ele>
        <time>2017-05-07T08:19:03Z</time>
      </trkpt>
      <trkpt lat="45.94481" lon="4.7872">
        <ele>245</ele>
        <time>2017-05-07T08:19:04Z</time>
      </trkpt>
      <trkpt lat="45.9448" lon="4.78728">
        <ele>246</ele>
        <time>2017-05-07T08:19:07Z</time>
      </trkpt>
      <trkpt lat="45.94481" lon="4.78733">
        <ele>246</ele>
        <time>2017-05-07T08:19:08Z</time>
      </trkpt>
      <trkpt lat="45.94479" lon="4.78744">
        <ele>246</ele>
        <time>2017-05-07T08:19:11Z</time>
      </trkpt>
      <trkpt lat="45.94479" lon="4.78747">
        <ele>246</ele>
        <time>2017-05-07T08:19:12Z</time>
      </trkpt>
      <trkpt lat="45.9448" lon="4.78758">
        <ele>249</ele>
        <time>2017-05-07T08:19:16Z</time>
      </trkpt>
      <trkpt lat="45.94479" lon="4.78761">
        <ele>249</ele>
        <time>2017-05-07T08:19:17Z</time>
      </trkpt>
      <trkpt lat="45.94475" lon="4.78771">
        <ele>250</ele>
        <time>2017-05-07T08:19:22Z</time>
      </trkpt>
      <trkpt lat="45.94474" lon="4.78774">
        <ele>250</ele>
        <time>2017-05-07T08:19:23Z</time>
      </trkpt>
      <trkpt lat="45.9447" lon="4.78784">
        <ele>250</ele>
        <time>2017-05-07T08:19:28Z</time>
      </trkpt>
      <trkpt lat="45.9447" lon="4.78786">
        <ele>250</ele>
        <time>2017-05-07T08:19:29Z</time>
      </trkpt>
      <trkpt lat="45.94466" lon="4.78796">
        <ele>251</ele>
        <time>2017-05-07T08:19:34Z</time>
      </trkpt>
      <trkpt lat="45.94463" lon="4.78799">
        <ele>251</ele>
        <time>2017-05-07T08:19:35Z</time>
      </trkpt>
      <trkpt lat="45.9446" lon="4.7881">
        <ele>251</ele>
        <time>2017-05-07T08:19:39Z</time>
      </trkpt>
      <trkpt lat="45.94457" lon="4.78814">
        <ele>251</ele>
        <time>2017-05-07T08:19:40Z</time>
      </trkpt>
      <trkpt lat="45.94456" lon="4.78825">
        <ele>251</ele>
        <time>2017-05-07T08:19:43Z</time>
      </trkpt>
      <trkpt lat="45.94456" lon="4.78828">
        <ele>251</ele>
        <time>2017-05-07T08:19:44Z</time>
      </trkpt>
      <trkpt lat="45.94454" lon="4.78838">
        <ele>253</ele>
        <time>2017-05-07T08:19:48Z</time>
      </trkpt>
      <trkpt lat="45.94454" lon="4.78841">
        <ele>253</ele>
        <time>2017-05-07T08:19:49Z</time>
      </trkpt>
      <trkpt lat="45.94453" lon="4.78851">
        <ele>253</ele>
        <time>2017-05-07T08:19:52Z</time>
      </trkpt>
      <trkpt lat="45.94453" lon="4.78854">
        <ele>253</ele>
        <time>2017-05-07T08:19:53Z</time>
      </trkpt>
      <trkpt lat="45.94452" lon="4.78866">
        <ele>253</ele>
        <time>2017-05-07T08:19:58Z</time>
      </trkpt>
      <trkpt lat="45.94452" lon="4.78869">
        <ele>253</ele>
        <time>2017-05-07T08:19:59Z</time>
      </trkpt>
      <trkpt lat="45.94452" lon="4.78881">
        <ele>253</ele>
        <time>2017-05-07T08:20:03Z</time>
      </trkpt>
      <trkpt lat="45.94452" lon="4.78883">
        <ele>253</ele>
        <time>2017-05-07T08:20:04Z</time>
      </trkpt>
      <trkpt lat="45.94451" lon="4.78896">
        <ele>253</ele>
        <time>2017-05-07T08:20:08Z</time>
      </trkpt>
      <trkpt lat="45.94451" lon="4.78899">
        <ele>253</ele>
        <time>2017-05-07T08:20:09Z</time>
      </trkpt>
      <trkpt lat="45.94453" lon="4.78912">
        <ele>253</ele>
        <time>2017-05-07T08:20:12Z</time>
      </trkpt>
      <trkpt lat="45.94453" lon="4.78915">
        <ele>253</ele>
        <time>2017-05-07T08:20:13Z</time>
      </trkpt>
      <trkpt lat="45.94455" lon="4.78927">
        <ele>254</ele>
        <time>2017-05-07T08:20:17Z</time>
      </trkpt>
      <trkpt lat="45.94456" lon="4.78929">
        <ele>254</ele>
        <time>2017-05-07T08:20:18Z</time>
      </trkpt>
      <trkpt lat="45.94457" lon="4.78939">
        <ele>254</ele>
        <time>2017-05-07T08:20:22Z</time>
      </trkpt>
      <trkpt lat="45.94458" lon="4.78941">
        <ele>254</ele>
        <time>2017-05-07T08:20:23Z</time>
      </trkpt>
      <trkpt lat="45.94461" lon="4.78951">
        <ele>254</ele>
        <time>2017-05-07T08:20:27Z</time>
      </trkpt>
      <trkpt lat="45.94462" lon="4.78953">
        <ele>254</ele>
        <time>2017-05-07T08:20:28Z</time>
      </trkpt>
      <trkpt lat="45.94466" lon="4.78963">
        <ele>254</ele>
        <time>2017-05-07T08:20:32Z</time>
      </trkpt>
      <trkpt lat="45.94467" lon="4.78966">
        <ele>254</ele>
        <time>2017-05-07T08:20:33Z</time>
      </trkpt>
      <trkpt lat="45.94472" lon="4.78976">
        <ele>254</ele>
        <time>2017-05-07T08:20:36Z</time>
      </trkpt>
      <trkpt lat="45.94473" lon="4.78979">
        <ele>254</ele>
        <time>2017-05-07T08:20:37Z</time>
      </trkpt>
      <trkpt lat="45.94477" lon="4.78988">
        <ele>254</ele>
        <time>2017-05-07T08:20:40Z</time>
      </trkpt>
      <trkpt lat="45.9448" lon="4.78991">
        <ele>254</ele>
        <time>2017-05-07T08:20:41Z</time>
      </trkpt>
      <trkpt lat="45.94485" lon="4.78999">
        <ele>254</ele>
        <time>2017-05-07T08:20:44Z</time>
      </trkpt>
      <trkpt lat="45.94487" lon="4.79001">
        <ele>254</ele>
        <time>2017-05-07T08:20:45Z</time>
      </trkpt>
      <trkpt lat="45.94491" lon="4.7901">
        <ele>254</ele>
        <time>2017-05-07T08:20:48Z</time>
      </trkpt>
      <trkpt lat="45.94493" lon="4.79013">
        <ele>254</ele>
        <time>2017-05-07T08:20:49Z</time>
      </trkpt>
      <trkpt lat="45.94498" lon="4.79021">
        <ele>254</ele>
        <time>2017-05-07T08:20:52Z</time>
      </trkpt>
      <trkpt lat="45.945" lon="4.79024">
        <ele>254</ele>
        <time>2017-05-07T08:20:53Z</time>
      </trkpt>
      <trkpt lat="45.94505" lon="4.79032">
        <ele>255</ele>
        <time>2017-05-07T08:20:56Z</time>
      </trkpt>
      <trkpt lat="45.94507" lon="4.79035">
        <ele>255</ele>
        <time>2017-05-07T08:20:57Z</time>
      </trkpt>
      <trkpt lat="45.94511" lon="4.79042">
        <ele>255</ele>
        <time>2017-05-07T08:20:59Z</time>
      </trkpt>
      <trkpt lat="45.94514" lon="4.79045">
        <ele>255</ele>
        <time>2017-05-07T08:21:00Z</time>
      </trkpt>
      <trkpt lat="45.94519" lon="4.79051">
        <ele>255</ele>
        <time>2017-05-07T08:21:02Z</time>
      </trkpt>
      <trkpt lat="45.9452" lon="4.79055">
        <ele>255</ele>
        <time>2017-05-07T08:21:03Z</time>
      </trkpt>
      <trkpt lat="45.94523" lon="4.79062">
        <ele>255</ele>
        <time>2017-05-07T08:21:05Z</time>
      </trkpt>
      <trkpt lat="45.94525" lon="4.79066">
        <ele>255</ele>
        <time>2017-05-07T08:21:06Z</time>
      </trkpt>
      <trkpt lat="45.94529" lon="4.79074">
        <ele>255</ele>
        <time>2017-05-07T08:21:08Z</time>
      </trkpt>
      <trkpt lat="45.94531" lon="4.79078">
        <ele>255</ele>
        <time>2017-05-07T08:21:09Z</time>
      </trkpt>
      <trkpt lat="45.94535" lon="4.79086">
        <ele>256</ele>
        <time>2017-05-07T08:21:11Z</time>
      </trkpt>
      <trkpt lat="45.9454" lon="4.79091">
        <ele>256</ele>
        <time>2017-05-07T08:21:12Z</time>
      </trkpt>
      <trkpt lat="45.9454" lon="4.79101">
        <ele>256</ele>
        <time>2017-05-07T08:21:14Z</time>
      </trkpt>
      <trkpt lat="45.9454" lon="4.79106">
        <ele>256</ele>
        <time>2017-05-07T08:21:15Z</time>
      </trkpt>
      <trkpt lat="45.94542" lon="4.79115">
        <ele>256</ele>
        <time>2017-05-07T08:21:17Z</time>
      </trkpt>
      <trkpt lat="45.94544" lon="4.79119">
        <ele>256</ele>
        <time>2017-05-07T08:21:18Z</time>
      </trkpt>
      <trkpt lat="45.94549" lon="4.79129">
        <ele>256</ele>
        <time>2017-05-07T08:21:20Z</time>
      </trkpt>
      <trkpt lat="45.94551" lon="4.79133">
        <ele>257</ele>
        <time>2017-05-07T08:21:21Z</time>
      </trkpt>
      <trkpt lat="45.94556" lon="4.79143">
        <ele>257</ele>
        <time>2017-05-07T08:21:23Z</time>
      </trkpt>
      <trkpt lat="45.94559" lon="4.79148">
        <ele>257</ele>
        <time>2017-05-07T08:21:24Z</time>
      </trkpt>
      <trkpt lat="45.94565" lon="4.79157">
        <ele>257</ele>
        <time>2017-05-07T08:21:26Z</time>
      </trkpt>
      <trkpt lat="45.94568" lon="4.79161">
        <ele>258</ele>
        <time>2017-05-07T08:21:27Z</time>
      </trkpt>
      <trkpt lat="45.94573" lon="4.79171">
        <ele>258</ele>
        <time>2017-05-07T08:21:29Z</time>
      </trkpt>
      <trkpt lat="45.94576" lon="4.79176">
        <ele>258</ele>
        <time>2017-05-07T08:21:30Z</time>
      </trkpt>
      <trkpt lat="45.94579" lon="4.79181">
        <ele>257</ele>
        <time>2017-05-07T08:21:31Z</time>
      </trkpt>
      <trkpt lat="45.94582" lon="4.79186">
        <ele>257</ele>
        <time>2017-05-07T08:21:32Z</time>
      </trkpt>
      <trkpt lat="45.94587" lon="4.79195">
        <ele>257</ele>
        <time>2017-05-07T08:21:34Z</time>
      </trkpt>
      <trkpt lat="45.94589" lon="4.79201">
        <ele>257</ele>
        <time>2017-05-07T08:21:35Z</time>
      </trkpt>
      <trkpt lat="45.94594" lon="4.79211">
        <ele>257</ele>
        <time>2017-05-07T08:21:37Z</time>
      </trkpt>
      <trkpt lat="45.94597" lon="4.79217">
        <ele>257</ele>
        <time>2017-05-07T08:21:38Z</time>
      </trkpt>
      <trkpt lat="45.94602" lon="4.79227">
        <ele>256</ele>
        <time>2017-05-07T08:21:40Z</time>
      </trkpt>
      <trkpt lat="45.94604" lon="4.79232">
        <ele>256</ele>
        <time>2017-05-07T08:21:41Z</time>
      </trkpt>
      <trkpt lat="45.94607" lon="4.79237">
        <ele>256</ele>
        <time>2017-05-07T08:21:42Z</time>
      </trkpt>
      <trkpt lat="45.9461" lon="4.79242">
        <ele>256</ele>
        <time>2017-05-07T08:21:43Z</time>
      </trkpt>
      <trkpt lat="45.94614" lon="4.79253">
        <ele>255</ele>
        <time>2017-05-07T08:21:45Z</time>
      </trkpt>
      <trkpt lat="45.94616" lon="4.79258">
        <ele>255</ele>
        <time>2017-05-07T08:21:46Z</time>
      </trkpt>
      <trkpt lat="45.94619" lon="4.79266">
        <ele>255</ele>
        <time>2017-05-07T08:21:48Z</time>
      </trkpt>
      <trkpt lat="45.94622" lon="4.79271">
        <ele>255</ele>
        <time>2017-05-07T08:21:49Z</time>
      </trkpt>
      <trkpt lat="45.94624" lon="4.79277">
        <ele>255</ele>
        <time>2017-05-07T08:21:50Z</time>
      </trkpt>
      <trkpt lat="45.94627" lon="4.79283">
        <ele>254</ele>
        <time>2017-05-07T08:21:51Z</time>
      </trkpt>
      <trkpt lat="45.94631" lon="4.79294">
        <ele>254</ele>
        <time>2017-05-07T08:21:53Z</time>
      </trkpt>
      <trkpt lat="45.94634" lon="4.79299">
        <ele>254</ele>
        <time>2017-05-07T08:21:54Z</time>
      </trkpt>
      <trkpt lat="45.94637" lon="4.79305">
        <ele>254</ele>
        <time>2017-05-07T08:21:55Z</time>
      </trkpt>
      <trkpt lat="45.9464" lon="4.7931">
        <ele>254</ele>
        <time>2017-05-07T08:21:56Z</time>
      </trkpt>
      <trkpt lat="45.94645" lon="4.7932">
        <ele>254</ele>
        <time>2017-05-07T08:21:58Z</time>
      </trkpt>
      <trkpt lat="45.94648" lon="4.79325">
        <ele>254</ele>
        <time>2017-05-07T08:21:59Z</time>
      </trkpt>
      <trkpt lat="45.94651" lon="4.79335">
        <ele>254</ele>
        <time>2017-05-07T08:22:01Z</time>
      </trkpt>
      <trkpt lat="45.94652" lon="4.7934">
        <ele>254</ele>
        <time>2017-05-07T08:22:02Z</time>
      </trkpt>
      <trkpt lat="45.94657" lon="4.7935">
        <ele>254</ele>
        <time>2017-05-07T08:22:04Z</time>
      </trkpt>
      <trkpt lat="45.94659" lon="4.79355">
        <ele>254</ele>
        <time>2017-05-07T08:22:05Z</time>
      </trkpt>
      <trkpt lat="45.94661" lon="4.7936">
        <ele>254</ele>
        <time>2017-05-07T08:22:06Z</time>
      </trkpt>
      <trkpt lat="45.94664" lon="4.79365">
        <ele>254</ele>
        <time>2017-05-07T08:22:07Z</time>
      </trkpt>
      <trkpt lat="45.94669" lon="4.79375">
        <ele>253</ele>
        <time>2017-05-07T08:22:09Z</time>
      </trkpt>
      <trkpt lat="45.94672" lon="4.7938">
        <ele>253</ele>
        <time>2017-05-07T08:22:10Z</time>
      </trkpt>
      <trkpt lat="45.94675" lon="4.79385">
        <ele>253</ele>
        <time>2017-05-07T08:22:11Z</time>
      </trkpt>
      <trkpt lat="45.94678" lon="4.7939">
        <ele>253</ele>
        <time>2017-05-07T08:22:12Z</time>
      </trkpt>
      <trkpt lat="45.94681" lon="4.79395">
        <ele>253</ele>
        <time>2017-05-07T08:22:13Z</time>
      </trkpt>
      <trkpt lat="45.94684" lon="4.79401">
        <ele>253</ele>
        <time>2017-05-07T08:22:14Z</time>
      </trkpt>
      <trkpt lat="45.94687" lon="4.79407">
        <ele>253</ele>
        <time>2017-05-07T08:22:15Z</time>
      </trkpt>
      <trkpt lat="45.9469" lon="4.79413">
        <ele>253</ele>
        <time>2017-05-07T08:22:16Z</time>
      </trkpt>
      <trkpt lat="45.94693" lon="4.79419">
        <ele>253</ele>
        <time>2017-05-07T08:22:17Z</time>
      </trkpt>
      <trkpt lat="45.94695" lon="4.79424">
        <ele>253</ele>
        <time>2017-05-07T08:22:18Z</time>
      </trkpt>
      <trkpt lat="45.94698" lon="4.79429">
        <ele>253</ele>
        <time>2017-05-07T08:22:19Z</time>
      </trkpt>
      <trkpt lat="45.94702" lon="4.79435">
        <ele>253</ele>
        <time>2017-05-07T08:22:20Z</time>
      </trkpt>
      <trkpt lat="45.94705" lon="4.79441">
        <ele>253</ele>
        <time>2017-05-07T08:22:21Z</time>
      </trkpt>
      <trkpt lat="45.94708" lon="4.79448">
        <ele>253</ele>
        <time>2017-05-07T08:22:22Z</time>
      </trkpt>
      <trkpt lat="45.9471" lon="4.79454">
        <ele>253</ele>
        <time>2017-05-07T08:22:23Z</time>
      </trkpt>
      <trkpt lat="45.94713" lon="4.79461">
        <ele>253</ele>
        <time>2017-05-07T08:22:24Z</time>
      </trkpt>
      <trkpt lat="45.94716" lon="4.79468">
        <ele>253</ele>
        <time>2017-05-07T08:22:25Z</time>
      </trkpt>
      <trkpt lat="45.94719" lon="4.79476">
        <ele>253</ele>
        <time>2017-05-07T08:22:26Z</time>
      </trkpt>
      <trkpt lat="45.94723" lon="4.79483">
        <ele>253</ele>
        <time>2017-05-07T08:22:27Z</time>
      </trkpt>
      <trkpt lat="45.94726" lon="4.7949">
        <ele>253</ele>
        <time>2017-05-07T08:22:28Z</time>
      </trkpt>
      <trkpt lat="45.9473" lon="4.79497">
        <ele>253</ele>
        <time>2017-05-07T08:22:29Z</time>
      </trkpt>
      <trkpt lat="45.94733" lon="4.79505">
        <ele>253</ele>
        <time>2017-05-07T08:22:30Z</time>
      </trkpt>
      <trkpt lat="45.94736" lon="4.79513">
        <ele>253</ele>
        <time>2017-05-07T08:22:31Z</time>
      </trkpt>
      <trkpt lat="45.94739" lon="4.7952">
        <ele>253</ele>
        <time>2017-05-07T08:22:32Z</time>
      </trkpt>
      <trkpt lat="45.94742" lon="4.79527">
        <ele>253</ele>
        <time>2017-05-07T08:22:33Z</time>
      </trkpt>
      <trkpt lat="45.94745" lon="4.79534">
        <ele>253</ele>
        <time>2017-05-07T08:22:34Z</time>
      </trkpt>
      <trkpt lat="45.94747" lon="4.79541">
        <ele>253</ele>
        <time>2017-05-07T08:22:35Z</time>
      </trkpt>
      <trkpt lat="45.9475" lon="4.79547">
        <ele>253</ele>
        <time>2017-05-07T08:22:36Z</time>
      </trkpt>
      <trkpt lat="45.94752" lon="4.79554">
        <ele>252</ele>
        <time>2017-05-07T08:22:37Z</time>
      </trkpt>
      <trkpt lat="45.94755" lon="4.7956">
        <ele>252</ele>
        <time>2017-05-07T08:22:38Z</time>
      </trkpt>
      <trkpt lat="45.94756" lon="4.79567">
        <ele>252</ele>
        <time>2017-05-07T08:22:39Z</time>
      </trkpt>
      <trkpt lat="45.94757" lon="4.79573">
        <ele>252</ele>
        <time>2017-05-07T08:22:40Z</time>
      </trkpt>
      <trkpt lat="45.94757" lon="4.79579">
        <ele>252</ele>
        <time>2017-05-07T08:22:41Z</time>
      </trkpt>
      <trkpt lat="45.94757" lon="4.79586">
        <ele>252</ele>
        <time>2017-05-07T08:22:42Z</time>
      </trkpt>
      <trkpt lat="45.94757" lon="4.79593">
        <ele>253</ele>
        <time>2017-05-07T08:22:43Z</time>
      </trkpt>
      <trkpt lat="45.94759" lon="4.79599">
        <ele>253</ele>
        <time>2017-05-07T08:22:44Z</time>
      </trkpt>
      <trkpt lat="45.9476" lon="4.79606">
        <ele>253</ele>
        <time>2017-05-07T08:22:45Z</time>
      </trkpt>
      <trkpt lat="45.94762" lon="4.79613">
        <ele>253</ele>
        <time>2017-05-07T08:22:46Z</time>
      </trkpt>
      <trkpt lat="45.94763" lon="4.79619">
        <ele>253</ele>
        <time>2017-05-07T08:22:47Z</time>
      </trkpt>
      <trkpt lat="45.94765" lon="4.79627">
        <ele>253</ele>
        <time>2017-05-07T08:22:48Z</time>
      </trkpt>
      <trkpt lat="45.94767" lon="4.79633">
        <ele>253</ele>
        <time>2017-05-07T08:22:49Z</time>
      </trkpt>
      <trkpt lat="45.94769" lon="4.7964">
        <ele>254</ele>
        <time>2017-05-07T08:22:50Z</time>
      </trkpt>
      <trkpt lat="45.9477" lon="4.79646">
        <ele>254</ele>
        <time>2017-05-07T08:22:51Z</time>
      </trkpt>
      <trkpt lat="45.94772" lon="4.79653">
        <ele>254</ele>
        <time>2017-05-07T08:22:52Z</time>
      </trkpt>
      <trkpt lat="45.94774" lon="4.79659">
        <ele>254</ele>
        <time>2017-05-07T08:22:53Z</time>
      </trkpt>
      <trkpt lat="45.94776" lon="4.79665">
        <ele>254</ele>
        <time>2017-05-07T08:22:54Z</time>
      </trkpt>
      <trkpt lat="45.94778" lon="4.79671">
        <ele>254</ele>
        <time>2017-05-07T08:22:55Z</time>
      </trkpt>
      <trkpt lat="45.9478" lon="4.79678">
        <ele>254</ele>
        <time>2017-05-07T08:22:56Z</time>
      </trkpt>
      <trkpt lat="45.94783" lon="4.79685">
        <ele>254</ele>
        <time>2017-05-07T08:22:57Z</time>
      </trkpt>
      <trkpt lat="45.94784" lon="4.79692">
        <ele>254</ele>
        <time>2017-05-07T08:22:58Z</time>
      </trkpt>
      <trkpt lat="45.94786" lon="4.79699">
        <ele>254</ele>
        <time>2017-05-07T08:22:59Z</time>
      </trkpt>
      <trkpt lat="45.94788" lon="4.79705">
        <ele>254</ele>
        <time>2017-05-07T08:23:00Z</time>
      </trkpt>
      <trkpt lat="45.94791" lon="4.79717">
        <ele>254</ele>
        <time>2017-05-07T08:23:02Z</time>
      </trkpt>
      <trkpt lat="45.94793" lon="4.79722">
        <ele>254</ele>
        <time>2017-05-07T08:23:03Z</time>
      </trkpt>
      <trkpt lat="45.94795" lon="4.79728">
        <ele>254</ele>
        <time>2017-05-07T08:23:04Z</time>
      </trkpt>
      <trkpt lat="45.94797" lon="4.79734">
        <ele>254</ele>
        <time>2017-05-07T08:23:05Z</time>
      </trkpt>
      <trkpt lat="45.94801" lon="4.79745">
        <ele>254</ele>
        <time>2017-05-07T08:23:07Z</time>
      </trkpt>
      <trkpt lat="45.94802" lon="4.79751">
        <ele>254</ele>
        <time>2017-05-07T08:23:08Z</time>
      </trkpt>
      <trkpt lat="45.94804" lon="4.79758">
        <ele>254</ele>
        <time>2017-05-07T08:23:09Z</time>
      </trkpt>
      <trkpt lat="45.94806" lon="4.79764">
        <ele>254</ele>
        <time>2017-05-07T08:23:10Z</time>
      </trkpt>
      <trkpt lat="45.94808" lon="4.79772">
        <ele>254</ele>
        <time>2017-05-07T08:23:11Z</time>
      </trkpt>
      <trkpt lat="45.9481" lon="4.79779">
        <ele>254</ele>
        <time>2017-05-07T08:23:12Z</time>
      </trkpt>
      <trkpt lat="45.94813" lon="4.79787">
        <ele>254</ele>
        <time>2017-05-07T08:23:13Z</time>
      </trkpt>
      <trkpt lat="45.94815" lon="4.79794">
        <ele>254</ele>
        <time>2017-05-07T08:23:14Z</time>
      </trkpt>
      <trkpt lat="45.94816" lon="4.79802">
        <ele>254</ele>
        <time>2017-05-07T08:23:15Z</time>
      </trkpt>
      <trkpt lat="45.94817" lon="4.79809">
        <ele>254</ele>
        <time>2017-05-07T08:23:16Z</time>
      </trkpt>
      <trkpt lat="45.94818" lon="4.79817">
        <ele>254</ele>
        <time>2017-05-07T08:23:17Z</time>
      </trkpt>
      <trkpt lat="45.94819" lon="4.79825">
        <ele>254</ele>
        <time>2017-05-07T08:23:18Z</time>
      </trkpt>
      <trkpt lat="45.94821" lon="4.79832">
        <ele>254</ele>
        <time>2017-05-07T08:23:19Z</time>
      </trkpt>
      <trkpt lat="45.94822" lon="4.79838">
        <ele>254</ele>
        <time>2017-05-07T08:23:20Z</time>
      </trkpt>
      <trkpt lat="45.94824" lon="4.79845">
        <ele>254</ele>
        <time>2017-05-07T08:23:21Z</time>
      </trkpt>
      <trkpt lat="45.94825" lon="4.79851">
        <ele>254</ele>
        <time>2017-05-07T08:23:22Z</time>
      </trkpt>
      <trkpt lat="45.94826" lon="4.79858">
        <ele>255</ele>
        <time>2017-05-07T08:23:23Z</time>
      </trkpt>
      <trkpt lat="45.94828" lon="4.79864">
        <ele>255</ele>
        <time>2017-05-07T08:23:24Z</time>
      </trkpt>
      <trkpt lat="45.94829" lon="4.7987">
        <ele>255</ele>
        <time>2017-05-07T08:23:25Z</time>
      </trkpt>
      <trkpt lat="45.94831" lon="4.79877">
        <ele>255</ele>
        <time>2017-05-07T08:23:26Z</time>
      </trkpt>
      <trkpt lat="45.94832" lon="4.79883">
        <ele>255</ele>
        <time>2017-05-07T08:23:27Z</time>
      </trkpt>
      <trkpt lat="45.94835" lon="4.79888">
        <ele>255</ele>
        <time>2017-05-07T08:23:28Z</time>
      </trkpt>
      <trkpt lat="45.94838" lon="4.79894">
        <ele>255</ele>
        <time>2017-05-07T08:23:29Z</time>
      </trkpt>
      <trkpt lat="45.9484" lon="4.799">
        <ele>255</ele>
        <time>2017-05-07T08:23:30Z</time>
      </trkpt>
      <trkpt lat="45.94843" lon="4.79907">
        <ele>256</ele>
        <time>2017-05-07T08:23:31Z</time>
      </trkpt>
      <trkpt lat="45.94845" lon="4.79913">
        <ele>256</ele>
        <time>2017-05-07T08:23:32Z</time>
      </trkpt>
      <trkpt lat="45.94848" lon="4.7992">
        <ele>256</ele>
        <time>2017-05-07T08:23:33Z</time>
      </trkpt>
      <trkpt lat="45.94851" lon="4.79927">
        <ele>256</ele>
        <time>2017-05-07T08:23:34Z</time>
      </trkpt>
      <trkpt lat="45.94854" lon="4.79934">
        <ele>256</ele>
        <time>2017-05-07T08:23:35Z</time>
      </trkpt>
      <trkpt lat="45.94857" lon="4.7994">
        <ele>256</ele>
        <time>2017-05-07T08:23:36Z</time>
      </trkpt>
      <trkpt lat="45.9486" lon="4.79946">
        <ele>256</ele>
        <time>2017-05-07T08:23:37Z</time>
      </trkpt>
      <trkpt lat="45.94862" lon="4.79952">
        <ele>256</ele>
        <time>2017-05-07T08:23:38Z</time>
      </trkpt>
      <trkpt lat="45.94864" lon="4.79958">
        <ele>256</ele>
        <time>2017-05-07T08:23:39Z</time>
      </trkpt>
      <trkpt lat="45.94866" lon="4.79965">
        <ele>256</ele>
        <time>2017-05-07T08:23:40Z</time>
      </trkpt>
      <trkpt lat="45.94868" lon="4.79971">
        <ele>256</ele>
        <time>2017-05-07T08:23:41Z</time>
      </trkpt>
      <trkpt lat="45.9487" lon="4.79977">
        <ele>256</ele>
        <time>2017-05-07T08:23:42Z</time>
      </trkpt>
      <trkpt lat="45.94873" lon="4.79982">
        <ele>256</ele>
        <time>2017-05-07T08:23:43Z</time>
      </trkpt>
      <trkpt lat="45.94875" lon="4.79988">
        <ele>256</ele>
        <time>2017-05-07T08:23:44Z</time>
      </trkpt>
      <trkpt lat="45.94877" lon="4.79994">
        <ele>256</ele>
        <time>2017-05-07T08:23:45Z</time>
      </trkpt>
      <trkpt lat="45.94879" lon="4.8">
        <ele>256</ele>
        <time>2017-05-07T08:23:46Z</time>
      </trkpt>
      <trkpt lat="45.94886" lon="4.80005">
        <ele>256</ele>
        <time>2017-05-07T08:23:47Z</time>
      </trkpt>
      <trkpt lat="45.94888" lon="4.80012">
        <ele>256</ele>
        <time>2017-05-07T08:23:48Z</time>
      </trkpt>
      <trkpt lat="45.9489" lon="4.80017">
        <ele>256</ele>
        <time>2017-05-07T08:23:49Z</time>
      </trkpt>
      <trkpt lat="45.94892" lon="4.80024">
        <ele>256</ele>
        <time>2017-05-07T08:23:50Z</time>
      </trkpt>
      <trkpt lat="45.94894" lon="4.8003">
        <ele>256</ele>
        <time>2017-05-07T08:23:51Z</time>
      </trkpt>
      <trkpt lat="45.94896" lon="4.80036">
        <ele>256</ele>
        <time>2017-05-07T08:23:52Z</time>
      </trkpt>
      <trkpt lat="45.94898" lon="4.80042">
        <ele>256</ele>
        <time>2017-05-07T08:23:53Z</time>
      </trkpt>
      <trkpt lat="45.949" lon="4.80048">
        <ele>256</ele>
        <time>2017-05-07T08:23:54Z</time>
      </trkpt>
      <trkpt lat="45.94902" lon="4.80055">
        <ele>256</ele>
        <time>2017-05-07T08:23:55Z</time>
      </trkpt>
      <trkpt lat="45.94903" lon="4.80062">
        <ele>256</ele>
        <time>2017-05-07T08:23:56Z</time>
      </trkpt>
      <trkpt lat="45.94905" lon="4.80069">
        <ele>256</ele>
        <time>2017-05-07T08:23:57Z</time>
      </trkpt>
      <trkpt lat="45.94907" lon="4.80076">
        <ele>257</ele>
        <time>2017-05-07T08:23:58Z</time>
      </trkpt>
      <trkpt lat="45.94908" lon="4.80083">
        <ele>257</ele>
        <time>2017-05-07T08:23:59Z</time>
      </trkpt>
      <trkpt lat="45.94909" lon="4.80089">
        <ele>257</ele>
        <time>2017-05-07T08:24:00Z</time>
      </trkpt>
      <trkpt lat="45.94912" lon="4.80101">
        <ele>256</ele>
        <time>2017-05-07T08:24:02Z</time>
      </trkpt>
      <trkpt lat="45.94913" lon="4.80107">
        <ele>256</ele>
        <time>2017-05-07T08:24:03Z</time>
      </trkpt>
      <trkpt lat="45.94914" lon="4.80112">
        <ele>256</ele>
        <time>2017-05-07T08:24:04Z</time>
      </trkpt>
      <trkpt lat="45.94915" lon="4.80119">
        <ele>256</ele>
        <time>2017-05-07T08:24:05Z</time>
      </trkpt>
      <trkpt lat="45.94916" lon="4.80127">
        <ele>256</ele>
        <time>2017-05-07T08:24:06Z</time>
      </trkpt>
      <trkpt lat="45.94917" lon="4.80134">
        <ele>256</ele>
        <time>2017-05-07T08:24:07Z</time>
      </trkpt>
      <trkpt lat="45.94918" lon="4.80143">
        <ele>256</ele>
        <time>2017-05-07T08:24:08Z</time>
      </trkpt>
      <trkpt lat="45.9492" lon="4.8015">
        <ele>255</ele>
        <time>2017-05-07T08:24:09Z</time>
      </trkpt>
      <trkpt lat="45.94922" lon="4.80158">
        <ele>255</ele>
        <time>2017-05-07T08:24:10Z</time>
      </trkpt>
      <trkpt lat="45.94923" lon="4.80166">
        <ele>255</ele>
        <time>2017-05-07T08:24:11Z</time>
      </trkpt>
      <trkpt lat="45.94925" lon="4.80174">
        <ele>255</ele>
        <time>2017-05-07T08:24:12Z</time>
      </trkpt>
      <trkpt lat="45.94927" lon="4.80181">
        <ele>256</ele>
        <time>2017-05-07T08:24:13Z</time>
      </trkpt>
      <trkpt lat="45.94928" lon="4.80187">
        <ele>256</ele>
        <time>2017-05-07T08:24:14Z</time>
      </trkpt>
      <trkpt lat="45.94929" lon="4.80194">
        <ele>256</ele>
        <time>2017-05-07T08:24:15Z</time>
      </trkpt>
      <trkpt lat="45.9493" lon="4.80201">
        <ele>256</ele>
        <time>2017-05-07T08:24:16Z</time>
      </trkpt>
      <trkpt lat="45.94932" lon="4.80207">
        <ele>256</ele>
        <time>2017-05-07T08:24:17Z</time>
      </trkpt>
      <trkpt lat="45.94933" lon="4.80214">
        <ele>256</ele>
        <time>2017-05-07T08:24:18Z</time>
      </trkpt>
      <trkpt lat="45.94934" lon="4.8022">
        <ele>256</ele>
        <time>2017-05-07T08:24:19Z</time>
      </trkpt>
      <trkpt lat="45.94934" lon="4.80227">
        <ele>256</ele>
        <time>2017-05-07T08:24:20Z</time>
      </trkpt>
      <trkpt lat="45.94935" lon="4.80234">
        <ele>256</ele>
        <time>2017-05-07T08:24:21Z</time>
      </trkpt>
      <trkpt lat="45.94935" lon="4.80241">
        <ele>256</ele>
        <time>2017-05-07T08:24:22Z</time>
      </trkpt>
      <trkpt lat="45.94936" lon="4.80248">
        <ele>256</ele>
        <time>2017-05-07T08:24:23Z</time>
      </trkpt>
      <trkpt lat="45.94936" lon="4.80255">
        <ele>257</ele>
        <time>2017-05-07T08:24:24Z</time>
      </trkpt>
      <trkpt lat="45.94936" lon="4.80262">
        <ele>257</ele>
        <time>2017-05-07T08:24:25Z</time>
      </trkpt>
      <trkpt lat="45.94937" lon="4.80269">
        <ele>257</ele>
        <time>2017-05-07T08:24:26Z</time>
      </trkpt>
      <trkpt lat="45.94936" lon="4.80276">
        <ele>257</ele>
        <time>2017-05-07T08:24:27Z</time>
      </trkpt>
      <trkpt lat="45.94937" lon="4.80283">
        <ele>257</ele>
        <time>2017-05-07T08:24:28Z</time>
      </trkpt>
      <trkpt lat="45.94937" lon="4.8029">
        <ele>257</ele>
        <time>2017-05-07T08:24:29Z</time>
      </trkpt>
      <trkpt lat="45.94938" lon="4.80297">
        <ele>257</ele>
        <time>2017-05-07T08:24:30Z</time>
      </trkpt>
      <trkpt lat="45.94938" lon="4.80304">
        <ele>257</ele>
        <time>2017-05-07T08:24:31Z</time>
      </trkpt>
      <trkpt lat="45.94939" lon="4.8031">
        <ele>257</ele>
        <time>2017-05-07T08:24:32Z</time>
      </trkpt>
      <trkpt lat="45.94939" lon="4.80317">
        <ele>257</ele>
        <time>2017-05-07T08:24:33Z</time>
      </trkpt>
      <trkpt lat="45.94939" lon="4.80324">
        <ele>257</ele>
        <time>2017-05-07T08:24:34Z</time>
      </trkpt>
      <trkpt lat="45.9494" lon="4.80331">
        <ele>257</ele>
        <time>2017-05-07T08:24:35Z</time>
      </trkpt>
      <trkpt lat="45.94941" lon="4.80338">
        <ele>258</ele>
        <time>2017-05-07T08:24:36Z</time>
      </trkpt>
      <trkpt lat="45.94941" lon="4.80346">
        <ele>258</ele>
        <time>2017-05-07T08:24:37Z</time>
      </trkpt>
      <trkpt lat="45.9494" lon="4.80353">
        <ele>258</ele>
        <time>2017-05-07T08:24:38Z</time>
      </trkpt>
      <trkpt lat="45.94939" lon="4.80359">
        <ele>258</ele>
        <time>2017-05-07T08:24:39Z</time>
      </trkpt>
      <trkpt lat="45.94939" lon="4.80371">
        <ele>258</ele>
        <time>2017-05-07T08:24:41Z</time>
      </trkpt>
      <trkpt lat="45.9494" lon="4.80376">
        <ele>258</ele>
        <time>2017-05-07T08:24:42Z</time>
      </trkpt>
      <trkpt lat="45.9494" lon="4.80388">
        <ele>258</ele>
        <time>2017-05-07T08:24:44Z</time>
      </trkpt>
      <trkpt lat="45.9494" lon="4.80394">
        <ele>258</ele>
        <time>2017-05-07T08:24:45Z</time>
      </trkpt>
      <trkpt lat="45.9494" lon="4.804">
        <ele>258</ele>
        <time>2017-05-07T08:24:46Z</time>
      </trkpt>
      <trkpt lat="45.9494" lon="4.80407">
        <ele>259</ele>
        <time>2017-05-07T08:24:47Z</time>
      </trkpt>
      <trkpt lat="45.94939" lon="4.80414">
        <ele>259</ele>
        <time>2017-05-07T08:24:48Z</time>
      </trkpt>
      <trkpt lat="45.94939" lon="4.80422">
        <ele>259</ele>
        <time>2017-05-07T08:24:49Z</time>
      </trkpt>
      <trkpt lat="45.94939" lon="4.80429">
        <ele>259</ele>
        <time>2017-05-07T08:24:50Z</time>
      </trkpt>
      <trkpt lat="45.94939" lon="4.80436">
        <ele>259</ele>
        <time>2017-05-07T08:24:51Z</time>
      </trkpt>
      <trkpt lat="45.94939" lon="4.80448">
        <ele>259</ele>
        <time>2017-05-07T08:24:53Z</time>
      </trkpt>
      <trkpt lat="45.94939" lon="4.80454">
        <ele>259</ele>
        <time>2017-05-07T08:24:54Z</time>
      </trkpt>
      <trkpt lat="45.9494" lon="4.80461">
        <ele>258</ele>
        <time>2017-05-07T08:24:55Z</time>
      </trkpt>
      <trkpt lat="45.9494" lon="4.80469">
        <ele>258</ele>
        <time>2017-05-07T08:24:56Z</time>
      </trkpt>
      <trkpt lat="45.9494" lon="4.80477">
        <ele>258</ele>
        <time>2017-05-07T08:24:57Z</time>
      </trkpt>
      <trkpt lat="45.9494" lon="4.80485">
        <ele>258</ele>
        <time>2017-05-07T08:24:58Z</time>
      </trkpt>
      <trkpt lat="45.9494" lon="4.80493">
        <ele>258</ele>
        <time>2017-05-07T08:24:59Z</time>
      </trkpt>
      <trkpt lat="45.9494" lon="4.80502">
        <ele>258</ele>
        <time>2017-05-07T08:25:00Z</time>
      </trkpt>
      <trkpt lat="45.9494" lon="4.8051">
        <ele>258</ele>
        <time>2017-05-07T08:25:01Z</time>
      </trkpt>
      <trkpt lat="45.9494" lon="4.80518">
        <ele>258</ele>
        <time>2017-05-07T08:25:02Z</time>
      </trkpt>
      <trkpt lat="45.9494" lon="4.80526">
        <ele>258</ele>
        <time>2017-05-07T08:25:03Z</time>
      </trkpt>
      <trkpt lat="45.9494" lon="4.80534">
        <ele>258</ele>
        <time>2017-05-07T08:25:04Z</time>
      </trkpt>
      <trkpt lat="45.9494" lon="4.80541">
        <ele>258</ele>
        <time>2017-05-07T08:25:05Z</time>
      </trkpt>
      <trkpt lat="45.9494" lon="4.80548">
        <ele>258</ele>
        <time>2017-05-07T08:25:06Z</time>
      </trkpt>
      <trkpt lat="45.9494" lon="4.80555">
        <ele>258</ele>
        <time>2017-05-07T08:25:07Z</time>
      </trkpt>
      <trkpt lat="45.9494" lon="4.80562">
        <ele>257</ele>
        <time>2017-05-07T08:25:08Z</time>
      </trkpt>
      <trkpt lat="45.94941" lon="4.80569">
        <ele>257</ele>
        <time>2017-05-07T08:25:09Z</time>
      </trkpt>
      <trkpt lat="45.94941" lon="4.80575">
        <ele>257</ele>
        <time>2017-05-07T08:25:10Z</time>
      </trkpt>
      <trkpt lat="45.94941" lon="4.80582">
        <ele>257</ele>
        <time>2017-05-07T08:25:11Z</time>
      </trkpt>
      <trkpt lat="45.94942" lon="4.80589">
        <ele>258</ele>
        <time>2017-05-07T08:25:12Z</time>
      </trkpt>
      <trkpt lat="45.94942" lon="4.80601">
        <ele>258</ele>
        <time>2017-05-07T08:25:14Z</time>
      </trkpt>
      <trkpt lat="45.94943" lon="4.80607">
        <ele>258</ele>
        <time>2017-05-07T08:25:15Z</time>
      </trkpt>
      <trkpt lat="45.94943" lon="4.80614">
        <ele>258</ele>
        <time>2017-05-07T08:25:16Z</time>
      </trkpt>
      <trkpt lat="45.94944" lon="4.80621">
        <ele>258</ele>
        <time>2017-05-07T08:25:17Z</time>
      </trkpt>
      <trkpt lat="45.94944" lon="4.80628">
        <ele>258</ele>
        <time>2017-05-07T08:25:18Z</time>
      </trkpt>
      <trkpt lat="45.94945" lon="4.80635">
        <ele>258</ele>
        <time>2017-05-07T08:25:19Z</time>
      </trkpt>
      <trkpt lat="45.94947" lon="4.80643">
        <ele>259</ele>
        <time>2017-05-07T08:25:20Z</time>
      </trkpt>
      <trkpt lat="45.94947" lon="4.80651">
        <ele>259</ele>
        <time>2017-05-07T08:25:21Z</time>
      </trkpt>
      <trkpt lat="45.94947" lon="4.80659">
        <ele>259</ele>
        <time>2017-05-07T08:25:22Z</time>
      </trkpt>
      <trkpt lat="45.94948" lon="4.80667">
        <ele>259</ele>
        <time>2017-05-07T08:25:23Z</time>
      </trkpt>
      <trkpt lat="45.94948" lon="4.80675">
        <ele>259</ele>
        <time>2017-05-07T08:25:24Z</time>
      </trkpt>
      <trkpt lat="45.94949" lon="4.80682">
        <ele>259</ele>
        <time>2017-05-07T08:25:25Z</time>
      </trkpt>
      <trkpt lat="45.94949" lon="4.80689">
        <ele>259</ele>
        <time>2017-05-07T08:25:26Z</time>
      </trkpt>
      <trkpt lat="45.9495" lon="4.80696">
        <ele>259</ele>
        <time>2017-05-07T08:25:27Z</time>
      </trkpt>
      <trkpt lat="45.9495" lon="4.80702">
        <ele>259</ele>
        <time>2017-05-07T08:25:28Z</time>
      </trkpt>
      <trkpt lat="45.9495" lon="4.80709">
        <ele>259</ele>
        <time>2017-05-07T08:25:29Z</time>
      </trkpt>
      <trkpt lat="45.9495" lon="4.80715">
        <ele>259</ele>
        <time>2017-05-07T08:25:30Z</time>
      </trkpt>
      <trkpt lat="45.94949" lon="4.80723">
        <ele>259</ele>
        <time>2017-05-07T08:25:31Z</time>
      </trkpt>
      <trkpt lat="45.94949" lon="4.8073">
        <ele>259</ele>
        <time>2017-05-07T08:25:32Z</time>
      </trkpt>
      <trkpt lat="45.94949" lon="4.80737">
        <ele>259</ele>
        <time>2017-05-07T08:25:33Z</time>
      </trkpt>
      <trkpt lat="45.94948" lon="4.80744">
        <ele>259</ele>
        <time>2017-05-07T08:25:34Z</time>
      </trkpt>
      <trkpt lat="45.94948" lon="4.8075">
        <ele>259</ele>
        <time>2017-05-07T08:25:35Z</time>
      </trkpt>
      <trkpt lat="45.94948" lon="4.80757">
        <ele>259</ele>
        <time>2017-05-07T08:25:36Z</time>
      </trkpt>
      <trkpt lat="45.94947" lon="4.80764">
        <ele>259</ele>
        <time>2017-05-07T08:25:37Z</time>
      </trkpt>
      <trkpt lat="45.94946" lon="4.80771">
        <ele>259</ele>
        <time>2017-05-07T08:25:38Z</time>
      </trkpt>
      <trkpt lat="45.94945" lon="4.80777">
        <ele>259</ele>
        <time>2017-05-07T08:25:39Z</time>
      </trkpt>
      <trkpt lat="45.94943" lon="4.80786">
        <ele>259</ele>
        <time>2017-05-07T08:25:41Z</time>
      </trkpt>
      <trkpt lat="45.94942" lon="4.8079">
        <ele>259</ele>
        <time>2017-05-07T08:25:42Z</time>
      </trkpt>
      <trkpt lat="45.94941" lon="4.80801">
        <ele>259</ele>
        <time>2017-05-07T08:25:45Z</time>
      </trkpt>
      <trkpt lat="45.94941" lon="4.80803">
        <ele>259</ele>
        <time>2017-05-07T08:25:46Z</time>
      </trkpt>
      <trkpt lat="45.94945" lon="4.80812">
        <ele>258</ele>
        <time>2017-05-07T08:25:49Z</time>
      </trkpt>
      <trkpt lat="45.94947" lon="4.80814">
        <ele>258</ele>
        <time>2017-05-07T08:25:50Z</time>
      </trkpt>
      <trkpt lat="45.94952" lon="4.80821">
        <ele>258</ele>
        <time>2017-05-07T08:25:52Z</time>
      </trkpt>
      <trkpt lat="45.94954" lon="4.80827">
        <ele>258</ele>
        <time>2017-05-07T08:25:53Z</time>
      </trkpt>
      <trkpt lat="45.94955" lon="4.80833">
        <ele>258</ele>
        <time>2017-05-07T08:25:54Z</time>
      </trkpt>
      <trkpt lat="45.94957" lon="4.8084">
        <ele>258</ele>
        <time>2017-05-07T08:25:55Z</time>
      </trkpt>
      <trkpt lat="45.94958" lon="4.80847">
        <ele>258</ele>
        <time>2017-05-07T08:25:56Z</time>
      </trkpt>
      <trkpt lat="45.9496" lon="4.80854">
        <ele>259</ele>
        <time>2017-05-07T08:25:57Z</time>
      </trkpt>
      <trkpt lat="45.94961" lon="4.80861">
        <ele>259</ele>
        <time>2017-05-07T08:25:58Z</time>
      </trkpt>
      <trkpt lat="45.94963" lon="4.80868">
        <ele>259</ele>
        <time>2017-05-07T08:25:59Z</time>
      </trkpt>
      <trkpt lat="45.94964" lon="4.80874">
        <ele>259</ele>
        <time>2017-05-07T08:26:00Z</time>
      </trkpt>
      <trkpt lat="45.94965" lon="4.80881">
        <ele>258</ele>
        <time>2017-05-07T08:26:01Z</time>
      </trkpt>
      <trkpt lat="45.94966" lon="4.80887">
        <ele>258</ele>
        <time>2017-05-07T08:26:02Z</time>
      </trkpt>
      <trkpt lat="45.94967" lon="4.80894">
        <ele>258</ele>
        <time>2017-05-07T08:26:03Z</time>
      </trkpt>
      <trkpt lat="45.94968" lon="4.80901">
        <ele>258</ele>
        <time>2017-05-07T08:26:04Z</time>
      </trkpt>
      <trkpt lat="45.94969" lon="4.80907">
        <ele>258</ele>
        <time>2017-05-07T08:26:05Z</time>
      </trkpt>
      <trkpt lat="45.94971" lon="4.80915">
        <ele>258</ele>
        <time>2017-05-07T08:26:06Z</time>
      </trkpt>
      <trkpt lat="45.94972" lon="4.80921">
        <ele>258</ele>
        <time>2017-05-07T08:26:07Z</time>
      </trkpt>
      <trkpt lat="45.94973" lon="4.80929">
        <ele>258</ele>
        <time>2017-05-07T08:26:08Z</time>
      </trkpt>
      <trkpt lat="45.94974" lon="4.80936">
        <ele>258</ele>
        <time>2017-05-07T08:26:09Z</time>
      </trkpt>
      <trkpt lat="45.94975" lon="4.80944">
        <ele>258</ele>
        <time>2017-05-07T08:26:10Z</time>
      </trkpt>
      <trkpt lat="45.94976" lon="4.80952">
        <ele>258</ele>
        <time>2017-05-07T08:26:11Z</time>
      </trkpt>
      <trkpt lat="45.94978" lon="4.80959">
        <ele>258</ele>
        <time>2017-05-07T08:26:12Z</time>
      </trkpt>
      <trkpt lat="45.94979" lon="4.80967">
        <ele>258</ele>
        <time>2017-05-07T08:26:13Z</time>
      </trkpt>
      <trkpt lat="45.9498" lon="4.80974">
        <ele>258</ele>
        <time>2017-05-07T08:26:14Z</time>
      </trkpt>
      <trkpt lat="45.94981" lon="4.80982">
        <ele>258</ele>
        <time>2017-05-07T08:26:15Z</time>
      </trkpt>
      <trkpt lat="45.94981" lon="4.80989">
        <ele>258</ele>
        <time>2017-05-07T08:26:16Z</time>
      </trkpt>
      <trkpt lat="45.94982" lon="4.80996">
        <ele>258</ele>
        <time>2017-05-07T08:26:17Z</time>
      </trkpt>
      <trkpt lat="45.94982" lon="4.81003">
        <ele>257</ele>
        <time>2017-05-07T08:26:18Z</time>
      </trkpt>
      <trkpt lat="45.94983" lon="4.8101">
        <ele>257</ele>
        <time>2017-05-07T08:26:19Z</time>
      </trkpt>
      <trkpt lat="45.94983" lon="4.81017">
        <ele>257</ele>
        <time>2017-05-07T08:26:20Z</time>
      </trkpt>
      <trkpt lat="45.94984" lon="4.81025">
        <ele>257</ele>
        <time>2017-05-07T08:26:21Z</time>
      </trkpt>
      <trkpt lat="45.94984" lon="4.81033">
        <ele>257</ele>
        <time>2017-05-07T08:26:22Z</time>
      </trkpt>
      <trkpt lat="45.94984" lon="4.81041">
        <ele>257</ele>
        <time>2017-05-07T08:26:23Z</time>
      </trkpt>
      <trkpt lat="45.94985" lon="4.8105">
        <ele>257</ele>
        <time>2017-05-07T08:26:24Z</time>
      </trkpt>
      <trkpt lat="45.94985" lon="4.81059">
        <ele>257</ele>
        <time>2017-05-07T08:26:25Z</time>
      </trkpt>
      <trkpt lat="45.94986" lon="4.81068">
        <ele>257</ele>
        <time>2017-05-07T08:26:26Z</time>
      </trkpt>
      <trkpt lat="45.94987" lon="4.81077">
        <ele>257</ele>
        <time>2017-05-07T08:26:27Z</time>
      </trkpt>
      <trkpt lat="45.94987" lon="4.81086">
        <ele>257</ele>
        <time>2017-05-07T08:26:28Z</time>
      </trkpt>
      <trkpt lat="45.94988" lon="4.81095">
        <ele>257</ele>
        <time>2017-05-07T08:26:29Z</time>
      </trkpt>
      <trkpt lat="45.94989" lon="4.81105">
        <ele>257</ele>
        <time>2017-05-07T08:26:30Z</time>
      </trkpt>
      <trkpt lat="45.94991" lon="4.81113">
        <ele>257</ele>
        <time>2017-05-07T08:26:31Z</time>
      </trkpt>
      <trkpt lat="45.94992" lon="4.81123">
        <ele>257</ele>
        <time>2017-05-07T08:26:32Z</time>
      </trkpt>
      <trkpt lat="45.94993" lon="4.81132">
        <ele>256</ele>
        <time>2017-05-07T08:26:33Z</time>
      </trkpt>
      <trkpt lat="45.94995" lon="4.81142">
        <ele>256</ele>
        <time>2017-05-07T08:26:34Z</time>
      </trkpt>
      <trkpt lat="45.94996" lon="4.81151">
        <ele>256</ele>
        <time>2017-05-07T08:26:35Z</time>
      </trkpt>
      <trkpt lat="45.94997" lon="4.8116">
        <ele>256</ele>
        <time>2017-05-07T08:26:36Z</time>
      </trkpt>
      <trkpt lat="45.94997" lon="4.8117">
        <ele>256</ele>
        <time>2017-05-07T08:26:37Z</time>
      </trkpt>
      <trkpt lat="45.94999" lon="4.81179">
        <ele>256</ele>
        <time>2017-05-07T08:26:38Z</time>
      </trkpt>
      <trkpt lat="45.95" lon="4.81189">
        <ele>256</ele>
        <time>2017-05-07T08:26:39Z</time>
      </trkpt>
      <trkpt lat="45.95001" lon="4.81198">
        <ele>256</ele>
        <time>2017-05-07T08:26:40Z</time>
      </trkpt>
      <trkpt lat="45.95002" lon="4.81208">
        <ele>256</ele>
        <time>2017-05-07T08:26:41Z</time>
      </trkpt>
      <trkpt lat="45.95003" lon="4.81218">
        <ele>256</ele>
        <time>2017-05-07T08:26:42Z</time>
      </trkpt>
      <trkpt lat="45.95004" lon="4.81227">
        <ele>256</ele>
        <time>2017-05-07T08:26:43Z</time>
      </trkpt>
      <trkpt lat="45.95005" lon="4.81237">
        <ele>256</ele>
        <time>2017-05-07T08:26:44Z</time>
      </trkpt>
      <trkpt lat="45.95007" lon="4.81246">
        <ele>256</ele>
        <time>2017-05-07T08:26:45Z</time>
      </trkpt>
      <trkpt lat="45.95008" lon="4.81255">
        <ele>256</ele>
        <time>2017-05-07T08:26:46Z</time>
      </trkpt>
      <trkpt lat="45.9501" lon="4.81264">
        <ele>256</ele>
        <time>2017-05-07T08:26:47Z</time>
      </trkpt>
      <trkpt lat="45.95011" lon="4.81272">
        <ele>255</ele>
        <time>2017-05-07T08:26:48Z</time>
      </trkpt>
      <trkpt lat="45.95013" lon="4.8128">
        <ele>255</ele>
        <time>2017-05-07T08:26:49Z</time>
      </trkpt>
      <trkpt lat="45.95015" lon="4.81288">
        <ele>255</ele>
        <time>2017-05-07T08:26:50Z</time>
      </trkpt>
      <trkpt lat="45.95016" lon="4.81295">
        <ele>255</ele>
        <time>2017-05-07T08:26:51Z</time>
      </trkpt>
      <trkpt lat="45.95018" lon="4.81303">
        <ele>255</ele>
        <time>2017-05-07T08:26:52Z</time>
      </trkpt>
      <trkpt lat="45.95019" lon="4.8131">
        <ele>255</ele>
        <time>2017-05-07T08:26:53Z</time>
      </trkpt>
      <trkpt lat="45.95021" lon="4.81318">
        <ele>255</ele>
        <time>2017-05-07T08:26:54Z</time>
      </trkpt>
      <trkpt lat="45.95023" lon="4.81326">
        <ele>255</ele>
        <time>2017-05-07T08:26:55Z</time>
      </trkpt>
      <trkpt lat="45.95025" lon="4.81334">
        <ele>255</ele>
        <time>2017-05-07T08:26:56Z</time>
      </trkpt>
      <trkpt lat="45.95027" lon="4.81343">
        <ele>254</ele>
        <time>2017-05-07T08:26:57Z</time>
      </trkpt>
      <trkpt lat="45.95029" lon="4.81351">
        <ele>254</ele>
        <time>2017-05-07T08:26:58Z</time>
      </trkpt>
      <trkpt lat="45.95032" lon="4.8136">
        <ele>254</ele>
        <time>2017-05-07T08:26:59Z</time>
      </trkpt>
      <trkpt lat="45.95034" lon="4.81369">
        <ele>254</ele>
        <time>2017-05-07T08:27:00Z</time>
      </trkpt>
      <trkpt lat="45.95037" lon="4.81377">
        <ele>254</ele>
        <time>2017-05-07T08:27:01Z</time>
      </trkpt>
      <trkpt lat="45.9504" lon="4.81386">
        <ele>254</ele>
        <time>2017-05-07T08:27:02Z</time>
      </trkpt>
      <trkpt lat="45.95043" lon="4.81395">
        <ele>254</ele>
        <time>2017-05-07T08:27:03Z</time>
      </trkpt>
      <trkpt lat="45.95045" lon="4.81404">
        <ele>253</ele>
        <time>2017-05-07T08:27:04Z</time>
      </trkpt>
      <trkpt lat="45.95048" lon="4.81413">
        <ele>253</ele>
        <time>2017-05-07T08:27:05Z</time>
      </trkpt>
      <trkpt lat="45.95052" lon="4.81422">
        <ele>253</ele>
        <time>2017-05-07T08:27:06Z</time>
      </trkpt>
      <trkpt lat="45.95056" lon="4.81431">
        <ele>253</ele>
        <time>2017-05-07T08:27:07Z</time>
      </trkpt>
      <trkpt lat="45.95059" lon="4.8144">
        <ele>253</ele>
        <time>2017-05-07T08:27:08Z</time>
      </trkpt>
      <trkpt lat="45.95063" lon="4.8145">
        <ele>253</ele>
        <time>2017-05-07T08:27:09Z</time>
      </trkpt>
      <trkpt lat="45.95066" lon="4.81459">
        <ele>253</ele>
        <time>2017-05-07T08:27:10Z</time>
      </trkpt>
      <trkpt lat="45.9507" lon="4.81468">
        <ele>253</ele>
        <time>2017-05-07T08:27:11Z</time>
      </trkpt>
      <trkpt lat="45.95073" lon="4.81477">
        <ele>253</ele>
        <time>2017-05-07T08:27:12Z</time>
      </trkpt>
      <trkpt lat="45.95077" lon="4.81486">
        <ele>253</ele>
        <time>2017-05-07T08:27:13Z</time>
      </trkpt>
      <trkpt lat="45.95081" lon="4.81496">
        <ele>252</ele>
        <time>2017-05-07T08:27:14Z</time>
      </trkpt>
      <trkpt lat="45.95084" lon="4.81505">
        <ele>252</ele>
        <time>2017-05-07T08:27:15Z</time>
      </trkpt>
      <trkpt lat="45.95088" lon="4.81515">
        <ele>252</ele>
        <time>2017-05-07T08:27:16Z</time>
      </trkpt>
      <trkpt lat="45.95091" lon="4.81524">
        <ele>251</ele>
        <time>2017-05-07T08:27:17Z</time>
      </trkpt>
      <trkpt lat="45.95095" lon="4.81534">
        <ele>251</ele>
        <time>2017-05-07T08:27:18Z</time>
      </trkpt>
      <trkpt lat="45.95099" lon="4.81544">
        <ele>251</ele>
        <time>2017-05-07T08:27:19Z</time>
      </trkpt>
      <trkpt lat="45.95102" lon="4.81553">
        <ele>251</ele>
        <time>2017-05-07T08:27:20Z</time>
      </trkpt>
      <trkpt lat="45.95106" lon="4.81563">
        <ele>251</ele>
        <time>2017-05-07T08:27:21Z</time>
      </trkpt>
      <trkpt lat="45.95109" lon="4.81572">
        <ele>251</ele>
        <time>2017-05-07T08:27:22Z</time>
      </trkpt>
      <trkpt lat="45.95113" lon="4.81581">
        <ele>251</ele>
        <time>2017-05-07T08:27:23Z</time>
      </trkpt>
      <trkpt lat="45.95115" lon="4.81589">
        <ele>252</ele>
        <time>2017-05-07T08:27:24Z</time>
      </trkpt>
      <trkpt lat="45.95118" lon="4.81598">
        <ele>252</ele>
        <time>2017-05-07T08:27:25Z</time>
      </trkpt>
      <trkpt lat="45.95121" lon="4.81606">
        <ele>252</ele>
        <time>2017-05-07T08:27:26Z</time>
      </trkpt>
      <trkpt lat="45.95123" lon="4.81613">
        <ele>252</ele>
        <time>2017-05-07T08:27:27Z</time>
      </trkpt>
      <trkpt lat="45.95126" lon="4.8162">
        <ele>252</ele>
        <time>2017-05-07T08:27:28Z</time>
      </trkpt>
      <trkpt lat="45.95128" lon="4.81626">
        <ele>253</ele>
        <time>2017-05-07T08:27:29Z</time>
      </trkpt>
      <trkpt lat="45.9513" lon="4.81633">
        <ele>253</ele>
        <time>2017-05-07T08:27:30Z</time>
      </trkpt>
      <trkpt lat="45.95132" lon="4.81639">
        <ele>253</ele>
        <time>2017-05-07T08:27:31Z</time>
      </trkpt>
      <trkpt lat="45.95134" lon="4.8165">
        <ele>253</ele>
        <time>2017-05-07T08:27:33Z</time>
      </trkpt>
      <trkpt lat="45.95136" lon="4.81655">
        <ele>253</ele>
        <time>2017-05-07T08:27:34Z</time>
      </trkpt>
      <trkpt lat="45.9514" lon="4.81666">
        <ele>253</ele>
        <time>2017-05-07T08:27:36Z</time>
      </trkpt>
      <trkpt lat="45.95142" lon="4.81672">
        <ele>255</ele>
        <time>2017-05-07T08:27:37Z</time>
      </trkpt>
      <trkpt lat="45.95145" lon="4.81683">
        <ele>255</ele>
        <time>2017-05-07T08:27:39Z</time>
      </trkpt>
      <trkpt lat="45.95147" lon="4.81689">
        <ele>255</ele>
        <time>2017-05-07T08:27:40Z</time>
      </trkpt>
      <trkpt lat="45.95151" lon="4.81699">
        <ele>255</ele>
        <time>2017-05-07T08:27:42Z</time>
      </trkpt>
      <trkpt lat="45.95153" lon="4.81704">
        <ele>255</ele>
        <time>2017-05-07T08:27:43Z</time>
      </trkpt>
      <trkpt lat="45.95156" lon="4.81714">
        <ele>256</ele>
        <time>2017-05-07T08:27:45Z</time>
      </trkpt>
      <trkpt lat="45.95158" lon="4.81719">
        <ele>256</ele>
        <time>2017-05-07T08:27:46Z</time>
      </trkpt>
      <trkpt lat="45.95162" lon="4.81729">
        <ele>256</ele>
        <time>2017-05-07T08:27:48Z</time>
      </trkpt>
      <trkpt lat="45.95164" lon="4.81734">
        <ele>257</ele>
        <time>2017-05-07T08:27:49Z</time>
      </trkpt>
      <trkpt lat="45.9517" lon="4.81742">
        <ele>258</ele>
        <time>2017-05-07T08:27:51Z</time>
      </trkpt>
      <trkpt lat="45.95173" lon="4.81747">
        <ele>258</ele>
        <time>2017-05-07T08:27:52Z</time>
      </trkpt>
      <trkpt lat="45.95179" lon="4.81757">
        <ele>258</ele>
        <time>2017-05-07T08:27:54Z</time>
      </trkpt>
      <trkpt lat="45.95181" lon="4.81761">
        <ele>258</ele>
        <time>2017-05-07T08:27:55Z</time>
      </trkpt>
      <trkpt lat="45.95187" lon="4.81771">
        <ele>258</ele>
        <time>2017-05-07T08:27:57Z</time>
      </trkpt>
      <trkpt lat="45.9519" lon="4.81776">
        <ele>258</ele>
        <time>2017-05-07T08:27:58Z</time>
      </trkpt>
      <trkpt lat="45.95197" lon="4.81784">
        <ele>258</ele>
        <time>2017-05-07T08:28:00Z</time>
      </trkpt>
      <trkpt lat="45.952" lon="4.81788">
        <ele>259</ele>
        <time>2017-05-07T08:28:01Z</time>
      </trkpt>
      <trkpt lat="45.95205" lon="4.81798">
        <ele>259</ele>
        <time>2017-05-07T08:28:03Z</time>
      </trkpt>
      <trkpt lat="45.95208" lon="4.81803">
        <ele>259</ele>
        <time>2017-05-07T08:28:04Z</time>
      </trkpt>
      <trkpt lat="45.95214" lon="4.81812">
        <ele>259</ele>
        <time>2017-05-07T08:28:06Z</time>
      </trkpt>
      <trkpt lat="45.95217" lon="4.81817">
        <ele>259</ele>
        <time>2017-05-07T08:28:07Z</time>
      </trkpt>
      <trkpt lat="45.95223" lon="4.81826">
        <ele>259</ele>
        <time>2017-05-07T08:28:09Z</time>
      </trkpt>
      <trkpt lat="45.95225" lon="4.8183">
        <ele>259</ele>
        <time>2017-05-07T08:28:10Z</time>
      </trkpt>
      <trkpt lat="45.95231" lon="4.81839">
        <ele>260</ele>
        <time>2017-05-07T08:28:12Z</time>
      </trkpt>
      <trkpt lat="45.95234" lon="4.81844">
        <ele>260</ele>
        <time>2017-05-07T08:28:13Z</time>
      </trkpt>
      <trkpt lat="45.9524" lon="4.81853">
        <ele>260</ele>
        <time>2017-05-07T08:28:15Z</time>
      </trkpt>
      <trkpt lat="45.95243" lon="4.81857">
        <ele>260</ele>
        <time>2017-05-07T08:28:16Z</time>
      </trkpt>
      <trkpt lat="45.95248" lon="4.81865">
        <ele>260</ele>
        <time>2017-05-07T08:28:18Z</time>
      </trkpt>
      <trkpt lat="45.95251" lon="4.81869">
        <ele>260</ele>
        <time>2017-05-07T08:28:19Z</time>
      </trkpt>
      <trkpt lat="45.95256" lon="4.81877">
        <ele>260</ele>
        <time>2017-05-07T08:28:21Z</time>
      </trkpt>
      <trkpt lat="45.95259" lon="4.81881">
        <ele>260</ele>
        <time>2017-05-07T08:28:22Z</time>
      </trkpt>
      <trkpt lat="45.95265" lon="4.81889">
        <ele>260</ele>
        <time>2017-05-07T08:28:24Z</time>
      </trkpt>
      <trkpt lat="45.95268" lon="4.81893">
        <ele>260</ele>
        <time>2017-05-07T08:28:25Z</time>
      </trkpt>
      <trkpt lat="45.95272" lon="4.819">
        <ele>260</ele>
        <time>2017-05-07T08:28:27Z</time>
      </trkpt>
      <trkpt lat="45.95275" lon="4.81905">
        <ele>260</ele>
        <time>2017-05-07T08:28:28Z</time>
      </trkpt>
      <trkpt lat="45.95281" lon="4.81913">
        <ele>260</ele>
        <time>2017-05-07T08:28:30Z</time>
      </trkpt>
      <trkpt lat="45.95284" lon="4.81917">
        <ele>261</ele>
        <time>2017-05-07T08:28:31Z</time>
      </trkpt>
      <trkpt lat="45.9529" lon="4.81926">
        <ele>261</ele>
        <time>2017-05-07T08:28:33Z</time>
      </trkpt>
      <trkpt lat="45.95293" lon="4.8193">
        <ele>261</ele>
        <time>2017-05-07T08:28:34Z</time>
      </trkpt>
      <trkpt lat="45.95296" lon="4.81935">
        <ele>261</ele>
        <time>2017-05-07T08:28:35Z</time>
      </trkpt>
      <trkpt lat="45.95299" lon="4.81939">
        <ele>261</ele>
        <time>2017-05-07T08:28:36Z</time>
      </trkpt>
      <trkpt lat="45.95306" lon="4.81948">
        <ele>261</ele>
        <time>2017-05-07T08:28:38Z</time>
      </trkpt>
      <trkpt lat="45.95309" lon="4.81952">
        <ele>262</ele>
        <time>2017-05-07T08:28:39Z</time>
      </trkpt>
      <trkpt lat="45.95313" lon="4.81956">
        <ele>262</ele>
        <time>2017-05-07T08:28:40Z</time>
      </trkpt>
      <trkpt lat="45.95316" lon="4.8196">
        <ele>262</ele>
        <time>2017-05-07T08:28:41Z</time>
      </trkpt>
      <trkpt lat="45.9532" lon="4.81964">
        <ele>262</ele>
        <time>2017-05-07T08:28:42Z</time>
      </trkpt>
      <trkpt lat="45.95324" lon="4.81968">
        <ele>262</ele>
        <time>2017-05-07T08:28:43Z</time>
      </trkpt>
      <trkpt lat="45.95328" lon="4.81972">
        <ele>262</ele>
        <time>2017-05-07T08:28:44Z</time>
      </trkpt>
      <trkpt lat="45.95332" lon="4.81975">
        <ele>262</ele>
        <time>2017-05-07T08:28:45Z</time>
      </trkpt>
      <trkpt lat="45.95336" lon="4.81979">
        <ele>262</ele>
        <time>2017-05-07T08:28:46Z</time>
      </trkpt>
      <trkpt lat="45.9534" lon="4.81983">
        <ele>262</ele>
        <time>2017-05-07T08:28:47Z</time>
      </trkpt>
      <trkpt lat="45.95344" lon="4.81987">
        <ele>262</ele>
        <time>2017-05-07T08:28:48Z</time>
      </trkpt>
      <trkpt lat="45.95348" lon="4.81991">
        <ele>262</ele>
        <time>2017-05-07T08:28:49Z</time>
      </trkpt>
      <trkpt lat="45.95352" lon="4.81995">
        <ele>262</ele>
        <time>2017-05-07T08:28:50Z</time>
      </trkpt>
      <trkpt lat="45.95356" lon="4.81999">
        <ele>262</ele>
        <time>2017-05-07T08:28:51Z</time>
      </trkpt>
      <trkpt lat="45.9536" lon="4.82003">
        <ele>262</ele>
        <time>2017-05-07T08:28:52Z</time>
      </trkpt>
      <trkpt lat="45.95364" lon="4.82007">
        <ele>262</ele>
        <time>2017-05-07T08:28:53Z</time>
      </trkpt>
      <trkpt lat="45.95368" lon="4.82011">
        <ele>262</ele>
        <time>2017-05-07T08:28:54Z</time>
      </trkpt>
      <trkpt lat="45.95373" lon="4.82015">
        <ele>262</ele>
        <time>2017-05-07T08:28:55Z</time>
      </trkpt>
      <trkpt lat="45.95377" lon="4.8202">
        <ele>262</ele>
        <time>2017-05-07T08:28:56Z</time>
      </trkpt>
      <trkpt lat="45.95383" lon="4.82025">
        <ele>262</ele>
        <time>2017-05-07T08:28:57Z</time>
      </trkpt>
      <trkpt lat="45.95388" lon="4.82031">
        <ele>262</ele>
        <time>2017-05-07T08:28:58Z</time>
      </trkpt>
      <trkpt lat="45.95393" lon="4.82036">
        <ele>261</ele>
        <time>2017-05-07T08:28:59Z</time>
      </trkpt>
      <trkpt lat="45.95397" lon="4.82041">
        <ele>261</ele>
        <time>2017-05-07T08:29:00Z</time>
      </trkpt>
      <trkpt lat="45.95402" lon="4.82046">
        <ele>261</ele>
        <time>2017-05-07T08:29:01Z</time>
      </trkpt>
      <trkpt lat="45.95406" lon="4.82051">
        <ele>261</ele>
        <time>2017-05-07T08:29:02Z</time>
      </trkpt>
      <trkpt lat="45.95411" lon="4.82056">
        <ele>261</ele>
        <time>2017-05-07T08:29:03Z</time>
      </trkpt>
      <trkpt lat="45.95415" lon="4.82061">
        <ele>261</ele>
        <time>2017-05-07T08:29:04Z</time>
      </trkpt>
      <trkpt lat="45.9542" lon="4.82065">
        <ele>260</ele>
        <time>2017-05-07T08:29:05Z</time>
      </trkpt>
      <trkpt lat="45.95424" lon="4.8207">
        <ele>260</ele>
        <time>2017-05-07T08:29:06Z</time>
      </trkpt>
      <trkpt lat="45.95428" lon="4.82075">
        <ele>260</ele>
        <time>2017-05-07T08:29:07Z</time>
      </trkpt>
      <trkpt lat="45.95432" lon="4.8208">
        <ele>260</ele>
        <time>2017-05-07T08:29:08Z</time>
      </trkpt>
      <trkpt lat="45.95436" lon="4.82084">
        <ele>261</ele>
        <time>2017-05-07T08:29:09Z</time>
      </trkpt>
      <trkpt lat="45.9544" lon="4.82088">
        <ele>260</ele>
        <time>2017-05-07T08:29:10Z</time>
      </trkpt>
      <trkpt lat="45.95444" lon="4.82094">
        <ele>260</ele>
        <time>2017-05-07T08:29:11Z</time>
      </trkpt>
      <trkpt lat="45.95448" lon="4.82099">
        <ele>260</ele>
        <time>2017-05-07T08:29:12Z</time>
      </trkpt>
      <trkpt lat="45.95453" lon="4.82105">
        <ele>260</ele>
        <time>2017-05-07T08:29:13Z</time>
      </trkpt>
      <trkpt lat="45.95458" lon="4.8211">
        <ele>260</ele>
        <time>2017-05-07T08:29:14Z</time>
      </trkpt>
      <trkpt lat="45.95463" lon="4.82114">
        <ele>260</ele>
        <time>2017-05-07T08:29:15Z</time>
      </trkpt>
      <trkpt lat="45.95468" lon="4.82118">
        <ele>260</ele>
        <time>2017-05-07T08:29:16Z</time>
      </trkpt>
      <trkpt lat="45.95472" lon="4.82123">
        <ele>260</ele>
        <time>2017-05-07T08:29:17Z</time>
      </trkpt>
      <trkpt lat="45.95476" lon="4.82127">
        <ele>260</ele>
        <time>2017-05-07T08:29:18Z</time>
      </trkpt>
      <trkpt lat="45.95481" lon="4.82132">
        <ele>260</ele>
        <time>2017-05-07T08:29:19Z</time>
      </trkpt>
      <trkpt lat="45.95485" lon="4.82136">
        <ele>260</ele>
        <time>2017-05-07T08:29:20Z</time>
      </trkpt>
      <trkpt lat="45.9549" lon="4.8214">
        <ele>260</ele>
        <time>2017-05-07T08:29:21Z</time>
      </trkpt>
      <trkpt lat="45.95494" lon="4.82144">
        <ele>260</ele>
        <time>2017-05-07T08:29:22Z</time>
      </trkpt>
      <trkpt lat="45.95498" lon="4.82148">
        <ele>260</ele>
        <time>2017-05-07T08:29:23Z</time>
      </trkpt>
      <trkpt lat="45.95502" lon="4.82152">
        <ele>260</ele>
        <time>2017-05-07T08:29:24Z</time>
      </trkpt>
      <trkpt lat="45.95506" lon="4.82157">
        <ele>260</ele>
        <time>2017-05-07T08:29:25Z</time>
      </trkpt>
      <trkpt lat="45.9551" lon="4.82161">
        <ele>260</ele>
        <time>2017-05-07T08:29:26Z</time>
      </trkpt>
      <trkpt lat="45.95514" lon="4.82166">
        <ele>260</ele>
        <time>2017-05-07T08:29:27Z</time>
      </trkpt>
      <trkpt lat="45.95518" lon="4.8217">
        <ele>259</ele>
        <time>2017-05-07T08:29:28Z</time>
      </trkpt>
      <trkpt lat="45.95523" lon="4.82174">
        <ele>259</ele>
        <time>2017-05-07T08:29:29Z</time>
      </trkpt>
      <trkpt lat="45.95527" lon="4.82179">
        <ele>259</ele>
        <time>2017-05-07T08:29:30Z</time>
      </trkpt>
      <trkpt lat="45.95531" lon="4.82183">
        <ele>259</ele>
        <time>2017-05-07T08:29:31Z</time>
      </trkpt>
      <trkpt lat="45.95536" lon="4.82188">
        <ele>259</ele>
        <time>2017-05-07T08:29:32Z</time>
      </trkpt>
      <trkpt lat="45.95541" lon="4.82191">
        <ele>259</ele>
        <time>2017-05-07T08:29:33Z</time>
      </trkpt>
      <trkpt lat="45.95546" lon="4.82195">
        <ele>259</ele>
        <time>2017-05-07T08:29:34Z</time>
      </trkpt>
      <trkpt lat="45.95551" lon="4.82198">
        <ele>259</ele>
        <time>2017-05-07T08:29:35Z</time>
      </trkpt>
      <trkpt lat="45.95556" lon="4.82202">
        <ele>259</ele>
        <time>2017-05-07T08:29:36Z</time>
      </trkpt>
      <trkpt lat="45.9556" lon="4.82207">
        <ele>258</ele>
        <time>2017-05-07T08:29:37Z</time>
      </trkpt>
      <trkpt lat="45.95565" lon="4.82211">
        <ele>258</ele>
        <time>2017-05-07T08:29:38Z</time>
      </trkpt>
      <trkpt lat="45.95571" lon="4.82215">
        <ele>258</ele>
        <time>2017-05-07T08:29:39Z</time>
      </trkpt>
      <trkpt lat="45.95576" lon="4.82219">
        <ele>258</ele>
        <time>2017-05-07T08:29:40Z</time>
      </trkpt>
      <trkpt lat="45.95581" lon="4.82223">
        <ele>258</ele>
        <time>2017-05-07T08:29:41Z</time>
      </trkpt>
      <trkpt lat="45.95587" lon="4.82227">
        <ele>257</ele>
        <time>2017-05-07T08:29:42Z</time>
      </trkpt>
      <trkpt lat="45.95593" lon="4.8223">
        <ele>257</ele>
        <time>2017-05-07T08:29:43Z</time>
      </trkpt>
      <trkpt lat="45.95599" lon="4.82231">
        <ele>257</ele>
        <time>2017-05-07T08:29:44Z</time>
      </trkpt>
      <trkpt lat="45.95605" lon="4.82232">
        <ele>257</ele>
        <time>2017-05-07T08:29:45Z</time>
      </trkpt>
      <trkpt lat="45.95611" lon="4.82233">
        <ele>257</ele>
        <time>2017-05-07T08:29:46Z</time>
      </trkpt>
      <trkpt lat="45.95617" lon="4.82232">
        <ele>257</ele>
        <time>2017-05-07T08:29:47Z</time>
      </trkpt>
      <trkpt lat="45.95623" lon="4.82231">
        <ele>257</ele>
        <time>2017-05-07T08:29:48Z</time>
      </trkpt>
      <trkpt lat="45.95629" lon="4.82231">
        <ele>257</ele>
        <time>2017-05-07T08:29:49Z</time>
      </trkpt>
      <trkpt lat="45.95635" lon="4.82231">
        <ele>257</ele>
        <time>2017-05-07T08:29:50Z</time>
      </trkpt>
      <trkpt lat="45.95642" lon="4.82231">
        <ele>257</ele>
        <time>2017-05-07T08:29:51Z</time>
      </trkpt>
      <trkpt lat="45.95648" lon="4.82232">
        <ele>257</ele>
        <time>2017-05-07T08:29:52Z</time>
      </trkpt>
      <trkpt lat="45.95654" lon="4.82233">
        <ele>257</ele>
        <time>2017-05-07T08:29:53Z</time>
      </trkpt>
      <trkpt lat="45.95661" lon="4.82236">
        <ele>256</ele>
        <time>2017-05-07T08:29:54Z</time>
      </trkpt>
      <trkpt lat="45.95667" lon="4.8224">
        <ele>255</ele>
        <time>2017-05-07T08:29:55Z</time>
      </trkpt>
      <trkpt lat="45.95673" lon="4.82244">
        <ele>255</ele>
        <time>2017-05-07T08:29:56Z</time>
      </trkpt>
      <trkpt lat="45.95679" lon="4.82249">
        <ele>255</ele>
        <time>2017-05-07T08:29:57Z</time>
      </trkpt>
      <trkpt lat="45.95684" lon="4.82254">
        <ele>256</ele>
        <time>2017-05-07T08:29:58Z</time>
      </trkpt>
      <trkpt lat="45.95689" lon="4.8226">
        <ele>256</ele>
        <time>2017-05-07T08:29:59Z</time>
      </trkpt>
      <trkpt lat="45.95694" lon="4.82265">
        <ele>255</ele>
        <time>2017-05-07T08:30:00Z</time>
      </trkpt>
      <trkpt lat="45.95698" lon="4.82269">
        <ele>255</ele>
        <time>2017-05-07T08:30:01Z</time>
      </trkpt>
      <trkpt lat="45.95702" lon="4.82274">
        <ele>255</ele>
        <time>2017-05-07T08:30:02Z</time>
      </trkpt>
      <trkpt lat="45.95707" lon="4.82279">
        <ele>255</ele>
        <time>2017-05-07T08:30:03Z</time>
      </trkpt>
      <trkpt lat="45.95712" lon="4.82284">
        <ele>255</ele>
        <time>2017-05-07T08:30:04Z</time>
      </trkpt>
      <trkpt lat="45.95717" lon="4.82288">
        <ele>255</ele>
        <time>2017-05-07T08:30:05Z</time>
      </trkpt>
      <trkpt lat="45.95722" lon="4.82294">
        <ele>255</ele>
        <time>2017-05-07T08:30:06Z</time>
      </trkpt>
      <trkpt lat="45.95726" lon="4.82299">
        <ele>255</ele>
        <time>2017-05-07T08:30:07Z</time>
      </trkpt>
      <trkpt lat="45.95731" lon="4.82304">
        <ele>255</ele>
        <time>2017-05-07T08:30:08Z</time>
      </trkpt>
      <trkpt lat="45.95736" lon="4.8231">
        <ele>256</ele>
        <time>2017-05-07T08:30:09Z</time>
      </trkpt>
      <trkpt lat="45.95741" lon="4.82315">
        <ele>256</ele>
        <time>2017-05-07T08:30:10Z</time>
      </trkpt>
      <trkpt lat="45.95746" lon="4.8232">
        <ele>256</ele>
        <time>2017-05-07T08:30:11Z</time>
      </trkpt>
      <trkpt lat="45.95751" lon="4.82326">
        <ele>254</ele>
        <time>2017-05-07T08:30:12Z</time>
      </trkpt>
      <trkpt lat="45.95757" lon="4.82332">
        <ele>254</ele>
        <time>2017-05-07T08:30:13Z</time>
      </trkpt>
      <trkpt lat="45.95762" lon="4.82339">
        <ele>255</ele>
        <time>2017-05-07T08:30:14Z</time>
      </trkpt>
      <trkpt lat="45.95768" lon="4.82345">
        <ele>254</ele>
        <time>2017-05-07T08:30:15Z</time>
      </trkpt>
      <trkpt lat="45.95774" lon="4.82351">
        <ele>253</ele>
        <time>2017-05-07T08:30:16Z</time>
      </trkpt>
      <trkpt lat="45.9578" lon="4.82356">
        <ele>253</ele>
        <time>2017-05-07T08:30:17Z</time>
      </trkpt>
      <trkpt lat="45.95787" lon="4.82361">
        <ele>253</ele>
        <time>2017-05-07T08:30:18Z</time>
      </trkpt>
      <trkpt lat="45.95793" lon="4.82365">
        <ele>253</ele>
        <time>2017-05-07T08:30:19Z</time>
      </trkpt>
      <trkpt lat="45.95801" lon="4.82367">
        <ele>252</ele>
        <time>2017-05-07T08:30:20Z</time>
      </trkpt>
      <trkpt lat="45.95808" lon="4.8237">
        <ele>252</ele>
        <time>2017-05-07T08:30:21Z</time>
      </trkpt>
      <trkpt lat="45.95816" lon="4.82372">
        <ele>252</ele>
        <time>2017-05-07T08:30:22Z</time>
      </trkpt>
      <trkpt lat="45.95824" lon="4.82374">
        <ele>252</ele>
        <time>2017-05-07T08:30:23Z</time>
      </trkpt>
      <trkpt lat="45.95833" lon="4.82375">
        <ele>252</ele>
        <time>2017-05-07T08:30:24Z</time>
      </trkpt>
      <trkpt lat="45.95843" lon="4.82376">
        <ele>246</ele>
        <time>2017-05-07T08:30:25Z</time>
      </trkpt>
      <trkpt lat="45.95852" lon="4.82377">
        <ele>246</ele>
        <time>2017-05-07T08:30:26Z</time>
      </trkpt>
      <trkpt lat="45.95862" lon="4.82377">
        <ele>245</ele>
        <time>2017-05-07T08:30:27Z</time>
      </trkpt>
      <trkpt lat="45.95871" lon="4.82377">
        <ele>245</ele>
        <time>2017-05-07T08:30:28Z</time>
      </trkpt>
      <trkpt lat="45.9588" lon="4.82376">
        <ele>244</ele>
        <time>2017-05-07T08:30:29Z</time>
      </trkpt>
      <trkpt lat="45.9589" lon="4.82375">
        <ele>243</ele>
        <time>2017-05-07T08:30:30Z</time>
      </trkpt>
      <trkpt lat="45.959" lon="4.82374">
        <ele>243</ele>
        <time>2017-05-07T08:30:31Z</time>
      </trkpt>
      <trkpt lat="45.9591" lon="4.82373">
        <ele>242</ele>
        <time>2017-05-07T08:30:32Z</time>
      </trkpt>
      <trkpt lat="45.95919" lon="4.82372">
        <ele>238</ele>
        <time>2017-05-07T08:30:33Z</time>
      </trkpt>
      <trkpt lat="45.95929" lon="4.82371">
        <ele>238</ele>
        <time>2017-05-07T08:30:34Z</time>
      </trkpt>
      <trkpt lat="45.95938" lon="4.82369">
        <ele>238</ele>
        <time>2017-05-07T08:30:35Z</time>
      </trkpt>
      <trkpt lat="45.95948" lon="4.82368">
        <ele>237</ele>
        <time>2017-05-07T08:30:36Z</time>
      </trkpt>
      <trkpt lat="45.95957" lon="4.82366">
        <ele>237</ele>
        <time>2017-05-07T08:30:37Z</time>
      </trkpt>
      <trkpt lat="45.95967" lon="4.82364">
        <ele>237</ele>
        <time>2017-05-07T08:30:38Z</time>
      </trkpt>
      <trkpt lat="45.95976" lon="4.82363">
        <ele>237</ele>
        <time>2017-05-07T08:30:39Z</time>
      </trkpt>
      <trkpt lat="45.95984" lon="4.82361">
        <ele>237</ele>
        <time>2017-05-07T08:30:40Z</time>
      </trkpt>
      <trkpt lat="45.95993" lon="4.8236">
        <ele>236</ele>
        <time>2017-05-07T08:30:41Z</time>
      </trkpt>
      <trkpt lat="45.96" lon="4.82361">
        <ele>236</ele>
        <time>2017-05-07T08:30:42Z</time>
      </trkpt>
      <trkpt lat="45.96006" lon="4.82362">
        <ele>235</ele>
        <time>2017-05-07T08:30:43Z</time>
      </trkpt>
      <trkpt lat="45.96012" lon="4.82364">
        <ele>235</ele>
        <time>2017-05-07T08:30:44Z</time>
      </trkpt>
      <trkpt lat="45.96017" lon="4.82367">
        <ele>235</ele>
        <time>2017-05-07T08:30:45Z</time>
      </trkpt>
      <trkpt lat="45.9602" lon="4.82372">
        <ele>235</ele>
        <time>2017-05-07T08:30:46Z</time>
      </trkpt>
      <trkpt lat="45.96022" lon="4.82379">
        <ele>235</ele>
        <time>2017-05-07T08:30:47Z</time>
      </trkpt>
      <trkpt lat="45.96022" lon="4.82386">
        <ele>235</ele>
        <time>2017-05-07T08:30:48Z</time>
      </trkpt>
      <trkpt lat="45.96021" lon="4.82394">
        <ele>235</ele>
        <time>2017-05-07T08:30:49Z</time>
      </trkpt>
      <trkpt lat="45.96021" lon="4.82401">
        <ele>235</ele>
        <time>2017-05-07T08:30:50Z</time>
      </trkpt>
      <trkpt lat="45.9602" lon="4.82409">
        <ele>235</ele>
        <time>2017-05-07T08:30:51Z</time>
      </trkpt>
      <trkpt lat="45.9602" lon="4.82416">
        <ele>235</ele>
        <time>2017-05-07T08:30:52Z</time>
      </trkpt>
      <trkpt lat="45.96019" lon="4.82424">
        <ele>235</ele>
        <time>2017-05-07T08:30:53Z</time>
      </trkpt>
      <trkpt lat="45.96018" lon="4.82432">
        <ele>235</ele>
        <time>2017-05-07T08:30:54Z</time>
      </trkpt>
      <trkpt lat="45.96017" lon="4.8244">
        <ele>235</ele>
        <time>2017-05-07T08:30:55Z</time>
      </trkpt>
      <trkpt lat="45.96017" lon="4.82448">
        <ele>235</ele>
        <time>2017-05-07T08:30:56Z</time>
      </trkpt>
      <trkpt lat="45.96016" lon="4.82456">
        <ele>235</ele>
        <time>2017-05-07T08:30:57Z</time>
      </trkpt>
      <trkpt lat="45.96015" lon="4.82464">
        <ele>235</ele>
        <time>2017-05-07T08:30:58Z</time>
      </trkpt>
      <trkpt lat="45.96014" lon="4.82472">
        <ele>235</ele>
        <time>2017-05-07T08:30:59Z</time>
      </trkpt>
      <trkpt lat="45.96013" lon="4.82481">
        <ele>235</ele>
        <time>2017-05-07T08:31:00Z</time>
      </trkpt>
      <trkpt lat="45.96012" lon="4.82489">
        <ele>235</ele>
        <time>2017-05-07T08:31:01Z</time>
      </trkpt>
      <trkpt lat="45.96011" lon="4.82497">
        <ele>235</ele>
        <time>2017-05-07T08:31:02Z</time>
      </trkpt>
      <trkpt lat="45.96011" lon="4.82505">
        <ele>235</ele>
        <time>2017-05-07T08:31:03Z</time>
      </trkpt>
      <trkpt lat="45.9601" lon="4.82512">
        <ele>235</ele>
        <time>2017-05-07T08:31:04Z</time>
      </trkpt>
      <trkpt lat="45.9601" lon="4.8252">
        <ele>235</ele>
        <time>2017-05-07T08:31:05Z</time>
      </trkpt>
      <trkpt lat="45.96009" lon="4.82527">
        <ele>235</ele>
        <time>2017-05-07T08:31:06Z</time>
      </trkpt>
      <trkpt lat="45.96009" lon="4.82535">
        <ele>235</ele>
        <time>2017-05-07T08:31:07Z</time>
      </trkpt>
      <trkpt lat="45.96008" lon="4.82543">
        <ele>235</ele>
        <time>2017-05-07T08:31:08Z</time>
      </trkpt>
      <trkpt lat="45.96008" lon="4.82551">
        <ele>235</ele>
        <time>2017-05-07T08:31:09Z</time>
      </trkpt>
      <trkpt lat="45.96009" lon="4.82558">
        <ele>235</ele>
        <time>2017-05-07T08:31:10Z</time>
      </trkpt>
      <trkpt lat="45.9601" lon="4.82565">
        <ele>234</ele>
        <time>2017-05-07T08:31:11Z</time>
      </trkpt>
      <trkpt lat="45.96011" lon="4.82572">
        <ele>234</ele>
        <time>2017-05-07T08:31:12Z</time>
      </trkpt>
      <trkpt lat="45.96012" lon="4.82579">
        <ele>234</ele>
        <time>2017-05-07T08:31:13Z</time>
      </trkpt>
      <trkpt lat="45.96015" lon="4.82586">
        <ele>235</ele>
        <time>2017-05-07T08:31:14Z</time>
      </trkpt>
      <trkpt lat="45.96017" lon="4.82594">
        <ele>235</ele>
        <time>2017-05-07T08:31:15Z</time>
      </trkpt>
      <trkpt lat="45.9602" lon="4.82601">
        <ele>235</ele>
        <time>2017-05-07T08:31:16Z</time>
      </trkpt>
      <trkpt lat="45.96022" lon="4.82608">
        <ele>235</ele>
        <time>2017-05-07T08:31:17Z</time>
      </trkpt>
      <trkpt lat="45.96025" lon="4.82616">
        <ele>235</ele>
        <time>2017-05-07T08:31:18Z</time>
      </trkpt>
      <trkpt lat="45.96028" lon="4.82624">
        <ele>235</ele>
        <time>2017-05-07T08:31:19Z</time>
      </trkpt>
      <trkpt lat="45.96031" lon="4.82631">
        <ele>235</ele>
        <time>2017-05-07T08:31:20Z</time>
      </trkpt>
      <trkpt lat="45.96034" lon="4.82639">
        <ele>235</ele>
        <time>2017-05-07T08:31:21Z</time>
      </trkpt>
      <trkpt lat="45.96037" lon="4.82647">
        <ele>235</ele>
        <time>2017-05-07T08:31:22Z</time>
      </trkpt>
      <trkpt lat="45.9604" lon="4.82655">
        <ele>235</ele>
        <time>2017-05-07T08:31:23Z</time>
      </trkpt>
      <trkpt lat="45.96042" lon="4.82663">
        <ele>235</ele>
        <time>2017-05-07T08:31:24Z</time>
      </trkpt>
      <trkpt lat="45.96044" lon="4.82671">
        <ele>236</ele>
        <time>2017-05-07T08:31:25Z</time>
      </trkpt>
      <trkpt lat="45.96047" lon="4.82679">
        <ele>236</ele>
        <time>2017-05-07T08:31:26Z</time>
      </trkpt>
      <trkpt lat="45.9605" lon="4.82686">
        <ele>236</ele>
        <time>2017-05-07T08:31:27Z</time>
      </trkpt>
      <trkpt lat="45.96053" lon="4.82694">
        <ele>237</ele>
        <time>2017-05-07T08:31:28Z</time>
      </trkpt>
      <trkpt lat="45.96056" lon="4.82702">
        <ele>237</ele>
        <time>2017-05-07T08:31:29Z</time>
      </trkpt>
      <trkpt lat="45.96059" lon="4.82709">
        <ele>237</ele>
        <time>2017-05-07T08:31:30Z</time>
      </trkpt>
      <trkpt lat="45.96062" lon="4.82716">
        <ele>237</ele>
        <time>2017-05-07T08:31:31Z</time>
      </trkpt>
      <trkpt lat="45.96065" lon="4.82721">
        <ele>237</ele>
        <time>2017-05-07T08:31:32Z</time>
      </trkpt>
      <trkpt lat="45.96067" lon="4.82727">
        <ele>237</ele>
        <time>2017-05-07T08:31:33Z</time>
      </trkpt>
      <trkpt lat="45.96068" lon="4.82734">
        <ele>237</ele>
        <time>2017-05-07T08:31:34Z</time>
      </trkpt>
      <trkpt lat="45.9607" lon="4.8274">
        <ele>237</ele>
        <time>2017-05-07T08:31:35Z</time>
      </trkpt>
      <trkpt lat="45.96073" lon="4.82747">
        <ele>237</ele>
        <time>2017-05-07T08:31:36Z</time>
      </trkpt>
      <trkpt lat="45.96075" lon="4.82753">
        <ele>237</ele>
        <time>2017-05-07T08:31:37Z</time>
      </trkpt>
      <trkpt lat="45.96077" lon="4.8276">
        <ele>238</ele>
        <time>2017-05-07T08:31:38Z</time>
      </trkpt>
      <trkpt lat="45.96079" lon="4.82766">
        <ele>238</ele>
        <time>2017-05-07T08:31:39Z</time>
      </trkpt>
      <trkpt lat="45.96081" lon="4.82773">
        <ele>238</ele>
        <time>2017-05-07T08:31:40Z</time>
      </trkpt>
      <trkpt lat="45.96083" lon="4.82779">
        <ele>238</ele>
        <time>2017-05-07T08:31:41Z</time>
      </trkpt>
      <trkpt lat="45.96084" lon="4.82787">
        <ele>237</ele>
        <time>2017-05-07T08:31:42Z</time>
      </trkpt>
      <trkpt lat="45.96085" lon="4.82794">
        <ele>237</ele>
        <time>2017-05-07T08:31:43Z</time>
      </trkpt>
      <trkpt lat="45.96087" lon="4.82802">
        <ele>237</ele>
        <time>2017-05-07T08:31:44Z</time>
      </trkpt>
      <trkpt lat="45.96089" lon="4.82809">
        <ele>237</ele>
        <time>2017-05-07T08:31:45Z</time>
      </trkpt>
      <trkpt lat="45.96091" lon="4.82818">
        <ele>237</ele>
        <time>2017-05-07T08:31:46Z</time>
      </trkpt>
      <trkpt lat="45.96092" lon="4.82826">
        <ele>237</ele>
        <time>2017-05-07T08:31:47Z</time>
      </trkpt>
      <trkpt lat="45.96093" lon="4.82834">
        <ele>237</ele>
        <time>2017-05-07T08:31:48Z</time>
      </trkpt>
      <trkpt lat="45.96094" lon="4.82841">
        <ele>237</ele>
        <time>2017-05-07T08:31:49Z</time>
      </trkpt>
      <trkpt lat="45.96095" lon="4.82849">
        <ele>237</ele>
        <time>2017-05-07T08:31:50Z</time>
      </trkpt>
      <trkpt lat="45.96095" lon="4.82856">
        <ele>237</ele>
        <time>2017-05-07T08:31:51Z</time>
      </trkpt>
      <trkpt lat="45.96095" lon="4.82863">
        <ele>237</ele>
        <time>2017-05-07T08:31:52Z</time>
      </trkpt>
      <trkpt lat="45.96094" lon="4.8287">
        <ele>237</ele>
        <time>2017-05-07T08:31:53Z</time>
      </trkpt>
      <trkpt lat="45.96092" lon="4.82878">
        <ele>237</ele>
        <time>2017-05-07T08:31:54Z</time>
      </trkpt>
      <trkpt lat="45.96091" lon="4.82886">
        <ele>237</ele>
        <time>2017-05-07T08:31:55Z</time>
      </trkpt>
      <trkpt lat="45.96089" lon="4.82894">
        <ele>237</ele>
        <time>2017-05-07T08:31:56Z</time>
      </trkpt>
      <trkpt lat="45.96087" lon="4.82902">
        <ele>238</ele>
        <time>2017-05-07T08:31:57Z</time>
      </trkpt>
      <trkpt lat="45.96084" lon="4.8291">
        <ele>238</ele>
        <time>2017-05-07T08:31:58Z</time>
      </trkpt>
      <trkpt lat="45.96082" lon="4.82919">
        <ele>238</ele>
        <time>2017-05-07T08:31:59Z</time>
      </trkpt>
      <trkpt lat="45.9608" lon="4.82928">
        <ele>239</ele>
        <time>2017-05-07T08:32:00Z</time>
      </trkpt>
      <trkpt lat="45.96077" lon="4.82936">
        <ele>240</ele>
        <time>2017-05-07T08:32:01Z</time>
      </trkpt>
      <trkpt lat="45.96075" lon="4.82945">
        <ele>241</ele>
        <time>2017-05-07T08:32:02Z</time>
      </trkpt>
      <trkpt lat="45.96073" lon="4.82953">
        <ele>241</ele>
        <time>2017-05-07T08:32:03Z</time>
      </trkpt>
      <trkpt lat="45.96071" lon="4.8296">
        <ele>241</ele>
        <time>2017-05-07T08:32:04Z</time>
      </trkpt>
      <trkpt lat="45.9607" lon="4.82967">
        <ele>241</ele>
        <time>2017-05-07T08:32:05Z</time>
      </trkpt>
      <trkpt lat="45.96068" lon="4.82974">
        <ele>241</ele>
        <time>2017-05-07T08:32:06Z</time>
      </trkpt>
      <trkpt lat="45.96066" lon="4.8298">
        <ele>241</ele>
        <time>2017-05-07T08:32:07Z</time>
      </trkpt>
      <trkpt lat="45.96065" lon="4.82987">
        <ele>241</ele>
        <time>2017-05-07T08:32:08Z</time>
      </trkpt>
      <trkpt lat="45.96064" lon="4.82993">
        <ele>241</ele>
        <time>2017-05-07T08:32:09Z</time>
      </trkpt>
      <trkpt lat="45.96064" lon="4.83">
        <ele>241</ele>
        <time>2017-05-07T08:32:10Z</time>
      </trkpt>
      <trkpt lat="45.96065" lon="4.83007">
        <ele>242</ele>
        <time>2017-05-07T08:32:11Z</time>
      </trkpt>
      <trkpt lat="45.96065" lon="4.83014">
        <ele>242</ele>
        <time>2017-05-07T08:32:12Z</time>
      </trkpt>
      <trkpt lat="45.96066" lon="4.8302">
        <ele>242</ele>
        <time>2017-05-07T08:32:13Z</time>
      </trkpt>
      <trkpt lat="45.96066" lon="4.83027">
        <ele>242</ele>
        <time>2017-05-07T08:32:14Z</time>
      </trkpt>
      <trkpt lat="45.96067" lon="4.83035">
        <ele>243</ele>
        <time>2017-05-07T08:32:15Z</time>
      </trkpt>
      <trkpt lat="45.96068" lon="4.83044">
        <ele>243</ele>
        <time>2017-05-07T08:32:16Z</time>
      </trkpt>
      <trkpt lat="45.9607" lon="4.83052">
        <ele>243</ele>
        <time>2017-05-07T08:32:17Z</time>
      </trkpt>
      <trkpt lat="45.96072" lon="4.8306">
        <ele>242</ele>
        <time>2017-05-07T08:32:18Z</time>
      </trkpt>
      <trkpt lat="45.96074" lon="4.83067">
        <ele>242</ele>
        <time>2017-05-07T08:32:19Z</time>
      </trkpt>
      <trkpt lat="45.96077" lon="4.83073">
        <ele>241</ele>
        <time>2017-05-07T08:32:20Z</time>
      </trkpt>
      <trkpt lat="45.96079" lon="4.8308">
        <ele>241</ele>
        <time>2017-05-07T08:32:21Z</time>
      </trkpt>
      <trkpt lat="45.96081" lon="4.83087">
        <ele>241</ele>
        <time>2017-05-07T08:32:22Z</time>
      </trkpt>
      <trkpt lat="45.96083" lon="4.83095">
        <ele>241</ele>
        <time>2017-05-07T08:32:23Z</time>
      </trkpt>
      <trkpt lat="45.96083" lon="4.83103">
        <ele>242</ele>
        <time>2017-05-07T08:32:24Z</time>
      </trkpt>
      <trkpt lat="45.96084" lon="4.8311">
        <ele>240</ele>
        <time>2017-05-07T08:32:25Z</time>
      </trkpt>
      <trkpt lat="45.96085" lon="4.83117">
        <ele>240</ele>
        <time>2017-05-07T08:32:26Z</time>
      </trkpt>
      <trkpt lat="45.96085" lon="4.83125">
        <ele>240</ele>
        <time>2017-05-07T08:32:27Z</time>
      </trkpt>
      <trkpt lat="45.96085" lon="4.83132">
        <ele>240</ele>
        <time>2017-05-07T08:32:28Z</time>
      </trkpt>
      <trkpt lat="45.96086" lon="4.83139">
        <ele>240</ele>
        <time>2017-05-07T08:32:29Z</time>
      </trkpt>
      <trkpt lat="45.96086" lon="4.83147">
        <ele>240</ele>
        <time>2017-05-07T08:32:30Z</time>
      </trkpt>
      <trkpt lat="45.96087" lon="4.83154">
        <ele>240</ele>
        <time>2017-05-07T08:32:31Z</time>
      </trkpt>
      <trkpt lat="45.96087" lon="4.83162">
        <ele>240</ele>
        <time>2017-05-07T08:32:32Z</time>
      </trkpt>
      <trkpt lat="45.96087" lon="4.83171">
        <ele>240</ele>
        <time>2017-05-07T08:32:33Z</time>
      </trkpt>
      <trkpt lat="45.96087" lon="4.83179">
        <ele>240</ele>
        <time>2017-05-07T08:32:34Z</time>
      </trkpt>
      <trkpt lat="45.96087" lon="4.83188">
        <ele>240</ele>
        <time>2017-05-07T08:32:35Z</time>
      </trkpt>
      <trkpt lat="45.96087" lon="4.83196">
        <ele>240</ele>
        <time>2017-05-07T08:32:36Z</time>
      </trkpt>
      <trkpt lat="45.96087" lon="4.83205">
        <ele>240</ele>
        <time>2017-05-07T08:32:37Z</time>
      </trkpt>
      <trkpt lat="45.96088" lon="4.83212">
        <ele>240</ele>
        <time>2017-05-07T08:32:38Z</time>
      </trkpt>
      <trkpt lat="45.96088" lon="4.8322">
        <ele>240</ele>
        <time>2017-05-07T08:32:39Z</time>
      </trkpt>
      <trkpt lat="45.96089" lon="4.83226">
        <ele>240</ele>
        <time>2017-05-07T08:32:40Z</time>
      </trkpt>
      <trkpt lat="45.96088" lon="4.83233">
        <ele>240</ele>
        <time>2017-05-07T08:32:41Z</time>
      </trkpt>
      <trkpt lat="45.96088" lon="4.8324">
        <ele>240</ele>
        <time>2017-05-07T08:32:42Z</time>
      </trkpt>
      <trkpt lat="45.96088" lon="4.83247">
        <ele>240</ele>
        <time>2017-05-07T08:32:43Z</time>
      </trkpt>
      <trkpt lat="45.96088" lon="4.83254">
        <ele>240</ele>
        <time>2017-05-07T08:32:44Z</time>
      </trkpt>
      <trkpt lat="45.96087" lon="4.83261">
        <ele>241</ele>
        <time>2017-05-07T08:32:45Z</time>
      </trkpt>
      <trkpt lat="45.96087" lon="4.83267">
        <ele>241</ele>
        <time>2017-05-07T08:32:46Z</time>
      </trkpt>
      <trkpt lat="45.96086" lon="4.83274">
        <ele>241</ele>
        <time>2017-05-07T08:32:47Z</time>
      </trkpt>
      <trkpt lat="45.96087" lon="4.83282">
        <ele>241</ele>
        <time>2017-05-07T08:32:48Z</time>
      </trkpt>
      <trkpt lat="45.96087" lon="4.8329">
        <ele>241</ele>
        <time>2017-05-07T08:32:49Z</time>
      </trkpt>
      <trkpt lat="45.96087" lon="4.83298">
        <ele>241</ele>
        <time>2017-05-07T08:32:50Z</time>
      </trkpt>
      <trkpt lat="45.96088" lon="4.83306">
        <ele>241</ele>
        <time>2017-05-07T08:32:51Z</time>
      </trkpt>
      <trkpt lat="45.96089" lon="4.83313">
        <ele>241</ele>
        <time>2017-05-07T08:32:52Z</time>
      </trkpt>
      <trkpt lat="45.96091" lon="4.83321">
        <ele>241</ele>
        <time>2017-05-07T08:32:53Z</time>
      </trkpt>
      <trkpt lat="45.96092" lon="4.83329">
        <ele>241</ele>
        <time>2017-05-07T08:32:54Z</time>
      </trkpt>
      <trkpt lat="45.96094" lon="4.83336">
        <ele>242</ele>
        <time>2017-05-07T08:32:55Z</time>
      </trkpt>
      <trkpt lat="45.96095" lon="4.83342">
        <ele>242</ele>
        <time>2017-05-07T08:32:56Z</time>
      </trkpt>
      <trkpt lat="45.96097" lon="4.83354">
        <ele>242</ele>
        <time>2017-05-07T08:32:58Z</time>
      </trkpt>
      <trkpt lat="45.96098" lon="4.8336">
        <ele>242</ele>
        <time>2017-05-07T08:32:59Z</time>
      </trkpt>
      <trkpt lat="45.96101" lon="4.83372">
        <ele>242</ele>
        <time>2017-05-07T08:33:01Z</time>
      </trkpt>
      <trkpt lat="45.96102" lon="4.83378">
        <ele>242</ele>
        <time>2017-05-07T08:33:02Z</time>
      </trkpt>
      <trkpt lat="45.96103" lon="4.83385">
        <ele>242</ele>
        <time>2017-05-07T08:33:03Z</time>
      </trkpt>
      <trkpt lat="45.96105" lon="4.83391">
        <ele>243</ele>
        <time>2017-05-07T08:33:04Z</time>
      </trkpt>
      <trkpt lat="45.96107" lon="4.83398">
        <ele>243</ele>
        <time>2017-05-07T08:33:05Z</time>
      </trkpt>
      <trkpt lat="45.96108" lon="4.83405">
        <ele>243</ele>
        <time>2017-05-07T08:33:06Z</time>
      </trkpt>
      <trkpt lat="45.96109" lon="4.83412">
        <ele>243</ele>
        <time>2017-05-07T08:33:07Z</time>
      </trkpt>
      <trkpt lat="45.96111" lon="4.83419">
        <ele>243</ele>
        <time>2017-05-07T08:33:08Z</time>
      </trkpt>
      <trkpt lat="45.96112" lon="4.83426">
        <ele>243</ele>
        <time>2017-05-07T08:33:09Z</time>
      </trkpt>
      <trkpt lat="45.96114" lon="4.83433">
        <ele>243</ele>
        <time>2017-05-07T08:33:10Z</time>
      </trkpt>
      <trkpt lat="45.96116" lon="4.8344">
        <ele>242</ele>
        <time>2017-05-07T08:33:11Z</time>
      </trkpt>
      <trkpt lat="45.96118" lon="4.83447">
        <ele>242</ele>
        <time>2017-05-07T08:33:12Z</time>
      </trkpt>
      <trkpt lat="45.9612" lon="4.83459">
        <ele>242</ele>
        <time>2017-05-07T08:33:14Z</time>
      </trkpt>
      <trkpt lat="45.96122" lon="4.83464">
        <ele>242</ele>
        <time>2017-05-07T08:33:15Z</time>
      </trkpt>
      <trkpt lat="45.96124" lon="4.83475">
        <ele>242</ele>
        <time>2017-05-07T08:33:17Z</time>
      </trkpt>
      <trkpt lat="45.96126" lon="4.8348">
        <ele>242</ele>
        <time>2017-05-07T08:33:18Z</time>
      </trkpt>
      <trkpt lat="45.9613" lon="4.83488">
        <ele>242</ele>
        <time>2017-05-07T08:33:20Z</time>
      </trkpt>
      <trkpt lat="45.96131" lon="4.83494">
        <ele>242</ele>
        <time>2017-05-07T08:33:21Z</time>
      </trkpt>
      <trkpt lat="45.9613" lon="4.83506">
        <ele>242</ele>
        <time>2017-05-07T08:33:23Z</time>
      </trkpt>
      <trkpt lat="45.96131" lon="4.83511">
        <ele>242</ele>
        <time>2017-05-07T08:33:24Z</time>
      </trkpt>
      <trkpt lat="45.96133" lon="4.83522">
        <ele>242</ele>
        <time>2017-05-07T08:33:26Z</time>
      </trkpt>
      <trkpt lat="45.96133" lon="4.83526">
        <ele>242</ele>
        <time>2017-05-07T08:33:27Z</time>
      </trkpt>
      <trkpt lat="45.96136" lon="4.83537">
        <ele>242</ele>
        <time>2017-05-07T08:33:29Z</time>
      </trkpt>
      <trkpt lat="45.96137" lon="4.83542">
        <ele>242</ele>
        <time>2017-05-07T08:33:30Z</time>
      </trkpt>
      <trkpt lat="45.96139" lon="4.83552">
        <ele>242</ele>
        <time>2017-05-07T08:33:32Z</time>
      </trkpt>
      <trkpt lat="45.9614" lon="4.83557">
        <ele>242</ele>
        <time>2017-05-07T08:33:33Z</time>
      </trkpt>
      <trkpt lat="45.96144" lon="4.83568">
        <ele>241</ele>
        <time>2017-05-07T08:33:35Z</time>
      </trkpt>
      <trkpt lat="45.96145" lon="4.83573">
        <ele>241</ele>
        <time>2017-05-07T08:33:36Z</time>
      </trkpt>
      <trkpt lat="45.96148" lon="4.83584">
        <ele>242</ele>
        <time>2017-05-07T08:33:38Z</time>
      </trkpt>
      <trkpt lat="45.96149" lon="4.8359">
        <ele>242</ele>
        <time>2017-05-07T08:33:39Z</time>
      </trkpt>
      <trkpt lat="45.96151" lon="4.836">
        <ele>242</ele>
        <time>2017-05-07T08:33:41Z</time>
      </trkpt>
      <trkpt lat="45.96153" lon="4.83605">
        <ele>242</ele>
        <time>2017-05-07T08:33:42Z</time>
      </trkpt>
      <trkpt lat="45.96156" lon="4.83616">
        <ele>242</ele>
        <time>2017-05-07T08:33:44Z</time>
      </trkpt>
      <trkpt lat="45.96157" lon="4.83621">
        <ele>242</ele>
        <time>2017-05-07T08:33:45Z</time>
      </trkpt>
      <trkpt lat="45.9616" lon="4.83632">
        <ele>243</ele>
        <time>2017-05-07T08:33:47Z</time>
      </trkpt>
      <trkpt lat="45.96162" lon="4.83637">
        <ele>243</ele>
        <time>2017-05-07T08:33:48Z</time>
      </trkpt>
      <trkpt lat="45.96165" lon="4.83648">
        <ele>243</ele>
        <time>2017-05-07T08:33:50Z</time>
      </trkpt>
      <trkpt lat="45.96167" lon="4.83653">
        <ele>242</ele>
        <time>2017-05-07T08:33:51Z</time>
      </trkpt>
      <trkpt lat="45.96173" lon="4.83662">
        <ele>242</ele>
        <time>2017-05-07T08:33:53Z</time>
      </trkpt>
      <trkpt lat="45.96176" lon="4.83666">
        <ele>242</ele>
        <time>2017-05-07T08:33:54Z</time>
      </trkpt>
      <trkpt lat="45.96182" lon="4.83675">
        <ele>243</ele>
        <time>2017-05-07T08:33:56Z</time>
      </trkpt>
      <trkpt lat="45.96186" lon="4.83679">
        <ele>243</ele>
        <time>2017-05-07T08:33:57Z</time>
      </trkpt>
      <trkpt lat="45.96192" lon="4.83687">
        <ele>243</ele>
        <time>2017-05-07T08:33:59Z</time>
      </trkpt>
      <trkpt lat="45.96196" lon="4.83691">
        <ele>243</ele>
        <time>2017-05-07T08:34:00Z</time>
      </trkpt>
      <trkpt lat="45.96203" lon="4.83699">
        <ele>243</ele>
        <time>2017-05-07T08:34:02Z</time>
      </trkpt>
      <trkpt lat="45.96206" lon="4.83702">
        <ele>243</ele>
        <time>2017-05-07T08:34:03Z</time>
      </trkpt>
      <trkpt lat="45.9621" lon="4.83706">
        <ele>243</ele>
        <time>2017-05-07T08:34:04Z</time>
      </trkpt>
      <trkpt lat="45.96214" lon="4.83709">
        <ele>244</ele>
        <time>2017-05-07T08:34:05Z</time>
      </trkpt>
      <trkpt lat="45.96221" lon="4.83717">
        <ele>244</ele>
        <time>2017-05-07T08:34:07Z</time>
      </trkpt>
      <trkpt lat="45.96224" lon="4.83721">
        <ele>244</ele>
        <time>2017-05-07T08:34:08Z</time>
      </trkpt>
      <trkpt lat="45.96228" lon="4.83725">
        <ele>244</ele>
        <time>2017-05-07T08:34:09Z</time>
      </trkpt>
      <trkpt lat="45.96232" lon="4.83729">
        <ele>244</ele>
        <time>2017-05-07T08:34:10Z</time>
      </trkpt>
      <trkpt lat="45.96236" lon="4.83734">
        <ele>244</ele>
        <time>2017-05-07T08:34:11Z</time>
      </trkpt>
      <trkpt lat="45.96239" lon="4.83738">
        <ele>244</ele>
        <time>2017-05-07T08:34:12Z</time>
      </trkpt>
      <trkpt lat="45.96243" lon="4.83742">
        <ele>244</ele>
        <time>2017-05-07T08:34:13Z</time>
      </trkpt>
      <trkpt lat="45.96247" lon="4.83746">
        <ele>244</ele>
        <time>2017-05-07T08:34:14Z</time>
      </trkpt>
      <trkpt lat="45.96251" lon="4.83751">
        <ele>244</ele>
        <time>2017-05-07T08:34:15Z</time>
      </trkpt>
      <trkpt lat="45.96255" lon="4.83754">
        <ele>244</ele>
        <time>2017-05-07T08:34:16Z</time>
      </trkpt>
      <trkpt lat="45.96258" lon="4.83758">
        <ele>244</ele>
        <time>2017-05-07T08:34:17Z</time>
      </trkpt>
      <trkpt lat="45.96262" lon="4.83762">
        <ele>245</ele>
        <time>2017-05-07T08:34:18Z</time>
      </trkpt>
      <trkpt lat="45.96266" lon="4.83765">
        <ele>245</ele>
        <time>2017-05-07T08:34:19Z</time>
      </trkpt>
      <trkpt lat="45.9627" lon="4.83769">
        <ele>245</ele>
        <time>2017-05-07T08:34:20Z</time>
      </trkpt>
      <trkpt lat="45.96274" lon="4.83773">
        <ele>245</ele>
        <time>2017-05-07T08:34:21Z</time>
      </trkpt>
      <trkpt lat="45.96278" lon="4.83777">
        <ele>245</ele>
        <time>2017-05-07T08:34:22Z</time>
      </trkpt>
      <trkpt lat="45.96281" lon="4.8378">
        <ele>245</ele>
        <time>2017-05-07T08:34:23Z</time>
      </trkpt>
      <trkpt lat="45.96286" lon="4.83784">
        <ele>245</ele>
        <time>2017-05-07T08:34:24Z</time>
      </trkpt>
      <trkpt lat="45.9629" lon="4.83787">
        <ele>245</ele>
        <time>2017-05-07T08:34:25Z</time>
      </trkpt>
      <trkpt lat="45.96294" lon="4.8379">
        <ele>245</ele>
        <time>2017-05-07T08:34:26Z</time>
      </trkpt>
      <trkpt lat="45.96298" lon="4.83794">
        <ele>245</ele>
        <time>2017-05-07T08:34:27Z</time>
      </trkpt>
      <trkpt lat="45.96302" lon="4.83797">
        <ele>245</ele>
        <time>2017-05-07T08:34:28Z</time>
      </trkpt>
      <trkpt lat="45.96306" lon="4.83801">
        <ele>245</ele>
        <time>2017-05-07T08:34:29Z</time>
      </trkpt>
      <trkpt lat="45.96311" lon="4.83805">
        <ele>245</ele>
        <time>2017-05-07T08:34:30Z</time>
      </trkpt>
      <trkpt lat="45.96315" lon="4.83808">
        <ele>245</ele>
        <time>2017-05-07T08:34:31Z</time>
      </trkpt>
      <trkpt lat="45.96319" lon="4.83812">
        <ele>244</ele>
        <time>2017-05-07T08:34:32Z</time>
      </trkpt>
      <trkpt lat="45.96323" lon="4.83815">
        <ele>244</ele>
        <time>2017-05-07T08:34:33Z</time>
      </trkpt>
      <trkpt lat="45.96327" lon="4.83819">
        <ele>244</ele>
        <time>2017-05-07T08:34:34Z</time>
      </trkpt>
      <trkpt lat="45.96331" lon="4.83823">
        <ele>244</ele>
        <time>2017-05-07T08:34:35Z</time>
      </trkpt>
      <trkpt lat="45.96335" lon="4.83826">
        <ele>244</ele>
        <time>2017-05-07T08:34:36Z</time>
      </trkpt>
      <trkpt lat="45.96339" lon="4.8383">
        <ele>244</ele>
        <time>2017-05-07T08:34:37Z</time>
      </trkpt>
      <trkpt lat="45.96343" lon="4.83835">
        <ele>244</ele>
        <time>2017-05-07T08:34:38Z</time>
      </trkpt>
      <trkpt lat="45.96347" lon="4.83839">
        <ele>245</ele>
        <time>2017-05-07T08:34:39Z</time>
      </trkpt>
      <trkpt lat="45.96351" lon="4.83844">
        <ele>246</ele>
        <time>2017-05-07T08:34:40Z</time>
      </trkpt>
      <trkpt lat="45.96354" lon="4.83849">
        <ele>246</ele>
        <time>2017-05-07T08:34:41Z</time>
      </trkpt>
      <trkpt lat="45.96357" lon="4.83854">
        <ele>246</ele>
        <time>2017-05-07T08:34:42Z</time>
      </trkpt>
      <trkpt lat="45.9636" lon="4.83859">
        <ele>247</ele>
        <time>2017-05-07T08:34:43Z</time>
      </trkpt>
      <trkpt lat="45.96364" lon="4.83865">
        <ele>247</ele>
        <time>2017-05-07T08:34:44Z</time>
      </trkpt>
      <trkpt lat="45.96368" lon="4.83875">
        <ele>247</ele>
        <time>2017-05-07T08:34:46Z</time>
      </trkpt>
      <trkpt lat="45.96371" lon="4.8388">
        <ele>247</ele>
        <time>2017-05-07T08:34:47Z</time>
      </trkpt>
      <trkpt lat="45.96375" lon="4.8389">
        <ele>248</ele>
        <time>2017-05-07T08:34:49Z</time>
      </trkpt>
      <trkpt lat="45.96377" lon="4.83895">
        <ele>248</ele>
        <time>2017-05-07T08:34:50Z</time>
      </trkpt>
      <trkpt lat="45.9638" lon="4.83901">
        <ele>248</ele>
        <time>2017-05-07T08:34:51Z</time>
      </trkpt>
      <trkpt lat="45.96382" lon="4.83906">
        <ele>248</ele>
        <time>2017-05-07T08:34:52Z</time>
      </trkpt>
      <trkpt lat="45.96387" lon="4.83916">
        <ele>248</ele>
        <time>2017-05-07T08:34:54Z</time>
      </trkpt>
      <trkpt lat="45.96389" lon="4.83921">
        <ele>251</ele>
        <time>2017-05-07T08:34:55Z</time>
      </trkpt>
      <trkpt lat="45.96394" lon="4.83932">
        <ele>251</ele>
        <time>2017-05-07T08:34:57Z</time>
      </trkpt>
      <trkpt lat="45.96397" lon="4.83937">
        <ele>251</ele>
        <time>2017-05-07T08:34:58Z</time>
      </trkpt>
      <trkpt lat="45.964" lon="4.83942">
        <ele>251</ele>
        <time>2017-05-07T08:34:59Z</time>
      </trkpt>
      <trkpt lat="45.96403" lon="4.83947">
        <ele>252</ele>
        <time>2017-05-07T08:35:00Z</time>
      </trkpt>
      <trkpt lat="45.96407" lon="4.83956">
        <ele>252</ele>
        <time>2017-05-07T08:35:02Z</time>
      </trkpt>
      <trkpt lat="45.9641" lon="4.8396">
        <ele>252</ele>
        <time>2017-05-07T08:35:03Z</time>
      </trkpt>
      <trkpt lat="45.96414" lon="4.83969">
        <ele>253</ele>
        <time>2017-05-07T08:35:05Z</time>
      </trkpt>
      <trkpt lat="45.96416" lon="4.83973">
        <ele>253</ele>
        <time>2017-05-07T08:35:06Z</time>
      </trkpt>
      <trkpt lat="45.9642" lon="4.83981">
        <ele>251</ele>
        <time>2017-05-07T08:35:08Z</time>
      </trkpt>
      <trkpt lat="45.96422" lon="4.83984">
        <ele>251</ele>
        <time>2017-05-07T08:35:09Z</time>
      </trkpt>
      <trkpt lat="45.96426" lon="4.83991">
        <ele>251</ele>
        <time>2017-05-07T08:35:11Z</time>
      </trkpt>
      <trkpt lat="45.96428" lon="4.83996">
        <ele>251</ele>
        <time>2017-05-07T08:35:12Z</time>
      </trkpt>
      <trkpt lat="45.96431" lon="4.84004">
        <ele>252</ele>
        <time>2017-05-07T08:35:14Z</time>
      </trkpt>
      <trkpt lat="45.96433" lon="4.84008">
        <ele>252</ele>
        <time>2017-05-07T08:35:15Z</time>
      </trkpt>
      <trkpt lat="45.96437" lon="4.84017">
        <ele>251</ele>
        <time>2017-05-07T08:35:17Z</time>
      </trkpt>
      <trkpt lat="45.96439" lon="4.84021">
        <ele>251</ele>
        <time>2017-05-07T08:35:18Z</time>
      </trkpt>
      <trkpt lat="45.96439" lon="4.84033">
        <ele>251</ele>
        <time>2017-05-07T08:35:20Z</time>
      </trkpt>
      <trkpt lat="45.9644" lon="4.84037">
        <ele>251</ele>
        <time>2017-05-07T08:35:21Z</time>
      </trkpt>
      <trkpt lat="45.96443" lon="4.84048">
        <ele>251</ele>
        <time>2017-05-07T08:35:23Z</time>
      </trkpt>
      <trkpt lat="45.96444" lon="4.84053">
        <ele>251</ele>
        <time>2017-05-07T08:35:24Z</time>
      </trkpt>
      <trkpt lat="45.96447" lon="4.84062">
        <ele>251</ele>
        <time>2017-05-07T08:35:26Z</time>
      </trkpt>
      <trkpt lat="45.96448" lon="4.84067">
        <ele>251</ele>
        <time>2017-05-07T08:35:27Z</time>
      </trkpt>
      <trkpt lat="45.96452" lon="4.84076">
        <ele>251</ele>
        <time>2017-05-07T08:35:29Z</time>
      </trkpt>
      <trkpt lat="45.96453" lon="4.8408">
        <ele>251</ele>
        <time>2017-05-07T08:35:30Z</time>
      </trkpt>
      <trkpt lat="45.96457" lon="4.84089">
        <ele>252</ele>
        <time>2017-05-07T08:35:32Z</time>
      </trkpt>
      <trkpt lat="45.96458" lon="4.84093">
        <ele>252</ele>
        <time>2017-05-07T08:35:33Z</time>
      </trkpt>
      <trkpt lat="45.96461" lon="4.84102">
        <ele>252</ele>
        <time>2017-05-07T08:35:35Z</time>
      </trkpt>
      <trkpt lat="45.96463" lon="4.84107">
        <ele>251</ele>
        <time>2017-05-07T08:35:36Z</time>
      </trkpt>
      <trkpt lat="45.96466" lon="4.84115">
        <ele>251</ele>
        <time>2017-05-07T08:35:38Z</time>
      </trkpt>
      <trkpt lat="45.96467" lon="4.8412">
        <ele>251</ele>
        <time>2017-05-07T08:35:39Z</time>
      </trkpt>
      <trkpt lat="45.9647" lon="4.84128">
        <ele>251</ele>
        <time>2017-05-07T08:35:41Z</time>
      </trkpt>
      <trkpt lat="45.96471" lon="4.84132">
        <ele>251</ele>
        <time>2017-05-07T08:35:42Z</time>
      </trkpt>
      <trkpt lat="45.96474" lon="4.84141">
        <ele>251</ele>
        <time>2017-05-07T08:35:44Z</time>
      </trkpt>
      <trkpt lat="45.96475" lon="4.84145">
        <ele>251</ele>
        <time>2017-05-07T08:35:45Z</time>
      </trkpt>
      <trkpt lat="45.96477" lon="4.84155">
        <ele>251</ele>
        <time>2017-05-07T08:35:47Z</time>
      </trkpt>
      <trkpt lat="45.96478" lon="4.8416">
        <ele>251</ele>
        <time>2017-05-07T08:35:48Z</time>
      </trkpt>
      <trkpt lat="45.96481" lon="4.84169">
        <ele>251</ele>
        <time>2017-05-07T08:35:50Z</time>
      </trkpt>
      <trkpt lat="45.96482" lon="4.84174">
        <ele>251</ele>
        <time>2017-05-07T08:35:51Z</time>
      </trkpt>
      <trkpt lat="45.96483" lon="4.84182">
        <ele>251</ele>
        <time>2017-05-07T08:35:53Z</time>
      </trkpt>
      <trkpt lat="45.96484" lon="4.84187">
        <ele>251</ele>
        <time>2017-05-07T08:35:54Z</time>
      </trkpt>
      <trkpt lat="45.96487" lon="4.84196">
        <ele>251</ele>
        <time>2017-05-07T08:35:56Z</time>
      </trkpt>
      <trkpt lat="45.96488" lon="4.84201">
        <ele>251</ele>
        <time>2017-05-07T08:35:57Z</time>
      </trkpt>
      <trkpt lat="45.9649" lon="4.84211">
        <ele>252</ele>
        <time>2017-05-07T08:35:59Z</time>
      </trkpt>
      <trkpt lat="45.96491" lon="4.84217">
        <ele>252</ele>
        <time>2017-05-07T08:36:00Z</time>
      </trkpt>
      <trkpt lat="45.96493" lon="4.84223">
        <ele>252</ele>
        <time>2017-05-07T08:36:01Z</time>
      </trkpt>
      <trkpt lat="45.96494" lon="4.84229">
        <ele>252</ele>
        <time>2017-05-07T08:36:02Z</time>
      </trkpt>
      <trkpt lat="45.96496" lon="4.84236">
        <ele>251</ele>
        <time>2017-05-07T08:36:03Z</time>
      </trkpt>
      <trkpt lat="45.96497" lon="4.84243">
        <ele>251</ele>
        <time>2017-05-07T08:36:04Z</time>
      </trkpt>
      <trkpt lat="45.96499" lon="4.8425">
        <ele>251</ele>
        <time>2017-05-07T08:36:05Z</time>
      </trkpt>
      <trkpt lat="45.965" lon="4.84257">
        <ele>251</ele>
        <time>2017-05-07T08:36:06Z</time>
      </trkpt>
      <trkpt lat="45.96502" lon="4.84264">
        <ele>251</ele>
        <time>2017-05-07T08:36:07Z</time>
      </trkpt>
      <trkpt lat="45.96504" lon="4.84271">
        <ele>250</ele>
        <time>2017-05-07T08:36:08Z</time>
      </trkpt>
      <trkpt lat="45.96505" lon="4.84278">
        <ele>250</ele>
        <time>2017-05-07T08:36:09Z</time>
      </trkpt>
      <trkpt lat="45.96506" lon="4.84285">
        <ele>250</ele>
        <time>2017-05-07T08:36:10Z</time>
      </trkpt>
      <trkpt lat="45.96508" lon="4.84292">
        <ele>250</ele>
        <time>2017-05-07T08:36:11Z</time>
      </trkpt>
      <trkpt lat="45.9651" lon="4.84299">
        <ele>250</ele>
        <time>2017-05-07T08:36:12Z</time>
      </trkpt>
      <trkpt lat="45.96511" lon="4.84306">
        <ele>250</ele>
        <time>2017-05-07T08:36:13Z</time>
      </trkpt>
      <trkpt lat="45.96513" lon="4.84313">
        <ele>250</ele>
        <time>2017-05-07T08:36:14Z</time>
      </trkpt>
      <trkpt lat="45.96515" lon="4.8432">
        <ele>250</ele>
        <time>2017-05-07T08:36:15Z</time>
      </trkpt>
      <trkpt lat="45.96517" lon="4.84328">
        <ele>251</ele>
        <time>2017-05-07T08:36:16Z</time>
      </trkpt>
      <trkpt lat="45.96518" lon="4.84336">
        <ele>251</ele>
        <time>2017-05-07T08:36:17Z</time>
      </trkpt>
      <trkpt lat="45.9652" lon="4.84343">
        <ele>251</ele>
        <time>2017-05-07T08:36:18Z</time>
      </trkpt>
      <trkpt lat="45.96522" lon="4.84351">
        <ele>251</ele>
        <time>2017-05-07T08:36:19Z</time>
      </trkpt>
      <trkpt lat="45.96523" lon="4.84359">
        <ele>251</ele>
        <time>2017-05-07T08:36:20Z</time>
      </trkpt>
      <trkpt lat="45.96525" lon="4.84366">
        <ele>251</ele>
        <time>2017-05-07T08:36:21Z</time>
      </trkpt>
      <trkpt lat="45.96526" lon="4.84374">
        <ele>251</ele>
        <time>2017-05-07T08:36:22Z</time>
      </trkpt>
      <trkpt lat="45.96528" lon="4.84381">
        <ele>251</ele>
        <time>2017-05-07T08:36:23Z</time>
      </trkpt>
      <trkpt lat="45.96528" lon="4.84389">
        <ele>252</ele>
        <time>2017-05-07T08:36:24Z</time>
      </trkpt>
      <trkpt lat="45.96529" lon="4.84396">
        <ele>252</ele>
        <time>2017-05-07T08:36:25Z</time>
      </trkpt>
      <trkpt lat="45.96528" lon="4.84404">
        <ele>252</ele>
        <time>2017-05-07T08:36:26Z</time>
      </trkpt>
      <trkpt lat="45.96528" lon="4.8441">
        <ele>252</ele>
        <time>2017-05-07T08:36:27Z</time>
      </trkpt>
      <trkpt lat="45.96527" lon="4.84417">
        <ele>253</ele>
        <time>2017-05-07T08:36:28Z</time>
      </trkpt>
      <trkpt lat="45.96527" lon="4.84424">
        <ele>253</ele>
        <time>2017-05-07T08:36:29Z</time>
      </trkpt>
      <trkpt lat="45.96527" lon="4.84431">
        <ele>253</ele>
        <time>2017-05-07T08:36:30Z</time>
      </trkpt>
      <trkpt lat="45.96526" lon="4.84439">
        <ele>253</ele>
        <time>2017-05-07T08:36:31Z</time>
      </trkpt>
      <trkpt lat="45.96525" lon="4.84446">
        <ele>253</ele>
        <time>2017-05-07T08:36:32Z</time>
      </trkpt>
      <trkpt lat="45.96525" lon="4.84453">
        <ele>253</ele>
        <time>2017-05-07T08:36:33Z</time>
      </trkpt>
      <trkpt lat="45.96525" lon="4.84461">
        <ele>253</ele>
        <time>2017-05-07T08:36:34Z</time>
      </trkpt>
      <trkpt lat="45.96524" lon="4.84468">
        <ele>253</ele>
        <time>2017-05-07T08:36:35Z</time>
      </trkpt>
      <trkpt lat="45.96524" lon="4.84475">
        <ele>253</ele>
        <time>2017-05-07T08:36:36Z</time>
      </trkpt>
      <trkpt lat="45.96524" lon="4.84488">
        <ele>253</ele>
        <time>2017-05-07T08:36:38Z</time>
      </trkpt>
      <trkpt lat="45.96524" lon="4.84494">
        <ele>253</ele>
        <time>2017-05-07T08:36:39Z</time>
      </trkpt>
      <trkpt lat="45.96523" lon="4.84506">
        <ele>253</ele>
        <time>2017-05-07T08:36:41Z</time>
      </trkpt>
      <trkpt lat="45.96522" lon="4.84513">
        <ele>253</ele>
        <time>2017-05-07T08:36:42Z</time>
      </trkpt>
      <trkpt lat="45.96522" lon="4.8452">
        <ele>253</ele>
        <time>2017-05-07T08:36:43Z</time>
      </trkpt>
      <trkpt lat="45.96522" lon="4.84527">
        <ele>253</ele>
        <time>2017-05-07T08:36:44Z</time>
      </trkpt>
      <trkpt lat="45.96522" lon="4.84535">
        <ele>253</ele>
        <time>2017-05-07T08:36:45Z</time>
      </trkpt>
      <trkpt lat="45.96522" lon="4.84543">
        <ele>253</ele>
        <time>2017-05-07T08:36:46Z</time>
      </trkpt>
      <trkpt lat="45.96521" lon="4.8455">
        <ele>253</ele>
        <time>2017-05-07T08:36:47Z</time>
      </trkpt>
      <trkpt lat="45.96521" lon="4.84556">
        <ele>253</ele>
        <time>2017-05-07T08:36:48Z</time>
      </trkpt>
      <trkpt lat="45.96521" lon="4.84563">
        <ele>253</ele>
        <time>2017-05-07T08:36:49Z</time>
      </trkpt>
      <trkpt lat="45.96521" lon="4.84569">
        <ele>253</ele>
        <time>2017-05-07T08:36:50Z</time>
      </trkpt>
      <trkpt lat="45.96519" lon="4.84582">
        <ele>252</ele>
        <time>2017-05-07T08:36:52Z</time>
      </trkpt>
      <trkpt lat="45.96519" lon="4.84587">
        <ele>252</ele>
        <time>2017-05-07T08:36:53Z</time>
      </trkpt>
      <trkpt lat="45.96518" lon="4.846">
        <ele>252</ele>
        <time>2017-05-07T08:36:55Z</time>
      </trkpt>
      <trkpt lat="45.96517" lon="4.84607">
        <ele>252</ele>
        <time>2017-05-07T08:36:56Z</time>
      </trkpt>
      <trkpt lat="45.96516" lon="4.84614">
        <ele>252</ele>
        <time>2017-05-07T08:36:57Z</time>
      </trkpt>
      <trkpt lat="45.96515" lon="4.8462">
        <ele>252</ele>
        <time>2017-05-07T08:36:58Z</time>
      </trkpt>
      <trkpt lat="45.96515" lon="4.84627">
        <ele>252</ele>
        <time>2017-05-07T08:36:59Z</time>
      </trkpt>
      <trkpt lat="45.96515" lon="4.84634">
        <ele>252</ele>
        <time>2017-05-07T08:37:00Z</time>
      </trkpt>
      <trkpt lat="45.96515" lon="4.84641">
        <ele>252</ele>
        <time>2017-05-07T08:37:01Z</time>
      </trkpt>
      <trkpt lat="45.96516" lon="4.84649">
        <ele>252</ele>
        <time>2017-05-07T08:37:02Z</time>
      </trkpt>
      <trkpt lat="45.96516" lon="4.84656">
        <ele>252</ele>
        <time>2017-05-07T08:37:03Z</time>
      </trkpt>
      <trkpt lat="45.96517" lon="4.84663">
        <ele>252</ele>
        <time>2017-05-07T08:37:04Z</time>
      </trkpt>
      <trkpt lat="45.96519" lon="4.84675">
        <ele>252</ele>
        <time>2017-05-07T08:37:06Z</time>
      </trkpt>
      <trkpt lat="45.9652" lon="4.84681">
        <ele>252</ele>
        <time>2017-05-07T08:37:07Z</time>
      </trkpt>
      <trkpt lat="45.96523" lon="4.84692">
        <ele>252</ele>
        <time>2017-05-07T08:37:09Z</time>
      </trkpt>
      <trkpt lat="45.96524" lon="4.84697">
        <ele>253</ele>
        <time>2017-05-07T08:37:10Z</time>
      </trkpt>
      <trkpt lat="45.96525" lon="4.84708">
        <ele>253</ele>
        <time>2017-05-07T08:37:12Z</time>
      </trkpt>
      <trkpt lat="45.96526" lon="4.84714">
        <ele>253</ele>
        <time>2017-05-07T08:37:13Z</time>
      </trkpt>
      <trkpt lat="45.96525" lon="4.84726">
        <ele>253</ele>
        <time>2017-05-07T08:37:15Z</time>
      </trkpt>
      <trkpt lat="45.96525" lon="4.84732">
        <ele>253</ele>
        <time>2017-05-07T08:37:16Z</time>
      </trkpt>
      <trkpt lat="45.96523" lon="4.84744">
        <ele>252</ele>
        <time>2017-05-07T08:37:18Z</time>
      </trkpt>
      <trkpt lat="45.96522" lon="4.84749">
        <ele>252</ele>
        <time>2017-05-07T08:37:19Z</time>
      </trkpt>
      <trkpt lat="45.96519" lon="4.8476">
        <ele>253</ele>
        <time>2017-05-07T08:37:21Z</time>
      </trkpt>
      <trkpt lat="45.96518" lon="4.84765">
        <ele>253</ele>
        <time>2017-05-07T08:37:22Z</time>
      </trkpt>
      <trkpt lat="45.96515" lon="4.84775">
        <ele>253</ele>
        <time>2017-05-07T08:37:24Z</time>
      </trkpt>
      <trkpt lat="45.96514" lon="4.8478">
        <ele>253</ele>
        <time>2017-05-07T08:37:25Z</time>
      </trkpt>
      <trkpt lat="45.96511" lon="4.8479">
        <ele>254</ele>
        <time>2017-05-07T08:37:27Z</time>
      </trkpt>
      <trkpt lat="45.96511" lon="4.84796">
        <ele>254</ele>
        <time>2017-05-07T08:37:28Z</time>
      </trkpt>
      <trkpt lat="45.96509" lon="4.84807">
        <ele>254</ele>
        <time>2017-05-07T08:37:30Z</time>
      </trkpt>
      <trkpt lat="45.96507" lon="4.84813">
        <ele>254</ele>
        <time>2017-05-07T08:37:31Z</time>
      </trkpt>
      <trkpt lat="45.96505" lon="4.84823">
        <ele>254</ele>
        <time>2017-05-07T08:37:33Z</time>
      </trkpt>
      <trkpt lat="45.96504" lon="4.84829">
        <ele>253</ele>
        <time>2017-05-07T08:37:34Z</time>
      </trkpt>
      <trkpt lat="45.96501" lon="4.84839">
        <ele>254</ele>
        <time>2017-05-07T08:37:36Z</time>
      </trkpt>
      <trkpt lat="45.965" lon="4.84845">
        <ele>255</ele>
        <time>2017-05-07T08:37:37Z</time>
      </trkpt>
      <trkpt lat="45.96498" lon="4.84855">
        <ele>254</ele>
        <time>2017-05-07T08:37:39Z</time>
      </trkpt>
      <trkpt lat="45.96496" lon="4.84859">
        <ele>254</ele>
        <time>2017-05-07T08:37:40Z</time>
      </trkpt>
      <trkpt lat="45.96494" lon="4.84868">
        <ele>255</ele>
        <time>2017-05-07T08:37:42Z</time>
      </trkpt>
      <trkpt lat="45.96493" lon="4.84872">
        <ele>255</ele>
        <time>2017-05-07T08:37:43Z</time>
      </trkpt>
      <trkpt lat="45.96492" lon="4.8488">
        <ele>255</ele>
        <time>2017-05-07T08:37:45Z</time>
      </trkpt>
      <trkpt lat="45.96491" lon="4.84885">
        <ele>255</ele>
        <time>2017-05-07T08:37:46Z</time>
      </trkpt>
      <trkpt lat="45.96489" lon="4.84894">
        <ele>256</ele>
        <time>2017-05-07T08:37:48Z</time>
      </trkpt>
      <trkpt lat="45.96487" lon="4.84899">
        <ele>256</ele>
        <time>2017-05-07T08:37:49Z</time>
      </trkpt>
      <trkpt lat="45.96484" lon="4.84909">
        <ele>256</ele>
        <time>2017-05-07T08:37:51Z</time>
      </trkpt>
      <trkpt lat="45.96483" lon="4.84914">
        <ele>256</ele>
        <time>2017-05-07T08:37:52Z</time>
      </trkpt>
      <trkpt lat="45.96481" lon="4.84924">
        <ele>259</ele>
        <time>2017-05-07T08:37:54Z</time>
      </trkpt>
      <trkpt lat="45.9648" lon="4.84929">
        <ele>259</ele>
        <time>2017-05-07T08:37:55Z</time>
      </trkpt>
      <trkpt lat="45.96478" lon="4.8494">
        <ele>260</ele>
        <time>2017-05-07T08:37:57Z</time>
      </trkpt>
      <trkpt lat="45.96477" lon="4.84945">
        <ele>260</ele>
        <time>2017-05-07T08:37:58Z</time>
      </trkpt>
      <trkpt lat="45.96475" lon="4.84954">
        <ele>261</ele>
        <time>2017-05-07T08:38:00Z</time>
      </trkpt>
      <trkpt lat="45.96474" lon="4.84959">
        <ele>261</ele>
        <time>2017-05-07T08:38:01Z</time>
      </trkpt>
      <trkpt lat="45.96472" lon="4.84969">
        <ele>262</ele>
        <time>2017-05-07T08:38:03Z</time>
      </trkpt>
      <trkpt lat="45.96471" lon="4.84973">
        <ele>262</ele>
        <time>2017-05-07T08:38:04Z</time>
      </trkpt>
      <trkpt lat="45.96469" lon="4.84982">
        <ele>262</ele>
        <time>2017-05-07T08:38:06Z</time>
      </trkpt>
      <trkpt lat="45.96468" lon="4.84986">
        <ele>262</ele>
        <time>2017-05-07T08:38:07Z</time>
      </trkpt>
      <trkpt lat="45.96468" lon="4.84996">
        <ele>263</ele>
        <time>2017-05-07T08:38:09Z</time>
      </trkpt>
      <trkpt lat="45.96467" lon="4.85002">
        <ele>266</ele>
        <time>2017-05-07T08:38:10Z</time>
      </trkpt>
      <trkpt lat="45.96467" lon="4.85013">
        <ele>266</ele>
        <time>2017-05-07T08:38:12Z</time>
      </trkpt>
      <trkpt lat="45.96467" lon="4.85019">
        <ele>266</ele>
        <time>2017-05-07T08:38:13Z</time>
      </trkpt>
      <trkpt lat="45.96467" lon="4.85029">
        <ele>266</ele>
        <time>2017-05-07T08:38:15Z</time>
      </trkpt>
      <trkpt lat="45.96466" lon="4.85033">
        <ele>266</ele>
        <time>2017-05-07T08:38:16Z</time>
      </trkpt>
      <trkpt lat="45.96466" lon="4.85043">
        <ele>266</ele>
        <time>2017-05-07T08:38:18Z</time>
      </trkpt>
      <trkpt lat="45.96466" lon="4.85048">
        <ele>266</ele>
        <time>2017-05-07T08:38:19Z</time>
      </trkpt>
      <trkpt lat="45.96467" lon="4.85059">
        <ele>266</ele>
        <time>2017-05-07T08:38:21Z</time>
      </trkpt>
      <trkpt lat="45.96467" lon="4.85064">
        <ele>266</ele>
        <time>2017-05-07T08:38:22Z</time>
      </trkpt>
      <trkpt lat="45.96466" lon="4.85073">
        <ele>266</ele>
        <time>2017-05-07T08:38:24Z</time>
      </trkpt>
      <trkpt lat="45.96465" lon="4.85077">
        <ele>266</ele>
        <time>2017-05-07T08:38:25Z</time>
      </trkpt>
      <trkpt lat="45.96466" lon="4.8509">
        <ele>268</ele>
        <time>2017-05-07T08:38:28Z</time>
      </trkpt>
      <trkpt lat="45.96466" lon="4.85094">
        <ele>268</ele>
        <time>2017-05-07T08:38:29Z</time>
      </trkpt>
      <trkpt lat="45.96465" lon="4.85104">
        <ele>268</ele>
        <time>2017-05-07T08:38:31Z</time>
      </trkpt>
      <trkpt lat="45.96464" lon="4.85108">
        <ele>268</ele>
        <time>2017-05-07T08:38:32Z</time>
      </trkpt>
      <trkpt lat="45.96463" lon="4.85117">
        <ele>268</ele>
        <time>2017-05-07T08:38:34Z</time>
      </trkpt>
      <trkpt lat="45.96462" lon="4.85121">
        <ele>268</ele>
        <time>2017-05-07T08:38:35Z</time>
      </trkpt>
      <trkpt lat="45.9646" lon="4.85133">
        <ele>268</ele>
        <time>2017-05-07T08:38:38Z</time>
      </trkpt>
      <trkpt lat="45.9646" lon="4.85137">
        <ele>268</ele>
        <time>2017-05-07T08:38:39Z</time>
      </trkpt>
      <trkpt lat="45.96458" lon="4.85147">
        <ele>268</ele>
        <time>2017-05-07T08:38:41Z</time>
      </trkpt>
      <trkpt lat="45.96458" lon="4.85151">
        <ele>268</ele>
        <time>2017-05-07T08:38:42Z</time>
      </trkpt>
      <trkpt lat="45.96455" lon="4.8516">
        <ele>268</ele>
        <time>2017-05-07T08:38:44Z</time>
      </trkpt>
      <trkpt lat="45.96454" lon="4.85165">
        <ele>268</ele>
        <time>2017-05-07T08:38:45Z</time>
      </trkpt>
      <trkpt lat="45.96452" lon="4.85173">
        <ele>269</ele>
        <time>2017-05-07T08:38:47Z</time>
      </trkpt>
      <trkpt lat="45.96452" lon="4.85177">
        <ele>269</ele>
        <time>2017-05-07T08:38:48Z</time>
      </trkpt>
      <trkpt lat="45.9645" lon="4.85186">
        <ele>269</ele>
        <time>2017-05-07T08:38:50Z</time>
      </trkpt>
      <trkpt lat="45.96449" lon="4.8519">
        <ele>269</ele>
        <time>2017-05-07T08:38:51Z</time>
      </trkpt>
      <trkpt lat="45.96448" lon="4.85198">
        <ele>269</ele>
        <time>2017-05-07T08:38:53Z</time>
      </trkpt>
      <trkpt lat="45.96448" lon="4.85203">
        <ele>269</ele>
        <time>2017-05-07T08:38:54Z</time>
      </trkpt>
      <trkpt lat="45.96448" lon="4.85212">
        <ele>269</ele>
        <time>2017-05-07T08:38:56Z</time>
      </trkpt>
      <trkpt lat="45.96447" lon="4.85216">
        <ele>269</ele>
        <time>2017-05-07T08:38:57Z</time>
      </trkpt>
      <trkpt lat="45.96447" lon="4.85225">
        <ele>269</ele>
        <time>2017-05-07T08:38:59Z</time>
      </trkpt>
      <trkpt lat="45.96447" lon="4.8523">
        <ele>269</ele>
        <time>2017-05-07T08:39:00Z</time>
      </trkpt>
      <trkpt lat="45.96446" lon="4.85239">
        <ele>269</ele>
        <time>2017-05-07T08:39:02Z</time>
      </trkpt>
      <trkpt lat="45.96446" lon="4.85244">
        <ele>269</ele>
        <time>2017-05-07T08:39:03Z</time>
      </trkpt>
      <trkpt lat="45.96446" lon="4.85253">
        <ele>270</ele>
        <time>2017-05-07T08:39:05Z</time>
      </trkpt>
      <trkpt lat="45.96445" lon="4.85257">
        <ele>270</ele>
        <time>2017-05-07T08:39:06Z</time>
      </trkpt>
      <trkpt lat="45.96445" lon="4.85267">
        <ele>270</ele>
        <time>2017-05-07T08:39:08Z</time>
      </trkpt>
      <trkpt lat="45.96445" lon="4.85271">
        <ele>270</ele>
        <time>2017-05-07T08:39:09Z</time>
      </trkpt>
      <trkpt lat="45.96446" lon="4.8528">
        <ele>270</ele>
        <time>2017-05-07T08:39:11Z</time>
      </trkpt>
      <trkpt lat="45.96446" lon="4.85285">
        <ele>270</ele>
        <time>2017-05-07T08:39:12Z</time>
      </trkpt>
      <trkpt lat="45.96446" lon="4.85294">
        <ele>270</ele>
        <time>2017-05-07T08:39:14Z</time>
      </trkpt>
      <trkpt lat="45.96446" lon="4.85299">
        <ele>270</ele>
        <time>2017-05-07T08:39:15Z</time>
      </trkpt>
      <trkpt lat="45.96447" lon="4.85309">
        <ele>270</ele>
        <time>2017-05-07T08:39:17Z</time>
      </trkpt>
      <trkpt lat="45.96448" lon="4.85313">
        <ele>271</ele>
        <time>2017-05-07T08:39:18Z</time>
      </trkpt>
      <trkpt lat="45.96449" lon="4.85322">
        <ele>271</ele>
        <time>2017-05-07T08:39:20Z</time>
      </trkpt>
      <trkpt lat="45.96449" lon="4.85327">
        <ele>271</ele>
        <time>2017-05-07T08:39:21Z</time>
      </trkpt>
      <trkpt lat="45.9645" lon="4.85336">
        <ele>271</ele>
        <time>2017-05-07T08:39:23Z</time>
      </trkpt>
      <trkpt lat="45.9645" lon="4.8534">
        <ele>271</ele>
        <time>2017-05-07T08:39:24Z</time>
      </trkpt>
      <trkpt lat="45.96451" lon="4.8535">
        <ele>271</ele>
        <time>2017-05-07T08:39:26Z</time>
      </trkpt>
      <trkpt lat="45.96452" lon="4.85355">
        <ele>272</ele>
        <time>2017-05-07T08:39:27Z</time>
      </trkpt>
      <trkpt lat="45.96453" lon="4.85364">
        <ele>272</ele>
        <time>2017-05-07T08:39:29Z</time>
      </trkpt>
      <trkpt lat="45.96454" lon="4.8537">
        <ele>272</ele>
        <time>2017-05-07T08:39:30Z</time>
      </trkpt>
      <trkpt lat="45.96455" lon="4.8538">
        <ele>272</ele>
        <time>2017-05-07T08:39:32Z</time>
      </trkpt>
      <trkpt lat="45.96456" lon="4.85386">
        <ele>272</ele>
        <time>2017-05-07T08:39:33Z</time>
      </trkpt>
      <trkpt lat="45.96457" lon="4.85396">
        <ele>272</ele>
        <time>2017-05-07T08:39:35Z</time>
      </trkpt>
      <trkpt lat="45.96456" lon="4.85401">
        <ele>272</ele>
        <time>2017-05-07T08:39:36Z</time>
      </trkpt>
      <trkpt lat="45.96458" lon="4.85411">
        <ele>272</ele>
        <time>2017-05-07T08:39:38Z</time>
      </trkpt>
      <trkpt lat="45.96459" lon="4.85415">
        <ele>272</ele>
        <time>2017-05-07T08:39:39Z</time>
      </trkpt>
      <trkpt lat="45.9646" lon="4.85427">
        <ele>272</ele>
        <time>2017-05-07T08:39:41Z</time>
      </trkpt>
      <trkpt lat="45.9646" lon="4.85433">
        <ele>272</ele>
        <time>2017-05-07T08:39:42Z</time>
      </trkpt>
      <trkpt lat="45.96461" lon="4.8544">
        <ele>272</ele>
        <time>2017-05-07T08:39:43Z</time>
      </trkpt>
      <trkpt lat="45.96461" lon="4.85447">
        <ele>272</ele>
        <time>2017-05-07T08:39:44Z</time>
      </trkpt>
      <trkpt lat="45.96461" lon="4.85455">
        <ele>272</ele>
        <time>2017-05-07T08:39:45Z</time>
      </trkpt>
      <trkpt lat="45.96461" lon="4.85462">
        <ele>272</ele>
        <time>2017-05-07T08:39:46Z</time>
      </trkpt>
      <trkpt lat="45.96461" lon="4.85469">
        <ele>272</ele>
        <time>2017-05-07T08:39:47Z</time>
      </trkpt>
      <trkpt lat="45.96462" lon="4.85477">
        <ele>272</ele>
        <time>2017-05-07T08:39:48Z</time>
      </trkpt>
      <trkpt lat="45.96462" lon="4.85484">
        <ele>272</ele>
        <time>2017-05-07T08:39:49Z</time>
      </trkpt>
      <trkpt lat="45.96463" lon="4.8549">
        <ele>272</ele>
        <time>2017-05-07T08:39:50Z</time>
      </trkpt>
      <trkpt lat="45.96463" lon="4.85497">
        <ele>272</ele>
        <time>2017-05-07T08:39:51Z</time>
      </trkpt>
      <trkpt lat="45.96464" lon="4.85503">
        <ele>272</ele>
        <time>2017-05-07T08:39:52Z</time>
      </trkpt>
      <trkpt lat="45.96464" lon="4.85515">
        <ele>272</ele>
        <time>2017-05-07T08:39:54Z</time>
      </trkpt>
      <trkpt lat="45.96464" lon="4.8552">
        <ele>272</ele>
        <time>2017-05-07T08:39:55Z</time>
      </trkpt>
      <trkpt lat="45.96463" lon="4.8553">
        <ele>272</ele>
        <time>2017-05-07T08:39:57Z</time>
      </trkpt>
      <trkpt lat="45.96463" lon="4.85535">
        <ele>272</ele>
        <time>2017-05-07T08:39:58Z</time>
      </trkpt>
      <trkpt lat="45.96464" lon="4.85546">
        <ele>272</ele>
        <time>2017-05-07T08:40:00Z</time>
      </trkpt>
      <trkpt lat="45.96464" lon="4.8555">
        <ele>272</ele>
        <time>2017-05-07T08:40:01Z</time>
      </trkpt>
      <trkpt lat="45.96465" lon="4.85561">
        <ele>272</ele>
        <time>2017-05-07T08:40:03Z</time>
      </trkpt>
      <trkpt lat="45.96466" lon="4.85566">
        <ele>271</ele>
        <time>2017-05-07T08:40:04Z</time>
      </trkpt>
      <trkpt lat="45.96467" lon="4.85577">
        <ele>271</ele>
        <time>2017-05-07T08:40:06Z</time>
      </trkpt>
      <trkpt lat="45.96468" lon="4.85583">
        <ele>271</ele>
        <time>2017-05-07T08:40:07Z</time>
      </trkpt>
      <trkpt lat="45.96469" lon="4.85593">
        <ele>271</ele>
        <time>2017-05-07T08:40:09Z</time>
      </trkpt>
      <trkpt lat="45.9647" lon="4.85598">
        <ele>271</ele>
        <time>2017-05-07T08:40:10Z</time>
      </trkpt>
      <trkpt lat="45.96472" lon="4.85609">
        <ele>271</ele>
        <time>2017-05-07T08:40:12Z</time>
      </trkpt>
      <trkpt lat="45.96472" lon="4.85615">
        <ele>271</ele>
        <time>2017-05-07T08:40:13Z</time>
      </trkpt>
      <trkpt lat="45.96475" lon="4.85627">
        <ele>271</ele>
        <time>2017-05-07T08:40:15Z</time>
      </trkpt>
      <trkpt lat="45.96475" lon="4.85633">
        <ele>271</ele>
        <time>2017-05-07T08:40:16Z</time>
      </trkpt>
      <trkpt lat="45.96474" lon="4.8564">
        <ele>271</ele>
        <time>2017-05-07T08:40:17Z</time>
      </trkpt>
      <trkpt lat="45.96474" lon="4.85646">
        <ele>271</ele>
        <time>2017-05-07T08:40:18Z</time>
      </trkpt>
      <trkpt lat="45.96474" lon="4.85659">
        <ele>271</ele>
        <time>2017-05-07T08:40:20Z</time>
      </trkpt>
      <trkpt lat="45.96474" lon="4.85665">
        <ele>271</ele>
        <time>2017-05-07T08:40:21Z</time>
      </trkpt>
      <trkpt lat="45.96475" lon="4.85677">
        <ele>272</ele>
        <time>2017-05-07T08:40:23Z</time>
      </trkpt>
      <trkpt lat="45.96476" lon="4.85682">
        <ele>272</ele>
        <time>2017-05-07T08:40:24Z</time>
      </trkpt>
      <trkpt lat="45.96478" lon="4.85694">
        <ele>272</ele>
        <time>2017-05-07T08:40:26Z</time>
      </trkpt>
      <trkpt lat="45.96479" lon="4.857">
        <ele>272</ele>
        <time>2017-05-07T08:40:27Z</time>
      </trkpt>
      <trkpt lat="45.9648" lon="4.85711">
        <ele>272</ele>
        <time>2017-05-07T08:40:29Z</time>
      </trkpt>
      <trkpt lat="45.96481" lon="4.85716">
        <ele>272</ele>
        <time>2017-05-07T08:40:30Z</time>
      </trkpt>
      <trkpt lat="45.96483" lon="4.85726">
        <ele>273</ele>
        <time>2017-05-07T08:40:32Z</time>
      </trkpt>
      <trkpt lat="45.96484" lon="4.8573">
        <ele>273</ele>
        <time>2017-05-07T08:40:33Z</time>
      </trkpt>
      <trkpt lat="45.96485" lon="4.85739">
        <ele>273</ele>
        <time>2017-05-07T08:40:35Z</time>
      </trkpt>
      <trkpt lat="45.96486" lon="4.85744">
        <ele>273</ele>
        <time>2017-05-07T08:40:36Z</time>
      </trkpt>
      <trkpt lat="45.96488" lon="4.85753">
        <ele>274</ele>
        <time>2017-05-07T08:40:38Z</time>
      </trkpt>
      <trkpt lat="45.96488" lon="4.85758">
        <ele>274</ele>
        <time>2017-05-07T08:40:39Z</time>
      </trkpt>
      <trkpt lat="45.9649" lon="4.85768">
        <ele>274</ele>
        <time>2017-05-07T08:40:41Z</time>
      </trkpt>
      <trkpt lat="45.9649" lon="4.85773">
        <ele>274</ele>
        <time>2017-05-07T08:40:42Z</time>
      </trkpt>
      <trkpt lat="45.96492" lon="4.85783">
        <ele>274</ele>
        <time>2017-05-07T08:40:44Z</time>
      </trkpt>
      <trkpt lat="45.96493" lon="4.85789">
        <ele>274</ele>
        <time>2017-05-07T08:40:45Z</time>
      </trkpt>
      <trkpt lat="45.96493" lon="4.85799">
        <ele>274</ele>
        <time>2017-05-07T08:40:47Z</time>
      </trkpt>
      <trkpt lat="45.96494" lon="4.85804">
        <ele>274</ele>
        <time>2017-05-07T08:40:48Z</time>
      </trkpt>
      <trkpt lat="45.96494" lon="4.85814">
        <ele>274</ele>
        <time>2017-05-07T08:40:50Z</time>
      </trkpt>
      <trkpt lat="45.96495" lon="4.8582">
        <ele>274</ele>
        <time>2017-05-07T08:40:51Z</time>
      </trkpt>
      <trkpt lat="45.96496" lon="4.85832">
        <ele>275</ele>
        <time>2017-05-07T08:40:53Z</time>
      </trkpt>
      <trkpt lat="45.96497" lon="4.85839">
        <ele>275</ele>
        <time>2017-05-07T08:40:54Z</time>
      </trkpt>
      <trkpt lat="45.96498" lon="4.85851">
        <ele>274</ele>
        <time>2017-05-07T08:40:56Z</time>
      </trkpt>
      <trkpt lat="45.96499" lon="4.85856">
        <ele>274</ele>
        <time>2017-05-07T08:40:57Z</time>
      </trkpt>
      <trkpt lat="45.965" lon="4.85868">
        <ele>275</ele>
        <time>2017-05-07T08:40:59Z</time>
      </trkpt>
      <trkpt lat="45.96501" lon="4.85874">
        <ele>275</ele>
        <time>2017-05-07T08:41:00Z</time>
      </trkpt>
      <trkpt lat="45.96502" lon="4.85886">
        <ele>275</ele>
        <time>2017-05-07T08:41:02Z</time>
      </trkpt>
      <trkpt lat="45.96503" lon="4.85892">
        <ele>275</ele>
        <time>2017-05-07T08:41:03Z</time>
      </trkpt>
      <trkpt lat="45.96505" lon="4.85898">
        <ele>275</ele>
        <time>2017-05-07T08:41:04Z</time>
      </trkpt>
      <trkpt lat="45.96507" lon="4.85904">
        <ele>275</ele>
        <time>2017-05-07T08:41:05Z</time>
      </trkpt>
      <trkpt lat="45.9651" lon="4.85915">
        <ele>274</ele>
        <time>2017-05-07T08:41:07Z</time>
      </trkpt>
      <trkpt lat="45.96511" lon="4.85921">
        <ele>274</ele>
        <time>2017-05-07T08:41:08Z</time>
      </trkpt>
      <trkpt lat="45.96514" lon="4.85931">
        <ele>275</ele>
        <time>2017-05-07T08:41:10Z</time>
      </trkpt>
      <trkpt lat="45.96516" lon="4.85936">
        <ele>275</ele>
        <time>2017-05-07T08:41:11Z</time>
      </trkpt>
      <trkpt lat="45.96519" lon="4.85945">
        <ele>275</ele>
        <time>2017-05-07T08:41:13Z</time>
      </trkpt>
      <trkpt lat="45.96522" lon="4.8595">
        <ele>275</ele>
        <time>2017-05-07T08:41:14Z</time>
      </trkpt>
      <trkpt lat="45.96526" lon="4.85958">
        <ele>275</ele>
        <time>2017-05-07T08:41:16Z</time>
      </trkpt>
      <trkpt lat="45.96529" lon="4.85961">
        <ele>275</ele>
        <time>2017-05-07T08:41:17Z</time>
      </trkpt>
      <trkpt lat="45.96533" lon="4.85971">
        <ele>275</ele>
        <time>2017-05-07T08:41:19Z</time>
      </trkpt>
      <trkpt lat="45.96534" lon="4.85976">
        <ele>275</ele>
        <time>2017-05-07T08:41:20Z</time>
      </trkpt>
      <trkpt lat="45.96539" lon="4.85986">
        <ele>275</ele>
        <time>2017-05-07T08:41:22Z</time>
      </trkpt>
      <trkpt lat="45.96542" lon="4.85992">
        <ele>275</ele>
        <time>2017-05-07T08:41:23Z</time>
      </trkpt>
      <trkpt lat="45.96547" lon="4.86002">
        <ele>276</ele>
        <time>2017-05-07T08:41:25Z</time>
      </trkpt>
      <trkpt lat="45.9655" lon="4.86007">
        <ele>276</ele>
        <time>2017-05-07T08:41:26Z</time>
      </trkpt>
      <trkpt lat="45.96554" lon="4.86016">
        <ele>276</ele>
        <time>2017-05-07T08:41:28Z</time>
      </trkpt>
      <trkpt lat="45.96556" lon="4.8602">
        <ele>276</ele>
        <time>2017-05-07T08:41:29Z</time>
      </trkpt>
      <trkpt lat="45.96561" lon="4.86028">
        <ele>276</ele>
        <time>2017-05-07T08:41:31Z</time>
      </trkpt>
      <trkpt lat="45.96563" lon="4.86032">
        <ele>276</ele>
        <time>2017-05-07T08:41:32Z</time>
      </trkpt>
      <trkpt lat="45.96567" lon="4.8604">
        <ele>276</ele>
        <time>2017-05-07T08:41:34Z</time>
      </trkpt>
      <trkpt lat="45.96569" lon="4.86044">
        <ele>276</ele>
        <time>2017-05-07T08:41:35Z</time>
      </trkpt>
      <trkpt lat="45.96573" lon="4.86051">
        <ele>276</ele>
        <time>2017-05-07T08:41:37Z</time>
      </trkpt>
      <trkpt lat="45.96575" lon="4.86056">
        <ele>277</ele>
        <time>2017-05-07T08:41:38Z</time>
      </trkpt>
      <trkpt lat="45.96579" lon="4.86064">
        <ele>277</ele>
        <time>2017-05-07T08:41:40Z</time>
      </trkpt>
      <trkpt lat="45.96581" lon="4.86069">
        <ele>277</ele>
        <time>2017-05-07T08:41:41Z</time>
      </trkpt>
      <trkpt lat="45.96585" lon="4.86079">
        <ele>278</ele>
        <time>2017-05-07T08:41:43Z</time>
      </trkpt>
      <trkpt lat="45.96586" lon="4.86085">
        <ele>279</ele>
        <time>2017-05-07T08:41:44Z</time>
      </trkpt>
      <trkpt lat="45.96589" lon="4.86096">
        <ele>280</ele>
        <time>2017-05-07T08:41:46Z</time>
      </trkpt>
      <trkpt lat="45.9659" lon="4.86102">
        <ele>280</ele>
        <time>2017-05-07T08:41:47Z</time>
      </trkpt>
      <trkpt lat="45.96591" lon="4.86114">
        <ele>281</ele>
        <time>2017-05-07T08:41:49Z</time>
      </trkpt>
      <trkpt lat="45.96591" lon="4.8612">
        <ele>281</ele>
        <time>2017-05-07T08:41:50Z</time>
      </trkpt>
      <trkpt lat="45.9659" lon="4.86131">
        <ele>281</ele>
        <time>2017-05-07T08:41:52Z</time>
      </trkpt>
      <trkpt lat="45.9659" lon="4.86135">
        <ele>281</ele>
        <time>2017-05-07T08:41:53Z</time>
      </trkpt>
      <trkpt lat="45.9659" lon="4.86146">
        <ele>281</ele>
        <time>2017-05-07T08:41:55Z</time>
      </trkpt>
      <trkpt lat="45.9659" lon="4.86151">
        <ele>281</ele>
        <time>2017-05-07T08:41:56Z</time>
      </trkpt>
      <trkpt lat="45.96588" lon="4.86162">
        <ele>280</ele>
        <time>2017-05-07T08:41:58Z</time>
      </trkpt>
      <trkpt lat="45.96587" lon="4.86168">
        <ele>280</ele>
        <time>2017-05-07T08:41:59Z</time>
      </trkpt>
      <trkpt lat="45.96586" lon="4.86179">
        <ele>281</ele>
        <time>2017-05-07T08:42:01Z</time>
      </trkpt>
      <trkpt lat="45.96586" lon="4.86185">
        <ele>281</ele>
        <time>2017-05-07T08:42:02Z</time>
      </trkpt>
      <trkpt lat="45.96584" lon="4.86195">
        <ele>282</ele>
        <time>2017-05-07T08:42:04Z</time>
      </trkpt>
      <trkpt lat="45.96584" lon="4.862">
        <ele>282</ele>
        <time>2017-05-07T08:42:05Z</time>
      </trkpt>
      <trkpt lat="45.96583" lon="4.86211">
        <ele>280</ele>
        <time>2017-05-07T08:42:07Z</time>
      </trkpt>
      <trkpt lat="45.96583" lon="4.86217">
        <ele>280</ele>
        <time>2017-05-07T08:42:08Z</time>
      </trkpt>
      <trkpt lat="45.96582" lon="4.86228">
        <ele>280</ele>
        <time>2017-05-07T08:42:10Z</time>
      </trkpt>
      <trkpt lat="45.96581" lon="4.86233">
        <ele>280</ele>
        <time>2017-05-07T08:42:11Z</time>
      </trkpt>
      <trkpt lat="45.96581" lon="4.86244">
        <ele>281</ele>
        <time>2017-05-07T08:42:13Z</time>
      </trkpt>
      <trkpt lat="45.9658" lon="4.86249">
        <ele>281</ele>
        <time>2017-05-07T08:42:14Z</time>
      </trkpt>
      <trkpt lat="45.96579" lon="4.8626">
        <ele>281</ele>
        <time>2017-05-07T08:42:16Z</time>
      </trkpt>
      <trkpt lat="45.96579" lon="4.86265">
        <ele>281</ele>
        <time>2017-05-07T08:42:17Z</time>
      </trkpt>
      <trkpt lat="45.96578" lon="4.86276">
        <ele>282</ele>
        <time>2017-05-07T08:42:19Z</time>
      </trkpt>
      <trkpt lat="45.96577" lon="4.86281">
        <ele>282</ele>
        <time>2017-05-07T08:42:20Z</time>
      </trkpt>
      <trkpt lat="45.96576" lon="4.86292">
        <ele>282</ele>
        <time>2017-05-07T08:42:22Z</time>
      </trkpt>
      <trkpt lat="45.96576" lon="4.86297">
        <ele>282</ele>
        <time>2017-05-07T08:42:23Z</time>
      </trkpt>
      <trkpt lat="45.96576" lon="4.86307">
        <ele>283</ele>
        <time>2017-05-07T08:42:25Z</time>
      </trkpt>
      <trkpt lat="45.96576" lon="4.86312">
        <ele>283</ele>
        <time>2017-05-07T08:42:26Z</time>
      </trkpt>
      <trkpt lat="45.96575" lon="4.86321">
        <ele>284</ele>
        <time>2017-05-07T08:42:28Z</time>
      </trkpt>
      <trkpt lat="45.96575" lon="4.86325">
        <ele>284</ele>
        <time>2017-05-07T08:42:29Z</time>
      </trkpt>
      <trkpt lat="45.96574" lon="4.86338">
        <ele>285</ele>
        <time>2017-05-07T08:42:32Z</time>
      </trkpt>
      <trkpt lat="45.96573" lon="4.86341">
        <ele>285</ele>
        <time>2017-05-07T08:42:33Z</time>
      </trkpt>
      <trkpt lat="45.96573" lon="4.86353">
        <ele>285</ele>
        <time>2017-05-07T08:42:36Z</time>
      </trkpt>
      <trkpt lat="45.96573" lon="4.86357">
        <ele>285</ele>
        <time>2017-05-07T08:42:37Z</time>
      </trkpt>
      <trkpt lat="45.96572" lon="4.86366">
        <ele>286</ele>
        <time>2017-05-07T08:42:39Z</time>
      </trkpt>
      <trkpt lat="45.96572" lon="4.8637">
        <ele>286</ele>
        <time>2017-05-07T08:42:40Z</time>
      </trkpt>
      <trkpt lat="45.96572" lon="4.86383">
        <ele>286</ele>
        <time>2017-05-07T08:42:43Z</time>
      </trkpt>
      <trkpt lat="45.96572" lon="4.86387">
        <ele>287</ele>
        <time>2017-05-07T08:42:44Z</time>
      </trkpt>
      <trkpt lat="45.96572" lon="4.86396">
        <ele>287</ele>
        <time>2017-05-07T08:42:46Z</time>
      </trkpt>
      <trkpt lat="45.96572" lon="4.86401">
        <ele>287</ele>
        <time>2017-05-07T08:42:47Z</time>
      </trkpt>
      <trkpt lat="45.96572" lon="4.86413">
        <ele>288</ele>
        <time>2017-05-07T08:42:50Z</time>
      </trkpt>
      <trkpt lat="45.96572" lon="4.86416">
        <ele>288</ele>
        <time>2017-05-07T08:42:51Z</time>
      </trkpt>
      <trkpt lat="45.96573" lon="4.86428">
        <ele>289</ele>
        <time>2017-05-07T08:42:54Z</time>
      </trkpt>
      <trkpt lat="45.96574" lon="4.86431">
        <ele>289</ele>
        <time>2017-05-07T08:42:55Z</time>
      </trkpt>
      <trkpt lat="45.96575" lon="4.86442">
        <ele>289</ele>
        <time>2017-05-07T08:42:58Z</time>
      </trkpt>
      <trkpt lat="45.96576" lon="4.86446">
        <ele>289</ele>
        <time>2017-05-07T08:42:59Z</time>
      </trkpt>
      <trkpt lat="45.96576" lon="4.86459">
        <ele>289</ele>
        <time>2017-05-07T08:43:02Z</time>
      </trkpt>
      <trkpt lat="45.96576" lon="4.86463">
        <ele>289</ele>
        <time>2017-05-07T08:43:03Z</time>
      </trkpt>
      <trkpt lat="45.96578" lon="4.86472">
        <ele>289</ele>
        <time>2017-05-07T08:43:05Z</time>
      </trkpt>
      <trkpt lat="45.96579" lon="4.86477">
        <ele>290</ele>
        <time>2017-05-07T08:43:06Z</time>
      </trkpt>
      <trkpt lat="45.96579" lon="4.86488">
        <ele>290</ele>
        <time>2017-05-07T08:43:08Z</time>
      </trkpt>
      <trkpt lat="45.96581" lon="4.86492">
        <ele>291</ele>
        <time>2017-05-07T08:43:09Z</time>
      </trkpt>
      <trkpt lat="45.96584" lon="4.865">
        <ele>292</ele>
        <time>2017-05-07T08:43:11Z</time>
      </trkpt>
      <trkpt lat="45.96587" lon="4.86504">
        <ele>292</ele>
        <time>2017-05-07T08:43:12Z</time>
      </trkpt>
      <trkpt lat="45.96592" lon="4.86511">
        <ele>291</ele>
        <time>2017-05-07T08:43:14Z</time>
      </trkpt>
      <trkpt lat="45.96595" lon="4.86514">
        <ele>291</ele>
        <time>2017-05-07T08:43:15Z</time>
      </trkpt>
      <trkpt lat="45.96601" lon="4.8652">
        <ele>291</ele>
        <time>2017-05-07T08:43:17Z</time>
      </trkpt>
      <trkpt lat="45.96604" lon="4.86523">
        <ele>291</ele>
        <time>2017-05-07T08:43:18Z</time>
      </trkpt>
      <trkpt lat="45.9661" lon="4.86529">
        <ele>291</ele>
        <time>2017-05-07T08:43:20Z</time>
      </trkpt>
      <trkpt lat="45.96613" lon="4.86531">
        <ele>291</ele>
        <time>2017-05-07T08:43:21Z</time>
      </trkpt>
      <trkpt lat="45.96618" lon="4.86536">
        <ele>291</ele>
        <time>2017-05-07T08:43:23Z</time>
      </trkpt>
      <trkpt lat="45.96621" lon="4.86539">
        <ele>291</ele>
        <time>2017-05-07T08:43:24Z</time>
      </trkpt>
      <trkpt lat="45.96626" lon="4.86543">
        <ele>291</ele>
        <time>2017-05-07T08:43:26Z</time>
      </trkpt>
      <trkpt lat="45.96629" lon="4.86546">
        <ele>291</ele>
        <time>2017-05-07T08:43:27Z</time>
      </trkpt>
      <trkpt lat="45.96635" lon="4.86552">
        <ele>291</ele>
        <time>2017-05-07T08:43:29Z</time>
      </trkpt>
      <trkpt lat="45.96638" lon="4.86554">
        <ele>291</ele>
        <time>2017-05-07T08:43:30Z</time>
      </trkpt>
      <trkpt lat="45.96644" lon="4.8656">
        <ele>291</ele>
        <time>2017-05-07T08:43:32Z</time>
      </trkpt>
      <trkpt lat="45.96647" lon="4.86563">
        <ele>290</ele>
        <time>2017-05-07T08:43:33Z</time>
      </trkpt>
      <trkpt lat="45.96654" lon="4.8657">
        <ele>290</ele>
        <time>2017-05-07T08:43:35Z</time>
      </trkpt>
      <trkpt lat="45.96657" lon="4.86573">
        <ele>290</ele>
        <time>2017-05-07T08:43:36Z</time>
      </trkpt>
      <trkpt lat="45.96664" lon="4.8658">
        <ele>290</ele>
        <time>2017-05-07T08:43:38Z</time>
      </trkpt>
      <trkpt lat="45.96667" lon="4.86583">
        <ele>290</ele>
        <time>2017-05-07T08:43:39Z</time>
      </trkpt>
      <trkpt lat="45.96673" lon="4.8659">
        <ele>290</ele>
        <time>2017-05-07T08:43:41Z</time>
      </trkpt>
      <trkpt lat="45.96677" lon="4.86593">
        <ele>290</ele>
        <time>2017-05-07T08:43:42Z</time>
      </trkpt>
      <trkpt lat="45.96684" lon="4.86599">
        <ele>290</ele>
        <time>2017-05-07T08:43:44Z</time>
      </trkpt>
      <trkpt lat="45.96687" lon="4.86602">
        <ele>290</ele>
        <time>2017-05-07T08:43:45Z</time>
      </trkpt>
      <trkpt lat="45.96694" lon="4.86609">
        <ele>290</ele>
        <time>2017-05-07T08:43:47Z</time>
      </trkpt>
      <trkpt lat="45.96698" lon="4.86612">
        <ele>290</ele>
        <time>2017-05-07T08:43:48Z</time>
      </trkpt>
      <trkpt lat="45.96705" lon="4.86618">
        <ele>290</ele>
        <time>2017-05-07T08:43:50Z</time>
      </trkpt>
      <trkpt lat="45.96709" lon="4.8662">
        <ele>290</ele>
        <time>2017-05-07T08:43:51Z</time>
      </trkpt>
      <trkpt lat="45.96716" lon="4.86627">
        <ele>290</ele>
        <time>2017-05-07T08:43:53Z</time>
      </trkpt>
      <trkpt lat="45.9672" lon="4.86629">
        <ele>290</ele>
        <time>2017-05-07T08:43:54Z</time>
      </trkpt>
      <trkpt lat="45.96728" lon="4.86634">
        <ele>290</ele>
        <time>2017-05-07T08:43:56Z</time>
      </trkpt>
      <trkpt lat="45.96732" lon="4.86637">
        <ele>290</ele>
        <time>2017-05-07T08:43:57Z</time>
      </trkpt>
      <trkpt lat="45.96738" lon="4.86645">
        <ele>290</ele>
        <time>2017-05-07T08:43:59Z</time>
      </trkpt>
      <trkpt lat="45.9674" lon="4.86651">
        <ele>290</ele>
        <time>2017-05-07T08:44:00Z</time>
      </trkpt>
      <trkpt lat="45.96738" lon="4.86663">
        <ele>290</ele>
        <time>2017-05-07T08:44:02Z</time>
      </trkpt>
      <trkpt lat="45.96734" lon="4.86668">
        <ele>290</ele>
        <time>2017-05-07T08:44:03Z</time>
      </trkpt>
      <trkpt lat="45.96731" lon="4.86673">
        <ele>290</ele>
        <time>2017-05-07T08:44:04Z</time>
      </trkpt>
      <trkpt lat="45.96728" lon="4.86679">
        <ele>289</ele>
        <time>2017-05-07T08:44:05Z</time>
      </trkpt>
      <trkpt lat="45.96724" lon="4.86684">
        <ele>289</ele>
        <time>2017-05-07T08:44:06Z</time>
      </trkpt>
      <trkpt lat="45.96721" lon="4.86689">
        <ele>289</ele>
        <time>2017-05-07T08:44:07Z</time>
      </trkpt>
      <trkpt lat="45.96717" lon="4.86695">
        <ele>289</ele>
        <time>2017-05-07T08:44:08Z</time>
      </trkpt>
      <trkpt lat="45.96713" lon="4.86701">
        <ele>289</ele>
        <time>2017-05-07T08:44:09Z</time>
      </trkpt>
      <trkpt lat="45.9671" lon="4.86707">
        <ele>289</ele>
        <time>2017-05-07T08:44:10Z</time>
      </trkpt>
      <trkpt lat="45.96706" lon="4.86712">
        <ele>289</ele>
        <time>2017-05-07T08:44:11Z</time>
      </trkpt>
      <trkpt lat="45.96703" lon="4.86718">
        <ele>289</ele>
        <time>2017-05-07T08:44:12Z</time>
      </trkpt>
      <trkpt lat="45.96699" lon="4.86724">
        <ele>289</ele>
        <time>2017-05-07T08:44:13Z</time>
      </trkpt>
      <trkpt lat="45.96695" lon="4.8673">
        <ele>289</ele>
        <time>2017-05-07T08:44:14Z</time>
      </trkpt>
      <trkpt lat="45.96692" lon="4.86736">
        <ele>289</ele>
        <time>2017-05-07T08:44:15Z</time>
      </trkpt>
      <trkpt lat="45.96688" lon="4.86743">
        <ele>289</ele>
        <time>2017-05-07T08:44:16Z</time>
      </trkpt>
      <trkpt lat="45.96685" lon="4.86749">
        <ele>289</ele>
        <time>2017-05-07T08:44:17Z</time>
      </trkpt>
      <trkpt lat="45.96681" lon="4.86755">
        <ele>289</ele>
        <time>2017-05-07T08:44:18Z</time>
      </trkpt>
      <trkpt lat="45.96678" lon="4.86761">
        <ele>289</ele>
        <time>2017-05-07T08:44:19Z</time>
      </trkpt>
      <trkpt lat="45.96675" lon="4.86767">
        <ele>289</ele>
        <time>2017-05-07T08:44:20Z</time>
      </trkpt>
      <trkpt lat="45.96671" lon="4.86773">
        <ele>289</ele>
        <time>2017-05-07T08:44:21Z</time>
      </trkpt>
      <trkpt lat="45.96668" lon="4.86779">
        <ele>289</ele>
        <time>2017-05-07T08:44:22Z</time>
      </trkpt>
      <trkpt lat="45.96664" lon="4.86785">
        <ele>288</ele>
        <time>2017-05-07T08:44:23Z</time>
      </trkpt>
      <trkpt lat="45.96661" lon="4.86791">
        <ele>288</ele>
        <time>2017-05-07T08:44:24Z</time>
      </trkpt>
      <trkpt lat="45.96657" lon="4.86797">
        <ele>288</ele>
        <time>2017-05-07T08:44:25Z</time>
      </trkpt>
      <trkpt lat="45.96654" lon="4.86803">
        <ele>288</ele>
        <time>2017-05-07T08:44:26Z</time>
      </trkpt>
      <trkpt lat="45.9665" lon="4.86809">
        <ele>288</ele>
        <time>2017-05-07T08:44:27Z</time>
      </trkpt>
      <trkpt lat="45.96647" lon="4.86814">
        <ele>288</ele>
        <time>2017-05-07T08:44:28Z</time>
      </trkpt>
      <trkpt lat="45.96643" lon="4.8682">
        <ele>288</ele>
        <time>2017-05-07T08:44:29Z</time>
      </trkpt>
      <trkpt lat="45.9664" lon="4.86825">
        <ele>288</ele>
        <time>2017-05-07T08:44:30Z</time>
      </trkpt>
      <trkpt lat="45.96636" lon="4.86831">
        <ele>288</ele>
        <time>2017-05-07T08:44:31Z</time>
      </trkpt>
      <trkpt lat="45.96632" lon="4.86837">
        <ele>287</ele>
        <time>2017-05-07T08:44:32Z</time>
      </trkpt>
      <trkpt lat="45.96628" lon="4.86843">
        <ele>287</ele>
        <time>2017-05-07T08:44:33Z</time>
      </trkpt>
      <trkpt lat="45.96625" lon="4.86849">
        <ele>287</ele>
        <time>2017-05-07T08:44:34Z</time>
      </trkpt>
      <trkpt lat="45.96622" lon="4.86855">
        <ele>287</ele>
        <time>2017-05-07T08:44:35Z</time>
      </trkpt>
      <trkpt lat="45.96619" lon="4.86861">
        <ele>287</ele>
        <time>2017-05-07T08:44:36Z</time>
      </trkpt>
      <trkpt lat="45.96615" lon="4.86867">
        <ele>287</ele>
        <time>2017-05-07T08:44:37Z</time>
      </trkpt>
      <trkpt lat="45.96612" lon="4.86872">
        <ele>287</ele>
        <time>2017-05-07T08:44:38Z</time>
      </trkpt>
      <trkpt lat="45.96608" lon="4.86878">
        <ele>287</ele>
        <time>2017-05-07T08:44:39Z</time>
      </trkpt>
      <trkpt lat="45.96605" lon="4.86884">
        <ele>287</ele>
        <time>2017-05-07T08:44:40Z</time>
      </trkpt>
      <trkpt lat="45.96601" lon="4.86889">
        <ele>287</ele>
        <time>2017-05-07T08:44:41Z</time>
      </trkpt>
      <trkpt lat="45.96597" lon="4.86895">
        <ele>286</ele>
        <time>2017-05-07T08:44:42Z</time>
      </trkpt>
      <trkpt lat="45.96593" lon="4.869">
        <ele>286</ele>
        <time>2017-05-07T08:44:43Z</time>
      </trkpt>
      <trkpt lat="45.96589" lon="4.86905">
        <ele>286</ele>
        <time>2017-05-07T08:44:44Z</time>
      </trkpt>
      <trkpt lat="45.96585" lon="4.86911">
        <ele>285</ele>
        <time>2017-05-07T08:44:45Z</time>
      </trkpt>
      <trkpt lat="45.96581" lon="4.86917">
        <ele>285</ele>
        <time>2017-05-07T08:44:46Z</time>
      </trkpt>
      <trkpt lat="45.96578" lon="4.86924">
        <ele>284</ele>
        <time>2017-05-07T08:44:47Z</time>
      </trkpt>
      <trkpt lat="45.96574" lon="4.86931">
        <ele>284</ele>
        <time>2017-05-07T08:44:48Z</time>
      </trkpt>
      <trkpt lat="45.96571" lon="4.86938">
        <ele>284</ele>
        <time>2017-05-07T08:44:49Z</time>
      </trkpt>
      <trkpt lat="45.96567" lon="4.86944">
        <ele>284</ele>
        <time>2017-05-07T08:44:50Z</time>
      </trkpt>
      <trkpt lat="45.96563" lon="4.86951">
        <ele>283</ele>
        <time>2017-05-07T08:44:51Z</time>
      </trkpt>
      <trkpt lat="45.96559" lon="4.86958">
        <ele>283</ele>
        <time>2017-05-07T08:44:52Z</time>
      </trkpt>
      <trkpt lat="45.96555" lon="4.86964">
        <ele>283</ele>
        <time>2017-05-07T08:44:53Z</time>
      </trkpt>
      <trkpt lat="45.96552" lon="4.86969">
        <ele>283</ele>
        <time>2017-05-07T08:44:54Z</time>
      </trkpt>
      <trkpt lat="45.96549" lon="4.86974">
        <ele>283</ele>
        <time>2017-05-07T08:44:55Z</time>
      </trkpt>
      <trkpt lat="45.96544" lon="4.86982">
        <ele>283</ele>
        <time>2017-05-07T08:44:57Z</time>
      </trkpt>
      <trkpt lat="45.96543" lon="4.86985">
        <ele>283</ele>
        <time>2017-05-07T08:44:58Z</time>
      </trkpt>
      <trkpt lat="45.96538" lon="4.86995">
        <ele>283</ele>
        <time>2017-05-07T08:45:01Z</time>
      </trkpt>
      <trkpt lat="45.96538" lon="4.87">
        <ele>283</ele>
        <time>2017-05-07T08:45:02Z</time>
      </trkpt>
      <trkpt lat="45.96541" lon="4.87009">
        <ele>283</ele>
        <time>2017-05-07T08:45:04Z</time>
      </trkpt>
      <trkpt lat="45.96543" lon="4.87014">
        <ele>283</ele>
        <time>2017-05-07T08:45:05Z</time>
      </trkpt>
      <trkpt lat="45.96548" lon="4.87023">
        <ele>283</ele>
        <time>2017-05-07T08:45:07Z</time>
      </trkpt>
      <trkpt lat="45.9655" lon="4.87026">
        <ele>283</ele>
        <time>2017-05-07T08:45:08Z</time>
      </trkpt>
      <trkpt lat="45.96553" lon="4.87034">
        <ele>283</ele>
        <time>2017-05-07T08:45:10Z</time>
      </trkpt>
      <trkpt lat="45.96554" lon="4.87039">
        <ele>283</ele>
        <time>2017-05-07T08:45:11Z</time>
      </trkpt>
      <trkpt lat="45.96554" lon="4.87051">
        <ele>283</ele>
        <time>2017-05-07T08:45:13Z</time>
      </trkpt>
      <trkpt lat="45.96555" lon="4.87057">
        <ele>283</ele>
        <time>2017-05-07T08:45:14Z</time>
      </trkpt>
      <trkpt lat="45.96556" lon="4.87067">
        <ele>283</ele>
        <time>2017-05-07T08:45:16Z</time>
      </trkpt>
      <trkpt lat="45.96557" lon="4.8707">
        <ele>283</ele>
        <time>2017-05-07T08:45:17Z</time>
      </trkpt>
      <trkpt lat="45.96549" lon="4.87075">
        <ele>283</ele>
        <time>2017-05-07T08:45:24Z</time>
      </trkpt>
      <trkpt lat="45.96546" lon="4.87073">
        <ele>283</ele>
        <time>2017-05-07T08:45:25Z</time>
      </trkpt>
      <trkpt lat="45.96544" lon="4.87063">
        <ele>283</ele>
        <time>2017-05-07T08:45:28Z</time>
      </trkpt>
      <trkpt lat="45.96542" lon="4.87062">
        <ele>283</ele>
        <time>2017-05-07T08:45:29Z</time>
      </trkpt>
      <trkpt lat="45.96536" lon="4.87065">
        <ele>283</ele>
        <time>2017-05-07T08:45:32Z</time>
      </trkpt>
      <trkpt lat="45.96534" lon="4.87067">
        <ele>283</ele>
        <time>2017-05-07T08:45:33Z</time>
      </trkpt>
      <trkpt lat="45.96526" lon="4.87068">
        <ele>283</ele>
        <time>2017-05-07T08:45:35Z</time>
      </trkpt>
      <trkpt lat="45.96522" lon="4.87066">
        <ele>283</ele>
        <time>2017-05-07T08:45:36Z</time>
      </trkpt>
      <trkpt lat="45.96516" lon="4.87059">
        <ele>283</ele>
        <time>2017-05-07T08:45:38Z</time>
      </trkpt>
      <trkpt lat="45.96514" lon="4.87055">
        <ele>283</ele>
        <time>2017-05-07T08:45:39Z</time>
      </trkpt>
      <trkpt lat="45.96514" lon="4.87044">
        <ele>283</ele>
        <time>2017-05-07T08:45:46Z</time>
      </trkpt>
      <trkpt lat="45.96516" lon="4.87042">
        <ele>283</ele>
        <time>2017-05-07T08:45:47Z</time>
      </trkpt>
      <trkpt lat="45.96519" lon="4.87035">
        <ele>283</ele>
        <time>2017-05-07T08:45:49Z</time>
      </trkpt>
      <trkpt lat="45.96521" lon="4.87031">
        <ele>283</ele>
        <time>2017-05-07T08:45:50Z</time>
      </trkpt>
      <trkpt lat="45.96526" lon="4.87024">
        <ele>283</ele>
        <time>2017-05-07T08:45:52Z</time>
      </trkpt>
      <trkpt lat="45.96528" lon="4.87021">
        <ele>283</ele>
        <time>2017-05-07T08:45:53Z</time>
      </trkpt>
      <trkpt lat="45.96534" lon="4.87012">
        <ele>283</ele>
        <time>2017-05-07T08:45:56Z</time>
      </trkpt>
      <trkpt lat="45.96536" lon="4.87009">
        <ele>283</ele>
        <time>2017-05-07T08:45:57Z</time>
      </trkpt>
      <trkpt lat="45.96541" lon="4.87001">
        <ele>283</ele>
        <time>2017-05-07T08:45:59Z</time>
      </trkpt>
      <trkpt lat="45.96542" lon="4.86996">
        <ele>283</ele>
        <time>2017-05-07T08:46:00Z</time>
      </trkpt>
      <trkpt lat="45.96546" lon="4.86988">
        <ele>283</ele>
        <time>2017-05-07T08:46:02Z</time>
      </trkpt>
      <trkpt lat="45.96548" lon="4.86984">
        <ele>283</ele>
        <time>2017-05-07T08:46:03Z</time>
      </trkpt>
      <trkpt lat="45.96553" lon="4.86976">
        <ele>283</ele>
        <time>2017-05-07T08:46:05Z</time>
      </trkpt>
      <trkpt lat="45.96555" lon="4.86972">
        <ele>283</ele>
        <time>2017-05-07T08:46:06Z</time>
      </trkpt>
      <trkpt lat="45.96561" lon="4.86965">
        <ele>283</ele>
        <time>2017-05-07T08:46:08Z</time>
      </trkpt>
      <trkpt lat="45.96564" lon="4.86961">
        <ele>283</ele>
        <time>2017-05-07T08:46:09Z</time>
      </trkpt>
      <trkpt lat="45.96569" lon="4.86952">
        <ele>284</ele>
        <time>2017-05-07T08:46:11Z</time>
      </trkpt>
      <trkpt lat="45.96572" lon="4.86948">
        <ele>284</ele>
        <time>2017-05-07T08:46:12Z</time>
      </trkpt>
      <trkpt lat="45.96576" lon="4.86938">
        <ele>284</ele>
        <time>2017-05-07T08:46:14Z</time>
      </trkpt>
      <trkpt lat="45.96578" lon="4.86934">
        <ele>284</ele>
        <time>2017-05-07T08:46:15Z</time>
      </trkpt>
      <trkpt lat="45.96583" lon="4.86927">
        <ele>284</ele>
        <time>2017-05-07T08:46:17Z</time>
      </trkpt>
      <trkpt lat="45.96586" lon="4.86922">
        <ele>285</ele>
        <time>2017-05-07T08:46:18Z</time>
      </trkpt>
      <trkpt lat="45.96589" lon="4.86917">
        <ele>285</ele>
        <time>2017-05-07T08:46:19Z</time>
      </trkpt>
      <trkpt lat="45.96591" lon="4.86912">
        <ele>286</ele>
        <time>2017-05-07T08:46:20Z</time>
      </trkpt>
      <trkpt lat="45.96594" lon="4.86906">
        <ele>286</ele>
        <time>2017-05-07T08:46:21Z</time>
      </trkpt>
      <trkpt lat="45.96597" lon="4.86902">
        <ele>286</ele>
        <time>2017-05-07T08:46:22Z</time>
      </trkpt>
      <trkpt lat="45.96602" lon="4.86894">
        <ele>286</ele>
        <time>2017-05-07T08:46:24Z</time>
      </trkpt>
      <trkpt lat="45.96604" lon="4.8689">
        <ele>287</ele>
        <time>2017-05-07T08:46:25Z</time>
      </trkpt>
      <trkpt lat="45.96607" lon="4.86883">
        <ele>287</ele>
        <time>2017-05-07T08:46:27Z</time>
      </trkpt>
      <trkpt lat="45.9661" lon="4.86879">
        <ele>287</ele>
        <time>2017-05-07T08:46:28Z</time>
      </trkpt>
      <trkpt lat="45.96614" lon="4.86871">
        <ele>287</ele>
        <time>2017-05-07T08:46:30Z</time>
      </trkpt>
      <trkpt lat="45.96617" lon="4.86868">
        <ele>287</ele>
        <time>2017-05-07T08:46:31Z</time>
      </trkpt>
      <trkpt lat="45.96622" lon="4.8686">
        <ele>287</ele>
        <time>2017-05-07T08:46:33Z</time>
      </trkpt>
      <trkpt lat="45.96624" lon="4.86855">
        <ele>287</ele>
        <time>2017-05-07T08:46:34Z</time>
      </trkpt>
      <trkpt lat="45.96628" lon="4.86847">
        <ele>287</ele>
        <time>2017-05-07T08:46:36Z</time>
      </trkpt>
      <trkpt lat="45.96631" lon="4.86843">
        <ele>287</ele>
        <time>2017-05-07T08:46:37Z</time>
      </trkpt>
      <trkpt lat="45.96636" lon="4.86835">
        <ele>287</ele>
        <time>2017-05-07T08:46:39Z</time>
      </trkpt>
      <trkpt lat="45.96638" lon="4.86831">
        <ele>288</ele>
        <time>2017-05-07T08:46:40Z</time>
      </trkpt>
      <trkpt lat="45.96643" lon="4.86823">
        <ele>288</ele>
        <time>2017-05-07T08:46:42Z</time>
      </trkpt>
      <trkpt lat="45.96646" lon="4.86819">
        <ele>288</ele>
        <time>2017-05-07T08:46:43Z</time>
      </trkpt>
      <trkpt lat="45.96651" lon="4.8681">
        <ele>288</ele>
        <time>2017-05-07T08:46:45Z</time>
      </trkpt>
      <trkpt lat="45.96654" lon="4.86806">
        <ele>288</ele>
        <time>2017-05-07T08:46:46Z</time>
      </trkpt>
      <trkpt lat="45.96657" lon="4.86801">
        <ele>288</ele>
        <time>2017-05-07T08:46:47Z</time>
      </trkpt>
      <trkpt lat="45.96661" lon="4.86796">
        <ele>288</ele>
        <time>2017-05-07T08:46:48Z</time>
      </trkpt>
      <trkpt lat="45.96666" lon="4.86787">
        <ele>288</ele>
        <time>2017-05-07T08:46:50Z</time>
      </trkpt>
      <trkpt lat="45.96669" lon="4.86782">
        <ele>289</ele>
        <time>2017-05-07T08:46:51Z</time>
      </trkpt>
      <trkpt lat="45.96675" lon="4.86774">
        <ele>289</ele>
        <time>2017-05-07T08:46:53Z</time>
      </trkpt>
      <trkpt lat="45.96677" lon="4.8677">
        <ele>289</ele>
        <time>2017-05-07T08:46:54Z</time>
      </trkpt>
      <trkpt lat="45.96682" lon="4.8676">
        <ele>289</ele>
        <time>2017-05-07T08:46:56Z</time>
      </trkpt>
      <trkpt lat="45.96685" lon="4.86754">
        <ele>289</ele>
        <time>2017-05-07T08:46:57Z</time>
      </trkpt>
      <trkpt lat="45.96688" lon="4.86749">
        <ele>289</ele>
        <time>2017-05-07T08:46:58Z</time>
      </trkpt>
      <trkpt lat="45.96692" lon="4.86744">
        <ele>289</ele>
        <time>2017-05-07T08:46:59Z</time>
      </trkpt>
      <trkpt lat="45.96695" lon="4.86738">
        <ele>289</ele>
        <time>2017-05-07T08:47:00Z</time>
      </trkpt>
      <trkpt lat="45.96698" lon="4.86732">
        <ele>289</ele>
        <time>2017-05-07T08:47:01Z</time>
      </trkpt>
      <trkpt lat="45.96702" lon="4.86727">
        <ele>289</ele>
        <time>2017-05-07T08:47:02Z</time>
      </trkpt>
      <trkpt lat="45.96705" lon="4.86722">
        <ele>289</ele>
        <time>2017-05-07T08:47:03Z</time>
      </trkpt>
      <trkpt lat="45.9671" lon="4.86714">
        <ele>289</ele>
        <time>2017-05-07T08:47:05Z</time>
      </trkpt>
      <trkpt lat="45.96713" lon="4.86709">
        <ele>289</ele>
        <time>2017-05-07T08:47:06Z</time>
      </trkpt>
      <trkpt lat="45.96717" lon="4.86701">
        <ele>289</ele>
        <time>2017-05-07T08:47:08Z</time>
      </trkpt>
      <trkpt lat="45.9672" lon="4.86697">
        <ele>289</ele>
        <time>2017-05-07T08:47:09Z</time>
      </trkpt>
      <trkpt lat="45.96724" lon="4.86689">
        <ele>289</ele>
        <time>2017-05-07T08:47:11Z</time>
      </trkpt>
      <trkpt lat="45.96727" lon="4.86685">
        <ele>289</ele>
        <time>2017-05-07T08:47:12Z</time>
      </trkpt>
      <trkpt lat="45.96732" lon="4.86677">
        <ele>290</ele>
        <time>2017-05-07T08:47:14Z</time>
      </trkpt>
      <trkpt lat="45.96734" lon="4.86672">
        <ele>290</ele>
        <time>2017-05-07T08:47:15Z</time>
      </trkpt>
      <trkpt lat="45.9674" lon="4.86665">
        <ele>290</ele>
        <time>2017-05-07T08:47:17Z</time>
      </trkpt>
      <trkpt lat="45.96744" lon="4.86663">
        <ele>290</ele>
        <time>2017-05-07T08:47:18Z</time>
      </trkpt>
      <trkpt lat="45.96751" lon="4.86665">
        <ele>290</ele>
        <time>2017-05-07T08:47:20Z</time>
      </trkpt>
      <trkpt lat="45.96755" lon="4.86668">
        <ele>290</ele>
        <time>2017-05-07T08:47:21Z</time>
      </trkpt>
      <trkpt lat="45.96762" lon="4.86675">
        <ele>290</ele>
        <time>2017-05-07T08:47:23Z</time>
      </trkpt>
      <trkpt lat="45.96765" lon="4.86678">
        <ele>290</ele>
        <time>2017-05-07T08:47:24Z</time>
      </trkpt>
      <trkpt lat="45.96773" lon="4.86684">
        <ele>289</ele>
        <time>2017-05-07T08:47:26Z</time>
      </trkpt>
      <trkpt lat="45.96777" lon="4.86688">
        <ele>289</ele>
        <time>2017-05-07T08:47:27Z</time>
      </trkpt>
      <trkpt lat="45.96784" lon="4.86694">
        <ele>289</ele>
        <time>2017-05-07T08:47:29Z</time>
      </trkpt>
      <trkpt lat="45.96788" lon="4.86698">
        <ele>289</ele>
        <time>2017-05-07T08:47:30Z</time>
      </trkpt>
      <trkpt lat="45.96792" lon="4.86701">
        <ele>289</ele>
        <time>2017-05-07T08:47:31Z</time>
      </trkpt>
      <trkpt lat="45.96795" lon="4.86705">
        <ele>289</ele>
        <time>2017-05-07T08:47:32Z</time>
      </trkpt>
      <trkpt lat="45.96803" lon="4.86711">
        <ele>289</ele>
        <time>2017-05-07T08:47:34Z</time>
      </trkpt>
      <trkpt lat="45.96806" lon="4.86715">
        <ele>289</ele>
        <time>2017-05-07T08:47:35Z</time>
      </trkpt>
      <trkpt lat="45.96814" lon="4.86721">
        <ele>289</ele>
        <time>2017-05-07T08:47:37Z</time>
      </trkpt>
      <trkpt lat="45.96817" lon="4.86725">
        <ele>289</ele>
        <time>2017-05-07T08:47:38Z</time>
      </trkpt>
      <trkpt lat="45.96825" lon="4.86732">
        <ele>289</ele>
        <time>2017-05-07T08:47:40Z</time>
      </trkpt>
      <trkpt lat="45.96829" lon="4.86735">
        <ele>289</ele>
        <time>2017-05-07T08:47:41Z</time>
      </trkpt>
      <trkpt lat="45.96833" lon="4.86739">
        <ele>289</ele>
        <time>2017-05-07T08:47:42Z</time>
      </trkpt>
      <trkpt lat="45.96838" lon="4.86743">
        <ele>289</ele>
        <time>2017-05-07T08:47:43Z</time>
      </trkpt>
      <trkpt lat="45.96842" lon="4.86747">
        <ele>289</ele>
        <time>2017-05-07T08:47:44Z</time>
      </trkpt>
      <trkpt lat="45.96847" lon="4.86751">
        <ele>289</ele>
        <time>2017-05-07T08:47:45Z</time>
      </trkpt>
      <trkpt lat="45.96852" lon="4.86756">
        <ele>289</ele>
        <time>2017-05-07T08:47:46Z</time>
      </trkpt>
      <trkpt lat="45.96857" lon="4.8676">
        <ele>289</ele>
        <time>2017-05-07T08:47:47Z</time>
      </trkpt>
      <trkpt lat="45.96862" lon="4.86764">
        <ele>289</ele>
        <time>2017-05-07T08:47:48Z</time>
      </trkpt>
      <trkpt lat="45.96866" lon="4.86769">
        <ele>289</ele>
        <time>2017-05-07T08:47:49Z</time>
      </trkpt>
      <trkpt lat="45.96871" lon="4.86774">
        <ele>289</ele>
        <time>2017-05-07T08:47:50Z</time>
      </trkpt>
      <trkpt lat="45.96876" lon="4.86779">
        <ele>289</ele>
        <time>2017-05-07T08:47:51Z</time>
      </trkpt>
      <trkpt lat="45.96881" lon="4.86784">
        <ele>289</ele>
        <time>2017-05-07T08:47:52Z</time>
      </trkpt>
      <trkpt lat="45.96886" lon="4.86788">
        <ele>289</ele>
        <time>2017-05-07T08:47:53Z</time>
      </trkpt>
      <trkpt lat="45.9689" lon="4.86793">
        <ele>289</ele>
        <time>2017-05-07T08:47:54Z</time>
      </trkpt>
      <trkpt lat="45.96895" lon="4.86797">
        <ele>289</ele>
        <time>2017-05-07T08:47:55Z</time>
      </trkpt>
      <trkpt lat="45.96901" lon="4.86802">
        <ele>289</ele>
        <time>2017-05-07T08:47:56Z</time>
      </trkpt>
      <trkpt lat="45.96906" lon="4.86806">
        <ele>288</ele>
        <time>2017-05-07T08:47:57Z</time>
      </trkpt>
      <trkpt lat="45.96912" lon="4.8681">
        <ele>288</ele>
        <time>2017-05-07T08:47:58Z</time>
      </trkpt>
      <trkpt lat="45.96917" lon="4.86814">
        <ele>287</ele>
        <time>2017-05-07T08:47:59Z</time>
      </trkpt>
      <trkpt lat="45.96923" lon="4.86819">
        <ele>287</ele>
        <time>2017-05-07T08:48:00Z</time>
      </trkpt>
      <trkpt lat="45.96928" lon="4.86823">
        <ele>287</ele>
        <time>2017-05-07T08:48:01Z</time>
      </trkpt>
      <trkpt lat="45.96934" lon="4.86827">
        <ele>287</ele>
        <time>2017-05-07T08:48:02Z</time>
      </trkpt>
      <trkpt lat="45.9694" lon="4.8683">
        <ele>287</ele>
        <time>2017-05-07T08:48:03Z</time>
      </trkpt>
      <trkpt lat="45.96946" lon="4.86833">
        <ele>287</ele>
        <time>2017-05-07T08:48:04Z</time>
      </trkpt>
      <trkpt lat="45.96952" lon="4.86837">
        <ele>287</ele>
        <time>2017-05-07T08:48:05Z</time>
      </trkpt>
      <trkpt lat="45.96958" lon="4.8684">
        <ele>287</ele>
        <time>2017-05-07T08:48:06Z</time>
      </trkpt>
      <trkpt lat="45.96964" lon="4.86842">
        <ele>287</ele>
        <time>2017-05-07T08:48:07Z</time>
      </trkpt>
      <trkpt lat="45.9697" lon="4.86845">
        <ele>286</ele>
        <time>2017-05-07T08:48:08Z</time>
      </trkpt>
      <trkpt lat="45.96977" lon="4.86847">
        <ele>286</ele>
        <time>2017-05-07T08:48:09Z</time>
      </trkpt>
      <trkpt lat="45.96983" lon="4.86848">
        <ele>286</ele>
        <time>2017-05-07T08:48:10Z</time>
      </trkpt>
      <trkpt lat="45.96989" lon="4.86849">
        <ele>286</ele>
        <time>2017-05-07T08:48:11Z</time>
      </trkpt>
      <trkpt lat="45.96996" lon="4.8685">
        <ele>286</ele>
        <time>2017-05-07T08:48:12Z</time>
      </trkpt>
      <trkpt lat="45.97002" lon="4.8685">
        <ele>285</ele>
        <time>2017-05-07T08:48:13Z</time>
      </trkpt>
      <trkpt lat="45.97008" lon="4.8685">
        <ele>285</ele>
        <time>2017-05-07T08:48:14Z</time>
      </trkpt>
      <trkpt lat="45.97014" lon="4.86849">
        <ele>285</ele>
        <time>2017-05-07T08:48:15Z</time>
      </trkpt>
      <trkpt lat="45.9702" lon="4.86849">
        <ele>285</ele>
        <time>2017-05-07T08:48:16Z</time>
      </trkpt>
      <trkpt lat="45.97026" lon="4.86848">
        <ele>285</ele>
        <time>2017-05-07T08:48:17Z</time>
      </trkpt>
      <trkpt lat="45.97032" lon="4.86847">
        <ele>285</ele>
        <time>2017-05-07T08:48:18Z</time>
      </trkpt>
      <trkpt lat="45.97038" lon="4.86847">
        <ele>285</ele>
        <time>2017-05-07T08:48:19Z</time>
      </trkpt>
      <trkpt lat="45.97043" lon="4.86846">
        <ele>285</ele>
        <time>2017-05-07T08:48:20Z</time>
      </trkpt>
      <trkpt lat="45.97049" lon="4.86845">
        <ele>285</ele>
        <time>2017-05-07T08:48:21Z</time>
      </trkpt>
      <trkpt lat="45.97054" lon="4.86845">
        <ele>285</ele>
        <time>2017-05-07T08:48:22Z</time>
      </trkpt>
      <trkpt lat="45.9706" lon="4.86844">
        <ele>284</ele>
        <time>2017-05-07T08:48:23Z</time>
      </trkpt>
      <trkpt lat="45.97065" lon="4.86843">
        <ele>284</ele>
        <time>2017-05-07T08:48:24Z</time>
      </trkpt>
      <trkpt lat="45.9707" lon="4.86842">
        <ele>284</ele>
        <time>2017-05-07T08:48:25Z</time>
      </trkpt>
      <trkpt lat="45.97076" lon="4.86841">
        <ele>284</ele>
        <time>2017-05-07T08:48:26Z</time>
      </trkpt>
      <trkpt lat="45.97081" lon="4.86841">
        <ele>284</ele>
        <time>2017-05-07T08:48:27Z</time>
      </trkpt>
      <trkpt lat="45.97086" lon="4.8684">
        <ele>284</ele>
        <time>2017-05-07T08:48:28Z</time>
      </trkpt>
      <trkpt lat="45.97091" lon="4.86838">
        <ele>284</ele>
        <time>2017-05-07T08:48:29Z</time>
      </trkpt>
      <trkpt lat="45.97096" lon="4.86838">
        <ele>284</ele>
        <time>2017-05-07T08:48:30Z</time>
      </trkpt>
      <trkpt lat="45.97101" lon="4.86837">
        <ele>284</ele>
        <time>2017-05-07T08:48:31Z</time>
      </trkpt>
      <trkpt lat="45.97107" lon="4.86836">
        <ele>284</ele>
        <time>2017-05-07T08:48:32Z</time>
      </trkpt>
      <trkpt lat="45.97111" lon="4.86835">
        <ele>284</ele>
        <time>2017-05-07T08:48:33Z</time>
      </trkpt>
      <trkpt lat="45.97116" lon="4.86833">
        <ele>283</ele>
        <time>2017-05-07T08:48:34Z</time>
      </trkpt>
      <trkpt lat="45.97121" lon="4.86831">
        <ele>283</ele>
        <time>2017-05-07T08:48:35Z</time>
      </trkpt>
      <trkpt lat="45.97127" lon="4.86829">
        <ele>283</ele>
        <time>2017-05-07T08:48:36Z</time>
      </trkpt>
      <trkpt lat="45.97132" lon="4.86827">
        <ele>283</ele>
        <time>2017-05-07T08:48:37Z</time>
      </trkpt>
      <trkpt lat="45.97138" lon="4.86825">
        <ele>283</ele>
        <time>2017-05-07T08:48:38Z</time>
      </trkpt>
      <trkpt lat="45.97144" lon="4.86822">
        <ele>283</ele>
        <time>2017-05-07T08:48:39Z</time>
      </trkpt>
      <trkpt lat="45.9715" lon="4.8682">
        <ele>283</ele>
        <time>2017-05-07T08:48:40Z</time>
      </trkpt>
      <trkpt lat="45.97156" lon="4.86817">
        <ele>283</ele>
        <time>2017-05-07T08:48:41Z</time>
      </trkpt>
      <trkpt lat="45.97162" lon="4.86814">
        <ele>283</ele>
        <time>2017-05-07T08:48:42Z</time>
      </trkpt>
      <trkpt lat="45.97168" lon="4.86812">
        <ele>283</ele>
        <time>2017-05-07T08:48:43Z</time>
      </trkpt>
      <trkpt lat="45.97174" lon="4.86809">
        <ele>283</ele>
        <time>2017-05-07T08:48:44Z</time>
      </trkpt>
      <trkpt lat="45.9718" lon="4.86807">
        <ele>284</ele>
        <time>2017-05-07T08:48:45Z</time>
      </trkpt>
      <trkpt lat="45.97185" lon="4.86804">
        <ele>284</ele>
        <time>2017-05-07T08:48:46Z</time>
      </trkpt>
      <trkpt lat="45.97191" lon="4.86802">
        <ele>284</ele>
        <time>2017-05-07T08:48:47Z</time>
      </trkpt>
      <trkpt lat="45.97196" lon="4.868">
        <ele>284</ele>
        <time>2017-05-07T08:48:48Z</time>
      </trkpt>
      <trkpt lat="45.97201" lon="4.86798">
        <ele>284</ele>
        <time>2017-05-07T08:48:49Z</time>
      </trkpt>
      <trkpt lat="45.97206" lon="4.86796">
        <ele>284</ele>
        <time>2017-05-07T08:48:50Z</time>
      </trkpt>
      <trkpt lat="45.97211" lon="4.86795">
        <ele>284</ele>
        <time>2017-05-07T08:48:51Z</time>
      </trkpt>
      <trkpt lat="45.97216" lon="4.86794">
        <ele>284</ele>
        <time>2017-05-07T08:48:52Z</time>
      </trkpt>
      <trkpt lat="45.97221" lon="4.86794">
        <ele>284</ele>
        <time>2017-05-07T08:48:53Z</time>
      </trkpt>
      <trkpt lat="45.97226" lon="4.86795">
        <ele>284</ele>
        <time>2017-05-07T08:48:54Z</time>
      </trkpt>
      <trkpt lat="45.97231" lon="4.86796">
        <ele>284</ele>
        <time>2017-05-07T08:48:55Z</time>
      </trkpt>
      <trkpt lat="45.97236" lon="4.86799">
        <ele>284</ele>
        <time>2017-05-07T08:48:56Z</time>
      </trkpt>
      <trkpt lat="45.9724" lon="4.86802">
        <ele>284</ele>
        <time>2017-05-07T08:48:57Z</time>
      </trkpt>
      <trkpt lat="45.97244" lon="4.86806">
        <ele>284</ele>
        <time>2017-05-07T08:48:58Z</time>
      </trkpt>
      <trkpt lat="45.97248" lon="4.86811">
        <ele>284</ele>
        <time>2017-05-07T08:48:59Z</time>
      </trkpt>
      <trkpt lat="45.97252" lon="4.86815">
        <ele>285</ele>
        <time>2017-05-07T08:49:00Z</time>
      </trkpt>
      <trkpt lat="45.97256" lon="4.8682">
        <ele>285</ele>
        <time>2017-05-07T08:49:01Z</time>
      </trkpt>
      <trkpt lat="45.97259" lon="4.86825">
        <ele>285</ele>
        <time>2017-05-07T08:49:02Z</time>
      </trkpt>
      <trkpt lat="45.97262" lon="4.86831">
        <ele>285</ele>
        <time>2017-05-07T08:49:03Z</time>
      </trkpt>
      <trkpt lat="45.97266" lon="4.86838">
        <ele>285</ele>
        <time>2017-05-07T08:49:04Z</time>
      </trkpt>
      <trkpt lat="45.97269" lon="4.86844">
        <ele>285</ele>
        <time>2017-05-07T08:49:05Z</time>
      </trkpt>
      <trkpt lat="45.97273" lon="4.86851">
        <ele>285</ele>
        <time>2017-05-07T08:49:06Z</time>
      </trkpt>
      <trkpt lat="45.97277" lon="4.86858">
        <ele>285</ele>
        <time>2017-05-07T08:49:07Z</time>
      </trkpt>
      <trkpt lat="45.97282" lon="4.86865">
        <ele>285</ele>
        <time>2017-05-07T08:49:08Z</time>
      </trkpt>
      <trkpt lat="45.97286" lon="4.86871">
        <ele>285</ele>
        <time>2017-05-07T08:49:09Z</time>
      </trkpt>
      <trkpt lat="45.97291" lon="4.86878">
        <ele>285</ele>
        <time>2017-05-07T08:49:10Z</time>
      </trkpt>
      <trkpt lat="45.97295" lon="4.86884">
        <ele>284</ele>
        <time>2017-05-07T08:49:11Z</time>
      </trkpt>
      <trkpt lat="45.973" lon="4.8689">
        <ele>284</ele>
        <time>2017-05-07T08:49:12Z</time>
      </trkpt>
      <trkpt lat="45.97304" lon="4.86897">
        <ele>284</ele>
        <time>2017-05-07T08:49:13Z</time>
      </trkpt>
      <trkpt lat="45.97308" lon="4.86903">
        <ele>284</ele>
        <time>2017-05-07T08:49:14Z</time>
      </trkpt>
      <trkpt lat="45.97312" lon="4.86908">
        <ele>284</ele>
        <time>2017-05-07T08:49:15Z</time>
      </trkpt>
      <trkpt lat="45.97317" lon="4.86914">
        <ele>284</ele>
        <time>2017-05-07T08:49:16Z</time>
      </trkpt>
      <trkpt lat="45.97321" lon="4.86919">
        <ele>284</ele>
        <time>2017-05-07T08:49:17Z</time>
      </trkpt>
      <trkpt lat="45.97325" lon="4.86924">
        <ele>284</ele>
        <time>2017-05-07T08:49:18Z</time>
      </trkpt>
      <trkpt lat="45.97328" lon="4.86929">
        <ele>284</ele>
        <time>2017-05-07T08:49:19Z</time>
      </trkpt>
      <trkpt lat="45.97333" lon="4.86934">
        <ele>284</ele>
        <time>2017-05-07T08:49:20Z</time>
      </trkpt>
      <trkpt lat="45.97337" lon="4.86939">
        <ele>284</ele>
        <time>2017-05-07T08:49:21Z</time>
      </trkpt>
      <trkpt lat="45.9734" lon="4.86945">
        <ele>284</ele>
        <time>2017-05-07T08:49:22Z</time>
      </trkpt>
      <trkpt lat="45.97344" lon="4.86951">
        <ele>284</ele>
        <time>2017-05-07T08:49:23Z</time>
      </trkpt>
      <trkpt lat="45.97347" lon="4.86956">
        <ele>284</ele>
        <time>2017-05-07T08:49:24Z</time>
      </trkpt>
      <trkpt lat="45.97352" lon="4.86961">
        <ele>285</ele>
        <time>2017-05-07T08:49:25Z</time>
      </trkpt>
      <trkpt lat="45.97356" lon="4.86967">
        <ele>285</ele>
        <time>2017-05-07T08:49:26Z</time>
      </trkpt>
      <trkpt lat="45.97361" lon="4.86972">
        <ele>285</ele>
        <time>2017-05-07T08:49:27Z</time>
      </trkpt>
      <trkpt lat="45.97366" lon="4.86977">
        <ele>285</ele>
        <time>2017-05-07T08:49:28Z</time>
      </trkpt>
      <trkpt lat="45.97371" lon="4.86982">
        <ele>285</ele>
        <time>2017-05-07T08:49:29Z</time>
      </trkpt>
      <trkpt lat="45.97375" lon="4.86987">
        <ele>285</ele>
        <time>2017-05-07T08:49:30Z</time>
      </trkpt>
      <trkpt lat="45.97379" lon="4.86992">
        <ele>285</ele>
        <time>2017-05-07T08:49:31Z</time>
      </trkpt>
      <trkpt lat="45.97384" lon="4.86997">
        <ele>285</ele>
        <time>2017-05-07T08:49:32Z</time>
      </trkpt>
      <trkpt lat="45.97388" lon="4.87001">
        <ele>285</ele>
        <time>2017-05-07T08:49:33Z</time>
      </trkpt>
      <trkpt lat="45.97393" lon="4.87006">
        <ele>285</ele>
        <time>2017-05-07T08:49:34Z</time>
      </trkpt>
      <trkpt lat="45.97397" lon="4.8701">
        <ele>285</ele>
        <time>2017-05-07T08:49:35Z</time>
      </trkpt>
      <trkpt lat="45.97401" lon="4.87014">
        <ele>285</ele>
        <time>2017-05-07T08:49:36Z</time>
      </trkpt>
      <trkpt lat="45.97405" lon="4.87018">
        <ele>285</ele>
        <time>2017-05-07T08:49:37Z</time>
      </trkpt>
      <trkpt lat="45.97409" lon="4.87022">
        <ele>285</ele>
        <time>2017-05-07T08:49:38Z</time>
      </trkpt>
      <trkpt lat="45.97413" lon="4.87027">
        <ele>285</ele>
        <time>2017-05-07T08:49:39Z</time>
      </trkpt>
      <trkpt lat="45.97417" lon="4.87031">
        <ele>284</ele>
        <time>2017-05-07T08:49:40Z</time>
      </trkpt>
      <trkpt lat="45.97421" lon="4.87035">
        <ele>284</ele>
        <time>2017-05-07T08:49:41Z</time>
      </trkpt>
      <trkpt lat="45.97425" lon="4.8704">
        <ele>284</ele>
        <time>2017-05-07T08:49:42Z</time>
      </trkpt>
      <trkpt lat="45.97429" lon="4.87044">
        <ele>284</ele>
        <time>2017-05-07T08:49:43Z</time>
      </trkpt>
      <trkpt lat="45.97433" lon="4.87049">
        <ele>284</ele>
        <time>2017-05-07T08:49:44Z</time>
      </trkpt>
      <trkpt lat="45.97438" lon="4.87054">
        <ele>284</ele>
        <time>2017-05-07T08:49:45Z</time>
      </trkpt>
      <trkpt lat="45.97443" lon="4.87058">
        <ele>284</ele>
        <time>2017-05-07T08:49:46Z</time>
      </trkpt>
      <trkpt lat="45.97447" lon="4.87063">
        <ele>284</ele>
        <time>2017-05-07T08:49:47Z</time>
      </trkpt>
      <trkpt lat="45.97452" lon="4.87069">
        <ele>284</ele>
        <time>2017-05-07T08:49:48Z</time>
      </trkpt>
      <trkpt lat="45.97457" lon="4.87074">
        <ele>284</ele>
        <time>2017-05-07T08:49:49Z</time>
      </trkpt>
      <trkpt lat="45.97462" lon="4.87079">
        <ele>284</ele>
        <time>2017-05-07T08:49:50Z</time>
      </trkpt>
      <trkpt lat="45.97467" lon="4.87084">
        <ele>283</ele>
        <time>2017-05-07T08:49:51Z</time>
      </trkpt>
      <trkpt lat="45.97472" lon="4.87088">
        <ele>283</ele>
        <time>2017-05-07T08:49:52Z</time>
      </trkpt>
      <trkpt lat="45.97477" lon="4.87093">
        <ele>283</ele>
        <time>2017-05-07T08:49:53Z</time>
      </trkpt>
      <trkpt lat="45.97481" lon="4.87098">
        <ele>283</ele>
        <time>2017-05-07T08:49:54Z</time>
      </trkpt>
      <trkpt lat="45.97486" lon="4.87102">
        <ele>283</ele>
        <time>2017-05-07T08:49:55Z</time>
      </trkpt>
      <trkpt lat="45.9749" lon="4.87106">
        <ele>283</ele>
        <time>2017-05-07T08:49:56Z</time>
      </trkpt>
      <trkpt lat="45.97494" lon="4.87111">
        <ele>283</ele>
        <time>2017-05-07T08:49:57Z</time>
      </trkpt>
      <trkpt lat="45.97498" lon="4.87115">
        <ele>283</ele>
        <time>2017-05-07T08:49:58Z</time>
      </trkpt>
      <trkpt lat="45.97502" lon="4.87119">
        <ele>283</ele>
        <time>2017-05-07T08:49:59Z</time>
      </trkpt>
      <trkpt lat="45.97506" lon="4.87123">
        <ele>283</ele>
        <time>2017-05-07T08:50:00Z</time>
      </trkpt>
      <trkpt lat="45.9751" lon="4.87127">
        <ele>283</ele>
        <time>2017-05-07T08:50:01Z</time>
      </trkpt>
      <trkpt lat="45.97514" lon="4.87131">
        <ele>283</ele>
        <time>2017-05-07T08:50:02Z</time>
      </trkpt>
      <trkpt lat="45.97518" lon="4.87136">
        <ele>283</ele>
        <time>2017-05-07T08:50:03Z</time>
      </trkpt>
      <trkpt lat="45.97523" lon="4.8714">
        <ele>283</ele>
        <time>2017-05-07T08:50:04Z</time>
      </trkpt>
      <trkpt lat="45.97527" lon="4.87144">
        <ele>283</ele>
        <time>2017-05-07T08:50:05Z</time>
      </trkpt>
      <trkpt lat="45.97532" lon="4.87148">
        <ele>283</ele>
        <time>2017-05-07T08:50:06Z</time>
      </trkpt>
      <trkpt lat="45.97536" lon="4.87152">
        <ele>283</ele>
        <time>2017-05-07T08:50:07Z</time>
      </trkpt>
      <trkpt lat="45.97541" lon="4.87156">
        <ele>283</ele>
        <time>2017-05-07T08:50:08Z</time>
      </trkpt>
      <trkpt lat="45.97545" lon="4.8716">
        <ele>283</ele>
        <time>2017-05-07T08:50:09Z</time>
      </trkpt>
      <trkpt lat="45.9755" lon="4.87164">
        <ele>283</ele>
        <time>2017-05-07T08:50:10Z</time>
      </trkpt>
      <trkpt lat="45.97554" lon="4.87168">
        <ele>283</ele>
        <time>2017-05-07T08:50:11Z</time>
      </trkpt>
      <trkpt lat="45.97559" lon="4.87173">
        <ele>283</ele>
        <time>2017-05-07T08:50:12Z</time>
      </trkpt>
      <trkpt lat="45.97564" lon="4.87178">
        <ele>283</ele>
        <time>2017-05-07T08:50:13Z</time>
      </trkpt>
      <trkpt lat="45.97568" lon="4.87183">
        <ele>283</ele>
        <time>2017-05-07T08:50:14Z</time>
      </trkpt>
      <trkpt lat="45.97572" lon="4.87188">
        <ele>283</ele>
        <time>2017-05-07T08:50:15Z</time>
      </trkpt>
      <trkpt lat="45.97576" lon="4.87193">
        <ele>283</ele>
        <time>2017-05-07T08:50:16Z</time>
      </trkpt>
      <trkpt lat="45.97581" lon="4.87197">
        <ele>283</ele>
        <time>2017-05-07T08:50:17Z</time>
      </trkpt>
      <trkpt lat="45.97585" lon="4.87202">
        <ele>283</ele>
        <time>2017-05-07T08:50:18Z</time>
      </trkpt>
      <trkpt lat="45.9759" lon="4.87206">
        <ele>283</ele>
        <time>2017-05-07T08:50:19Z</time>
      </trkpt>
      <trkpt lat="45.97594" lon="4.8721">
        <ele>284</ele>
        <time>2017-05-07T08:50:20Z</time>
      </trkpt>
      <trkpt lat="45.97599" lon="4.87215">
        <ele>284</ele>
        <time>2017-05-07T08:50:21Z</time>
      </trkpt>
      <trkpt lat="45.97603" lon="4.87219">
        <ele>284</ele>
        <time>2017-05-07T08:50:22Z</time>
      </trkpt>
      <trkpt lat="45.97607" lon="4.87223">
        <ele>284</ele>
        <time>2017-05-07T08:50:23Z</time>
      </trkpt>
      <trkpt lat="45.97611" lon="4.87227">
        <ele>284</ele>
        <time>2017-05-07T08:50:24Z</time>
      </trkpt>
      <trkpt lat="45.97615" lon="4.8723">
        <ele>284</ele>
        <time>2017-05-07T08:50:25Z</time>
      </trkpt>
      <trkpt lat="45.9762" lon="4.87235">
        <ele>284</ele>
        <time>2017-05-07T08:50:26Z</time>
      </trkpt>
      <trkpt lat="45.97624" lon="4.87239">
        <ele>284</ele>
        <time>2017-05-07T08:50:27Z</time>
      </trkpt>
      <trkpt lat="45.97629" lon="4.87244">
        <ele>284</ele>
        <time>2017-05-07T08:50:28Z</time>
      </trkpt>
      <trkpt lat="45.97633" lon="4.87249">
        <ele>284</ele>
        <time>2017-05-07T08:50:29Z</time>
      </trkpt>
      <trkpt lat="45.97638" lon="4.87254">
        <ele>285</ele>
        <time>2017-05-07T08:50:30Z</time>
      </trkpt>
      <trkpt lat="45.97643" lon="4.87258">
        <ele>285</ele>
        <time>2017-05-07T08:50:31Z</time>
      </trkpt>
      <trkpt lat="45.97648" lon="4.87263">
        <ele>285</ele>
        <time>2017-05-07T08:50:32Z</time>
      </trkpt>
      <trkpt lat="45.97653" lon="4.87268">
        <ele>285</ele>
        <time>2017-05-07T08:50:33Z</time>
      </trkpt>
      <trkpt lat="45.97658" lon="4.87272">
        <ele>285</ele>
        <time>2017-05-07T08:50:34Z</time>
      </trkpt>
      <trkpt lat="45.97663" lon="4.87277">
        <ele>285</ele>
        <time>2017-05-07T08:50:35Z</time>
      </trkpt>
      <trkpt lat="45.97668" lon="4.87281">
        <ele>286</ele>
        <time>2017-05-07T08:50:36Z</time>
      </trkpt>
      <trkpt lat="45.97673" lon="4.87286">
        <ele>286</ele>
        <time>2017-05-07T08:50:37Z</time>
      </trkpt>
      <trkpt lat="45.97677" lon="4.8729">
        <ele>286</ele>
        <time>2017-05-07T08:50:38Z</time>
      </trkpt>
      <trkpt lat="45.97682" lon="4.87294">
        <ele>286</ele>
        <time>2017-05-07T08:50:39Z</time>
      </trkpt>
      <trkpt lat="45.97686" lon="4.87298">
        <ele>286</ele>
        <time>2017-05-07T08:50:40Z</time>
      </trkpt>
      <trkpt lat="45.97691" lon="4.87303">
        <ele>286</ele>
        <time>2017-05-07T08:50:41Z</time>
      </trkpt>
      <trkpt lat="45.97696" lon="4.87308">
        <ele>286</ele>
        <time>2017-05-07T08:50:42Z</time>
      </trkpt>
      <trkpt lat="45.97701" lon="4.87313">
        <ele>286</ele>
        <time>2017-05-07T08:50:43Z</time>
      </trkpt>
      <trkpt lat="45.97706" lon="4.87318">
        <ele>286</ele>
        <time>2017-05-07T08:50:44Z</time>
      </trkpt>
      <trkpt lat="45.9771" lon="4.87325">
        <ele>286</ele>
        <time>2017-05-07T08:50:45Z</time>
      </trkpt>
      <trkpt lat="45.97715" lon="4.87331">
        <ele>286</ele>
        <time>2017-05-07T08:50:46Z</time>
      </trkpt>
      <trkpt lat="45.97719" lon="4.87337">
        <ele>285</ele>
        <time>2017-05-07T08:50:47Z</time>
      </trkpt>
      <trkpt lat="45.97724" lon="4.87342">
        <ele>285</ele>
        <time>2017-05-07T08:50:48Z</time>
      </trkpt>
      <trkpt lat="45.97729" lon="4.87348">
        <ele>285</ele>
        <time>2017-05-07T08:50:49Z</time>
      </trkpt>
      <trkpt lat="45.97733" lon="4.87353">
        <ele>285</ele>
        <time>2017-05-07T08:50:50Z</time>
      </trkpt>
      <trkpt lat="45.97737" lon="4.87358">
        <ele>285</ele>
        <time>2017-05-07T08:50:51Z</time>
      </trkpt>
      <trkpt lat="45.9774" lon="4.87363">
        <ele>285</ele>
        <time>2017-05-07T08:50:52Z</time>
      </trkpt>
      <trkpt lat="45.97745" lon="4.87368">
        <ele>285</ele>
        <time>2017-05-07T08:50:53Z</time>
      </trkpt>
      <trkpt lat="45.97748" lon="4.87373">
        <ele>285</ele>
        <time>2017-05-07T08:50:54Z</time>
      </trkpt>
      <trkpt lat="45.97752" lon="4.87379">
        <ele>285</ele>
        <time>2017-05-07T08:50:55Z</time>
      </trkpt>
      <trkpt lat="45.97756" lon="4.87384">
        <ele>284</ele>
        <time>2017-05-07T08:50:56Z</time>
      </trkpt>
      <trkpt lat="45.9776" lon="4.87389">
        <ele>284</ele>
        <time>2017-05-07T08:50:57Z</time>
      </trkpt>
      <trkpt lat="45.97765" lon="4.87394">
        <ele>284</ele>
        <time>2017-05-07T08:50:58Z</time>
      </trkpt>
      <trkpt lat="45.9777" lon="4.87399">
        <ele>284</ele>
        <time>2017-05-07T08:50:59Z</time>
      </trkpt>
      <trkpt lat="45.97774" lon="4.87404">
        <ele>284</ele>
        <time>2017-05-07T08:51:00Z</time>
      </trkpt>
      <trkpt lat="45.97779" lon="4.8741">
        <ele>284</ele>
        <time>2017-05-07T08:51:01Z</time>
      </trkpt>
      <trkpt lat="45.97783" lon="4.87416">
        <ele>284</ele>
        <time>2017-05-07T08:51:02Z</time>
      </trkpt>
      <trkpt lat="45.97788" lon="4.87421">
        <ele>283</ele>
        <time>2017-05-07T08:51:03Z</time>
      </trkpt>
      <trkpt lat="45.97793" lon="4.87427">
        <ele>283</ele>
        <time>2017-05-07T08:51:04Z</time>
      </trkpt>
      <trkpt lat="45.97798" lon="4.87432">
        <ele>283</ele>
        <time>2017-05-07T08:51:05Z</time>
      </trkpt>
      <trkpt lat="45.97803" lon="4.87438">
        <ele>283</ele>
        <time>2017-05-07T08:51:06Z</time>
      </trkpt>
      <trkpt lat="45.97808" lon="4.87443">
        <ele>282</ele>
        <time>2017-05-07T08:51:07Z</time>
      </trkpt>
      <trkpt lat="45.97813" lon="4.87449">
        <ele>282</ele>
        <time>2017-05-07T08:51:08Z</time>
      </trkpt>
      <trkpt lat="45.97818" lon="4.87454">
        <ele>282</ele>
        <time>2017-05-07T08:51:09Z</time>
      </trkpt>
      <trkpt lat="45.97823" lon="4.8746">
        <ele>282</ele>
        <time>2017-05-07T08:51:10Z</time>
      </trkpt>
      <trkpt lat="45.97829" lon="4.87465">
        <ele>282</ele>
        <time>2017-05-07T08:51:11Z</time>
      </trkpt>
      <trkpt lat="45.97834" lon="4.87471">
        <ele>281</ele>
        <time>2017-05-07T08:51:12Z</time>
      </trkpt>
      <trkpt lat="45.97839" lon="4.87477">
        <ele>281</ele>
        <time>2017-05-07T08:51:13Z</time>
      </trkpt>
      <trkpt lat="45.97845" lon="4.87483">
        <ele>281</ele>
        <time>2017-05-07T08:51:14Z</time>
      </trkpt>
      <trkpt lat="45.9785" lon="4.87489">
        <ele>281</ele>
        <time>2017-05-07T08:51:15Z</time>
      </trkpt>
      <trkpt lat="45.97856" lon="4.87495">
        <ele>281</ele>
        <time>2017-05-07T08:51:16Z</time>
      </trkpt>
      <trkpt lat="45.97861" lon="4.875">
        <ele>281</ele>
        <time>2017-05-07T08:51:17Z</time>
      </trkpt>
      <trkpt lat="45.97866" lon="4.87505">
        <ele>281</ele>
        <time>2017-05-07T08:51:18Z</time>
      </trkpt>
      <trkpt lat="45.97872" lon="4.8751">
        <ele>281</ele>
        <time>2017-05-07T08:51:19Z</time>
      </trkpt>
      <trkpt lat="45.97877" lon="4.87515">
        <ele>281</ele>
        <time>2017-05-07T08:51:20Z</time>
      </trkpt>
      <trkpt lat="45.97883" lon="4.87518">
        <ele>281</ele>
        <time>2017-05-07T08:51:21Z</time>
      </trkpt>
      <trkpt lat="45.97889" lon="4.87521">
        <ele>281</ele>
        <time>2017-05-07T08:51:22Z</time>
      </trkpt>
      <trkpt lat="45.97894" lon="4.87524">
        <ele>280</ele>
        <time>2017-05-07T08:51:23Z</time>
      </trkpt>
      <trkpt lat="45.979" lon="4.87527">
        <ele>280</ele>
        <time>2017-05-07T08:51:24Z</time>
      </trkpt>
      <trkpt lat="45.97906" lon="4.87529">
        <ele>280</ele>
        <time>2017-05-07T08:51:25Z</time>
      </trkpt>
      <trkpt lat="45.97911" lon="4.87532">
        <ele>280</ele>
        <time>2017-05-07T08:51:26Z</time>
      </trkpt>
      <trkpt lat="45.97917" lon="4.87534">
        <ele>279</ele>
        <time>2017-05-07T08:51:27Z</time>
      </trkpt>
      <trkpt lat="45.97922" lon="4.87536">
        <ele>279</ele>
        <time>2017-05-07T08:51:28Z</time>
      </trkpt>
      <trkpt lat="45.97928" lon="4.87538">
        <ele>279</ele>
        <time>2017-05-07T08:51:29Z</time>
      </trkpt>
      <trkpt lat="45.97932" lon="4.8754">
        <ele>279</ele>
        <time>2017-05-07T08:51:30Z</time>
      </trkpt>
      <trkpt lat="45.97937" lon="4.87542">
        <ele>279</ele>
        <time>2017-05-07T08:51:31Z</time>
      </trkpt>
      <trkpt lat="45.97942" lon="4.87544">
        <ele>279</ele>
        <time>2017-05-07T08:51:32Z</time>
      </trkpt>
      <trkpt lat="45.97947" lon="4.87547">
        <ele>279</ele>
        <time>2017-05-07T08:51:33Z</time>
      </trkpt>
      <trkpt lat="45.97952" lon="4.87549">
        <ele>279</ele>
        <time>2017-05-07T08:51:34Z</time>
      </trkpt>
      <trkpt lat="45.97957" lon="4.87552">
        <ele>279</ele>
        <time>2017-05-07T08:51:35Z</time>
      </trkpt>
      <trkpt lat="45.97962" lon="4.87554">
        <ele>279</ele>
        <time>2017-05-07T08:51:36Z</time>
      </trkpt>
      <trkpt lat="45.97966" lon="4.87558">
        <ele>279</ele>
        <time>2017-05-07T08:51:37Z</time>
      </trkpt>
      <trkpt lat="45.97971" lon="4.87561">
        <ele>279</ele>
        <time>2017-05-07T08:51:38Z</time>
      </trkpt>
      <trkpt lat="45.97976" lon="4.87565">
        <ele>279</ele>
        <time>2017-05-07T08:51:39Z</time>
      </trkpt>
      <trkpt lat="45.9798" lon="4.8757">
        <ele>279</ele>
        <time>2017-05-07T08:51:40Z</time>
      </trkpt>
      <trkpt lat="45.97983" lon="4.87575">
        <ele>280</ele>
        <time>2017-05-07T08:51:41Z</time>
      </trkpt>
      <trkpt lat="45.97987" lon="4.8758">
        <ele>280</ele>
        <time>2017-05-07T08:51:42Z</time>
      </trkpt>
      <trkpt lat="45.9799" lon="4.87586">
        <ele>280</ele>
        <time>2017-05-07T08:51:43Z</time>
      </trkpt>
      <trkpt lat="45.97994" lon="4.87592">
        <ele>280</ele>
        <time>2017-05-07T08:51:44Z</time>
      </trkpt>
      <trkpt lat="45.97997" lon="4.87598">
        <ele>280</ele>
        <time>2017-05-07T08:51:45Z</time>
      </trkpt>
      <trkpt lat="45.98" lon="4.87605">
        <ele>280</ele>
        <time>2017-05-07T08:51:46Z</time>
      </trkpt>
      <trkpt lat="45.98003" lon="4.87612">
        <ele>280</ele>
        <time>2017-05-07T08:51:47Z</time>
      </trkpt>
      <trkpt lat="45.98006" lon="4.8762">
        <ele>280</ele>
        <time>2017-05-07T08:51:48Z</time>
      </trkpt>
      <trkpt lat="45.98008" lon="4.87628">
        <ele>280</ele>
        <time>2017-05-07T08:51:49Z</time>
      </trkpt>
      <trkpt lat="45.9801" lon="4.87636">
        <ele>280</ele>
        <time>2017-05-07T08:51:50Z</time>
      </trkpt>
      <trkpt lat="45.98012" lon="4.87644">
        <ele>280</ele>
        <time>2017-05-07T08:51:51Z</time>
      </trkpt>
      <trkpt lat="45.98014" lon="4.87653">
        <ele>280</ele>
        <time>2017-05-07T08:51:52Z</time>
      </trkpt>
      <trkpt lat="45.98017" lon="4.87661">
        <ele>280</ele>
        <time>2017-05-07T08:51:53Z</time>
      </trkpt>
      <trkpt lat="45.98019" lon="4.8767">
        <ele>280</ele>
        <time>2017-05-07T08:51:54Z</time>
      </trkpt>
      <trkpt lat="45.98021" lon="4.87679">
        <ele>280</ele>
        <time>2017-05-07T08:51:55Z</time>
      </trkpt>
      <trkpt lat="45.98024" lon="4.87686">
        <ele>280</ele>
        <time>2017-05-07T08:51:56Z</time>
      </trkpt>
      <trkpt lat="45.98026" lon="4.87694">
        <ele>280</ele>
        <time>2017-05-07T08:51:57Z</time>
      </trkpt>
      <trkpt lat="45.98028" lon="4.87702">
        <ele>280</ele>
        <time>2017-05-07T08:51:58Z</time>
      </trkpt>
      <trkpt lat="45.98031" lon="4.8771">
        <ele>279</ele>
        <time>2017-05-07T08:51:59Z</time>
      </trkpt>
      <trkpt lat="45.98033" lon="4.87718">
        <ele>279</ele>
        <time>2017-05-07T08:52:00Z</time>
      </trkpt>
      <trkpt lat="45.98035" lon="4.87726">
        <ele>279</ele>
        <time>2017-05-07T08:52:01Z</time>
      </trkpt>
      <trkpt lat="45.98038" lon="4.87733">
        <ele>279</ele>
        <time>2017-05-07T08:52:02Z</time>
      </trkpt>
      <trkpt lat="45.9804" lon="4.8774">
        <ele>279</ele>
        <time>2017-05-07T08:52:03Z</time>
      </trkpt>
      <trkpt lat="45.98043" lon="4.87748">
        <ele>280</ele>
        <time>2017-05-07T08:52:04Z</time>
      </trkpt>
      <trkpt lat="45.98045" lon="4.87755">
        <ele>280</ele>
        <time>2017-05-07T08:52:05Z</time>
      </trkpt>
      <trkpt lat="45.98048" lon="4.87762">
        <ele>280</ele>
        <time>2017-05-07T08:52:06Z</time>
      </trkpt>
      <trkpt lat="45.9805" lon="4.8777">
        <ele>280</ele>
        <time>2017-05-07T08:52:07Z</time>
      </trkpt>
      <trkpt lat="45.98053" lon="4.87777">
        <ele>280</ele>
        <time>2017-05-07T08:52:08Z</time>
      </trkpt>
      <trkpt lat="45.98055" lon="4.87784">
        <ele>280</ele>
        <time>2017-05-07T08:52:09Z</time>
      </trkpt>
      <trkpt lat="45.98057" lon="4.87792">
        <ele>280</ele>
        <time>2017-05-07T08:52:10Z</time>
      </trkpt>
      <trkpt lat="45.98059" lon="4.87799">
        <ele>280</ele>
        <time>2017-05-07T08:52:11Z</time>
      </trkpt>
      <trkpt lat="45.98061" lon="4.87807">
        <ele>280</ele>
        <time>2017-05-07T08:52:12Z</time>
      </trkpt>
      <trkpt lat="45.98063" lon="4.87815">
        <ele>280</ele>
        <time>2017-05-07T08:52:13Z</time>
      </trkpt>
      <trkpt lat="45.98066" lon="4.87822">
        <ele>279</ele>
        <time>2017-05-07T08:52:14Z</time>
      </trkpt>
      <trkpt lat="45.98068" lon="4.87829">
        <ele>279</ele>
        <time>2017-05-07T08:52:15Z</time>
      </trkpt>
      <trkpt lat="45.9807" lon="4.87836">
        <ele>279</ele>
        <time>2017-05-07T08:52:16Z</time>
      </trkpt>
      <trkpt lat="45.98072" lon="4.87843">
        <ele>280</ele>
        <time>2017-05-07T08:52:17Z</time>
      </trkpt>
      <trkpt lat="45.98074" lon="4.8785">
        <ele>280</ele>
        <time>2017-05-07T08:52:18Z</time>
      </trkpt>
      <trkpt lat="45.98077" lon="4.87858">
        <ele>280</ele>
        <time>2017-05-07T08:52:19Z</time>
      </trkpt>
      <trkpt lat="45.98079" lon="4.87865">
        <ele>280</ele>
        <time>2017-05-07T08:52:20Z</time>
      </trkpt>
      <trkpt lat="45.98081" lon="4.87873">
        <ele>280</ele>
        <time>2017-05-07T08:52:21Z</time>
      </trkpt>
      <trkpt lat="45.98084" lon="4.8788">
        <ele>278</ele>
        <time>2017-05-07T08:52:22Z</time>
      </trkpt>
      <trkpt lat="45.98086" lon="4.87888">
        <ele>278</ele>
        <time>2017-05-07T08:52:23Z</time>
      </trkpt>
      <trkpt lat="45.98089" lon="4.87897">
        <ele>278</ele>
        <time>2017-05-07T08:52:24Z</time>
      </trkpt>
      <trkpt lat="45.98091" lon="4.87905">
        <ele>278</ele>
        <time>2017-05-07T08:52:25Z</time>
      </trkpt>
      <trkpt lat="45.98094" lon="4.87914">
        <ele>278</ele>
        <time>2017-05-07T08:52:26Z</time>
      </trkpt>
      <trkpt lat="45.98096" lon="4.87922">
        <ele>278</ele>
        <time>2017-05-07T08:52:27Z</time>
      </trkpt>
      <trkpt lat="45.98098" lon="4.8793">
        <ele>277</ele>
        <time>2017-05-07T08:52:28Z</time>
      </trkpt>
      <trkpt lat="45.98101" lon="4.87939">
        <ele>277</ele>
        <time>2017-05-07T08:52:29Z</time>
      </trkpt>
      <trkpt lat="45.98103" lon="4.87947">
        <ele>277</ele>
        <time>2017-05-07T08:52:30Z</time>
      </trkpt>
      <trkpt lat="45.98106" lon="4.87955">
        <ele>277</ele>
        <time>2017-05-07T08:52:31Z</time>
      </trkpt>
      <trkpt lat="45.98108" lon="4.87964">
        <ele>277</ele>
        <time>2017-05-07T08:52:32Z</time>
      </trkpt>
      <trkpt lat="45.98111" lon="4.87973">
        <ele>277</ele>
        <time>2017-05-07T08:52:33Z</time>
      </trkpt>
      <trkpt lat="45.98113" lon="4.87982">
        <ele>277</ele>
        <time>2017-05-07T08:52:34Z</time>
      </trkpt>
      <trkpt lat="45.98116" lon="4.87991">
        <ele>277</ele>
        <time>2017-05-07T08:52:35Z</time>
      </trkpt>
      <trkpt lat="45.98118" lon="4.88">
        <ele>276</ele>
        <time>2017-05-07T08:52:36Z</time>
      </trkpt>
      <trkpt lat="45.98121" lon="4.88009">
        <ele>276</ele>
        <time>2017-05-07T08:52:37Z</time>
      </trkpt>
      <trkpt lat="45.98124" lon="4.88019">
        <ele>276</ele>
        <time>2017-05-07T08:52:38Z</time>
      </trkpt>
      <trkpt lat="45.98127" lon="4.88029">
        <ele>276</ele>
        <time>2017-05-07T08:52:39Z</time>
      </trkpt>
      <trkpt lat="45.9813" lon="4.88039">
        <ele>276</ele>
        <time>2017-05-07T08:52:40Z</time>
      </trkpt>
      <trkpt lat="45.98132" lon="4.88049">
        <ele>276</ele>
        <time>2017-05-07T08:52:41Z</time>
      </trkpt>
      <trkpt lat="45.98136" lon="4.88058">
        <ele>275</ele>
        <time>2017-05-07T08:52:42Z</time>
      </trkpt>
      <trkpt lat="45.98139" lon="4.88067">
        <ele>275</ele>
        <time>2017-05-07T08:52:43Z</time>
      </trkpt>
      <trkpt lat="45.98142" lon="4.88077">
        <ele>275</ele>
        <time>2017-05-07T08:52:44Z</time>
      </trkpt>
      <trkpt lat="45.98145" lon="4.88086">
        <ele>274</ele>
        <time>2017-05-07T08:52:45Z</time>
      </trkpt>
      <trkpt lat="45.98148" lon="4.88096">
        <ele>274</ele>
        <time>2017-05-07T08:52:46Z</time>
      </trkpt>
      <trkpt lat="45.9815" lon="4.88106">
        <ele>274</ele>
        <time>2017-05-07T08:52:47Z</time>
      </trkpt>
      <trkpt lat="45.98153" lon="4.88115">
        <ele>274</ele>
        <time>2017-05-07T08:52:48Z</time>
      </trkpt>
      <trkpt lat="45.98157" lon="4.88125">
        <ele>274</ele>
        <time>2017-05-07T08:52:49Z</time>
      </trkpt>
      <trkpt lat="45.9816" lon="4.88134">
        <ele>274</ele>
        <time>2017-05-07T08:52:50Z</time>
      </trkpt>
      <trkpt lat="45.98162" lon="4.88144">
        <ele>274</ele>
        <time>2017-05-07T08:52:51Z</time>
      </trkpt>
      <trkpt lat="45.98165" lon="4.88153">
        <ele>274</ele>
        <time>2017-05-07T08:52:52Z</time>
      </trkpt>
      <trkpt lat="45.98168" lon="4.88162">
        <ele>273</ele>
        <time>2017-05-07T08:52:53Z</time>
      </trkpt>
      <trkpt lat="45.98171" lon="4.88172">
        <ele>273</ele>
        <time>2017-05-07T08:52:54Z</time>
      </trkpt>
      <trkpt lat="45.98174" lon="4.88181">
        <ele>273</ele>
        <time>2017-05-07T08:52:55Z</time>
      </trkpt>
      <trkpt lat="45.98176" lon="4.8819">
        <ele>273</ele>
        <time>2017-05-07T08:52:56Z</time>
      </trkpt>
      <trkpt lat="45.9818" lon="4.88199">
        <ele>273</ele>
        <time>2017-05-07T08:52:57Z</time>
      </trkpt>
      <trkpt lat="45.98183" lon="4.88208">
        <ele>273</ele>
        <time>2017-05-07T08:52:58Z</time>
      </trkpt>
      <trkpt lat="45.98185" lon="4.88217">
        <ele>273</ele>
        <time>2017-05-07T08:52:59Z</time>
      </trkpt>
      <trkpt lat="45.98188" lon="4.88225">
        <ele>273</ele>
        <time>2017-05-07T08:53:00Z</time>
      </trkpt>
      <trkpt lat="45.9819" lon="4.88233">
        <ele>273</ele>
        <time>2017-05-07T08:53:01Z</time>
      </trkpt>
      <trkpt lat="45.98192" lon="4.88241">
        <ele>273</ele>
        <time>2017-05-07T08:53:02Z</time>
      </trkpt>
      <trkpt lat="45.98195" lon="4.88249">
        <ele>273</ele>
        <time>2017-05-07T08:53:03Z</time>
      </trkpt>
      <trkpt lat="45.98197" lon="4.88256">
        <ele>274</ele>
        <time>2017-05-07T08:53:04Z</time>
      </trkpt>
      <trkpt lat="45.98199" lon="4.88263">
        <ele>274</ele>
        <time>2017-05-07T08:53:05Z</time>
      </trkpt>
      <trkpt lat="45.982" lon="4.88271">
        <ele>274</ele>
        <time>2017-05-07T08:53:06Z</time>
      </trkpt>
      <trkpt lat="45.98202" lon="4.88278">
        <ele>274</ele>
        <time>2017-05-07T08:53:07Z</time>
      </trkpt>
      <trkpt lat="45.98203" lon="4.88285">
        <ele>274</ele>
        <time>2017-05-07T08:53:08Z</time>
      </trkpt>
      <trkpt lat="45.98204" lon="4.88292">
        <ele>274</ele>
        <time>2017-05-07T08:53:09Z</time>
      </trkpt>
      <trkpt lat="45.98206" lon="4.88299">
        <ele>274</ele>
        <time>2017-05-07T08:53:10Z</time>
      </trkpt>
      <trkpt lat="45.98207" lon="4.88306">
        <ele>274</ele>
        <time>2017-05-07T08:53:11Z</time>
      </trkpt>
      <trkpt lat="45.98209" lon="4.88313">
        <ele>274</ele>
        <time>2017-05-07T08:53:12Z</time>
      </trkpt>
      <trkpt lat="45.9821" lon="4.88321">
        <ele>274</ele>
        <time>2017-05-07T08:53:13Z</time>
      </trkpt>
      <trkpt lat="45.9821" lon="4.8833">
        <ele>274</ele>
        <time>2017-05-07T08:53:14Z</time>
      </trkpt>
      <trkpt lat="45.9821" lon="4.88338">
        <ele>275</ele>
        <time>2017-05-07T08:53:15Z</time>
      </trkpt>
      <trkpt lat="45.9821" lon="4.88347">
        <ele>275</ele>
        <time>2017-05-07T08:53:16Z</time>
      </trkpt>
      <trkpt lat="45.98211" lon="4.88356">
        <ele>275</ele>
        <time>2017-05-07T08:53:17Z</time>
      </trkpt>
      <trkpt lat="45.98211" lon="4.88365">
        <ele>275</ele>
        <time>2017-05-07T08:53:18Z</time>
      </trkpt>
      <trkpt lat="45.98212" lon="4.88374">
        <ele>275</ele>
        <time>2017-05-07T08:53:19Z</time>
      </trkpt>
      <trkpt lat="45.98213" lon="4.88383">
        <ele>275</ele>
        <time>2017-05-07T08:53:20Z</time>
      </trkpt>
      <trkpt lat="45.98214" lon="4.88392">
        <ele>275</ele>
        <time>2017-05-07T08:53:21Z</time>
      </trkpt>
      <trkpt lat="45.98216" lon="4.88401">
        <ele>275</ele>
        <time>2017-05-07T08:53:22Z</time>
      </trkpt>
      <trkpt lat="45.98217" lon="4.8841">
        <ele>275</ele>
        <time>2017-05-07T08:53:23Z</time>
      </trkpt>
      <trkpt lat="45.98219" lon="4.88418">
        <ele>276</ele>
        <time>2017-05-07T08:53:24Z</time>
      </trkpt>
      <trkpt lat="45.98221" lon="4.88427">
        <ele>276</ele>
        <time>2017-05-07T08:53:25Z</time>
      </trkpt>
      <trkpt lat="45.98223" lon="4.88435">
        <ele>276</ele>
        <time>2017-05-07T08:53:26Z</time>
      </trkpt>
      <trkpt lat="45.98225" lon="4.88443">
        <ele>276</ele>
        <time>2017-05-07T08:53:27Z</time>
      </trkpt>
      <trkpt lat="45.98227" lon="4.88451">
        <ele>276</ele>
        <time>2017-05-07T08:53:28Z</time>
      </trkpt>
      <trkpt lat="45.98228" lon="4.88458">
        <ele>276</ele>
        <time>2017-05-07T08:53:29Z</time>
      </trkpt>
      <trkpt lat="45.9823" lon="4.88465">
        <ele>276</ele>
        <time>2017-05-07T08:53:30Z</time>
      </trkpt>
      <trkpt lat="45.98232" lon="4.88473">
        <ele>276</ele>
        <time>2017-05-07T08:53:31Z</time>
      </trkpt>
      <trkpt lat="45.98235" lon="4.8848">
        <ele>276</ele>
        <time>2017-05-07T08:53:32Z</time>
      </trkpt>
      <trkpt lat="45.98237" lon="4.88487">
        <ele>276</ele>
        <time>2017-05-07T08:53:33Z</time>
      </trkpt>
      <trkpt lat="45.98239" lon="4.88495">
        <ele>276</ele>
        <time>2017-05-07T08:53:34Z</time>
      </trkpt>
      <trkpt lat="45.98241" lon="4.88502">
        <ele>277</ele>
        <time>2017-05-07T08:53:35Z</time>
      </trkpt>
      <trkpt lat="45.98242" lon="4.88509">
        <ele>276</ele>
        <time>2017-05-07T08:53:36Z</time>
      </trkpt>
      <trkpt lat="45.98244" lon="4.88516">
        <ele>276</ele>
        <time>2017-05-07T08:53:37Z</time>
      </trkpt>
      <trkpt lat="45.98245" lon="4.88522">
        <ele>276</ele>
        <time>2017-05-07T08:53:38Z</time>
      </trkpt>
      <trkpt lat="45.98246" lon="4.88529">
        <ele>276</ele>
        <time>2017-05-07T08:53:39Z</time>
      </trkpt>
      <trkpt lat="45.98248" lon="4.88536">
        <ele>276</ele>
        <time>2017-05-07T08:53:40Z</time>
      </trkpt>
      <trkpt lat="45.9825" lon="4.88542">
        <ele>276</ele>
        <time>2017-05-07T08:53:41Z</time>
      </trkpt>
      <trkpt lat="45.98251" lon="4.88549">
        <ele>276</ele>
        <time>2017-05-07T08:53:42Z</time>
      </trkpt>
      <trkpt lat="45.98253" lon="4.88555">
        <ele>276</ele>
        <time>2017-05-07T08:53:43Z</time>
      </trkpt>
      <trkpt lat="45.98254" lon="4.88561">
        <ele>276</ele>
        <time>2017-05-07T08:53:44Z</time>
      </trkpt>
      <trkpt lat="45.98256" lon="4.88568">
        <ele>276</ele>
        <time>2017-05-07T08:53:45Z</time>
      </trkpt>
      <trkpt lat="45.98257" lon="4.88574">
        <ele>276</ele>
        <time>2017-05-07T08:53:46Z</time>
      </trkpt>
      <trkpt lat="45.98259" lon="4.8858">
        <ele>275</ele>
        <time>2017-05-07T08:53:47Z</time>
      </trkpt>
      <trkpt lat="45.9826" lon="4.88587">
        <ele>275</ele>
        <time>2017-05-07T08:53:48Z</time>
      </trkpt>
      <trkpt lat="45.98262" lon="4.88594">
        <ele>275</ele>
        <time>2017-05-07T08:53:49Z</time>
      </trkpt>
      <trkpt lat="45.98263" lon="4.886">
        <ele>275</ele>
        <time>2017-05-07T08:53:50Z</time>
      </trkpt>
      <trkpt lat="45.98265" lon="4.88607">
        <ele>275</ele>
        <time>2017-05-07T08:53:51Z</time>
      </trkpt>
      <trkpt lat="45.98266" lon="4.88613">
        <ele>276</ele>
        <time>2017-05-07T08:53:52Z</time>
      </trkpt>
      <trkpt lat="45.98267" lon="4.88619">
        <ele>276</ele>
        <time>2017-05-07T08:53:53Z</time>
      </trkpt>
      <trkpt lat="45.98268" lon="4.88625">
        <ele>276</ele>
        <time>2017-05-07T08:53:54Z</time>
      </trkpt>
      <trkpt lat="45.9827" lon="4.88632">
        <ele>276</ele>
        <time>2017-05-07T08:53:55Z</time>
      </trkpt>
      <trkpt lat="45.98272" lon="4.8864">
        <ele>276</ele>
        <time>2017-05-07T08:53:56Z</time>
      </trkpt>
      <trkpt lat="45.98274" lon="4.88647">
        <ele>276</ele>
        <time>2017-05-07T08:53:57Z</time>
      </trkpt>
      <trkpt lat="45.98275" lon="4.88655">
        <ele>276</ele>
        <time>2017-05-07T08:53:58Z</time>
      </trkpt>
      <trkpt lat="45.98277" lon="4.88663">
        <ele>275</ele>
        <time>2017-05-07T08:53:59Z</time>
      </trkpt>
      <trkpt lat="45.98278" lon="4.8867">
        <ele>276</ele>
        <time>2017-05-07T08:54:00Z</time>
      </trkpt>
      <trkpt lat="45.9828" lon="4.88678">
        <ele>276</ele>
        <time>2017-05-07T08:54:01Z</time>
      </trkpt>
      <trkpt lat="45.98282" lon="4.88686">
        <ele>276</ele>
        <time>2017-05-07T08:54:02Z</time>
      </trkpt>
      <trkpt lat="45.98284" lon="4.88694">
        <ele>276</ele>
        <time>2017-05-07T08:54:03Z</time>
      </trkpt>
      <trkpt lat="45.98286" lon="4.88702">
        <ele>276</ele>
        <time>2017-05-07T08:54:04Z</time>
      </trkpt>
      <trkpt lat="45.98288" lon="4.8871">
        <ele>276</ele>
        <time>2017-05-07T08:54:05Z</time>
      </trkpt>
      <trkpt lat="45.98289" lon="4.88717">
        <ele>276</ele>
        <time>2017-05-07T08:54:06Z</time>
      </trkpt>
      <trkpt lat="45.98291" lon="4.88725">
        <ele>276</ele>
        <time>2017-05-07T08:54:07Z</time>
      </trkpt>
      <trkpt lat="45.98293" lon="4.88732">
        <ele>276</ele>
        <time>2017-05-07T08:54:08Z</time>
      </trkpt>
      <trkpt lat="45.98295" lon="4.88738">
        <ele>276</ele>
        <time>2017-05-07T08:54:09Z</time>
      </trkpt>
      <trkpt lat="45.98297" lon="4.88745">
        <ele>276</ele>
        <time>2017-05-07T08:54:10Z</time>
      </trkpt>
      <trkpt lat="45.98299" lon="4.88751">
        <ele>276</ele>
        <time>2017-05-07T08:54:11Z</time>
      </trkpt>
      <trkpt lat="45.983" lon="4.88757">
        <ele>276</ele>
        <time>2017-05-07T08:54:12Z</time>
      </trkpt>
      <trkpt lat="45.98301" lon="4.88763">
        <ele>277</ele>
        <time>2017-05-07T08:54:13Z</time>
      </trkpt>
      <trkpt lat="45.98303" lon="4.88769">
        <ele>277</ele>
        <time>2017-05-07T08:54:14Z</time>
      </trkpt>
      <trkpt lat="45.98304" lon="4.88776">
        <ele>277</ele>
        <time>2017-05-07T08:54:15Z</time>
      </trkpt>
      <trkpt lat="45.98306" lon="4.88782">
        <ele>277</ele>
        <time>2017-05-07T08:54:16Z</time>
      </trkpt>
      <trkpt lat="45.98307" lon="4.88788">
        <ele>277</ele>
        <time>2017-05-07T08:54:17Z</time>
      </trkpt>
      <trkpt lat="45.98309" lon="4.88795">
        <ele>277</ele>
        <time>2017-05-07T08:54:18Z</time>
      </trkpt>
      <trkpt lat="45.98311" lon="4.88802">
        <ele>277</ele>
        <time>2017-05-07T08:54:19Z</time>
      </trkpt>
      <trkpt lat="45.98312" lon="4.88808">
        <ele>277</ele>
        <time>2017-05-07T08:54:20Z</time>
      </trkpt>
      <trkpt lat="45.98314" lon="4.88815">
        <ele>277</ele>
        <time>2017-05-07T08:54:21Z</time>
      </trkpt>
      <trkpt lat="45.98316" lon="4.88822">
        <ele>277</ele>
        <time>2017-05-07T08:54:22Z</time>
      </trkpt>
      <trkpt lat="45.98317" lon="4.88829">
        <ele>277</ele>
        <time>2017-05-07T08:54:23Z</time>
      </trkpt>
      <trkpt lat="45.98319" lon="4.88836">
        <ele>278</ele>
        <time>2017-05-07T08:54:24Z</time>
      </trkpt>
      <trkpt lat="45.98321" lon="4.88843">
        <ele>278</ele>
        <time>2017-05-07T08:54:25Z</time>
      </trkpt>
      <trkpt lat="45.98323" lon="4.8885">
        <ele>278</ele>
        <time>2017-05-07T08:54:26Z</time>
      </trkpt>
      <trkpt lat="45.98325" lon="4.88858">
        <ele>278</ele>
        <time>2017-05-07T08:54:27Z</time>
      </trkpt>
      <trkpt lat="45.98326" lon="4.88865">
        <ele>278</ele>
        <time>2017-05-07T08:54:28Z</time>
      </trkpt>
      <trkpt lat="45.98328" lon="4.88873">
        <ele>278</ele>
        <time>2017-05-07T08:54:29Z</time>
      </trkpt>
      <trkpt lat="45.9833" lon="4.8888">
        <ele>278</ele>
        <time>2017-05-07T08:54:30Z</time>
      </trkpt>
      <trkpt lat="45.98332" lon="4.88887">
        <ele>278</ele>
        <time>2017-05-07T08:54:31Z</time>
      </trkpt>
      <trkpt lat="45.98333" lon="4.88895">
        <ele>278</ele>
        <time>2017-05-07T08:54:32Z</time>
      </trkpt>
      <trkpt lat="45.98335" lon="4.88901">
        <ele>280</ele>
        <time>2017-05-07T08:54:33Z</time>
      </trkpt>
      <trkpt lat="45.98336" lon="4.88907">
        <ele>280</ele>
        <time>2017-05-07T08:54:34Z</time>
      </trkpt>
      <trkpt lat="45.98337" lon="4.88914">
        <ele>279</ele>
        <time>2017-05-07T08:54:35Z</time>
      </trkpt>
      <trkpt lat="45.9834" lon="4.88925">
        <ele>280</ele>
        <time>2017-05-07T08:54:37Z</time>
      </trkpt>
      <trkpt lat="45.98342" lon="4.88931">
        <ele>281</ele>
        <time>2017-05-07T08:54:38Z</time>
      </trkpt>
      <trkpt lat="45.98345" lon="4.88943">
        <ele>281</ele>
        <time>2017-05-07T08:54:40Z</time>
      </trkpt>
      <trkpt lat="45.98346" lon="4.88949">
        <ele>282</ele>
        <time>2017-05-07T08:54:41Z</time>
      </trkpt>
      <trkpt lat="45.98349" lon="4.8896">
        <ele>282</ele>
        <time>2017-05-07T08:54:43Z</time>
      </trkpt>
      <trkpt lat="45.98351" lon="4.88966">
        <ele>282</ele>
        <time>2017-05-07T08:54:44Z</time>
      </trkpt>
      <trkpt lat="45.98354" lon="4.88977">
        <ele>282</ele>
        <time>2017-05-07T08:54:46Z</time>
      </trkpt>
      <trkpt lat="45.98356" lon="4.88983">
        <ele>282</ele>
        <time>2017-05-07T08:54:47Z</time>
      </trkpt>
      <trkpt lat="45.98358" lon="4.88995">
        <ele>282</ele>
        <time>2017-05-07T08:54:49Z</time>
      </trkpt>
      <trkpt lat="45.98359" lon="4.89001">
        <ele>283</ele>
        <time>2017-05-07T08:54:50Z</time>
      </trkpt>
      <trkpt lat="45.98361" lon="4.89007">
        <ele>283</ele>
        <time>2017-05-07T08:54:51Z</time>
      </trkpt>
      <trkpt lat="45.98362" lon="4.89014">
        <ele>283</ele>
        <time>2017-05-07T08:54:52Z</time>
      </trkpt>
      <trkpt lat="45.98364" lon="4.89021">
        <ele>283</ele>
        <time>2017-05-07T08:54:53Z</time>
      </trkpt>
      <trkpt lat="45.98366" lon="4.89028">
        <ele>283</ele>
        <time>2017-05-07T08:54:54Z</time>
      </trkpt>
      <trkpt lat="45.98367" lon="4.89035">
        <ele>284</ele>
        <time>2017-05-07T08:54:55Z</time>
      </trkpt>
      <trkpt lat="45.98369" lon="4.89042">
        <ele>284</ele>
        <time>2017-05-07T08:54:56Z</time>
      </trkpt>
      <trkpt lat="45.98371" lon="4.89049">
        <ele>284</ele>
        <time>2017-05-07T08:54:57Z</time>
      </trkpt>
      <trkpt lat="45.98372" lon="4.89055">
        <ele>284</ele>
        <time>2017-05-07T08:54:58Z</time>
      </trkpt>
      <trkpt lat="45.98374" lon="4.89062">
        <ele>284</ele>
        <time>2017-05-07T08:54:59Z</time>
      </trkpt>
      <trkpt lat="45.98377" lon="4.89068">
        <ele>284</ele>
        <time>2017-05-07T08:55:00Z</time>
      </trkpt>
      <trkpt lat="45.98379" lon="4.89074">
        <ele>284</ele>
        <time>2017-05-07T08:55:01Z</time>
      </trkpt>
      <trkpt lat="45.98382" lon="4.8908">
        <ele>285</ele>
        <time>2017-05-07T08:55:02Z</time>
      </trkpt>
      <trkpt lat="45.98384" lon="4.89086">
        <ele>285</ele>
        <time>2017-05-07T08:55:03Z</time>
      </trkpt>
      <trkpt lat="45.98388" lon="4.89091">
        <ele>285</ele>
        <time>2017-05-07T08:55:04Z</time>
      </trkpt>
      <trkpt lat="45.98391" lon="4.89097">
        <ele>285</ele>
        <time>2017-05-07T08:55:05Z</time>
      </trkpt>
      <trkpt lat="45.98393" lon="4.89101">
        <ele>285</ele>
        <time>2017-05-07T08:55:06Z</time>
      </trkpt>
      <trkpt lat="45.98399" lon="4.89111">
        <ele>285</ele>
        <time>2017-05-07T08:55:08Z</time>
      </trkpt>
      <trkpt lat="45.98401" lon="4.89115">
        <ele>285</ele>
        <time>2017-05-07T08:55:09Z</time>
      </trkpt>
      <trkpt lat="45.98407" lon="4.89124">
        <ele>285</ele>
        <time>2017-05-07T08:55:11Z</time>
      </trkpt>
      <trkpt lat="45.98409" lon="4.89129">
        <ele>285</ele>
        <time>2017-05-07T08:55:12Z</time>
      </trkpt>
      <trkpt lat="45.98414" lon="4.89137">
        <ele>285</ele>
        <time>2017-05-07T08:55:14Z</time>
      </trkpt>
      <trkpt lat="45.98416" lon="4.89142">
        <ele>286</ele>
        <time>2017-05-07T08:55:15Z</time>
      </trkpt>
      <trkpt lat="45.98421" lon="4.8915">
        <ele>288</ele>
        <time>2017-05-07T08:55:17Z</time>
      </trkpt>
      <trkpt lat="45.98423" lon="4.89154">
        <ele>288</ele>
        <time>2017-05-07T08:55:18Z</time>
      </trkpt>
      <trkpt lat="45.98428" lon="4.89162">
        <ele>288</ele>
        <time>2017-05-07T08:55:20Z</time>
      </trkpt>
      <trkpt lat="45.9843" lon="4.89165">
        <ele>288</ele>
        <time>2017-05-07T08:55:21Z</time>
      </trkpt>
      <trkpt lat="45.98436" lon="4.89171">
        <ele>288</ele>
        <time>2017-05-07T08:55:23Z</time>
      </trkpt>
      <trkpt lat="45.98438" lon="4.89175">
        <ele>288</ele>
        <time>2017-05-07T08:55:24Z</time>
      </trkpt>
      <trkpt lat="45.98443" lon="4.89185">
        <ele>288</ele>
        <time>2017-05-07T08:55:26Z</time>
      </trkpt>
      <trkpt lat="45.98445" lon="4.8919">
        <ele>288</ele>
        <time>2017-05-07T08:55:27Z</time>
      </trkpt>
      <trkpt lat="45.9845" lon="4.89201">
        <ele>289</ele>
        <time>2017-05-07T08:55:29Z</time>
      </trkpt>
      <trkpt lat="45.98452" lon="4.89206">
        <ele>289</ele>
        <time>2017-05-07T08:55:30Z</time>
      </trkpt>
      <trkpt lat="45.98457" lon="4.89216">
        <ele>289</ele>
        <time>2017-05-07T08:55:32Z</time>
      </trkpt>
      <trkpt lat="45.98459" lon="4.89221">
        <ele>289</ele>
        <time>2017-05-07T08:55:33Z</time>
      </trkpt>
      <trkpt lat="45.98464" lon="4.8923">
        <ele>289</ele>
        <time>2017-05-07T08:55:35Z</time>
      </trkpt>
      <trkpt lat="45.98467" lon="4.89234">
        <ele>289</ele>
        <time>2017-05-07T08:55:36Z</time>
      </trkpt>
      <trkpt lat="45.98472" lon="4.89242">
        <ele>289</ele>
        <time>2017-05-07T08:55:38Z</time>
      </trkpt>
      <trkpt lat="45.98474" lon="4.89246">
        <ele>289</ele>
        <time>2017-05-07T08:55:39Z</time>
      </trkpt>
      <trkpt lat="45.98478" lon="4.89254">
        <ele>291</ele>
        <time>2017-05-07T08:55:41Z</time>
      </trkpt>
      <trkpt lat="45.98481" lon="4.89259">
        <ele>291</ele>
        <time>2017-05-07T08:55:42Z</time>
      </trkpt>
      <trkpt lat="45.98484" lon="4.89263">
        <ele>291</ele>
        <time>2017-05-07T08:55:43Z</time>
      </trkpt>
      <trkpt lat="45.98487" lon="4.89268">
        <ele>291</ele>
        <time>2017-05-07T08:55:44Z</time>
      </trkpt>
      <trkpt lat="45.98491" lon="4.89273">
        <ele>292</ele>
        <time>2017-05-07T08:55:45Z</time>
      </trkpt>
      <trkpt lat="45.98494" lon="4.89278">
        <ele>292</ele>
        <time>2017-05-07T08:55:46Z</time>
      </trkpt>
      <trkpt lat="45.98497" lon="4.89283">
        <ele>292</ele>
        <time>2017-05-07T08:55:47Z</time>
      </trkpt>
      <trkpt lat="45.98501" lon="4.89288">
        <ele>292</ele>
        <time>2017-05-07T08:55:48Z</time>
      </trkpt>
      <trkpt lat="45.98505" lon="4.89293">
        <ele>292</ele>
        <time>2017-05-07T08:55:49Z</time>
      </trkpt>
      <trkpt lat="45.98508" lon="4.89298">
        <ele>293</ele>
        <time>2017-05-07T08:55:50Z</time>
      </trkpt>
      <trkpt lat="45.98511" lon="4.89304">
        <ele>293</ele>
        <time>2017-05-07T08:55:51Z</time>
      </trkpt>
      <trkpt lat="45.98514" lon="4.89309">
        <ele>293</ele>
        <time>2017-05-07T08:55:52Z</time>
      </trkpt>
      <trkpt lat="45.98519" lon="4.89319">
        <ele>293</ele>
        <time>2017-05-07T08:55:54Z</time>
      </trkpt>
      <trkpt lat="45.98522" lon="4.89324">
        <ele>293</ele>
        <time>2017-05-07T08:55:55Z</time>
      </trkpt>
      <trkpt lat="45.98528" lon="4.89332">
        <ele>293</ele>
        <time>2017-05-07T08:55:57Z</time>
      </trkpt>
      <trkpt lat="45.98531" lon="4.89336">
        <ele>295</ele>
        <time>2017-05-07T08:55:58Z</time>
      </trkpt>
      <trkpt lat="45.98537" lon="4.89345">
        <ele>295</ele>
        <time>2017-05-07T08:56:00Z</time>
      </trkpt>
      <trkpt lat="45.9854" lon="4.89349">
        <ele>295</ele>
        <time>2017-05-07T08:56:01Z</time>
      </trkpt>
      <trkpt lat="45.98546" lon="4.89358">
        <ele>295</ele>
        <time>2017-05-07T08:56:03Z</time>
      </trkpt>
      <trkpt lat="45.9855" lon="4.89363">
        <ele>295</ele>
        <time>2017-05-07T08:56:04Z</time>
      </trkpt>
      <trkpt lat="45.98553" lon="4.89367">
        <ele>295</ele>
        <time>2017-05-07T08:56:05Z</time>
      </trkpt>
      <trkpt lat="45.98557" lon="4.89372">
        <ele>295</ele>
        <time>2017-05-07T08:56:06Z</time>
      </trkpt>
      <trkpt lat="45.9856" lon="4.89376">
        <ele>295</ele>
        <time>2017-05-07T08:56:07Z</time>
      </trkpt>
      <trkpt lat="45.98564" lon="4.8938">
        <ele>295</ele>
        <time>2017-05-07T08:56:08Z</time>
      </trkpt>
      <trkpt lat="45.98568" lon="4.89385">
        <ele>295</ele>
        <time>2017-05-07T08:56:09Z</time>
      </trkpt>
      <trkpt lat="45.98571" lon="4.89389">
        <ele>295</ele>
        <time>2017-05-07T08:56:10Z</time>
      </trkpt>
      <trkpt lat="45.98574" lon="4.89393">
        <ele>295</ele>
        <time>2017-05-07T08:56:11Z</time>
      </trkpt>
      <trkpt lat="45.98578" lon="4.89398">
        <ele>295</ele>
        <time>2017-05-07T08:56:12Z</time>
      </trkpt>
      <trkpt lat="45.98581" lon="4.89402">
        <ele>295</ele>
        <time>2017-05-07T08:56:13Z</time>
      </trkpt>
      <trkpt lat="45.98585" lon="4.89407">
        <ele>293</ele>
        <time>2017-05-07T08:56:14Z</time>
      </trkpt>
      <trkpt lat="45.98588" lon="4.89411">
        <ele>293</ele>
        <time>2017-05-07T08:56:15Z</time>
      </trkpt>
      <trkpt lat="45.98593" lon="4.89415">
        <ele>293</ele>
        <time>2017-05-07T08:56:16Z</time>
      </trkpt>
      <trkpt lat="45.98597" lon="4.8942">
        <ele>293</ele>
        <time>2017-05-07T08:56:17Z</time>
      </trkpt>
      <trkpt lat="45.98602" lon="4.89425">
        <ele>292</ele>
        <time>2017-05-07T08:56:18Z</time>
      </trkpt>
      <trkpt lat="45.98607" lon="4.8943">
        <ele>292</ele>
        <time>2017-05-07T08:56:19Z</time>
      </trkpt>
      <trkpt lat="45.98612" lon="4.89434">
        <ele>292</ele>
        <time>2017-05-07T08:56:20Z</time>
      </trkpt>
      <trkpt lat="45.98616" lon="4.89439">
        <ele>292</ele>
        <time>2017-05-07T08:56:21Z</time>
      </trkpt>
      <trkpt lat="45.98621" lon="4.89443">
        <ele>291</ele>
        <time>2017-05-07T08:56:22Z</time>
      </trkpt>
      <trkpt lat="45.98625" lon="4.89447">
        <ele>291</ele>
        <time>2017-05-07T08:56:23Z</time>
      </trkpt>
      <trkpt lat="45.98629" lon="4.89452">
        <ele>291</ele>
        <time>2017-05-07T08:56:24Z</time>
      </trkpt>
      <trkpt lat="45.98633" lon="4.89456">
        <ele>291</ele>
        <time>2017-05-07T08:56:25Z</time>
      </trkpt>
      <trkpt lat="45.98636" lon="4.8946">
        <ele>291</ele>
        <time>2017-05-07T08:56:26Z</time>
      </trkpt>
      <trkpt lat="45.9864" lon="4.89464">
        <ele>291</ele>
        <time>2017-05-07T08:56:27Z</time>
      </trkpt>
      <trkpt lat="45.98645" lon="4.89468">
        <ele>291</ele>
        <time>2017-05-07T08:56:28Z</time>
      </trkpt>
      <trkpt lat="45.98649" lon="4.89472">
        <ele>291</ele>
        <time>2017-05-07T08:56:29Z</time>
      </trkpt>
      <trkpt lat="45.98652" lon="4.89476">
        <ele>290</ele>
        <time>2017-05-07T08:56:30Z</time>
      </trkpt>
      <trkpt lat="45.98656" lon="4.89479">
        <ele>290</ele>
        <time>2017-05-07T08:56:31Z</time>
      </trkpt>
      <trkpt lat="45.9866" lon="4.89483">
        <ele>290</ele>
        <time>2017-05-07T08:56:32Z</time>
      </trkpt>
      <trkpt lat="45.98664" lon="4.89488">
        <ele>290</ele>
        <time>2017-05-07T08:56:33Z</time>
      </trkpt>
      <trkpt lat="45.98667" lon="4.89492">
        <ele>289</ele>
        <time>2017-05-07T08:56:34Z</time>
      </trkpt>
      <trkpt lat="45.98671" lon="4.89498">
        <ele>289</ele>
        <time>2017-05-07T08:56:35Z</time>
      </trkpt>
      <trkpt lat="45.98674" lon="4.89503">
        <ele>289</ele>
        <time>2017-05-07T08:56:36Z</time>
      </trkpt>
      <trkpt lat="45.98678" lon="4.89508">
        <ele>289</ele>
        <time>2017-05-07T08:56:37Z</time>
      </trkpt>
      <trkpt lat="45.98682" lon="4.89514">
        <ele>289</ele>
        <time>2017-05-07T08:56:38Z</time>
      </trkpt>
      <trkpt lat="45.98686" lon="4.89519">
        <ele>289</ele>
        <time>2017-05-07T08:56:39Z</time>
      </trkpt>
      <trkpt lat="45.9869" lon="4.89525">
        <ele>289</ele>
        <time>2017-05-07T08:56:40Z</time>
      </trkpt>
      <trkpt lat="45.98694" lon="4.8953">
        <ele>289</ele>
        <time>2017-05-07T08:56:41Z</time>
      </trkpt>
      <trkpt lat="45.98698" lon="4.89536">
        <ele>289</ele>
        <time>2017-05-07T08:56:42Z</time>
      </trkpt>
      <trkpt lat="45.98702" lon="4.89541">
        <ele>289</ele>
        <time>2017-05-07T08:56:43Z</time>
      </trkpt>
      <trkpt lat="45.98705" lon="4.89546">
        <ele>290</ele>
        <time>2017-05-07T08:56:44Z</time>
      </trkpt>
      <trkpt lat="45.98709" lon="4.8955">
        <ele>290</ele>
        <time>2017-05-07T08:56:45Z</time>
      </trkpt>
      <trkpt lat="45.98712" lon="4.89555">
        <ele>290</ele>
        <time>2017-05-07T08:56:46Z</time>
      </trkpt>
      <trkpt lat="45.98719" lon="4.89563">
        <ele>290</ele>
        <time>2017-05-07T08:56:48Z</time>
      </trkpt>
      <trkpt lat="45.98722" lon="4.89567">
        <ele>290</ele>
        <time>2017-05-07T08:56:49Z</time>
      </trkpt>
      <trkpt lat="45.98728" lon="4.89575">
        <ele>290</ele>
        <time>2017-05-07T08:56:51Z</time>
      </trkpt>
      <trkpt lat="45.98731" lon="4.89579">
        <ele>290</ele>
        <time>2017-05-07T08:56:52Z</time>
      </trkpt>
      <trkpt lat="45.98734" lon="4.89584">
        <ele>290</ele>
        <time>2017-05-07T08:56:53Z</time>
      </trkpt>
      <trkpt lat="45.98738" lon="4.8959">
        <ele>291</ele>
        <time>2017-05-07T08:56:54Z</time>
      </trkpt>
      <trkpt lat="45.98741" lon="4.89596">
        <ele>291</ele>
        <time>2017-05-07T08:56:55Z</time>
      </trkpt>
      <trkpt lat="45.98745" lon="4.89601">
        <ele>290</ele>
        <time>2017-05-07T08:56:56Z</time>
      </trkpt>
      <trkpt lat="45.98749" lon="4.89607">
        <ele>290</ele>
        <time>2017-05-07T08:56:57Z</time>
      </trkpt>
      <trkpt lat="45.98753" lon="4.89612">
        <ele>291</ele>
        <time>2017-05-07T08:56:58Z</time>
      </trkpt>
      <trkpt lat="45.98757" lon="4.89618">
        <ele>291</ele>
        <time>2017-05-07T08:56:59Z</time>
      </trkpt>
      <trkpt lat="45.98761" lon="4.89623">
        <ele>291</ele>
        <time>2017-05-07T08:57:00Z</time>
      </trkpt>
      <trkpt lat="45.98765" lon="4.89629">
        <ele>291</ele>
        <time>2017-05-07T08:57:01Z</time>
      </trkpt>
      <trkpt lat="45.98769" lon="4.89634">
        <ele>291</ele>
        <time>2017-05-07T08:57:02Z</time>
      </trkpt>
      <trkpt lat="45.98773" lon="4.89639">
        <ele>291</ele>
        <time>2017-05-07T08:57:03Z</time>
      </trkpt>
      <trkpt lat="45.98776" lon="4.89644">
        <ele>291</ele>
        <time>2017-05-07T08:57:04Z</time>
      </trkpt>
      <trkpt lat="45.9878" lon="4.89648">
        <ele>291</ele>
        <time>2017-05-07T08:57:05Z</time>
      </trkpt>
      <trkpt lat="45.98783" lon="4.89653">
        <ele>291</ele>
        <time>2017-05-07T08:57:06Z</time>
      </trkpt>
      <trkpt lat="45.98789" lon="4.89661">
        <ele>291</ele>
        <time>2017-05-07T08:57:08Z</time>
      </trkpt>
      <trkpt lat="45.98792" lon="4.89665">
        <ele>291</ele>
        <time>2017-05-07T08:57:09Z</time>
      </trkpt>
      <trkpt lat="45.98799" lon="4.89672">
        <ele>291</ele>
        <time>2017-05-07T08:57:11Z</time>
      </trkpt>
      <trkpt lat="45.98802" lon="4.89676">
        <ele>291</ele>
        <time>2017-05-07T08:57:12Z</time>
      </trkpt>
      <trkpt lat="45.98809" lon="4.89683">
        <ele>292</ele>
        <time>2017-05-07T08:57:14Z</time>
      </trkpt>
      <trkpt lat="45.98813" lon="4.89687">
        <ele>292</ele>
        <time>2017-05-07T08:57:15Z</time>
      </trkpt>
      <trkpt lat="45.98817" lon="4.8969">
        <ele>292</ele>
        <time>2017-05-07T08:57:16Z</time>
      </trkpt>
      <trkpt lat="45.9882" lon="4.89694">
        <ele>292</ele>
        <time>2017-05-07T08:57:17Z</time>
      </trkpt>
      <trkpt lat="45.98828" lon="4.89701">
        <ele>292</ele>
        <time>2017-05-07T08:57:19Z</time>
      </trkpt>
      <trkpt lat="45.98831" lon="4.89704">
        <ele>292</ele>
        <time>2017-05-07T08:57:20Z</time>
      </trkpt>
      <trkpt lat="45.98839" lon="4.8971">
        <ele>293</ele>
        <time>2017-05-07T08:57:22Z</time>
      </trkpt>
      <trkpt lat="45.98843" lon="4.89713">
        <ele>293</ele>
        <time>2017-05-07T08:57:23Z</time>
      </trkpt>
      <trkpt lat="45.98848" lon="4.89717">
        <ele>293</ele>
        <time>2017-05-07T08:57:24Z</time>
      </trkpt>
      <trkpt lat="45.98852" lon="4.89721">
        <ele>293</ele>
        <time>2017-05-07T08:57:25Z</time>
      </trkpt>
      <trkpt lat="45.98857" lon="4.89725">
        <ele>293</ele>
        <time>2017-05-07T08:57:26Z</time>
      </trkpt>
      <trkpt lat="45.98861" lon="4.89729">
        <ele>293</ele>
        <time>2017-05-07T08:57:27Z</time>
      </trkpt>
      <trkpt lat="45.98866" lon="4.89733">
        <ele>293</ele>
        <time>2017-05-07T08:57:28Z</time>
      </trkpt>
      <trkpt lat="45.98871" lon="4.89737">
        <ele>293</ele>
        <time>2017-05-07T08:57:29Z</time>
      </trkpt>
      <trkpt lat="45.98876" lon="4.8974">
        <ele>293</ele>
        <time>2017-05-07T08:57:30Z</time>
      </trkpt>
      <trkpt lat="45.98881" lon="4.89744">
        <ele>293</ele>
        <time>2017-05-07T08:57:31Z</time>
      </trkpt>
      <trkpt lat="45.98885" lon="4.89748">
        <ele>293</ele>
        <time>2017-05-07T08:57:32Z</time>
      </trkpt>
      <trkpt lat="45.9889" lon="4.89751">
        <ele>293</ele>
        <time>2017-05-07T08:57:33Z</time>
      </trkpt>
      <trkpt lat="45.98895" lon="4.89754">
        <ele>293</ele>
        <time>2017-05-07T08:57:34Z</time>
      </trkpt>
      <trkpt lat="45.98899" lon="4.89757">
        <ele>293</ele>
        <time>2017-05-07T08:57:35Z</time>
      </trkpt>
      <trkpt lat="45.98903" lon="4.8976">
        <ele>293</ele>
        <time>2017-05-07T08:57:36Z</time>
      </trkpt>
      <trkpt lat="45.98907" lon="4.89763">
        <ele>293</ele>
        <time>2017-05-07T08:57:37Z</time>
      </trkpt>
      <trkpt lat="45.98912" lon="4.89766">
        <ele>293</ele>
        <time>2017-05-07T08:57:38Z</time>
      </trkpt>
      <trkpt lat="45.98916" lon="4.89768">
        <ele>293</ele>
        <time>2017-05-07T08:57:39Z</time>
      </trkpt>
      <trkpt lat="45.9892" lon="4.89771">
        <ele>293</ele>
        <time>2017-05-07T08:57:40Z</time>
      </trkpt>
      <trkpt lat="45.98925" lon="4.89775">
        <ele>293</ele>
        <time>2017-05-07T08:57:41Z</time>
      </trkpt>
      <trkpt lat="45.98929" lon="4.89778">
        <ele>293</ele>
        <time>2017-05-07T08:57:42Z</time>
      </trkpt>
      <trkpt lat="45.98934" lon="4.89781">
        <ele>293</ele>
        <time>2017-05-07T08:57:43Z</time>
      </trkpt>
      <trkpt lat="45.98939" lon="4.89785">
        <ele>293</ele>
        <time>2017-05-07T08:57:44Z</time>
      </trkpt>
      <trkpt lat="45.98943" lon="4.89788">
        <ele>293</ele>
        <time>2017-05-07T08:57:45Z</time>
      </trkpt>
      <trkpt lat="45.98948" lon="4.89792">
        <ele>293</ele>
        <time>2017-05-07T08:57:46Z</time>
      </trkpt>
      <trkpt lat="45.98953" lon="4.89795">
        <ele>293</ele>
        <time>2017-05-07T08:57:47Z</time>
      </trkpt>
      <trkpt lat="45.98957" lon="4.898">
        <ele>293</ele>
        <time>2017-05-07T08:57:48Z</time>
      </trkpt>
      <trkpt lat="45.98961" lon="4.89804">
        <ele>293</ele>
        <time>2017-05-07T08:57:49Z</time>
      </trkpt>
      <trkpt lat="45.98965" lon="4.89808">
        <ele>293</ele>
        <time>2017-05-07T08:57:50Z</time>
      </trkpt>
      <trkpt lat="45.98968" lon="4.89812">
        <ele>293</ele>
        <time>2017-05-07T08:57:51Z</time>
      </trkpt>
      <trkpt lat="45.98972" lon="4.89816">
        <ele>293</ele>
        <time>2017-05-07T08:57:52Z</time>
      </trkpt>
      <trkpt lat="45.98976" lon="4.8982">
        <ele>293</ele>
        <time>2017-05-07T08:57:53Z</time>
      </trkpt>
      <trkpt lat="45.9898" lon="4.89825">
        <ele>293</ele>
        <time>2017-05-07T08:57:54Z</time>
      </trkpt>
      <trkpt lat="45.98984" lon="4.89829">
        <ele>293</ele>
        <time>2017-05-07T08:57:55Z</time>
      </trkpt>
      <trkpt lat="45.98987" lon="4.89834">
        <ele>293</ele>
        <time>2017-05-07T08:57:56Z</time>
      </trkpt>
      <trkpt lat="45.98991" lon="4.89838">
        <ele>293</ele>
        <time>2017-05-07T08:57:57Z</time>
      </trkpt>
      <trkpt lat="45.98994" lon="4.89843">
        <ele>293</ele>
        <time>2017-05-07T08:57:58Z</time>
      </trkpt>
      <trkpt lat="45.98998" lon="4.89847">
        <ele>293</ele>
        <time>2017-05-07T08:57:59Z</time>
      </trkpt>
      <trkpt lat="45.99005" lon="4.89854">
        <ele>293</ele>
        <time>2017-05-07T08:58:01Z</time>
      </trkpt>
      <trkpt lat="45.99008" lon="4.8986">
        <ele>293</ele>
        <time>2017-05-07T08:58:02Z</time>
      </trkpt>
      <trkpt lat="45.99011" lon="4.89865">
        <ele>293</ele>
        <time>2017-05-07T08:58:03Z</time>
      </trkpt>
      <trkpt lat="45.99015" lon="4.8987">
        <ele>293</ele>
        <time>2017-05-07T08:58:04Z</time>
      </trkpt>
      <trkpt lat="45.99019" lon="4.89875">
        <ele>293</ele>
        <time>2017-05-07T08:58:05Z</time>
      </trkpt>
      <trkpt lat="45.99022" lon="4.89881">
        <ele>293</ele>
        <time>2017-05-07T08:58:06Z</time>
      </trkpt>
      <trkpt lat="45.99026" lon="4.89886">
        <ele>293</ele>
        <time>2017-05-07T08:58:07Z</time>
      </trkpt>
      <trkpt lat="45.9903" lon="4.89891">
        <ele>293</ele>
        <time>2017-05-07T08:58:08Z</time>
      </trkpt>
      <trkpt lat="45.99033" lon="4.89896">
        <ele>293</ele>
        <time>2017-05-07T08:58:09Z</time>
      </trkpt>
      <trkpt lat="45.99037" lon="4.89901">
        <ele>293</ele>
        <time>2017-05-07T08:58:10Z</time>
      </trkpt>
      <trkpt lat="45.99043" lon="4.8991">
        <ele>293</ele>
        <time>2017-05-07T08:58:12Z</time>
      </trkpt>
      <trkpt lat="45.99046" lon="4.89914">
        <ele>293</ele>
        <time>2017-05-07T08:58:13Z</time>
      </trkpt>
      <trkpt lat="45.9905" lon="4.89918">
        <ele>294</ele>
        <time>2017-05-07T08:58:14Z</time>
      </trkpt>
      <trkpt lat="45.99053" lon="4.89922">
        <ele>294</ele>
        <time>2017-05-07T08:58:15Z</time>
      </trkpt>
      <trkpt lat="45.99057" lon="4.89927">
        <ele>294</ele>
        <time>2017-05-07T08:58:16Z</time>
      </trkpt>
      <trkpt lat="45.9906" lon="4.89932">
        <ele>294</ele>
        <time>2017-05-07T08:58:17Z</time>
      </trkpt>
      <trkpt lat="45.99063" lon="4.89936">
        <ele>294</ele>
        <time>2017-05-07T08:58:18Z</time>
      </trkpt>
      <trkpt lat="45.99066" lon="4.89941">
        <ele>294</ele>
        <time>2017-05-07T08:58:19Z</time>
      </trkpt>
      <trkpt lat="45.99069" lon="4.89945">
        <ele>294</ele>
        <time>2017-05-07T08:58:20Z</time>
      </trkpt>
      <trkpt lat="45.99072" lon="4.8995">
        <ele>294</ele>
        <time>2017-05-07T08:58:21Z</time>
      </trkpt>
      <trkpt lat="45.99076" lon="4.89954">
        <ele>294</ele>
        <time>2017-05-07T08:58:22Z</time>
      </trkpt>
      <trkpt lat="45.99079" lon="4.89959">
        <ele>294</ele>
        <time>2017-05-07T08:58:23Z</time>
      </trkpt>
      <trkpt lat="45.99086" lon="4.89967">
        <ele>295</ele>
        <time>2017-05-07T08:58:25Z</time>
      </trkpt>
      <trkpt lat="45.99089" lon="4.89971">
        <ele>295</ele>
        <time>2017-05-07T08:58:26Z</time>
      </trkpt>
      <trkpt lat="45.99095" lon="4.89979">
        <ele>295</ele>
        <time>2017-05-07T08:58:28Z</time>
      </trkpt>
      <trkpt lat="45.99098" lon="4.89984">
        <ele>295</ele>
        <time>2017-05-07T08:58:29Z</time>
      </trkpt>
      <trkpt lat="45.99101" lon="4.89989">
        <ele>295</ele>
        <time>2017-05-07T08:58:30Z</time>
      </trkpt>
      <trkpt lat="45.99105" lon="4.89994">
        <ele>295</ele>
        <time>2017-05-07T08:58:31Z</time>
      </trkpt>
      <trkpt lat="45.99109" lon="4.89998">
        <ele>295</ele>
        <time>2017-05-07T08:58:32Z</time>
      </trkpt>
      <trkpt lat="45.99113" lon="4.90003">
        <ele>296</ele>
        <time>2017-05-07T08:58:33Z</time>
      </trkpt>
      <trkpt lat="45.99117" lon="4.90008">
        <ele>296</ele>
        <time>2017-05-07T08:58:34Z</time>
      </trkpt>
      <trkpt lat="45.99121" lon="4.90013">
        <ele>296</ele>
        <time>2017-05-07T08:58:35Z</time>
      </trkpt>
      <trkpt lat="45.99125" lon="4.90018">
        <ele>296</ele>
        <time>2017-05-07T08:58:36Z</time>
      </trkpt>
      <trkpt lat="45.99129" lon="4.90023">
        <ele>296</ele>
        <time>2017-05-07T08:58:37Z</time>
      </trkpt>
      <trkpt lat="45.99133" lon="4.90028">
        <ele>297</ele>
        <time>2017-05-07T08:58:38Z</time>
      </trkpt>
      <trkpt lat="45.99136" lon="4.90033">
        <ele>297</ele>
        <time>2017-05-07T08:58:39Z</time>
      </trkpt>
      <trkpt lat="45.9914" lon="4.90037">
        <ele>297</ele>
        <time>2017-05-07T08:58:40Z</time>
      </trkpt>
      <trkpt lat="45.99143" lon="4.90042">
        <ele>297</ele>
        <time>2017-05-07T08:58:41Z</time>
      </trkpt>
      <trkpt lat="45.99147" lon="4.90046">
        <ele>297</ele>
        <time>2017-05-07T08:58:42Z</time>
      </trkpt>
      <trkpt lat="45.9915" lon="4.90051">
        <ele>297</ele>
        <time>2017-05-07T08:58:43Z</time>
      </trkpt>
      <trkpt lat="45.99154" lon="4.90055">
        <ele>297</ele>
        <time>2017-05-07T08:58:44Z</time>
      </trkpt>
      <trkpt lat="45.99157" lon="4.9006">
        <ele>297</ele>
        <time>2017-05-07T08:58:45Z</time>
      </trkpt>
      <trkpt lat="45.99161" lon="4.90064">
        <ele>297</ele>
        <time>2017-05-07T08:58:46Z</time>
      </trkpt>
      <trkpt lat="45.99164" lon="4.90068">
        <ele>297</ele>
        <time>2017-05-07T08:58:47Z</time>
      </trkpt>
      <trkpt lat="45.99167" lon="4.90073">
        <ele>298</ele>
        <time>2017-05-07T08:58:48Z</time>
      </trkpt>
      <trkpt lat="45.99171" lon="4.90078">
        <ele>298</ele>
        <time>2017-05-07T08:58:49Z</time>
      </trkpt>
      <trkpt lat="45.99174" lon="4.90082">
        <ele>298</ele>
        <time>2017-05-07T08:58:50Z</time>
      </trkpt>
      <trkpt lat="45.99178" lon="4.90087">
        <ele>298</ele>
        <time>2017-05-07T08:58:51Z</time>
      </trkpt>
      <trkpt lat="45.99181" lon="4.90092">
        <ele>297</ele>
        <time>2017-05-07T08:58:52Z</time>
      </trkpt>
      <trkpt lat="45.99184" lon="4.90097">
        <ele>297</ele>
        <time>2017-05-07T08:58:53Z</time>
      </trkpt>
      <trkpt lat="45.99187" lon="4.90102">
        <ele>297</ele>
        <time>2017-05-07T08:58:54Z</time>
      </trkpt>
      <trkpt lat="45.9919" lon="4.90107">
        <ele>297</ele>
        <time>2017-05-07T08:58:55Z</time>
      </trkpt>
      <trkpt lat="45.99194" lon="4.90112">
        <ele>297</ele>
        <time>2017-05-07T08:58:56Z</time>
      </trkpt>
      <trkpt lat="45.99198" lon="4.90117">
        <ele>297</ele>
        <time>2017-05-07T08:58:57Z</time>
      </trkpt>
      <trkpt lat="45.99202" lon="4.90122">
        <ele>297</ele>
        <time>2017-05-07T08:58:58Z</time>
      </trkpt>
      <trkpt lat="45.99205" lon="4.90127">
        <ele>297</ele>
        <time>2017-05-07T08:58:59Z</time>
      </trkpt>
      <trkpt lat="45.99208" lon="4.90132">
        <ele>297</ele>
        <time>2017-05-07T08:59:00Z</time>
      </trkpt>
      <trkpt lat="45.99212" lon="4.90137">
        <ele>297</ele>
        <time>2017-05-07T08:59:01Z</time>
      </trkpt>
      <trkpt lat="45.99215" lon="4.90141">
        <ele>297</ele>
        <time>2017-05-07T08:59:02Z</time>
      </trkpt>
      <trkpt lat="45.99219" lon="4.90145">
        <ele>297</ele>
        <time>2017-05-07T08:59:03Z</time>
      </trkpt>
      <trkpt lat="45.99222" lon="4.9015">
        <ele>297</ele>
        <time>2017-05-07T08:59:04Z</time>
      </trkpt>
      <trkpt lat="45.99225" lon="4.90155">
        <ele>297</ele>
        <time>2017-05-07T08:59:05Z</time>
      </trkpt>
      <trkpt lat="45.99228" lon="4.90159">
        <ele>297</ele>
        <time>2017-05-07T08:59:06Z</time>
      </trkpt>
      <trkpt lat="45.99232" lon="4.90164">
        <ele>297</ele>
        <time>2017-05-07T08:59:07Z</time>
      </trkpt>
      <trkpt lat="45.99236" lon="4.90169">
        <ele>297</ele>
        <time>2017-05-07T08:59:08Z</time>
      </trkpt>
      <trkpt lat="45.9924" lon="4.90173">
        <ele>297</ele>
        <time>2017-05-07T08:59:09Z</time>
      </trkpt>
      <trkpt lat="45.99243" lon="4.90178">
        <ele>297</ele>
        <time>2017-05-07T08:59:10Z</time>
      </trkpt>
      <trkpt lat="45.99246" lon="4.90183">
        <ele>297</ele>
        <time>2017-05-07T08:59:11Z</time>
      </trkpt>
      <trkpt lat="45.99253" lon="4.90191">
        <ele>298</ele>
        <time>2017-05-07T08:59:13Z</time>
      </trkpt>
      <trkpt lat="45.99257" lon="4.90195">
        <ele>298</ele>
        <time>2017-05-07T08:59:14Z</time>
      </trkpt>
      <trkpt lat="45.9926" lon="4.902">
        <ele>298</ele>
        <time>2017-05-07T08:59:15Z</time>
      </trkpt>
      <trkpt lat="45.99264" lon="4.90204">
        <ele>298</ele>
        <time>2017-05-07T08:59:16Z</time>
      </trkpt>
      <trkpt lat="45.99268" lon="4.90209">
        <ele>298</ele>
        <time>2017-05-07T08:59:17Z</time>
      </trkpt>
      <trkpt lat="45.99272" lon="4.90215">
        <ele>298</ele>
        <time>2017-05-07T08:59:18Z</time>
      </trkpt>
      <trkpt lat="45.99276" lon="4.90221">
        <ele>298</ele>
        <time>2017-05-07T08:59:19Z</time>
      </trkpt>
      <trkpt lat="45.9928" lon="4.90227">
        <ele>298</ele>
        <time>2017-05-07T08:59:20Z</time>
      </trkpt>
      <trkpt lat="45.99284" lon="4.90232">
        <ele>298</ele>
        <time>2017-05-07T08:59:21Z</time>
      </trkpt>
      <trkpt lat="45.99288" lon="4.90237">
        <ele>298</ele>
        <time>2017-05-07T08:59:22Z</time>
      </trkpt>
      <trkpt lat="45.99292" lon="4.90242">
        <ele>298</ele>
        <time>2017-05-07T08:59:23Z</time>
      </trkpt>
      <trkpt lat="45.99295" lon="4.90247">
        <ele>298</ele>
        <time>2017-05-07T08:59:24Z</time>
      </trkpt>
      <trkpt lat="45.99298" lon="4.90252">
        <ele>299</ele>
        <time>2017-05-07T08:59:25Z</time>
      </trkpt>
      <trkpt lat="45.99302" lon="4.90257">
        <ele>299</ele>
        <time>2017-05-07T08:59:26Z</time>
      </trkpt>
      <trkpt lat="45.99307" lon="4.90265">
        <ele>299</ele>
        <time>2017-05-07T08:59:28Z</time>
      </trkpt>
      <trkpt lat="45.99309" lon="4.90269">
        <ele>299</ele>
        <time>2017-05-07T08:59:29Z</time>
      </trkpt>
      <trkpt lat="45.99311" lon="4.90278">
        <ele>299</ele>
        <time>2017-05-07T08:59:31Z</time>
      </trkpt>
      <trkpt lat="45.99312" lon="4.90282">
        <ele>299</ele>
        <time>2017-05-07T08:59:32Z</time>
      </trkpt>
      <trkpt lat="45.99316" lon="4.9029">
        <ele>299</ele>
        <time>2017-05-07T08:59:34Z</time>
      </trkpt>
      <trkpt lat="45.9932" lon="4.90293">
        <ele>299</ele>
        <time>2017-05-07T08:59:35Z</time>
      </trkpt>
      <trkpt lat="45.99325" lon="4.90293">
        <ele>299</ele>
        <time>2017-05-07T08:59:36Z</time>
      </trkpt>
      <trkpt lat="45.99329" lon="4.90293">
        <ele>299</ele>
        <time>2017-05-07T08:59:37Z</time>
      </trkpt>
      <trkpt lat="45.99334" lon="4.90293">
        <ele>300</ele>
        <time>2017-05-07T08:59:38Z</time>
      </trkpt>
      <trkpt lat="45.99339" lon="4.90294">
        <ele>300</ele>
        <time>2017-05-07T08:59:39Z</time>
      </trkpt>
      <trkpt lat="45.99344" lon="4.90295">
        <ele>300</ele>
        <time>2017-05-07T08:59:40Z</time>
      </trkpt>
      <trkpt lat="45.99349" lon="4.90297">
        <ele>300</ele>
        <time>2017-05-07T08:59:41Z</time>
      </trkpt>
      <trkpt lat="45.99354" lon="4.90298">
        <ele>300</ele>
        <time>2017-05-07T08:59:42Z</time>
      </trkpt>
      <trkpt lat="45.99359" lon="4.90299">
        <ele>300</ele>
        <time>2017-05-07T08:59:43Z</time>
      </trkpt>
      <trkpt lat="45.99364" lon="4.903">
        <ele>300</ele>
        <time>2017-05-07T08:59:44Z</time>
      </trkpt>
      <trkpt lat="45.99369" lon="4.90301">
        <ele>300</ele>
        <time>2017-05-07T08:59:45Z</time>
      </trkpt>
      <trkpt lat="45.99374" lon="4.90302">
        <ele>300</ele>
        <time>2017-05-07T08:59:46Z</time>
      </trkpt>
      <trkpt lat="45.99378" lon="4.90302">
        <ele>300</ele>
        <time>2017-05-07T08:59:47Z</time>
      </trkpt>
      <trkpt lat="45.99383" lon="4.90303">
        <ele>300</ele>
        <time>2017-05-07T08:59:48Z</time>
      </trkpt>
      <trkpt lat="45.99387" lon="4.90303">
        <ele>300</ele>
        <time>2017-05-07T08:59:49Z</time>
      </trkpt>
      <trkpt lat="45.99396" lon="4.90305">
        <ele>300</ele>
        <time>2017-05-07T08:59:51Z</time>
      </trkpt>
      <trkpt lat="45.994" lon="4.90305">
        <ele>300</ele>
        <time>2017-05-07T08:59:52Z</time>
      </trkpt>
      <trkpt lat="45.99408" lon="4.90306">
        <ele>300</ele>
        <time>2017-05-07T08:59:54Z</time>
      </trkpt>
      <trkpt lat="45.99411" lon="4.90306">
        <ele>300</ele>
        <time>2017-05-07T08:59:55Z</time>
      </trkpt>
      <trkpt lat="45.99418" lon="4.90307">
        <ele>300</ele>
        <time>2017-05-07T08:59:57Z</time>
      </trkpt>
      <trkpt lat="45.99422" lon="4.90307">
        <ele>300</ele>
        <time>2017-05-07T08:59:58Z</time>
      </trkpt>
      <trkpt lat="45.99429" lon="4.90307">
        <ele>300</ele>
        <time>2017-05-07T09:00:00Z</time>
      </trkpt>
      <trkpt lat="45.99433" lon="4.90308">
        <ele>300</ele>
        <time>2017-05-07T09:00:01Z</time>
      </trkpt>
      <trkpt lat="45.9944" lon="4.9031">
        <ele>300</ele>
        <time>2017-05-07T09:00:03Z</time>
      </trkpt>
      <trkpt lat="45.99443" lon="4.90311">
        <ele>300</ele>
        <time>2017-05-07T09:00:04Z</time>
      </trkpt>
      <trkpt lat="45.99451" lon="4.90312">
        <ele>300</ele>
        <time>2017-05-07T09:00:06Z</time>
      </trkpt>
      <trkpt lat="45.99455" lon="4.90313">
        <ele>300</ele>
        <time>2017-05-07T09:00:07Z</time>
      </trkpt>
      <trkpt lat="45.99463" lon="4.90314">
        <ele>300</ele>
        <time>2017-05-07T09:00:09Z</time>
      </trkpt>
      <trkpt lat="45.99469" lon="4.90315">
        <ele>300</ele>
        <time>2017-05-07T09:00:10Z</time>
      </trkpt>
      <trkpt lat="45.99474" lon="4.90315">
        <ele>300</ele>
        <time>2017-05-07T09:00:11Z</time>
      </trkpt>
      <trkpt lat="45.99479" lon="4.90315">
        <ele>300</ele>
        <time>2017-05-07T09:00:12Z</time>
      </trkpt>
      <trkpt lat="45.99484" lon="4.90314">
        <ele>300</ele>
        <time>2017-05-07T09:00:13Z</time>
      </trkpt>
      <trkpt lat="45.99488" lon="4.90314">
        <ele>300</ele>
        <time>2017-05-07T09:00:14Z</time>
      </trkpt>
      <trkpt lat="45.99493" lon="4.90314">
        <ele>300</ele>
        <time>2017-05-07T09:00:15Z</time>
      </trkpt>
      <trkpt lat="45.99498" lon="4.90315">
        <ele>300</ele>
        <time>2017-05-07T09:00:16Z</time>
      </trkpt>
      <trkpt lat="45.99506" lon="4.90316">
        <ele>301</ele>
        <time>2017-05-07T09:00:18Z</time>
      </trkpt>
      <trkpt lat="45.9951" lon="4.90317">
        <ele>301</ele>
        <time>2017-05-07T09:00:19Z</time>
      </trkpt>
      <trkpt lat="45.99515" lon="4.90317">
        <ele>301</ele>
        <time>2017-05-07T09:00:20Z</time>
      </trkpt>
      <trkpt lat="45.99519" lon="4.90318">
        <ele>301</ele>
        <time>2017-05-07T09:00:21Z</time>
      </trkpt>
      <trkpt lat="45.99524" lon="4.90318">
        <ele>300</ele>
        <time>2017-05-07T09:00:22Z</time>
      </trkpt>
      <trkpt lat="45.99529" lon="4.90318">
        <ele>300</ele>
        <time>2017-05-07T09:00:23Z</time>
      </trkpt>
      <trkpt lat="45.99535" lon="4.90319">
        <ele>300</ele>
        <time>2017-05-07T09:00:24Z</time>
      </trkpt>
      <trkpt lat="45.99539" lon="4.90319">
        <ele>300</ele>
        <time>2017-05-07T09:00:25Z</time>
      </trkpt>
      <trkpt lat="45.99547" lon="4.90321">
        <ele>300</ele>
        <time>2017-05-07T09:00:27Z</time>
      </trkpt>
      <trkpt lat="45.99551" lon="4.90321">
        <ele>301</ele>
        <time>2017-05-07T09:00:28Z</time>
      </trkpt>
      <trkpt lat="45.99557" lon="4.90322">
        <ele>301</ele>
        <time>2017-05-07T09:00:30Z</time>
      </trkpt>
      <trkpt lat="45.9956" lon="4.90323">
        <ele>301</ele>
        <time>2017-05-07T09:00:31Z</time>
      </trkpt>
      <trkpt lat="45.99567" lon="4.90325">
        <ele>301</ele>
        <time>2017-05-07T09:00:33Z</time>
      </trkpt>
      <trkpt lat="45.9957" lon="4.90325">
        <ele>301</ele>
        <time>2017-05-07T09:00:34Z</time>
      </trkpt>
      <trkpt lat="45.99576" lon="4.90327">
        <ele>301</ele>
        <time>2017-05-07T09:00:36Z</time>
      </trkpt>
      <trkpt lat="45.99579" lon="4.90327">
        <ele>301</ele>
        <time>2017-05-07T09:00:37Z</time>
      </trkpt>
      <trkpt lat="45.99586" lon="4.90329">
        <ele>301</ele>
        <time>2017-05-07T09:00:39Z</time>
      </trkpt>
      <trkpt lat="45.9959" lon="4.90329">
        <ele>301</ele>
        <time>2017-05-07T09:00:40Z</time>
      </trkpt>
      <trkpt lat="45.99597" lon="4.90329">
        <ele>301</ele>
        <time>2017-05-07T09:00:42Z</time>
      </trkpt>
      <trkpt lat="45.99601" lon="4.90329">
        <ele>301</ele>
        <time>2017-05-07T09:00:43Z</time>
      </trkpt>
      <trkpt lat="45.9961" lon="4.9033">
        <ele>301</ele>
        <time>2017-05-07T09:00:45Z</time>
      </trkpt>
      <trkpt lat="45.99615" lon="4.90331">
        <ele>302</ele>
        <time>2017-05-07T09:00:46Z</time>
      </trkpt>
      <trkpt lat="45.99623" lon="4.90331">
        <ele>302</ele>
        <time>2017-05-07T09:00:48Z</time>
      </trkpt>
      <trkpt lat="45.99626" lon="4.90331">
        <ele>302</ele>
        <time>2017-05-07T09:00:49Z</time>
      </trkpt>
      <trkpt lat="45.99634" lon="4.90332">
        <ele>302</ele>
        <time>2017-05-07T09:00:51Z</time>
      </trkpt>
      <trkpt lat="45.99638" lon="4.90333">
        <ele>302</ele>
        <time>2017-05-07T09:00:52Z</time>
      </trkpt>
      <trkpt lat="45.99646" lon="4.90332">
        <ele>302</ele>
        <time>2017-05-07T09:00:54Z</time>
      </trkpt>
      <trkpt lat="45.9965" lon="4.90332">
        <ele>302</ele>
        <time>2017-05-07T09:00:55Z</time>
      </trkpt>
      <trkpt lat="45.99656" lon="4.90332">
        <ele>302</ele>
        <time>2017-05-07T09:00:57Z</time>
      </trkpt>
      <trkpt lat="45.99659" lon="4.90332">
        <ele>302</ele>
        <time>2017-05-07T09:00:58Z</time>
      </trkpt>
      <trkpt lat="45.99666" lon="4.90327">
        <ele>302</ele>
        <time>2017-05-07T09:01:01Z</time>
      </trkpt>
      <trkpt lat="45.99666" lon="4.90322">
        <ele>302</ele>
        <time>2017-05-07T09:01:02Z</time>
      </trkpt>
      <trkpt lat="45.99668" lon="4.90313">
        <ele>304</ele>
        <time>2017-05-07T09:01:04Z</time>
      </trkpt>
      <trkpt lat="45.99669" lon="4.90308">
        <ele>304</ele>
        <time>2017-05-07T09:01:05Z</time>
      </trkpt>
      <trkpt lat="45.99672" lon="4.90297">
        <ele>304</ele>
        <time>2017-05-07T09:01:07Z</time>
      </trkpt>
      <trkpt lat="45.99672" lon="4.90292">
        <ele>304</ele>
        <time>2017-05-07T09:01:08Z</time>
      </trkpt>
      <trkpt lat="45.99675" lon="4.90281">
        <ele>304</ele>
        <time>2017-05-07T09:01:10Z</time>
      </trkpt>
      <trkpt lat="45.99676" lon="4.90275">
        <ele>304</ele>
        <time>2017-05-07T09:01:11Z</time>
      </trkpt>
      <trkpt lat="45.99678" lon="4.90265">
        <ele>304</ele>
        <time>2017-05-07T09:01:13Z</time>
      </trkpt>
      <trkpt lat="45.99679" lon="4.90259">
        <ele>304</ele>
        <time>2017-05-07T09:01:14Z</time>
      </trkpt>
      <trkpt lat="45.99678" lon="4.90248">
        <ele>304</ele>
        <time>2017-05-07T09:01:16Z</time>
      </trkpt>
      <trkpt lat="45.99677" lon="4.90241">
        <ele>304</ele>
        <time>2017-05-07T09:01:17Z</time>
      </trkpt>
      <trkpt lat="45.99675" lon="4.9023">
        <ele>304</ele>
        <time>2017-05-07T09:01:19Z</time>
      </trkpt>
      <trkpt lat="45.99673" lon="4.90224">
        <ele>304</ele>
        <time>2017-05-07T09:01:20Z</time>
      </trkpt>
      <trkpt lat="45.99671" lon="4.90218">
        <ele>303</ele>
        <time>2017-05-07T09:01:21Z</time>
      </trkpt>
      <trkpt lat="45.9967" lon="4.90212">
        <ele>303</ele>
        <time>2017-05-07T09:01:22Z</time>
      </trkpt>
      <trkpt lat="45.99668" lon="4.90204">
        <ele>303</ele>
        <time>2017-05-07T09:01:23Z</time>
      </trkpt>
      <trkpt lat="45.99667" lon="4.90197">
        <ele>303</ele>
        <time>2017-05-07T09:01:24Z</time>
      </trkpt>
      <trkpt lat="45.99666" lon="4.90188">
        <ele>301</ele>
        <time>2017-05-07T09:01:25Z</time>
      </trkpt>
      <trkpt lat="45.99664" lon="4.90179">
        <ele>301</ele>
        <time>2017-05-07T09:01:26Z</time>
      </trkpt>
      <trkpt lat="45.99662" lon="4.90169">
        <ele>301</ele>
        <time>2017-05-07T09:01:27Z</time>
      </trkpt>
      <trkpt lat="45.9966" lon="4.90159">
        <ele>300</ele>
        <time>2017-05-07T09:01:28Z</time>
      </trkpt>
      <trkpt lat="45.99658" lon="4.90149">
        <ele>300</ele>
        <time>2017-05-07T09:01:29Z</time>
      </trkpt>
      <trkpt lat="45.99655" lon="4.90139">
        <ele>300</ele>
        <time>2017-05-07T09:01:30Z</time>
      </trkpt>
      <trkpt lat="45.99653" lon="4.90128">
        <ele>299</ele>
        <time>2017-05-07T09:01:31Z</time>
      </trkpt>
      <trkpt lat="45.9965" lon="4.90117">
        <ele>299</ele>
        <time>2017-05-07T09:01:32Z</time>
      </trkpt>
      <trkpt lat="45.99647" lon="4.90106">
        <ele>299</ele>
        <time>2017-05-07T09:01:33Z</time>
      </trkpt>
      <trkpt lat="45.99645" lon="4.90095">
        <ele>299</ele>
        <time>2017-05-07T09:01:34Z</time>
      </trkpt>
      <trkpt lat="45.99642" lon="4.90084">
        <ele>298</ele>
        <time>2017-05-07T09:01:35Z</time>
      </trkpt>
      <trkpt lat="45.99638" lon="4.90074">
        <ele>297</ele>
        <time>2017-05-07T09:01:36Z</time>
      </trkpt>
      <trkpt lat="45.99633" lon="4.90064">
        <ele>297</ele>
        <time>2017-05-07T09:01:37Z</time>
      </trkpt>
      <trkpt lat="45.99629" lon="4.90054">
        <ele>297</ele>
        <time>2017-05-07T09:01:38Z</time>
      </trkpt>
      <trkpt lat="45.99624" lon="4.90043">
        <ele>297</ele>
        <time>2017-05-07T09:01:39Z</time>
      </trkpt>
      <trkpt lat="45.9962" lon="4.90033">
        <ele>296</ele>
        <time>2017-05-07T09:01:40Z</time>
      </trkpt>
      <trkpt lat="45.99617" lon="4.90022">
        <ele>296</ele>
        <time>2017-05-07T09:01:41Z</time>
      </trkpt>
      <trkpt lat="45.99614" lon="4.90012">
        <ele>296</ele>
        <time>2017-05-07T09:01:42Z</time>
      </trkpt>
      <trkpt lat="45.9961" lon="4.90001">
        <ele>296</ele>
        <time>2017-05-07T09:01:43Z</time>
      </trkpt>
      <trkpt lat="45.99608" lon="4.8999">
        <ele>294</ele>
        <time>2017-05-07T09:01:44Z</time>
      </trkpt>
      <trkpt lat="45.99607" lon="4.89979">
        <ele>294</ele>
        <time>2017-05-07T09:01:45Z</time>
      </trkpt>
      <trkpt lat="45.99606" lon="4.89968">
        <ele>294</ele>
        <time>2017-05-07T09:01:46Z</time>
      </trkpt>
      <trkpt lat="45.99605" lon="4.89958">
        <ele>294</ele>
        <time>2017-05-07T09:01:47Z</time>
      </trkpt>
      <trkpt lat="45.99604" lon="4.89947">
        <ele>294</ele>
        <time>2017-05-07T09:01:48Z</time>
      </trkpt>
      <trkpt lat="45.99603" lon="4.89937">
        <ele>293</ele>
        <time>2017-05-07T09:01:49Z</time>
      </trkpt>
      <trkpt lat="45.99603" lon="4.89926">
        <ele>293</ele>
        <time>2017-05-07T09:01:50Z</time>
      </trkpt>
      <trkpt lat="45.99602" lon="4.89917">
        <ele>292</ele>
        <time>2017-05-07T09:01:51Z</time>
      </trkpt>
      <trkpt lat="45.99603" lon="4.89907">
        <ele>292</ele>
        <time>2017-05-07T09:01:52Z</time>
      </trkpt>
      <trkpt lat="45.99602" lon="4.89897">
        <ele>292</ele>
        <time>2017-05-07T09:01:53Z</time>
      </trkpt>
      <trkpt lat="45.99603" lon="4.89886">
        <ele>292</ele>
        <time>2017-05-07T09:01:54Z</time>
      </trkpt>
      <trkpt lat="45.99603" lon="4.89876">
        <ele>292</ele>
        <time>2017-05-07T09:01:55Z</time>
      </trkpt>
      <trkpt lat="45.99603" lon="4.89866">
        <ele>293</ele>
        <time>2017-05-07T09:01:56Z</time>
      </trkpt>
      <trkpt lat="45.99604" lon="4.89856">
        <ele>293</ele>
        <time>2017-05-07T09:01:57Z</time>
      </trkpt>
      <trkpt lat="45.99604" lon="4.89847">
        <ele>293</ele>
        <time>2017-05-07T09:01:58Z</time>
      </trkpt>
      <trkpt lat="45.99604" lon="4.89837">
        <ele>293</ele>
        <time>2017-05-07T09:01:59Z</time>
      </trkpt>
      <trkpt lat="45.99605" lon="4.89827">
        <ele>292</ele>
        <time>2017-05-07T09:02:00Z</time>
      </trkpt>
      <trkpt lat="45.99605" lon="4.89817">
        <ele>292</ele>
        <time>2017-05-07T09:02:01Z</time>
      </trkpt>
      <trkpt lat="45.99605" lon="4.89808">
        <ele>292</ele>
        <time>2017-05-07T09:02:02Z</time>
      </trkpt>
      <trkpt lat="45.99605" lon="4.89798">
        <ele>292</ele>
        <time>2017-05-07T09:02:03Z</time>
      </trkpt>
      <trkpt lat="45.99605" lon="4.89789">
        <ele>292</ele>
        <time>2017-05-07T09:02:04Z</time>
      </trkpt>
      <trkpt lat="45.99605" lon="4.89781">
        <ele>292</ele>
        <time>2017-05-07T09:02:05Z</time>
      </trkpt>
      <trkpt lat="45.99606" lon="4.89772">
        <ele>292</ele>
        <time>2017-05-07T09:02:06Z</time>
      </trkpt>
      <trkpt lat="45.99606" lon="4.89764">
        <ele>292</ele>
        <time>2017-05-07T09:02:07Z</time>
      </trkpt>
      <trkpt lat="45.99606" lon="4.89755">
        <ele>292</ele>
        <time>2017-05-07T09:02:08Z</time>
      </trkpt>
      <trkpt lat="45.99607" lon="4.89747">
        <ele>292</ele>
        <time>2017-05-07T09:02:09Z</time>
      </trkpt>
      <trkpt lat="45.99607" lon="4.89738">
        <ele>292</ele>
        <time>2017-05-07T09:02:10Z</time>
      </trkpt>
      <trkpt lat="45.99606" lon="4.8973">
        <ele>292</ele>
        <time>2017-05-07T09:02:11Z</time>
      </trkpt>
      <trkpt lat="45.99606" lon="4.8972">
        <ele>292</ele>
        <time>2017-05-07T09:02:12Z</time>
      </trkpt>
      <trkpt lat="45.99607" lon="4.89711">
        <ele>292</ele>
        <time>2017-05-07T09:02:13Z</time>
      </trkpt>
      <trkpt lat="45.99608" lon="4.89699">
        <ele>291</ele>
        <time>2017-05-07T09:02:14Z</time>
      </trkpt>
      <trkpt lat="45.99608" lon="4.89687">
        <ele>291</ele>
        <time>2017-05-07T09:02:15Z</time>
      </trkpt>
      <trkpt lat="45.99608" lon="4.89676">
        <ele>291</ele>
        <time>2017-05-07T09:02:16Z</time>
      </trkpt>
      <trkpt lat="45.99608" lon="4.89665">
        <ele>291</ele>
        <time>2017-05-07T09:02:17Z</time>
      </trkpt>
      <trkpt lat="45.99608" lon="4.89653">
        <ele>291</ele>
        <time>2017-05-07T09:02:18Z</time>
      </trkpt>
      <trkpt lat="45.99608" lon="4.89642">
        <ele>291</ele>
        <time>2017-05-07T09:02:19Z</time>
      </trkpt>
      <trkpt lat="45.99608" lon="4.89632">
        <ele>291</ele>
        <time>2017-05-07T09:02:20Z</time>
      </trkpt>
      <trkpt lat="45.99607" lon="4.89621">
        <ele>291</ele>
        <time>2017-05-07T09:02:21Z</time>
      </trkpt>
      <trkpt lat="45.99607" lon="4.89611">
        <ele>291</ele>
        <time>2017-05-07T09:02:22Z</time>
      </trkpt>
      <trkpt lat="45.99606" lon="4.896">
        <ele>292</ele>
        <time>2017-05-07T09:02:23Z</time>
      </trkpt>
      <trkpt lat="45.99606" lon="4.89591">
        <ele>292</ele>
        <time>2017-05-07T09:02:24Z</time>
      </trkpt>
      <trkpt lat="45.99605" lon="4.89581">
        <ele>291</ele>
        <time>2017-05-07T09:02:25Z</time>
      </trkpt>
      <trkpt lat="45.99604" lon="4.89572">
        <ele>291</ele>
        <time>2017-05-07T09:02:26Z</time>
      </trkpt>
      <trkpt lat="45.99604" lon="4.89562">
        <ele>291</ele>
        <time>2017-05-07T09:02:27Z</time>
      </trkpt>
      <trkpt lat="45.99603" lon="4.89553">
        <ele>291</ele>
        <time>2017-05-07T09:02:28Z</time>
      </trkpt>
      <trkpt lat="45.99603" lon="4.89544">
        <ele>291</ele>
        <time>2017-05-07T09:02:29Z</time>
      </trkpt>
      <trkpt lat="45.99602" lon="4.89536">
        <ele>291</ele>
        <time>2017-05-07T09:02:30Z</time>
      </trkpt>
      <trkpt lat="45.99601" lon="4.89527">
        <ele>291</ele>
        <time>2017-05-07T09:02:31Z</time>
      </trkpt>
      <trkpt lat="45.996" lon="4.89519">
        <ele>291</ele>
        <time>2017-05-07T09:02:32Z</time>
      </trkpt>
      <trkpt lat="45.99599" lon="4.89511">
        <ele>290</ele>
        <time>2017-05-07T09:02:33Z</time>
      </trkpt>
      <trkpt lat="45.99598" lon="4.89504">
        <ele>290</ele>
        <time>2017-05-07T09:02:34Z</time>
      </trkpt>
      <trkpt lat="45.99598" lon="4.89496">
        <ele>290</ele>
        <time>2017-05-07T09:02:35Z</time>
      </trkpt>
      <trkpt lat="45.99598" lon="4.89489">
        <ele>290</ele>
        <time>2017-05-07T09:02:36Z</time>
      </trkpt>
      <trkpt lat="45.99597" lon="4.89482">
        <ele>290</ele>
        <time>2017-05-07T09:02:37Z</time>
      </trkpt>
      <trkpt lat="45.99597" lon="4.89474">
        <ele>290</ele>
        <time>2017-05-07T09:02:38Z</time>
      </trkpt>
      <trkpt lat="45.99596" lon="4.89467">
        <ele>290</ele>
        <time>2017-05-07T09:02:39Z</time>
      </trkpt>
      <trkpt lat="45.99596" lon="4.89459">
        <ele>290</ele>
        <time>2017-05-07T09:02:40Z</time>
      </trkpt>
      <trkpt lat="45.99596" lon="4.89452">
        <ele>290</ele>
        <time>2017-05-07T09:02:41Z</time>
      </trkpt>
      <trkpt lat="45.99595" lon="4.89443">
        <ele>290</ele>
        <time>2017-05-07T09:02:42Z</time>
      </trkpt>
      <trkpt lat="45.99595" lon="4.89435">
        <ele>290</ele>
        <time>2017-05-07T09:02:43Z</time>
      </trkpt>
      <trkpt lat="45.99595" lon="4.89426">
        <ele>290</ele>
        <time>2017-05-07T09:02:44Z</time>
      </trkpt>
      <trkpt lat="45.99594" lon="4.89418">
        <ele>290</ele>
        <time>2017-05-07T09:02:45Z</time>
      </trkpt>
      <trkpt lat="45.99593" lon="4.89409">
        <ele>290</ele>
        <time>2017-05-07T09:02:46Z</time>
      </trkpt>
      <trkpt lat="45.99592" lon="4.894">
        <ele>290</ele>
        <time>2017-05-07T09:02:47Z</time>
      </trkpt>
      <trkpt lat="45.99591" lon="4.8939">
        <ele>290</ele>
        <time>2017-05-07T09:02:48Z</time>
      </trkpt>
      <trkpt lat="45.9959" lon="4.8938">
        <ele>290</ele>
        <time>2017-05-07T09:02:49Z</time>
      </trkpt>
      <trkpt lat="45.9959" lon="4.8937">
        <ele>289</ele>
        <time>2017-05-07T09:02:50Z</time>
      </trkpt>
      <trkpt lat="45.9959" lon="4.89361">
        <ele>289</ele>
        <time>2017-05-07T09:02:51Z</time>
      </trkpt>
      <trkpt lat="45.99589" lon="4.89351">
        <ele>289</ele>
        <time>2017-05-07T09:02:52Z</time>
      </trkpt>
      <trkpt lat="45.99588" lon="4.8934">
        <ele>289</ele>
        <time>2017-05-07T09:02:53Z</time>
      </trkpt>
      <trkpt lat="45.99588" lon="4.8933">
        <ele>289</ele>
        <time>2017-05-07T09:02:54Z</time>
      </trkpt>
      <trkpt lat="45.99587" lon="4.89321">
        <ele>289</ele>
        <time>2017-05-07T09:02:55Z</time>
      </trkpt>
      <trkpt lat="45.99587" lon="4.89312">
        <ele>289</ele>
        <time>2017-05-07T09:02:56Z</time>
      </trkpt>
      <trkpt lat="45.99586" lon="4.89303">
        <ele>289</ele>
        <time>2017-05-07T09:02:57Z</time>
      </trkpt>
      <trkpt lat="45.99586" lon="4.89294">
        <ele>289</ele>
        <time>2017-05-07T09:02:58Z</time>
      </trkpt>
      <trkpt lat="45.99585" lon="4.89285">
        <ele>289</ele>
        <time>2017-05-07T09:02:59Z</time>
      </trkpt>
      <trkpt lat="45.99584" lon="4.89277">
        <ele>289</ele>
        <time>2017-05-07T09:03:00Z</time>
      </trkpt>
      <trkpt lat="45.99584" lon="4.89269">
        <ele>288</ele>
        <time>2017-05-07T09:03:01Z</time>
      </trkpt>
      <trkpt lat="45.99583" lon="4.8926">
        <ele>288</ele>
        <time>2017-05-07T09:03:02Z</time>
      </trkpt>
      <trkpt lat="45.99583" lon="4.89252">
        <ele>288</ele>
        <time>2017-05-07T09:03:03Z</time>
      </trkpt>
      <trkpt lat="45.99583" lon="4.89244">
        <ele>288</ele>
        <time>2017-05-07T09:03:04Z</time>
      </trkpt>
      <trkpt lat="45.99582" lon="4.89236">
        <ele>288</ele>
        <time>2017-05-07T09:03:05Z</time>
      </trkpt>
      <trkpt lat="45.99582" lon="4.89227">
        <ele>288</ele>
        <time>2017-05-07T09:03:06Z</time>
      </trkpt>
      <trkpt lat="45.99581" lon="4.89219">
        <ele>288</ele>
        <time>2017-05-07T09:03:07Z</time>
      </trkpt>
      <trkpt lat="45.99581" lon="4.8921">
        <ele>288</ele>
        <time>2017-05-07T09:03:08Z</time>
      </trkpt>
      <trkpt lat="45.9958" lon="4.89202">
        <ele>288</ele>
        <time>2017-05-07T09:03:09Z</time>
      </trkpt>
      <trkpt lat="45.9958" lon="4.89193">
        <ele>288</ele>
        <time>2017-05-07T09:03:10Z</time>
      </trkpt>
      <trkpt lat="45.99579" lon="4.89184">
        <ele>288</ele>
        <time>2017-05-07T09:03:11Z</time>
      </trkpt>
      <trkpt lat="45.99579" lon="4.89175">
        <ele>288</ele>
        <time>2017-05-07T09:03:12Z</time>
      </trkpt>
      <trkpt lat="45.99578" lon="4.89166">
        <ele>288</ele>
        <time>2017-05-07T09:03:13Z</time>
      </trkpt>
      <trkpt lat="45.99577" lon="4.89158">
        <ele>288</ele>
        <time>2017-05-07T09:03:14Z</time>
      </trkpt>
      <trkpt lat="45.99577" lon="4.8915">
        <ele>289</ele>
        <time>2017-05-07T09:03:15Z</time>
      </trkpt>
      <trkpt lat="45.99576" lon="4.89141">
        <ele>289</ele>
        <time>2017-05-07T09:03:16Z</time>
      </trkpt>
      <trkpt lat="45.99576" lon="4.89133">
        <ele>289</ele>
        <time>2017-05-07T09:03:17Z</time>
      </trkpt>
      <trkpt lat="45.99576" lon="4.89125">
        <ele>289</ele>
        <time>2017-05-07T09:03:18Z</time>
      </trkpt>
      <trkpt lat="45.99577" lon="4.89117">
        <ele>289</ele>
        <time>2017-05-07T09:03:19Z</time>
      </trkpt>
      <trkpt lat="45.99577" lon="4.89109">
        <ele>289</ele>
        <time>2017-05-07T09:03:20Z</time>
      </trkpt>
      <trkpt lat="45.99578" lon="4.89101">
        <ele>289</ele>
        <time>2017-05-07T09:03:21Z</time>
      </trkpt>
      <trkpt lat="45.99579" lon="4.89093">
        <ele>289</ele>
        <time>2017-05-07T09:03:22Z</time>
      </trkpt>
      <trkpt lat="45.99579" lon="4.89085">
        <ele>289</ele>
        <time>2017-05-07T09:03:23Z</time>
      </trkpt>
      <trkpt lat="45.9958" lon="4.89077">
        <ele>289</ele>
        <time>2017-05-07T09:03:24Z</time>
      </trkpt>
      <trkpt lat="45.9958" lon="4.89069">
        <ele>289</ele>
        <time>2017-05-07T09:03:25Z</time>
      </trkpt>
      <trkpt lat="45.99581" lon="4.89062">
        <ele>289</ele>
        <time>2017-05-07T09:03:26Z</time>
      </trkpt>
      <trkpt lat="45.99581" lon="4.89054">
        <ele>288</ele>
        <time>2017-05-07T09:03:27Z</time>
      </trkpt>
      <trkpt lat="45.99582" lon="4.89045">
        <ele>288</ele>
        <time>2017-05-07T09:03:28Z</time>
      </trkpt>
      <trkpt lat="45.99583" lon="4.89036">
        <ele>288</ele>
        <time>2017-05-07T09:03:29Z</time>
      </trkpt>
      <trkpt lat="45.99583" lon="4.89027">
        <ele>288</ele>
        <time>2017-05-07T09:03:30Z</time>
      </trkpt>
      <trkpt lat="45.99584" lon="4.89018">
        <ele>288</ele>
        <time>2017-05-07T09:03:31Z</time>
      </trkpt>
      <trkpt lat="45.99584" lon="4.89008">
        <ele>288</ele>
        <time>2017-05-07T09:03:32Z</time>
      </trkpt>
      <trkpt lat="45.99584" lon="4.88998">
        <ele>288</ele>
        <time>2017-05-07T09:03:33Z</time>
      </trkpt>
      <trkpt lat="45.99583" lon="4.88988">
        <ele>288</ele>
        <time>2017-05-07T09:03:34Z</time>
      </trkpt>
      <trkpt lat="45.99583" lon="4.88978">
        <ele>287</ele>
        <time>2017-05-07T09:03:35Z</time>
      </trkpt>
      <trkpt lat="45.99583" lon="4.88968">
        <ele>287</ele>
        <time>2017-05-07T09:03:36Z</time>
      </trkpt>
      <trkpt lat="45.99582" lon="4.88957">
        <ele>287</ele>
        <time>2017-05-07T09:03:37Z</time>
      </trkpt>
      <trkpt lat="45.99581" lon="4.88947">
        <ele>287</ele>
        <time>2017-05-07T09:03:38Z</time>
      </trkpt>
      <trkpt lat="45.9958" lon="4.88936">
        <ele>287</ele>
        <time>2017-05-07T09:03:39Z</time>
      </trkpt>
      <trkpt lat="45.99579" lon="4.88926">
        <ele>287</ele>
        <time>2017-05-07T09:03:40Z</time>
      </trkpt>
      <trkpt lat="45.99579" lon="4.88916">
        <ele>287</ele>
        <time>2017-05-07T09:03:41Z</time>
      </trkpt>
      <trkpt lat="45.99578" lon="4.88906">
        <ele>287</ele>
        <time>2017-05-07T09:03:42Z</time>
      </trkpt>
      <trkpt lat="45.99577" lon="4.88897">
        <ele>287</ele>
        <time>2017-05-07T09:03:43Z</time>
      </trkpt>
      <trkpt lat="45.99576" lon="4.88888">
        <ele>287</ele>
        <time>2017-05-07T09:03:44Z</time>
      </trkpt>
      <trkpt lat="45.99576" lon="4.88878">
        <ele>287</ele>
        <time>2017-05-07T09:03:45Z</time>
      </trkpt>
      <trkpt lat="45.99575" lon="4.88869">
        <ele>287</ele>
        <time>2017-05-07T09:03:46Z</time>
      </trkpt>
      <trkpt lat="45.99574" lon="4.8886">
        <ele>287</ele>
        <time>2017-05-07T09:03:47Z</time>
      </trkpt>
      <trkpt lat="45.99573" lon="4.88851">
        <ele>287</ele>
        <time>2017-05-07T09:03:48Z</time>
      </trkpt>
      <trkpt lat="45.99571" lon="4.88843">
        <ele>287</ele>
        <time>2017-05-07T09:03:49Z</time>
      </trkpt>
      <trkpt lat="45.9957" lon="4.88835">
        <ele>287</ele>
        <time>2017-05-07T09:03:50Z</time>
      </trkpt>
      <trkpt lat="45.9957" lon="4.88827">
        <ele>287</ele>
        <time>2017-05-07T09:03:51Z</time>
      </trkpt>
      <trkpt lat="45.99569" lon="4.88819">
        <ele>287</ele>
        <time>2017-05-07T09:03:52Z</time>
      </trkpt>
      <trkpt lat="45.99568" lon="4.88811">
        <ele>287</ele>
        <time>2017-05-07T09:03:53Z</time>
      </trkpt>
      <trkpt lat="45.99568" lon="4.88803">
        <ele>287</ele>
        <time>2017-05-07T09:03:54Z</time>
      </trkpt>
      <trkpt lat="45.99567" lon="4.88794">
        <ele>287</ele>
        <time>2017-05-07T09:03:55Z</time>
      </trkpt>
      <trkpt lat="45.99566" lon="4.88786">
        <ele>287</ele>
        <time>2017-05-07T09:03:56Z</time>
      </trkpt>
      <trkpt lat="45.99566" lon="4.88778">
        <ele>287</ele>
        <time>2017-05-07T09:03:57Z</time>
      </trkpt>
      <trkpt lat="45.99565" lon="4.88769">
        <ele>287</ele>
        <time>2017-05-07T09:03:58Z</time>
      </trkpt>
      <trkpt lat="45.99564" lon="4.8876">
        <ele>287</ele>
        <time>2017-05-07T09:03:59Z</time>
      </trkpt>
      <trkpt lat="45.99563" lon="4.88752">
        <ele>287</ele>
        <time>2017-05-07T09:04:00Z</time>
      </trkpt>
      <trkpt lat="45.99562" lon="4.88744">
        <ele>287</ele>
        <time>2017-05-07T09:04:01Z</time>
      </trkpt>
      <trkpt lat="45.99562" lon="4.88735">
        <ele>287</ele>
        <time>2017-05-07T09:04:02Z</time>
      </trkpt>
      <trkpt lat="45.99561" lon="4.88727">
        <ele>286</ele>
        <time>2017-05-07T09:04:03Z</time>
      </trkpt>
      <trkpt lat="45.9956" lon="4.8872">
        <ele>286</ele>
        <time>2017-05-07T09:04:04Z</time>
      </trkpt>
      <trkpt lat="45.9956" lon="4.88712">
        <ele>286</ele>
        <time>2017-05-07T09:04:05Z</time>
      </trkpt>
      <trkpt lat="45.99559" lon="4.88704">
        <ele>286</ele>
        <time>2017-05-07T09:04:06Z</time>
      </trkpt>
      <trkpt lat="45.99558" lon="4.88697">
        <ele>286</ele>
        <time>2017-05-07T09:04:07Z</time>
      </trkpt>
      <trkpt lat="45.99558" lon="4.88689">
        <ele>286</ele>
        <time>2017-05-07T09:04:08Z</time>
      </trkpt>
      <trkpt lat="45.99557" lon="4.88681">
        <ele>286</ele>
        <time>2017-05-07T09:04:09Z</time>
      </trkpt>
      <trkpt lat="45.99556" lon="4.88672">
        <ele>286</ele>
        <time>2017-05-07T09:04:10Z</time>
      </trkpt>
      <trkpt lat="45.99554" lon="4.88663">
        <ele>286</ele>
        <time>2017-05-07T09:04:11Z</time>
      </trkpt>
      <trkpt lat="45.99553" lon="4.88653">
        <ele>286</ele>
        <time>2017-05-07T09:04:12Z</time>
      </trkpt>
      <trkpt lat="45.99552" lon="4.88644">
        <ele>286</ele>
        <time>2017-05-07T09:04:13Z</time>
      </trkpt>
      <trkpt lat="45.99551" lon="4.88634">
        <ele>286</ele>
        <time>2017-05-07T09:04:14Z</time>
      </trkpt>
      <trkpt lat="45.9955" lon="4.88624">
        <ele>286</ele>
        <time>2017-05-07T09:04:15Z</time>
      </trkpt>
      <trkpt lat="45.99549" lon="4.88614">
        <ele>286</ele>
        <time>2017-05-07T09:04:16Z</time>
      </trkpt>
      <trkpt lat="45.99548" lon="4.88605">
        <ele>286</ele>
        <time>2017-05-07T09:04:17Z</time>
      </trkpt>
      <trkpt lat="45.99547" lon="4.88595">
        <ele>286</ele>
        <time>2017-05-07T09:04:18Z</time>
      </trkpt>
      <trkpt lat="45.99545" lon="4.88585">
        <ele>286</ele>
        <time>2017-05-07T09:04:19Z</time>
      </trkpt>
      <trkpt lat="45.99543" lon="4.88576">
        <ele>286</ele>
        <time>2017-05-07T09:04:20Z</time>
      </trkpt>
      <trkpt lat="45.99541" lon="4.88567">
        <ele>285</ele>
        <time>2017-05-07T09:04:21Z</time>
      </trkpt>
      <trkpt lat="45.99539" lon="4.88559">
        <ele>285</ele>
        <time>2017-05-07T09:04:22Z</time>
      </trkpt>
      <trkpt lat="45.99536" lon="4.88552">
        <ele>285</ele>
        <time>2017-05-07T09:04:23Z</time>
      </trkpt>
      <trkpt lat="45.99533" lon="4.88544">
        <ele>285</ele>
        <time>2017-05-07T09:04:24Z</time>
      </trkpt>
      <trkpt lat="45.9953" lon="4.88537">
        <ele>285</ele>
        <time>2017-05-07T09:04:25Z</time>
      </trkpt>
      <trkpt lat="45.99526" lon="4.88531">
        <ele>285</ele>
        <time>2017-05-07T09:04:26Z</time>
      </trkpt>
      <trkpt lat="45.99523" lon="4.88525">
        <ele>285</ele>
        <time>2017-05-07T09:04:27Z</time>
      </trkpt>
      <trkpt lat="45.9952" lon="4.88518">
        <ele>285</ele>
        <time>2017-05-07T09:04:28Z</time>
      </trkpt>
      <trkpt lat="45.99517" lon="4.88512">
        <ele>285</ele>
        <time>2017-05-07T09:04:29Z</time>
      </trkpt>
      <trkpt lat="45.99514" lon="4.88506">
        <ele>285</ele>
        <time>2017-05-07T09:04:30Z</time>
      </trkpt>
      <trkpt lat="45.99511" lon="4.88499">
        <ele>284</ele>
        <time>2017-05-07T09:04:31Z</time>
      </trkpt>
      <trkpt lat="45.99507" lon="4.88493">
        <ele>284</ele>
        <time>2017-05-07T09:04:32Z</time>
      </trkpt>
      <trkpt lat="45.99504" lon="4.88487">
        <ele>284</ele>
        <time>2017-05-07T09:04:33Z</time>
      </trkpt>
      <trkpt lat="45.995" lon="4.88481">
        <ele>284</ele>
        <time>2017-05-07T09:04:34Z</time>
      </trkpt>
      <trkpt lat="45.99497" lon="4.88474">
        <ele>284</ele>
        <time>2017-05-07T09:04:35Z</time>
      </trkpt>
      <trkpt lat="45.99493" lon="4.88467">
        <ele>284</ele>
        <time>2017-05-07T09:04:36Z</time>
      </trkpt>
      <trkpt lat="45.9949" lon="4.8846">
        <ele>284</ele>
        <time>2017-05-07T09:04:37Z</time>
      </trkpt>
      <trkpt lat="45.99486" lon="4.88453">
        <ele>284</ele>
        <time>2017-05-07T09:04:38Z</time>
      </trkpt>
      <trkpt lat="45.99482" lon="4.88446">
        <ele>284</ele>
        <time>2017-05-07T09:04:39Z</time>
      </trkpt>
      <trkpt lat="45.99477" lon="4.8844">
        <ele>284</ele>
        <time>2017-05-07T09:04:40Z</time>
      </trkpt>
      <trkpt lat="45.99472" lon="4.88434">
        <ele>284</ele>
        <time>2017-05-07T09:04:41Z</time>
      </trkpt>
      <trkpt lat="45.99467" lon="4.88428">
        <ele>284</ele>
        <time>2017-05-07T09:04:42Z</time>
      </trkpt>
      <trkpt lat="45.99461" lon="4.88423">
        <ele>284</ele>
        <time>2017-05-07T09:04:43Z</time>
      </trkpt>
      <trkpt lat="45.99456" lon="4.88418">
        <ele>283</ele>
        <time>2017-05-07T09:04:44Z</time>
      </trkpt>
      <trkpt lat="45.99451" lon="4.88413">
        <ele>283</ele>
        <time>2017-05-07T09:04:45Z</time>
      </trkpt>
      <trkpt lat="45.99446" lon="4.88408">
        <ele>283</ele>
        <time>2017-05-07T09:04:46Z</time>
      </trkpt>
      <trkpt lat="45.99441" lon="4.88403">
        <ele>283</ele>
        <time>2017-05-07T09:04:47Z</time>
      </trkpt>
      <trkpt lat="45.99437" lon="4.88397">
        <ele>283</ele>
        <time>2017-05-07T09:04:48Z</time>
      </trkpt>
      <trkpt lat="45.99434" lon="4.88391">
        <ele>283</ele>
        <time>2017-05-07T09:04:49Z</time>
      </trkpt>
      <trkpt lat="45.9943" lon="4.88384">
        <ele>283</ele>
        <time>2017-05-07T09:04:50Z</time>
      </trkpt>
      <trkpt lat="45.99428" lon="4.88377">
        <ele>283</ele>
        <time>2017-05-07T09:04:51Z</time>
      </trkpt>
      <trkpt lat="45.99426" lon="4.88371">
        <ele>283</ele>
        <time>2017-05-07T09:04:52Z</time>
      </trkpt>
      <trkpt lat="45.99424" lon="4.88364">
        <ele>283</ele>
        <time>2017-05-07T09:04:53Z</time>
      </trkpt>
      <trkpt lat="45.99421" lon="4.88358">
        <ele>283</ele>
        <time>2017-05-07T09:04:54Z</time>
      </trkpt>
      <trkpt lat="45.99419" lon="4.88351">
        <ele>283</ele>
        <time>2017-05-07T09:04:55Z</time>
      </trkpt>
      <trkpt lat="45.99416" lon="4.88345">
        <ele>282</ele>
        <time>2017-05-07T09:04:56Z</time>
      </trkpt>
      <trkpt lat="45.99413" lon="4.88337">
        <ele>282</ele>
        <time>2017-05-07T09:04:57Z</time>
      </trkpt>
      <trkpt lat="45.9941" lon="4.8833">
        <ele>283</ele>
        <time>2017-05-07T09:04:58Z</time>
      </trkpt>
      <trkpt lat="45.99406" lon="4.88322">
        <ele>283</ele>
        <time>2017-05-07T09:04:59Z</time>
      </trkpt>
      <trkpt lat="45.99403" lon="4.88313">
        <ele>283</ele>
        <time>2017-05-07T09:05:00Z</time>
      </trkpt>
      <trkpt lat="45.994" lon="4.88305">
        <ele>284</ele>
        <time>2017-05-07T09:05:01Z</time>
      </trkpt>
      <trkpt lat="45.99396" lon="4.88296">
        <ele>284</ele>
        <time>2017-05-07T09:05:02Z</time>
      </trkpt>
      <trkpt lat="45.99393" lon="4.88287">
        <ele>284</ele>
        <time>2017-05-07T09:05:03Z</time>
      </trkpt>
      <trkpt lat="45.99389" lon="4.88278">
        <ele>284</ele>
        <time>2017-05-07T09:05:04Z</time>
      </trkpt>
      <trkpt lat="45.99385" lon="4.88269">
        <ele>285</ele>
        <time>2017-05-07T09:05:05Z</time>
      </trkpt>
      <trkpt lat="45.99381" lon="4.88261">
        <ele>285</ele>
        <time>2017-05-07T09:05:06Z</time>
      </trkpt>
      <trkpt lat="45.99376" lon="4.88253">
        <ele>285</ele>
        <time>2017-05-07T09:05:07Z</time>
      </trkpt>
      <trkpt lat="45.99372" lon="4.88246">
        <ele>287</ele>
        <time>2017-05-07T09:05:08Z</time>
      </trkpt>
      <trkpt lat="45.99367" lon="4.8824">
        <ele>287</ele>
        <time>2017-05-07T09:05:09Z</time>
      </trkpt>
      <trkpt lat="45.99362" lon="4.88234">
        <ele>287</ele>
        <time>2017-05-07T09:05:10Z</time>
      </trkpt>
      <trkpt lat="45.99357" lon="4.88228">
        <ele>287</ele>
        <time>2017-05-07T09:05:11Z</time>
      </trkpt>
      <trkpt lat="45.99352" lon="4.88223">
        <ele>287</ele>
        <time>2017-05-07T09:05:12Z</time>
      </trkpt>
      <trkpt lat="45.99346" lon="4.88218">
        <ele>287</ele>
        <time>2017-05-07T09:05:13Z</time>
      </trkpt>
      <trkpt lat="45.9934" lon="4.88213">
        <ele>287</ele>
        <time>2017-05-07T09:05:14Z</time>
      </trkpt>
      <trkpt lat="45.99335" lon="4.88209">
        <ele>287</ele>
        <time>2017-05-07T09:05:15Z</time>
      </trkpt>
      <trkpt lat="45.9933" lon="4.88204">
        <ele>285</ele>
        <time>2017-05-07T09:05:16Z</time>
      </trkpt>
      <trkpt lat="45.99325" lon="4.88199">
        <ele>285</ele>
        <time>2017-05-07T09:05:17Z</time>
      </trkpt>
      <trkpt lat="45.9932" lon="4.88194">
        <ele>285</ele>
        <time>2017-05-07T09:05:18Z</time>
      </trkpt>
      <trkpt lat="45.99314" lon="4.8819">
        <ele>285</ele>
        <time>2017-05-07T09:05:19Z</time>
      </trkpt>
      <trkpt lat="45.99309" lon="4.88185">
        <ele>285</ele>
        <time>2017-05-07T09:05:20Z</time>
      </trkpt>
      <trkpt lat="45.99303" lon="4.8818">
        <ele>285</ele>
        <time>2017-05-07T09:05:21Z</time>
      </trkpt>
      <trkpt lat="45.99298" lon="4.88175">
        <ele>284</ele>
        <time>2017-05-07T09:05:22Z</time>
      </trkpt>
      <trkpt lat="45.99293" lon="4.8817">
        <ele>284</ele>
        <time>2017-05-07T09:05:23Z</time>
      </trkpt>
      <trkpt lat="45.99288" lon="4.88165">
        <ele>284</ele>
        <time>2017-05-07T09:05:24Z</time>
      </trkpt>
      <trkpt lat="45.99283" lon="4.88161">
        <ele>284</ele>
        <time>2017-05-07T09:05:25Z</time>
      </trkpt>
      <trkpt lat="45.99279" lon="4.88156">
        <ele>283</ele>
        <time>2017-05-07T09:05:26Z</time>
      </trkpt>
      <trkpt lat="45.99274" lon="4.88152">
        <ele>283</ele>
        <time>2017-05-07T09:05:27Z</time>
      </trkpt>
      <trkpt lat="45.99269" lon="4.88147">
        <ele>283</ele>
        <time>2017-05-07T09:05:28Z</time>
      </trkpt>
      <trkpt lat="45.99264" lon="4.88143">
        <ele>283</ele>
        <time>2017-05-07T09:05:29Z</time>
      </trkpt>
      <trkpt lat="45.99259" lon="4.88139">
        <ele>283</ele>
        <time>2017-05-07T09:05:30Z</time>
      </trkpt>
      <trkpt lat="45.99253" lon="4.88134">
        <ele>283</ele>
        <time>2017-05-07T09:05:31Z</time>
      </trkpt>
      <trkpt lat="45.99248" lon="4.8813">
        <ele>280</ele>
        <time>2017-05-07T09:05:32Z</time>
      </trkpt>
      <trkpt lat="45.99243" lon="4.88125">
        <ele>280</ele>
        <time>2017-05-07T09:05:33Z</time>
      </trkpt>
      <trkpt lat="45.99238" lon="4.88121">
        <ele>280</ele>
        <time>2017-05-07T09:05:34Z</time>
      </trkpt>
      <trkpt lat="45.99233" lon="4.88116">
        <ele>280</ele>
        <time>2017-05-07T09:05:35Z</time>
      </trkpt>
      <trkpt lat="45.99228" lon="4.88112">
        <ele>280</ele>
        <time>2017-05-07T09:05:36Z</time>
      </trkpt>
      <trkpt lat="45.99223" lon="4.88108">
        <ele>280</ele>
        <time>2017-05-07T09:05:37Z</time>
      </trkpt>
      <trkpt lat="45.99218" lon="4.88104">
        <ele>280</ele>
        <time>2017-05-07T09:05:38Z</time>
      </trkpt>
      <trkpt lat="45.99213" lon="4.881">
        <ele>280</ele>
        <time>2017-05-07T09:05:39Z</time>
      </trkpt>
      <trkpt lat="45.99208" lon="4.88095">
        <ele>280</ele>
        <time>2017-05-07T09:05:40Z</time>
      </trkpt>
      <trkpt lat="45.99204" lon="4.88091">
        <ele>280</ele>
        <time>2017-05-07T09:05:41Z</time>
      </trkpt>
      <trkpt lat="45.99199" lon="4.88087">
        <ele>280</ele>
        <time>2017-05-07T09:05:42Z</time>
      </trkpt>
      <trkpt lat="45.99194" lon="4.88083">
        <ele>280</ele>
        <time>2017-05-07T09:05:43Z</time>
      </trkpt>
      <trkpt lat="45.99189" lon="4.88079">
        <ele>280</ele>
        <time>2017-05-07T09:05:44Z</time>
      </trkpt>
      <trkpt lat="45.99184" lon="4.88075">
        <ele>279</ele>
        <time>2017-05-07T09:05:45Z</time>
      </trkpt>
      <trkpt lat="45.99179" lon="4.8807">
        <ele>279</ele>
        <time>2017-05-07T09:05:46Z</time>
      </trkpt>
      <trkpt lat="45.99174" lon="4.88065">
        <ele>279</ele>
        <time>2017-05-07T09:05:47Z</time>
      </trkpt>
      <trkpt lat="45.99168" lon="4.88061">
        <ele>279</ele>
        <time>2017-05-07T09:05:48Z</time>
      </trkpt>
      <trkpt lat="45.99163" lon="4.88056">
        <ele>279</ele>
        <time>2017-05-07T09:05:49Z</time>
      </trkpt>
      <trkpt lat="45.99157" lon="4.88052">
        <ele>279</ele>
        <time>2017-05-07T09:05:50Z</time>
      </trkpt>
      <trkpt lat="45.9915" lon="4.88048">
        <ele>279</ele>
        <time>2017-05-07T09:05:51Z</time>
      </trkpt>
      <trkpt lat="45.99144" lon="4.88044">
        <ele>279</ele>
        <time>2017-05-07T09:05:52Z</time>
      </trkpt>
      <trkpt lat="45.99137" lon="4.88039">
        <ele>279</ele>
        <time>2017-05-07T09:05:53Z</time>
      </trkpt>
      <trkpt lat="45.99131" lon="4.88035">
        <ele>279</ele>
        <time>2017-05-07T09:05:54Z</time>
      </trkpt>
      <trkpt lat="45.99124" lon="4.88031">
        <ele>278</ele>
        <time>2017-05-07T09:05:55Z</time>
      </trkpt>
      <trkpt lat="45.99117" lon="4.88028">
        <ele>278</ele>
        <time>2017-05-07T09:05:56Z</time>
      </trkpt>
      <trkpt lat="45.99111" lon="4.88024">
        <ele>278</ele>
        <time>2017-05-07T09:05:57Z</time>
      </trkpt>
      <trkpt lat="45.99105" lon="4.8802">
        <ele>278</ele>
        <time>2017-05-07T09:05:58Z</time>
      </trkpt>
      <trkpt lat="45.99098" lon="4.88017">
        <ele>278</ele>
        <time>2017-05-07T09:05:59Z</time>
      </trkpt>
      <trkpt lat="45.99092" lon="4.88013">
        <ele>278</ele>
        <time>2017-05-07T09:06:00Z</time>
      </trkpt>
      <trkpt lat="45.99086" lon="4.88009">
        <ele>278</ele>
        <time>2017-05-07T09:06:01Z</time>
      </trkpt>
      <trkpt lat="45.99079" lon="4.88006">
        <ele>278</ele>
        <time>2017-05-07T09:06:02Z</time>
      </trkpt>
      <trkpt lat="45.99073" lon="4.88002">
        <ele>278</ele>
        <time>2017-05-07T09:06:03Z</time>
      </trkpt>
      <trkpt lat="45.99067" lon="4.87999">
        <ele>277</ele>
        <time>2017-05-07T09:06:04Z</time>
      </trkpt>
      <trkpt lat="45.99061" lon="4.87995">
        <ele>277</ele>
        <time>2017-05-07T09:06:05Z</time>
      </trkpt>
      <trkpt lat="45.99055" lon="4.87991">
        <ele>277</ele>
        <time>2017-05-07T09:06:06Z</time>
      </trkpt>
      <trkpt lat="45.99049" lon="4.87987">
        <ele>277</ele>
        <time>2017-05-07T09:06:07Z</time>
      </trkpt>
      <trkpt lat="45.99043" lon="4.87984">
        <ele>277</ele>
        <time>2017-05-07T09:06:08Z</time>
      </trkpt>
      <trkpt lat="45.99037" lon="4.8798">
        <ele>276</ele>
        <time>2017-05-07T09:06:09Z</time>
      </trkpt>
      <trkpt lat="45.99031" lon="4.87977">
        <ele>276</ele>
        <time>2017-05-07T09:06:10Z</time>
      </trkpt>
      <trkpt lat="45.99025" lon="4.87973">
        <ele>276</ele>
        <time>2017-05-07T09:06:11Z</time>
      </trkpt>
      <trkpt lat="45.99018" lon="4.87969">
        <ele>276</ele>
        <time>2017-05-07T09:06:12Z</time>
      </trkpt>
      <trkpt lat="45.99011" lon="4.87966">
        <ele>276</ele>
        <time>2017-05-07T09:06:13Z</time>
      </trkpt>
      <trkpt lat="45.99004" lon="4.87962">
        <ele>276</ele>
        <time>2017-05-07T09:06:14Z</time>
      </trkpt>
      <trkpt lat="45.98997" lon="4.87958">
        <ele>274</ele>
        <time>2017-05-07T09:06:15Z</time>
      </trkpt>
      <trkpt lat="45.9899" lon="4.87954">
        <ele>274</ele>
        <time>2017-05-07T09:06:16Z</time>
      </trkpt>
      <trkpt lat="45.98983" lon="4.8795">
        <ele>274</ele>
        <time>2017-05-07T09:06:17Z</time>
      </trkpt>
      <trkpt lat="45.98975" lon="4.87946">
        <ele>274</ele>
        <time>2017-05-07T09:06:18Z</time>
      </trkpt>
      <trkpt lat="45.98968" lon="4.87942">
        <ele>274</ele>
        <time>2017-05-07T09:06:19Z</time>
      </trkpt>
      <trkpt lat="45.9896" lon="4.87938">
        <ele>273</ele>
        <time>2017-05-07T09:06:20Z</time>
      </trkpt>
      <trkpt lat="45.98952" lon="4.87934">
        <ele>273</ele>
        <time>2017-05-07T09:06:21Z</time>
      </trkpt>
      <trkpt lat="45.98945" lon="4.87929">
        <ele>273</ele>
        <time>2017-05-07T09:06:22Z</time>
      </trkpt>
      <trkpt lat="45.98937" lon="4.87923">
        <ele>272</ele>
        <time>2017-05-07T09:06:23Z</time>
      </trkpt>
      <trkpt lat="45.9893" lon="4.87918">
        <ele>272</ele>
        <time>2017-05-07T09:06:24Z</time>
      </trkpt>
      <trkpt lat="45.98922" lon="4.87911">
        <ele>272</ele>
        <time>2017-05-07T09:06:25Z</time>
      </trkpt>
      <trkpt lat="45.98914" lon="4.87904">
        <ele>272</ele>
        <time>2017-05-07T09:06:26Z</time>
      </trkpt>
      <trkpt lat="45.98907" lon="4.87897">
        <ele>272</ele>
        <time>2017-05-07T09:06:27Z</time>
      </trkpt>
      <trkpt lat="45.989" lon="4.87888">
        <ele>272</ele>
        <time>2017-05-07T09:06:28Z</time>
      </trkpt>
      <trkpt lat="45.98894" lon="4.87881">
        <ele>272</ele>
        <time>2017-05-07T09:06:29Z</time>
      </trkpt>
      <trkpt lat="45.98888" lon="4.87872">
        <ele>272</ele>
        <time>2017-05-07T09:06:30Z</time>
      </trkpt>
      <trkpt lat="45.98883" lon="4.87863">
        <ele>272</ele>
        <time>2017-05-07T09:06:31Z</time>
      </trkpt>
      <trkpt lat="45.98878" lon="4.87853">
        <ele>272</ele>
        <time>2017-05-07T09:06:32Z</time>
      </trkpt>
      <trkpt lat="45.98873" lon="4.87844">
        <ele>273</ele>
        <time>2017-05-07T09:06:33Z</time>
      </trkpt>
      <trkpt lat="45.98869" lon="4.87834">
        <ele>273</ele>
        <time>2017-05-07T09:06:34Z</time>
      </trkpt>
      <trkpt lat="45.98864" lon="4.87825">
        <ele>273</ele>
        <time>2017-05-07T09:06:35Z</time>
      </trkpt>
      <trkpt lat="45.98859" lon="4.87816">
        <ele>273</ele>
        <time>2017-05-07T09:06:36Z</time>
      </trkpt>
      <trkpt lat="45.98856" lon="4.87807">
        <ele>273</ele>
        <time>2017-05-07T09:06:37Z</time>
      </trkpt>
      <trkpt lat="45.98852" lon="4.87798">
        <ele>273</ele>
        <time>2017-05-07T09:06:38Z</time>
      </trkpt>
      <trkpt lat="45.98849" lon="4.87789">
        <ele>273</ele>
        <time>2017-05-07T09:06:39Z</time>
      </trkpt>
      <trkpt lat="45.98846" lon="4.87779">
        <ele>273</ele>
        <time>2017-05-07T09:06:40Z</time>
      </trkpt>
      <trkpt lat="45.98844" lon="4.8777">
        <ele>273</ele>
        <time>2017-05-07T09:06:41Z</time>
      </trkpt>
      <trkpt lat="45.98842" lon="4.87761">
        <ele>273</ele>
        <time>2017-05-07T09:06:42Z</time>
      </trkpt>
      <trkpt lat="45.9884" lon="4.87752">
        <ele>273</ele>
        <time>2017-05-07T09:06:43Z</time>
      </trkpt>
      <trkpt lat="45.98838" lon="4.87743">
        <ele>273</ele>
        <time>2017-05-07T09:06:44Z</time>
      </trkpt>
      <trkpt lat="45.98836" lon="4.87734">
        <ele>273</ele>
        <time>2017-05-07T09:06:45Z</time>
      </trkpt>
      <trkpt lat="45.98834" lon="4.87725">
        <ele>273</ele>
        <time>2017-05-07T09:06:46Z</time>
      </trkpt>
      <trkpt lat="45.98832" lon="4.87716">
        <ele>274</ele>
        <time>2017-05-07T09:06:47Z</time>
      </trkpt>
      <trkpt lat="45.98831" lon="4.87707">
        <ele>273</ele>
        <time>2017-05-07T09:06:48Z</time>
      </trkpt>
      <trkpt lat="45.98829" lon="4.87697">
        <ele>273</ele>
        <time>2017-05-07T09:06:49Z</time>
      </trkpt>
      <trkpt lat="45.98827" lon="4.87688">
        <ele>273</ele>
        <time>2017-05-07T09:06:50Z</time>
      </trkpt>
      <trkpt lat="45.98826" lon="4.87678">
        <ele>273</ele>
        <time>2017-05-07T09:06:51Z</time>
      </trkpt>
      <trkpt lat="45.98824" lon="4.87668">
        <ele>273</ele>
        <time>2017-05-07T09:06:52Z</time>
      </trkpt>
      <trkpt lat="45.98821" lon="4.87659">
        <ele>272</ele>
        <time>2017-05-07T09:06:53Z</time>
      </trkpt>
      <trkpt lat="45.98819" lon="4.8765">
        <ele>272</ele>
        <time>2017-05-07T09:06:54Z</time>
      </trkpt>
      <trkpt lat="45.98817" lon="4.87642">
        <ele>272</ele>
        <time>2017-05-07T09:06:55Z</time>
      </trkpt>
      <trkpt lat="45.98814" lon="4.87633">
        <ele>271</ele>
        <time>2017-05-07T09:06:56Z</time>
      </trkpt>
      <trkpt lat="45.98812" lon="4.87625">
        <ele>271</ele>
        <time>2017-05-07T09:06:57Z</time>
      </trkpt>
      <trkpt lat="45.98808" lon="4.87618">
        <ele>271</ele>
        <time>2017-05-07T09:06:58Z</time>
      </trkpt>
      <trkpt lat="45.98806" lon="4.8761">
        <ele>271</ele>
        <time>2017-05-07T09:06:59Z</time>
      </trkpt>
      <trkpt lat="45.98803" lon="4.87603">
        <ele>271</ele>
        <time>2017-05-07T09:07:00Z</time>
      </trkpt>
      <trkpt lat="45.98798" lon="4.87596">
        <ele>271</ele>
        <time>2017-05-07T09:07:01Z</time>
      </trkpt>
      <trkpt lat="45.98791" lon="4.87589">
        <ele>271</ele>
        <time>2017-05-07T09:07:02Z</time>
      </trkpt>
      <trkpt lat="45.98785" lon="4.87582">
        <ele>269</ele>
        <time>2017-05-07T09:07:03Z</time>
      </trkpt>
      <trkpt lat="45.98779" lon="4.87576">
        <ele>269</ele>
        <time>2017-05-07T09:07:04Z</time>
      </trkpt>
      <trkpt lat="45.98773" lon="4.87571">
        <ele>269</ele>
        <time>2017-05-07T09:07:05Z</time>
      </trkpt>
      <trkpt lat="45.98766" lon="4.87565">
        <ele>269</ele>
        <time>2017-05-07T09:07:06Z</time>
      </trkpt>
      <trkpt lat="45.98761" lon="4.8756">
        <ele>269</ele>
        <time>2017-05-07T09:07:07Z</time>
      </trkpt>
      <trkpt lat="45.98756" lon="4.87556">
        <ele>269</ele>
        <time>2017-05-07T09:07:08Z</time>
      </trkpt>
      <trkpt lat="45.9875" lon="4.87552">
        <ele>269</ele>
        <time>2017-05-07T09:07:09Z</time>
      </trkpt>
      <trkpt lat="45.98744" lon="4.8755">
        <ele>267</ele>
        <time>2017-05-07T09:07:10Z</time>
      </trkpt>
      <trkpt lat="45.98738" lon="4.8755">
        <ele>267</ele>
        <time>2017-05-07T09:07:11Z</time>
      </trkpt>
      <trkpt lat="45.98732" lon="4.8755">
        <ele>267</ele>
        <time>2017-05-07T09:07:12Z</time>
      </trkpt>
      <trkpt lat="45.98725" lon="4.87551">
        <ele>267</ele>
        <time>2017-05-07T09:07:13Z</time>
      </trkpt>
      <trkpt lat="45.98719" lon="4.87552">
        <ele>267</ele>
        <time>2017-05-07T09:07:14Z</time>
      </trkpt>
      <trkpt lat="45.98713" lon="4.87555">
        <ele>267</ele>
        <time>2017-05-07T09:07:15Z</time>
      </trkpt>
      <trkpt lat="45.98706" lon="4.87556">
        <ele>267</ele>
        <time>2017-05-07T09:07:16Z</time>
      </trkpt>
      <trkpt lat="45.987" lon="4.87558">
        <ele>267</ele>
        <time>2017-05-07T09:07:17Z</time>
      </trkpt>
      <trkpt lat="45.98693" lon="4.8756">
        <ele>267</ele>
        <time>2017-05-07T09:07:18Z</time>
      </trkpt>
      <trkpt lat="45.98688" lon="4.87562">
        <ele>267</ele>
        <time>2017-05-07T09:07:19Z</time>
      </trkpt>
      <trkpt lat="45.98683" lon="4.87564">
        <ele>267</ele>
        <time>2017-05-07T09:07:20Z</time>
      </trkpt>
      <trkpt lat="45.98674" lon="4.87568">
        <ele>267</ele>
        <time>2017-05-07T09:07:22Z</time>
      </trkpt>
      <trkpt lat="45.9867" lon="4.87569">
        <ele>267</ele>
        <time>2017-05-07T09:07:23Z</time>
      </trkpt>
      <trkpt lat="45.98664" lon="4.87565">
        <ele>267</ele>
        <time>2017-05-07T09:07:25Z</time>
      </trkpt>
      <trkpt lat="45.9866" lon="4.87562">
        <ele>267</ele>
        <time>2017-05-07T09:07:26Z</time>
      </trkpt>
      <trkpt lat="45.98654" lon="4.87557">
        <ele>267</ele>
        <time>2017-05-07T09:07:27Z</time>
      </trkpt>
      <trkpt lat="45.98651" lon="4.87551">
        <ele>267</ele>
        <time>2017-05-07T09:07:28Z</time>
      </trkpt>
      <trkpt lat="45.98647" lon="4.87544">
        <ele>267</ele>
        <time>2017-05-07T09:07:29Z</time>
      </trkpt>
      <trkpt lat="45.98645" lon="4.87538">
        <ele>267</ele>
        <time>2017-05-07T09:07:30Z</time>
      </trkpt>
      <trkpt lat="45.98643" lon="4.8753">
        <ele>267</ele>
        <time>2017-05-07T09:07:31Z</time>
      </trkpt>
      <trkpt lat="45.98642" lon="4.87524">
        <ele>267</ele>
        <time>2017-05-07T09:07:32Z</time>
      </trkpt>
      <trkpt lat="45.98641" lon="4.87516">
        <ele>267</ele>
        <time>2017-05-07T09:07:33Z</time>
      </trkpt>
      <trkpt lat="45.98639" lon="4.87509">
        <ele>267</ele>
        <time>2017-05-07T09:07:34Z</time>
      </trkpt>
      <trkpt lat="45.98638" lon="4.87501">
        <ele>267</ele>
        <time>2017-05-07T09:07:35Z</time>
      </trkpt>
      <trkpt lat="45.98636" lon="4.87493">
        <ele>267</ele>
        <time>2017-05-07T09:07:36Z</time>
      </trkpt>
      <trkpt lat="45.98635" lon="4.87485">
        <ele>268</ele>
        <time>2017-05-07T09:07:37Z</time>
      </trkpt>
      <trkpt lat="45.98633" lon="4.87477">
        <ele>268</ele>
        <time>2017-05-07T09:07:38Z</time>
      </trkpt>
      <trkpt lat="45.98632" lon="4.87469">
        <ele>268</ele>
        <time>2017-05-07T09:07:39Z</time>
      </trkpt>
      <trkpt lat="45.9863" lon="4.87462">
        <ele>268</ele>
        <time>2017-05-07T09:07:40Z</time>
      </trkpt>
      <trkpt lat="45.98629" lon="4.87454">
        <ele>268</ele>
        <time>2017-05-07T09:07:41Z</time>
      </trkpt>
      <trkpt lat="45.98627" lon="4.87446">
        <ele>268</ele>
        <time>2017-05-07T09:07:42Z</time>
      </trkpt>
      <trkpt lat="45.98626" lon="4.87439">
        <ele>269</ele>
        <time>2017-05-07T09:07:43Z</time>
      </trkpt>
      <trkpt lat="45.98625" lon="4.87431">
        <ele>269</ele>
        <time>2017-05-07T09:07:44Z</time>
      </trkpt>
      <trkpt lat="45.98623" lon="4.87424">
        <ele>269</ele>
        <time>2017-05-07T09:07:45Z</time>
      </trkpt>
      <trkpt lat="45.98622" lon="4.87417">
        <ele>271</ele>
        <time>2017-05-07T09:07:46Z</time>
      </trkpt>
      <trkpt lat="45.9862" lon="4.8741">
        <ele>271</ele>
        <time>2017-05-07T09:07:47Z</time>
      </trkpt>
      <trkpt lat="45.98619" lon="4.87402">
        <ele>271</ele>
        <time>2017-05-07T09:07:48Z</time>
      </trkpt>
      <trkpt lat="45.98617" lon="4.87395">
        <ele>271</ele>
        <time>2017-05-07T09:07:49Z</time>
      </trkpt>
      <trkpt lat="45.98616" lon="4.87388">
        <ele>271</ele>
        <time>2017-05-07T09:07:50Z</time>
      </trkpt>
      <trkpt lat="45.98614" lon="4.8738">
        <ele>271</ele>
        <time>2017-05-07T09:07:51Z</time>
      </trkpt>
      <trkpt lat="45.98613" lon="4.87373">
        <ele>271</ele>
        <time>2017-05-07T09:07:52Z</time>
      </trkpt>
      <trkpt lat="45.98612" lon="4.87366">
        <ele>271</ele>
        <time>2017-05-07T09:07:53Z</time>
      </trkpt>
      <trkpt lat="45.98611" lon="4.87359">
        <ele>272</ele>
        <time>2017-05-07T09:07:54Z</time>
      </trkpt>
      <trkpt lat="45.98609" lon="4.87352">
        <ele>272</ele>
        <time>2017-05-07T09:07:55Z</time>
      </trkpt>
      <trkpt lat="45.98607" lon="4.87345">
        <ele>272</ele>
        <time>2017-05-07T09:07:56Z</time>
      </trkpt>
      <trkpt lat="45.98606" lon="4.87338">
        <ele>272</ele>
        <time>2017-05-07T09:07:57Z</time>
      </trkpt>
      <trkpt lat="45.98605" lon="4.87331">
        <ele>274</ele>
        <time>2017-05-07T09:07:58Z</time>
      </trkpt>
      <trkpt lat="45.98604" lon="4.87325">
        <ele>274</ele>
        <time>2017-05-07T09:07:59Z</time>
      </trkpt>
      <trkpt lat="45.98603" lon="4.87318">
        <ele>274</ele>
        <time>2017-05-07T09:08:00Z</time>
      </trkpt>
      <trkpt lat="45.98602" lon="4.87311">
        <ele>274</ele>
        <time>2017-05-07T09:08:01Z</time>
      </trkpt>
      <trkpt lat="45.98602" lon="4.87304">
        <ele>274</ele>
        <time>2017-05-07T09:08:02Z</time>
      </trkpt>
      <trkpt lat="45.98601" lon="4.87297">
        <ele>275</ele>
        <time>2017-05-07T09:08:03Z</time>
      </trkpt>
      <trkpt lat="45.986" lon="4.8729">
        <ele>275</ele>
        <time>2017-05-07T09:08:04Z</time>
      </trkpt>
      <trkpt lat="45.986" lon="4.87284">
        <ele>275</ele>
        <time>2017-05-07T09:08:05Z</time>
      </trkpt>
      <trkpt lat="45.986" lon="4.87277">
        <ele>275</ele>
        <time>2017-05-07T09:08:06Z</time>
      </trkpt>
      <trkpt lat="45.98599" lon="4.8727">
        <ele>275</ele>
        <time>2017-05-07T09:08:07Z</time>
      </trkpt>
      <trkpt lat="45.98599" lon="4.87263">
        <ele>275</ele>
        <time>2017-05-07T09:08:08Z</time>
      </trkpt>
      <trkpt lat="45.986" lon="4.87251">
        <ele>275</ele>
        <time>2017-05-07T09:08:10Z</time>
      </trkpt>
      <trkpt lat="45.98601" lon="4.87245">
        <ele>277</ele>
        <time>2017-05-07T09:08:11Z</time>
      </trkpt>
      <trkpt lat="45.98602" lon="4.87232">
        <ele>277</ele>
        <time>2017-05-07T09:08:13Z</time>
      </trkpt>
      <trkpt lat="45.98602" lon="4.87227">
        <ele>277</ele>
        <time>2017-05-07T09:08:14Z</time>
      </trkpt>
      <trkpt lat="45.98604" lon="4.87215">
        <ele>277</ele>
        <time>2017-05-07T09:08:16Z</time>
      </trkpt>
      <trkpt lat="45.98606" lon="4.87209">
        <ele>277</ele>
        <time>2017-05-07T09:08:17Z</time>
      </trkpt>
      <trkpt lat="45.98607" lon="4.87197">
        <ele>277</ele>
        <time>2017-05-07T09:08:19Z</time>
      </trkpt>
      <trkpt lat="45.98609" lon="4.87191">
        <ele>277</ele>
        <time>2017-05-07T09:08:20Z</time>
      </trkpt>
      <trkpt lat="45.9861" lon="4.87185">
        <ele>277</ele>
        <time>2017-05-07T09:08:21Z</time>
      </trkpt>
      <trkpt lat="45.98611" lon="4.87178">
        <ele>278</ele>
        <time>2017-05-07T09:08:22Z</time>
      </trkpt>
      <trkpt lat="45.98612" lon="4.87171">
        <ele>278</ele>
        <time>2017-05-07T09:08:23Z</time>
      </trkpt>
      <trkpt lat="45.98613" lon="4.87165">
        <ele>278</ele>
        <time>2017-05-07T09:08:24Z</time>
      </trkpt>
      <trkpt lat="45.98613" lon="4.87158">
        <ele>278</ele>
        <time>2017-05-07T09:08:25Z</time>
      </trkpt>
      <trkpt lat="45.98615" lon="4.8715">
        <ele>278</ele>
        <time>2017-05-07T09:08:26Z</time>
      </trkpt>
      <trkpt lat="45.98614" lon="4.87142">
        <ele>279</ele>
        <time>2017-05-07T09:08:27Z</time>
      </trkpt>
      <trkpt lat="45.98612" lon="4.87135">
        <ele>279</ele>
        <time>2017-05-07T09:08:28Z</time>
      </trkpt>
      <trkpt lat="45.98611" lon="4.87124">
        <ele>279</ele>
        <time>2017-05-07T09:08:30Z</time>
      </trkpt>
      <trkpt lat="45.98611" lon="4.87117">
        <ele>279</ele>
        <time>2017-05-07T09:08:31Z</time>
      </trkpt>
      <trkpt lat="45.9861" lon="4.87106">
        <ele>279</ele>
        <time>2017-05-07T09:08:33Z</time>
      </trkpt>
      <trkpt lat="45.98611" lon="4.871">
        <ele>279</ele>
        <time>2017-05-07T09:08:34Z</time>
      </trkpt>
      <trkpt lat="45.98612" lon="4.87088">
        <ele>279</ele>
        <time>2017-05-07T09:08:36Z</time>
      </trkpt>
      <trkpt lat="45.98613" lon="4.87082">
        <ele>279</ele>
        <time>2017-05-07T09:08:37Z</time>
      </trkpt>
      <trkpt lat="45.98613" lon="4.8707">
        <ele>279</ele>
        <time>2017-05-07T09:08:39Z</time>
      </trkpt>
      <trkpt lat="45.98612" lon="4.87063">
        <ele>279</ele>
        <time>2017-05-07T09:08:40Z</time>
      </trkpt>
      <trkpt lat="45.9861" lon="4.87056">
        <ele>279</ele>
        <time>2017-05-07T09:08:41Z</time>
      </trkpt>
      <trkpt lat="45.98609" lon="4.87049">
        <ele>279</ele>
        <time>2017-05-07T09:08:42Z</time>
      </trkpt>
      <trkpt lat="45.98608" lon="4.87043">
        <ele>279</ele>
        <time>2017-05-07T09:08:43Z</time>
      </trkpt>
      <trkpt lat="45.98606" lon="4.87036">
        <ele>279</ele>
        <time>2017-05-07T09:08:44Z</time>
      </trkpt>
      <trkpt lat="45.98604" lon="4.8703">
        <ele>279</ele>
        <time>2017-05-07T09:08:45Z</time>
      </trkpt>
      <trkpt lat="45.98603" lon="4.87024">
        <ele>279</ele>
        <time>2017-05-07T09:08:46Z</time>
      </trkpt>
      <trkpt lat="45.98601" lon="4.87017">
        <ele>279</ele>
        <time>2017-05-07T09:08:47Z</time>
      </trkpt>
      <trkpt lat="45.98599" lon="4.87011">
        <ele>279</ele>
        <time>2017-05-07T09:08:48Z</time>
      </trkpt>
      <trkpt lat="45.98596" lon="4.86999">
        <ele>279</ele>
        <time>2017-05-07T09:08:50Z</time>
      </trkpt>
      <trkpt lat="45.98595" lon="4.86993">
        <ele>279</ele>
        <time>2017-05-07T09:08:51Z</time>
      </trkpt>
      <trkpt lat="45.98593" lon="4.86982">
        <ele>279</ele>
        <time>2017-05-07T09:08:53Z</time>
      </trkpt>
      <trkpt lat="45.98593" lon="4.86976">
        <ele>279</ele>
        <time>2017-05-07T09:08:54Z</time>
      </trkpt>
      <trkpt lat="45.98592" lon="4.86965">
        <ele>279</ele>
        <time>2017-05-07T09:08:56Z</time>
      </trkpt>
      <trkpt lat="45.98591" lon="4.8696">
        <ele>279</ele>
        <time>2017-05-07T09:08:57Z</time>
      </trkpt>
      <trkpt lat="45.98591" lon="4.86949">
        <ele>278</ele>
        <time>2017-05-07T09:08:59Z</time>
      </trkpt>
      <trkpt lat="45.9859" lon="4.86943">
        <ele>278</ele>
        <time>2017-05-07T09:09:00Z</time>
      </trkpt>
      <trkpt lat="45.98589" lon="4.86931">
        <ele>279</ele>
        <time>2017-05-07T09:09:02Z</time>
      </trkpt>
      <trkpt lat="45.98589" lon="4.86925">
        <ele>279</ele>
        <time>2017-05-07T09:09:03Z</time>
      </trkpt>
      <trkpt lat="45.98591" lon="4.86912">
        <ele>278</ele>
        <time>2017-05-07T09:09:05Z</time>
      </trkpt>
      <trkpt lat="45.98591" lon="4.86906">
        <ele>278</ele>
        <time>2017-05-07T09:09:06Z</time>
      </trkpt>
      <trkpt lat="45.98592" lon="4.86895">
        <ele>278</ele>
        <time>2017-05-07T09:09:08Z</time>
      </trkpt>
      <trkpt lat="45.98591" lon="4.86889">
        <ele>278</ele>
        <time>2017-05-07T09:09:09Z</time>
      </trkpt>
      <trkpt lat="45.98591" lon="4.86877">
        <ele>277</ele>
        <time>2017-05-07T09:09:11Z</time>
      </trkpt>
      <trkpt lat="45.98591" lon="4.86871">
        <ele>277</ele>
        <time>2017-05-07T09:09:12Z</time>
      </trkpt>
      <trkpt lat="45.98591" lon="4.86859">
        <ele>277</ele>
        <time>2017-05-07T09:09:14Z</time>
      </trkpt>
      <trkpt lat="45.98591" lon="4.86853">
        <ele>277</ele>
        <time>2017-05-07T09:09:15Z</time>
      </trkpt>
      <trkpt lat="45.98591" lon="4.86842">
        <ele>277</ele>
        <time>2017-05-07T09:09:17Z</time>
      </trkpt>
      <trkpt lat="45.98591" lon="4.86836">
        <ele>277</ele>
        <time>2017-05-07T09:09:18Z</time>
      </trkpt>
      <trkpt lat="45.9859" lon="4.86826">
        <ele>277</ele>
        <time>2017-05-07T09:09:20Z</time>
      </trkpt>
      <trkpt lat="45.98589" lon="4.8682">
        <ele>276</ele>
        <time>2017-05-07T09:09:21Z</time>
      </trkpt>
      <trkpt lat="45.98588" lon="4.86813">
        <ele>276</ele>
        <time>2017-05-07T09:09:22Z</time>
      </trkpt>
      <trkpt lat="45.98587" lon="4.86807">
        <ele>276</ele>
        <time>2017-05-07T09:09:23Z</time>
      </trkpt>
      <trkpt lat="45.98586" lon="4.868">
        <ele>276</ele>
        <time>2017-05-07T09:09:24Z</time>
      </trkpt>
      <trkpt lat="45.98584" lon="4.86793">
        <ele>276</ele>
        <time>2017-05-07T09:09:25Z</time>
      </trkpt>
      <trkpt lat="45.98583" lon="4.86785">
        <ele>277</ele>
        <time>2017-05-07T09:09:26Z</time>
      </trkpt>
      <trkpt lat="45.98581" lon="4.86778">
        <ele>277</ele>
        <time>2017-05-07T09:09:27Z</time>
      </trkpt>
      <trkpt lat="45.9858" lon="4.86769">
        <ele>277</ele>
        <time>2017-05-07T09:09:28Z</time>
      </trkpt>
      <trkpt lat="45.98578" lon="4.86761">
        <ele>277</ele>
        <time>2017-05-07T09:09:29Z</time>
      </trkpt>
      <trkpt lat="45.98576" lon="4.86752">
        <ele>277</ele>
        <time>2017-05-07T09:09:30Z</time>
      </trkpt>
      <trkpt lat="45.98575" lon="4.86744">
        <ele>276</ele>
        <time>2017-05-07T09:09:31Z</time>
      </trkpt>
      <trkpt lat="45.98575" lon="4.86737">
        <ele>277</ele>
        <time>2017-05-07T09:09:32Z</time>
      </trkpt>
      <trkpt lat="45.98574" lon="4.8673">
        <ele>277</ele>
        <time>2017-05-07T09:09:33Z</time>
      </trkpt>
      <trkpt lat="45.98574" lon="4.86723">
        <ele>277</ele>
        <time>2017-05-07T09:09:34Z</time>
      </trkpt>
      <trkpt lat="45.98573" lon="4.86716">
        <ele>277</ele>
        <time>2017-05-07T09:09:35Z</time>
      </trkpt>
      <trkpt lat="45.98573" lon="4.86704">
        <ele>277</ele>
        <time>2017-05-07T09:09:37Z</time>
      </trkpt>
      <trkpt lat="45.98572" lon="4.86698">
        <ele>277</ele>
        <time>2017-05-07T09:09:38Z</time>
      </trkpt>
      <trkpt lat="45.98571" lon="4.86686">
        <ele>276</ele>
        <time>2017-05-07T09:09:40Z</time>
      </trkpt>
      <trkpt lat="45.98571" lon="4.8668">
        <ele>276</ele>
        <time>2017-05-07T09:09:41Z</time>
      </trkpt>
      <trkpt lat="45.9857" lon="4.86668">
        <ele>276</ele>
        <time>2017-05-07T09:09:43Z</time>
      </trkpt>
      <trkpt lat="45.98569" lon="4.86662">
        <ele>276</ele>
        <time>2017-05-07T09:09:44Z</time>
      </trkpt>
      <trkpt lat="45.98566" lon="4.8665">
        <ele>277</ele>
        <time>2017-05-07T09:09:46Z</time>
      </trkpt>
      <trkpt lat="45.98565" lon="4.86644">
        <ele>277</ele>
        <time>2017-05-07T09:09:47Z</time>
      </trkpt>
      <trkpt lat="45.98564" lon="4.86631">
        <ele>278</ele>
        <time>2017-05-07T09:09:49Z</time>
      </trkpt>
      <trkpt lat="45.98562" lon="4.86625">
        <ele>278</ele>
        <time>2017-05-07T09:09:50Z</time>
      </trkpt>
      <trkpt lat="45.98562" lon="4.86618">
        <ele>278</ele>
        <time>2017-05-07T09:09:51Z</time>
      </trkpt>
      <trkpt lat="45.9856" lon="4.86612">
        <ele>278</ele>
        <time>2017-05-07T09:09:52Z</time>
      </trkpt>
      <trkpt lat="45.98559" lon="4.86605">
        <ele>278</ele>
        <time>2017-05-07T09:09:53Z</time>
      </trkpt>
      <trkpt lat="45.98558" lon="4.86599">
        <ele>278</ele>
        <time>2017-05-07T09:09:54Z</time>
      </trkpt>
      <trkpt lat="45.98556" lon="4.86587">
        <ele>278</ele>
        <time>2017-05-07T09:09:56Z</time>
      </trkpt>
      <trkpt lat="45.98554" lon="4.86581">
        <ele>278</ele>
        <time>2017-05-07T09:09:57Z</time>
      </trkpt>
      <trkpt lat="45.9855" lon="4.8657">
        <ele>278</ele>
        <time>2017-05-07T09:09:59Z</time>
      </trkpt>
      <trkpt lat="45.98548" lon="4.86564">
        <ele>278</ele>
        <time>2017-05-07T09:10:00Z</time>
      </trkpt>
      <trkpt lat="45.98543" lon="4.86554">
        <ele>278</ele>
        <time>2017-05-07T09:10:02Z</time>
      </trkpt>
      <trkpt lat="45.9854" lon="4.86549">
        <ele>278</ele>
        <time>2017-05-07T09:10:03Z</time>
      </trkpt>
      <trkpt lat="45.98537" lon="4.86543">
        <ele>278</ele>
        <time>2017-05-07T09:10:04Z</time>
      </trkpt>
      <trkpt lat="45.98534" lon="4.86538">
        <ele>278</ele>
        <time>2017-05-07T09:10:05Z</time>
      </trkpt>
      <trkpt lat="45.98531" lon="4.86533">
        <ele>279</ele>
        <time>2017-05-07T09:10:06Z</time>
      </trkpt>
      <trkpt lat="45.98528" lon="4.86528">
        <ele>279</ele>
        <time>2017-05-07T09:10:07Z</time>
      </trkpt>
      <trkpt lat="45.98522" lon="4.86518">
        <ele>279</ele>
        <time>2017-05-07T09:10:09Z</time>
      </trkpt>
      <trkpt lat="45.9852" lon="4.86512">
        <ele>279</ele>
        <time>2017-05-07T09:10:10Z</time>
      </trkpt>
      <trkpt lat="45.98517" lon="4.86507">
        <ele>279</ele>
        <time>2017-05-07T09:10:11Z</time>
      </trkpt>
      <trkpt lat="45.98514" lon="4.86501">
        <ele>279</ele>
        <time>2017-05-07T09:10:12Z</time>
      </trkpt>
      <trkpt lat="45.98511" lon="4.86494">
        <ele>279</ele>
        <time>2017-05-07T09:10:13Z</time>
      </trkpt>
      <trkpt lat="45.98508" lon="4.86488">
        <ele>279</ele>
        <time>2017-05-07T09:10:14Z</time>
      </trkpt>
      <trkpt lat="45.98505" lon="4.86481">
        <ele>278</ele>
        <time>2017-05-07T09:10:15Z</time>
      </trkpt>
      <trkpt lat="45.98503" lon="4.86474">
        <ele>278</ele>
        <time>2017-05-07T09:10:16Z</time>
      </trkpt>
      <trkpt lat="45.985" lon="4.86468">
        <ele>279</ele>
        <time>2017-05-07T09:10:17Z</time>
      </trkpt>
      <trkpt lat="45.98497" lon="4.86461">
        <ele>278</ele>
        <time>2017-05-07T09:10:18Z</time>
      </trkpt>
      <trkpt lat="45.98495" lon="4.86454">
        <ele>278</ele>
        <time>2017-05-07T09:10:19Z</time>
      </trkpt>
      <trkpt lat="45.98492" lon="4.86448">
        <ele>278</ele>
        <time>2017-05-07T09:10:20Z</time>
      </trkpt>
      <trkpt lat="45.9849" lon="4.86442">
        <ele>278</ele>
        <time>2017-05-07T09:10:21Z</time>
      </trkpt>
      <trkpt lat="45.98487" lon="4.86436">
        <ele>278</ele>
        <time>2017-05-07T09:10:22Z</time>
      </trkpt>
      <trkpt lat="45.98482" lon="4.86427">
        <ele>278</ele>
        <time>2017-05-07T09:10:24Z</time>
      </trkpt>
      <trkpt lat="45.98479" lon="4.86422">
        <ele>278</ele>
        <time>2017-05-07T09:10:25Z</time>
      </trkpt>
      <trkpt lat="45.98474" lon="4.86413">
        <ele>277</ele>
        <time>2017-05-07T09:10:27Z</time>
      </trkpt>
      <trkpt lat="45.98472" lon="4.86408">
        <ele>277</ele>
        <time>2017-05-07T09:10:28Z</time>
      </trkpt>
      <trkpt lat="45.98468" lon="4.86398">
        <ele>277</ele>
        <time>2017-05-07T09:10:30Z</time>
      </trkpt>
      <trkpt lat="45.98466" lon="4.86392">
        <ele>277</ele>
        <time>2017-05-07T09:10:31Z</time>
      </trkpt>
      <trkpt lat="45.98461" lon="4.86381">
        <ele>277</ele>
        <time>2017-05-07T09:10:33Z</time>
      </trkpt>
      <trkpt lat="45.98459" lon="4.86376">
        <ele>277</ele>
        <time>2017-05-07T09:10:34Z</time>
      </trkpt>
      <trkpt lat="45.98457" lon="4.86366">
        <ele>277</ele>
        <time>2017-05-07T09:10:36Z</time>
      </trkpt>
      <trkpt lat="45.98455" lon="4.8636">
        <ele>277</ele>
        <time>2017-05-07T09:10:37Z</time>
      </trkpt>
      <trkpt lat="45.98452" lon="4.86351">
        <ele>277</ele>
        <time>2017-05-07T09:10:39Z</time>
      </trkpt>
      <trkpt lat="45.9845" lon="4.86346">
        <ele>277</ele>
        <time>2017-05-07T09:10:40Z</time>
      </trkpt>
      <trkpt lat="45.98448" lon="4.86336">
        <ele>277</ele>
        <time>2017-05-07T09:10:42Z</time>
      </trkpt>
      <trkpt lat="45.98447" lon="4.86331">
        <ele>276</ele>
        <time>2017-05-07T09:10:43Z</time>
      </trkpt>
      <trkpt lat="45.98446" lon="4.8632">
        <ele>276</ele>
        <time>2017-05-07T09:10:45Z</time>
      </trkpt>
      <trkpt lat="45.98445" lon="4.86315">
        <ele>276</ele>
        <time>2017-05-07T09:10:46Z</time>
      </trkpt>
      <trkpt lat="45.98443" lon="4.86305">
        <ele>276</ele>
        <time>2017-05-07T09:10:48Z</time>
      </trkpt>
      <trkpt lat="45.98442" lon="4.863">
        <ele>276</ele>
        <time>2017-05-07T09:10:49Z</time>
      </trkpt>
      <trkpt lat="45.9844" lon="4.86289">
        <ele>276</ele>
        <time>2017-05-07T09:10:51Z</time>
      </trkpt>
      <trkpt lat="45.9844" lon="4.86284">
        <ele>276</ele>
        <time>2017-05-07T09:10:52Z</time>
      </trkpt>
      <trkpt lat="45.98439" lon="4.86273">
        <ele>276</ele>
        <time>2017-05-07T09:10:54Z</time>
      </trkpt>
      <trkpt lat="45.98438" lon="4.86268">
        <ele>275</ele>
        <time>2017-05-07T09:10:55Z</time>
      </trkpt>
      <trkpt lat="45.98436" lon="4.86257">
        <ele>275</ele>
        <time>2017-05-07T09:10:57Z</time>
      </trkpt>
      <trkpt lat="45.98435" lon="4.86252">
        <ele>275</ele>
        <time>2017-05-07T09:10:58Z</time>
      </trkpt>
      <trkpt lat="45.98433" lon="4.86243">
        <ele>275</ele>
        <time>2017-05-07T09:11:00Z</time>
      </trkpt>
      <trkpt lat="45.98432" lon="4.86237">
        <ele>275</ele>
        <time>2017-05-07T09:11:01Z</time>
      </trkpt>
      <trkpt lat="45.9843" lon="4.86226">
        <ele>275</ele>
        <time>2017-05-07T09:11:03Z</time>
      </trkpt>
      <trkpt lat="45.98429" lon="4.8622">
        <ele>275</ele>
        <time>2017-05-07T09:11:04Z</time>
      </trkpt>
      <trkpt lat="45.98427" lon="4.86209">
        <ele>275</ele>
        <time>2017-05-07T09:11:06Z</time>
      </trkpt>
      <trkpt lat="45.98426" lon="4.86204">
        <ele>275</ele>
        <time>2017-05-07T09:11:07Z</time>
      </trkpt>
      <trkpt lat="45.98425" lon="4.86194">
        <ele>275</ele>
        <time>2017-05-07T09:11:09Z</time>
      </trkpt>
      <trkpt lat="45.98425" lon="4.86189">
        <ele>275</ele>
        <time>2017-05-07T09:11:10Z</time>
      </trkpt>
      <trkpt lat="45.98423" lon="4.86179">
        <ele>275</ele>
        <time>2017-05-07T09:11:12Z</time>
      </trkpt>
      <trkpt lat="45.98422" lon="4.86174">
        <ele>276</ele>
        <time>2017-05-07T09:11:13Z</time>
      </trkpt>
      <trkpt lat="45.9842" lon="4.86164">
        <ele>276</ele>
        <time>2017-05-07T09:11:15Z</time>
      </trkpt>
      <trkpt lat="45.98419" lon="4.86159">
        <ele>276</ele>
        <time>2017-05-07T09:11:16Z</time>
      </trkpt>
      <trkpt lat="45.98418" lon="4.86148">
        <ele>276</ele>
        <time>2017-05-07T09:11:18Z</time>
      </trkpt>
      <trkpt lat="45.98417" lon="4.86142">
        <ele>276</ele>
        <time>2017-05-07T09:11:19Z</time>
      </trkpt>
      <trkpt lat="45.98415" lon="4.86131">
        <ele>276</ele>
        <time>2017-05-07T09:11:21Z</time>
      </trkpt>
      <trkpt lat="45.98414" lon="4.86125">
        <ele>277</ele>
        <time>2017-05-07T09:11:22Z</time>
      </trkpt>
      <trkpt lat="45.98413" lon="4.86118">
        <ele>277</ele>
        <time>2017-05-07T09:11:23Z</time>
      </trkpt>
      <trkpt lat="45.98412" lon="4.86111">
        <ele>277</ele>
        <time>2017-05-07T09:11:24Z</time>
      </trkpt>
      <trkpt lat="45.98411" lon="4.86103">
        <ele>277</ele>
        <time>2017-05-07T09:11:25Z</time>
      </trkpt>
      <trkpt lat="45.98409" lon="4.86095">
        <ele>277</ele>
        <time>2017-05-07T09:11:26Z</time>
      </trkpt>
      <trkpt lat="45.98406" lon="4.86087">
        <ele>277</ele>
        <time>2017-05-07T09:11:27Z</time>
      </trkpt>
      <trkpt lat="45.98404" lon="4.86078">
        <ele>277</ele>
        <time>2017-05-07T09:11:28Z</time>
      </trkpt>
      <trkpt lat="45.98402" lon="4.86069">
        <ele>277</ele>
        <time>2017-05-07T09:11:29Z</time>
      </trkpt>
      <trkpt lat="45.984" lon="4.86059">
        <ele>277</ele>
        <time>2017-05-07T09:11:30Z</time>
      </trkpt>
      <trkpt lat="45.98398" lon="4.8605">
        <ele>277</ele>
        <time>2017-05-07T09:11:31Z</time>
      </trkpt>
      <trkpt lat="45.98394" lon="4.8604">
        <ele>277</ele>
        <time>2017-05-07T09:11:32Z</time>
      </trkpt>
      <trkpt lat="45.98391" lon="4.86031">
        <ele>277</ele>
        <time>2017-05-07T09:11:33Z</time>
      </trkpt>
      <trkpt lat="45.98388" lon="4.86022">
        <ele>277</ele>
        <time>2017-05-07T09:11:34Z</time>
      </trkpt>
      <trkpt lat="45.98384" lon="4.86014">
        <ele>277</ele>
        <time>2017-05-07T09:11:35Z</time>
      </trkpt>
      <trkpt lat="45.9838" lon="4.86006">
        <ele>277</ele>
        <time>2017-05-07T09:11:36Z</time>
      </trkpt>
      <trkpt lat="45.98377" lon="4.85998">
        <ele>277</ele>
        <time>2017-05-07T09:11:37Z</time>
      </trkpt>
      <trkpt lat="45.98375" lon="4.85991">
        <ele>276</ele>
        <time>2017-05-07T09:11:38Z</time>
      </trkpt>
      <trkpt lat="45.98371" lon="4.85983">
        <ele>276</ele>
        <time>2017-05-07T09:11:39Z</time>
      </trkpt>
      <trkpt lat="45.98369" lon="4.85976">
        <ele>276</ele>
        <time>2017-05-07T09:11:40Z</time>
      </trkpt>
      <trkpt lat="45.98367" lon="4.8597">
        <ele>276</ele>
        <time>2017-05-07T09:11:41Z</time>
      </trkpt>
      <trkpt lat="45.98364" lon="4.85962">
        <ele>276</ele>
        <time>2017-05-07T09:11:42Z</time>
      </trkpt>
      <trkpt lat="45.98361" lon="4.85955">
        <ele>276</ele>
        <time>2017-05-07T09:11:43Z</time>
      </trkpt>
      <trkpt lat="45.98359" lon="4.85948">
        <ele>276</ele>
        <time>2017-05-07T09:11:44Z</time>
      </trkpt>
      <trkpt lat="45.98357" lon="4.85941">
        <ele>276</ele>
        <time>2017-05-07T09:11:45Z</time>
      </trkpt>
      <trkpt lat="45.98354" lon="4.85934">
        <ele>276</ele>
        <time>2017-05-07T09:11:46Z</time>
      </trkpt>
      <trkpt lat="45.98352" lon="4.85927">
        <ele>276</ele>
        <time>2017-05-07T09:11:47Z</time>
      </trkpt>
      <trkpt lat="45.98349" lon="4.85921">
        <ele>276</ele>
        <time>2017-05-07T09:11:48Z</time>
      </trkpt>
      <trkpt lat="45.98347" lon="4.85915">
        <ele>276</ele>
        <time>2017-05-07T09:11:49Z</time>
      </trkpt>
      <trkpt lat="45.98345" lon="4.8591">
        <ele>276</ele>
        <time>2017-05-07T09:11:50Z</time>
      </trkpt>
      <trkpt lat="45.98341" lon="4.85899">
        <ele>276</ele>
        <time>2017-05-07T09:11:52Z</time>
      </trkpt>
      <trkpt lat="45.98339" lon="4.85893">
        <ele>276</ele>
        <time>2017-05-07T09:11:53Z</time>
      </trkpt>
      <trkpt lat="45.98337" lon="4.85887">
        <ele>276</ele>
        <time>2017-05-07T09:11:54Z</time>
      </trkpt>
      <trkpt lat="45.98334" lon="4.8588">
        <ele>276</ele>
        <time>2017-05-07T09:11:55Z</time>
      </trkpt>
      <trkpt lat="45.98331" lon="4.85873">
        <ele>276</ele>
        <time>2017-05-07T09:11:56Z</time>
      </trkpt>
      <trkpt lat="45.98327" lon="4.85864">
        <ele>276</ele>
        <time>2017-05-07T09:11:57Z</time>
      </trkpt>
      <trkpt lat="45.98324" lon="4.85855">
        <ele>276</ele>
        <time>2017-05-07T09:11:58Z</time>
      </trkpt>
      <trkpt lat="45.98321" lon="4.85847">
        <ele>276</ele>
        <time>2017-05-07T09:11:59Z</time>
      </trkpt>
      <trkpt lat="45.98318" lon="4.85838">
        <ele>276</ele>
        <time>2017-05-07T09:12:00Z</time>
      </trkpt>
      <trkpt lat="45.98314" lon="4.85829">
        <ele>275</ele>
        <time>2017-05-07T09:12:01Z</time>
      </trkpt>
      <trkpt lat="45.9831" lon="4.8582">
        <ele>275</ele>
        <time>2017-05-07T09:12:02Z</time>
      </trkpt>
      <trkpt lat="45.98305" lon="4.8581">
        <ele>275</ele>
        <time>2017-05-07T09:12:03Z</time>
      </trkpt>
      <trkpt lat="45.98301" lon="4.85802">
        <ele>275</ele>
        <time>2017-05-07T09:12:04Z</time>
      </trkpt>
      <trkpt lat="45.98297" lon="4.85793">
        <ele>275</ele>
        <time>2017-05-07T09:12:05Z</time>
      </trkpt>
      <trkpt lat="45.98293" lon="4.85785">
        <ele>275</ele>
        <time>2017-05-07T09:12:06Z</time>
      </trkpt>
      <trkpt lat="45.9829" lon="4.85777">
        <ele>275</ele>
        <time>2017-05-07T09:12:07Z</time>
      </trkpt>
      <trkpt lat="45.98287" lon="4.8577">
        <ele>275</ele>
        <time>2017-05-07T09:12:08Z</time>
      </trkpt>
      <trkpt lat="45.98284" lon="4.85763">
        <ele>275</ele>
        <time>2017-05-07T09:12:09Z</time>
      </trkpt>
      <trkpt lat="45.98282" lon="4.85757">
        <ele>275</ele>
        <time>2017-05-07T09:12:10Z</time>
      </trkpt>
      <trkpt lat="45.98279" lon="4.85751">
        <ele>275</ele>
        <time>2017-05-07T09:12:11Z</time>
      </trkpt>
      <trkpt lat="45.98276" lon="4.85743">
        <ele>274</ele>
        <time>2017-05-07T09:12:12Z</time>
      </trkpt>
      <trkpt lat="45.98273" lon="4.85736">
        <ele>274</ele>
        <time>2017-05-07T09:12:13Z</time>
      </trkpt>
      <trkpt lat="45.9827" lon="4.85729">
        <ele>275</ele>
        <time>2017-05-07T09:12:14Z</time>
      </trkpt>
      <trkpt lat="45.98267" lon="4.85721">
        <ele>275</ele>
        <time>2017-05-07T09:12:15Z</time>
      </trkpt>
      <trkpt lat="45.98264" lon="4.85713">
        <ele>275</ele>
        <time>2017-05-07T09:12:16Z</time>
      </trkpt>
      <trkpt lat="45.98261" lon="4.85705">
        <ele>275</ele>
        <time>2017-05-07T09:12:17Z</time>
      </trkpt>
      <trkpt lat="45.98258" lon="4.85697">
        <ele>275</ele>
        <time>2017-05-07T09:12:18Z</time>
      </trkpt>
      <trkpt lat="45.98254" lon="4.85689">
        <ele>275</ele>
        <time>2017-05-07T09:12:19Z</time>
      </trkpt>
      <trkpt lat="45.98251" lon="4.85681">
        <ele>275</ele>
        <time>2017-05-07T09:12:20Z</time>
      </trkpt>
      <trkpt lat="45.98247" lon="4.85673">
        <ele>276</ele>
        <time>2017-05-07T09:12:21Z</time>
      </trkpt>
      <trkpt lat="45.98244" lon="4.85665">
        <ele>276</ele>
        <time>2017-05-07T09:12:22Z</time>
      </trkpt>
      <trkpt lat="45.98241" lon="4.85657">
        <ele>276</ele>
        <time>2017-05-07T09:12:23Z</time>
      </trkpt>
      <trkpt lat="45.98238" lon="4.8565">
        <ele>276</ele>
        <time>2017-05-07T09:12:24Z</time>
      </trkpt>
      <trkpt lat="45.98235" lon="4.85642">
        <ele>277</ele>
        <time>2017-05-07T09:12:25Z</time>
      </trkpt>
      <trkpt lat="45.98232" lon="4.85635">
        <ele>277</ele>
        <time>2017-05-07T09:12:26Z</time>
      </trkpt>
      <trkpt lat="45.98229" lon="4.85628">
        <ele>277</ele>
        <time>2017-05-07T09:12:27Z</time>
      </trkpt>
      <trkpt lat="45.98226" lon="4.85622">
        <ele>277</ele>
        <time>2017-05-07T09:12:28Z</time>
      </trkpt>
      <trkpt lat="45.98224" lon="4.85616">
        <ele>277</ele>
        <time>2017-05-07T09:12:29Z</time>
      </trkpt>
      <trkpt lat="45.98221" lon="4.85609">
        <ele>277</ele>
        <time>2017-05-07T09:12:30Z</time>
      </trkpt>
      <trkpt lat="45.98218" lon="4.85603">
        <ele>277</ele>
        <time>2017-05-07T09:12:31Z</time>
      </trkpt>
      <trkpt lat="45.98215" lon="4.85596">
        <ele>277</ele>
        <time>2017-05-07T09:12:32Z</time>
      </trkpt>
      <trkpt lat="45.98213" lon="4.85589">
        <ele>277</ele>
        <time>2017-05-07T09:12:33Z</time>
      </trkpt>
      <trkpt lat="45.98209" lon="4.85582">
        <ele>276</ele>
        <time>2017-05-07T09:12:34Z</time>
      </trkpt>
      <trkpt lat="45.98206" lon="4.85574">
        <ele>276</ele>
        <time>2017-05-07T09:12:35Z</time>
      </trkpt>
      <trkpt lat="45.98204" lon="4.85568">
        <ele>276</ele>
        <time>2017-05-07T09:12:36Z</time>
      </trkpt>
      <trkpt lat="45.98201" lon="4.85561">
        <ele>276</ele>
        <time>2017-05-07T09:12:37Z</time>
      </trkpt>
      <trkpt lat="45.98199" lon="4.85555">
        <ele>276</ele>
        <time>2017-05-07T09:12:38Z</time>
      </trkpt>
      <trkpt lat="45.98196" lon="4.8555">
        <ele>276</ele>
        <time>2017-05-07T09:12:39Z</time>
      </trkpt>
      <trkpt lat="45.98194" lon="4.85544">
        <ele>276</ele>
        <time>2017-05-07T09:12:40Z</time>
      </trkpt>
      <trkpt lat="45.98191" lon="4.85538">
        <ele>276</ele>
        <time>2017-05-07T09:12:41Z</time>
      </trkpt>
      <trkpt lat="45.98189" lon="4.85532">
        <ele>276</ele>
        <time>2017-05-07T09:12:42Z</time>
      </trkpt>
      <trkpt lat="45.98187" lon="4.85526">
        <ele>276</ele>
        <time>2017-05-07T09:12:43Z</time>
      </trkpt>
      <trkpt lat="45.98185" lon="4.8552">
        <ele>275</ele>
        <time>2017-05-07T09:12:44Z</time>
      </trkpt>
      <trkpt lat="45.98182" lon="4.85514">
        <ele>275</ele>
        <time>2017-05-07T09:12:45Z</time>
      </trkpt>
      <trkpt lat="45.9818" lon="4.85509">
        <ele>275</ele>
        <time>2017-05-07T09:12:46Z</time>
      </trkpt>
      <trkpt lat="45.98178" lon="4.85503">
        <ele>275</ele>
        <time>2017-05-07T09:12:47Z</time>
      </trkpt>
      <trkpt lat="45.98173" lon="4.85493">
        <ele>275</ele>
        <time>2017-05-07T09:12:49Z</time>
      </trkpt>
      <trkpt lat="45.98171" lon="4.85487">
        <ele>275</ele>
        <time>2017-05-07T09:12:50Z</time>
      </trkpt>
      <trkpt lat="45.98168" lon="4.85482">
        <ele>275</ele>
        <time>2017-05-07T09:12:51Z</time>
      </trkpt>
      <trkpt lat="45.98166" lon="4.85476">
        <ele>275</ele>
        <time>2017-05-07T09:12:52Z</time>
      </trkpt>
      <trkpt lat="45.98164" lon="4.8547">
        <ele>275</ele>
        <time>2017-05-07T09:12:53Z</time>
      </trkpt>
      <trkpt lat="45.98161" lon="4.85464">
        <ele>275</ele>
        <time>2017-05-07T09:12:54Z</time>
      </trkpt>
      <trkpt lat="45.98159" lon="4.85459">
        <ele>275</ele>
        <time>2017-05-07T09:12:55Z</time>
      </trkpt>
      <trkpt lat="45.98157" lon="4.85453">
        <ele>276</ele>
        <time>2017-05-07T09:12:56Z</time>
      </trkpt>
      <trkpt lat="45.98154" lon="4.85446">
        <ele>276</ele>
        <time>2017-05-07T09:12:57Z</time>
      </trkpt>
      <trkpt lat="45.98152" lon="4.8544">
        <ele>276</ele>
        <time>2017-05-07T09:12:58Z</time>
      </trkpt>
      <trkpt lat="45.9815" lon="4.85434">
        <ele>276</ele>
        <time>2017-05-07T09:12:59Z</time>
      </trkpt>
      <trkpt lat="45.98147" lon="4.85427">
        <ele>276</ele>
        <time>2017-05-07T09:13:00Z</time>
      </trkpt>
      <trkpt lat="45.98144" lon="4.85421">
        <ele>276</ele>
        <time>2017-05-07T09:13:01Z</time>
      </trkpt>
      <trkpt lat="45.98142" lon="4.85415">
        <ele>276</ele>
        <time>2017-05-07T09:13:02Z</time>
      </trkpt>
      <trkpt lat="45.98138" lon="4.85404">
        <ele>276</ele>
        <time>2017-05-07T09:13:04Z</time>
      </trkpt>
      <trkpt lat="45.98136" lon="4.85398">
        <ele>276</ele>
        <time>2017-05-07T09:13:05Z</time>
      </trkpt>
      <trkpt lat="45.98133" lon="4.85393">
        <ele>276</ele>
        <time>2017-05-07T09:13:06Z</time>
      </trkpt>
      <trkpt lat="45.98131" lon="4.85386">
        <ele>276</ele>
        <time>2017-05-07T09:13:07Z</time>
      </trkpt>
      <trkpt lat="45.98128" lon="4.8538">
        <ele>276</ele>
        <time>2017-05-07T09:13:08Z</time>
      </trkpt>
      <trkpt lat="45.98125" lon="4.85373">
        <ele>276</ele>
        <time>2017-05-07T09:13:09Z</time>
      </trkpt>
      <trkpt lat="45.98123" lon="4.85367">
        <ele>276</ele>
        <time>2017-05-07T09:13:10Z</time>
      </trkpt>
      <trkpt lat="45.9812" lon="4.8536">
        <ele>276</ele>
        <time>2017-05-07T09:13:11Z</time>
      </trkpt>
      <trkpt lat="45.98118" lon="4.85354">
        <ele>276</ele>
        <time>2017-05-07T09:13:12Z</time>
      </trkpt>
      <trkpt lat="45.98116" lon="4.85348">
        <ele>276</ele>
        <time>2017-05-07T09:13:13Z</time>
      </trkpt>
      <trkpt lat="45.98111" lon="4.85337">
        <ele>276</ele>
        <time>2017-05-07T09:13:15Z</time>
      </trkpt>
      <trkpt lat="45.98109" lon="4.85332">
        <ele>276</ele>
        <time>2017-05-07T09:13:16Z</time>
      </trkpt>
      <trkpt lat="45.98104" lon="4.85321">
        <ele>276</ele>
        <time>2017-05-07T09:13:18Z</time>
      </trkpt>
      <trkpt lat="45.98102" lon="4.85316">
        <ele>276</ele>
        <time>2017-05-07T09:13:19Z</time>
      </trkpt>
      <trkpt lat="45.98098" lon="4.85307">
        <ele>276</ele>
        <time>2017-05-07T09:13:21Z</time>
      </trkpt>
      <trkpt lat="45.98095" lon="4.85301">
        <ele>276</ele>
        <time>2017-05-07T09:13:22Z</time>
      </trkpt>
      <trkpt lat="45.98091" lon="4.8529">
        <ele>276</ele>
        <time>2017-05-07T09:13:24Z</time>
      </trkpt>
      <trkpt lat="45.98088" lon="4.85284">
        <ele>276</ele>
        <time>2017-05-07T09:13:25Z</time>
      </trkpt>
      <trkpt lat="45.98085" lon="4.85278">
        <ele>276</ele>
        <time>2017-05-07T09:13:26Z</time>
      </trkpt>
      <trkpt lat="45.98082" lon="4.85272">
        <ele>276</ele>
        <time>2017-05-07T09:13:27Z</time>
      </trkpt>
      <trkpt lat="45.98079" lon="4.85267">
        <ele>276</ele>
        <time>2017-05-07T09:13:28Z</time>
      </trkpt>
      <trkpt lat="45.98076" lon="4.85261">
        <ele>276</ele>
        <time>2017-05-07T09:13:29Z</time>
      </trkpt>
      <trkpt lat="45.98073" lon="4.85256">
        <ele>276</ele>
        <time>2017-05-07T09:13:30Z</time>
      </trkpt>
      <trkpt lat="45.9807" lon="4.85251">
        <ele>276</ele>
        <time>2017-05-07T09:13:31Z</time>
      </trkpt>
      <trkpt lat="45.98065" lon="4.85242">
        <ele>276</ele>
        <time>2017-05-07T09:13:33Z</time>
      </trkpt>
      <trkpt lat="45.98063" lon="4.85237">
        <ele>276</ele>
        <time>2017-05-07T09:13:34Z</time>
      </trkpt>
      <trkpt lat="45.98059" lon="4.85228">
        <ele>276</ele>
        <time>2017-05-07T09:13:36Z</time>
      </trkpt>
      <trkpt lat="45.98057" lon="4.85222">
        <ele>276</ele>
        <time>2017-05-07T09:13:37Z</time>
      </trkpt>
      <trkpt lat="45.98055" lon="4.85216">
        <ele>276</ele>
        <time>2017-05-07T09:13:38Z</time>
      </trkpt>
      <trkpt lat="45.98052" lon="4.8521">
        <ele>276</ele>
        <time>2017-05-07T09:13:39Z</time>
      </trkpt>
      <trkpt lat="45.9805" lon="4.85204">
        <ele>276</ele>
        <time>2017-05-07T09:13:40Z</time>
      </trkpt>
      <trkpt lat="45.98047" lon="4.85198">
        <ele>276</ele>
        <time>2017-05-07T09:13:41Z</time>
      </trkpt>
      <trkpt lat="45.98045" lon="4.85191">
        <ele>276</ele>
        <time>2017-05-07T09:13:42Z</time>
      </trkpt>
      <trkpt lat="45.98043" lon="4.85185">
        <ele>276</ele>
        <time>2017-05-07T09:13:43Z</time>
      </trkpt>
      <trkpt lat="45.98042" lon="4.85179">
        <ele>276</ele>
        <time>2017-05-07T09:13:44Z</time>
      </trkpt>
      <trkpt lat="45.9804" lon="4.85172">
        <ele>275</ele>
        <time>2017-05-07T09:13:45Z</time>
      </trkpt>
      <trkpt lat="45.98038" lon="4.85166">
        <ele>275</ele>
        <time>2017-05-07T09:13:46Z</time>
      </trkpt>
      <trkpt lat="45.98036" lon="4.8516">
        <ele>275</ele>
        <time>2017-05-07T09:13:47Z</time>
      </trkpt>
      <trkpt lat="45.98034" lon="4.85153">
        <ele>275</ele>
        <time>2017-05-07T09:13:48Z</time>
      </trkpt>
      <trkpt lat="45.98032" lon="4.85146">
        <ele>275</ele>
        <time>2017-05-07T09:13:49Z</time>
      </trkpt>
      <trkpt lat="45.9803" lon="4.85139">
        <ele>275</ele>
        <time>2017-05-07T09:13:50Z</time>
      </trkpt>
      <trkpt lat="45.98028" lon="4.85132">
        <ele>274</ele>
        <time>2017-05-07T09:13:51Z</time>
      </trkpt>
      <trkpt lat="45.98026" lon="4.85125">
        <ele>274</ele>
        <time>2017-05-07T09:13:52Z</time>
      </trkpt>
      <trkpt lat="45.98025" lon="4.85118">
        <ele>274</ele>
        <time>2017-05-07T09:13:53Z</time>
      </trkpt>
      <trkpt lat="45.98023" lon="4.8511">
        <ele>274</ele>
        <time>2017-05-07T09:13:54Z</time>
      </trkpt>
      <trkpt lat="45.98022" lon="4.85103">
        <ele>274</ele>
        <time>2017-05-07T09:13:55Z</time>
      </trkpt>
      <trkpt lat="45.98021" lon="4.85096">
        <ele>274</ele>
        <time>2017-05-07T09:13:56Z</time>
      </trkpt>
      <trkpt lat="45.9802" lon="4.85089">
        <ele>274</ele>
        <time>2017-05-07T09:13:57Z</time>
      </trkpt>
      <trkpt lat="45.98019" lon="4.85081">
        <ele>273</ele>
        <time>2017-05-07T09:13:58Z</time>
      </trkpt>
      <trkpt lat="45.98019" lon="4.85074">
        <ele>273</ele>
        <time>2017-05-07T09:13:59Z</time>
      </trkpt>
      <trkpt lat="45.98019" lon="4.85066">
        <ele>273</ele>
        <time>2017-05-07T09:14:00Z</time>
      </trkpt>
      <trkpt lat="45.98019" lon="4.85059">
        <ele>273</ele>
        <time>2017-05-07T09:14:01Z</time>
      </trkpt>
      <trkpt lat="45.98019" lon="4.85052">
        <ele>273</ele>
        <time>2017-05-07T09:14:02Z</time>
      </trkpt>
      <trkpt lat="45.98019" lon="4.85044">
        <ele>273</ele>
        <time>2017-05-07T09:14:03Z</time>
      </trkpt>
      <trkpt lat="45.98019" lon="4.85036">
        <ele>273</ele>
        <time>2017-05-07T09:14:04Z</time>
      </trkpt>
      <trkpt lat="45.98019" lon="4.85027">
        <ele>273</ele>
        <time>2017-05-07T09:14:05Z</time>
      </trkpt>
      <trkpt lat="45.98018" lon="4.85019">
        <ele>273</ele>
        <time>2017-05-07T09:14:06Z</time>
      </trkpt>
      <trkpt lat="45.98018" lon="4.8501">
        <ele>273</ele>
        <time>2017-05-07T09:14:07Z</time>
      </trkpt>
      <trkpt lat="45.98018" lon="4.85002">
        <ele>272</ele>
        <time>2017-05-07T09:14:08Z</time>
      </trkpt>
      <trkpt lat="45.98017" lon="4.84995">
        <ele>272</ele>
        <time>2017-05-07T09:14:09Z</time>
      </trkpt>
      <trkpt lat="45.98016" lon="4.84987">
        <ele>272</ele>
        <time>2017-05-07T09:14:10Z</time>
      </trkpt>
      <trkpt lat="45.98016" lon="4.8498">
        <ele>272</ele>
        <time>2017-05-07T09:14:11Z</time>
      </trkpt>
      <trkpt lat="45.98015" lon="4.84973">
        <ele>272</ele>
        <time>2017-05-07T09:14:12Z</time>
      </trkpt>
      <trkpt lat="45.98014" lon="4.84967">
        <ele>272</ele>
        <time>2017-05-07T09:14:13Z</time>
      </trkpt>
      <trkpt lat="45.98014" lon="4.8496">
        <ele>272</ele>
        <time>2017-05-07T09:14:14Z</time>
      </trkpt>
      <trkpt lat="45.98013" lon="4.84954">
        <ele>272</ele>
        <time>2017-05-07T09:14:15Z</time>
      </trkpt>
      <trkpt lat="45.98012" lon="4.84947">
        <ele>272</ele>
        <time>2017-05-07T09:14:16Z</time>
      </trkpt>
      <trkpt lat="45.98012" lon="4.8494">
        <ele>272</ele>
        <time>2017-05-07T09:14:17Z</time>
      </trkpt>
      <trkpt lat="45.98011" lon="4.84932">
        <ele>272</ele>
        <time>2017-05-07T09:14:18Z</time>
      </trkpt>
      <trkpt lat="45.98011" lon="4.84925">
        <ele>272</ele>
        <time>2017-05-07T09:14:19Z</time>
      </trkpt>
      <trkpt lat="45.9801" lon="4.84916">
        <ele>272</ele>
        <time>2017-05-07T09:14:20Z</time>
      </trkpt>
      <trkpt lat="45.98009" lon="4.84909">
        <ele>272</ele>
        <time>2017-05-07T09:14:21Z</time>
      </trkpt>
      <trkpt lat="45.98008" lon="4.849">
        <ele>272</ele>
        <time>2017-05-07T09:14:22Z</time>
      </trkpt>
      <trkpt lat="45.98007" lon="4.84892">
        <ele>272</ele>
        <time>2017-05-07T09:14:23Z</time>
      </trkpt>
      <trkpt lat="45.98007" lon="4.84883">
        <ele>272</ele>
        <time>2017-05-07T09:14:24Z</time>
      </trkpt>
      <trkpt lat="45.98006" lon="4.84874">
        <ele>272</ele>
        <time>2017-05-07T09:14:25Z</time>
      </trkpt>
      <trkpt lat="45.98005" lon="4.84865">
        <ele>272</ele>
        <time>2017-05-07T09:14:26Z</time>
      </trkpt>
      <trkpt lat="45.98004" lon="4.84856">
        <ele>272</ele>
        <time>2017-05-07T09:14:27Z</time>
      </trkpt>
      <trkpt lat="45.98004" lon="4.84847">
        <ele>272</ele>
        <time>2017-05-07T09:14:28Z</time>
      </trkpt>
      <trkpt lat="45.98003" lon="4.84838">
        <ele>272</ele>
        <time>2017-05-07T09:14:29Z</time>
      </trkpt>
      <trkpt lat="45.98002" lon="4.84829">
        <ele>272</ele>
        <time>2017-05-07T09:14:30Z</time>
      </trkpt>
      <trkpt lat="45.98001" lon="4.84821">
        <ele>272</ele>
        <time>2017-05-07T09:14:31Z</time>
      </trkpt>
      <trkpt lat="45.98" lon="4.84812">
        <ele>273</ele>
        <time>2017-05-07T09:14:32Z</time>
      </trkpt>
      <trkpt lat="45.97999" lon="4.84804">
        <ele>274</ele>
        <time>2017-05-07T09:14:33Z</time>
      </trkpt>
      <trkpt lat="45.97999" lon="4.84796">
        <ele>274</ele>
        <time>2017-05-07T09:14:34Z</time>
      </trkpt>
      <trkpt lat="45.97998" lon="4.84789">
        <ele>274</ele>
        <time>2017-05-07T09:14:35Z</time>
      </trkpt>
      <trkpt lat="45.97998" lon="4.84782">
        <ele>274</ele>
        <time>2017-05-07T09:14:36Z</time>
      </trkpt>
      <trkpt lat="45.97997" lon="4.84775">
        <ele>274</ele>
        <time>2017-05-07T09:14:37Z</time>
      </trkpt>
      <trkpt lat="45.97997" lon="4.84768">
        <ele>275</ele>
        <time>2017-05-07T09:14:38Z</time>
      </trkpt>
      <trkpt lat="45.97997" lon="4.84762">
        <ele>275</ele>
        <time>2017-05-07T09:14:39Z</time>
      </trkpt>
      <trkpt lat="45.97996" lon="4.84755">
        <ele>275</ele>
        <time>2017-05-07T09:14:40Z</time>
      </trkpt>
      <trkpt lat="45.97995" lon="4.84748">
        <ele>275</ele>
        <time>2017-05-07T09:14:41Z</time>
      </trkpt>
      <trkpt lat="45.97995" lon="4.84741">
        <ele>275</ele>
        <time>2017-05-07T09:14:42Z</time>
      </trkpt>
      <trkpt lat="45.97994" lon="4.84733">
        <ele>275</ele>
        <time>2017-05-07T09:14:43Z</time>
      </trkpt>
      <trkpt lat="45.97995" lon="4.84726">
        <ele>275</ele>
        <time>2017-05-07T09:14:44Z</time>
      </trkpt>
      <trkpt lat="45.97994" lon="4.84719">
        <ele>275</ele>
        <time>2017-05-07T09:14:45Z</time>
      </trkpt>
      <trkpt lat="45.97994" lon="4.84711">
        <ele>275</ele>
        <time>2017-05-07T09:14:46Z</time>
      </trkpt>
      <trkpt lat="45.97993" lon="4.84703">
        <ele>275</ele>
        <time>2017-05-07T09:14:47Z</time>
      </trkpt>
      <trkpt lat="45.97992" lon="4.84695">
        <ele>275</ele>
        <time>2017-05-07T09:14:48Z</time>
      </trkpt>
      <trkpt lat="45.97991" lon="4.84687">
        <ele>275</ele>
        <time>2017-05-07T09:14:49Z</time>
      </trkpt>
      <trkpt lat="45.9799" lon="4.84679">
        <ele>275</ele>
        <time>2017-05-07T09:14:50Z</time>
      </trkpt>
      <trkpt lat="45.97989" lon="4.84671">
        <ele>275</ele>
        <time>2017-05-07T09:14:51Z</time>
      </trkpt>
      <trkpt lat="45.97987" lon="4.84664">
        <ele>274</ele>
        <time>2017-05-07T09:14:52Z</time>
      </trkpt>
      <trkpt lat="45.97986" lon="4.84657">
        <ele>274</ele>
        <time>2017-05-07T09:14:53Z</time>
      </trkpt>
      <trkpt lat="45.97985" lon="4.8465">
        <ele>274</ele>
        <time>2017-05-07T09:14:54Z</time>
      </trkpt>
      <trkpt lat="45.97985" lon="4.84643">
        <ele>275</ele>
        <time>2017-05-07T09:14:55Z</time>
      </trkpt>
      <trkpt lat="45.97984" lon="4.84635">
        <ele>275</ele>
        <time>2017-05-07T09:14:56Z</time>
      </trkpt>
      <trkpt lat="45.97983" lon="4.84628">
        <ele>275</ele>
        <time>2017-05-07T09:14:57Z</time>
      </trkpt>
      <trkpt lat="45.97981" lon="4.8462">
        <ele>275</ele>
        <time>2017-05-07T09:14:58Z</time>
      </trkpt>
      <trkpt lat="45.9798" lon="4.84611">
        <ele>275</ele>
        <time>2017-05-07T09:14:59Z</time>
      </trkpt>
      <trkpt lat="45.97978" lon="4.84603">
        <ele>275</ele>
        <time>2017-05-07T09:15:00Z</time>
      </trkpt>
      <trkpt lat="45.97977" lon="4.84595">
        <ele>274</ele>
        <time>2017-05-07T09:15:01Z</time>
      </trkpt>
      <trkpt lat="45.97975" lon="4.84586">
        <ele>274</ele>
        <time>2017-05-07T09:15:02Z</time>
      </trkpt>
      <trkpt lat="45.97974" lon="4.84578">
        <ele>275</ele>
        <time>2017-05-07T09:15:03Z</time>
      </trkpt>
      <trkpt lat="45.97972" lon="4.8457">
        <ele>275</ele>
        <time>2017-05-07T09:15:04Z</time>
      </trkpt>
      <trkpt lat="45.97971" lon="4.84562">
        <ele>275</ele>
        <time>2017-05-07T09:15:05Z</time>
      </trkpt>
      <trkpt lat="45.9797" lon="4.84555">
        <ele>275</ele>
        <time>2017-05-07T09:15:06Z</time>
      </trkpt>
      <trkpt lat="45.97968" lon="4.84548">
        <ele>275</ele>
        <time>2017-05-07T09:15:07Z</time>
      </trkpt>
      <trkpt lat="45.97967" lon="4.84541">
        <ele>275</ele>
        <time>2017-05-07T09:15:08Z</time>
      </trkpt>
      <trkpt lat="45.97965" lon="4.84534">
        <ele>275</ele>
        <time>2017-05-07T09:15:09Z</time>
      </trkpt>
      <trkpt lat="45.97964" lon="4.84528">
        <ele>275</ele>
        <time>2017-05-07T09:15:10Z</time>
      </trkpt>
      <trkpt lat="45.97962" lon="4.84521">
        <ele>275</ele>
        <time>2017-05-07T09:15:11Z</time>
      </trkpt>
      <trkpt lat="45.97961" lon="4.84515">
        <ele>275</ele>
        <time>2017-05-07T09:15:12Z</time>
      </trkpt>
      <trkpt lat="45.9796" lon="4.84509">
        <ele>275</ele>
        <time>2017-05-07T09:15:13Z</time>
      </trkpt>
      <trkpt lat="45.97959" lon="4.84502">
        <ele>275</ele>
        <time>2017-05-07T09:15:14Z</time>
      </trkpt>
      <trkpt lat="45.97957" lon="4.84496">
        <ele>275</ele>
        <time>2017-05-07T09:15:15Z</time>
      </trkpt>
      <trkpt lat="45.97955" lon="4.84485">
        <ele>275</ele>
        <time>2017-05-07T09:15:17Z</time>
      </trkpt>
      <trkpt lat="45.97955" lon="4.84479">
        <ele>275</ele>
        <time>2017-05-07T09:15:18Z</time>
      </trkpt>
      <trkpt lat="45.97953" lon="4.84469">
        <ele>275</ele>
        <time>2017-05-07T09:15:20Z</time>
      </trkpt>
      <trkpt lat="45.97952" lon="4.84463">
        <ele>275</ele>
        <time>2017-05-07T09:15:21Z</time>
      </trkpt>
      <trkpt lat="45.9795" lon="4.84451">
        <ele>275</ele>
        <time>2017-05-07T09:15:23Z</time>
      </trkpt>
      <trkpt lat="45.97949" lon="4.84445">
        <ele>275</ele>
        <time>2017-05-07T09:15:24Z</time>
      </trkpt>
      <trkpt lat="45.97947" lon="4.84433">
        <ele>275</ele>
        <time>2017-05-07T09:15:26Z</time>
      </trkpt>
      <trkpt lat="45.97946" lon="4.84427">
        <ele>275</ele>
        <time>2017-05-07T09:15:27Z</time>
      </trkpt>
      <trkpt lat="45.97945" lon="4.84421">
        <ele>275</ele>
        <time>2017-05-07T09:15:28Z</time>
      </trkpt>
      <trkpt lat="45.97944" lon="4.84414">
        <ele>275</ele>
        <time>2017-05-07T09:15:29Z</time>
      </trkpt>
      <trkpt lat="45.97944" lon="4.84407">
        <ele>275</ele>
        <time>2017-05-07T09:15:30Z</time>
      </trkpt>
      <trkpt lat="45.97943" lon="4.844">
        <ele>275</ele>
        <time>2017-05-07T09:15:31Z</time>
      </trkpt>
      <trkpt lat="45.97942" lon="4.84393">
        <ele>275</ele>
        <time>2017-05-07T09:15:32Z</time>
      </trkpt>
      <trkpt lat="45.97941" lon="4.84386">
        <ele>275</ele>
        <time>2017-05-07T09:15:33Z</time>
      </trkpt>
      <trkpt lat="45.97939" lon="4.84379">
        <ele>275</ele>
        <time>2017-05-07T09:15:34Z</time>
      </trkpt>
      <trkpt lat="45.97938" lon="4.84372">
        <ele>275</ele>
        <time>2017-05-07T09:15:35Z</time>
      </trkpt>
      <trkpt lat="45.97937" lon="4.84365">
        <ele>275</ele>
        <time>2017-05-07T09:15:36Z</time>
      </trkpt>
      <trkpt lat="45.97936" lon="4.84358">
        <ele>275</ele>
        <time>2017-05-07T09:15:37Z</time>
      </trkpt>
      <trkpt lat="45.97934" lon="4.84351">
        <ele>275</ele>
        <time>2017-05-07T09:15:38Z</time>
      </trkpt>
      <trkpt lat="45.97933" lon="4.84344">
        <ele>275</ele>
        <time>2017-05-07T09:15:39Z</time>
      </trkpt>
      <trkpt lat="45.97932" lon="4.84338">
        <ele>275</ele>
        <time>2017-05-07T09:15:40Z</time>
      </trkpt>
      <trkpt lat="45.9793" lon="4.84331">
        <ele>275</ele>
        <time>2017-05-07T09:15:41Z</time>
      </trkpt>
      <trkpt lat="45.97928" lon="4.84319">
        <ele>275</ele>
        <time>2017-05-07T09:15:43Z</time>
      </trkpt>
      <trkpt lat="45.97926" lon="4.84313">
        <ele>275</ele>
        <time>2017-05-07T09:15:44Z</time>
      </trkpt>
      <trkpt lat="45.97924" lon="4.84301">
        <ele>275</ele>
        <time>2017-05-07T09:15:46Z</time>
      </trkpt>
      <trkpt lat="45.97924" lon="4.84295">
        <ele>275</ele>
        <time>2017-05-07T09:15:47Z</time>
      </trkpt>
      <trkpt lat="45.97923" lon="4.84282">
        <ele>275</ele>
        <time>2017-05-07T09:15:49Z</time>
      </trkpt>
      <trkpt lat="45.97924" lon="4.84277">
        <ele>275</ele>
        <time>2017-05-07T09:15:50Z</time>
      </trkpt>
      <trkpt lat="45.97928" lon="4.84267">
        <ele>275</ele>
        <time>2017-05-07T09:15:52Z</time>
      </trkpt>
      <trkpt lat="45.97932" lon="4.84262">
        <ele>275</ele>
        <time>2017-05-07T09:15:53Z</time>
      </trkpt>
      <trkpt lat="45.97936" lon="4.84258">
        <ele>275</ele>
        <time>2017-05-07T09:15:54Z</time>
      </trkpt>
      <trkpt lat="45.9794" lon="4.84254">
        <ele>275</ele>
        <time>2017-05-07T09:15:55Z</time>
      </trkpt>
      <trkpt lat="45.97945" lon="4.84251">
        <ele>275</ele>
        <time>2017-05-07T09:15:56Z</time>
      </trkpt>
      <trkpt lat="45.97949" lon="4.84246">
        <ele>275</ele>
        <time>2017-05-07T09:15:57Z</time>
      </trkpt>
      <trkpt lat="45.97954" lon="4.84242">
        <ele>275</ele>
        <time>2017-05-07T09:15:58Z</time>
      </trkpt>
      <trkpt lat="45.97958" lon="4.84238">
        <ele>275</ele>
        <time>2017-05-07T09:15:59Z</time>
      </trkpt>
      <trkpt lat="45.97962" lon="4.84234">
        <ele>274</ele>
        <time>2017-05-07T09:16:00Z</time>
      </trkpt>
      <trkpt lat="45.97967" lon="4.8423">
        <ele>274</ele>
        <time>2017-05-07T09:16:01Z</time>
      </trkpt>
      <trkpt lat="45.97971" lon="4.84226">
        <ele>274</ele>
        <time>2017-05-07T09:16:02Z</time>
      </trkpt>
      <trkpt lat="45.97975" lon="4.84223">
        <ele>274</ele>
        <time>2017-05-07T09:16:03Z</time>
      </trkpt>
      <trkpt lat="45.97979" lon="4.84219">
        <ele>274</ele>
        <time>2017-05-07T09:16:04Z</time>
      </trkpt>
      <trkpt lat="45.97983" lon="4.84215">
        <ele>274</ele>
        <time>2017-05-07T09:16:05Z</time>
      </trkpt>
      <trkpt lat="45.97987" lon="4.84212">
        <ele>274</ele>
        <time>2017-05-07T09:16:06Z</time>
      </trkpt>
      <trkpt lat="45.97991" lon="4.84208">
        <ele>274</ele>
        <time>2017-05-07T09:16:07Z</time>
      </trkpt>
      <trkpt lat="45.97995" lon="4.84204">
        <ele>274</ele>
        <time>2017-05-07T09:16:08Z</time>
      </trkpt>
      <trkpt lat="45.97999" lon="4.842">
        <ele>274</ele>
        <time>2017-05-07T09:16:09Z</time>
      </trkpt>
      <trkpt lat="45.98003" lon="4.84196">
        <ele>274</ele>
        <time>2017-05-07T09:16:10Z</time>
      </trkpt>
      <trkpt lat="45.98008" lon="4.84193">
        <ele>274</ele>
        <time>2017-05-07T09:16:11Z</time>
      </trkpt>
      <trkpt lat="45.98013" lon="4.84189">
        <ele>274</ele>
        <time>2017-05-07T09:16:12Z</time>
      </trkpt>
      <trkpt lat="45.98017" lon="4.84185">
        <ele>274</ele>
        <time>2017-05-07T09:16:13Z</time>
      </trkpt>
      <trkpt lat="45.98022" lon="4.84181">
        <ele>274</ele>
        <time>2017-05-07T09:16:14Z</time>
      </trkpt>
      <trkpt lat="45.98026" lon="4.84177">
        <ele>274</ele>
        <time>2017-05-07T09:16:15Z</time>
      </trkpt>
      <trkpt lat="45.9803" lon="4.84173">
        <ele>273</ele>
        <time>2017-05-07T09:16:16Z</time>
      </trkpt>
      <trkpt lat="45.98034" lon="4.84169">
        <ele>273</ele>
        <time>2017-05-07T09:16:17Z</time>
      </trkpt>
      <trkpt lat="45.98038" lon="4.84165">
        <ele>273</ele>
        <time>2017-05-07T09:16:18Z</time>
      </trkpt>
      <trkpt lat="45.98043" lon="4.84161">
        <ele>273</ele>
        <time>2017-05-07T09:16:19Z</time>
      </trkpt>
      <trkpt lat="45.98047" lon="4.84158">
        <ele>273</ele>
        <time>2017-05-07T09:16:20Z</time>
      </trkpt>
      <trkpt lat="45.98051" lon="4.84154">
        <ele>273</ele>
        <time>2017-05-07T09:16:21Z</time>
      </trkpt>
      <trkpt lat="45.98055" lon="4.8415">
        <ele>273</ele>
        <time>2017-05-07T09:16:22Z</time>
      </trkpt>
      <trkpt lat="45.98059" lon="4.84146">
        <ele>273</ele>
        <time>2017-05-07T09:16:23Z</time>
      </trkpt>
      <trkpt lat="45.98063" lon="4.84142">
        <ele>273</ele>
        <time>2017-05-07T09:16:24Z</time>
      </trkpt>
      <trkpt lat="45.98067" lon="4.84138">
        <ele>273</ele>
        <time>2017-05-07T09:16:25Z</time>
      </trkpt>
      <trkpt lat="45.98071" lon="4.84134">
        <ele>273</ele>
        <time>2017-05-07T09:16:26Z</time>
      </trkpt>
      <trkpt lat="45.98075" lon="4.8413">
        <ele>273</ele>
        <time>2017-05-07T09:16:27Z</time>
      </trkpt>
      <trkpt lat="45.9808" lon="4.84126">
        <ele>273</ele>
        <time>2017-05-07T09:16:28Z</time>
      </trkpt>
      <trkpt lat="45.98084" lon="4.84122">
        <ele>273</ele>
        <time>2017-05-07T09:16:29Z</time>
      </trkpt>
      <trkpt lat="45.98088" lon="4.84118">
        <ele>273</ele>
        <time>2017-05-07T09:16:30Z</time>
      </trkpt>
      <trkpt lat="45.98093" lon="4.84114">
        <ele>273</ele>
        <time>2017-05-07T09:16:31Z</time>
      </trkpt>
      <trkpt lat="45.98097" lon="4.8411">
        <ele>273</ele>
        <time>2017-05-07T09:16:32Z</time>
      </trkpt>
      <trkpt lat="45.98102" lon="4.84105">
        <ele>273</ele>
        <time>2017-05-07T09:16:33Z</time>
      </trkpt>
      <trkpt lat="45.98107" lon="4.841">
        <ele>273</ele>
        <time>2017-05-07T09:16:34Z</time>
      </trkpt>
      <trkpt lat="45.98112" lon="4.84095">
        <ele>273</ele>
        <time>2017-05-07T09:16:35Z</time>
      </trkpt>
      <trkpt lat="45.98117" lon="4.8409">
        <ele>273</ele>
        <time>2017-05-07T09:16:36Z</time>
      </trkpt>
      <trkpt lat="45.98122" lon="4.84085">
        <ele>273</ele>
        <time>2017-05-07T09:16:37Z</time>
      </trkpt>
      <trkpt lat="45.98127" lon="4.8408">
        <ele>273</ele>
        <time>2017-05-07T09:16:38Z</time>
      </trkpt>
      <trkpt lat="45.98131" lon="4.84074">
        <ele>273</ele>
        <time>2017-05-07T09:16:39Z</time>
      </trkpt>
      <trkpt lat="45.98136" lon="4.84069">
        <ele>273</ele>
        <time>2017-05-07T09:16:40Z</time>
      </trkpt>
      <trkpt lat="45.9814" lon="4.84064">
        <ele>273</ele>
        <time>2017-05-07T09:16:41Z</time>
      </trkpt>
      <trkpt lat="45.98144" lon="4.84058">
        <ele>273</ele>
        <time>2017-05-07T09:16:42Z</time>
      </trkpt>
      <trkpt lat="45.98148" lon="4.84053">
        <ele>273</ele>
        <time>2017-05-07T09:16:43Z</time>
      </trkpt>
      <trkpt lat="45.98151" lon="4.84047">
        <ele>273</ele>
        <time>2017-05-07T09:16:44Z</time>
      </trkpt>
      <trkpt lat="45.98155" lon="4.84041">
        <ele>273</ele>
        <time>2017-05-07T09:16:45Z</time>
      </trkpt>
      <trkpt lat="45.98158" lon="4.84036">
        <ele>273</ele>
        <time>2017-05-07T09:16:46Z</time>
      </trkpt>
      <trkpt lat="45.98162" lon="4.8403">
        <ele>273</ele>
        <time>2017-05-07T09:16:47Z</time>
      </trkpt>
      <trkpt lat="45.98165" lon="4.84024">
        <ele>273</ele>
        <time>2017-05-07T09:16:48Z</time>
      </trkpt>
      <trkpt lat="45.98168" lon="4.84019">
        <ele>273</ele>
        <time>2017-05-07T09:16:49Z</time>
      </trkpt>
      <trkpt lat="45.98171" lon="4.84013">
        <ele>273</ele>
        <time>2017-05-07T09:16:50Z</time>
      </trkpt>
      <trkpt lat="45.98174" lon="4.84007">
        <ele>273</ele>
        <time>2017-05-07T09:16:51Z</time>
      </trkpt>
      <trkpt lat="45.98176" lon="4.84001">
        <ele>273</ele>
        <time>2017-05-07T09:16:52Z</time>
      </trkpt>
      <trkpt lat="45.98178" lon="4.83994">
        <ele>273</ele>
        <time>2017-05-07T09:16:53Z</time>
      </trkpt>
      <trkpt lat="45.98181" lon="4.83988">
        <ele>273</ele>
        <time>2017-05-07T09:16:54Z</time>
      </trkpt>
      <trkpt lat="45.98183" lon="4.83982">
        <ele>273</ele>
        <time>2017-05-07T09:16:55Z</time>
      </trkpt>
      <trkpt lat="45.98185" lon="4.83976">
        <ele>273</ele>
        <time>2017-05-07T09:16:56Z</time>
      </trkpt>
      <trkpt lat="45.98187" lon="4.8397">
        <ele>273</ele>
        <time>2017-05-07T09:16:57Z</time>
      </trkpt>
      <trkpt lat="45.9819" lon="4.83959">
        <ele>273</ele>
        <time>2017-05-07T09:16:59Z</time>
      </trkpt>
      <trkpt lat="45.98192" lon="4.83953">
        <ele>273</ele>
        <time>2017-05-07T09:17:00Z</time>
      </trkpt>
      <trkpt lat="45.98195" lon="4.83948">
        <ele>273</ele>
        <time>2017-05-07T09:17:01Z</time>
      </trkpt>
      <trkpt lat="45.98197" lon="4.83941">
        <ele>273</ele>
        <time>2017-05-07T09:17:02Z</time>
      </trkpt>
      <trkpt lat="45.982" lon="4.83935">
        <ele>273</ele>
        <time>2017-05-07T09:17:03Z</time>
      </trkpt>
      <trkpt lat="45.98202" lon="4.83928">
        <ele>273</ele>
        <time>2017-05-07T09:17:04Z</time>
      </trkpt>
      <trkpt lat="45.98205" lon="4.8392">
        <ele>273</ele>
        <time>2017-05-07T09:17:05Z</time>
      </trkpt>
      <trkpt lat="45.98207" lon="4.83913">
        <ele>273</ele>
        <time>2017-05-07T09:17:06Z</time>
      </trkpt>
      <trkpt lat="45.9821" lon="4.83906">
        <ele>273</ele>
        <time>2017-05-07T09:17:07Z</time>
      </trkpt>
      <trkpt lat="45.98212" lon="4.83898">
        <ele>273</ele>
        <time>2017-05-07T09:17:08Z</time>
      </trkpt>
      <trkpt lat="45.98215" lon="4.8389">
        <ele>273</ele>
        <time>2017-05-07T09:17:09Z</time>
      </trkpt>
      <trkpt lat="45.98218" lon="4.83882">
        <ele>272</ele>
        <time>2017-05-07T09:17:10Z</time>
      </trkpt>
      <trkpt lat="45.9822" lon="4.83874">
        <ele>272</ele>
        <time>2017-05-07T09:17:11Z</time>
      </trkpt>
      <trkpt lat="45.98223" lon="4.83866">
        <ele>272</ele>
        <time>2017-05-07T09:17:12Z</time>
      </trkpt>
      <trkpt lat="45.98226" lon="4.83858">
        <ele>272</ele>
        <time>2017-05-07T09:17:13Z</time>
      </trkpt>
      <trkpt lat="45.98228" lon="4.8385">
        <ele>272</ele>
        <time>2017-05-07T09:17:14Z</time>
      </trkpt>
      <trkpt lat="45.98231" lon="4.83842">
        <ele>272</ele>
        <time>2017-05-07T09:17:15Z</time>
      </trkpt>
      <trkpt lat="45.98234" lon="4.83835">
        <ele>272</ele>
        <time>2017-05-07T09:17:16Z</time>
      </trkpt>
      <trkpt lat="45.98236" lon="4.83827">
        <ele>272</ele>
        <time>2017-05-07T09:17:17Z</time>
      </trkpt>
      <trkpt lat="45.98239" lon="4.8382">
        <ele>272</ele>
        <time>2017-05-07T09:17:18Z</time>
      </trkpt>
      <trkpt lat="45.98242" lon="4.83813">
        <ele>272</ele>
        <time>2017-05-07T09:17:19Z</time>
      </trkpt>
      <trkpt lat="45.98245" lon="4.83807">
        <ele>272</ele>
        <time>2017-05-07T09:17:20Z</time>
      </trkpt>
      <trkpt lat="45.98247" lon="4.838">
        <ele>272</ele>
        <time>2017-05-07T09:17:21Z</time>
      </trkpt>
      <trkpt lat="45.9825" lon="4.83794">
        <ele>272</ele>
        <time>2017-05-07T09:17:22Z</time>
      </trkpt>
      <trkpt lat="45.98252" lon="4.83788">
        <ele>272</ele>
        <time>2017-05-07T09:17:23Z</time>
      </trkpt>
      <trkpt lat="45.98254" lon="4.83781">
        <ele>272</ele>
        <time>2017-05-07T09:17:24Z</time>
      </trkpt>
      <trkpt lat="45.98256" lon="4.83775">
        <ele>272</ele>
        <time>2017-05-07T09:17:25Z</time>
      </trkpt>
      <trkpt lat="45.98258" lon="4.83768">
        <ele>272</ele>
        <time>2017-05-07T09:17:26Z</time>
      </trkpt>
      <trkpt lat="45.9826" lon="4.83762">
        <ele>272</ele>
        <time>2017-05-07T09:17:27Z</time>
      </trkpt>
      <trkpt lat="45.98262" lon="4.83756">
        <ele>272</ele>
        <time>2017-05-07T09:17:28Z</time>
      </trkpt>
      <trkpt lat="45.98264" lon="4.8375">
        <ele>272</ele>
        <time>2017-05-07T09:17:29Z</time>
      </trkpt>
      <trkpt lat="45.98266" lon="4.83744">
        <ele>272</ele>
        <time>2017-05-07T09:17:30Z</time>
      </trkpt>
      <trkpt lat="45.98269" lon="4.83739">
        <ele>272</ele>
        <time>2017-05-07T09:17:31Z</time>
      </trkpt>
      <trkpt lat="45.98271" lon="4.83732">
        <ele>272</ele>
        <time>2017-05-07T09:17:32Z</time>
      </trkpt>
      <trkpt lat="45.98273" lon="4.83727">
        <ele>272</ele>
        <time>2017-05-07T09:17:33Z</time>
      </trkpt>
      <trkpt lat="45.98275" lon="4.83721">
        <ele>272</ele>
        <time>2017-05-07T09:17:34Z</time>
      </trkpt>
      <trkpt lat="45.98277" lon="4.83714">
        <ele>272</ele>
        <time>2017-05-07T09:17:35Z</time>
      </trkpt>
      <trkpt lat="45.9828" lon="4.83708">
        <ele>272</ele>
        <time>2017-05-07T09:17:36Z</time>
      </trkpt>
      <trkpt lat="45.98282" lon="4.83702">
        <ele>272</ele>
        <time>2017-05-07T09:17:37Z</time>
      </trkpt>
      <trkpt lat="45.98284" lon="4.83695">
        <ele>272</ele>
        <time>2017-05-07T09:17:38Z</time>
      </trkpt>
      <trkpt lat="45.98287" lon="4.83689">
        <ele>272</ele>
        <time>2017-05-07T09:17:39Z</time>
      </trkpt>
      <trkpt lat="45.98289" lon="4.83682">
        <ele>272</ele>
        <time>2017-05-07T09:17:40Z</time>
      </trkpt>
      <trkpt lat="45.98292" lon="4.83675">
        <ele>272</ele>
        <time>2017-05-07T09:17:41Z</time>
      </trkpt>
      <trkpt lat="45.98295" lon="4.83668">
        <ele>272</ele>
        <time>2017-05-07T09:17:42Z</time>
      </trkpt>
      <trkpt lat="45.98298" lon="4.8366">
        <ele>271</ele>
        <time>2017-05-07T09:17:43Z</time>
      </trkpt>
      <trkpt lat="45.983" lon="4.83653">
        <ele>271</ele>
        <time>2017-05-07T09:17:44Z</time>
      </trkpt>
      <trkpt lat="45.98304" lon="4.83646">
        <ele>271</ele>
        <time>2017-05-07T09:17:45Z</time>
      </trkpt>
      <trkpt lat="45.98307" lon="4.83639">
        <ele>271</ele>
        <time>2017-05-07T09:17:46Z</time>
      </trkpt>
      <trkpt lat="45.98311" lon="4.83633">
        <ele>271</ele>
        <time>2017-05-07T09:17:47Z</time>
      </trkpt>
      <trkpt lat="45.98315" lon="4.83626">
        <ele>271</ele>
        <time>2017-05-07T09:17:48Z</time>
      </trkpt>
      <trkpt lat="45.98318" lon="4.8362">
        <ele>271</ele>
        <time>2017-05-07T09:17:49Z</time>
      </trkpt>
      <trkpt lat="45.98322" lon="4.83614">
        <ele>271</ele>
        <time>2017-05-07T09:17:50Z</time>
      </trkpt>
      <trkpt lat="45.98325" lon="4.83609">
        <ele>271</ele>
        <time>2017-05-07T09:17:51Z</time>
      </trkpt>
      <trkpt lat="45.98329" lon="4.83603">
        <ele>271</ele>
        <time>2017-05-07T09:17:52Z</time>
      </trkpt>
      <trkpt lat="45.98332" lon="4.83598">
        <ele>271</ele>
        <time>2017-05-07T09:17:53Z</time>
      </trkpt>
      <trkpt lat="45.98336" lon="4.83593">
        <ele>270</ele>
        <time>2017-05-07T09:17:54Z</time>
      </trkpt>
      <trkpt lat="45.98341" lon="4.83587">
        <ele>270</ele>
        <time>2017-05-07T09:17:55Z</time>
      </trkpt>
      <trkpt lat="45.98345" lon="4.83582">
        <ele>270</ele>
        <time>2017-05-07T09:17:56Z</time>
      </trkpt>
      <trkpt lat="45.98349" lon="4.83576">
        <ele>269</ele>
        <time>2017-05-07T09:17:57Z</time>
      </trkpt>
      <trkpt lat="45.98353" lon="4.8357">
        <ele>269</ele>
        <time>2017-05-07T09:17:58Z</time>
      </trkpt>
      <trkpt lat="45.98357" lon="4.83564">
        <ele>269</ele>
        <time>2017-05-07T09:17:59Z</time>
      </trkpt>
      <trkpt lat="45.98362" lon="4.83558">
        <ele>269</ele>
        <time>2017-05-07T09:18:00Z</time>
      </trkpt>
      <trkpt lat="45.98366" lon="4.83552">
        <ele>269</ele>
        <time>2017-05-07T09:18:01Z</time>
      </trkpt>
      <trkpt lat="45.98371" lon="4.83545">
        <ele>269</ele>
        <time>2017-05-07T09:18:02Z</time>
      </trkpt>
      <trkpt lat="45.98375" lon="4.83539">
        <ele>269</ele>
        <time>2017-05-07T09:18:03Z</time>
      </trkpt>
      <trkpt lat="45.9838" lon="4.83533">
        <ele>269</ele>
        <time>2017-05-07T09:18:04Z</time>
      </trkpt>
      <trkpt lat="45.98384" lon="4.83528">
        <ele>269</ele>
        <time>2017-05-07T09:18:05Z</time>
      </trkpt>
      <trkpt lat="45.98388" lon="4.83522">
        <ele>269</ele>
        <time>2017-05-07T09:18:06Z</time>
      </trkpt>
      <trkpt lat="45.98393" lon="4.83516">
        <ele>269</ele>
        <time>2017-05-07T09:18:07Z</time>
      </trkpt>
      <trkpt lat="45.98397" lon="4.8351">
        <ele>269</ele>
        <time>2017-05-07T09:18:08Z</time>
      </trkpt>
      <trkpt lat="45.98401" lon="4.83504">
        <ele>269</ele>
        <time>2017-05-07T09:18:09Z</time>
      </trkpt>
      <trkpt lat="45.98405" lon="4.83499">
        <ele>268</ele>
        <time>2017-05-07T09:18:10Z</time>
      </trkpt>
      <trkpt lat="45.98409" lon="4.83493">
        <ele>268</ele>
        <time>2017-05-07T09:18:11Z</time>
      </trkpt>
      <trkpt lat="45.98413" lon="4.83487">
        <ele>269</ele>
        <time>2017-05-07T09:18:12Z</time>
      </trkpt>
      <trkpt lat="45.98417" lon="4.83482">
        <ele>268</ele>
        <time>2017-05-07T09:18:13Z</time>
      </trkpt>
      <trkpt lat="45.98421" lon="4.83477">
        <ele>268</ele>
        <time>2017-05-07T09:18:14Z</time>
      </trkpt>
      <trkpt lat="45.98425" lon="4.83472">
        <ele>268</ele>
        <time>2017-05-07T09:18:15Z</time>
      </trkpt>
      <trkpt lat="45.98428" lon="4.83467">
        <ele>268</ele>
        <time>2017-05-07T09:18:16Z</time>
      </trkpt>
      <trkpt lat="45.98432" lon="4.83462">
        <ele>268</ele>
        <time>2017-05-07T09:18:17Z</time>
      </trkpt>
      <trkpt lat="45.98436" lon="4.83456">
        <ele>268</ele>
        <time>2017-05-07T09:18:18Z</time>
      </trkpt>
      <trkpt lat="45.98441" lon="4.83451">
        <ele>268</ele>
        <time>2017-05-07T09:18:19Z</time>
      </trkpt>
      <trkpt lat="45.98445" lon="4.83445">
        <ele>268</ele>
        <time>2017-05-07T09:18:20Z</time>
      </trkpt>
      <trkpt lat="45.98449" lon="4.83439">
        <ele>268</ele>
        <time>2017-05-07T09:18:21Z</time>
      </trkpt>
      <trkpt lat="45.98454" lon="4.83433">
        <ele>268</ele>
        <time>2017-05-07T09:18:22Z</time>
      </trkpt>
      <trkpt lat="45.98458" lon="4.83426">
        <ele>268</ele>
        <time>2017-05-07T09:18:23Z</time>
      </trkpt>
      <trkpt lat="45.98463" lon="4.8342">
        <ele>269</ele>
        <time>2017-05-07T09:18:24Z</time>
      </trkpt>
      <trkpt lat="45.98467" lon="4.83414">
        <ele>269</ele>
        <time>2017-05-07T09:18:25Z</time>
      </trkpt>
      <trkpt lat="45.98472" lon="4.83408">
        <ele>269</ele>
        <time>2017-05-07T09:18:26Z</time>
      </trkpt>
      <trkpt lat="45.98476" lon="4.83403">
        <ele>269</ele>
        <time>2017-05-07T09:18:27Z</time>
      </trkpt>
      <trkpt lat="45.98481" lon="4.83397">
        <ele>269</ele>
        <time>2017-05-07T09:18:28Z</time>
      </trkpt>
      <trkpt lat="45.98484" lon="4.83392">
        <ele>269</ele>
        <time>2017-05-07T09:18:29Z</time>
      </trkpt>
      <trkpt lat="45.98488" lon="4.83387">
        <ele>269</ele>
        <time>2017-05-07T09:18:30Z</time>
      </trkpt>
      <trkpt lat="45.98492" lon="4.83382">
        <ele>269</ele>
        <time>2017-05-07T09:18:31Z</time>
      </trkpt>
      <trkpt lat="45.98495" lon="4.83377">
        <ele>269</ele>
        <time>2017-05-07T09:18:32Z</time>
      </trkpt>
      <trkpt lat="45.98499" lon="4.83373">
        <ele>270</ele>
        <time>2017-05-07T09:18:33Z</time>
      </trkpt>
      <trkpt lat="45.98502" lon="4.83368">
        <ele>269</ele>
        <time>2017-05-07T09:18:34Z</time>
      </trkpt>
      <trkpt lat="45.98505" lon="4.83363">
        <ele>269</ele>
        <time>2017-05-07T09:18:35Z</time>
      </trkpt>
      <trkpt lat="45.98509" lon="4.83358">
        <ele>269</ele>
        <time>2017-05-07T09:18:36Z</time>
      </trkpt>
      <trkpt lat="45.98513" lon="4.83354">
        <ele>270</ele>
        <time>2017-05-07T09:18:37Z</time>
      </trkpt>
      <trkpt lat="45.98516" lon="4.83348">
        <ele>270</ele>
        <time>2017-05-07T09:18:38Z</time>
      </trkpt>
      <trkpt lat="45.9852" lon="4.83343">
        <ele>270</ele>
        <time>2017-05-07T09:18:39Z</time>
      </trkpt>
      <trkpt lat="45.98524" lon="4.83338">
        <ele>270</ele>
        <time>2017-05-07T09:18:40Z</time>
      </trkpt>
      <trkpt lat="45.98528" lon="4.83333">
        <ele>269</ele>
        <time>2017-05-07T09:18:41Z</time>
      </trkpt>
      <trkpt lat="45.98531" lon="4.83328">
        <ele>269</ele>
        <time>2017-05-07T09:18:42Z</time>
      </trkpt>
      <trkpt lat="45.98535" lon="4.83324">
        <ele>269</ele>
        <time>2017-05-07T09:18:43Z</time>
      </trkpt>
      <trkpt lat="45.98538" lon="4.83319">
        <ele>269</ele>
        <time>2017-05-07T09:18:44Z</time>
      </trkpt>
      <trkpt lat="45.98545" lon="4.83311">
        <ele>269</ele>
        <time>2017-05-07T09:18:46Z</time>
      </trkpt>
      <trkpt lat="45.98548" lon="4.83306">
        <ele>269</ele>
        <time>2017-05-07T09:18:47Z</time>
      </trkpt>
      <trkpt lat="45.98554" lon="4.83297">
        <ele>269</ele>
        <time>2017-05-07T09:18:49Z</time>
      </trkpt>
      <trkpt lat="45.98558" lon="4.83293">
        <ele>269</ele>
        <time>2017-05-07T09:18:50Z</time>
      </trkpt>
      <trkpt lat="45.98564" lon="4.83285">
        <ele>269</ele>
        <time>2017-05-07T09:18:52Z</time>
      </trkpt>
      <trkpt lat="45.98568" lon="4.8328">
        <ele>269</ele>
        <time>2017-05-07T09:18:53Z</time>
      </trkpt>
      <trkpt lat="45.98571" lon="4.83276">
        <ele>269</ele>
        <time>2017-05-07T09:18:54Z</time>
      </trkpt>
      <trkpt lat="45.98574" lon="4.83271">
        <ele>269</ele>
        <time>2017-05-07T09:18:55Z</time>
      </trkpt>
      <trkpt lat="45.98578" lon="4.83267">
        <ele>269</ele>
        <time>2017-05-07T09:18:56Z</time>
      </trkpt>
      <trkpt lat="45.98581" lon="4.83262">
        <ele>268</ele>
        <time>2017-05-07T09:18:57Z</time>
      </trkpt>
      <trkpt lat="45.98585" lon="4.83257">
        <ele>268</ele>
        <time>2017-05-07T09:18:58Z</time>
      </trkpt>
      <trkpt lat="45.98589" lon="4.83251">
        <ele>268</ele>
        <time>2017-05-07T09:18:59Z</time>
      </trkpt>
      <trkpt lat="45.98593" lon="4.83245">
        <ele>268</ele>
        <time>2017-05-07T09:19:00Z</time>
      </trkpt>
      <trkpt lat="45.98597" lon="4.8324">
        <ele>268</ele>
        <time>2017-05-07T09:19:01Z</time>
      </trkpt>
      <trkpt lat="45.98602" lon="4.83233">
        <ele>268</ele>
        <time>2017-05-07T09:19:02Z</time>
      </trkpt>
      <trkpt lat="45.98606" lon="4.83227">
        <ele>267</ele>
        <time>2017-05-07T09:19:03Z</time>
      </trkpt>
      <trkpt lat="45.98611" lon="4.83221">
        <ele>267</ele>
        <time>2017-05-07T09:19:04Z</time>
      </trkpt>
      <trkpt lat="45.98616" lon="4.83214">
        <ele>267</ele>
        <time>2017-05-07T09:19:05Z</time>
      </trkpt>
      <trkpt lat="45.9862" lon="4.83209">
        <ele>267</ele>
        <time>2017-05-07T09:19:06Z</time>
      </trkpt>
      <trkpt lat="45.98625" lon="4.83203">
        <ele>267</ele>
        <time>2017-05-07T09:19:07Z</time>
      </trkpt>
      <trkpt lat="45.9863" lon="4.83198">
        <ele>267</ele>
        <time>2017-05-07T09:19:08Z</time>
      </trkpt>
      <trkpt lat="45.98635" lon="4.83193">
        <ele>267</ele>
        <time>2017-05-07T09:19:09Z</time>
      </trkpt>
      <trkpt lat="45.9864" lon="4.83188">
        <ele>267</ele>
        <time>2017-05-07T09:19:10Z</time>
      </trkpt>
      <trkpt lat="45.98645" lon="4.83183">
        <ele>267</ele>
        <time>2017-05-07T09:19:11Z</time>
      </trkpt>
      <trkpt lat="45.9865" lon="4.83178">
        <ele>267</ele>
        <time>2017-05-07T09:19:12Z</time>
      </trkpt>
      <trkpt lat="45.98655" lon="4.83174">
        <ele>267</ele>
        <time>2017-05-07T09:19:13Z</time>
      </trkpt>
      <trkpt lat="45.9866" lon="4.8317">
        <ele>266</ele>
        <time>2017-05-07T09:19:14Z</time>
      </trkpt>
      <trkpt lat="45.98665" lon="4.83166">
        <ele>266</ele>
        <time>2017-05-07T09:19:15Z</time>
      </trkpt>
      <trkpt lat="45.9867" lon="4.83163">
        <ele>266</ele>
        <time>2017-05-07T09:19:16Z</time>
      </trkpt>
      <trkpt lat="45.98674" lon="4.8316">
        <ele>266</ele>
        <time>2017-05-07T09:19:17Z</time>
      </trkpt>
      <trkpt lat="45.98679" lon="4.83157">
        <ele>266</ele>
        <time>2017-05-07T09:19:18Z</time>
      </trkpt>
      <trkpt lat="45.98683" lon="4.83153">
        <ele>266</ele>
        <time>2017-05-07T09:19:19Z</time>
      </trkpt>
      <trkpt lat="45.98688" lon="4.83149">
        <ele>266</ele>
        <time>2017-05-07T09:19:20Z</time>
      </trkpt>
      <trkpt lat="45.98693" lon="4.83146">
        <ele>266</ele>
        <time>2017-05-07T09:19:21Z</time>
      </trkpt>
      <trkpt lat="45.98697" lon="4.83142">
        <ele>266</ele>
        <time>2017-05-07T09:19:22Z</time>
      </trkpt>
      <trkpt lat="45.98702" lon="4.83138">
        <ele>266</ele>
        <time>2017-05-07T09:19:23Z</time>
      </trkpt>
      <trkpt lat="45.98706" lon="4.83134">
        <ele>266</ele>
        <time>2017-05-07T09:19:24Z</time>
      </trkpt>
      <trkpt lat="45.98711" lon="4.83131">
        <ele>266</ele>
        <time>2017-05-07T09:19:25Z</time>
      </trkpt>
      <trkpt lat="45.98715" lon="4.83127">
        <ele>266</ele>
        <time>2017-05-07T09:19:26Z</time>
      </trkpt>
      <trkpt lat="45.9872" lon="4.83124">
        <ele>266</ele>
        <time>2017-05-07T09:19:27Z</time>
      </trkpt>
      <trkpt lat="45.98724" lon="4.8312">
        <ele>266</ele>
        <time>2017-05-07T09:19:28Z</time>
      </trkpt>
      <trkpt lat="45.98728" lon="4.83117">
        <ele>267</ele>
        <time>2017-05-07T09:19:29Z</time>
      </trkpt>
      <trkpt lat="45.98732" lon="4.83114">
        <ele>267</ele>
        <time>2017-05-07T09:19:30Z</time>
      </trkpt>
      <trkpt lat="45.98736" lon="4.8311">
        <ele>267</ele>
        <time>2017-05-07T09:19:31Z</time>
      </trkpt>
      <trkpt lat="45.9874" lon="4.83106">
        <ele>267</ele>
        <time>2017-05-07T09:19:32Z</time>
      </trkpt>
      <trkpt lat="45.98744" lon="4.83102">
        <ele>267</ele>
        <time>2017-05-07T09:19:33Z</time>
      </trkpt>
      <trkpt lat="45.98749" lon="4.83098">
        <ele>267</ele>
        <time>2017-05-07T09:19:34Z</time>
      </trkpt>
      <trkpt lat="45.98753" lon="4.83095">
        <ele>266</ele>
        <time>2017-05-07T09:19:35Z</time>
      </trkpt>
      <trkpt lat="45.98758" lon="4.83091">
        <ele>266</ele>
        <time>2017-05-07T09:19:36Z</time>
      </trkpt>
      <trkpt lat="45.98763" lon="4.83087">
        <ele>265</ele>
        <time>2017-05-07T09:19:37Z</time>
      </trkpt>
      <trkpt lat="45.98768" lon="4.83083">
        <ele>266</ele>
        <time>2017-05-07T09:19:38Z</time>
      </trkpt>
      <trkpt lat="45.98774" lon="4.83078">
        <ele>265</ele>
        <time>2017-05-07T09:19:39Z</time>
      </trkpt>
      <trkpt lat="45.98779" lon="4.83073">
        <ele>265</ele>
        <time>2017-05-07T09:19:40Z</time>
      </trkpt>
      <trkpt lat="45.98784" lon="4.83069">
        <ele>265</ele>
        <time>2017-05-07T09:19:41Z</time>
      </trkpt>
      <trkpt lat="45.9879" lon="4.83064">
        <ele>265</ele>
        <time>2017-05-07T09:19:42Z</time>
      </trkpt>
      <trkpt lat="45.98796" lon="4.83059">
        <ele>264</ele>
        <time>2017-05-07T09:19:43Z</time>
      </trkpt>
      <trkpt lat="45.98801" lon="4.83054">
        <ele>264</ele>
        <time>2017-05-07T09:19:44Z</time>
      </trkpt>
      <trkpt lat="45.98807" lon="4.83049">
        <ele>264</ele>
        <time>2017-05-07T09:19:45Z</time>
      </trkpt>
      <trkpt lat="45.98813" lon="4.83044">
        <ele>264</ele>
        <time>2017-05-07T09:19:46Z</time>
      </trkpt>
      <trkpt lat="45.98819" lon="4.83039">
        <ele>264</ele>
        <time>2017-05-07T09:19:47Z</time>
      </trkpt>
      <trkpt lat="45.98826" lon="4.83034">
        <ele>264</ele>
        <time>2017-05-07T09:19:48Z</time>
      </trkpt>
      <trkpt lat="45.98832" lon="4.83029">
        <ele>264</ele>
        <time>2017-05-07T09:19:49Z</time>
      </trkpt>
      <trkpt lat="45.98839" lon="4.83024">
        <ele>261</ele>
        <time>2017-05-07T09:19:50Z</time>
      </trkpt>
      <trkpt lat="45.98846" lon="4.83019">
        <ele>261</ele>
        <time>2017-05-07T09:19:51Z</time>
      </trkpt>
      <trkpt lat="45.98853" lon="4.83014">
        <ele>261</ele>
        <time>2017-05-07T09:19:52Z</time>
      </trkpt>
      <trkpt lat="45.9886" lon="4.83009">
        <ele>260</ele>
        <time>2017-05-07T09:19:53Z</time>
      </trkpt>
      <trkpt lat="45.98868" lon="4.83003">
        <ele>260</ele>
        <time>2017-05-07T09:19:54Z</time>
      </trkpt>
      <trkpt lat="45.98876" lon="4.82998">
        <ele>260</ele>
        <time>2017-05-07T09:19:55Z</time>
      </trkpt>
      <trkpt lat="45.98884" lon="4.82992">
        <ele>259</ele>
        <time>2017-05-07T09:19:56Z</time>
      </trkpt>
      <trkpt lat="45.98892" lon="4.82986">
        <ele>259</ele>
        <time>2017-05-07T09:19:57Z</time>
      </trkpt>
      <trkpt lat="45.989" lon="4.82979">
        <ele>259</ele>
        <time>2017-05-07T09:19:58Z</time>
      </trkpt>
      <trkpt lat="45.98908" lon="4.82971">
        <ele>259</ele>
        <time>2017-05-07T09:19:59Z</time>
      </trkpt>
      <trkpt lat="45.98915" lon="4.8296">
        <ele>258</ele>
        <time>2017-05-07T09:20:00Z</time>
      </trkpt>
      <trkpt lat="45.98921" lon="4.82948">
        <ele>255</ele>
        <time>2017-05-07T09:20:01Z</time>
      </trkpt>
      <trkpt lat="45.98927" lon="4.82935">
        <ele>255</ele>
        <time>2017-05-07T09:20:02Z</time>
      </trkpt>
      <trkpt lat="45.98933" lon="4.82922">
        <ele>255</ele>
        <time>2017-05-07T09:20:03Z</time>
      </trkpt>
      <trkpt lat="45.98938" lon="4.82908">
        <ele>254</ele>
        <time>2017-05-07T09:20:04Z</time>
      </trkpt>
      <trkpt lat="45.98944" lon="4.82894">
        <ele>253</ele>
        <time>2017-05-07T09:20:05Z</time>
      </trkpt>
      <trkpt lat="45.98951" lon="4.82879">
        <ele>253</ele>
        <time>2017-05-07T09:20:06Z</time>
      </trkpt>
      <trkpt lat="45.98957" lon="4.82865">
        <ele>252</ele>
        <time>2017-05-07T09:20:07Z</time>
      </trkpt>
      <trkpt lat="45.98964" lon="4.8285">
        <ele>252</ele>
        <time>2017-05-07T09:20:08Z</time>
      </trkpt>
      <trkpt lat="45.9897" lon="4.82835">
        <ele>251</ele>
        <time>2017-05-07T09:20:09Z</time>
      </trkpt>
      <trkpt lat="45.98977" lon="4.82819">
        <ele>248</ele>
        <time>2017-05-07T09:20:10Z</time>
      </trkpt>
      <trkpt lat="45.98984" lon="4.82804">
        <ele>248</ele>
        <time>2017-05-07T09:20:11Z</time>
      </trkpt>
      <trkpt lat="45.9899" lon="4.82788">
        <ele>247</ele>
        <time>2017-05-07T09:20:12Z</time>
      </trkpt>
      <trkpt lat="45.98997" lon="4.82772">
        <ele>245</ele>
        <time>2017-05-07T09:20:13Z</time>
      </trkpt>
      <trkpt lat="45.99003" lon="4.82757">
        <ele>241</ele>
        <time>2017-05-07T09:20:14Z</time>
      </trkpt>
      <trkpt lat="45.9901" lon="4.82742">
        <ele>240</ele>
        <time>2017-05-07T09:20:15Z</time>
      </trkpt>
      <trkpt lat="45.99017" lon="4.82726">
        <ele>239</ele>
        <time>2017-05-07T09:20:16Z</time>
      </trkpt>
      <trkpt lat="45.99023" lon="4.82711">
        <ele>238</ele>
        <time>2017-05-07T09:20:17Z</time>
      </trkpt>
      <trkpt lat="45.9903" lon="4.82696">
        <ele>238</ele>
        <time>2017-05-07T09:20:18Z</time>
      </trkpt>
      <trkpt lat="45.99036" lon="4.82682">
        <ele>238</ele>
        <time>2017-05-07T09:20:19Z</time>
      </trkpt>
      <trkpt lat="45.99041" lon="4.82668">
        <ele>238</ele>
        <time>2017-05-07T09:20:20Z</time>
      </trkpt>
      <trkpt lat="45.99047" lon="4.82655">
        <ele>236</ele>
        <time>2017-05-07T09:20:21Z</time>
      </trkpt>
      <trkpt lat="45.99052" lon="4.82643">
        <ele>236</ele>
        <time>2017-05-07T09:20:22Z</time>
      </trkpt>
      <trkpt lat="45.99057" lon="4.82632">
        <ele>236</ele>
        <time>2017-05-07T09:20:23Z</time>
      </trkpt>
      <trkpt lat="45.99061" lon="4.82622">
        <ele>236</ele>
        <time>2017-05-07T09:20:24Z</time>
      </trkpt>
      <trkpt lat="45.99065" lon="4.82614">
        <ele>236</ele>
        <time>2017-05-07T09:20:25Z</time>
      </trkpt>
      <trkpt lat="45.99068" lon="4.82606">
        <ele>236</ele>
        <time>2017-05-07T09:20:26Z</time>
      </trkpt>
      <trkpt lat="45.9907" lon="4.826">
        <ele>235</ele>
        <time>2017-05-07T09:20:27Z</time>
      </trkpt>
      <trkpt lat="45.99072" lon="4.82594">
        <ele>235</ele>
        <time>2017-05-07T09:20:28Z</time>
      </trkpt>
      <trkpt lat="45.99072" lon="4.82582">
        <ele>235</ele>
        <time>2017-05-07T09:20:30Z</time>
      </trkpt>
      <trkpt lat="45.99069" lon="4.82576">
        <ele>235</ele>
        <time>2017-05-07T09:20:31Z</time>
      </trkpt>
      <trkpt lat="45.99065" lon="4.82572">
        <ele>235</ele>
        <time>2017-05-07T09:20:32Z</time>
      </trkpt>
      <trkpt lat="45.9906" lon="4.8257">
        <ele>235</ele>
        <time>2017-05-07T09:20:33Z</time>
      </trkpt>
      <trkpt lat="45.99055" lon="4.82568">
        <ele>235</ele>
        <time>2017-05-07T09:20:34Z</time>
      </trkpt>
      <trkpt lat="45.9905" lon="4.82566">
        <ele>235</ele>
        <time>2017-05-07T09:20:35Z</time>
      </trkpt>
      <trkpt lat="45.99045" lon="4.82563">
        <ele>235</ele>
        <time>2017-05-07T09:20:36Z</time>
      </trkpt>
      <trkpt lat="45.99041" lon="4.8256">
        <ele>235</ele>
        <time>2017-05-07T09:20:37Z</time>
      </trkpt>
      <trkpt lat="45.99032" lon="4.82555">
        <ele>235</ele>
        <time>2017-05-07T09:20:39Z</time>
      </trkpt>
      <trkpt lat="45.99028" lon="4.82552">
        <ele>235</ele>
        <time>2017-05-07T09:20:40Z</time>
      </trkpt>
      <trkpt lat="45.99021" lon="4.82545">
        <ele>235</ele>
        <time>2017-05-07T09:20:42Z</time>
      </trkpt>
      <trkpt lat="45.99018" lon="4.8254">
        <ele>235</ele>
        <time>2017-05-07T09:20:43Z</time>
      </trkpt>
      <trkpt lat="45.99015" lon="4.82535">
        <ele>235</ele>
        <time>2017-05-07T09:20:44Z</time>
      </trkpt>
      <trkpt lat="45.99012" lon="4.8253">
        <ele>235</ele>
        <time>2017-05-07T09:20:45Z</time>
      </trkpt>
      <trkpt lat="45.99008" lon="4.82524">
        <ele>235</ele>
        <time>2017-05-07T09:20:46Z</time>
      </trkpt>
      <trkpt lat="45.99005" lon="4.82518">
        <ele>235</ele>
        <time>2017-05-07T09:20:47Z</time>
      </trkpt>
      <trkpt lat="45.99002" lon="4.82511">
        <ele>235</ele>
        <time>2017-05-07T09:20:48Z</time>
      </trkpt>
      <trkpt lat="45.98999" lon="4.82504">
        <ele>235</ele>
        <time>2017-05-07T09:20:49Z</time>
      </trkpt>
      <trkpt lat="45.98996" lon="4.82497">
        <ele>235</ele>
        <time>2017-05-07T09:20:50Z</time>
      </trkpt>
      <trkpt lat="45.98993" lon="4.8249">
        <ele>236</ele>
        <time>2017-05-07T09:20:51Z</time>
      </trkpt>
      <trkpt lat="45.98991" lon="4.82482">
        <ele>236</ele>
        <time>2017-05-07T09:20:52Z</time>
      </trkpt>
      <trkpt lat="45.98988" lon="4.82473">
        <ele>236</ele>
        <time>2017-05-07T09:20:53Z</time>
      </trkpt>
      <trkpt lat="45.98986" lon="4.82466">
        <ele>236</ele>
        <time>2017-05-07T09:20:54Z</time>
      </trkpt>
      <trkpt lat="45.98984" lon="4.82458">
        <ele>236</ele>
        <time>2017-05-07T09:20:55Z</time>
      </trkpt>
      <trkpt lat="45.98982" lon="4.82451">
        <ele>236</ele>
        <time>2017-05-07T09:20:56Z</time>
      </trkpt>
      <trkpt lat="45.98979" lon="4.82444">
        <ele>236</ele>
        <time>2017-05-07T09:20:57Z</time>
      </trkpt>
      <trkpt lat="45.98977" lon="4.82437">
        <ele>236</ele>
        <time>2017-05-07T09:20:58Z</time>
      </trkpt>
      <trkpt lat="45.98976" lon="4.8243">
        <ele>236</ele>
        <time>2017-05-07T09:20:59Z</time>
      </trkpt>
      <trkpt lat="45.98975" lon="4.82423">
        <ele>236</ele>
        <time>2017-05-07T09:21:00Z</time>
      </trkpt>
      <trkpt lat="45.98972" lon="4.82416">
        <ele>235</ele>
        <time>2017-05-07T09:21:01Z</time>
      </trkpt>
      <trkpt lat="45.9897" lon="4.82409">
        <ele>235</ele>
        <time>2017-05-07T09:21:02Z</time>
      </trkpt>
      <trkpt lat="45.98968" lon="4.82402">
        <ele>235</ele>
        <time>2017-05-07T09:21:03Z</time>
      </trkpt>
      <trkpt lat="45.98967" lon="4.82396">
        <ele>235</ele>
        <time>2017-05-07T09:21:04Z</time>
      </trkpt>
      <trkpt lat="45.98965" lon="4.82389">
        <ele>235</ele>
        <time>2017-05-07T09:21:05Z</time>
      </trkpt>
      <trkpt lat="45.98964" lon="4.82382">
        <ele>235</ele>
        <time>2017-05-07T09:21:06Z</time>
      </trkpt>
      <trkpt lat="45.98962" lon="4.82376">
        <ele>235</ele>
        <time>2017-05-07T09:21:07Z</time>
      </trkpt>
      <trkpt lat="45.9896" lon="4.8237">
        <ele>235</ele>
        <time>2017-05-07T09:21:08Z</time>
      </trkpt>
      <trkpt lat="45.98958" lon="4.82364">
        <ele>235</ele>
        <time>2017-05-07T09:21:09Z</time>
      </trkpt>
      <trkpt lat="45.98956" lon="4.82359">
        <ele>235</ele>
        <time>2017-05-07T09:21:10Z</time>
      </trkpt>
      <trkpt lat="45.98953" lon="4.82353">
        <ele>235</ele>
        <time>2017-05-07T09:21:11Z</time>
      </trkpt>
      <trkpt lat="45.98951" lon="4.82346">
        <ele>235</ele>
        <time>2017-05-07T09:21:12Z</time>
      </trkpt>
      <trkpt lat="45.98947" lon="4.8234">
        <ele>235</ele>
        <time>2017-05-07T09:21:13Z</time>
      </trkpt>
      <trkpt lat="45.98944" lon="4.82334">
        <ele>235</ele>
        <time>2017-05-07T09:21:14Z</time>
      </trkpt>
      <trkpt lat="45.98939" lon="4.82328">
        <ele>235</ele>
        <time>2017-05-07T09:21:15Z</time>
      </trkpt>
      <trkpt lat="45.98935" lon="4.82322">
        <ele>235</ele>
        <time>2017-05-07T09:21:16Z</time>
      </trkpt>
      <trkpt lat="45.9893" lon="4.82317">
        <ele>235</ele>
        <time>2017-05-07T09:21:17Z</time>
      </trkpt>
      <trkpt lat="45.98926" lon="4.82311">
        <ele>235</ele>
        <time>2017-05-07T09:21:18Z</time>
      </trkpt>
      <trkpt lat="45.98921" lon="4.82307">
        <ele>235</ele>
        <time>2017-05-07T09:21:19Z</time>
      </trkpt>
      <trkpt lat="45.98917" lon="4.82301">
        <ele>237</ele>
        <time>2017-05-07T09:21:20Z</time>
      </trkpt>
      <trkpt lat="45.98912" lon="4.82295">
        <ele>236</ele>
        <time>2017-05-07T09:21:21Z</time>
      </trkpt>
      <trkpt lat="45.98907" lon="4.82289">
        <ele>236</ele>
        <time>2017-05-07T09:21:22Z</time>
      </trkpt>
      <trkpt lat="45.98903" lon="4.82284">
        <ele>236</ele>
        <time>2017-05-07T09:21:23Z</time>
      </trkpt>
      <trkpt lat="45.98899" lon="4.82278">
        <ele>236</ele>
        <time>2017-05-07T09:21:24Z</time>
      </trkpt>
      <trkpt lat="45.98895" lon="4.82273">
        <ele>236</ele>
        <time>2017-05-07T09:21:25Z</time>
      </trkpt>
      <trkpt lat="45.98891" lon="4.82267">
        <ele>236</ele>
        <time>2017-05-07T09:21:26Z</time>
      </trkpt>
      <trkpt lat="45.98888" lon="4.82261">
        <ele>236</ele>
        <time>2017-05-07T09:21:27Z</time>
      </trkpt>
      <trkpt lat="45.98885" lon="4.82254">
        <ele>236</ele>
        <time>2017-05-07T09:21:28Z</time>
      </trkpt>
      <trkpt lat="45.98882" lon="4.82248">
        <ele>236</ele>
        <time>2017-05-07T09:21:29Z</time>
      </trkpt>
      <trkpt lat="45.98879" lon="4.82241">
        <ele>236</ele>
        <time>2017-05-07T09:21:30Z</time>
      </trkpt>
      <trkpt lat="45.98876" lon="4.82235">
        <ele>236</ele>
        <time>2017-05-07T09:21:31Z</time>
      </trkpt>
      <trkpt lat="45.98873" lon="4.82228">
        <ele>236</ele>
        <time>2017-05-07T09:21:32Z</time>
      </trkpt>
      <trkpt lat="45.9887" lon="4.82221">
        <ele>236</ele>
        <time>2017-05-07T09:21:33Z</time>
      </trkpt>
      <trkpt lat="45.98867" lon="4.82214">
        <ele>236</ele>
        <time>2017-05-07T09:21:34Z</time>
      </trkpt>
      <trkpt lat="45.98864" lon="4.82207">
        <ele>236</ele>
        <time>2017-05-07T09:21:35Z</time>
      </trkpt>
      <trkpt lat="45.98861" lon="4.822">
        <ele>236</ele>
        <time>2017-05-07T09:21:36Z</time>
      </trkpt>
      <trkpt lat="45.98858" lon="4.82193">
        <ele>236</ele>
        <time>2017-05-07T09:21:37Z</time>
      </trkpt>
      <trkpt lat="45.98856" lon="4.82186">
        <ele>236</ele>
        <time>2017-05-07T09:21:38Z</time>
      </trkpt>
      <trkpt lat="45.98853" lon="4.82179">
        <ele>236</ele>
        <time>2017-05-07T09:21:39Z</time>
      </trkpt>
      <trkpt lat="45.98851" lon="4.82172">
        <ele>236</ele>
        <time>2017-05-07T09:21:40Z</time>
      </trkpt>
      <trkpt lat="45.98849" lon="4.82165">
        <ele>236</ele>
        <time>2017-05-07T09:21:41Z</time>
      </trkpt>
      <trkpt lat="45.98847" lon="4.82159">
        <ele>236</ele>
        <time>2017-05-07T09:21:42Z</time>
      </trkpt>
      <trkpt lat="45.98845" lon="4.82152">
        <ele>236</ele>
        <time>2017-05-07T09:21:43Z</time>
      </trkpt>
      <trkpt lat="45.98843" lon="4.82145">
        <ele>236</ele>
        <time>2017-05-07T09:21:44Z</time>
      </trkpt>
      <trkpt lat="45.98841" lon="4.82138">
        <ele>236</ele>
        <time>2017-05-07T09:21:45Z</time>
      </trkpt>
      <trkpt lat="45.98839" lon="4.8213">
        <ele>236</ele>
        <time>2017-05-07T09:21:46Z</time>
      </trkpt>
      <trkpt lat="45.98838" lon="4.82123">
        <ele>236</ele>
        <time>2017-05-07T09:21:47Z</time>
      </trkpt>
      <trkpt lat="45.98837" lon="4.82115">
        <ele>235</ele>
        <time>2017-05-07T09:21:48Z</time>
      </trkpt>
      <trkpt lat="45.98836" lon="4.82108">
        <ele>236</ele>
        <time>2017-05-07T09:21:49Z</time>
      </trkpt>
      <trkpt lat="45.98834" lon="4.821">
        <ele>236</ele>
        <time>2017-05-07T09:21:50Z</time>
      </trkpt>
      <trkpt lat="45.98833" lon="4.82093">
        <ele>237</ele>
        <time>2017-05-07T09:21:51Z</time>
      </trkpt>
      <trkpt lat="45.98832" lon="4.82085">
        <ele>236</ele>
        <time>2017-05-07T09:21:52Z</time>
      </trkpt>
      <trkpt lat="45.98831" lon="4.82078">
        <ele>236</ele>
        <time>2017-05-07T09:21:53Z</time>
      </trkpt>
      <trkpt lat="45.9883" lon="4.8207">
        <ele>237</ele>
        <time>2017-05-07T09:21:54Z</time>
      </trkpt>
      <trkpt lat="45.98829" lon="4.82061">
        <ele>237</ele>
        <time>2017-05-07T09:21:55Z</time>
      </trkpt>
      <trkpt lat="45.98828" lon="4.82053">
        <ele>237</ele>
        <time>2017-05-07T09:21:56Z</time>
      </trkpt>
      <trkpt lat="45.98826" lon="4.82045">
        <ele>238</ele>
        <time>2017-05-07T09:21:57Z</time>
      </trkpt>
      <trkpt lat="45.98825" lon="4.82037">
        <ele>238</ele>
        <time>2017-05-07T09:21:58Z</time>
      </trkpt>
      <trkpt lat="45.98824" lon="4.82029">
        <ele>238</ele>
        <time>2017-05-07T09:21:59Z</time>
      </trkpt>
      <trkpt lat="45.98823" lon="4.82021">
        <ele>238</ele>
        <time>2017-05-07T09:22:00Z</time>
      </trkpt>
      <trkpt lat="45.98822" lon="4.82014">
        <ele>238</ele>
        <time>2017-05-07T09:22:01Z</time>
      </trkpt>
      <trkpt lat="45.98822" lon="4.82006">
        <ele>238</ele>
        <time>2017-05-07T09:22:02Z</time>
      </trkpt>
      <trkpt lat="45.98821" lon="4.81999">
        <ele>238</ele>
        <time>2017-05-07T09:22:03Z</time>
      </trkpt>
      <trkpt lat="45.9882" lon="4.81992">
        <ele>238</ele>
        <time>2017-05-07T09:22:04Z</time>
      </trkpt>
      <trkpt lat="45.98819" lon="4.81985">
        <ele>238</ele>
        <time>2017-05-07T09:22:05Z</time>
      </trkpt>
      <trkpt lat="45.98818" lon="4.81978">
        <ele>239</ele>
        <time>2017-05-07T09:22:06Z</time>
      </trkpt>
      <trkpt lat="45.98817" lon="4.81971">
        <ele>239</ele>
        <time>2017-05-07T09:22:07Z</time>
      </trkpt>
      <trkpt lat="45.98816" lon="4.81964">
        <ele>239</ele>
        <time>2017-05-07T09:22:08Z</time>
      </trkpt>
      <trkpt lat="45.98815" lon="4.81956">
        <ele>239</ele>
        <time>2017-05-07T09:22:09Z</time>
      </trkpt>
      <trkpt lat="45.98814" lon="4.81948">
        <ele>239</ele>
        <time>2017-05-07T09:22:10Z</time>
      </trkpt>
      <trkpt lat="45.98813" lon="4.81939">
        <ele>239</ele>
        <time>2017-05-07T09:22:11Z</time>
      </trkpt>
      <trkpt lat="45.98811" lon="4.8193">
        <ele>239</ele>
        <time>2017-05-07T09:22:12Z</time>
      </trkpt>
      <trkpt lat="45.9881" lon="4.81922">
        <ele>239</ele>
        <time>2017-05-07T09:22:13Z</time>
      </trkpt>
      <trkpt lat="45.98809" lon="4.81913">
        <ele>239</ele>
        <time>2017-05-07T09:22:14Z</time>
      </trkpt>
      <trkpt lat="45.98808" lon="4.81904">
        <ele>239</ele>
        <time>2017-05-07T09:22:15Z</time>
      </trkpt>
      <trkpt lat="45.98805" lon="4.81895">
        <ele>239</ele>
        <time>2017-05-07T09:22:16Z</time>
      </trkpt>
      <trkpt lat="45.98803" lon="4.81887">
        <ele>239</ele>
        <time>2017-05-07T09:22:17Z</time>
      </trkpt>
      <trkpt lat="45.988" lon="4.81879">
        <ele>239</ele>
        <time>2017-05-07T09:22:18Z</time>
      </trkpt>
      <trkpt lat="45.98798" lon="4.81871">
        <ele>239</ele>
        <time>2017-05-07T09:22:19Z</time>
      </trkpt>
      <trkpt lat="45.98795" lon="4.81865">
        <ele>239</ele>
        <time>2017-05-07T09:22:20Z</time>
      </trkpt>
      <trkpt lat="45.98792" lon="4.81859">
        <ele>239</ele>
        <time>2017-05-07T09:22:21Z</time>
      </trkpt>
      <trkpt lat="45.98789" lon="4.81853">
        <ele>239</ele>
        <time>2017-05-07T09:22:22Z</time>
      </trkpt>
      <trkpt lat="45.98786" lon="4.81848">
        <ele>239</ele>
        <time>2017-05-07T09:22:23Z</time>
      </trkpt>
      <trkpt lat="45.98783" lon="4.81843">
        <ele>239</ele>
        <time>2017-05-07T09:22:24Z</time>
      </trkpt>
      <trkpt lat="45.98781" lon="4.81837">
        <ele>239</ele>
        <time>2017-05-07T09:22:25Z</time>
      </trkpt>
      <trkpt lat="45.98775" lon="4.81827">
        <ele>240</ele>
        <time>2017-05-07T09:22:27Z</time>
      </trkpt>
      <trkpt lat="45.98773" lon="4.81822">
        <ele>240</ele>
        <time>2017-05-07T09:22:28Z</time>
      </trkpt>
      <trkpt lat="45.98767" lon="4.81812">
        <ele>240</ele>
        <time>2017-05-07T09:22:30Z</time>
      </trkpt>
      <trkpt lat="45.98764" lon="4.81806">
        <ele>240</ele>
        <time>2017-05-07T09:22:31Z</time>
      </trkpt>
      <trkpt lat="45.9876" lon="4.81796">
        <ele>240</ele>
        <time>2017-05-07T09:22:33Z</time>
      </trkpt>
      <trkpt lat="45.98757" lon="4.8179">
        <ele>241</ele>
        <time>2017-05-07T09:22:34Z</time>
      </trkpt>
      <trkpt lat="45.98752" lon="4.8178">
        <ele>241</ele>
        <time>2017-05-07T09:22:36Z</time>
      </trkpt>
      <trkpt lat="45.98749" lon="4.81774">
        <ele>240</ele>
        <time>2017-05-07T09:22:37Z</time>
      </trkpt>
      <trkpt lat="45.98746" lon="4.81769">
        <ele>240</ele>
        <time>2017-05-07T09:22:38Z</time>
      </trkpt>
      <trkpt lat="45.98743" lon="4.81764">
        <ele>240</ele>
        <time>2017-05-07T09:22:39Z</time>
      </trkpt>
      <trkpt lat="45.98738" lon="4.81754">
        <ele>240</ele>
        <time>2017-05-07T09:22:41Z</time>
      </trkpt>
      <trkpt lat="45.98735" lon="4.81749">
        <ele>240</ele>
        <time>2017-05-07T09:22:42Z</time>
      </trkpt>
      <trkpt lat="45.9873" lon="4.81738">
        <ele>239</ele>
        <time>2017-05-07T09:22:44Z</time>
      </trkpt>
      <trkpt lat="45.98726" lon="4.81735">
        <ele>239</ele>
        <time>2017-05-07T09:22:45Z</time>
      </trkpt>
      <trkpt lat="45.98718" lon="4.81731">
        <ele>239</ele>
        <time>2017-05-07T09:22:47Z</time>
      </trkpt>
      <trkpt lat="45.98714" lon="4.81732">
        <ele>239</ele>
        <time>2017-05-07T09:22:48Z</time>
      </trkpt>
      <trkpt lat="45.98705" lon="4.81733">
        <ele>239</ele>
        <time>2017-05-07T09:22:50Z</time>
      </trkpt>
      <trkpt lat="45.987" lon="4.81734">
        <ele>239</ele>
        <time>2017-05-07T09:22:51Z</time>
      </trkpt>
      <trkpt lat="45.98693" lon="4.81736">
        <ele>238</ele>
        <time>2017-05-07T09:22:53Z</time>
      </trkpt>
      <trkpt lat="45.98689" lon="4.81737">
        <ele>238</ele>
        <time>2017-05-07T09:22:54Z</time>
      </trkpt>
      <trkpt lat="45.98684" lon="4.81738">
        <ele>238</ele>
        <time>2017-05-07T09:22:55Z</time>
      </trkpt>
      <trkpt lat="45.9868" lon="4.8174">
        <ele>238</ele>
        <time>2017-05-07T09:22:56Z</time>
      </trkpt>
      <trkpt lat="45.98675" lon="4.81741">
        <ele>238</ele>
        <time>2017-05-07T09:22:57Z</time>
      </trkpt>
      <trkpt lat="45.9867" lon="4.81742">
        <ele>238</ele>
        <time>2017-05-07T09:22:58Z</time>
      </trkpt>
      <trkpt lat="45.98665" lon="4.81744">
        <ele>238</ele>
        <time>2017-05-07T09:22:59Z</time>
      </trkpt>
      <trkpt lat="45.98661" lon="4.81745">
        <ele>238</ele>
        <time>2017-05-07T09:23:00Z</time>
      </trkpt>
      <trkpt lat="45.98654" lon="4.81746">
        <ele>237</ele>
        <time>2017-05-07T09:23:01Z</time>
      </trkpt>
      <trkpt lat="45.98647" lon="4.81747">
        <ele>237</ele>
        <time>2017-05-07T09:23:02Z</time>
      </trkpt>
      <trkpt lat="45.98642" lon="4.81747">
        <ele>237</ele>
        <time>2017-05-07T09:23:03Z</time>
      </trkpt>
      <trkpt lat="45.98637" lon="4.81748">
        <ele>237</ele>
        <time>2017-05-07T09:23:04Z</time>
      </trkpt>
      <trkpt lat="45.98632" lon="4.8175">
        <ele>237</ele>
        <time>2017-05-07T09:23:05Z</time>
      </trkpt>
      <trkpt lat="45.98626" lon="4.81752">
        <ele>238</ele>
        <time>2017-05-07T09:23:06Z</time>
      </trkpt>
      <trkpt lat="45.98621" lon="4.81754">
        <ele>238</ele>
        <time>2017-05-07T09:23:07Z</time>
      </trkpt>
      <trkpt lat="45.98615" lon="4.81756">
        <ele>238</ele>
        <time>2017-05-07T09:23:08Z</time>
      </trkpt>
      <trkpt lat="45.98609" lon="4.81758">
        <ele>238</ele>
        <time>2017-05-07T09:23:09Z</time>
      </trkpt>
      <trkpt lat="45.98603" lon="4.81759">
        <ele>238</ele>
        <time>2017-05-07T09:23:10Z</time>
      </trkpt>
      <trkpt lat="45.98597" lon="4.81762">
        <ele>238</ele>
        <time>2017-05-07T09:23:11Z</time>
      </trkpt>
      <trkpt lat="45.98592" lon="4.81765">
        <ele>237</ele>
        <time>2017-05-07T09:23:12Z</time>
      </trkpt>
      <trkpt lat="45.98587" lon="4.81769">
        <ele>238</ele>
        <time>2017-05-07T09:23:13Z</time>
      </trkpt>
      <trkpt lat="45.98581" lon="4.81774">
        <ele>237</ele>
        <time>2017-05-07T09:23:14Z</time>
      </trkpt>
      <trkpt lat="45.98577" lon="4.81779">
        <ele>238</ele>
        <time>2017-05-07T09:23:15Z</time>
      </trkpt>
      <trkpt lat="45.98573" lon="4.81785">
        <ele>238</ele>
        <time>2017-05-07T09:23:16Z</time>
      </trkpt>
      <trkpt lat="45.98569" lon="4.81791">
        <ele>238</ele>
        <time>2017-05-07T09:23:17Z</time>
      </trkpt>
      <trkpt lat="45.98565" lon="4.81797">
        <ele>238</ele>
        <time>2017-05-07T09:23:18Z</time>
      </trkpt>
      <trkpt lat="45.9856" lon="4.81802">
        <ele>238</ele>
        <time>2017-05-07T09:23:19Z</time>
      </trkpt>
      <trkpt lat="45.98555" lon="4.81805">
        <ele>238</ele>
        <time>2017-05-07T09:23:20Z</time>
      </trkpt>
      <trkpt lat="45.98549" lon="4.81806">
        <ele>238</ele>
        <time>2017-05-07T09:23:21Z</time>
      </trkpt>
      <trkpt lat="45.98544" lon="4.81807">
        <ele>238</ele>
        <time>2017-05-07T09:23:22Z</time>
      </trkpt>
      <trkpt lat="45.9854" lon="4.81805">
        <ele>238</ele>
        <time>2017-05-07T09:23:23Z</time>
      </trkpt>
      <trkpt lat="45.98536" lon="4.81802">
        <ele>238</ele>
        <time>2017-05-07T09:23:24Z</time>
      </trkpt>
      <trkpt lat="45.98532" lon="4.81797">
        <ele>238</ele>
        <time>2017-05-07T09:23:25Z</time>
      </trkpt>
      <trkpt lat="45.98529" lon="4.81793">
        <ele>238</ele>
        <time>2017-05-07T09:23:26Z</time>
      </trkpt>
      <trkpt lat="45.98525" lon="4.81788">
        <ele>238</ele>
        <time>2017-05-07T09:23:27Z</time>
      </trkpt>
      <trkpt lat="45.98522" lon="4.81783">
        <ele>238</ele>
        <time>2017-05-07T09:23:28Z</time>
      </trkpt>
      <trkpt lat="45.98519" lon="4.81779">
        <ele>238</ele>
        <time>2017-05-07T09:23:29Z</time>
      </trkpt>
      <trkpt lat="45.98515" lon="4.81774">
        <ele>238</ele>
        <time>2017-05-07T09:23:30Z</time>
      </trkpt>
      <trkpt lat="45.98509" lon="4.81766">
        <ele>237</ele>
        <time>2017-05-07T09:23:32Z</time>
      </trkpt>
      <trkpt lat="45.98505" lon="4.81761">
        <ele>237</ele>
        <time>2017-05-07T09:23:33Z</time>
      </trkpt>
      <trkpt lat="45.98502" lon="4.81757">
        <ele>237</ele>
        <time>2017-05-07T09:23:34Z</time>
      </trkpt>
      <trkpt lat="45.98498" lon="4.81753">
        <ele>237</ele>
        <time>2017-05-07T09:23:35Z</time>
      </trkpt>
      <trkpt lat="45.98492" lon="4.81745">
        <ele>238</ele>
        <time>2017-05-07T09:23:37Z</time>
      </trkpt>
      <trkpt lat="45.98488" lon="4.81742">
        <ele>238</ele>
        <time>2017-05-07T09:23:38Z</time>
      </trkpt>
      <trkpt lat="45.98481" lon="4.81735">
        <ele>238</ele>
        <time>2017-05-07T09:23:40Z</time>
      </trkpt>
      <trkpt lat="45.98477" lon="4.81732">
        <ele>238</ele>
        <time>2017-05-07T09:23:41Z</time>
      </trkpt>
      <trkpt lat="45.9847" lon="4.81726">
        <ele>239</ele>
        <time>2017-05-07T09:23:43Z</time>
      </trkpt>
      <trkpt lat="45.98467" lon="4.81722">
        <ele>239</ele>
        <time>2017-05-07T09:23:44Z</time>
      </trkpt>
      <trkpt lat="45.98462" lon="4.81715">
        <ele>239</ele>
        <time>2017-05-07T09:23:46Z</time>
      </trkpt>
      <trkpt lat="45.98459" lon="4.81711">
        <ele>239</ele>
        <time>2017-05-07T09:23:47Z</time>
      </trkpt>
      <trkpt lat="45.98454" lon="4.81702">
        <ele>239</ele>
        <time>2017-05-07T09:23:49Z</time>
      </trkpt>
      <trkpt lat="45.98453" lon="4.81698">
        <ele>239</ele>
        <time>2017-05-07T09:23:50Z</time>
      </trkpt>
      <trkpt lat="45.98448" lon="4.8169">
        <ele>239</ele>
        <time>2017-05-07T09:23:52Z</time>
      </trkpt>
      <trkpt lat="45.98445" lon="4.81686">
        <ele>239</ele>
        <time>2017-05-07T09:23:53Z</time>
      </trkpt>
      <trkpt lat="45.9844" lon="4.8168">
        <ele>240</ele>
        <time>2017-05-07T09:23:55Z</time>
      </trkpt>
      <trkpt lat="45.98436" lon="4.81677">
        <ele>240</ele>
        <time>2017-05-07T09:23:56Z</time>
      </trkpt>
      <trkpt lat="45.98429" lon="4.81672">
        <ele>240</ele>
        <time>2017-05-07T09:23:58Z</time>
      </trkpt>
      <trkpt lat="45.98424" lon="4.8167">
        <ele>240</ele>
        <time>2017-05-07T09:23:59Z</time>
      </trkpt>
      <trkpt lat="45.98416" lon="4.81668">
        <ele>241</ele>
        <time>2017-05-07T09:24:01Z</time>
      </trkpt>
      <trkpt lat="45.98411" lon="4.81667">
        <ele>242</ele>
        <time>2017-05-07T09:24:02Z</time>
      </trkpt>
      <trkpt lat="45.98406" lon="4.81667">
        <ele>242</ele>
        <time>2017-05-07T09:24:03Z</time>
      </trkpt>
      <trkpt lat="45.98401" lon="4.81668">
        <ele>242</ele>
        <time>2017-05-07T09:24:04Z</time>
      </trkpt>
      <trkpt lat="45.98393" lon="4.81669">
        <ele>243</ele>
        <time>2017-05-07T09:24:06Z</time>
      </trkpt>
      <trkpt lat="45.98389" lon="4.8167">
        <ele>243</ele>
        <time>2017-05-07T09:24:07Z</time>
      </trkpt>
      <trkpt lat="45.98381" lon="4.81672">
        <ele>244</ele>
        <time>2017-05-07T09:24:09Z</time>
      </trkpt>
      <trkpt lat="45.98377" lon="4.81672">
        <ele>244</ele>
        <time>2017-05-07T09:24:10Z</time>
      </trkpt>
      <trkpt lat="45.98369" lon="4.81674">
        <ele>244</ele>
        <time>2017-05-07T09:24:12Z</time>
      </trkpt>
      <trkpt lat="45.98365" lon="4.81675">
        <ele>244</ele>
        <time>2017-05-07T09:24:13Z</time>
      </trkpt>
      <trkpt lat="45.98358" lon="4.81675">
        <ele>245</ele>
        <time>2017-05-07T09:24:15Z</time>
      </trkpt>
      <trkpt lat="45.98354" lon="4.81676">
        <ele>245</ele>
        <time>2017-05-07T09:24:16Z</time>
      </trkpt>
      <trkpt lat="45.98346" lon="4.81676">
        <ele>245</ele>
        <time>2017-05-07T09:24:18Z</time>
      </trkpt>
      <trkpt lat="45.98342" lon="4.81675">
        <ele>245</ele>
        <time>2017-05-07T09:24:19Z</time>
      </trkpt>
      <trkpt lat="45.98335" lon="4.81671">
        <ele>246</ele>
        <time>2017-05-07T09:24:21Z</time>
      </trkpt>
      <trkpt lat="45.98331" lon="4.81669">
        <ele>246</ele>
        <time>2017-05-07T09:24:22Z</time>
      </trkpt>
      <trkpt lat="45.98324" lon="4.81665">
        <ele>246</ele>
        <time>2017-05-07T09:24:24Z</time>
      </trkpt>
      <trkpt lat="45.9832" lon="4.81663">
        <ele>246</ele>
        <time>2017-05-07T09:24:25Z</time>
      </trkpt>
      <trkpt lat="45.98313" lon="4.81657">
        <ele>246</ele>
        <time>2017-05-07T09:24:27Z</time>
      </trkpt>
      <trkpt lat="45.9831" lon="4.81654">
        <ele>246</ele>
        <time>2017-05-07T09:24:28Z</time>
      </trkpt>
      <trkpt lat="45.98303" lon="4.81647">
        <ele>246</ele>
        <time>2017-05-07T09:24:30Z</time>
      </trkpt>
      <trkpt lat="45.98299" lon="4.81643">
        <ele>247</ele>
        <time>2017-05-07T09:24:31Z</time>
      </trkpt>
      <trkpt lat="45.98292" lon="4.81636">
        <ele>247</ele>
        <time>2017-05-07T09:24:33Z</time>
      </trkpt>
      <trkpt lat="45.98289" lon="4.81632">
        <ele>247</ele>
        <time>2017-05-07T09:24:34Z</time>
      </trkpt>
      <trkpt lat="45.98284" lon="4.81623">
        <ele>247</ele>
        <time>2017-05-07T09:24:36Z</time>
      </trkpt>
      <trkpt lat="45.98282" lon="4.81619">
        <ele>247</ele>
        <time>2017-05-07T09:24:37Z</time>
      </trkpt>
      <trkpt lat="45.98277" lon="4.8161">
        <ele>247</ele>
        <time>2017-05-07T09:24:39Z</time>
      </trkpt>
      <trkpt lat="45.98274" lon="4.81605">
        <ele>247</ele>
        <time>2017-05-07T09:24:40Z</time>
      </trkpt>
      <trkpt lat="45.98271" lon="4.81595">
        <ele>247</ele>
        <time>2017-05-07T09:24:42Z</time>
      </trkpt>
      <trkpt lat="45.98269" lon="4.8159">
        <ele>247</ele>
        <time>2017-05-07T09:24:43Z</time>
      </trkpt>
      <trkpt lat="45.98265" lon="4.81579">
        <ele>247</ele>
        <time>2017-05-07T09:24:45Z</time>
      </trkpt>
      <trkpt lat="45.98264" lon="4.81573">
        <ele>247</ele>
        <time>2017-05-07T09:24:46Z</time>
      </trkpt>
      <trkpt lat="45.9826" lon="4.81561">
        <ele>247</ele>
        <time>2017-05-07T09:24:48Z</time>
      </trkpt>
      <trkpt lat="45.98258" lon="4.81556">
        <ele>247</ele>
        <time>2017-05-07T09:24:49Z</time>
      </trkpt>
      <trkpt lat="45.98255" lon="4.81545">
        <ele>247</ele>
        <time>2017-05-07T09:24:51Z</time>
      </trkpt>
      <trkpt lat="45.98253" lon="4.8154">
        <ele>247</ele>
        <time>2017-05-07T09:24:52Z</time>
      </trkpt>
      <trkpt lat="45.9825" lon="4.8153">
        <ele>249</ele>
        <time>2017-05-07T09:24:54Z</time>
      </trkpt>
      <trkpt lat="45.98248" lon="4.81524">
        <ele>249</ele>
        <time>2017-05-07T09:24:55Z</time>
      </trkpt>
      <trkpt lat="45.98244" lon="4.81514">
        <ele>249</ele>
        <time>2017-05-07T09:24:57Z</time>
      </trkpt>
      <trkpt lat="45.98243" lon="4.81509">
        <ele>249</ele>
        <time>2017-05-07T09:24:58Z</time>
      </trkpt>
      <trkpt lat="45.98239" lon="4.81498">
        <ele>249</ele>
        <time>2017-05-07T09:25:00Z</time>
      </trkpt>
      <trkpt lat="45.98237" lon="4.81493">
        <ele>249</ele>
        <time>2017-05-07T09:25:01Z</time>
      </trkpt>
      <trkpt lat="45.98233" lon="4.81482">
        <ele>249</ele>
        <time>2017-05-07T09:25:03Z</time>
      </trkpt>
      <trkpt lat="45.98232" lon="4.81476">
        <ele>249</ele>
        <time>2017-05-07T09:25:04Z</time>
      </trkpt>
      <trkpt lat="45.98228" lon="4.81465">
        <ele>249</ele>
        <time>2017-05-07T09:25:06Z</time>
      </trkpt>
      <trkpt lat="45.98226" lon="4.81459">
        <ele>249</ele>
        <time>2017-05-07T09:25:07Z</time>
      </trkpt>
      <trkpt lat="45.98224" lon="4.81453">
        <ele>249</ele>
        <time>2017-05-07T09:25:08Z</time>
      </trkpt>
      <trkpt lat="45.98222" lon="4.81447">
        <ele>249</ele>
        <time>2017-05-07T09:25:09Z</time>
      </trkpt>
      <trkpt lat="45.98221" lon="4.81441">
        <ele>249</ele>
        <time>2017-05-07T09:25:10Z</time>
      </trkpt>
      <trkpt lat="45.98219" lon="4.81435">
        <ele>249</ele>
        <time>2017-05-07T09:25:11Z</time>
      </trkpt>
      <trkpt lat="45.98217" lon="4.81429">
        <ele>249</ele>
        <time>2017-05-07T09:25:12Z</time>
      </trkpt>
      <trkpt lat="45.98214" lon="4.81423">
        <ele>249</ele>
        <time>2017-05-07T09:25:13Z</time>
      </trkpt>
      <trkpt lat="45.98212" lon="4.81416">
        <ele>248</ele>
        <time>2017-05-07T09:25:14Z</time>
      </trkpt>
      <trkpt lat="45.9821" lon="4.8141">
        <ele>248</ele>
        <time>2017-05-07T09:25:15Z</time>
      </trkpt>
      <trkpt lat="45.98208" lon="4.81403">
        <ele>248</ele>
        <time>2017-05-07T09:25:16Z</time>
      </trkpt>
      <trkpt lat="45.98207" lon="4.81396">
        <ele>248</ele>
        <time>2017-05-07T09:25:17Z</time>
      </trkpt>
      <trkpt lat="45.98205" lon="4.8139">
        <ele>248</ele>
        <time>2017-05-07T09:25:18Z</time>
      </trkpt>
      <trkpt lat="45.98203" lon="4.81383">
        <ele>248</ele>
        <time>2017-05-07T09:25:19Z</time>
      </trkpt>
      <trkpt lat="45.98201" lon="4.81376">
        <ele>248</ele>
        <time>2017-05-07T09:25:20Z</time>
      </trkpt>
      <trkpt lat="45.982" lon="4.81368">
        <ele>248</ele>
        <time>2017-05-07T09:25:21Z</time>
      </trkpt>
      <trkpt lat="45.98198" lon="4.81361">
        <ele>248</ele>
        <time>2017-05-07T09:25:22Z</time>
      </trkpt>
      <trkpt lat="45.98196" lon="4.81355">
        <ele>248</ele>
        <time>2017-05-07T09:25:23Z</time>
      </trkpt>
      <trkpt lat="45.98194" lon="4.81347">
        <ele>248</ele>
        <time>2017-05-07T09:25:24Z</time>
      </trkpt>
      <trkpt lat="45.98192" lon="4.8134">
        <ele>248</ele>
        <time>2017-05-07T09:25:25Z</time>
      </trkpt>
      <trkpt lat="45.98191" lon="4.81333">
        <ele>247</ele>
        <time>2017-05-07T09:25:26Z</time>
      </trkpt>
      <trkpt lat="45.98189" lon="4.81325">
        <ele>247</ele>
        <time>2017-05-07T09:25:27Z</time>
      </trkpt>
      <trkpt lat="45.98188" lon="4.81317">
        <ele>247</ele>
        <time>2017-05-07T09:25:28Z</time>
      </trkpt>
      <trkpt lat="45.98186" lon="4.81309">
        <ele>247</ele>
        <time>2017-05-07T09:25:29Z</time>
      </trkpt>
      <trkpt lat="45.98185" lon="4.81302">
        <ele>247</ele>
        <time>2017-05-07T09:25:30Z</time>
      </trkpt>
      <trkpt lat="45.98183" lon="4.81294">
        <ele>247</ele>
        <time>2017-05-07T09:25:31Z</time>
      </trkpt>
      <trkpt lat="45.98182" lon="4.81287">
        <ele>247</ele>
        <time>2017-05-07T09:25:32Z</time>
      </trkpt>
      <trkpt lat="45.9818" lon="4.8128">
        <ele>247</ele>
        <time>2017-05-07T09:25:33Z</time>
      </trkpt>
      <trkpt lat="45.98179" lon="4.81272">
        <ele>247</ele>
        <time>2017-05-07T09:25:34Z</time>
      </trkpt>
      <trkpt lat="45.98179" lon="4.81265">
        <ele>247</ele>
        <time>2017-05-07T09:25:35Z</time>
      </trkpt>
      <trkpt lat="45.98177" lon="4.81257">
        <ele>247</ele>
        <time>2017-05-07T09:25:36Z</time>
      </trkpt>
      <trkpt lat="45.98176" lon="4.8125">
        <ele>247</ele>
        <time>2017-05-07T09:25:37Z</time>
      </trkpt>
      <trkpt lat="45.98175" lon="4.81242">
        <ele>247</ele>
        <time>2017-05-07T09:25:38Z</time>
      </trkpt>
      <trkpt lat="45.98174" lon="4.81234">
        <ele>246</ele>
        <time>2017-05-07T09:25:39Z</time>
      </trkpt>
      <trkpt lat="45.98174" lon="4.81226">
        <ele>246</ele>
        <time>2017-05-07T09:25:40Z</time>
      </trkpt>
      <trkpt lat="45.98173" lon="4.81219">
        <ele>246</ele>
        <time>2017-05-07T09:25:41Z</time>
      </trkpt>
      <trkpt lat="45.98173" lon="4.81211">
        <ele>246</ele>
        <time>2017-05-07T09:25:42Z</time>
      </trkpt>
      <trkpt lat="45.98173" lon="4.81204">
        <ele>245</ele>
        <time>2017-05-07T09:25:43Z</time>
      </trkpt>
      <trkpt lat="45.98173" lon="4.81196">
        <ele>245</ele>
        <time>2017-05-07T09:25:44Z</time>
      </trkpt>
      <trkpt lat="45.98172" lon="4.81189">
        <ele>245</ele>
        <time>2017-05-07T09:25:45Z</time>
      </trkpt>
      <trkpt lat="45.9817" lon="4.81182">
        <ele>245</ele>
        <time>2017-05-07T09:25:46Z</time>
      </trkpt>
      <trkpt lat="45.98168" lon="4.81175">
        <ele>245</ele>
        <time>2017-05-07T09:25:47Z</time>
      </trkpt>
      <trkpt lat="45.98166" lon="4.81167">
        <ele>245</ele>
        <time>2017-05-07T09:25:48Z</time>
      </trkpt>
      <trkpt lat="45.98163" lon="4.8116">
        <ele>245</ele>
        <time>2017-05-07T09:25:49Z</time>
      </trkpt>
      <trkpt lat="45.98159" lon="4.81153">
        <ele>245</ele>
        <time>2017-05-07T09:25:50Z</time>
      </trkpt>
      <trkpt lat="45.98156" lon="4.81145">
        <ele>245</ele>
        <time>2017-05-07T09:25:51Z</time>
      </trkpt>
      <trkpt lat="45.98153" lon="4.81137">
        <ele>245</ele>
        <time>2017-05-07T09:25:52Z</time>
      </trkpt>
      <trkpt lat="45.9815" lon="4.8113">
        <ele>245</ele>
        <time>2017-05-07T09:25:53Z</time>
      </trkpt>
      <trkpt lat="45.98147" lon="4.81123">
        <ele>245</ele>
        <time>2017-05-07T09:25:54Z</time>
      </trkpt>
      <trkpt lat="45.98144" lon="4.81116">
        <ele>245</ele>
        <time>2017-05-07T09:25:55Z</time>
      </trkpt>
      <trkpt lat="45.98141" lon="4.81109">
        <ele>245</ele>
        <time>2017-05-07T09:25:56Z</time>
      </trkpt>
      <trkpt lat="45.98138" lon="4.81101">
        <ele>245</ele>
        <time>2017-05-07T09:25:57Z</time>
      </trkpt>
      <trkpt lat="45.98136" lon="4.81094">
        <ele>245</ele>
        <time>2017-05-07T09:25:58Z</time>
      </trkpt>
      <trkpt lat="45.98133" lon="4.81086">
        <ele>245</ele>
        <time>2017-05-07T09:25:59Z</time>
      </trkpt>
      <trkpt lat="45.98131" lon="4.81079">
        <ele>243</ele>
        <time>2017-05-07T09:26:00Z</time>
      </trkpt>
      <trkpt lat="45.98128" lon="4.81072">
        <ele>243</ele>
        <time>2017-05-07T09:26:01Z</time>
      </trkpt>
      <trkpt lat="45.98125" lon="4.81065">
        <ele>243</ele>
        <time>2017-05-07T09:26:02Z</time>
      </trkpt>
      <trkpt lat="45.98122" lon="4.81058">
        <ele>243</ele>
        <time>2017-05-07T09:26:03Z</time>
      </trkpt>
      <trkpt lat="45.9812" lon="4.81051">
        <ele>243</ele>
        <time>2017-05-07T09:26:04Z</time>
      </trkpt>
      <trkpt lat="45.98118" lon="4.81043">
        <ele>242</ele>
        <time>2017-05-07T09:26:05Z</time>
      </trkpt>
      <trkpt lat="45.98115" lon="4.81036">
        <ele>242</ele>
        <time>2017-05-07T09:26:06Z</time>
      </trkpt>
      <trkpt lat="45.98112" lon="4.81028">
        <ele>242</ele>
        <time>2017-05-07T09:26:07Z</time>
      </trkpt>
      <trkpt lat="45.98109" lon="4.81022">
        <ele>242</ele>
        <time>2017-05-07T09:26:08Z</time>
      </trkpt>
      <trkpt lat="45.98107" lon="4.81015">
        <ele>242</ele>
        <time>2017-05-07T09:26:09Z</time>
      </trkpt>
      <trkpt lat="45.98105" lon="4.81008">
        <ele>242</ele>
        <time>2017-05-07T09:26:10Z</time>
      </trkpt>
      <trkpt lat="45.98102" lon="4.81001">
        <ele>242</ele>
        <time>2017-05-07T09:26:11Z</time>
      </trkpt>
      <trkpt lat="45.981" lon="4.80995">
        <ele>240</ele>
        <time>2017-05-07T09:26:12Z</time>
      </trkpt>
      <trkpt lat="45.98098" lon="4.80989">
        <ele>240</ele>
        <time>2017-05-07T09:26:13Z</time>
      </trkpt>
      <trkpt lat="45.98096" lon="4.80983">
        <ele>240</ele>
        <time>2017-05-07T09:26:14Z</time>
      </trkpt>
      <trkpt lat="45.98094" lon="4.80976">
        <ele>239</ele>
        <time>2017-05-07T09:26:15Z</time>
      </trkpt>
      <trkpt lat="45.98093" lon="4.80969">
        <ele>239</ele>
        <time>2017-05-07T09:26:16Z</time>
      </trkpt>
      <trkpt lat="45.9809" lon="4.8096">
        <ele>239</ele>
        <time>2017-05-07T09:26:17Z</time>
      </trkpt>
      <trkpt lat="45.98088" lon="4.80951">
        <ele>238</ele>
        <time>2017-05-07T09:26:18Z</time>
      </trkpt>
      <trkpt lat="45.98085" lon="4.80942">
        <ele>238</ele>
        <time>2017-05-07T09:26:19Z</time>
      </trkpt>
      <trkpt lat="45.98082" lon="4.80931">
        <ele>240</ele>
        <time>2017-05-07T09:26:20Z</time>
      </trkpt>
      <trkpt lat="45.98079" lon="4.80921">
        <ele>239</ele>
        <time>2017-05-07T09:26:21Z</time>
      </trkpt>
      <trkpt lat="45.98076" lon="4.8091">
        <ele>238</ele>
        <time>2017-05-07T09:26:22Z</time>
      </trkpt>
      <trkpt lat="45.98074" lon="4.80899">
        <ele>238</ele>
        <time>2017-05-07T09:26:23Z</time>
      </trkpt>
      <trkpt lat="45.98071" lon="4.80888">
        <ele>238</ele>
        <time>2017-05-07T09:26:24Z</time>
      </trkpt>
      <trkpt lat="45.98069" lon="4.80877">
        <ele>237</ele>
        <time>2017-05-07T09:26:25Z</time>
      </trkpt>
      <trkpt lat="45.98067" lon="4.80865">
        <ele>237</ele>
        <time>2017-05-07T09:26:26Z</time>
      </trkpt>
      <trkpt lat="45.98064" lon="4.80854">
        <ele>236</ele>
        <time>2017-05-07T09:26:27Z</time>
      </trkpt>
      <trkpt lat="45.98061" lon="4.80843">
        <ele>236</ele>
        <time>2017-05-07T09:26:28Z</time>
      </trkpt>
      <trkpt lat="45.98058" lon="4.80831">
        <ele>234</ele>
        <time>2017-05-07T09:26:29Z</time>
      </trkpt>
      <trkpt lat="45.98055" lon="4.8082">
        <ele>234</ele>
        <time>2017-05-07T09:26:30Z</time>
      </trkpt>
      <trkpt lat="45.98052" lon="4.80809">
        <ele>234</ele>
        <time>2017-05-07T09:26:31Z</time>
      </trkpt>
      <trkpt lat="45.98049" lon="4.80798">
        <ele>234</ele>
        <time>2017-05-07T09:26:32Z</time>
      </trkpt>
      <trkpt lat="45.98047" lon="4.80787">
        <ele>233</ele>
        <time>2017-05-07T09:26:33Z</time>
      </trkpt>
      <trkpt lat="45.98045" lon="4.80776">
        <ele>233</ele>
        <time>2017-05-07T09:26:34Z</time>
      </trkpt>
      <trkpt lat="45.98043" lon="4.80766">
        <ele>233</ele>
        <time>2017-05-07T09:26:35Z</time>
      </trkpt>
      <trkpt lat="45.9804" lon="4.80756">
        <ele>233</ele>
        <time>2017-05-07T09:26:36Z</time>
      </trkpt>
      <trkpt lat="45.98037" lon="4.80747">
        <ele>231</ele>
        <time>2017-05-07T09:26:37Z</time>
      </trkpt>
      <trkpt lat="45.98036" lon="4.80739">
        <ele>231</ele>
        <time>2017-05-07T09:26:38Z</time>
      </trkpt>
      <trkpt lat="45.98034" lon="4.80732">
        <ele>231</ele>
        <time>2017-05-07T09:26:39Z</time>
      </trkpt>
      <trkpt lat="45.98032" lon="4.80725">
        <ele>231</ele>
        <time>2017-05-07T09:26:40Z</time>
      </trkpt>
      <trkpt lat="45.98031" lon="4.80719">
        <ele>231</ele>
        <time>2017-05-07T09:26:41Z</time>
      </trkpt>
      <trkpt lat="45.98031" lon="4.80708">
        <ele>231</ele>
        <time>2017-05-07T09:26:43Z</time>
      </trkpt>
      <trkpt lat="45.98034" lon="4.80703">
        <ele>230</ele>
        <time>2017-05-07T09:26:44Z</time>
      </trkpt>
      <trkpt lat="45.98037" lon="4.80698">
        <ele>230</ele>
        <time>2017-05-07T09:26:45Z</time>
      </trkpt>
      <trkpt lat="45.98043" lon="4.80697">
        <ele>230</ele>
        <time>2017-05-07T09:26:46Z</time>
      </trkpt>
      <trkpt lat="45.98048" lon="4.80698">
        <ele>230</ele>
        <time>2017-05-07T09:26:47Z</time>
      </trkpt>
      <trkpt lat="45.98054" lon="4.80698">
        <ele>230</ele>
        <time>2017-05-07T09:26:48Z</time>
      </trkpt>
      <trkpt lat="45.98059" lon="4.80698">
        <ele>230</ele>
        <time>2017-05-07T09:26:49Z</time>
      </trkpt>
      <trkpt lat="45.98065" lon="4.80697">
        <ele>230</ele>
        <time>2017-05-07T09:26:50Z</time>
      </trkpt>
      <trkpt lat="45.98072" lon="4.80697">
        <ele>230</ele>
        <time>2017-05-07T09:26:51Z</time>
      </trkpt>
      <trkpt lat="45.98078" lon="4.80696">
        <ele>230</ele>
        <time>2017-05-07T09:26:52Z</time>
      </trkpt>
      <trkpt lat="45.98085" lon="4.80696">
        <ele>228</ele>
        <time>2017-05-07T09:26:53Z</time>
      </trkpt>
      <trkpt lat="45.98092" lon="4.80696">
        <ele>228</ele>
        <time>2017-05-07T09:26:54Z</time>
      </trkpt>
      <trkpt lat="45.98099" lon="4.80696">
        <ele>228</ele>
        <time>2017-05-07T09:26:55Z</time>
      </trkpt>
      <trkpt lat="45.98105" lon="4.80696">
        <ele>228</ele>
        <time>2017-05-07T09:26:56Z</time>
      </trkpt>
      <trkpt lat="45.98112" lon="4.80696">
        <ele>228</ele>
        <time>2017-05-07T09:26:57Z</time>
      </trkpt>
      <trkpt lat="45.9812" lon="4.80696">
        <ele>228</ele>
        <time>2017-05-07T09:26:58Z</time>
      </trkpt>
      <trkpt lat="45.98127" lon="4.80695">
        <ele>228</ele>
        <time>2017-05-07T09:26:59Z</time>
      </trkpt>
      <trkpt lat="45.98135" lon="4.80695">
        <ele>228</ele>
        <time>2017-05-07T09:27:00Z</time>
      </trkpt>
      <trkpt lat="45.98143" lon="4.80695">
        <ele>228</ele>
        <time>2017-05-07T09:27:01Z</time>
      </trkpt>
      <trkpt lat="45.9815" lon="4.80694">
        <ele>228</ele>
        <time>2017-05-07T09:27:02Z</time>
      </trkpt>
      <trkpt lat="45.98158" lon="4.80694">
        <ele>227</ele>
        <time>2017-05-07T09:27:03Z</time>
      </trkpt>
      <trkpt lat="45.98165" lon="4.80693">
        <ele>227</ele>
        <time>2017-05-07T09:27:04Z</time>
      </trkpt>
      <trkpt lat="45.98173" lon="4.80691">
        <ele>225</ele>
        <time>2017-05-07T09:27:05Z</time>
      </trkpt>
      <trkpt lat="45.9818" lon="4.8069">
        <ele>225</ele>
        <time>2017-05-07T09:27:06Z</time>
      </trkpt>
      <trkpt lat="45.98187" lon="4.80688">
        <ele>225</ele>
        <time>2017-05-07T09:27:07Z</time>
      </trkpt>
      <trkpt lat="45.98194" lon="4.80685">
        <ele>225</ele>
        <time>2017-05-07T09:27:08Z</time>
      </trkpt>
      <trkpt lat="45.98201" lon="4.80683">
        <ele>225</ele>
        <time>2017-05-07T09:27:09Z</time>
      </trkpt>
      <trkpt lat="45.98208" lon="4.80679">
        <ele>224</ele>
        <time>2017-05-07T09:27:10Z</time>
      </trkpt>
      <trkpt lat="45.98214" lon="4.80674">
        <ele>224</ele>
        <time>2017-05-07T09:27:11Z</time>
      </trkpt>
      <trkpt lat="45.98221" lon="4.80668">
        <ele>224</ele>
        <time>2017-05-07T09:27:12Z</time>
      </trkpt>
      <trkpt lat="45.98226" lon="4.8066">
        <ele>223</ele>
        <time>2017-05-07T09:27:13Z</time>
      </trkpt>
      <trkpt lat="45.9823" lon="4.80651">
        <ele>223</ele>
        <time>2017-05-07T09:27:14Z</time>
      </trkpt>
      <trkpt lat="45.98233" lon="4.80641">
        <ele>224</ele>
        <time>2017-05-07T09:27:15Z</time>
      </trkpt>
      <trkpt lat="45.98236" lon="4.80631">
        <ele>224</ele>
        <time>2017-05-07T09:27:16Z</time>
      </trkpt>
      <trkpt lat="45.98238" lon="4.8062">
        <ele>224</ele>
        <time>2017-05-07T09:27:17Z</time>
      </trkpt>
      <trkpt lat="45.98241" lon="4.8061">
        <ele>224</ele>
        <time>2017-05-07T09:27:18Z</time>
      </trkpt>
      <trkpt lat="45.98244" lon="4.80601">
        <ele>224</ele>
        <time>2017-05-07T09:27:19Z</time>
      </trkpt>
      <trkpt lat="45.98248" lon="4.80591">
        <ele>224</ele>
        <time>2017-05-07T09:27:20Z</time>
      </trkpt>
      <trkpt lat="45.9825" lon="4.80581">
        <ele>224</ele>
        <time>2017-05-07T09:27:21Z</time>
      </trkpt>
      <trkpt lat="45.98253" lon="4.80571">
        <ele>224</ele>
        <time>2017-05-07T09:27:22Z</time>
      </trkpt>
      <trkpt lat="45.98256" lon="4.80561">
        <ele>224</ele>
        <time>2017-05-07T09:27:23Z</time>
      </trkpt>
      <trkpt lat="45.98258" lon="4.80552">
        <ele>224</ele>
        <time>2017-05-07T09:27:24Z</time>
      </trkpt>
      <trkpt lat="45.98261" lon="4.80544">
        <ele>224</ele>
        <time>2017-05-07T09:27:25Z</time>
      </trkpt>
      <trkpt lat="45.98264" lon="4.80535">
        <ele>224</ele>
        <time>2017-05-07T09:27:26Z</time>
      </trkpt>
      <trkpt lat="45.98266" lon="4.80527">
        <ele>224</ele>
        <time>2017-05-07T09:27:27Z</time>
      </trkpt>
      <trkpt lat="45.98268" lon="4.80519">
        <ele>223</ele>
        <time>2017-05-07T09:27:28Z</time>
      </trkpt>
      <trkpt lat="45.9827" lon="4.80512">
        <ele>223</ele>
        <time>2017-05-07T09:27:29Z</time>
      </trkpt>
      <trkpt lat="45.98272" lon="4.80504">
        <ele>223</ele>
        <time>2017-05-07T09:27:30Z</time>
      </trkpt>
      <trkpt lat="45.98274" lon="4.80496">
        <ele>223</ele>
        <time>2017-05-07T09:27:31Z</time>
      </trkpt>
      <trkpt lat="45.98275" lon="4.80488">
        <ele>223</ele>
        <time>2017-05-07T09:27:32Z</time>
      </trkpt>
      <trkpt lat="45.98276" lon="4.8048">
        <ele>223</ele>
        <time>2017-05-07T09:27:33Z</time>
      </trkpt>
      <trkpt lat="45.98279" lon="4.80473">
        <ele>223</ele>
        <time>2017-05-07T09:27:34Z</time>
      </trkpt>
      <trkpt lat="45.98281" lon="4.80467">
        <ele>223</ele>
        <time>2017-05-07T09:27:35Z</time>
      </trkpt>
      <trkpt lat="45.98283" lon="4.80461">
        <ele>223</ele>
        <time>2017-05-07T09:27:36Z</time>
      </trkpt>
      <trkpt lat="45.98285" lon="4.80454">
        <ele>224</ele>
        <time>2017-05-07T09:27:37Z</time>
      </trkpt>
      <trkpt lat="45.98287" lon="4.80447">
        <ele>224</ele>
        <time>2017-05-07T09:27:38Z</time>
      </trkpt>
      <trkpt lat="45.9829" lon="4.80441">
        <ele>224</ele>
        <time>2017-05-07T09:27:39Z</time>
      </trkpt>
      <trkpt lat="45.98291" lon="4.80433">
        <ele>224</ele>
        <time>2017-05-07T09:27:40Z</time>
      </trkpt>
      <trkpt lat="45.98293" lon="4.80426">
        <ele>224</ele>
        <time>2017-05-07T09:27:41Z</time>
      </trkpt>
      <trkpt lat="45.98295" lon="4.80419">
        <ele>224</ele>
        <time>2017-05-07T09:27:42Z</time>
      </trkpt>
      <trkpt lat="45.98296" lon="4.8041">
        <ele>224</ele>
        <time>2017-05-07T09:27:43Z</time>
      </trkpt>
      <trkpt lat="45.98297" lon="4.80403">
        <ele>225</ele>
        <time>2017-05-07T09:27:44Z</time>
      </trkpt>
      <trkpt lat="45.98298" lon="4.80395">
        <ele>225</ele>
        <time>2017-05-07T09:27:45Z</time>
      </trkpt>
      <trkpt lat="45.98299" lon="4.80388">
        <ele>225</ele>
        <time>2017-05-07T09:27:46Z</time>
      </trkpt>
      <trkpt lat="45.98301" lon="4.8038">
        <ele>225</ele>
        <time>2017-05-07T09:27:47Z</time>
      </trkpt>
      <trkpt lat="45.98302" lon="4.80373">
        <ele>225</ele>
        <time>2017-05-07T09:27:48Z</time>
      </trkpt>
      <trkpt lat="45.98304" lon="4.80366">
        <ele>225</ele>
        <time>2017-05-07T09:27:49Z</time>
      </trkpt>
      <trkpt lat="45.98306" lon="4.80358">
        <ele>225</ele>
        <time>2017-05-07T09:27:50Z</time>
      </trkpt>
      <trkpt lat="45.98308" lon="4.80351">
        <ele>226</ele>
        <time>2017-05-07T09:27:51Z</time>
      </trkpt>
      <trkpt lat="45.98309" lon="4.80344">
        <ele>226</ele>
        <time>2017-05-07T09:27:52Z</time>
      </trkpt>
      <trkpt lat="45.9831" lon="4.80336">
        <ele>226</ele>
        <time>2017-05-07T09:27:53Z</time>
      </trkpt>
      <trkpt lat="45.98312" lon="4.8033">
        <ele>227</ele>
        <time>2017-05-07T09:27:54Z</time>
      </trkpt>
      <trkpt lat="45.98313" lon="4.80323">
        <ele>227</ele>
        <time>2017-05-07T09:27:55Z</time>
      </trkpt>
      <trkpt lat="45.98315" lon="4.80317">
        <ele>227</ele>
        <time>2017-05-07T09:27:56Z</time>
      </trkpt>
      <trkpt lat="45.98318" lon="4.80305">
        <ele>227</ele>
        <time>2017-05-07T09:27:58Z</time>
      </trkpt>
      <trkpt lat="45.9832" lon="4.80299">
        <ele>227</ele>
        <time>2017-05-07T09:27:59Z</time>
      </trkpt>
      <trkpt lat="45.98323" lon="4.80288">
        <ele>227</ele>
        <time>2017-05-07T09:28:01Z</time>
      </trkpt>
      <trkpt lat="45.98325" lon="4.80283">
        <ele>227</ele>
        <time>2017-05-07T09:28:02Z</time>
      </trkpt>
      <trkpt lat="45.98326" lon="4.80272">
        <ele>227</ele>
        <time>2017-05-07T09:28:04Z</time>
      </trkpt>
      <trkpt lat="45.98326" lon="4.80267">
        <ele>228</ele>
        <time>2017-05-07T09:28:05Z</time>
      </trkpt>
      <trkpt lat="45.98328" lon="4.80257">
        <ele>229</ele>
        <time>2017-05-07T09:28:07Z</time>
      </trkpt>
      <trkpt lat="45.98329" lon="4.80252">
        <ele>229</ele>
        <time>2017-05-07T09:28:08Z</time>
      </trkpt>
      <trkpt lat="45.9833" lon="4.80241">
        <ele>229</ele>
        <time>2017-05-07T09:28:10Z</time>
      </trkpt>
      <trkpt lat="45.9833" lon="4.80234">
        <ele>228</ele>
        <time>2017-05-07T09:28:11Z</time>
      </trkpt>
      <trkpt lat="45.98329" lon="4.80221">
        <ele>227</ele>
        <time>2017-05-07T09:28:13Z</time>
      </trkpt>
      <trkpt lat="45.98328" lon="4.80215">
        <ele>227</ele>
        <time>2017-05-07T09:28:14Z</time>
      </trkpt>
      <trkpt lat="45.98326" lon="4.80208">
        <ele>227</ele>
        <time>2017-05-07T09:28:15Z</time>
      </trkpt>
      <trkpt lat="45.98323" lon="4.80202">
        <ele>227</ele>
        <time>2017-05-07T09:28:16Z</time>
      </trkpt>
      <trkpt lat="45.9832" lon="4.8019">
        <ele>227</ele>
        <time>2017-05-07T09:28:18Z</time>
      </trkpt>
      <trkpt lat="45.98318" lon="4.80183">
        <ele>227</ele>
        <time>2017-05-07T09:28:19Z</time>
      </trkpt>
      <trkpt lat="45.98316" lon="4.80177">
        <ele>227</ele>
        <time>2017-05-07T09:28:20Z</time>
      </trkpt>
      <trkpt lat="45.98314" lon="4.80171">
        <ele>227</ele>
        <time>2017-05-07T09:28:21Z</time>
      </trkpt>
      <trkpt lat="45.9831" lon="4.80159">
        <ele>228</ele>
        <time>2017-05-07T09:28:23Z</time>
      </trkpt>
      <trkpt lat="45.98308" lon="4.80154">
        <ele>228</ele>
        <time>2017-05-07T09:28:24Z</time>
      </trkpt>
      <trkpt lat="45.98303" lon="4.80143">
        <ele>228</ele>
        <time>2017-05-07T09:28:26Z</time>
      </trkpt>
      <trkpt lat="45.98301" lon="4.80138">
        <ele>228</ele>
        <time>2017-05-07T09:28:27Z</time>
      </trkpt>
      <trkpt lat="45.98297" lon="4.80128">
        <ele>228</ele>
        <time>2017-05-07T09:28:29Z</time>
      </trkpt>
      <trkpt lat="45.98295" lon="4.80122">
        <ele>228</ele>
        <time>2017-05-07T09:28:30Z</time>
      </trkpt>
      <trkpt lat="45.98293" lon="4.80116">
        <ele>228</ele>
        <time>2017-05-07T09:28:31Z</time>
      </trkpt>
      <trkpt lat="45.98291" lon="4.8011">
        <ele>228</ele>
        <time>2017-05-07T09:28:32Z</time>
      </trkpt>
      <trkpt lat="45.98289" lon="4.80104">
        <ele>228</ele>
        <time>2017-05-07T09:28:33Z</time>
      </trkpt>
      <trkpt lat="45.98287" lon="4.80098">
        <ele>228</ele>
        <time>2017-05-07T09:28:34Z</time>
      </trkpt>
      <trkpt lat="45.98285" lon="4.80092">
        <ele>228</ele>
        <time>2017-05-07T09:28:35Z</time>
      </trkpt>
      <trkpt lat="45.98283" lon="4.80086">
        <ele>228</ele>
        <time>2017-05-07T09:28:36Z</time>
      </trkpt>
      <trkpt lat="45.98279" lon="4.80075">
        <ele>229</ele>
        <time>2017-05-07T09:28:38Z</time>
      </trkpt>
      <trkpt lat="45.98277" lon="4.80069">
        <ele>229</ele>
        <time>2017-05-07T09:28:39Z</time>
      </trkpt>
      <trkpt lat="45.98275" lon="4.80063">
        <ele>229</ele>
        <time>2017-05-07T09:28:40Z</time>
      </trkpt>
      <trkpt lat="45.98273" lon="4.80056">
        <ele>229</ele>
        <time>2017-05-07T09:28:41Z</time>
      </trkpt>
      <trkpt lat="45.98269" lon="4.80049">
        <ele>229</ele>
        <time>2017-05-07T09:28:42Z</time>
      </trkpt>
      <trkpt lat="45.98267" lon="4.80042">
        <ele>229</ele>
        <time>2017-05-07T09:28:43Z</time>
      </trkpt>
      <trkpt lat="45.98264" lon="4.80035">
        <ele>228</ele>
        <time>2017-05-07T09:28:44Z</time>
      </trkpt>
      <trkpt lat="45.98261" lon="4.80027">
        <ele>228</ele>
        <time>2017-05-07T09:28:45Z</time>
      </trkpt>
      <trkpt lat="45.98258" lon="4.8002">
        <ele>228</ele>
        <time>2017-05-07T09:28:46Z</time>
      </trkpt>
      <trkpt lat="45.98255" lon="4.80012">
        <ele>227</ele>
        <time>2017-05-07T09:28:47Z</time>
      </trkpt>
      <trkpt lat="45.98253" lon="4.80004">
        <ele>227</ele>
        <time>2017-05-07T09:28:48Z</time>
      </trkpt>
      <trkpt lat="45.98251" lon="4.79997">
        <ele>226</ele>
        <time>2017-05-07T09:28:49Z</time>
      </trkpt>
      <trkpt lat="45.98248" lon="4.7999">
        <ele>226</ele>
        <time>2017-05-07T09:28:50Z</time>
      </trkpt>
      <trkpt lat="45.98246" lon="4.79983">
        <ele>225</ele>
        <time>2017-05-07T09:28:51Z</time>
      </trkpt>
      <trkpt lat="45.98243" lon="4.79976">
        <ele>225</ele>
        <time>2017-05-07T09:28:52Z</time>
      </trkpt>
      <trkpt lat="45.98241" lon="4.7997">
        <ele>225</ele>
        <time>2017-05-07T09:28:53Z</time>
      </trkpt>
      <trkpt lat="45.98238" lon="4.79964">
        <ele>225</ele>
        <time>2017-05-07T09:28:54Z</time>
      </trkpt>
      <trkpt lat="45.98236" lon="4.79958">
        <ele>225</ele>
        <time>2017-05-07T09:28:55Z</time>
      </trkpt>
      <trkpt lat="45.98234" lon="4.79952">
        <ele>225</ele>
        <time>2017-05-07T09:28:56Z</time>
      </trkpt>
      <trkpt lat="45.98232" lon="4.79946">
        <ele>225</ele>
        <time>2017-05-07T09:28:57Z</time>
      </trkpt>
      <trkpt lat="45.98231" lon="4.7994">
        <ele>225</ele>
        <time>2017-05-07T09:28:58Z</time>
      </trkpt>
      <trkpt lat="45.98229" lon="4.79933">
        <ele>225</ele>
        <time>2017-05-07T09:28:59Z</time>
      </trkpt>
      <trkpt lat="45.98227" lon="4.79927">
        <ele>225</ele>
        <time>2017-05-07T09:29:00Z</time>
      </trkpt>
      <trkpt lat="45.98225" lon="4.7992">
        <ele>225</ele>
        <time>2017-05-07T09:29:01Z</time>
      </trkpt>
      <trkpt lat="45.98222" lon="4.79913">
        <ele>225</ele>
        <time>2017-05-07T09:29:02Z</time>
      </trkpt>
      <trkpt lat="45.9822" lon="4.79906">
        <ele>225</ele>
        <time>2017-05-07T09:29:03Z</time>
      </trkpt>
      <trkpt lat="45.98218" lon="4.799">
        <ele>225</ele>
        <time>2017-05-07T09:29:04Z</time>
      </trkpt>
      <trkpt lat="45.98216" lon="4.79894">
        <ele>225</ele>
        <time>2017-05-07T09:29:05Z</time>
      </trkpt>
      <trkpt lat="45.98213" lon="4.79883">
        <ele>225</ele>
        <time>2017-05-07T09:29:07Z</time>
      </trkpt>
      <trkpt lat="45.98211" lon="4.79876">
        <ele>225</ele>
        <time>2017-05-07T09:29:08Z</time>
      </trkpt>
      <trkpt lat="45.98208" lon="4.79868">
        <ele>225</ele>
        <time>2017-05-07T09:29:09Z</time>
      </trkpt>
      <trkpt lat="45.98206" lon="4.79861">
        <ele>225</ele>
        <time>2017-05-07T09:29:10Z</time>
      </trkpt>
      <trkpt lat="45.98204" lon="4.79854">
        <ele>225</ele>
        <time>2017-05-07T09:29:11Z</time>
      </trkpt>
      <trkpt lat="45.98202" lon="4.79847">
        <ele>225</ele>
        <time>2017-05-07T09:29:12Z</time>
      </trkpt>
      <trkpt lat="45.98199" lon="4.79839">
        <ele>225</ele>
        <time>2017-05-07T09:29:13Z</time>
      </trkpt>
      <trkpt lat="45.98197" lon="4.79832">
        <ele>225</ele>
        <time>2017-05-07T09:29:14Z</time>
      </trkpt>
      <trkpt lat="45.98194" lon="4.79825">
        <ele>225</ele>
        <time>2017-05-07T09:29:15Z</time>
      </trkpt>
      <trkpt lat="45.98192" lon="4.79819">
        <ele>225</ele>
        <time>2017-05-07T09:29:16Z</time>
      </trkpt>
      <trkpt lat="45.9819" lon="4.79813">
        <ele>225</ele>
        <time>2017-05-07T09:29:17Z</time>
      </trkpt>
      <trkpt lat="45.98188" lon="4.79807">
        <ele>226</ele>
        <time>2017-05-07T09:29:18Z</time>
      </trkpt>
      <trkpt lat="45.98185" lon="4.79794">
        <ele>226</ele>
        <time>2017-05-07T09:29:20Z</time>
      </trkpt>
      <trkpt lat="45.98185" lon="4.79789">
        <ele>226</ele>
        <time>2017-05-07T09:29:21Z</time>
      </trkpt>
      <trkpt lat="45.98185" lon="4.79778">
        <ele>226</ele>
        <time>2017-05-07T09:29:24Z</time>
      </trkpt>
      <trkpt lat="45.98185" lon="4.79775">
        <ele>226</ele>
        <time>2017-05-07T09:29:25Z</time>
      </trkpt>
      <trkpt lat="45.98186" lon="4.79764">
        <ele>226</ele>
        <time>2017-05-07T09:29:28Z</time>
      </trkpt>
      <trkpt lat="45.98187" lon="4.79759">
        <ele>226</ele>
        <time>2017-05-07T09:29:29Z</time>
      </trkpt>
      <trkpt lat="45.98186" lon="4.79749">
        <ele>227</ele>
        <time>2017-05-07T09:29:31Z</time>
      </trkpt>
      <trkpt lat="45.98184" lon="4.79744">
        <ele>227</ele>
        <time>2017-05-07T09:29:32Z</time>
      </trkpt>
      <trkpt lat="45.98177" lon="4.79739">
        <ele>227</ele>
        <time>2017-05-07T09:29:34Z</time>
      </trkpt>
      <trkpt lat="45.98172" lon="4.79739">
        <ele>227</ele>
        <time>2017-05-07T09:29:35Z</time>
      </trkpt>
      <trkpt lat="45.98167" lon="4.79741">
        <ele>227</ele>
        <time>2017-05-07T09:29:36Z</time>
      </trkpt>
      <trkpt lat="45.98163" lon="4.79744">
        <ele>226</ele>
        <time>2017-05-07T09:29:37Z</time>
      </trkpt>
      <trkpt lat="45.98159" lon="4.79748">
        <ele>226</ele>
        <time>2017-05-07T09:29:38Z</time>
      </trkpt>
      <trkpt lat="45.98154" lon="4.79752">
        <ele>225</ele>
        <time>2017-05-07T09:29:39Z</time>
      </trkpt>
      <trkpt lat="45.98149" lon="4.79755">
        <ele>225</ele>
        <time>2017-05-07T09:29:40Z</time>
      </trkpt>
      <trkpt lat="45.98144" lon="4.79757">
        <ele>225</ele>
        <time>2017-05-07T09:29:41Z</time>
      </trkpt>
      <trkpt lat="45.98138" lon="4.79759">
        <ele>224</ele>
        <time>2017-05-07T09:29:42Z</time>
      </trkpt>
      <trkpt lat="45.98132" lon="4.7976">
        <ele>224</ele>
        <time>2017-05-07T09:29:43Z</time>
      </trkpt>
      <trkpt lat="45.98125" lon="4.79761">
        <ele>224</ele>
        <time>2017-05-07T09:29:44Z</time>
      </trkpt>
      <trkpt lat="45.98119" lon="4.79762">
        <ele>224</ele>
        <time>2017-05-07T09:29:45Z</time>
      </trkpt>
      <trkpt lat="45.98112" lon="4.79763">
        <ele>224</ele>
        <time>2017-05-07T09:29:46Z</time>
      </trkpt>
      <trkpt lat="45.98105" lon="4.79764">
        <ele>224</ele>
        <time>2017-05-07T09:29:47Z</time>
      </trkpt>
      <trkpt lat="45.98099" lon="4.79765">
        <ele>223</ele>
        <time>2017-05-07T09:29:48Z</time>
      </trkpt>
      <trkpt lat="45.98092" lon="4.79766">
        <ele>223</ele>
        <time>2017-05-07T09:29:49Z</time>
      </trkpt>
      <trkpt lat="45.98085" lon="4.79767">
        <ele>223</ele>
        <time>2017-05-07T09:29:50Z</time>
      </trkpt>
      <trkpt lat="45.98078" lon="4.79768">
        <ele>223</ele>
        <time>2017-05-07T09:29:51Z</time>
      </trkpt>
      <trkpt lat="45.98071" lon="4.79769">
        <ele>223</ele>
        <time>2017-05-07T09:29:52Z</time>
      </trkpt>
      <trkpt lat="45.98065" lon="4.7977">
        <ele>223</ele>
        <time>2017-05-07T09:29:53Z</time>
      </trkpt>
      <trkpt lat="45.98058" lon="4.7977">
        <ele>223</ele>
        <time>2017-05-07T09:29:54Z</time>
      </trkpt>
      <trkpt lat="45.98051" lon="4.79771">
        <ele>223</ele>
        <time>2017-05-07T09:29:55Z</time>
      </trkpt>
      <trkpt lat="45.98045" lon="4.79772">
        <ele>223</ele>
        <time>2017-05-07T09:29:56Z</time>
      </trkpt>
      <trkpt lat="45.98038" lon="4.79772">
        <ele>223</ele>
        <time>2017-05-07T09:29:57Z</time>
      </trkpt>
      <trkpt lat="45.98032" lon="4.79773">
        <ele>223</ele>
        <time>2017-05-07T09:29:58Z</time>
      </trkpt>
      <trkpt lat="45.98025" lon="4.79774">
        <ele>223</ele>
        <time>2017-05-07T09:29:59Z</time>
      </trkpt>
      <trkpt lat="45.98019" lon="4.79775">
        <ele>223</ele>
        <time>2017-05-07T09:30:00Z</time>
      </trkpt>
      <trkpt lat="45.98012" lon="4.79775">
        <ele>223</ele>
        <time>2017-05-07T09:30:01Z</time>
      </trkpt>
      <trkpt lat="45.98006" lon="4.79776">
        <ele>223</ele>
        <time>2017-05-07T09:30:02Z</time>
      </trkpt>
      <trkpt lat="45.98" lon="4.79777">
        <ele>224</ele>
        <time>2017-05-07T09:30:03Z</time>
      </trkpt>
      <trkpt lat="45.97994" lon="4.79778">
        <ele>224</ele>
        <time>2017-05-07T09:30:04Z</time>
      </trkpt>
      <trkpt lat="45.97987" lon="4.79779">
        <ele>224</ele>
        <time>2017-05-07T09:30:05Z</time>
      </trkpt>
      <trkpt lat="45.97981" lon="4.7978">
        <ele>224</ele>
        <time>2017-05-07T09:30:06Z</time>
      </trkpt>
      <trkpt lat="45.97974" lon="4.79781">
        <ele>224</ele>
        <time>2017-05-07T09:30:07Z</time>
      </trkpt>
      <trkpt lat="45.97968" lon="4.79782">
        <ele>224</ele>
        <time>2017-05-07T09:30:08Z</time>
      </trkpt>
      <trkpt lat="45.97961" lon="4.79783">
        <ele>224</ele>
        <time>2017-05-07T09:30:09Z</time>
      </trkpt>
      <trkpt lat="45.97955" lon="4.79784">
        <ele>224</ele>
        <time>2017-05-07T09:30:10Z</time>
      </trkpt>
      <trkpt lat="45.97948" lon="4.79784">
        <ele>224</ele>
        <time>2017-05-07T09:30:11Z</time>
      </trkpt>
      <trkpt lat="45.97941" lon="4.79786">
        <ele>224</ele>
        <time>2017-05-07T09:30:12Z</time>
      </trkpt>
      <trkpt lat="45.97935" lon="4.79786">
        <ele>224</ele>
        <time>2017-05-07T09:30:13Z</time>
      </trkpt>
      <trkpt lat="45.97928" lon="4.79787">
        <ele>224</ele>
        <time>2017-05-07T09:30:14Z</time>
      </trkpt>
      <trkpt lat="45.97921" lon="4.79788">
        <ele>225</ele>
        <time>2017-05-07T09:30:15Z</time>
      </trkpt>
      <trkpt lat="45.97916" lon="4.79789">
        <ele>225</ele>
        <time>2017-05-07T09:30:16Z</time>
      </trkpt>
      <trkpt lat="45.9791" lon="4.7979">
        <ele>225</ele>
        <time>2017-05-07T09:30:17Z</time>
      </trkpt>
      <trkpt lat="45.97903" lon="4.79791">
        <ele>225</ele>
        <time>2017-05-07T09:30:18Z</time>
      </trkpt>
      <trkpt lat="45.97898" lon="4.79792">
        <ele>224</ele>
        <time>2017-05-07T09:30:19Z</time>
      </trkpt>
      <trkpt lat="45.97892" lon="4.79793">
        <ele>224</ele>
        <time>2017-05-07T09:30:20Z</time>
      </trkpt>
      <trkpt lat="45.97886" lon="4.79794">
        <ele>224</ele>
        <time>2017-05-07T09:30:21Z</time>
      </trkpt>
      <trkpt lat="45.9788" lon="4.79795">
        <ele>224</ele>
        <time>2017-05-07T09:30:22Z</time>
      </trkpt>
      <trkpt lat="45.97874" lon="4.79797">
        <ele>224</ele>
        <time>2017-05-07T09:30:23Z</time>
      </trkpt>
      <trkpt lat="45.97867" lon="4.79797">
        <ele>224</ele>
        <time>2017-05-07T09:30:24Z</time>
      </trkpt>
      <trkpt lat="45.97862" lon="4.79798">
        <ele>224</ele>
        <time>2017-05-07T09:30:25Z</time>
      </trkpt>
      <trkpt lat="45.97856" lon="4.79799">
        <ele>224</ele>
        <time>2017-05-07T09:30:26Z</time>
      </trkpt>
      <trkpt lat="45.9785" lon="4.798">
        <ele>224</ele>
        <time>2017-05-07T09:30:27Z</time>
      </trkpt>
      <trkpt lat="45.97844" lon="4.79801">
        <ele>224</ele>
        <time>2017-05-07T09:30:28Z</time>
      </trkpt>
      <trkpt lat="45.97837" lon="4.79802">
        <ele>224</ele>
        <time>2017-05-07T09:30:29Z</time>
      </trkpt>
      <trkpt lat="45.97831" lon="4.79802">
        <ele>223</ele>
        <time>2017-05-07T09:30:30Z</time>
      </trkpt>
      <trkpt lat="45.97825" lon="4.79804">
        <ele>223</ele>
        <time>2017-05-07T09:30:31Z</time>
      </trkpt>
      <trkpt lat="45.97819" lon="4.79804">
        <ele>223</ele>
        <time>2017-05-07T09:30:32Z</time>
      </trkpt>
      <trkpt lat="45.97812" lon="4.79805">
        <ele>223</ele>
        <time>2017-05-07T09:30:33Z</time>
      </trkpt>
      <trkpt lat="45.97806" lon="4.79807">
        <ele>223</ele>
        <time>2017-05-07T09:30:34Z</time>
      </trkpt>
      <trkpt lat="45.978" lon="4.79807">
        <ele>223</ele>
        <time>2017-05-07T09:30:35Z</time>
      </trkpt>
      <trkpt lat="45.97793" lon="4.79809">
        <ele>223</ele>
        <time>2017-05-07T09:30:36Z</time>
      </trkpt>
      <trkpt lat="45.97787" lon="4.7981">
        <ele>223</ele>
        <time>2017-05-07T09:30:37Z</time>
      </trkpt>
      <trkpt lat="45.97781" lon="4.79811">
        <ele>223</ele>
        <time>2017-05-07T09:30:38Z</time>
      </trkpt>
      <trkpt lat="45.97775" lon="4.79812">
        <ele>223</ele>
        <time>2017-05-07T09:30:39Z</time>
      </trkpt>
      <trkpt lat="45.9777" lon="4.79813">
        <ele>223</ele>
        <time>2017-05-07T09:30:40Z</time>
      </trkpt>
      <trkpt lat="45.97764" lon="4.79814">
        <ele>223</ele>
        <time>2017-05-07T09:30:41Z</time>
      </trkpt>
      <trkpt lat="45.97758" lon="4.79815">
        <ele>223</ele>
        <time>2017-05-07T09:30:42Z</time>
      </trkpt>
      <trkpt lat="45.97752" lon="4.79817">
        <ele>223</ele>
        <time>2017-05-07T09:30:43Z</time>
      </trkpt>
      <trkpt lat="45.97746" lon="4.79818">
        <ele>223</ele>
        <time>2017-05-07T09:30:44Z</time>
      </trkpt>
      <trkpt lat="45.9774" lon="4.79819">
        <ele>223</ele>
        <time>2017-05-07T09:30:45Z</time>
      </trkpt>
      <trkpt lat="45.97734" lon="4.7982">
        <ele>223</ele>
        <time>2017-05-07T09:30:46Z</time>
      </trkpt>
      <trkpt lat="45.97727" lon="4.79821">
        <ele>223</ele>
        <time>2017-05-07T09:30:47Z</time>
      </trkpt>
      <trkpt lat="45.97721" lon="4.79822">
        <ele>223</ele>
        <time>2017-05-07T09:30:48Z</time>
      </trkpt>
      <trkpt lat="45.97714" lon="4.79823">
        <ele>223</ele>
        <time>2017-05-07T09:30:49Z</time>
      </trkpt>
      <trkpt lat="45.97708" lon="4.79824">
        <ele>223</ele>
        <time>2017-05-07T09:30:50Z</time>
      </trkpt>
      <trkpt lat="45.97701" lon="4.79826">
        <ele>223</ele>
        <time>2017-05-07T09:30:51Z</time>
      </trkpt>
      <trkpt lat="45.97694" lon="4.79827">
        <ele>223</ele>
        <time>2017-05-07T09:30:52Z</time>
      </trkpt>
      <trkpt lat="45.97687" lon="4.79828">
        <ele>223</ele>
        <time>2017-05-07T09:30:53Z</time>
      </trkpt>
      <trkpt lat="45.9768" lon="4.7983">
        <ele>223</ele>
        <time>2017-05-07T09:30:54Z</time>
      </trkpt>
      <trkpt lat="45.97673" lon="4.79832">
        <ele>222</ele>
        <time>2017-05-07T09:30:55Z</time>
      </trkpt>
      <trkpt lat="45.97667" lon="4.79834">
        <ele>222</ele>
        <time>2017-05-07T09:30:56Z</time>
      </trkpt>
      <trkpt lat="45.9766" lon="4.79836">
        <ele>222</ele>
        <time>2017-05-07T09:30:57Z</time>
      </trkpt>
      <trkpt lat="45.97654" lon="4.79837">
        <ele>221</ele>
        <time>2017-05-07T09:30:58Z</time>
      </trkpt>
      <trkpt lat="45.97648" lon="4.79839">
        <ele>221</ele>
        <time>2017-05-07T09:30:59Z</time>
      </trkpt>
      <trkpt lat="45.97642" lon="4.79841">
        <ele>221</ele>
        <time>2017-05-07T09:31:00Z</time>
      </trkpt>
      <trkpt lat="45.97636" lon="4.79844">
        <ele>221</ele>
        <time>2017-05-07T09:31:01Z</time>
      </trkpt>
      <trkpt lat="45.97631" lon="4.79846">
        <ele>221</ele>
        <time>2017-05-07T09:31:02Z</time>
      </trkpt>
      <trkpt lat="45.97625" lon="4.79849">
        <ele>221</ele>
        <time>2017-05-07T09:31:03Z</time>
      </trkpt>
      <trkpt lat="45.97619" lon="4.79851">
        <ele>221</ele>
        <time>2017-05-07T09:31:04Z</time>
      </trkpt>
      <trkpt lat="45.97614" lon="4.79853">
        <ele>221</ele>
        <time>2017-05-07T09:31:05Z</time>
      </trkpt>
      <trkpt lat="45.97608" lon="4.79855">
        <ele>221</ele>
        <time>2017-05-07T09:31:06Z</time>
      </trkpt>
      <trkpt lat="45.97603" lon="4.79858">
        <ele>221</ele>
        <time>2017-05-07T09:31:07Z</time>
      </trkpt>
      <trkpt lat="45.97597" lon="4.7986">
        <ele>221</ele>
        <time>2017-05-07T09:31:08Z</time>
      </trkpt>
      <trkpt lat="45.97591" lon="4.79862">
        <ele>221</ele>
        <time>2017-05-07T09:31:09Z</time>
      </trkpt>
      <trkpt lat="45.97585" lon="4.79864">
        <ele>221</ele>
        <time>2017-05-07T09:31:10Z</time>
      </trkpt>
      <trkpt lat="45.97579" lon="4.79867">
        <ele>222</ele>
        <time>2017-05-07T09:31:11Z</time>
      </trkpt>
      <trkpt lat="45.97572" lon="4.79869">
        <ele>222</ele>
        <time>2017-05-07T09:31:12Z</time>
      </trkpt>
      <trkpt lat="45.97566" lon="4.79871">
        <ele>222</ele>
        <time>2017-05-07T09:31:13Z</time>
      </trkpt>
      <trkpt lat="45.9756" lon="4.79873">
        <ele>222</ele>
        <time>2017-05-07T09:31:14Z</time>
      </trkpt>
      <trkpt lat="45.97553" lon="4.79875">
        <ele>222</ele>
        <time>2017-05-07T09:31:15Z</time>
      </trkpt>
      <trkpt lat="45.97546" lon="4.79877">
        <ele>222</ele>
        <time>2017-05-07T09:31:16Z</time>
      </trkpt>
      <trkpt lat="45.9754" lon="4.79878">
        <ele>222</ele>
        <time>2017-05-07T09:31:17Z</time>
      </trkpt>
      <trkpt lat="45.97532" lon="4.7988">
        <ele>222</ele>
        <time>2017-05-07T09:31:18Z</time>
      </trkpt>
      <trkpt lat="45.97524" lon="4.79882">
        <ele>222</ele>
        <time>2017-05-07T09:31:19Z</time>
      </trkpt>
      <trkpt lat="45.97517" lon="4.79883">
        <ele>222</ele>
        <time>2017-05-07T09:31:20Z</time>
      </trkpt>
      <trkpt lat="45.97509" lon="4.79884">
        <ele>222</ele>
        <time>2017-05-07T09:31:21Z</time>
      </trkpt>
      <trkpt lat="45.975" lon="4.79885">
        <ele>221</ele>
        <time>2017-05-07T09:31:22Z</time>
      </trkpt>
      <trkpt lat="45.97492" lon="4.79886">
        <ele>221</ele>
        <time>2017-05-07T09:31:23Z</time>
      </trkpt>
      <trkpt lat="45.97483" lon="4.79886">
        <ele>221</ele>
        <time>2017-05-07T09:31:24Z</time>
      </trkpt>
      <trkpt lat="45.97474" lon="4.79886">
        <ele>221</ele>
        <time>2017-05-07T09:31:25Z</time>
      </trkpt>
      <trkpt lat="45.97464" lon="4.79886">
        <ele>221</ele>
        <time>2017-05-07T09:31:26Z</time>
      </trkpt>
      <trkpt lat="45.97455" lon="4.79886">
        <ele>221</ele>
        <time>2017-05-07T09:31:27Z</time>
      </trkpt>
      <trkpt lat="45.97446" lon="4.79886">
        <ele>221</ele>
        <time>2017-05-07T09:31:28Z</time>
      </trkpt>
      <trkpt lat="45.97437" lon="4.79886">
        <ele>220</ele>
        <time>2017-05-07T09:31:29Z</time>
      </trkpt>
      <trkpt lat="45.97428" lon="4.79887">
        <ele>220</ele>
        <time>2017-05-07T09:31:30Z</time>
      </trkpt>
      <trkpt lat="45.97419" lon="4.79888">
        <ele>220</ele>
        <time>2017-05-07T09:31:31Z</time>
      </trkpt>
      <trkpt lat="45.9741" lon="4.79889">
        <ele>218</ele>
        <time>2017-05-07T09:31:32Z</time>
      </trkpt>
      <trkpt lat="45.97401" lon="4.79891">
        <ele>218</ele>
        <time>2017-05-07T09:31:33Z</time>
      </trkpt>
      <trkpt lat="45.97392" lon="4.79892">
        <ele>217</ele>
        <time>2017-05-07T09:31:34Z</time>
      </trkpt>
      <trkpt lat="45.97383" lon="4.79894">
        <ele>217</ele>
        <time>2017-05-07T09:31:35Z</time>
      </trkpt>
      <trkpt lat="45.97374" lon="4.79897">
        <ele>217</ele>
        <time>2017-05-07T09:31:36Z</time>
      </trkpt>
      <trkpt lat="45.97364" lon="4.79899">
        <ele>217</ele>
        <time>2017-05-07T09:31:37Z</time>
      </trkpt>
      <trkpt lat="45.97355" lon="4.799">
        <ele>216</ele>
        <time>2017-05-07T09:31:38Z</time>
      </trkpt>
      <trkpt lat="45.97346" lon="4.79902">
        <ele>216</ele>
        <time>2017-05-07T09:31:39Z</time>
      </trkpt>
      <trkpt lat="45.97337" lon="4.79903">
        <ele>215</ele>
        <time>2017-05-07T09:31:40Z</time>
      </trkpt>
      <trkpt lat="45.97328" lon="4.79904">
        <ele>213</ele>
        <time>2017-05-07T09:31:41Z</time>
      </trkpt>
      <trkpt lat="45.97319" lon="4.79905">
        <ele>213</ele>
        <time>2017-05-07T09:31:42Z</time>
      </trkpt>
      <trkpt lat="45.9731" lon="4.79907">
        <ele>213</ele>
        <time>2017-05-07T09:31:43Z</time>
      </trkpt>
      <trkpt lat="45.97301" lon="4.79908">
        <ele>213</ele>
        <time>2017-05-07T09:31:44Z</time>
      </trkpt>
      <trkpt lat="45.97293" lon="4.7991">
        <ele>213</ele>
        <time>2017-05-07T09:31:45Z</time>
      </trkpt>
      <trkpt lat="45.97285" lon="4.79911">
        <ele>213</ele>
        <time>2017-05-07T09:31:46Z</time>
      </trkpt>
      <trkpt lat="45.97277" lon="4.79912">
        <ele>213</ele>
        <time>2017-05-07T09:31:47Z</time>
      </trkpt>
      <trkpt lat="45.9727" lon="4.79914">
        <ele>213</ele>
        <time>2017-05-07T09:31:48Z</time>
      </trkpt>
      <trkpt lat="45.97264" lon="4.79914">
        <ele>213</ele>
        <time>2017-05-07T09:31:49Z</time>
      </trkpt>
      <trkpt lat="45.97259" lon="4.79914">
        <ele>212</ele>
        <time>2017-05-07T09:31:50Z</time>
      </trkpt>
      <trkpt lat="45.97252" lon="4.79907">
        <ele>213</ele>
        <time>2017-05-07T09:31:52Z</time>
      </trkpt>
      <trkpt lat="45.9725" lon="4.79901">
        <ele>211</ele>
        <time>2017-05-07T09:31:53Z</time>
      </trkpt>
      <trkpt lat="45.97247" lon="4.79894">
        <ele>211</ele>
        <time>2017-05-07T09:31:54Z</time>
      </trkpt>
      <trkpt lat="45.97245" lon="4.79888">
        <ele>211</ele>
        <time>2017-05-07T09:31:55Z</time>
      </trkpt>
      <trkpt lat="45.97242" lon="4.79881">
        <ele>211</ele>
        <time>2017-05-07T09:31:56Z</time>
      </trkpt>
      <trkpt lat="45.97239" lon="4.79873">
        <ele>211</ele>
        <time>2017-05-07T09:31:57Z</time>
      </trkpt>
      <trkpt lat="45.97237" lon="4.79865">
        <ele>211</ele>
        <time>2017-05-07T09:31:58Z</time>
      </trkpt>
      <trkpt lat="45.97236" lon="4.79856">
        <ele>211</ele>
        <time>2017-05-07T09:31:59Z</time>
      </trkpt>
      <trkpt lat="45.97236" lon="4.79848">
        <ele>211</ele>
        <time>2017-05-07T09:32:00Z</time>
      </trkpt>
      <trkpt lat="45.97235" lon="4.79839">
        <ele>211</ele>
        <time>2017-05-07T09:32:01Z</time>
      </trkpt>
      <trkpt lat="45.97236" lon="4.79831">
        <ele>211</ele>
        <time>2017-05-07T09:32:02Z</time>
      </trkpt>
      <trkpt lat="45.97236" lon="4.79823">
        <ele>211</ele>
        <time>2017-05-07T09:32:03Z</time>
      </trkpt>
      <trkpt lat="45.97237" lon="4.79815">
        <ele>211</ele>
        <time>2017-05-07T09:32:04Z</time>
      </trkpt>
      <trkpt lat="45.97238" lon="4.79806">
        <ele>210</ele>
        <time>2017-05-07T09:32:05Z</time>
      </trkpt>
      <trkpt lat="45.97239" lon="4.79798">
        <ele>210</ele>
        <time>2017-05-07T09:32:06Z</time>
      </trkpt>
      <trkpt lat="45.97239" lon="4.7979">
        <ele>210</ele>
        <time>2017-05-07T09:32:07Z</time>
      </trkpt>
      <trkpt lat="45.9724" lon="4.79781">
        <ele>210</ele>
        <time>2017-05-07T09:32:08Z</time>
      </trkpt>
      <trkpt lat="45.97241" lon="4.79773">
        <ele>210</ele>
        <time>2017-05-07T09:32:09Z</time>
      </trkpt>
      <trkpt lat="45.97241" lon="4.79766">
        <ele>209</ele>
        <time>2017-05-07T09:32:10Z</time>
      </trkpt>
      <trkpt lat="45.97242" lon="4.79758">
        <ele>209</ele>
        <time>2017-05-07T09:32:11Z</time>
      </trkpt>
      <trkpt lat="45.97242" lon="4.7975">
        <ele>209</ele>
        <time>2017-05-07T09:32:12Z</time>
      </trkpt>
      <trkpt lat="45.97243" lon="4.79741">
        <ele>209</ele>
        <time>2017-05-07T09:32:13Z</time>
      </trkpt>
      <trkpt lat="45.97243" lon="4.79733">
        <ele>209</ele>
        <time>2017-05-07T09:32:14Z</time>
      </trkpt>
      <trkpt lat="45.97244" lon="4.79725">
        <ele>209</ele>
        <time>2017-05-07T09:32:15Z</time>
      </trkpt>
      <trkpt lat="45.97245" lon="4.79717">
        <ele>209</ele>
        <time>2017-05-07T09:32:16Z</time>
      </trkpt>
      <trkpt lat="45.97246" lon="4.79709">
        <ele>209</ele>
        <time>2017-05-07T09:32:17Z</time>
      </trkpt>
      <trkpt lat="45.97247" lon="4.79702">
        <ele>208</ele>
        <time>2017-05-07T09:32:18Z</time>
      </trkpt>
      <trkpt lat="45.97249" lon="4.79695">
        <ele>208</ele>
        <time>2017-05-07T09:32:19Z</time>
      </trkpt>
      <trkpt lat="45.97251" lon="4.79687">
        <ele>211</ele>
        <time>2017-05-07T09:32:20Z</time>
      </trkpt>
      <trkpt lat="45.97252" lon="4.7968">
        <ele>211</ele>
        <time>2017-05-07T09:32:21Z</time>
      </trkpt>
      <trkpt lat="45.97254" lon="4.79672">
        <ele>209</ele>
        <time>2017-05-07T09:32:22Z</time>
      </trkpt>
      <trkpt lat="45.97255" lon="4.79665">
        <ele>209</ele>
        <time>2017-05-07T09:32:23Z</time>
      </trkpt>
      <trkpt lat="45.97256" lon="4.79657">
        <ele>210</ele>
        <time>2017-05-07T09:32:24Z</time>
      </trkpt>
      <trkpt lat="45.97256" lon="4.7965">
        <ele>211</ele>
        <time>2017-05-07T09:32:25Z</time>
      </trkpt>
      <trkpt lat="45.97256" lon="4.79643">
        <ele>212</ele>
        <time>2017-05-07T09:32:26Z</time>
      </trkpt>
      <trkpt lat="45.97256" lon="4.79635">
        <ele>213</ele>
        <time>2017-05-07T09:32:27Z</time>
      </trkpt>
      <trkpt lat="45.97256" lon="4.79627">
        <ele>213</ele>
        <time>2017-05-07T09:32:28Z</time>
      </trkpt>
      <trkpt lat="45.97256" lon="4.79619">
        <ele>213</ele>
        <time>2017-05-07T09:32:29Z</time>
      </trkpt>
      <trkpt lat="45.97255" lon="4.79611">
        <ele>213</ele>
        <time>2017-05-07T09:32:30Z</time>
      </trkpt>
      <trkpt lat="45.97255" lon="4.79603">
        <ele>212</ele>
        <time>2017-05-07T09:32:31Z</time>
      </trkpt>
      <trkpt lat="45.97255" lon="4.79594">
        <ele>212</ele>
        <time>2017-05-07T09:32:32Z</time>
      </trkpt>
      <trkpt lat="45.97255" lon="4.79587">
        <ele>211</ele>
        <time>2017-05-07T09:32:33Z</time>
      </trkpt>
      <trkpt lat="45.97254" lon="4.7958">
        <ele>211</ele>
        <time>2017-05-07T09:32:34Z</time>
      </trkpt>
      <trkpt lat="45.97254" lon="4.79572">
        <ele>212</ele>
        <time>2017-05-07T09:32:35Z</time>
      </trkpt>
      <trkpt lat="45.97254" lon="4.79565">
        <ele>213</ele>
        <time>2017-05-07T09:32:36Z</time>
      </trkpt>
      <trkpt lat="45.97252" lon="4.79558">
        <ele>213</ele>
        <time>2017-05-07T09:32:37Z</time>
      </trkpt>
      <trkpt lat="45.97251" lon="4.7955">
        <ele>214</ele>
        <time>2017-05-07T09:32:38Z</time>
      </trkpt>
      <trkpt lat="45.97251" lon="4.79543">
        <ele>214</ele>
        <time>2017-05-07T09:32:39Z</time>
      </trkpt>
      <trkpt lat="45.9725" lon="4.79534">
        <ele>210</ele>
        <time>2017-05-07T09:32:40Z</time>
      </trkpt>
      <trkpt lat="45.97249" lon="4.79526">
        <ele>210</ele>
        <time>2017-05-07T09:32:41Z</time>
      </trkpt>
      <trkpt lat="45.97248" lon="4.79518">
        <ele>210</ele>
        <time>2017-05-07T09:32:42Z</time>
      </trkpt>
      <trkpt lat="45.97246" lon="4.7951">
        <ele>210</ele>
        <time>2017-05-07T09:32:43Z</time>
      </trkpt>
      <trkpt lat="45.97245" lon="4.79502">
        <ele>211</ele>
        <time>2017-05-07T09:32:44Z</time>
      </trkpt>
      <trkpt lat="45.97244" lon="4.79494">
        <ele>210</ele>
        <time>2017-05-07T09:32:45Z</time>
      </trkpt>
      <trkpt lat="45.97242" lon="4.79486">
        <ele>210</ele>
        <time>2017-05-07T09:32:46Z</time>
      </trkpt>
      <trkpt lat="45.9724" lon="4.79479">
        <ele>209</ele>
        <time>2017-05-07T09:32:47Z</time>
      </trkpt>
      <trkpt lat="45.97238" lon="4.79471">
        <ele>209</ele>
        <time>2017-05-07T09:32:48Z</time>
      </trkpt>
      <trkpt lat="45.97236" lon="4.79464">
        <ele>209</ele>
        <time>2017-05-07T09:32:49Z</time>
      </trkpt>
      <trkpt lat="45.97233" lon="4.79457">
        <ele>209</ele>
        <time>2017-05-07T09:32:50Z</time>
      </trkpt>
      <trkpt lat="45.97229" lon="4.79451">
        <ele>209</ele>
        <time>2017-05-07T09:32:51Z</time>
      </trkpt>
      <trkpt lat="45.97227" lon="4.79444">
        <ele>209</ele>
        <time>2017-05-07T09:32:52Z</time>
      </trkpt>
      <trkpt lat="45.97224" lon="4.79437">
        <ele>209</ele>
        <time>2017-05-07T09:32:53Z</time>
      </trkpt>
      <trkpt lat="45.97222" lon="4.7943">
        <ele>209</ele>
        <time>2017-05-07T09:32:54Z</time>
      </trkpt>
      <trkpt lat="45.97219" lon="4.79423">
        <ele>208</ele>
        <time>2017-05-07T09:32:55Z</time>
      </trkpt>
      <trkpt lat="45.97217" lon="4.79417">
        <ele>208</ele>
        <time>2017-05-07T09:32:56Z</time>
      </trkpt>
      <trkpt lat="45.97214" lon="4.79411">
        <ele>208</ele>
        <time>2017-05-07T09:32:57Z</time>
      </trkpt>
      <trkpt lat="45.97211" lon="4.79404">
        <ele>208</ele>
        <time>2017-05-07T09:32:58Z</time>
      </trkpt>
      <trkpt lat="45.97209" lon="4.79397">
        <ele>208</ele>
        <time>2017-05-07T09:32:59Z</time>
      </trkpt>
      <trkpt lat="45.97206" lon="4.7939">
        <ele>208</ele>
        <time>2017-05-07T09:33:00Z</time>
      </trkpt>
      <trkpt lat="45.97202" lon="4.79383">
        <ele>208</ele>
        <time>2017-05-07T09:33:01Z</time>
      </trkpt>
      <trkpt lat="45.97199" lon="4.79376">
        <ele>207</ele>
        <time>2017-05-07T09:33:02Z</time>
      </trkpt>
      <trkpt lat="45.97196" lon="4.79369">
        <ele>207</ele>
        <time>2017-05-07T09:33:03Z</time>
      </trkpt>
      <trkpt lat="45.97193" lon="4.79362">
        <ele>207</ele>
        <time>2017-05-07T09:33:04Z</time>
      </trkpt>
      <trkpt lat="45.9719" lon="4.79355">
        <ele>207</ele>
        <time>2017-05-07T09:33:05Z</time>
      </trkpt>
      <trkpt lat="45.97187" lon="4.79348">
        <ele>207</ele>
        <time>2017-05-07T09:33:06Z</time>
      </trkpt>
      <trkpt lat="45.97184" lon="4.7934">
        <ele>206</ele>
        <time>2017-05-07T09:33:07Z</time>
      </trkpt>
      <trkpt lat="45.9718" lon="4.79333">
        <ele>206</ele>
        <time>2017-05-07T09:33:08Z</time>
      </trkpt>
      <trkpt lat="45.97178" lon="4.79325">
        <ele>206</ele>
        <time>2017-05-07T09:33:09Z</time>
      </trkpt>
      <trkpt lat="45.97175" lon="4.79318">
        <ele>207</ele>
        <time>2017-05-07T09:33:10Z</time>
      </trkpt>
      <trkpt lat="45.97172" lon="4.79311">
        <ele>207</ele>
        <time>2017-05-07T09:33:11Z</time>
      </trkpt>
      <trkpt lat="45.97169" lon="4.79304">
        <ele>207</ele>
        <time>2017-05-07T09:33:12Z</time>
      </trkpt>
      <trkpt lat="45.97166" lon="4.79297">
        <ele>204</ele>
        <time>2017-05-07T09:33:13Z</time>
      </trkpt>
      <trkpt lat="45.97163" lon="4.7929">
        <ele>204</ele>
        <time>2017-05-07T09:33:14Z</time>
      </trkpt>
      <trkpt lat="45.9716" lon="4.79283">
        <ele>204</ele>
        <time>2017-05-07T09:33:15Z</time>
      </trkpt>
      <trkpt lat="45.97158" lon="4.79275">
        <ele>204</ele>
        <time>2017-05-07T09:33:16Z</time>
      </trkpt>
      <trkpt lat="45.97155" lon="4.79268">
        <ele>204</ele>
        <time>2017-05-07T09:33:17Z</time>
      </trkpt>
      <trkpt lat="45.97153" lon="4.79261">
        <ele>204</ele>
        <time>2017-05-07T09:33:18Z</time>
      </trkpt>
      <trkpt lat="45.9715" lon="4.79254">
        <ele>204</ele>
        <time>2017-05-07T09:33:19Z</time>
      </trkpt>
      <trkpt lat="45.97147" lon="4.79247">
        <ele>205</ele>
        <time>2017-05-07T09:33:20Z</time>
      </trkpt>
      <trkpt lat="45.97144" lon="4.7924">
        <ele>205</ele>
        <time>2017-05-07T09:33:21Z</time>
      </trkpt>
      <trkpt lat="45.9714" lon="4.79232">
        <ele>205</ele>
        <time>2017-05-07T09:33:22Z</time>
      </trkpt>
      <trkpt lat="45.97137" lon="4.79224">
        <ele>205</ele>
        <time>2017-05-07T09:33:23Z</time>
      </trkpt>
      <trkpt lat="45.97133" lon="4.79216">
        <ele>206</ele>
        <time>2017-05-07T09:33:24Z</time>
      </trkpt>
      <trkpt lat="45.9713" lon="4.79208">
        <ele>206</ele>
        <time>2017-05-07T09:33:25Z</time>
      </trkpt>
      <trkpt lat="45.97126" lon="4.792">
        <ele>206</ele>
        <time>2017-05-07T09:33:26Z</time>
      </trkpt>
      <trkpt lat="45.97123" lon="4.79192">
        <ele>206</ele>
        <time>2017-05-07T09:33:27Z</time>
      </trkpt>
      <trkpt lat="45.9712" lon="4.79185">
        <ele>206</ele>
        <time>2017-05-07T09:33:28Z</time>
      </trkpt>
      <trkpt lat="45.97117" lon="4.79178">
        <ele>206</ele>
        <time>2017-05-07T09:33:29Z</time>
      </trkpt>
      <trkpt lat="45.97113" lon="4.79171">
        <ele>205</ele>
        <time>2017-05-07T09:33:30Z</time>
      </trkpt>
      <trkpt lat="45.9711" lon="4.79164">
        <ele>206</ele>
        <time>2017-05-07T09:33:31Z</time>
      </trkpt>
      <trkpt lat="45.97107" lon="4.79158">
        <ele>206</ele>
        <time>2017-05-07T09:33:32Z</time>
      </trkpt>
      <trkpt lat="45.97104" lon="4.79152">
        <ele>206</ele>
        <time>2017-05-07T09:33:33Z</time>
      </trkpt>
      <trkpt lat="45.97101" lon="4.79147">
        <ele>206</ele>
        <time>2017-05-07T09:33:34Z</time>
      </trkpt>
      <trkpt lat="45.97098" lon="4.79141">
        <ele>206</ele>
        <time>2017-05-07T09:33:35Z</time>
      </trkpt>
      <trkpt lat="45.97095" lon="4.79136">
        <ele>206</ele>
        <time>2017-05-07T09:33:36Z</time>
      </trkpt>
      <trkpt lat="45.97091" lon="4.7913">
        <ele>206</ele>
        <time>2017-05-07T09:33:37Z</time>
      </trkpt>
      <trkpt lat="45.97087" lon="4.79124">
        <ele>206</ele>
        <time>2017-05-07T09:33:38Z</time>
      </trkpt>
      <trkpt lat="45.97084" lon="4.79118">
        <ele>206</ele>
        <time>2017-05-07T09:33:39Z</time>
      </trkpt>
      <trkpt lat="45.97082" lon="4.79111">
        <ele>204</ele>
        <time>2017-05-07T09:33:40Z</time>
      </trkpt>
      <trkpt lat="45.9708" lon="4.79105">
        <ele>204</ele>
        <time>2017-05-07T09:33:41Z</time>
      </trkpt>
      <trkpt lat="45.97078" lon="4.79098">
        <ele>204</ele>
        <time>2017-05-07T09:33:42Z</time>
      </trkpt>
      <trkpt lat="45.97077" lon="4.79092">
        <ele>204</ele>
        <time>2017-05-07T09:33:43Z</time>
      </trkpt>
      <trkpt lat="45.97075" lon="4.79085">
        <ele>204</ele>
        <time>2017-05-07T09:33:44Z</time>
      </trkpt>
      <trkpt lat="45.97073" lon="4.79077">
        <ele>204</ele>
        <time>2017-05-07T09:33:45Z</time>
      </trkpt>
      <trkpt lat="45.97071" lon="4.7907">
        <ele>204</ele>
        <time>2017-05-07T09:33:46Z</time>
      </trkpt>
      <trkpt lat="45.97069" lon="4.79062">
        <ele>203</ele>
        <time>2017-05-07T09:33:47Z</time>
      </trkpt>
      <trkpt lat="45.97067" lon="4.79054">
        <ele>203</ele>
        <time>2017-05-07T09:33:48Z</time>
      </trkpt>
      <trkpt lat="45.97065" lon="4.79047">
        <ele>203</ele>
        <time>2017-05-07T09:33:49Z</time>
      </trkpt>
      <trkpt lat="45.97063" lon="4.79039">
        <ele>203</ele>
        <time>2017-05-07T09:33:50Z</time>
      </trkpt>
      <trkpt lat="45.97061" lon="4.79032">
        <ele>203</ele>
        <time>2017-05-07T09:33:51Z</time>
      </trkpt>
      <trkpt lat="45.97059" lon="4.79024">
        <ele>203</ele>
        <time>2017-05-07T09:33:52Z</time>
      </trkpt>
      <trkpt lat="45.97057" lon="4.79017">
        <ele>203</ele>
        <time>2017-05-07T09:33:53Z</time>
      </trkpt>
      <trkpt lat="45.97055" lon="4.7901">
        <ele>203</ele>
        <time>2017-05-07T09:33:54Z</time>
      </trkpt>
      <trkpt lat="45.97053" lon="4.79002">
        <ele>203</ele>
        <time>2017-05-07T09:33:55Z</time>
      </trkpt>
      <trkpt lat="45.9705" lon="4.78995">
        <ele>205</ele>
        <time>2017-05-07T09:33:56Z</time>
      </trkpt>
      <trkpt lat="45.97047" lon="4.78988">
        <ele>205</ele>
        <time>2017-05-07T09:33:57Z</time>
      </trkpt>
      <trkpt lat="45.97045" lon="4.78981">
        <ele>205</ele>
        <time>2017-05-07T09:33:58Z</time>
      </trkpt>
      <trkpt lat="45.97042" lon="4.78975">
        <ele>205</ele>
        <time>2017-05-07T09:33:59Z</time>
      </trkpt>
      <trkpt lat="45.97039" lon="4.78968">
        <ele>205</ele>
        <time>2017-05-07T09:34:00Z</time>
      </trkpt>
      <trkpt lat="45.97036" lon="4.78962">
        <ele>205</ele>
        <time>2017-05-07T09:34:01Z</time>
      </trkpt>
      <trkpt lat="45.97033" lon="4.78956">
        <ele>205</ele>
        <time>2017-05-07T09:34:02Z</time>
      </trkpt>
      <trkpt lat="45.9703" lon="4.7895">
        <ele>205</ele>
        <time>2017-05-07T09:34:03Z</time>
      </trkpt>
      <trkpt lat="45.97027" lon="4.78944">
        <ele>205</ele>
        <time>2017-05-07T09:34:04Z</time>
      </trkpt>
      <trkpt lat="45.97023" lon="4.78938">
        <ele>205</ele>
        <time>2017-05-07T09:34:05Z</time>
      </trkpt>
      <trkpt lat="45.97019" lon="4.78932">
        <ele>205</ele>
        <time>2017-05-07T09:34:06Z</time>
      </trkpt>
      <trkpt lat="45.97015" lon="4.78927">
        <ele>205</ele>
        <time>2017-05-07T09:34:07Z</time>
      </trkpt>
      <trkpt lat="45.9701" lon="4.78921">
        <ele>204</ele>
        <time>2017-05-07T09:34:08Z</time>
      </trkpt>
      <trkpt lat="45.97006" lon="4.78915">
        <ele>205</ele>
        <time>2017-05-07T09:34:09Z</time>
      </trkpt>
      <trkpt lat="45.97001" lon="4.78909">
        <ele>205</ele>
        <time>2017-05-07T09:34:10Z</time>
      </trkpt>
      <trkpt lat="45.96996" lon="4.78902">
        <ele>204</ele>
        <time>2017-05-07T09:34:11Z</time>
      </trkpt>
      <trkpt lat="45.96991" lon="4.78895">
        <ele>203</ele>
        <time>2017-05-07T09:34:12Z</time>
      </trkpt>
      <trkpt lat="45.96986" lon="4.78889">
        <ele>203</ele>
        <time>2017-05-07T09:34:13Z</time>
      </trkpt>
      <trkpt lat="45.96981" lon="4.78884">
        <ele>203</ele>
        <time>2017-05-07T09:34:14Z</time>
      </trkpt>
      <trkpt lat="45.96977" lon="4.78878">
        <ele>203</ele>
        <time>2017-05-07T09:34:15Z</time>
      </trkpt>
      <trkpt lat="45.96972" lon="4.78873">
        <ele>203</ele>
        <time>2017-05-07T09:34:16Z</time>
      </trkpt>
      <trkpt lat="45.96967" lon="4.78867">
        <ele>203</ele>
        <time>2017-05-07T09:34:17Z</time>
      </trkpt>
      <trkpt lat="45.96963" lon="4.78862">
        <ele>203</ele>
        <time>2017-05-07T09:34:18Z</time>
      </trkpt>
      <trkpt lat="45.96958" lon="4.78857">
        <ele>203</ele>
        <time>2017-05-07T09:34:19Z</time>
      </trkpt>
      <trkpt lat="45.96954" lon="4.78851">
        <ele>203</ele>
        <time>2017-05-07T09:34:20Z</time>
      </trkpt>
      <trkpt lat="45.96949" lon="4.78846">
        <ele>202</ele>
        <time>2017-05-07T09:34:21Z</time>
      </trkpt>
      <trkpt lat="45.96944" lon="4.78841">
        <ele>202</ele>
        <time>2017-05-07T09:34:22Z</time>
      </trkpt>
      <trkpt lat="45.9694" lon="4.78835">
        <ele>202</ele>
        <time>2017-05-07T09:34:23Z</time>
      </trkpt>
      <trkpt lat="45.96935" lon="4.78829">
        <ele>202</ele>
        <time>2017-05-07T09:34:24Z</time>
      </trkpt>
      <trkpt lat="45.9693" lon="4.78823">
        <ele>202</ele>
        <time>2017-05-07T09:34:25Z</time>
      </trkpt>
      <trkpt lat="45.96926" lon="4.78817">
        <ele>202</ele>
        <time>2017-05-07T09:34:26Z</time>
      </trkpt>
      <trkpt lat="45.96922" lon="4.78809">
        <ele>202</ele>
        <time>2017-05-07T09:34:27Z</time>
      </trkpt>
      <trkpt lat="45.96918" lon="4.78802">
        <ele>203</ele>
        <time>2017-05-07T09:34:28Z</time>
      </trkpt>
      <trkpt lat="45.96913" lon="4.78795">
        <ele>201</ele>
        <time>2017-05-07T09:34:29Z</time>
      </trkpt>
      <trkpt lat="45.9691" lon="4.78788">
        <ele>201</ele>
        <time>2017-05-07T09:34:30Z</time>
      </trkpt>
      <trkpt lat="45.96906" lon="4.78781">
        <ele>201</ele>
        <time>2017-05-07T09:34:31Z</time>
      </trkpt>
      <trkpt lat="45.96903" lon="4.78774">
        <ele>201</ele>
        <time>2017-05-07T09:34:32Z</time>
      </trkpt>
      <trkpt lat="45.969" lon="4.78767">
        <ele>201</ele>
        <time>2017-05-07T09:34:33Z</time>
      </trkpt>
      <trkpt lat="45.96896" lon="4.78761">
        <ele>201</ele>
        <time>2017-05-07T09:34:34Z</time>
      </trkpt>
      <trkpt lat="45.96893" lon="4.78754">
        <ele>201</ele>
        <time>2017-05-07T09:34:35Z</time>
      </trkpt>
      <trkpt lat="45.9689" lon="4.78747">
        <ele>202</ele>
        <time>2017-05-07T09:34:36Z</time>
      </trkpt>
      <trkpt lat="45.96887" lon="4.7874">
        <ele>202</ele>
        <time>2017-05-07T09:34:37Z</time>
      </trkpt>
      <trkpt lat="45.96883" lon="4.78734">
        <ele>202</ele>
        <time>2017-05-07T09:34:38Z</time>
      </trkpt>
      <trkpt lat="45.9688" lon="4.78727">
        <ele>202</ele>
        <time>2017-05-07T09:34:39Z</time>
      </trkpt>
      <trkpt lat="45.96877" lon="4.7872">
        <ele>202</ele>
        <time>2017-05-07T09:34:40Z</time>
      </trkpt>
      <trkpt lat="45.96873" lon="4.78713">
        <ele>202</ele>
        <time>2017-05-07T09:34:41Z</time>
      </trkpt>
      <trkpt lat="45.9687" lon="4.78706">
        <ele>202</ele>
        <time>2017-05-07T09:34:42Z</time>
      </trkpt>
      <trkpt lat="45.96866" lon="4.78699">
        <ele>202</ele>
        <time>2017-05-07T09:34:43Z</time>
      </trkpt>
      <trkpt lat="45.96863" lon="4.78693">
        <ele>202</ele>
        <time>2017-05-07T09:34:44Z</time>
      </trkpt>
      <trkpt lat="45.96859" lon="4.78685">
        <ele>202</ele>
        <time>2017-05-07T09:34:45Z</time>
      </trkpt>
      <trkpt lat="45.96856" lon="4.78678">
        <ele>202</ele>
        <time>2017-05-07T09:34:46Z</time>
      </trkpt>
      <trkpt lat="45.96852" lon="4.78671">
        <ele>202</ele>
        <time>2017-05-07T09:34:47Z</time>
      </trkpt>
      <trkpt lat="45.96848" lon="4.78664">
        <ele>202</ele>
        <time>2017-05-07T09:34:48Z</time>
      </trkpt>
      <trkpt lat="45.96845" lon="4.78657">
        <ele>202</ele>
        <time>2017-05-07T09:34:49Z</time>
      </trkpt>
      <trkpt lat="45.96841" lon="4.7865">
        <ele>203</ele>
        <time>2017-05-07T09:34:50Z</time>
      </trkpt>
      <trkpt lat="45.96837" lon="4.78643">
        <ele>203</ele>
        <time>2017-05-07T09:34:51Z</time>
      </trkpt>
      <trkpt lat="45.96834" lon="4.78636">
        <ele>203</ele>
        <time>2017-05-07T09:34:52Z</time>
      </trkpt>
      <trkpt lat="45.96832" lon="4.78629">
        <ele>201</ele>
        <time>2017-05-07T09:34:53Z</time>
      </trkpt>
      <trkpt lat="45.96829" lon="4.78622">
        <ele>201</ele>
        <time>2017-05-07T09:34:54Z</time>
      </trkpt>
      <trkpt lat="45.96827" lon="4.78615">
        <ele>202</ele>
        <time>2017-05-07T09:34:55Z</time>
      </trkpt>
      <trkpt lat="45.96826" lon="4.78608">
        <ele>202</ele>
        <time>2017-05-07T09:34:56Z</time>
      </trkpt>
      <trkpt lat="45.96824" lon="4.786">
        <ele>202</ele>
        <time>2017-05-07T09:34:57Z</time>
      </trkpt>
      <trkpt lat="45.96821" lon="4.78593">
        <ele>202</ele>
        <time>2017-05-07T09:34:58Z</time>
      </trkpt>
      <trkpt lat="45.96818" lon="4.78587">
        <ele>202</ele>
        <time>2017-05-07T09:34:59Z</time>
      </trkpt>
      <trkpt lat="45.96815" lon="4.78581">
        <ele>203</ele>
        <time>2017-05-07T09:35:00Z</time>
      </trkpt>
      <trkpt lat="45.96812" lon="4.78576">
        <ele>203</ele>
        <time>2017-05-07T09:35:01Z</time>
      </trkpt>
      <trkpt lat="45.96808" lon="4.7857">
        <ele>203</ele>
        <time>2017-05-07T09:35:02Z</time>
      </trkpt>
      <trkpt lat="45.96804" lon="4.78563">
        <ele>203</ele>
        <time>2017-05-07T09:35:03Z</time>
      </trkpt>
      <trkpt lat="45.968" lon="4.78557">
        <ele>203</ele>
        <time>2017-05-07T09:35:04Z</time>
      </trkpt>
      <trkpt lat="45.96797" lon="4.7855">
        <ele>203</ele>
        <time>2017-05-07T09:35:05Z</time>
      </trkpt>
      <trkpt lat="45.96793" lon="4.78544">
        <ele>203</ele>
        <time>2017-05-07T09:35:06Z</time>
      </trkpt>
      <trkpt lat="45.96789" lon="4.78538">
        <ele>203</ele>
        <time>2017-05-07T09:35:07Z</time>
      </trkpt>
      <trkpt lat="45.96785" lon="4.78532">
        <ele>203</ele>
        <time>2017-05-07T09:35:08Z</time>
      </trkpt>
      <trkpt lat="45.96781" lon="4.78526">
        <ele>203</ele>
        <time>2017-05-07T09:35:09Z</time>
      </trkpt>
      <trkpt lat="45.96777" lon="4.7852">
        <ele>203</ele>
        <time>2017-05-07T09:35:10Z</time>
      </trkpt>
      <trkpt lat="45.96774" lon="4.78514">
        <ele>203</ele>
        <time>2017-05-07T09:35:11Z</time>
      </trkpt>
      <trkpt lat="45.9677" lon="4.78508">
        <ele>203</ele>
        <time>2017-05-07T09:35:12Z</time>
      </trkpt>
      <trkpt lat="45.96765" lon="4.78502">
        <ele>203</ele>
        <time>2017-05-07T09:35:13Z</time>
      </trkpt>
      <trkpt lat="45.9676" lon="4.78497">
        <ele>204</ele>
        <time>2017-05-07T09:35:14Z</time>
      </trkpt>
      <trkpt lat="45.96756" lon="4.78492">
        <ele>204</ele>
        <time>2017-05-07T09:35:15Z</time>
      </trkpt>
      <trkpt lat="45.96751" lon="4.78487">
        <ele>204</ele>
        <time>2017-05-07T09:35:16Z</time>
      </trkpt>
      <trkpt lat="45.96747" lon="4.78482">
        <ele>203</ele>
        <time>2017-05-07T09:35:17Z</time>
      </trkpt>
      <trkpt lat="45.96743" lon="4.78477">
        <ele>203</ele>
        <time>2017-05-07T09:35:18Z</time>
      </trkpt>
      <trkpt lat="45.96739" lon="4.78473">
        <ele>203</ele>
        <time>2017-05-07T09:35:19Z</time>
      </trkpt>
      <trkpt lat="45.96734" lon="4.78469">
        <ele>203</ele>
        <time>2017-05-07T09:35:20Z</time>
      </trkpt>
      <trkpt lat="45.9673" lon="4.78465">
        <ele>203</ele>
        <time>2017-05-07T09:35:21Z</time>
      </trkpt>
      <trkpt lat="45.96725" lon="4.78461">
        <ele>203</ele>
        <time>2017-05-07T09:35:22Z</time>
      </trkpt>
      <trkpt lat="45.96721" lon="4.78457">
        <ele>203</ele>
        <time>2017-05-07T09:35:23Z</time>
      </trkpt>
      <trkpt lat="45.96717" lon="4.78453">
        <ele>203</ele>
        <time>2017-05-07T09:35:24Z</time>
      </trkpt>
      <trkpt lat="45.96712" lon="4.78449">
        <ele>203</ele>
        <time>2017-05-07T09:35:25Z</time>
      </trkpt>
      <trkpt lat="45.96708" lon="4.78445">
        <ele>203</ele>
        <time>2017-05-07T09:35:26Z</time>
      </trkpt>
      <trkpt lat="45.96703" lon="4.7844">
        <ele>203</ele>
        <time>2017-05-07T09:35:27Z</time>
      </trkpt>
      <trkpt lat="45.96699" lon="4.78435">
        <ele>203</ele>
        <time>2017-05-07T09:35:28Z</time>
      </trkpt>
      <trkpt lat="45.96696" lon="4.7843">
        <ele>203</ele>
        <time>2017-05-07T09:35:29Z</time>
      </trkpt>
      <trkpt lat="45.96692" lon="4.78425">
        <ele>202</ele>
        <time>2017-05-07T09:35:30Z</time>
      </trkpt>
      <trkpt lat="45.96688" lon="4.7842">
        <ele>202</ele>
        <time>2017-05-07T09:35:31Z</time>
      </trkpt>
      <trkpt lat="45.96683" lon="4.78415">
        <ele>204</ele>
        <time>2017-05-07T09:35:32Z</time>
      </trkpt>
      <trkpt lat="45.96679" lon="4.7841">
        <ele>203</ele>
        <time>2017-05-07T09:35:33Z</time>
      </trkpt>
      <trkpt lat="45.96674" lon="4.78406">
        <ele>203</ele>
        <time>2017-05-07T09:35:34Z</time>
      </trkpt>
      <trkpt lat="45.96669" lon="4.78401">
        <ele>204</ele>
        <time>2017-05-07T09:35:35Z</time>
      </trkpt>
      <trkpt lat="45.96664" lon="4.78396">
        <ele>201</ele>
        <time>2017-05-07T09:35:36Z</time>
      </trkpt>
      <trkpt lat="45.96659" lon="4.78391">
        <ele>201</ele>
        <time>2017-05-07T09:35:37Z</time>
      </trkpt>
      <trkpt lat="45.96654" lon="4.78386">
        <ele>201</ele>
        <time>2017-05-07T09:35:38Z</time>
      </trkpt>
      <trkpt lat="45.96649" lon="4.78381">
        <ele>201</ele>
        <time>2017-05-07T09:35:39Z</time>
      </trkpt>
      <trkpt lat="45.96645" lon="4.78377">
        <ele>201</ele>
        <time>2017-05-07T09:35:40Z</time>
      </trkpt>
      <trkpt lat="45.96639" lon="4.78372">
        <ele>201</ele>
        <time>2017-05-07T09:35:41Z</time>
      </trkpt>
      <trkpt lat="45.96635" lon="4.78368">
        <ele>201</ele>
        <time>2017-05-07T09:35:42Z</time>
      </trkpt>
      <trkpt lat="45.9663" lon="4.78363">
        <ele>201</ele>
        <time>2017-05-07T09:35:43Z</time>
      </trkpt>
      <trkpt lat="45.96625" lon="4.78358">
        <ele>201</ele>
        <time>2017-05-07T09:35:44Z</time>
      </trkpt>
      <trkpt lat="45.96621" lon="4.78353">
        <ele>201</ele>
        <time>2017-05-07T09:35:45Z</time>
      </trkpt>
      <trkpt lat="45.96616" lon="4.78349">
        <ele>201</ele>
        <time>2017-05-07T09:35:46Z</time>
      </trkpt>
      <trkpt lat="45.96611" lon="4.78344">
        <ele>200</ele>
        <time>2017-05-07T09:35:47Z</time>
      </trkpt>
      <trkpt lat="45.96606" lon="4.7834">
        <ele>200</ele>
        <time>2017-05-07T09:35:48Z</time>
      </trkpt>
      <trkpt lat="45.96602" lon="4.78336">
        <ele>200</ele>
        <time>2017-05-07T09:35:49Z</time>
      </trkpt>
      <trkpt lat="45.96596" lon="4.78331">
        <ele>202</ele>
        <time>2017-05-07T09:35:50Z</time>
      </trkpt>
      <trkpt lat="45.96591" lon="4.78326">
        <ele>201</ele>
        <time>2017-05-07T09:35:51Z</time>
      </trkpt>
      <trkpt lat="45.96586" lon="4.78321">
        <ele>201</ele>
        <time>2017-05-07T09:35:52Z</time>
      </trkpt>
      <trkpt lat="45.96581" lon="4.78316">
        <ele>199</ele>
        <time>2017-05-07T09:35:53Z</time>
      </trkpt>
      <trkpt lat="45.96576" lon="4.78312">
        <ele>199</ele>
        <time>2017-05-07T09:35:54Z</time>
      </trkpt>
      <trkpt lat="45.96572" lon="4.78308">
        <ele>200</ele>
        <time>2017-05-07T09:35:55Z</time>
      </trkpt>
      <trkpt lat="45.96567" lon="4.78304">
        <ele>200</ele>
        <time>2017-05-07T09:35:56Z</time>
      </trkpt>
      <trkpt lat="45.96562" lon="4.783">
        <ele>200</ele>
        <time>2017-05-07T09:35:57Z</time>
      </trkpt>
      <trkpt lat="45.96557" lon="4.78296">
        <ele>200</ele>
        <time>2017-05-07T09:35:58Z</time>
      </trkpt>
      <trkpt lat="45.96553" lon="4.78291">
        <ele>200</ele>
        <time>2017-05-07T09:35:59Z</time>
      </trkpt>
      <trkpt lat="45.9655" lon="4.78286">
        <ele>200</ele>
        <time>2017-05-07T09:36:00Z</time>
      </trkpt>
      <trkpt lat="45.96546" lon="4.78281">
        <ele>200</ele>
        <time>2017-05-07T09:36:01Z</time>
      </trkpt>
      <trkpt lat="45.96543" lon="4.78275">
        <ele>200</ele>
        <time>2017-05-07T09:36:02Z</time>
      </trkpt>
      <trkpt lat="45.96539" lon="4.7827">
        <ele>200</ele>
        <time>2017-05-07T09:36:03Z</time>
      </trkpt>
      <trkpt lat="45.96536" lon="4.78264">
        <ele>200</ele>
        <time>2017-05-07T09:36:04Z</time>
      </trkpt>
      <trkpt lat="45.96532" lon="4.78259">
        <ele>200</ele>
        <time>2017-05-07T09:36:05Z</time>
      </trkpt>
      <trkpt lat="45.96528" lon="4.78253">
        <ele>200</ele>
        <time>2017-05-07T09:36:06Z</time>
      </trkpt>
      <trkpt lat="45.96525" lon="4.78248">
        <ele>203</ele>
        <time>2017-05-07T09:36:07Z</time>
      </trkpt>
      <trkpt lat="45.96522" lon="4.78243">
        <ele>203</ele>
        <time>2017-05-07T09:36:08Z</time>
      </trkpt>
      <trkpt lat="45.96519" lon="4.78237">
        <ele>203</ele>
        <time>2017-05-07T09:36:09Z</time>
      </trkpt>
      <trkpt lat="45.96516" lon="4.78232">
        <ele>203</ele>
        <time>2017-05-07T09:36:10Z</time>
      </trkpt>
      <trkpt lat="45.96512" lon="4.78226">
        <ele>204</ele>
        <time>2017-05-07T09:36:11Z</time>
      </trkpt>
      <trkpt lat="45.96509" lon="4.78221">
        <ele>204</ele>
        <time>2017-05-07T09:36:12Z</time>
      </trkpt>
      <trkpt lat="45.96505" lon="4.78216">
        <ele>204</ele>
        <time>2017-05-07T09:36:13Z</time>
      </trkpt>
      <trkpt lat="45.96501" lon="4.7821">
        <ele>205</ele>
        <time>2017-05-07T09:36:14Z</time>
      </trkpt>
      <trkpt lat="45.96497" lon="4.78205">
        <ele>200</ele>
        <time>2017-05-07T09:36:15Z</time>
      </trkpt>
      <trkpt lat="45.96492" lon="4.78201">
        <ele>200</ele>
        <time>2017-05-07T09:36:16Z</time>
      </trkpt>
      <trkpt lat="45.96486" lon="4.78198">
        <ele>200</ele>
        <time>2017-05-07T09:36:17Z</time>
      </trkpt>
      <trkpt lat="45.9648" lon="4.78195">
        <ele>200</ele>
        <time>2017-05-07T09:36:18Z</time>
      </trkpt>
      <trkpt lat="45.96475" lon="4.78191">
        <ele>200</ele>
        <time>2017-05-07T09:36:19Z</time>
      </trkpt>
      <trkpt lat="45.96469" lon="4.78187">
        <ele>200</ele>
        <time>2017-05-07T09:36:20Z</time>
      </trkpt>
      <trkpt lat="45.96463" lon="4.78183">
        <ele>200</ele>
        <time>2017-05-07T09:36:21Z</time>
      </trkpt>
      <trkpt lat="45.96458" lon="4.78178">
        <ele>200</ele>
        <time>2017-05-07T09:36:22Z</time>
      </trkpt>
      <trkpt lat="45.96453" lon="4.78174">
        <ele>200</ele>
        <time>2017-05-07T09:36:23Z</time>
      </trkpt>
      <trkpt lat="45.96448" lon="4.78169">
        <ele>199</ele>
        <time>2017-05-07T09:36:24Z</time>
      </trkpt>
      <trkpt lat="45.96443" lon="4.78164">
        <ele>203</ele>
        <time>2017-05-07T09:36:25Z</time>
      </trkpt>
      <trkpt lat="45.96438" lon="4.78159">
        <ele>203</ele>
        <time>2017-05-07T09:36:26Z</time>
      </trkpt>
      <trkpt lat="45.96433" lon="4.78155">
        <ele>202</ele>
        <time>2017-05-07T09:36:27Z</time>
      </trkpt>
      <trkpt lat="45.96428" lon="4.78151">
        <ele>202</ele>
        <time>2017-05-07T09:36:28Z</time>
      </trkpt>
      <trkpt lat="45.96423" lon="4.78147">
        <ele>202</ele>
        <time>2017-05-07T09:36:29Z</time>
      </trkpt>
      <trkpt lat="45.96418" lon="4.78142">
        <ele>203</ele>
        <time>2017-05-07T09:36:30Z</time>
      </trkpt>
      <trkpt lat="45.96414" lon="4.78138">
        <ele>199</ele>
        <time>2017-05-07T09:36:31Z</time>
      </trkpt>
      <trkpt lat="45.96409" lon="4.78133">
        <ele>199</ele>
        <time>2017-05-07T09:36:32Z</time>
      </trkpt>
      <trkpt lat="45.96405" lon="4.78129">
        <ele>199</ele>
        <time>2017-05-07T09:36:33Z</time>
      </trkpt>
      <trkpt lat="45.964" lon="4.78125">
        <ele>200</ele>
        <time>2017-05-07T09:36:34Z</time>
      </trkpt>
      <trkpt lat="45.96395" lon="4.7812">
        <ele>200</ele>
        <time>2017-05-07T09:36:35Z</time>
      </trkpt>
      <trkpt lat="45.9639" lon="4.78115">
        <ele>200</ele>
        <time>2017-05-07T09:36:36Z</time>
      </trkpt>
      <trkpt lat="45.96385" lon="4.78109">
        <ele>200</ele>
        <time>2017-05-07T09:36:37Z</time>
      </trkpt>
      <trkpt lat="45.9638" lon="4.78104">
        <ele>200</ele>
        <time>2017-05-07T09:36:38Z</time>
      </trkpt>
      <trkpt lat="45.96375" lon="4.78099">
        <ele>200</ele>
        <time>2017-05-07T09:36:39Z</time>
      </trkpt>
      <trkpt lat="45.96369" lon="4.78094">
        <ele>199</ele>
        <time>2017-05-07T09:36:40Z</time>
      </trkpt>
      <trkpt lat="45.96363" lon="4.78089">
        <ele>199</ele>
        <time>2017-05-07T09:36:41Z</time>
      </trkpt>
      <trkpt lat="45.96358" lon="4.78084">
        <ele>199</ele>
        <time>2017-05-07T09:36:42Z</time>
      </trkpt>
      <trkpt lat="45.96353" lon="4.78078">
        <ele>201</ele>
        <time>2017-05-07T09:36:43Z</time>
      </trkpt>
      <trkpt lat="45.96348" lon="4.78072">
        <ele>201</ele>
        <time>2017-05-07T09:36:44Z</time>
      </trkpt>
      <trkpt lat="45.96343" lon="4.78066">
        <ele>201</ele>
        <time>2017-05-07T09:36:45Z</time>
      </trkpt>
      <trkpt lat="45.96338" lon="4.78059">
        <ele>202</ele>
        <time>2017-05-07T09:36:46Z</time>
      </trkpt>
      <trkpt lat="45.96333" lon="4.78054">
        <ele>199</ele>
        <time>2017-05-07T09:36:47Z</time>
      </trkpt>
      <trkpt lat="45.96329" lon="4.78047">
        <ele>199</ele>
        <time>2017-05-07T09:36:48Z</time>
      </trkpt>
      <trkpt lat="45.96324" lon="4.78042">
        <ele>199</ele>
        <time>2017-05-07T09:36:49Z</time>
      </trkpt>
      <trkpt lat="45.96319" lon="4.78036">
        <ele>200</ele>
        <time>2017-05-07T09:36:50Z</time>
      </trkpt>
      <trkpt lat="45.96314" lon="4.78031">
        <ele>200</ele>
        <time>2017-05-07T09:36:51Z</time>
      </trkpt>
      <trkpt lat="45.9631" lon="4.78025">
        <ele>200</ele>
        <time>2017-05-07T09:36:52Z</time>
      </trkpt>
      <trkpt lat="45.96305" lon="4.78019">
        <ele>200</ele>
        <time>2017-05-07T09:36:53Z</time>
      </trkpt>
      <trkpt lat="45.963" lon="4.78014">
        <ele>200</ele>
        <time>2017-05-07T09:36:54Z</time>
      </trkpt>
      <trkpt lat="45.96295" lon="4.78009">
        <ele>199</ele>
        <time>2017-05-07T09:36:55Z</time>
      </trkpt>
      <trkpt lat="45.96291" lon="4.78005">
        <ele>199</ele>
        <time>2017-05-07T09:36:56Z</time>
      </trkpt>
      <trkpt lat="45.96286" lon="4.78001">
        <ele>199</ele>
        <time>2017-05-07T09:36:57Z</time>
      </trkpt>
      <trkpt lat="45.96283" lon="4.77996">
        <ele>203</ele>
        <time>2017-05-07T09:36:58Z</time>
      </trkpt>
      <trkpt lat="45.96279" lon="4.77991">
        <ele>203</ele>
        <time>2017-05-07T09:36:59Z</time>
      </trkpt>
      <trkpt lat="45.96275" lon="4.77988">
        <ele>203</ele>
        <time>2017-05-07T09:37:00Z</time>
      </trkpt>
      <trkpt lat="45.96271" lon="4.77984">
        <ele>203</ele>
        <time>2017-05-07T09:37:01Z</time>
      </trkpt>
      <trkpt lat="45.96266" lon="4.7798">
        <ele>203</ele>
        <time>2017-05-07T09:37:02Z</time>
      </trkpt>
      <trkpt lat="45.96262" lon="4.77975">
        <ele>203</ele>
        <time>2017-05-07T09:37:03Z</time>
      </trkpt>
      <trkpt lat="45.96258" lon="4.77971">
        <ele>203</ele>
        <time>2017-05-07T09:37:04Z</time>
      </trkpt>
      <trkpt lat="45.96254" lon="4.77967">
        <ele>204</ele>
        <time>2017-05-07T09:37:05Z</time>
      </trkpt>
      <trkpt lat="45.96251" lon="4.77963">
        <ele>204</ele>
        <time>2017-05-07T09:37:06Z</time>
      </trkpt>
      <trkpt lat="45.96247" lon="4.77958">
        <ele>199</ele>
        <time>2017-05-07T09:37:07Z</time>
      </trkpt>
      <trkpt lat="45.96243" lon="4.77953">
        <ele>200</ele>
        <time>2017-05-07T09:37:08Z</time>
      </trkpt>
      <trkpt lat="45.96238" lon="4.77946">
        <ele>200</ele>
        <time>2017-05-07T09:37:09Z</time>
      </trkpt>
      <trkpt lat="45.96233" lon="4.7794">
        <ele>201</ele>
        <time>2017-05-07T09:37:10Z</time>
      </trkpt>
      <trkpt lat="45.96228" lon="4.77934">
        <ele>201</ele>
        <time>2017-05-07T09:37:11Z</time>
      </trkpt>
      <trkpt lat="45.96223" lon="4.77927">
        <ele>201</ele>
        <time>2017-05-07T09:37:12Z</time>
      </trkpt>
      <trkpt lat="45.96218" lon="4.7792">
        <ele>200</ele>
        <time>2017-05-07T09:37:13Z</time>
      </trkpt>
      <trkpt lat="45.96214" lon="4.77913">
        <ele>203</ele>
        <time>2017-05-07T09:37:14Z</time>
      </trkpt>
      <trkpt lat="45.96209" lon="4.77906">
        <ele>202</ele>
        <time>2017-05-07T09:37:15Z</time>
      </trkpt>
      <trkpt lat="45.96205" lon="4.77899">
        <ele>202</ele>
        <time>2017-05-07T09:37:16Z</time>
      </trkpt>
      <trkpt lat="45.962" lon="4.77893">
        <ele>202</ele>
        <time>2017-05-07T09:37:17Z</time>
      </trkpt>
      <trkpt lat="45.96196" lon="4.77887">
        <ele>202</ele>
        <time>2017-05-07T09:37:18Z</time>
      </trkpt>
      <trkpt lat="45.96192" lon="4.77881">
        <ele>202</ele>
        <time>2017-05-07T09:37:19Z</time>
      </trkpt>
      <trkpt lat="45.96189" lon="4.77875">
        <ele>202</ele>
        <time>2017-05-07T09:37:20Z</time>
      </trkpt>
      <trkpt lat="45.96185" lon="4.77869">
        <ele>201</ele>
        <time>2017-05-07T09:37:21Z</time>
      </trkpt>
      <trkpt lat="45.96181" lon="4.77863">
        <ele>201</ele>
        <time>2017-05-07T09:37:22Z</time>
      </trkpt>
      <trkpt lat="45.96177" lon="4.77858">
        <ele>201</ele>
        <time>2017-05-07T09:37:23Z</time>
      </trkpt>
      <trkpt lat="45.96174" lon="4.77853">
        <ele>201</ele>
        <time>2017-05-07T09:37:24Z</time>
      </trkpt>
      <trkpt lat="45.9617" lon="4.77847">
        <ele>201</ele>
        <time>2017-05-07T09:37:25Z</time>
      </trkpt>
      <trkpt lat="45.96167" lon="4.77842">
        <ele>198</ele>
        <time>2017-05-07T09:37:26Z</time>
      </trkpt>
      <trkpt lat="45.96163" lon="4.77837">
        <ele>198</ele>
        <time>2017-05-07T09:37:27Z</time>
      </trkpt>
      <trkpt lat="45.9616" lon="4.77832">
        <ele>199</ele>
        <time>2017-05-07T09:37:28Z</time>
      </trkpt>
      <trkpt lat="45.96156" lon="4.77827">
        <ele>198</ele>
        <time>2017-05-07T09:37:29Z</time>
      </trkpt>
      <trkpt lat="45.96152" lon="4.77821">
        <ele>198</ele>
        <time>2017-05-07T09:37:30Z</time>
      </trkpt>
      <trkpt lat="45.96148" lon="4.77815">
        <ele>198</ele>
        <time>2017-05-07T09:37:31Z</time>
      </trkpt>
      <trkpt lat="45.96145" lon="4.77809">
        <ele>198</ele>
        <time>2017-05-07T09:37:32Z</time>
      </trkpt>
      <trkpt lat="45.96142" lon="4.77803">
        <ele>198</ele>
        <time>2017-05-07T09:37:33Z</time>
      </trkpt>
      <trkpt lat="45.96138" lon="4.77797">
        <ele>198</ele>
        <time>2017-05-07T09:37:34Z</time>
      </trkpt>
      <trkpt lat="45.96134" lon="4.77791">
        <ele>198</ele>
        <time>2017-05-07T09:37:35Z</time>
      </trkpt>
      <trkpt lat="45.96131" lon="4.77786">
        <ele>198</ele>
        <time>2017-05-07T09:37:36Z</time>
      </trkpt>
      <trkpt lat="45.96128" lon="4.7778">
        <ele>198</ele>
        <time>2017-05-07T09:37:37Z</time>
      </trkpt>
      <trkpt lat="45.96124" lon="4.77775">
        <ele>197</ele>
        <time>2017-05-07T09:37:38Z</time>
      </trkpt>
      <trkpt lat="45.96121" lon="4.77769">
        <ele>197</ele>
        <time>2017-05-07T09:37:39Z</time>
      </trkpt>
      <trkpt lat="45.96117" lon="4.77763">
        <ele>197</ele>
        <time>2017-05-07T09:37:40Z</time>
      </trkpt>
      <trkpt lat="45.96113" lon="4.77757">
        <ele>197</ele>
        <time>2017-05-07T09:37:41Z</time>
      </trkpt>
      <trkpt lat="45.96109" lon="4.77751">
        <ele>197</ele>
        <time>2017-05-07T09:37:42Z</time>
      </trkpt>
      <trkpt lat="45.96106" lon="4.77746">
        <ele>199</ele>
        <time>2017-05-07T09:37:43Z</time>
      </trkpt>
      <trkpt lat="45.96103" lon="4.7774">
        <ele>198</ele>
        <time>2017-05-07T09:37:44Z</time>
      </trkpt>
      <trkpt lat="45.96099" lon="4.77734">
        <ele>198</ele>
        <time>2017-05-07T09:37:45Z</time>
      </trkpt>
      <trkpt lat="45.96096" lon="4.77728">
        <ele>199</ele>
        <time>2017-05-07T09:37:46Z</time>
      </trkpt>
      <trkpt lat="45.96092" lon="4.77722">
        <ele>199</ele>
        <time>2017-05-07T09:37:47Z</time>
      </trkpt>
      <trkpt lat="45.96088" lon="4.77716">
        <ele>199</ele>
        <time>2017-05-07T09:37:48Z</time>
      </trkpt>
      <trkpt lat="45.96085" lon="4.7771">
        <ele>200</ele>
        <time>2017-05-07T09:37:49Z</time>
      </trkpt>
      <trkpt lat="45.96082" lon="4.77704">
        <ele>197</ele>
        <time>2017-05-07T09:37:50Z</time>
      </trkpt>
      <trkpt lat="45.96078" lon="4.77698">
        <ele>197</ele>
        <time>2017-05-07T09:37:51Z</time>
      </trkpt>
      <trkpt lat="45.96075" lon="4.77692">
        <ele>197</ele>
        <time>2017-05-07T09:37:52Z</time>
      </trkpt>
      <trkpt lat="45.96072" lon="4.77687">
        <ele>198</ele>
        <time>2017-05-07T09:37:53Z</time>
      </trkpt>
      <trkpt lat="45.96068" lon="4.77682">
        <ele>198</ele>
        <time>2017-05-07T09:37:54Z</time>
      </trkpt>
      <trkpt lat="45.96064" lon="4.77676">
        <ele>198</ele>
        <time>2017-05-07T09:37:55Z</time>
      </trkpt>
      <trkpt lat="45.9606" lon="4.7767">
        <ele>198</ele>
        <time>2017-05-07T09:37:56Z</time>
      </trkpt>
      <trkpt lat="45.96056" lon="4.77665">
        <ele>200</ele>
        <time>2017-05-07T09:37:57Z</time>
      </trkpt>
      <trkpt lat="45.96051" lon="4.77659">
        <ele>200</ele>
        <time>2017-05-07T09:37:58Z</time>
      </trkpt>
      <trkpt lat="45.96047" lon="4.77654">
        <ele>199</ele>
        <time>2017-05-07T09:37:59Z</time>
      </trkpt>
      <trkpt lat="45.96043" lon="4.77649">
        <ele>199</ele>
        <time>2017-05-07T09:38:00Z</time>
      </trkpt>
      <trkpt lat="45.96039" lon="4.77645">
        <ele>199</ele>
        <time>2017-05-07T09:38:01Z</time>
      </trkpt>
      <trkpt lat="45.96035" lon="4.7764">
        <ele>199</ele>
        <time>2017-05-07T09:38:02Z</time>
      </trkpt>
      <trkpt lat="45.9603" lon="4.77635">
        <ele>199</ele>
        <time>2017-05-07T09:38:03Z</time>
      </trkpt>
      <trkpt lat="45.96025" lon="4.7763">
        <ele>199</ele>
        <time>2017-05-07T09:38:04Z</time>
      </trkpt>
      <trkpt lat="45.9602" lon="4.77625">
        <ele>199</ele>
        <time>2017-05-07T09:38:05Z</time>
      </trkpt>
      <trkpt lat="45.96016" lon="4.77619">
        <ele>199</ele>
        <time>2017-05-07T09:38:06Z</time>
      </trkpt>
      <trkpt lat="45.96011" lon="4.77614">
        <ele>199</ele>
        <time>2017-05-07T09:38:07Z</time>
      </trkpt>
      <trkpt lat="45.96007" lon="4.77609">
        <ele>199</ele>
        <time>2017-05-07T09:38:08Z</time>
      </trkpt>
      <trkpt lat="45.96002" lon="4.77603">
        <ele>198</ele>
        <time>2017-05-07T09:38:09Z</time>
      </trkpt>
      <trkpt lat="45.95998" lon="4.77598">
        <ele>195</ele>
        <time>2017-05-07T09:38:10Z</time>
      </trkpt>
      <trkpt lat="45.95995" lon="4.77593">
        <ele>196</ele>
        <time>2017-05-07T09:38:11Z</time>
      </trkpt>
      <trkpt lat="45.95991" lon="4.77587">
        <ele>196</ele>
        <time>2017-05-07T09:38:12Z</time>
      </trkpt>
      <trkpt lat="45.95988" lon="4.77581">
        <ele>196</ele>
        <time>2017-05-07T09:38:13Z</time>
      </trkpt>
      <trkpt lat="45.95986" lon="4.77575">
        <ele>196</ele>
        <time>2017-05-07T09:38:14Z</time>
      </trkpt>
      <trkpt lat="45.95984" lon="4.7757">
        <ele>196</ele>
        <time>2017-05-07T09:38:15Z</time>
      </trkpt>
      <trkpt lat="45.95982" lon="4.77563">
        <ele>196</ele>
        <time>2017-05-07T09:38:16Z</time>
      </trkpt>
      <trkpt lat="45.9598" lon="4.77557">
        <ele>196</ele>
        <time>2017-05-07T09:38:17Z</time>
      </trkpt>
      <trkpt lat="45.95979" lon="4.7755">
        <ele>196</ele>
        <time>2017-05-07T09:38:18Z</time>
      </trkpt>
      <trkpt lat="45.95976" lon="4.77545">
        <ele>195</ele>
        <time>2017-05-07T09:38:19Z</time>
      </trkpt>
      <trkpt lat="45.95973" lon="4.77539">
        <ele>195</ele>
        <time>2017-05-07T09:38:20Z</time>
      </trkpt>
      <trkpt lat="45.9597" lon="4.77533">
        <ele>195</ele>
        <time>2017-05-07T09:38:21Z</time>
      </trkpt>
      <trkpt lat="45.95967" lon="4.77525">
        <ele>195</ele>
        <time>2017-05-07T09:38:22Z</time>
      </trkpt>
      <trkpt lat="45.95963" lon="4.77518">
        <ele>195</ele>
        <time>2017-05-07T09:38:23Z</time>
      </trkpt>
      <trkpt lat="45.9596" lon="4.7751">
        <ele>195</ele>
        <time>2017-05-07T09:38:24Z</time>
      </trkpt>
      <trkpt lat="45.95957" lon="4.77502">
        <ele>195</ele>
        <time>2017-05-07T09:38:25Z</time>
      </trkpt>
      <trkpt lat="45.95954" lon="4.77493">
        <ele>196</ele>
        <time>2017-05-07T09:38:26Z</time>
      </trkpt>
      <trkpt lat="45.95951" lon="4.77485">
        <ele>195</ele>
        <time>2017-05-07T09:38:27Z</time>
      </trkpt>
      <trkpt lat="45.95947" lon="4.77476">
        <ele>195</ele>
        <time>2017-05-07T09:38:28Z</time>
      </trkpt>
      <trkpt lat="45.95944" lon="4.77467">
        <ele>195</ele>
        <time>2017-05-07T09:38:29Z</time>
      </trkpt>
      <trkpt lat="45.95941" lon="4.77459">
        <ele>196</ele>
        <time>2017-05-07T09:38:30Z</time>
      </trkpt>
      <trkpt lat="45.95939" lon="4.7745">
        <ele>196</ele>
        <time>2017-05-07T09:38:31Z</time>
      </trkpt>
      <trkpt lat="45.95936" lon="4.77441">
        <ele>195</ele>
        <time>2017-05-07T09:38:32Z</time>
      </trkpt>
      <trkpt lat="45.95932" lon="4.77433">
        <ele>195</ele>
        <time>2017-05-07T09:38:33Z</time>
      </trkpt>
      <trkpt lat="45.95929" lon="4.77424">
        <ele>195</ele>
        <time>2017-05-07T09:38:34Z</time>
      </trkpt>
      <trkpt lat="45.95926" lon="4.77415">
        <ele>195</ele>
        <time>2017-05-07T09:38:35Z</time>
      </trkpt>
      <trkpt lat="45.95923" lon="4.77406">
        <ele>195</ele>
        <time>2017-05-07T09:38:36Z</time>
      </trkpt>
      <trkpt lat="45.9592" lon="4.77397">
        <ele>196</ele>
        <time>2017-05-07T09:38:37Z</time>
      </trkpt>
      <trkpt lat="45.95917" lon="4.77389">
        <ele>196</ele>
        <time>2017-05-07T09:38:38Z</time>
      </trkpt>
      <trkpt lat="45.95914" lon="4.77381">
        <ele>193</ele>
        <time>2017-05-07T09:38:39Z</time>
      </trkpt>
      <trkpt lat="45.95911" lon="4.77373">
        <ele>193</ele>
        <time>2017-05-07T09:38:40Z</time>
      </trkpt>
      <trkpt lat="45.95908" lon="4.77365">
        <ele>193</ele>
        <time>2017-05-07T09:38:41Z</time>
      </trkpt>
      <trkpt lat="45.95906" lon="4.77357">
        <ele>193</ele>
        <time>2017-05-07T09:38:42Z</time>
      </trkpt>
      <trkpt lat="45.95903" lon="4.77349">
        <ele>193</ele>
        <time>2017-05-07T09:38:43Z</time>
      </trkpt>
      <trkpt lat="45.95901" lon="4.77342">
        <ele>193</ele>
        <time>2017-05-07T09:38:44Z</time>
      </trkpt>
      <trkpt lat="45.95899" lon="4.77335">
        <ele>193</ele>
        <time>2017-05-07T09:38:45Z</time>
      </trkpt>
      <trkpt lat="45.95896" lon="4.77328">
        <ele>193</ele>
        <time>2017-05-07T09:38:46Z</time>
      </trkpt>
      <trkpt lat="45.95894" lon="4.77321">
        <ele>193</ele>
        <time>2017-05-07T09:38:47Z</time>
      </trkpt>
      <trkpt lat="45.95892" lon="4.77314">
        <ele>193</ele>
        <time>2017-05-07T09:38:48Z</time>
      </trkpt>
      <trkpt lat="45.9589" lon="4.77307">
        <ele>193</ele>
        <time>2017-05-07T09:38:49Z</time>
      </trkpt>
      <trkpt lat="45.95889" lon="4.773">
        <ele>193</ele>
        <time>2017-05-07T09:38:50Z</time>
      </trkpt>
      <trkpt lat="45.95887" lon="4.77293">
        <ele>193</ele>
        <time>2017-05-07T09:38:51Z</time>
      </trkpt>
      <trkpt lat="45.95885" lon="4.77286">
        <ele>193</ele>
        <time>2017-05-07T09:38:52Z</time>
      </trkpt>
      <trkpt lat="45.95883" lon="4.77279">
        <ele>193</ele>
        <time>2017-05-07T09:38:53Z</time>
      </trkpt>
      <trkpt lat="45.95881" lon="4.77271">
        <ele>193</ele>
        <time>2017-05-07T09:38:54Z</time>
      </trkpt>
      <trkpt lat="45.9588" lon="4.77264">
        <ele>193</ele>
        <time>2017-05-07T09:38:55Z</time>
      </trkpt>
      <trkpt lat="45.95878" lon="4.77257">
        <ele>193</ele>
        <time>2017-05-07T09:38:56Z</time>
      </trkpt>
      <trkpt lat="45.95876" lon="4.77249">
        <ele>193</ele>
        <time>2017-05-07T09:38:57Z</time>
      </trkpt>
      <trkpt lat="45.95874" lon="4.77242">
        <ele>193</ele>
        <time>2017-05-07T09:38:58Z</time>
      </trkpt>
      <trkpt lat="45.95872" lon="4.77234">
        <ele>193</ele>
        <time>2017-05-07T09:38:59Z</time>
      </trkpt>
      <trkpt lat="45.9587" lon="4.77226">
        <ele>193</ele>
        <time>2017-05-07T09:39:00Z</time>
      </trkpt>
      <trkpt lat="45.95869" lon="4.77218">
        <ele>193</ele>
        <time>2017-05-07T09:39:01Z</time>
      </trkpt>
      <trkpt lat="45.95866" lon="4.7721">
        <ele>193</ele>
        <time>2017-05-07T09:39:02Z</time>
      </trkpt>
      <trkpt lat="45.95865" lon="4.77202">
        <ele>193</ele>
        <time>2017-05-07T09:39:03Z</time>
      </trkpt>
      <trkpt lat="45.95863" lon="4.77193">
        <ele>192</ele>
        <time>2017-05-07T09:39:04Z</time>
      </trkpt>
      <trkpt lat="45.95861" lon="4.77184">
        <ele>192</ele>
        <time>2017-05-07T09:39:05Z</time>
      </trkpt>
      <trkpt lat="45.95859" lon="4.77176">
        <ele>192</ele>
        <time>2017-05-07T09:39:06Z</time>
      </trkpt>
      <trkpt lat="45.95857" lon="4.77167">
        <ele>192</ele>
        <time>2017-05-07T09:39:07Z</time>
      </trkpt>
      <trkpt lat="45.95854" lon="4.77159">
        <ele>192</ele>
        <time>2017-05-07T09:39:08Z</time>
      </trkpt>
      <trkpt lat="45.95852" lon="4.7715">
        <ele>192</ele>
        <time>2017-05-07T09:39:09Z</time>
      </trkpt>
      <trkpt lat="45.95849" lon="4.77141">
        <ele>193</ele>
        <time>2017-05-07T09:39:10Z</time>
      </trkpt>
      <trkpt lat="45.95846" lon="4.77133">
        <ele>193</ele>
        <time>2017-05-07T09:39:11Z</time>
      </trkpt>
      <trkpt lat="45.95844" lon="4.77124">
        <ele>193</ele>
        <time>2017-05-07T09:39:12Z</time>
      </trkpt>
      <trkpt lat="45.95842" lon="4.77116">
        <ele>193</ele>
        <time>2017-05-07T09:39:13Z</time>
      </trkpt>
      <trkpt lat="45.95839" lon="4.77107">
        <ele>193</ele>
        <time>2017-05-07T09:39:14Z</time>
      </trkpt>
      <trkpt lat="45.95837" lon="4.77099">
        <ele>193</ele>
        <time>2017-05-07T09:39:15Z</time>
      </trkpt>
      <trkpt lat="45.95834" lon="4.7709">
        <ele>192</ele>
        <time>2017-05-07T09:39:16Z</time>
      </trkpt>
      <trkpt lat="45.95832" lon="4.77082">
        <ele>192</ele>
        <time>2017-05-07T09:39:17Z</time>
      </trkpt>
      <trkpt lat="45.9583" lon="4.77074">
        <ele>191</ele>
        <time>2017-05-07T09:39:18Z</time>
      </trkpt>
      <trkpt lat="45.95827" lon="4.77067">
        <ele>191</ele>
        <time>2017-05-07T09:39:19Z</time>
      </trkpt>
      <trkpt lat="45.95823" lon="4.7706">
        <ele>190</ele>
        <time>2017-05-07T09:39:20Z</time>
      </trkpt>
      <trkpt lat="45.9582" lon="4.77053">
        <ele>190</ele>
        <time>2017-05-07T09:39:21Z</time>
      </trkpt>
      <trkpt lat="45.95816" lon="4.77046">
        <ele>190</ele>
        <time>2017-05-07T09:39:22Z</time>
      </trkpt>
      <trkpt lat="45.95813" lon="4.77039">
        <ele>190</ele>
        <time>2017-05-07T09:39:23Z</time>
      </trkpt>
      <trkpt lat="45.95809" lon="4.77032">
        <ele>190</ele>
        <time>2017-05-07T09:39:24Z</time>
      </trkpt>
      <trkpt lat="45.95806" lon="4.77025">
        <ele>190</ele>
        <time>2017-05-07T09:39:25Z</time>
      </trkpt>
      <trkpt lat="45.95804" lon="4.77018">
        <ele>190</ele>
        <time>2017-05-07T09:39:26Z</time>
      </trkpt>
      <trkpt lat="45.95802" lon="4.7701">
        <ele>190</ele>
        <time>2017-05-07T09:39:27Z</time>
      </trkpt>
      <trkpt lat="45.95801" lon="4.77002">
        <ele>190</ele>
        <time>2017-05-07T09:39:28Z</time>
      </trkpt>
      <trkpt lat="45.95801" lon="4.76994">
        <ele>189</ele>
        <time>2017-05-07T09:39:29Z</time>
      </trkpt>
      <trkpt lat="45.95801" lon="4.76986">
        <ele>189</ele>
        <time>2017-05-07T09:39:30Z</time>
      </trkpt>
      <trkpt lat="45.95801" lon="4.76979">
        <ele>189</ele>
        <time>2017-05-07T09:39:31Z</time>
      </trkpt>
      <trkpt lat="45.95802" lon="4.76972">
        <ele>189</ele>
        <time>2017-05-07T09:39:32Z</time>
      </trkpt>
      <trkpt lat="45.95803" lon="4.76965">
        <ele>189</ele>
        <time>2017-05-07T09:39:33Z</time>
      </trkpt>
      <trkpt lat="45.95804" lon="4.76958">
        <ele>189</ele>
        <time>2017-05-07T09:39:34Z</time>
      </trkpt>
      <trkpt lat="45.95806" lon="4.7695">
        <ele>189</ele>
        <time>2017-05-07T09:39:35Z</time>
      </trkpt>
      <trkpt lat="45.95808" lon="4.76942">
        <ele>189</ele>
        <time>2017-05-07T09:39:36Z</time>
      </trkpt>
      <trkpt lat="45.95809" lon="4.76934">
        <ele>189</ele>
        <time>2017-05-07T09:39:37Z</time>
      </trkpt>
      <trkpt lat="45.95811" lon="4.76925">
        <ele>189</ele>
        <time>2017-05-07T09:39:38Z</time>
      </trkpt>
      <trkpt lat="45.95813" lon="4.76917">
        <ele>189</ele>
        <time>2017-05-07T09:39:39Z</time>
      </trkpt>
      <trkpt lat="45.95814" lon="4.76908">
        <ele>189</ele>
        <time>2017-05-07T09:39:40Z</time>
      </trkpt>
      <trkpt lat="45.95815" lon="4.769">
        <ele>189</ele>
        <time>2017-05-07T09:39:41Z</time>
      </trkpt>
      <trkpt lat="45.95817" lon="4.76891">
        <ele>189</ele>
        <time>2017-05-07T09:39:42Z</time>
      </trkpt>
      <trkpt lat="45.95819" lon="4.76883">
        <ele>189</ele>
        <time>2017-05-07T09:39:43Z</time>
      </trkpt>
      <trkpt lat="45.9582" lon="4.76876">
        <ele>189</ele>
        <time>2017-05-07T09:39:44Z</time>
      </trkpt>
      <trkpt lat="45.95822" lon="4.76868">
        <ele>189</ele>
        <time>2017-05-07T09:39:45Z</time>
      </trkpt>
      <trkpt lat="45.95823" lon="4.76861">
        <ele>189</ele>
        <time>2017-05-07T09:39:46Z</time>
      </trkpt>
      <trkpt lat="45.95825" lon="4.76854">
        <ele>189</ele>
        <time>2017-05-07T09:39:47Z</time>
      </trkpt>
      <trkpt lat="45.95826" lon="4.76847">
        <ele>190</ele>
        <time>2017-05-07T09:39:48Z</time>
      </trkpt>
      <trkpt lat="45.95827" lon="4.7684">
        <ele>190</ele>
        <time>2017-05-07T09:39:49Z</time>
      </trkpt>
      <trkpt lat="45.95829" lon="4.76834">
        <ele>190</ele>
        <time>2017-05-07T09:39:50Z</time>
      </trkpt>
      <trkpt lat="45.9583" lon="4.76828">
        <ele>190</ele>
        <time>2017-05-07T09:39:51Z</time>
      </trkpt>
      <trkpt lat="45.95832" lon="4.76816">
        <ele>190</ele>
        <time>2017-05-07T09:39:53Z</time>
      </trkpt>
      <trkpt lat="45.95833" lon="4.7681">
        <ele>190</ele>
        <time>2017-05-07T09:39:54Z</time>
      </trkpt>
      <trkpt lat="45.95834" lon="4.76804">
        <ele>191</ele>
        <time>2017-05-07T09:39:55Z</time>
      </trkpt>
      <trkpt lat="45.95834" lon="4.76797">
        <ele>191</ele>
        <time>2017-05-07T09:39:56Z</time>
      </trkpt>
      <trkpt lat="45.95833" lon="4.7679">
        <ele>190</ele>
        <time>2017-05-07T09:39:57Z</time>
      </trkpt>
      <trkpt lat="45.95832" lon="4.76783">
        <ele>190</ele>
        <time>2017-05-07T09:39:58Z</time>
      </trkpt>
      <trkpt lat="45.9583" lon="4.76776">
        <ele>190</ele>
        <time>2017-05-07T09:39:59Z</time>
      </trkpt>
      <trkpt lat="45.95828" lon="4.76768">
        <ele>190</ele>
        <time>2017-05-07T09:40:00Z</time>
      </trkpt>
      <trkpt lat="45.95826" lon="4.76759">
        <ele>191</ele>
        <time>2017-05-07T09:40:01Z</time>
      </trkpt>
      <trkpt lat="45.95824" lon="4.76751">
        <ele>191</ele>
        <time>2017-05-07T09:40:02Z</time>
      </trkpt>
      <trkpt lat="45.95823" lon="4.76742">
        <ele>190</ele>
        <time>2017-05-07T09:40:03Z</time>
      </trkpt>
      <trkpt lat="45.95822" lon="4.76734">
        <ele>190</ele>
        <time>2017-05-07T09:40:04Z</time>
      </trkpt>
      <trkpt lat="45.9582" lon="4.76726">
        <ele>190</ele>
        <time>2017-05-07T09:40:05Z</time>
      </trkpt>
      <trkpt lat="45.9582" lon="4.76718">
        <ele>189</ele>
        <time>2017-05-07T09:40:06Z</time>
      </trkpt>
      <trkpt lat="45.95819" lon="4.76711">
        <ele>189</ele>
        <time>2017-05-07T09:40:07Z</time>
      </trkpt>
      <trkpt lat="45.95817" lon="4.76703">
        <ele>189</ele>
        <time>2017-05-07T09:40:08Z</time>
      </trkpt>
      <trkpt lat="45.95816" lon="4.76696">
        <ele>189</ele>
        <time>2017-05-07T09:40:09Z</time>
      </trkpt>
      <trkpt lat="45.95815" lon="4.76689">
        <ele>189</ele>
        <time>2017-05-07T09:40:10Z</time>
      </trkpt>
      <trkpt lat="45.95814" lon="4.76682">
        <ele>189</ele>
        <time>2017-05-07T09:40:11Z</time>
      </trkpt>
      <trkpt lat="45.95812" lon="4.76674">
        <ele>189</ele>
        <time>2017-05-07T09:40:12Z</time>
      </trkpt>
      <trkpt lat="45.95812" lon="4.76667">
        <ele>188</ele>
        <time>2017-05-07T09:40:13Z</time>
      </trkpt>
      <trkpt lat="45.95811" lon="4.76659">
        <ele>188</ele>
        <time>2017-05-07T09:40:14Z</time>
      </trkpt>
      <trkpt lat="45.95811" lon="4.76652">
        <ele>188</ele>
        <time>2017-05-07T09:40:15Z</time>
      </trkpt>
      <trkpt lat="45.9581" lon="4.76644">
        <ele>188</ele>
        <time>2017-05-07T09:40:16Z</time>
      </trkpt>
      <trkpt lat="45.95809" lon="4.76637">
        <ele>188</ele>
        <time>2017-05-07T09:40:17Z</time>
      </trkpt>
      <trkpt lat="45.95808" lon="4.76629">
        <ele>188</ele>
        <time>2017-05-07T09:40:18Z</time>
      </trkpt>
      <trkpt lat="45.95807" lon="4.76621">
        <ele>188</ele>
        <time>2017-05-07T09:40:19Z</time>
      </trkpt>
      <trkpt lat="45.95806" lon="4.76614">
        <ele>188</ele>
        <time>2017-05-07T09:40:20Z</time>
      </trkpt>
      <trkpt lat="45.95805" lon="4.76606">
        <ele>188</ele>
        <time>2017-05-07T09:40:21Z</time>
      </trkpt>
      <trkpt lat="45.95804" lon="4.76598">
        <ele>188</ele>
        <time>2017-05-07T09:40:22Z</time>
      </trkpt>
      <trkpt lat="45.95803" lon="4.7659">
        <ele>187</ele>
        <time>2017-05-07T09:40:23Z</time>
      </trkpt>
      <trkpt lat="45.95802" lon="4.76583">
        <ele>187</ele>
        <time>2017-05-07T09:40:24Z</time>
      </trkpt>
      <trkpt lat="45.95801" lon="4.76576">
        <ele>187</ele>
        <time>2017-05-07T09:40:25Z</time>
      </trkpt>
      <trkpt lat="45.95799" lon="4.76568">
        <ele>187</ele>
        <time>2017-05-07T09:40:26Z</time>
      </trkpt>
      <trkpt lat="45.95798" lon="4.76561">
        <ele>187</ele>
        <time>2017-05-07T09:40:27Z</time>
      </trkpt>
      <trkpt lat="45.95797" lon="4.76553">
        <ele>187</ele>
        <time>2017-05-07T09:40:28Z</time>
      </trkpt>
      <trkpt lat="45.95795" lon="4.76545">
        <ele>187</ele>
        <time>2017-05-07T09:40:29Z</time>
      </trkpt>
      <trkpt lat="45.95794" lon="4.76537">
        <ele>187</ele>
        <time>2017-05-07T09:40:30Z</time>
      </trkpt>
      <trkpt lat="45.95793" lon="4.76529">
        <ele>187</ele>
        <time>2017-05-07T09:40:31Z</time>
      </trkpt>
      <trkpt lat="45.95791" lon="4.76521">
        <ele>187</ele>
        <time>2017-05-07T09:40:32Z</time>
      </trkpt>
      <trkpt lat="45.9579" lon="4.76512">
        <ele>187</ele>
        <time>2017-05-07T09:40:33Z</time>
      </trkpt>
      <trkpt lat="45.95789" lon="4.76504">
        <ele>187</ele>
        <time>2017-05-07T09:40:34Z</time>
      </trkpt>
      <trkpt lat="45.95788" lon="4.76496">
        <ele>186</ele>
        <time>2017-05-07T09:40:35Z</time>
      </trkpt>
      <trkpt lat="45.95786" lon="4.76488">
        <ele>186</ele>
        <time>2017-05-07T09:40:36Z</time>
      </trkpt>
      <trkpt lat="45.95785" lon="4.7648">
        <ele>186</ele>
        <time>2017-05-07T09:40:37Z</time>
      </trkpt>
      <trkpt lat="45.95784" lon="4.76473">
        <ele>186</ele>
        <time>2017-05-07T09:40:38Z</time>
      </trkpt>
      <trkpt lat="45.95783" lon="4.76465">
        <ele>186</ele>
        <time>2017-05-07T09:40:39Z</time>
      </trkpt>
      <trkpt lat="45.95782" lon="4.76457">
        <ele>186</ele>
        <time>2017-05-07T09:40:40Z</time>
      </trkpt>
      <trkpt lat="45.95782" lon="4.7645">
        <ele>186</ele>
        <time>2017-05-07T09:40:41Z</time>
      </trkpt>
      <trkpt lat="45.95781" lon="4.76443">
        <ele>186</ele>
        <time>2017-05-07T09:40:42Z</time>
      </trkpt>
      <trkpt lat="45.9578" lon="4.76436">
        <ele>186</ele>
        <time>2017-05-07T09:40:43Z</time>
      </trkpt>
      <trkpt lat="45.95779" lon="4.76429">
        <ele>186</ele>
        <time>2017-05-07T09:40:44Z</time>
      </trkpt>
      <trkpt lat="45.95779" lon="4.76422">
        <ele>186</ele>
        <time>2017-05-07T09:40:45Z</time>
      </trkpt>
      <trkpt lat="45.95779" lon="4.76415">
        <ele>186</ele>
        <time>2017-05-07T09:40:46Z</time>
      </trkpt>
      <trkpt lat="45.95778" lon="4.76403">
        <ele>186</ele>
        <time>2017-05-07T09:40:48Z</time>
      </trkpt>
      <trkpt lat="45.95777" lon="4.76396">
        <ele>186</ele>
        <time>2017-05-07T09:40:49Z</time>
      </trkpt>
      <trkpt lat="45.95776" lon="4.76389">
        <ele>186</ele>
        <time>2017-05-07T09:40:50Z</time>
      </trkpt>
      <trkpt lat="45.95776" lon="4.76382">
        <ele>186</ele>
        <time>2017-05-07T09:40:51Z</time>
      </trkpt>
      <trkpt lat="45.95775" lon="4.76375">
        <ele>186</ele>
        <time>2017-05-07T09:40:52Z</time>
      </trkpt>
      <trkpt lat="45.95775" lon="4.76369">
        <ele>186</ele>
        <time>2017-05-07T09:40:53Z</time>
      </trkpt>
      <trkpt lat="45.95774" lon="4.76361">
        <ele>186</ele>
        <time>2017-05-07T09:40:54Z</time>
      </trkpt>
      <trkpt lat="45.95773" lon="4.76354">
        <ele>186</ele>
        <time>2017-05-07T09:40:55Z</time>
      </trkpt>
      <trkpt lat="45.95773" lon="4.76347">
        <ele>186</ele>
        <time>2017-05-07T09:40:56Z</time>
      </trkpt>
      <trkpt lat="45.95773" lon="4.76339">
        <ele>186</ele>
        <time>2017-05-07T09:40:57Z</time>
      </trkpt>
      <trkpt lat="45.95772" lon="4.76332">
        <ele>185</ele>
        <time>2017-05-07T09:40:58Z</time>
      </trkpt>
      <trkpt lat="45.95772" lon="4.76324">
        <ele>185</ele>
        <time>2017-05-07T09:40:59Z</time>
      </trkpt>
      <trkpt lat="45.95772" lon="4.76317">
        <ele>185</ele>
        <time>2017-05-07T09:41:00Z</time>
      </trkpt>
      <trkpt lat="45.95771" lon="4.76309">
        <ele>186</ele>
        <time>2017-05-07T09:41:01Z</time>
      </trkpt>
      <trkpt lat="45.95771" lon="4.76302">
        <ele>186</ele>
        <time>2017-05-07T09:41:02Z</time>
      </trkpt>
      <trkpt lat="45.9577" lon="4.76294">
        <ele>186</ele>
        <time>2017-05-07T09:41:03Z</time>
      </trkpt>
      <trkpt lat="45.9577" lon="4.76286">
        <ele>186</ele>
        <time>2017-05-07T09:41:04Z</time>
      </trkpt>
      <trkpt lat="45.95769" lon="4.76278">
        <ele>186</ele>
        <time>2017-05-07T09:41:05Z</time>
      </trkpt>
      <trkpt lat="45.95769" lon="4.7627">
        <ele>186</ele>
        <time>2017-05-07T09:41:06Z</time>
      </trkpt>
      <trkpt lat="45.95768" lon="4.76261">
        <ele>185</ele>
        <time>2017-05-07T09:41:07Z</time>
      </trkpt>
      <trkpt lat="45.95767" lon="4.76254">
        <ele>185</ele>
        <time>2017-05-07T09:41:08Z</time>
      </trkpt>
      <trkpt lat="45.95767" lon="4.76246">
        <ele>186</ele>
        <time>2017-05-07T09:41:09Z</time>
      </trkpt>
      <trkpt lat="45.95766" lon="4.76239">
        <ele>186</ele>
        <time>2017-05-07T09:41:10Z</time>
      </trkpt>
      <trkpt lat="45.95766" lon="4.76232">
        <ele>186</ele>
        <time>2017-05-07T09:41:11Z</time>
      </trkpt>
      <trkpt lat="45.95765" lon="4.76225">
        <ele>186</ele>
        <time>2017-05-07T09:41:12Z</time>
      </trkpt>
      <trkpt lat="45.95765" lon="4.76217">
        <ele>186</ele>
        <time>2017-05-07T09:41:13Z</time>
      </trkpt>
      <trkpt lat="45.95764" lon="4.76208">
        <ele>186</ele>
        <time>2017-05-07T09:41:14Z</time>
      </trkpt>
      <trkpt lat="45.95763" lon="4.762">
        <ele>186</ele>
        <time>2017-05-07T09:41:15Z</time>
      </trkpt>
      <trkpt lat="45.95763" lon="4.76191">
        <ele>186</ele>
        <time>2017-05-07T09:41:16Z</time>
      </trkpt>
      <trkpt lat="45.95762" lon="4.76182">
        <ele>186</ele>
        <time>2017-05-07T09:41:17Z</time>
      </trkpt>
      <trkpt lat="45.95761" lon="4.76174">
        <ele>185</ele>
        <time>2017-05-07T09:41:18Z</time>
      </trkpt>
      <trkpt lat="45.95761" lon="4.76165">
        <ele>186</ele>
        <time>2017-05-07T09:41:19Z</time>
      </trkpt>
      <trkpt lat="45.9576" lon="4.76156">
        <ele>186</ele>
        <time>2017-05-07T09:41:20Z</time>
      </trkpt>
      <trkpt lat="45.9576" lon="4.76147">
        <ele>186</ele>
        <time>2017-05-07T09:41:21Z</time>
      </trkpt>
      <trkpt lat="45.95759" lon="4.76139">
        <ele>186</ele>
        <time>2017-05-07T09:41:22Z</time>
      </trkpt>
      <trkpt lat="45.95758" lon="4.76131">
        <ele>186</ele>
        <time>2017-05-07T09:41:23Z</time>
      </trkpt>
      <trkpt lat="45.95758" lon="4.76123">
        <ele>186</ele>
        <time>2017-05-07T09:41:24Z</time>
      </trkpt>
      <trkpt lat="45.95757" lon="4.76116">
        <ele>186</ele>
        <time>2017-05-07T09:41:25Z</time>
      </trkpt>
      <trkpt lat="45.95755" lon="4.7611">
        <ele>186</ele>
        <time>2017-05-07T09:41:26Z</time>
      </trkpt>
      <trkpt lat="45.95754" lon="4.76103">
        <ele>186</ele>
        <time>2017-05-07T09:41:27Z</time>
      </trkpt>
      <trkpt lat="45.95752" lon="4.76097">
        <ele>186</ele>
        <time>2017-05-07T09:41:28Z</time>
      </trkpt>
      <trkpt lat="45.9575" lon="4.7609">
        <ele>185</ele>
        <time>2017-05-07T09:41:29Z</time>
      </trkpt>
      <trkpt lat="45.95748" lon="4.76084">
        <ele>185</ele>
        <time>2017-05-07T09:41:30Z</time>
      </trkpt>
      <trkpt lat="45.95745" lon="4.76077">
        <ele>185</ele>
        <time>2017-05-07T09:41:31Z</time>
      </trkpt>
      <trkpt lat="45.95743" lon="4.7607">
        <ele>185</ele>
        <time>2017-05-07T09:41:32Z</time>
      </trkpt>
      <trkpt lat="45.9574" lon="4.76063">
        <ele>184</ele>
        <time>2017-05-07T09:41:33Z</time>
      </trkpt>
      <trkpt lat="45.95736" lon="4.76056">
        <ele>184</ele>
        <time>2017-05-07T09:41:34Z</time>
      </trkpt>
      <trkpt lat="45.95733" lon="4.7605">
        <ele>184</ele>
        <time>2017-05-07T09:41:35Z</time>
      </trkpt>
      <trkpt lat="45.9573" lon="4.76043">
        <ele>184</ele>
        <time>2017-05-07T09:41:36Z</time>
      </trkpt>
      <trkpt lat="45.95727" lon="4.76036">
        <ele>184</ele>
        <time>2017-05-07T09:41:37Z</time>
      </trkpt>
      <trkpt lat="45.95724" lon="4.76029">
        <ele>184</ele>
        <time>2017-05-07T09:41:38Z</time>
      </trkpt>
      <trkpt lat="45.95721" lon="4.76021">
        <ele>184</ele>
        <time>2017-05-07T09:41:39Z</time>
      </trkpt>
      <trkpt lat="45.95718" lon="4.76014">
        <ele>184</ele>
        <time>2017-05-07T09:41:40Z</time>
      </trkpt>
      <trkpt lat="45.95714" lon="4.76007">
        <ele>184</ele>
        <time>2017-05-07T09:41:41Z</time>
      </trkpt>
      <trkpt lat="45.95711" lon="4.76001">
        <ele>184</ele>
        <time>2017-05-07T09:41:42Z</time>
      </trkpt>
      <trkpt lat="45.95708" lon="4.75994">
        <ele>185</ele>
        <time>2017-05-07T09:41:43Z</time>
      </trkpt>
      <trkpt lat="45.95705" lon="4.75987">
        <ele>185</ele>
        <time>2017-05-07T09:41:44Z</time>
      </trkpt>
      <trkpt lat="45.95702" lon="4.75981">
        <ele>185</ele>
        <time>2017-05-07T09:41:45Z</time>
      </trkpt>
      <trkpt lat="45.95699" lon="4.75975">
        <ele>185</ele>
        <time>2017-05-07T09:41:46Z</time>
      </trkpt>
      <trkpt lat="45.95696" lon="4.75969">
        <ele>185</ele>
        <time>2017-05-07T09:41:47Z</time>
      </trkpt>
      <trkpt lat="45.95694" lon="4.75963">
        <ele>185</ele>
        <time>2017-05-07T09:41:48Z</time>
      </trkpt>
      <trkpt lat="45.95691" lon="4.75957">
        <ele>185</ele>
        <time>2017-05-07T09:41:49Z</time>
      </trkpt>
      <trkpt lat="45.95689" lon="4.75951">
        <ele>185</ele>
        <time>2017-05-07T09:41:50Z</time>
      </trkpt>
      <trkpt lat="45.95686" lon="4.75945">
        <ele>185</ele>
        <time>2017-05-07T09:41:51Z</time>
      </trkpt>
      <trkpt lat="45.95683" lon="4.75939">
        <ele>185</ele>
        <time>2017-05-07T09:41:52Z</time>
      </trkpt>
      <trkpt lat="45.95681" lon="4.75933">
        <ele>185</ele>
        <time>2017-05-07T09:41:53Z</time>
      </trkpt>
      <trkpt lat="45.95678" lon="4.75927">
        <ele>185</ele>
        <time>2017-05-07T09:41:54Z</time>
      </trkpt>
      <trkpt lat="45.95675" lon="4.7592">
        <ele>184</ele>
        <time>2017-05-07T09:41:55Z</time>
      </trkpt>
      <trkpt lat="45.95673" lon="4.75914">
        <ele>185</ele>
        <time>2017-05-07T09:41:56Z</time>
      </trkpt>
      <trkpt lat="45.9567" lon="4.75907">
        <ele>185</ele>
        <time>2017-05-07T09:41:57Z</time>
      </trkpt>
      <trkpt lat="45.95668" lon="4.75901">
        <ele>185</ele>
        <time>2017-05-07T09:41:58Z</time>
      </trkpt>
      <trkpt lat="45.95665" lon="4.75894">
        <ele>184</ele>
        <time>2017-05-07T09:41:59Z</time>
      </trkpt>
      <trkpt lat="45.95663" lon="4.75887">
        <ele>184</ele>
        <time>2017-05-07T09:42:00Z</time>
      </trkpt>
      <trkpt lat="45.95661" lon="4.7588">
        <ele>184</ele>
        <time>2017-05-07T09:42:01Z</time>
      </trkpt>
      <trkpt lat="45.95658" lon="4.75873">
        <ele>184</ele>
        <time>2017-05-07T09:42:02Z</time>
      </trkpt>
      <trkpt lat="45.95656" lon="4.75866">
        <ele>184</ele>
        <time>2017-05-07T09:42:03Z</time>
      </trkpt>
      <trkpt lat="45.95654" lon="4.75859">
        <ele>184</ele>
        <time>2017-05-07T09:42:04Z</time>
      </trkpt>
      <trkpt lat="45.95652" lon="4.75851">
        <ele>184</ele>
        <time>2017-05-07T09:42:05Z</time>
      </trkpt>
      <trkpt lat="45.9565" lon="4.75844">
        <ele>185</ele>
        <time>2017-05-07T09:42:06Z</time>
      </trkpt>
      <trkpt lat="45.95648" lon="4.75836">
        <ele>185</ele>
        <time>2017-05-07T09:42:07Z</time>
      </trkpt>
      <trkpt lat="45.95647" lon="4.75829">
        <ele>185</ele>
        <time>2017-05-07T09:42:08Z</time>
      </trkpt>
      <trkpt lat="45.95646" lon="4.75822">
        <ele>185</ele>
        <time>2017-05-07T09:42:09Z</time>
      </trkpt>
      <trkpt lat="45.95645" lon="4.75814">
        <ele>185</ele>
        <time>2017-05-07T09:42:10Z</time>
      </trkpt>
      <trkpt lat="45.95643" lon="4.75807">
        <ele>185</ele>
        <time>2017-05-07T09:42:11Z</time>
      </trkpt>
      <trkpt lat="45.95642" lon="4.758">
        <ele>185</ele>
        <time>2017-05-07T09:42:12Z</time>
      </trkpt>
      <trkpt lat="45.95641" lon="4.75793">
        <ele>185</ele>
        <time>2017-05-07T09:42:13Z</time>
      </trkpt>
      <trkpt lat="45.9564" lon="4.75786">
        <ele>185</ele>
        <time>2017-05-07T09:42:14Z</time>
      </trkpt>
      <trkpt lat="45.95639" lon="4.75779">
        <ele>186</ele>
        <time>2017-05-07T09:42:15Z</time>
      </trkpt>
      <trkpt lat="45.95639" lon="4.75772">
        <ele>186</ele>
        <time>2017-05-07T09:42:16Z</time>
      </trkpt>
      <trkpt lat="45.95638" lon="4.75765">
        <ele>186</ele>
        <time>2017-05-07T09:42:17Z</time>
      </trkpt>
      <trkpt lat="45.95637" lon="4.75759">
        <ele>186</ele>
        <time>2017-05-07T09:42:18Z</time>
      </trkpt>
      <trkpt lat="45.95635" lon="4.75752">
        <ele>186</ele>
        <time>2017-05-07T09:42:19Z</time>
      </trkpt>
      <trkpt lat="45.95634" lon="4.75744">
        <ele>187</ele>
        <time>2017-05-07T09:42:20Z</time>
      </trkpt>
      <trkpt lat="45.95633" lon="4.75737">
        <ele>187</ele>
        <time>2017-05-07T09:42:21Z</time>
      </trkpt>
      <trkpt lat="45.95632" lon="4.7573">
        <ele>187</ele>
        <time>2017-05-07T09:42:22Z</time>
      </trkpt>
      <trkpt lat="45.9563" lon="4.75723">
        <ele>187</ele>
        <time>2017-05-07T09:42:23Z</time>
      </trkpt>
      <trkpt lat="45.9563" lon="4.75716">
        <ele>187</ele>
        <time>2017-05-07T09:42:24Z</time>
      </trkpt>
      <trkpt lat="45.95629" lon="4.7571">
        <ele>187</ele>
        <time>2017-05-07T09:42:25Z</time>
      </trkpt>
      <trkpt lat="45.95628" lon="4.75704">
        <ele>187</ele>
        <time>2017-05-07T09:42:26Z</time>
      </trkpt>
      <trkpt lat="45.95627" lon="4.75697">
        <ele>187</ele>
        <time>2017-05-07T09:42:27Z</time>
      </trkpt>
      <trkpt lat="45.95626" lon="4.75691">
        <ele>187</ele>
        <time>2017-05-07T09:42:28Z</time>
      </trkpt>
      <trkpt lat="45.95625" lon="4.75684">
        <ele>187</ele>
        <time>2017-05-07T09:42:29Z</time>
      </trkpt>
      <trkpt lat="45.95624" lon="4.75677">
        <ele>187</ele>
        <time>2017-05-07T09:42:30Z</time>
      </trkpt>
      <trkpt lat="45.95623" lon="4.75671">
        <ele>187</ele>
        <time>2017-05-07T09:42:31Z</time>
      </trkpt>
      <trkpt lat="45.95622" lon="4.75664">
        <ele>188</ele>
        <time>2017-05-07T09:42:32Z</time>
      </trkpt>
      <trkpt lat="45.9562" lon="4.75657">
        <ele>188</ele>
        <time>2017-05-07T09:42:33Z</time>
      </trkpt>
      <trkpt lat="45.95619" lon="4.75649">
        <ele>188</ele>
        <time>2017-05-07T09:42:34Z</time>
      </trkpt>
      <trkpt lat="45.95616" lon="4.75642">
        <ele>188</ele>
        <time>2017-05-07T09:42:35Z</time>
      </trkpt>
      <trkpt lat="45.95615" lon="4.75635">
        <ele>188</ele>
        <time>2017-05-07T09:42:36Z</time>
      </trkpt>
      <trkpt lat="45.95612" lon="4.75628">
        <ele>188</ele>
        <time>2017-05-07T09:42:37Z</time>
      </trkpt>
      <trkpt lat="45.9561" lon="4.75621">
        <ele>188</ele>
        <time>2017-05-07T09:42:38Z</time>
      </trkpt>
      <trkpt lat="45.95608" lon="4.75614">
        <ele>188</ele>
        <time>2017-05-07T09:42:39Z</time>
      </trkpt>
      <trkpt lat="45.95605" lon="4.75608">
        <ele>187</ele>
        <time>2017-05-07T09:42:40Z</time>
      </trkpt>
      <trkpt lat="45.95603" lon="4.75602">
        <ele>187</ele>
        <time>2017-05-07T09:42:41Z</time>
      </trkpt>
      <trkpt lat="45.95601" lon="4.75596">
        <ele>187</ele>
        <time>2017-05-07T09:42:42Z</time>
      </trkpt>
      <trkpt lat="45.95598" lon="4.75589">
        <ele>187</ele>
        <time>2017-05-07T09:42:43Z</time>
      </trkpt>
      <trkpt lat="45.95595" lon="4.75583">
        <ele>187</ele>
        <time>2017-05-07T09:42:44Z</time>
      </trkpt>
      <trkpt lat="45.95592" lon="4.75577">
        <ele>187</ele>
        <time>2017-05-07T09:42:45Z</time>
      </trkpt>
      <trkpt lat="45.95589" lon="4.75571">
        <ele>187</ele>
        <time>2017-05-07T09:42:46Z</time>
      </trkpt>
      <trkpt lat="45.95586" lon="4.75565">
        <ele>188</ele>
        <time>2017-05-07T09:42:47Z</time>
      </trkpt>
      <trkpt lat="45.95582" lon="4.7556">
        <ele>186</ele>
        <time>2017-05-07T09:42:48Z</time>
      </trkpt>
      <trkpt lat="45.95578" lon="4.75555">
        <ele>186</ele>
        <time>2017-05-07T09:42:49Z</time>
      </trkpt>
      <trkpt lat="45.95574" lon="4.7555">
        <ele>186</ele>
        <time>2017-05-07T09:42:50Z</time>
      </trkpt>
      <trkpt lat="45.9557" lon="4.75545">
        <ele>186</ele>
        <time>2017-05-07T09:42:51Z</time>
      </trkpt>
      <trkpt lat="45.95565" lon="4.7554">
        <ele>186</ele>
        <time>2017-05-07T09:42:52Z</time>
      </trkpt>
      <trkpt lat="45.95561" lon="4.75535">
        <ele>186</ele>
        <time>2017-05-07T09:42:53Z</time>
      </trkpt>
      <trkpt lat="45.95557" lon="4.7553">
        <ele>186</ele>
        <time>2017-05-07T09:42:54Z</time>
      </trkpt>
      <trkpt lat="45.95553" lon="4.75525">
        <ele>186</ele>
        <time>2017-05-07T09:42:55Z</time>
      </trkpt>
      <trkpt lat="45.95548" lon="4.7552">
        <ele>186</ele>
        <time>2017-05-07T09:42:56Z</time>
      </trkpt>
      <trkpt lat="45.95545" lon="4.75515">
        <ele>186</ele>
        <time>2017-05-07T09:42:57Z</time>
      </trkpt>
      <trkpt lat="45.95542" lon="4.75509">
        <ele>186</ele>
        <time>2017-05-07T09:42:58Z</time>
      </trkpt>
      <trkpt lat="45.9554" lon="4.75503">
        <ele>186</ele>
        <time>2017-05-07T09:42:59Z</time>
      </trkpt>
      <trkpt lat="45.95538" lon="4.75496">
        <ele>187</ele>
        <time>2017-05-07T09:43:00Z</time>
      </trkpt>
      <trkpt lat="45.95538" lon="4.75489">
        <ele>187</ele>
        <time>2017-05-07T09:43:01Z</time>
      </trkpt>
      <trkpt lat="45.95538" lon="4.75482">
        <ele>187</ele>
        <time>2017-05-07T09:43:02Z</time>
      </trkpt>
      <trkpt lat="45.95537" lon="4.75475">
        <ele>187</ele>
        <time>2017-05-07T09:43:03Z</time>
      </trkpt>
      <trkpt lat="45.95536" lon="4.75469">
        <ele>187</ele>
        <time>2017-05-07T09:43:04Z</time>
      </trkpt>
      <trkpt lat="45.95534" lon="4.75462">
        <ele>187</ele>
        <time>2017-05-07T09:43:05Z</time>
      </trkpt>
      <trkpt lat="45.9553" lon="4.75456">
        <ele>187</ele>
        <time>2017-05-07T09:43:06Z</time>
      </trkpt>
      <trkpt lat="45.95525" lon="4.75451">
        <ele>187</ele>
        <time>2017-05-07T09:43:07Z</time>
      </trkpt>
      <trkpt lat="45.95521" lon="4.75445">
        <ele>187</ele>
        <time>2017-05-07T09:43:08Z</time>
      </trkpt>
      <trkpt lat="45.95517" lon="4.75438">
        <ele>187</ele>
        <time>2017-05-07T09:43:09Z</time>
      </trkpt>
      <trkpt lat="45.95514" lon="4.75431">
        <ele>186</ele>
        <time>2017-05-07T09:43:10Z</time>
      </trkpt>
      <trkpt lat="45.95512" lon="4.75424">
        <ele>186</ele>
        <time>2017-05-07T09:43:11Z</time>
      </trkpt>
      <trkpt lat="45.9551" lon="4.75417">
        <ele>186</ele>
        <time>2017-05-07T09:43:12Z</time>
      </trkpt>
      <trkpt lat="45.95508" lon="4.75411">
        <ele>187</ele>
        <time>2017-05-07T09:43:13Z</time>
      </trkpt>
      <trkpt lat="45.95506" lon="4.75405">
        <ele>187</ele>
        <time>2017-05-07T09:43:14Z</time>
      </trkpt>
      <trkpt lat="45.95504" lon="4.75399">
        <ele>187</ele>
        <time>2017-05-07T09:43:15Z</time>
      </trkpt>
      <trkpt lat="45.95502" lon="4.75393">
        <ele>188</ele>
        <time>2017-05-07T09:43:16Z</time>
      </trkpt>
      <trkpt lat="45.95499" lon="4.75387">
        <ele>185</ele>
        <time>2017-05-07T09:43:17Z</time>
      </trkpt>
      <trkpt lat="45.95496" lon="4.75382">
        <ele>185</ele>
        <time>2017-05-07T09:43:18Z</time>
      </trkpt>
      <trkpt lat="45.95492" lon="4.75375">
        <ele>185</ele>
        <time>2017-05-07T09:43:19Z</time>
      </trkpt>
      <trkpt lat="45.95489" lon="4.75369">
        <ele>185</ele>
        <time>2017-05-07T09:43:20Z</time>
      </trkpt>
      <trkpt lat="45.95486" lon="4.75363">
        <ele>186</ele>
        <time>2017-05-07T09:43:21Z</time>
      </trkpt>
      <trkpt lat="45.95482" lon="4.75357">
        <ele>186</ele>
        <time>2017-05-07T09:43:22Z</time>
      </trkpt>
      <trkpt lat="45.95479" lon="4.75351">
        <ele>186</ele>
        <time>2017-05-07T09:43:23Z</time>
      </trkpt>
      <trkpt lat="45.95477" lon="4.75345">
        <ele>186</ele>
        <time>2017-05-07T09:43:24Z</time>
      </trkpt>
      <trkpt lat="45.95474" lon="4.7534">
        <ele>186</ele>
        <time>2017-05-07T09:43:25Z</time>
      </trkpt>
      <trkpt lat="45.95469" lon="4.75329">
        <ele>188</ele>
        <time>2017-05-07T09:43:27Z</time>
      </trkpt>
      <trkpt lat="45.95466" lon="4.75324">
        <ele>188</ele>
        <time>2017-05-07T09:43:28Z</time>
      </trkpt>
      <trkpt lat="45.95463" lon="4.75319">
        <ele>188</ele>
        <time>2017-05-07T09:43:29Z</time>
      </trkpt>
      <trkpt lat="45.9546" lon="4.75314">
        <ele>188</ele>
        <time>2017-05-07T09:43:30Z</time>
      </trkpt>
      <trkpt lat="45.95458" lon="4.75308">
        <ele>188</ele>
        <time>2017-05-07T09:43:31Z</time>
      </trkpt>
      <trkpt lat="45.95455" lon="4.75303">
        <ele>188</ele>
        <time>2017-05-07T09:43:32Z</time>
      </trkpt>
      <trkpt lat="45.95452" lon="4.75297">
        <ele>188</ele>
        <time>2017-05-07T09:43:33Z</time>
      </trkpt>
      <trkpt lat="45.95449" lon="4.75292">
        <ele>188</ele>
        <time>2017-05-07T09:43:34Z</time>
      </trkpt>
      <trkpt lat="45.95446" lon="4.75287">
        <ele>188</ele>
        <time>2017-05-07T09:43:35Z</time>
      </trkpt>
      <trkpt lat="45.95443" lon="4.75281">
        <ele>188</ele>
        <time>2017-05-07T09:43:36Z</time>
      </trkpt>
      <trkpt lat="45.9544" lon="4.75275">
        <ele>189</ele>
        <time>2017-05-07T09:43:37Z</time>
      </trkpt>
      <trkpt lat="45.95436" lon="4.75269">
        <ele>189</ele>
        <time>2017-05-07T09:43:38Z</time>
      </trkpt>
      <trkpt lat="45.95434" lon="4.75263">
        <ele>189</ele>
        <time>2017-05-07T09:43:39Z</time>
      </trkpt>
      <trkpt lat="45.95431" lon="4.75258">
        <ele>189</ele>
        <time>2017-05-07T09:43:40Z</time>
      </trkpt>
      <trkpt lat="45.95428" lon="4.75253">
        <ele>189</ele>
        <time>2017-05-07T09:43:41Z</time>
      </trkpt>
      <trkpt lat="45.95425" lon="4.75247">
        <ele>190</ele>
        <time>2017-05-07T09:43:42Z</time>
      </trkpt>
      <trkpt lat="45.95423" lon="4.75242">
        <ele>190</ele>
        <time>2017-05-07T09:43:43Z</time>
      </trkpt>
      <trkpt lat="45.9542" lon="4.75236">
        <ele>190</ele>
        <time>2017-05-07T09:43:44Z</time>
      </trkpt>
      <trkpt lat="45.95417" lon="4.75231">
        <ele>190</ele>
        <time>2017-05-07T09:43:45Z</time>
      </trkpt>
      <trkpt lat="45.95414" lon="4.75226">
        <ele>189</ele>
        <time>2017-05-07T09:43:46Z</time>
      </trkpt>
      <trkpt lat="45.95411" lon="4.75221">
        <ele>189</ele>
        <time>2017-05-07T09:43:47Z</time>
      </trkpt>
      <trkpt lat="45.95407" lon="4.75215">
        <ele>189</ele>
        <time>2017-05-07T09:43:48Z</time>
      </trkpt>
      <trkpt lat="45.95402" lon="4.75207">
        <ele>189</ele>
        <time>2017-05-07T09:43:50Z</time>
      </trkpt>
      <trkpt lat="45.95399" lon="4.75202">
        <ele>189</ele>
        <time>2017-05-07T09:43:51Z</time>
      </trkpt>
      <trkpt lat="45.95396" lon="4.75197">
        <ele>189</ele>
        <time>2017-05-07T09:43:52Z</time>
      </trkpt>
      <trkpt lat="45.95393" lon="4.75191">
        <ele>189</ele>
        <time>2017-05-07T09:43:53Z</time>
      </trkpt>
      <trkpt lat="45.9539" lon="4.75185">
        <ele>189</ele>
        <time>2017-05-07T09:43:54Z</time>
      </trkpt>
      <trkpt lat="45.95386" lon="4.75179">
        <ele>189</ele>
        <time>2017-05-07T09:43:55Z</time>
      </trkpt>
      <trkpt lat="45.95383" lon="4.75173">
        <ele>189</ele>
        <time>2017-05-07T09:43:56Z</time>
      </trkpt>
      <trkpt lat="45.9538" lon="4.75167">
        <ele>189</ele>
        <time>2017-05-07T09:43:57Z</time>
      </trkpt>
      <trkpt lat="45.95377" lon="4.75161">
        <ele>191</ele>
        <time>2017-05-07T09:43:58Z</time>
      </trkpt>
      <trkpt lat="45.95374" lon="4.75156">
        <ele>191</ele>
        <time>2017-05-07T09:43:59Z</time>
      </trkpt>
      <trkpt lat="45.95371" lon="4.75151">
        <ele>191</ele>
        <time>2017-05-07T09:44:00Z</time>
      </trkpt>
      <trkpt lat="45.95368" lon="4.75146">
        <ele>191</ele>
        <time>2017-05-07T09:44:01Z</time>
      </trkpt>
      <trkpt lat="45.95362" lon="4.75136">
        <ele>191</ele>
        <time>2017-05-07T09:44:03Z</time>
      </trkpt>
      <trkpt lat="45.95359" lon="4.75131">
        <ele>191</ele>
        <time>2017-05-07T09:44:04Z</time>
      </trkpt>
      <trkpt lat="45.95352" lon="4.75122">
        <ele>191</ele>
        <time>2017-05-07T09:44:06Z</time>
      </trkpt>
      <trkpt lat="45.95349" lon="4.75117">
        <ele>192</ele>
        <time>2017-05-07T09:44:07Z</time>
      </trkpt>
      <trkpt lat="45.95343" lon="4.75107">
        <ele>192</ele>
        <time>2017-05-07T09:44:09Z</time>
      </trkpt>
      <trkpt lat="45.9534" lon="4.75102">
        <ele>192</ele>
        <time>2017-05-07T09:44:10Z</time>
      </trkpt>
      <trkpt lat="45.95337" lon="4.75097">
        <ele>192</ele>
        <time>2017-05-07T09:44:11Z</time>
      </trkpt>
      <trkpt lat="45.95334" lon="4.75093">
        <ele>192</ele>
        <time>2017-05-07T09:44:12Z</time>
      </trkpt>
      <trkpt lat="45.9533" lon="4.75087">
        <ele>192</ele>
        <time>2017-05-07T09:44:13Z</time>
      </trkpt>
      <trkpt lat="45.95327" lon="4.75082">
        <ele>193</ele>
        <time>2017-05-07T09:44:14Z</time>
      </trkpt>
      <trkpt lat="45.95323" lon="4.75078">
        <ele>192</ele>
        <time>2017-05-07T09:44:15Z</time>
      </trkpt>
      <trkpt lat="45.9532" lon="4.75072">
        <ele>192</ele>
        <time>2017-05-07T09:44:16Z</time>
      </trkpt>
      <trkpt lat="45.95317" lon="4.75067">
        <ele>192</ele>
        <time>2017-05-07T09:44:17Z</time>
      </trkpt>
      <trkpt lat="45.95313" lon="4.75062">
        <ele>192</ele>
        <time>2017-05-07T09:44:18Z</time>
      </trkpt>
      <trkpt lat="45.95309" lon="4.75057">
        <ele>192</ele>
        <time>2017-05-07T09:44:19Z</time>
      </trkpt>
      <trkpt lat="45.95306" lon="4.75051">
        <ele>191</ele>
        <time>2017-05-07T09:44:20Z</time>
      </trkpt>
      <trkpt lat="45.95303" lon="4.75046">
        <ele>191</ele>
        <time>2017-05-07T09:44:21Z</time>
      </trkpt>
      <trkpt lat="45.953" lon="4.75042">
        <ele>191</ele>
        <time>2017-05-07T09:44:22Z</time>
      </trkpt>
      <trkpt lat="45.95297" lon="4.75037">
        <ele>191</ele>
        <time>2017-05-07T09:44:23Z</time>
      </trkpt>
      <trkpt lat="45.95293" lon="4.75032">
        <ele>191</ele>
        <time>2017-05-07T09:44:24Z</time>
      </trkpt>
      <trkpt lat="45.9529" lon="4.75026">
        <ele>191</ele>
        <time>2017-05-07T09:44:25Z</time>
      </trkpt>
      <trkpt lat="45.95287" lon="4.75021">
        <ele>191</ele>
        <time>2017-05-07T09:44:26Z</time>
      </trkpt>
      <trkpt lat="45.95284" lon="4.75016">
        <ele>191</ele>
        <time>2017-05-07T09:44:27Z</time>
      </trkpt>
      <trkpt lat="45.9528" lon="4.75011">
        <ele>191</ele>
        <time>2017-05-07T09:44:28Z</time>
      </trkpt>
      <trkpt lat="45.95277" lon="4.75005">
        <ele>191</ele>
        <time>2017-05-07T09:44:29Z</time>
      </trkpt>
      <trkpt lat="45.95273" lon="4.74999">
        <ele>192</ele>
        <time>2017-05-07T09:44:30Z</time>
      </trkpt>
      <trkpt lat="45.95269" lon="4.74993">
        <ele>192</ele>
        <time>2017-05-07T09:44:31Z</time>
      </trkpt>
      <trkpt lat="45.95265" lon="4.74988">
        <ele>192</ele>
        <time>2017-05-07T09:44:32Z</time>
      </trkpt>
      <trkpt lat="45.95262" lon="4.74982">
        <ele>192</ele>
        <time>2017-05-07T09:44:33Z</time>
      </trkpt>
      <trkpt lat="45.95258" lon="4.74977">
        <ele>192</ele>
        <time>2017-05-07T09:44:34Z</time>
      </trkpt>
      <trkpt lat="45.95255" lon="4.74972">
        <ele>192</ele>
        <time>2017-05-07T09:44:35Z</time>
      </trkpt>
      <trkpt lat="45.95252" lon="4.74967">
        <ele>192</ele>
        <time>2017-05-07T09:44:36Z</time>
      </trkpt>
      <trkpt lat="45.95248" lon="4.74961">
        <ele>191</ele>
        <time>2017-05-07T09:44:37Z</time>
      </trkpt>
      <trkpt lat="45.95245" lon="4.74956">
        <ele>192</ele>
        <time>2017-05-07T09:44:38Z</time>
      </trkpt>
      <trkpt lat="45.95242" lon="4.74951">
        <ele>192</ele>
        <time>2017-05-07T09:44:39Z</time>
      </trkpt>
      <trkpt lat="45.95238" lon="4.74946">
        <ele>192</ele>
        <time>2017-05-07T09:44:40Z</time>
      </trkpt>
      <trkpt lat="45.95235" lon="4.74941">
        <ele>192</ele>
        <time>2017-05-07T09:44:41Z</time>
      </trkpt>
      <trkpt lat="45.95232" lon="4.74936">
        <ele>192</ele>
        <time>2017-05-07T09:44:42Z</time>
      </trkpt>
      <trkpt lat="45.95228" lon="4.74931">
        <ele>192</ele>
        <time>2017-05-07T09:44:43Z</time>
      </trkpt>
      <trkpt lat="45.95225" lon="4.74925">
        <ele>192</ele>
        <time>2017-05-07T09:44:44Z</time>
      </trkpt>
      <trkpt lat="45.95223" lon="4.74919">
        <ele>192</ele>
        <time>2017-05-07T09:44:45Z</time>
      </trkpt>
      <trkpt lat="45.95219" lon="4.74914">
        <ele>193</ele>
        <time>2017-05-07T09:44:46Z</time>
      </trkpt>
      <trkpt lat="45.95216" lon="4.74908">
        <ele>193</ele>
        <time>2017-05-07T09:44:47Z</time>
      </trkpt>
      <trkpt lat="45.95213" lon="4.74902">
        <ele>193</ele>
        <time>2017-05-07T09:44:48Z</time>
      </trkpt>
      <trkpt lat="45.95209" lon="4.74896">
        <ele>193</ele>
        <time>2017-05-07T09:44:49Z</time>
      </trkpt>
      <trkpt lat="45.95205" lon="4.74891">
        <ele>194</ele>
        <time>2017-05-07T09:44:50Z</time>
      </trkpt>
      <trkpt lat="45.95201" lon="4.74885">
        <ele>194</ele>
        <time>2017-05-07T09:44:51Z</time>
      </trkpt>
      <trkpt lat="45.95197" lon="4.74879">
        <ele>194</ele>
        <time>2017-05-07T09:44:52Z</time>
      </trkpt>
      <trkpt lat="45.95192" lon="4.74873">
        <ele>194</ele>
        <time>2017-05-07T09:44:53Z</time>
      </trkpt>
      <trkpt lat="45.95188" lon="4.74867">
        <ele>194</ele>
        <time>2017-05-07T09:44:54Z</time>
      </trkpt>
      <trkpt lat="45.95185" lon="4.74861">
        <ele>194</ele>
        <time>2017-05-07T09:44:55Z</time>
      </trkpt>
      <trkpt lat="45.95181" lon="4.74855">
        <ele>194</ele>
        <time>2017-05-07T09:44:56Z</time>
      </trkpt>
      <trkpt lat="45.95178" lon="4.74849">
        <ele>194</ele>
        <time>2017-05-07T09:44:57Z</time>
      </trkpt>
      <trkpt lat="45.95174" lon="4.74843">
        <ele>194</ele>
        <time>2017-05-07T09:44:58Z</time>
      </trkpt>
      <trkpt lat="45.95171" lon="4.74837">
        <ele>194</ele>
        <time>2017-05-07T09:44:59Z</time>
      </trkpt>
      <trkpt lat="45.95167" lon="4.74831">
        <ele>194</ele>
        <time>2017-05-07T09:45:00Z</time>
      </trkpt>
      <trkpt lat="45.95164" lon="4.74825">
        <ele>194</ele>
        <time>2017-05-07T09:45:01Z</time>
      </trkpt>
      <trkpt lat="45.9516" lon="4.7482">
        <ele>194</ele>
        <time>2017-05-07T09:45:02Z</time>
      </trkpt>
      <trkpt lat="45.95157" lon="4.74814">
        <ele>194</ele>
        <time>2017-05-07T09:45:03Z</time>
      </trkpt>
      <trkpt lat="45.95153" lon="4.74809">
        <ele>194</ele>
        <time>2017-05-07T09:45:04Z</time>
      </trkpt>
      <trkpt lat="45.9515" lon="4.74803">
        <ele>194</ele>
        <time>2017-05-07T09:45:05Z</time>
      </trkpt>
      <trkpt lat="45.95147" lon="4.74798">
        <ele>194</ele>
        <time>2017-05-07T09:45:06Z</time>
      </trkpt>
      <trkpt lat="45.95143" lon="4.74792">
        <ele>194</ele>
        <time>2017-05-07T09:45:07Z</time>
      </trkpt>
      <trkpt lat="45.9514" lon="4.74787">
        <ele>194</ele>
        <time>2017-05-07T09:45:08Z</time>
      </trkpt>
      <trkpt lat="45.95137" lon="4.74782">
        <ele>194</ele>
        <time>2017-05-07T09:45:09Z</time>
      </trkpt>
      <trkpt lat="45.95133" lon="4.74776">
        <ele>194</ele>
        <time>2017-05-07T09:45:10Z</time>
      </trkpt>
      <trkpt lat="45.9513" lon="4.74771">
        <ele>194</ele>
        <time>2017-05-07T09:45:11Z</time>
      </trkpt>
      <trkpt lat="45.95126" lon="4.74765">
        <ele>194</ele>
        <time>2017-05-07T09:45:12Z</time>
      </trkpt>
      <trkpt lat="45.95123" lon="4.7476">
        <ele>194</ele>
        <time>2017-05-07T09:45:13Z</time>
      </trkpt>
      <trkpt lat="45.9512" lon="4.74754">
        <ele>194</ele>
        <time>2017-05-07T09:45:14Z</time>
      </trkpt>
      <trkpt lat="45.95117" lon="4.74748">
        <ele>194</ele>
        <time>2017-05-07T09:45:15Z</time>
      </trkpt>
      <trkpt lat="45.95114" lon="4.74743">
        <ele>194</ele>
        <time>2017-05-07T09:45:16Z</time>
      </trkpt>
      <trkpt lat="45.9511" lon="4.74737">
        <ele>194</ele>
        <time>2017-05-07T09:45:17Z</time>
      </trkpt>
      <trkpt lat="45.95106" lon="4.7473">
        <ele>194</ele>
        <time>2017-05-07T09:45:18Z</time>
      </trkpt>
      <trkpt lat="45.95103" lon="4.74723">
        <ele>194</ele>
        <time>2017-05-07T09:45:19Z</time>
      </trkpt>
      <trkpt lat="45.95099" lon="4.74716">
        <ele>194</ele>
        <time>2017-05-07T09:45:20Z</time>
      </trkpt>
      <trkpt lat="45.95095" lon="4.74709">
        <ele>194</ele>
        <time>2017-05-07T09:45:21Z</time>
      </trkpt>
      <trkpt lat="45.95091" lon="4.74702">
        <ele>194</ele>
        <time>2017-05-07T09:45:22Z</time>
      </trkpt>
      <trkpt lat="45.95086" lon="4.74695">
        <ele>194</ele>
        <time>2017-05-07T09:45:23Z</time>
      </trkpt>
      <trkpt lat="45.95082" lon="4.74688">
        <ele>194</ele>
        <time>2017-05-07T09:45:24Z</time>
      </trkpt>
      <trkpt lat="45.95077" lon="4.74681">
        <ele>194</ele>
        <time>2017-05-07T09:45:25Z</time>
      </trkpt>
      <trkpt lat="45.95073" lon="4.74673">
        <ele>194</ele>
        <time>2017-05-07T09:45:26Z</time>
      </trkpt>
      <trkpt lat="45.95069" lon="4.74666">
        <ele>195</ele>
        <time>2017-05-07T09:45:27Z</time>
      </trkpt>
      <trkpt lat="45.95065" lon="4.74659">
        <ele>195</ele>
        <time>2017-05-07T09:45:28Z</time>
      </trkpt>
      <trkpt lat="45.95061" lon="4.74652">
        <ele>194</ele>
        <time>2017-05-07T09:45:29Z</time>
      </trkpt>
      <trkpt lat="45.95057" lon="4.74645">
        <ele>194</ele>
        <time>2017-05-07T09:45:30Z</time>
      </trkpt>
      <trkpt lat="45.95054" lon="4.74638">
        <ele>194</ele>
        <time>2017-05-07T09:45:31Z</time>
      </trkpt>
      <trkpt lat="45.9505" lon="4.74632">
        <ele>194</ele>
        <time>2017-05-07T09:45:32Z</time>
      </trkpt>
      <trkpt lat="45.95047" lon="4.74626">
        <ele>194</ele>
        <time>2017-05-07T09:45:33Z</time>
      </trkpt>
      <trkpt lat="45.95043" lon="4.7462">
        <ele>194</ele>
        <time>2017-05-07T09:45:34Z</time>
      </trkpt>
      <trkpt lat="45.9504" lon="4.74613">
        <ele>194</ele>
        <time>2017-05-07T09:45:35Z</time>
      </trkpt>
      <trkpt lat="45.95037" lon="4.74607">
        <ele>194</ele>
        <time>2017-05-07T09:45:36Z</time>
      </trkpt>
      <trkpt lat="45.95033" lon="4.74601">
        <ele>194</ele>
        <time>2017-05-07T09:45:37Z</time>
      </trkpt>
      <trkpt lat="45.9503" lon="4.74595">
        <ele>194</ele>
        <time>2017-05-07T09:45:38Z</time>
      </trkpt>
      <trkpt lat="45.95027" lon="4.74589">
        <ele>194</ele>
        <time>2017-05-07T09:45:39Z</time>
      </trkpt>
      <trkpt lat="45.95024" lon="4.74583">
        <ele>194</ele>
        <time>2017-05-07T09:45:40Z</time>
      </trkpt>
      <trkpt lat="45.9502" lon="4.74578">
        <ele>194</ele>
        <time>2017-05-07T09:45:41Z</time>
      </trkpt>
      <trkpt lat="45.95017" lon="4.74572">
        <ele>194</ele>
        <time>2017-05-07T09:45:42Z</time>
      </trkpt>
      <trkpt lat="45.95013" lon="4.74565">
        <ele>194</ele>
        <time>2017-05-07T09:45:43Z</time>
      </trkpt>
      <trkpt lat="45.9501" lon="4.74559">
        <ele>194</ele>
        <time>2017-05-07T09:45:44Z</time>
      </trkpt>
      <trkpt lat="45.95007" lon="4.74553">
        <ele>194</ele>
        <time>2017-05-07T09:45:45Z</time>
      </trkpt>
      <trkpt lat="45.95003" lon="4.74546">
        <ele>194</ele>
        <time>2017-05-07T09:45:46Z</time>
      </trkpt>
      <trkpt lat="45.95" lon="4.7454">
        <ele>194</ele>
        <time>2017-05-07T09:45:47Z</time>
      </trkpt>
      <trkpt lat="45.94996" lon="4.74533">
        <ele>193</ele>
        <time>2017-05-07T09:45:48Z</time>
      </trkpt>
      <trkpt lat="45.94993" lon="4.74526">
        <ele>193</ele>
        <time>2017-05-07T09:45:49Z</time>
      </trkpt>
      <trkpt lat="45.94989" lon="4.7452">
        <ele>193</ele>
        <time>2017-05-07T09:45:50Z</time>
      </trkpt>
      <trkpt lat="45.94985" lon="4.74513">
        <ele>193</ele>
        <time>2017-05-07T09:45:51Z</time>
      </trkpt>
      <trkpt lat="45.94981" lon="4.74506">
        <ele>193</ele>
        <time>2017-05-07T09:45:52Z</time>
      </trkpt>
      <trkpt lat="45.94977" lon="4.74498">
        <ele>193</ele>
        <time>2017-05-07T09:45:53Z</time>
      </trkpt>
      <trkpt lat="45.94973" lon="4.74492">
        <ele>193</ele>
        <time>2017-05-07T09:45:54Z</time>
      </trkpt>
      <trkpt lat="45.9497" lon="4.74485">
        <ele>193</ele>
        <time>2017-05-07T09:45:55Z</time>
      </trkpt>
      <trkpt lat="45.94966" lon="4.74479">
        <ele>193</ele>
        <time>2017-05-07T09:45:56Z</time>
      </trkpt>
      <trkpt lat="45.94962" lon="4.74472">
        <ele>193</ele>
        <time>2017-05-07T09:45:57Z</time>
      </trkpt>
      <trkpt lat="45.94959" lon="4.74466">
        <ele>193</ele>
        <time>2017-05-07T09:45:58Z</time>
      </trkpt>
      <trkpt lat="45.94955" lon="4.74459">
        <ele>193</ele>
        <time>2017-05-07T09:45:59Z</time>
      </trkpt>
      <trkpt lat="45.94952" lon="4.74453">
        <ele>192</ele>
        <time>2017-05-07T09:46:00Z</time>
      </trkpt>
      <trkpt lat="45.94948" lon="4.74446">
        <ele>192</ele>
        <time>2017-05-07T09:46:01Z</time>
      </trkpt>
      <trkpt lat="45.94945" lon="4.7444">
        <ele>192</ele>
        <time>2017-05-07T09:46:02Z</time>
      </trkpt>
      <trkpt lat="45.94942" lon="4.74434">
        <ele>192</ele>
        <time>2017-05-07T09:46:03Z</time>
      </trkpt>
      <trkpt lat="45.94938" lon="4.74427">
        <ele>192</ele>
        <time>2017-05-07T09:46:04Z</time>
      </trkpt>
      <trkpt lat="45.94935" lon="4.74421">
        <ele>192</ele>
        <time>2017-05-07T09:46:05Z</time>
      </trkpt>
      <trkpt lat="45.94932" lon="4.74414">
        <ele>192</ele>
        <time>2017-05-07T09:46:06Z</time>
      </trkpt>
      <trkpt lat="45.94929" lon="4.74408">
        <ele>192</ele>
        <time>2017-05-07T09:46:07Z</time>
      </trkpt>
      <trkpt lat="45.94925" lon="4.74401">
        <ele>192</ele>
        <time>2017-05-07T09:46:08Z</time>
      </trkpt>
      <trkpt lat="45.94922" lon="4.74394">
        <ele>192</ele>
        <time>2017-05-07T09:46:09Z</time>
      </trkpt>
      <trkpt lat="45.94918" lon="4.74387">
        <ele>192</ele>
        <time>2017-05-07T09:46:10Z</time>
      </trkpt>
      <trkpt lat="45.94915" lon="4.74381">
        <ele>191</ele>
        <time>2017-05-07T09:46:11Z</time>
      </trkpt>
      <trkpt lat="45.94911" lon="4.74374">
        <ele>191</ele>
        <time>2017-05-07T09:46:12Z</time>
      </trkpt>
      <trkpt lat="45.94908" lon="4.74366">
        <ele>191</ele>
        <time>2017-05-07T09:46:13Z</time>
      </trkpt>
      <trkpt lat="45.94904" lon="4.7436">
        <ele>191</ele>
        <time>2017-05-07T09:46:14Z</time>
      </trkpt>
      <trkpt lat="45.94901" lon="4.74353">
        <ele>191</ele>
        <time>2017-05-07T09:46:15Z</time>
      </trkpt>
      <trkpt lat="45.94898" lon="4.74346">
        <ele>191</ele>
        <time>2017-05-07T09:46:16Z</time>
      </trkpt>
      <trkpt lat="45.94894" lon="4.74339">
        <ele>191</ele>
        <time>2017-05-07T09:46:17Z</time>
      </trkpt>
      <trkpt lat="45.94891" lon="4.74333">
        <ele>191</ele>
        <time>2017-05-07T09:46:18Z</time>
      </trkpt>
      <trkpt lat="45.94887" lon="4.74327">
        <ele>191</ele>
        <time>2017-05-07T09:46:19Z</time>
      </trkpt>
      <trkpt lat="45.94884" lon="4.7432">
        <ele>191</ele>
        <time>2017-05-07T09:46:20Z</time>
      </trkpt>
      <trkpt lat="45.9488" lon="4.74314">
        <ele>191</ele>
        <time>2017-05-07T09:46:21Z</time>
      </trkpt>
      <trkpt lat="45.94877" lon="4.74307">
        <ele>191</ele>
        <time>2017-05-07T09:46:22Z</time>
      </trkpt>
      <trkpt lat="45.94874" lon="4.743">
        <ele>191</ele>
        <time>2017-05-07T09:46:23Z</time>
      </trkpt>
      <trkpt lat="45.94871" lon="4.74293">
        <ele>191</ele>
        <time>2017-05-07T09:46:24Z</time>
      </trkpt>
      <trkpt lat="45.94868" lon="4.74287">
        <ele>191</ele>
        <time>2017-05-07T09:46:25Z</time>
      </trkpt>
      <trkpt lat="45.94864" lon="4.74281">
        <ele>191</ele>
        <time>2017-05-07T09:46:26Z</time>
      </trkpt>
      <trkpt lat="45.94861" lon="4.74274">
        <ele>190</ele>
        <time>2017-05-07T09:46:27Z</time>
      </trkpt>
      <trkpt lat="45.94858" lon="4.74268">
        <ele>190</ele>
        <time>2017-05-07T09:46:28Z</time>
      </trkpt>
      <trkpt lat="45.94855" lon="4.74261">
        <ele>190</ele>
        <time>2017-05-07T09:46:29Z</time>
      </trkpt>
      <trkpt lat="45.94852" lon="4.74253">
        <ele>190</ele>
        <time>2017-05-07T09:46:30Z</time>
      </trkpt>
      <trkpt lat="45.94848" lon="4.74246">
        <ele>190</ele>
        <time>2017-05-07T09:46:31Z</time>
      </trkpt>
      <trkpt lat="45.94845" lon="4.74239">
        <ele>190</ele>
        <time>2017-05-07T09:46:32Z</time>
      </trkpt>
      <trkpt lat="45.94842" lon="4.74232">
        <ele>190</ele>
        <time>2017-05-07T09:46:33Z</time>
      </trkpt>
      <trkpt lat="45.94838" lon="4.74225">
        <ele>190</ele>
        <time>2017-05-07T09:46:34Z</time>
      </trkpt>
      <trkpt lat="45.94834" lon="4.74219">
        <ele>190</ele>
        <time>2017-05-07T09:46:35Z</time>
      </trkpt>
      <trkpt lat="45.9483" lon="4.74212">
        <ele>189</ele>
        <time>2017-05-07T09:46:36Z</time>
      </trkpt>
      <trkpt lat="45.94827" lon="4.74206">
        <ele>189</ele>
        <time>2017-05-07T09:46:37Z</time>
      </trkpt>
      <trkpt lat="45.94823" lon="4.74201">
        <ele>189</ele>
        <time>2017-05-07T09:46:38Z</time>
      </trkpt>
      <trkpt lat="45.94819" lon="4.74195">
        <ele>189</ele>
        <time>2017-05-07T09:46:39Z</time>
      </trkpt>
      <trkpt lat="45.94816" lon="4.74189">
        <ele>189</ele>
        <time>2017-05-07T09:46:40Z</time>
      </trkpt>
      <trkpt lat="45.94812" lon="4.74182">
        <ele>189</ele>
        <time>2017-05-07T09:46:41Z</time>
      </trkpt>
      <trkpt lat="45.94808" lon="4.74176">
        <ele>189</ele>
        <time>2017-05-07T09:46:42Z</time>
      </trkpt>
      <trkpt lat="45.94804" lon="4.74169">
        <ele>189</ele>
        <time>2017-05-07T09:46:43Z</time>
      </trkpt>
      <trkpt lat="45.948" lon="4.74162">
        <ele>189</ele>
        <time>2017-05-07T09:46:44Z</time>
      </trkpt>
      <trkpt lat="45.94796" lon="4.74155">
        <ele>189</ele>
        <time>2017-05-07T09:46:45Z</time>
      </trkpt>
      <trkpt lat="45.94792" lon="4.74148">
        <ele>189</ele>
        <time>2017-05-07T09:46:46Z</time>
      </trkpt>
      <trkpt lat="45.94788" lon="4.74141">
        <ele>189</ele>
        <time>2017-05-07T09:46:47Z</time>
      </trkpt>
      <trkpt lat="45.94784" lon="4.74134">
        <ele>189</ele>
        <time>2017-05-07T09:46:48Z</time>
      </trkpt>
      <trkpt lat="45.9478" lon="4.74128">
        <ele>189</ele>
        <time>2017-05-07T09:46:49Z</time>
      </trkpt>
      <trkpt lat="45.94777" lon="4.74122">
        <ele>189</ele>
        <time>2017-05-07T09:46:50Z</time>
      </trkpt>
      <trkpt lat="45.94773" lon="4.74116">
        <ele>189</ele>
        <time>2017-05-07T09:46:51Z</time>
      </trkpt>
      <trkpt lat="45.94769" lon="4.7411">
        <ele>189</ele>
        <time>2017-05-07T09:46:52Z</time>
      </trkpt>
      <trkpt lat="45.94764" lon="4.74105">
        <ele>189</ele>
        <time>2017-05-07T09:46:53Z</time>
      </trkpt>
      <trkpt lat="45.9476" lon="4.74099">
        <ele>189</ele>
        <time>2017-05-07T09:46:54Z</time>
      </trkpt>
      <trkpt lat="45.94756" lon="4.74094">
        <ele>189</ele>
        <time>2017-05-07T09:46:55Z</time>
      </trkpt>
      <trkpt lat="45.94752" lon="4.74089">
        <ele>189</ele>
        <time>2017-05-07T09:46:56Z</time>
      </trkpt>
      <trkpt lat="45.94748" lon="4.74084">
        <ele>189</ele>
        <time>2017-05-07T09:46:57Z</time>
      </trkpt>
      <trkpt lat="45.94744" lon="4.74078">
        <ele>188</ele>
        <time>2017-05-07T09:46:58Z</time>
      </trkpt>
      <trkpt lat="45.9474" lon="4.74073">
        <ele>188</ele>
        <time>2017-05-07T09:46:59Z</time>
      </trkpt>
      <trkpt lat="45.94736" lon="4.74067">
        <ele>188</ele>
        <time>2017-05-07T09:47:00Z</time>
      </trkpt>
      <trkpt lat="45.94733" lon="4.74062">
        <ele>188</ele>
        <time>2017-05-07T09:47:01Z</time>
      </trkpt>
      <trkpt lat="45.94729" lon="4.74056">
        <ele>188</ele>
        <time>2017-05-07T09:47:02Z</time>
      </trkpt>
      <trkpt lat="45.94725" lon="4.74051">
        <ele>188</ele>
        <time>2017-05-07T09:47:03Z</time>
      </trkpt>
      <trkpt lat="45.94721" lon="4.74046">
        <ele>187</ele>
        <time>2017-05-07T09:47:04Z</time>
      </trkpt>
      <trkpt lat="45.94718" lon="4.74041">
        <ele>187</ele>
        <time>2017-05-07T09:47:05Z</time>
      </trkpt>
      <trkpt lat="45.94714" lon="4.74036">
        <ele>187</ele>
        <time>2017-05-07T09:47:06Z</time>
      </trkpt>
      <trkpt lat="45.9471" lon="4.74031">
        <ele>187</ele>
        <time>2017-05-07T09:47:07Z</time>
      </trkpt>
      <trkpt lat="45.94706" lon="4.74025">
        <ele>187</ele>
        <time>2017-05-07T09:47:08Z</time>
      </trkpt>
      <trkpt lat="45.94702" lon="4.7402">
        <ele>187</ele>
        <time>2017-05-07T09:47:09Z</time>
      </trkpt>
      <trkpt lat="45.94698" lon="4.74014">
        <ele>187</ele>
        <time>2017-05-07T09:47:10Z</time>
      </trkpt>
      <trkpt lat="45.94694" lon="4.74008">
        <ele>187</ele>
        <time>2017-05-07T09:47:11Z</time>
      </trkpt>
      <trkpt lat="45.9469" lon="4.74003">
        <ele>187</ele>
        <time>2017-05-07T09:47:12Z</time>
      </trkpt>
      <trkpt lat="45.94686" lon="4.73997">
        <ele>187</ele>
        <time>2017-05-07T09:47:13Z</time>
      </trkpt>
      <trkpt lat="45.94682" lon="4.73992">
        <ele>187</ele>
        <time>2017-05-07T09:47:14Z</time>
      </trkpt>
      <trkpt lat="45.94678" lon="4.73986">
        <ele>187</ele>
        <time>2017-05-07T09:47:15Z</time>
      </trkpt>
      <trkpt lat="45.94674" lon="4.73981">
        <ele>187</ele>
        <time>2017-05-07T09:47:16Z</time>
      </trkpt>
      <trkpt lat="45.94669" lon="4.73975">
        <ele>187</ele>
        <time>2017-05-07T09:47:17Z</time>
      </trkpt>
      <trkpt lat="45.94665" lon="4.73969">
        <ele>187</ele>
        <time>2017-05-07T09:47:18Z</time>
      </trkpt>
      <trkpt lat="45.9466" lon="4.73964">
        <ele>187</ele>
        <time>2017-05-07T09:47:19Z</time>
      </trkpt>
      <trkpt lat="45.94656" lon="4.73958">
        <ele>187</ele>
        <time>2017-05-07T09:47:20Z</time>
      </trkpt>
      <trkpt lat="45.94651" lon="4.73952">
        <ele>187</ele>
        <time>2017-05-07T09:47:21Z</time>
      </trkpt>
      <trkpt lat="45.94646" lon="4.73946">
        <ele>187</ele>
        <time>2017-05-07T09:47:22Z</time>
      </trkpt>
      <trkpt lat="45.94641" lon="4.73939">
        <ele>187</ele>
        <time>2017-05-07T09:47:23Z</time>
      </trkpt>
      <trkpt lat="45.94636" lon="4.73933">
        <ele>187</ele>
        <time>2017-05-07T09:47:24Z</time>
      </trkpt>
      <trkpt lat="45.94632" lon="4.73927">
        <ele>187</ele>
        <time>2017-05-07T09:47:25Z</time>
      </trkpt>
      <trkpt lat="45.94627" lon="4.7392">
        <ele>187</ele>
        <time>2017-05-07T09:47:26Z</time>
      </trkpt>
      <trkpt lat="45.94622" lon="4.73914">
        <ele>187</ele>
        <time>2017-05-07T09:47:27Z</time>
      </trkpt>
      <trkpt lat="45.94617" lon="4.73908">
        <ele>187</ele>
        <time>2017-05-07T09:47:28Z</time>
      </trkpt>
      <trkpt lat="45.94612" lon="4.73902">
        <ele>187</ele>
        <time>2017-05-07T09:47:29Z</time>
      </trkpt>
      <trkpt lat="45.94606" lon="4.73896">
        <ele>187</ele>
        <time>2017-05-07T09:47:30Z</time>
      </trkpt>
      <trkpt lat="45.94601" lon="4.7389">
        <ele>187</ele>
        <time>2017-05-07T09:47:31Z</time>
      </trkpt>
      <trkpt lat="45.94597" lon="4.73885">
        <ele>187</ele>
        <time>2017-05-07T09:47:32Z</time>
      </trkpt>
      <trkpt lat="45.94592" lon="4.73879">
        <ele>187</ele>
        <time>2017-05-07T09:47:33Z</time>
      </trkpt>
      <trkpt lat="45.94587" lon="4.73873">
        <ele>187</ele>
        <time>2017-05-07T09:47:34Z</time>
      </trkpt>
      <trkpt lat="45.94582" lon="4.73868">
        <ele>186</ele>
        <time>2017-05-07T09:47:35Z</time>
      </trkpt>
      <trkpt lat="45.94577" lon="4.73863">
        <ele>186</ele>
        <time>2017-05-07T09:47:36Z</time>
      </trkpt>
      <trkpt lat="45.94572" lon="4.73857">
        <ele>186</ele>
        <time>2017-05-07T09:47:37Z</time>
      </trkpt>
      <trkpt lat="45.94567" lon="4.73852">
        <ele>186</ele>
        <time>2017-05-07T09:47:38Z</time>
      </trkpt>
      <trkpt lat="45.94562" lon="4.73846">
        <ele>186</ele>
        <time>2017-05-07T09:47:39Z</time>
      </trkpt>
      <trkpt lat="45.94557" lon="4.73841">
        <ele>186</ele>
        <time>2017-05-07T09:47:40Z</time>
      </trkpt>
      <trkpt lat="45.94551" lon="4.73835">
        <ele>186</ele>
        <time>2017-05-07T09:47:41Z</time>
      </trkpt>
      <trkpt lat="45.94546" lon="4.7383">
        <ele>186</ele>
        <time>2017-05-07T09:47:42Z</time>
      </trkpt>
      <trkpt lat="45.94541" lon="4.73825">
        <ele>186</ele>
        <time>2017-05-07T09:47:43Z</time>
      </trkpt>
      <trkpt lat="45.94535" lon="4.7382">
        <ele>186</ele>
        <time>2017-05-07T09:47:44Z</time>
      </trkpt>
      <trkpt lat="45.9453" lon="4.73815">
        <ele>186</ele>
        <time>2017-05-07T09:47:45Z</time>
      </trkpt>
      <trkpt lat="45.94525" lon="4.7381">
        <ele>186</ele>
        <time>2017-05-07T09:47:46Z</time>
      </trkpt>
      <trkpt lat="45.9452" lon="4.73805">
        <ele>186</ele>
        <time>2017-05-07T09:47:47Z</time>
      </trkpt>
      <trkpt lat="45.94515" lon="4.738">
        <ele>186</ele>
        <time>2017-05-07T09:47:48Z</time>
      </trkpt>
      <trkpt lat="45.9451" lon="4.73795">
        <ele>186</ele>
        <time>2017-05-07T09:47:49Z</time>
      </trkpt>
      <trkpt lat="45.94505" lon="4.73789">
        <ele>186</ele>
        <time>2017-05-07T09:47:50Z</time>
      </trkpt>
      <trkpt lat="45.945" lon="4.73784">
        <ele>186</ele>
        <time>2017-05-07T09:47:51Z</time>
      </trkpt>
      <trkpt lat="45.94496" lon="4.73778">
        <ele>186</ele>
        <time>2017-05-07T09:47:52Z</time>
      </trkpt>
      <trkpt lat="45.94492" lon="4.73773">
        <ele>186</ele>
        <time>2017-05-07T09:47:53Z</time>
      </trkpt>
      <trkpt lat="45.94488" lon="4.73767">
        <ele>186</ele>
        <time>2017-05-07T09:47:54Z</time>
      </trkpt>
      <trkpt lat="45.94485" lon="4.73761">
        <ele>186</ele>
        <time>2017-05-07T09:47:55Z</time>
      </trkpt>
      <trkpt lat="45.94484" lon="4.73754">
        <ele>186</ele>
        <time>2017-05-07T09:47:56Z</time>
      </trkpt>
      <trkpt lat="45.94483" lon="4.73746">
        <ele>186</ele>
        <time>2017-05-07T09:47:57Z</time>
      </trkpt>
      <trkpt lat="45.94483" lon="4.73738">
        <ele>186</ele>
        <time>2017-05-07T09:47:58Z</time>
      </trkpt>
      <trkpt lat="45.94484" lon="4.7373">
        <ele>186</ele>
        <time>2017-05-07T09:47:59Z</time>
      </trkpt>
      <trkpt lat="45.94485" lon="4.73722">
        <ele>186</ele>
        <time>2017-05-07T09:48:00Z</time>
      </trkpt>
      <trkpt lat="45.94486" lon="4.73714">
        <ele>186</ele>
        <time>2017-05-07T09:48:01Z</time>
      </trkpt>
      <trkpt lat="45.94487" lon="4.73706">
        <ele>186</ele>
        <time>2017-05-07T09:48:02Z</time>
      </trkpt>
      <trkpt lat="45.94489" lon="4.73697">
        <ele>186</ele>
        <time>2017-05-07T09:48:03Z</time>
      </trkpt>
      <trkpt lat="45.9449" lon="4.73688">
        <ele>186</ele>
        <time>2017-05-07T09:48:04Z</time>
      </trkpt>
      <trkpt lat="45.94492" lon="4.73679">
        <ele>185</ele>
        <time>2017-05-07T09:48:05Z</time>
      </trkpt>
      <trkpt lat="45.94493" lon="4.7367">
        <ele>185</ele>
        <time>2017-05-07T09:48:06Z</time>
      </trkpt>
      <trkpt lat="45.94494" lon="4.7366">
        <ele>185</ele>
        <time>2017-05-07T09:48:07Z</time>
      </trkpt>
      <trkpt lat="45.94495" lon="4.7365">
        <ele>185</ele>
        <time>2017-05-07T09:48:08Z</time>
      </trkpt>
      <trkpt lat="45.94496" lon="4.73641">
        <ele>186</ele>
        <time>2017-05-07T09:48:09Z</time>
      </trkpt>
      <trkpt lat="45.94497" lon="4.73631">
        <ele>186</ele>
        <time>2017-05-07T09:48:10Z</time>
      </trkpt>
      <trkpt lat="45.94498" lon="4.73621">
        <ele>186</ele>
        <time>2017-05-07T09:48:11Z</time>
      </trkpt>
      <trkpt lat="45.94499" lon="4.73611">
        <ele>186</ele>
        <time>2017-05-07T09:48:12Z</time>
      </trkpt>
      <trkpt lat="45.945" lon="4.73601">
        <ele>185</ele>
        <time>2017-05-07T09:48:13Z</time>
      </trkpt>
      <trkpt lat="45.94501" lon="4.73591">
        <ele>185</ele>
        <time>2017-05-07T09:48:14Z</time>
      </trkpt>
      <trkpt lat="45.94501" lon="4.73581">
        <ele>185</ele>
        <time>2017-05-07T09:48:15Z</time>
      </trkpt>
      <trkpt lat="45.94502" lon="4.73571">
        <ele>184</ele>
        <time>2017-05-07T09:48:16Z</time>
      </trkpt>
      <trkpt lat="45.94502" lon="4.73561">
        <ele>184</ele>
        <time>2017-05-07T09:48:17Z</time>
      </trkpt>
      <trkpt lat="45.94502" lon="4.7355">
        <ele>183</ele>
        <time>2017-05-07T09:48:18Z</time>
      </trkpt>
      <trkpt lat="45.94502" lon="4.7354">
        <ele>183</ele>
        <time>2017-05-07T09:48:19Z</time>
      </trkpt>
      <trkpt lat="45.94502" lon="4.7353">
        <ele>183</ele>
        <time>2017-05-07T09:48:20Z</time>
      </trkpt>
      <trkpt lat="45.94502" lon="4.7352">
        <ele>183</ele>
        <time>2017-05-07T09:48:21Z</time>
      </trkpt>
      <trkpt lat="45.94502" lon="4.73508">
        <ele>183</ele>
        <time>2017-05-07T09:48:22Z</time>
      </trkpt>
      <trkpt lat="45.94503" lon="4.73498">
        <ele>183</ele>
        <time>2017-05-07T09:48:23Z</time>
      </trkpt>
      <trkpt lat="45.94503" lon="4.73487">
        <ele>182</ele>
        <time>2017-05-07T09:48:24Z</time>
      </trkpt>
      <trkpt lat="45.94503" lon="4.73477">
        <ele>182</ele>
        <time>2017-05-07T09:48:25Z</time>
      </trkpt>
      <trkpt lat="45.94503" lon="4.73467">
        <ele>181</ele>
        <time>2017-05-07T09:48:26Z</time>
      </trkpt>
      <trkpt lat="45.94503" lon="4.73456">
        <ele>181</ele>
        <time>2017-05-07T09:48:27Z</time>
      </trkpt>
      <trkpt lat="45.94503" lon="4.73446">
        <ele>181</ele>
        <time>2017-05-07T09:48:28Z</time>
      </trkpt>
      <trkpt lat="45.94502" lon="4.73436">
        <ele>181</ele>
        <time>2017-05-07T09:48:29Z</time>
      </trkpt>
      <trkpt lat="45.94502" lon="4.73425">
        <ele>180</ele>
        <time>2017-05-07T09:48:30Z</time>
      </trkpt>
      <trkpt lat="45.94501" lon="4.73414">
        <ele>180</ele>
        <time>2017-05-07T09:48:31Z</time>
      </trkpt>
      <trkpt lat="45.945" lon="4.73403">
        <ele>179</ele>
        <time>2017-05-07T09:48:32Z</time>
      </trkpt>
      <trkpt lat="45.94499" lon="4.73392">
        <ele>179</ele>
        <time>2017-05-07T09:48:33Z</time>
      </trkpt>
      <trkpt lat="45.94498" lon="4.73381">
        <ele>179</ele>
        <time>2017-05-07T09:48:34Z</time>
      </trkpt>
      <trkpt lat="45.94497" lon="4.7337">
        <ele>179</ele>
        <time>2017-05-07T09:48:35Z</time>
      </trkpt>
      <trkpt lat="45.94496" lon="4.73359">
        <ele>178</ele>
        <time>2017-05-07T09:48:36Z</time>
      </trkpt>
      <trkpt lat="45.94495" lon="4.73348">
        <ele>178</ele>
        <time>2017-05-07T09:48:37Z</time>
      </trkpt>
      <trkpt lat="45.94493" lon="4.73337">
        <ele>178</ele>
        <time>2017-05-07T09:48:38Z</time>
      </trkpt>
      <trkpt lat="45.94492" lon="4.73326">
        <ele>177</ele>
        <time>2017-05-07T09:48:39Z</time>
      </trkpt>
      <trkpt lat="45.94491" lon="4.73314">
        <ele>177</ele>
        <time>2017-05-07T09:48:40Z</time>
      </trkpt>
      <trkpt lat="45.94489" lon="4.73303">
        <ele>177</ele>
        <time>2017-05-07T09:48:41Z</time>
      </trkpt>
      <trkpt lat="45.94488" lon="4.73292">
        <ele>177</ele>
        <time>2017-05-07T09:48:42Z</time>
      </trkpt>
      <trkpt lat="45.94486" lon="4.73281">
        <ele>177</ele>
        <time>2017-05-07T09:48:43Z</time>
      </trkpt>
      <trkpt lat="45.94484" lon="4.73269">
        <ele>177</ele>
        <time>2017-05-07T09:48:44Z</time>
      </trkpt>
      <trkpt lat="45.94483" lon="4.73259">
        <ele>176</ele>
        <time>2017-05-07T09:48:45Z</time>
      </trkpt>
      <trkpt lat="45.94481" lon="4.73248">
        <ele>175</ele>
        <time>2017-05-07T09:48:46Z</time>
      </trkpt>
      <trkpt lat="45.9448" lon="4.73237">
        <ele>175</ele>
        <time>2017-05-07T09:48:47Z</time>
      </trkpt>
      <trkpt lat="45.94478" lon="4.73227">
        <ele>175</ele>
        <time>2017-05-07T09:48:48Z</time>
      </trkpt>
      <trkpt lat="45.94477" lon="4.73216">
        <ele>175</ele>
        <time>2017-05-07T09:48:49Z</time>
      </trkpt>
      <trkpt lat="45.94475" lon="4.73205">
        <ele>175</ele>
        <time>2017-05-07T09:48:50Z</time>
      </trkpt>
      <trkpt lat="45.94474" lon="4.73194">
        <ele>174</ele>
        <time>2017-05-07T09:48:51Z</time>
      </trkpt>
      <trkpt lat="45.94473" lon="4.73183">
        <ele>174</ele>
        <time>2017-05-07T09:48:52Z</time>
      </trkpt>
      <trkpt lat="45.94472" lon="4.73172">
        <ele>174</ele>
        <time>2017-05-07T09:48:53Z</time>
      </trkpt>
      <trkpt lat="45.9447" lon="4.73162">
        <ele>172</ele>
        <time>2017-05-07T09:48:54Z</time>
      </trkpt>
      <trkpt lat="45.94469" lon="4.73151">
        <ele>172</ele>
        <time>2017-05-07T09:48:55Z</time>
      </trkpt>
      <trkpt lat="45.94468" lon="4.73141">
        <ele>172</ele>
        <time>2017-05-07T09:48:56Z</time>
      </trkpt>
      <trkpt lat="45.94466" lon="4.7313">
        <ele>172</ele>
        <time>2017-05-07T09:48:57Z</time>
      </trkpt>
      <trkpt lat="45.94465" lon="4.7312">
        <ele>172</ele>
        <time>2017-05-07T09:48:58Z</time>
      </trkpt>
      <trkpt lat="45.94464" lon="4.7311">
        <ele>172</ele>
        <time>2017-05-07T09:48:59Z</time>
      </trkpt>
      <trkpt lat="45.94463" lon="4.731">
        <ele>171</ele>
        <time>2017-05-07T09:49:00Z</time>
      </trkpt>
      <trkpt lat="45.94461" lon="4.7309">
        <ele>171</ele>
        <time>2017-05-07T09:49:01Z</time>
      </trkpt>
      <trkpt lat="45.9446" lon="4.7308">
        <ele>170</ele>
        <time>2017-05-07T09:49:02Z</time>
      </trkpt>
      <trkpt lat="45.94458" lon="4.73071">
        <ele>170</ele>
        <time>2017-05-07T09:49:03Z</time>
      </trkpt>
      <trkpt lat="45.94457" lon="4.73061">
        <ele>170</ele>
        <time>2017-05-07T09:49:04Z</time>
      </trkpt>
      <trkpt lat="45.94455" lon="4.73052">
        <ele>170</ele>
        <time>2017-05-07T09:49:05Z</time>
      </trkpt>
      <trkpt lat="45.94454" lon="4.73043">
        <ele>169</ele>
        <time>2017-05-07T09:49:06Z</time>
      </trkpt>
      <trkpt lat="45.94452" lon="4.73035">
        <ele>169</ele>
        <time>2017-05-07T09:49:07Z</time>
      </trkpt>
      <trkpt lat="45.94451" lon="4.73026">
        <ele>169</ele>
        <time>2017-05-07T09:49:08Z</time>
      </trkpt>
      <trkpt lat="45.9445" lon="4.73018">
        <ele>169</ele>
        <time>2017-05-07T09:49:09Z</time>
      </trkpt>
      <trkpt lat="45.94449" lon="4.73009">
        <ele>169</ele>
        <time>2017-05-07T09:49:10Z</time>
      </trkpt>
      <trkpt lat="45.94448" lon="4.73001">
        <ele>169</ele>
        <time>2017-05-07T09:49:11Z</time>
      </trkpt>
      <trkpt lat="45.94447" lon="4.72993">
        <ele>167</ele>
        <time>2017-05-07T09:49:12Z</time>
      </trkpt>
      <trkpt lat="45.94446" lon="4.72985">
        <ele>167</ele>
        <time>2017-05-07T09:49:13Z</time>
      </trkpt>
      <trkpt lat="45.94445" lon="4.72977">
        <ele>167</ele>
        <time>2017-05-07T09:49:14Z</time>
      </trkpt>
      <trkpt lat="45.94444" lon="4.72969">
        <ele>167</ele>
        <time>2017-05-07T09:49:15Z</time>
      </trkpt>
      <trkpt lat="45.94443" lon="4.72962">
        <ele>167</ele>
        <time>2017-05-07T09:49:16Z</time>
      </trkpt>
      <trkpt lat="45.94442" lon="4.72953">
        <ele>167</ele>
        <time>2017-05-07T09:49:17Z</time>
      </trkpt>
      <trkpt lat="45.94441" lon="4.72945">
        <ele>167</ele>
        <time>2017-05-07T09:49:18Z</time>
      </trkpt>
      <trkpt lat="45.9444" lon="4.72937">
        <ele>167</ele>
        <time>2017-05-07T09:49:19Z</time>
      </trkpt>
      <trkpt lat="45.94439" lon="4.72929">
        <ele>167</ele>
        <time>2017-05-07T09:49:20Z</time>
      </trkpt>
      <trkpt lat="45.94439" lon="4.72922">
        <ele>167</ele>
        <time>2017-05-07T09:49:21Z</time>
      </trkpt>
      <trkpt lat="45.94437" lon="4.72913">
        <ele>166</ele>
        <time>2017-05-07T09:49:22Z</time>
      </trkpt>
      <trkpt lat="45.94436" lon="4.72905">
        <ele>166</ele>
        <time>2017-05-07T09:49:23Z</time>
      </trkpt>
      <trkpt lat="45.94434" lon="4.72897">
        <ele>166</ele>
        <time>2017-05-07T09:49:24Z</time>
      </trkpt>
      <trkpt lat="45.94433" lon="4.72888">
        <ele>166</ele>
        <time>2017-05-07T09:49:25Z</time>
      </trkpt>
      <trkpt lat="45.94432" lon="4.72879">
        <ele>166</ele>
        <time>2017-05-07T09:49:26Z</time>
      </trkpt>
      <trkpt lat="45.94431" lon="4.72871">
        <ele>166</ele>
        <time>2017-05-07T09:49:27Z</time>
      </trkpt>
      <trkpt lat="45.9443" lon="4.72862">
        <ele>166</ele>
        <time>2017-05-07T09:49:28Z</time>
      </trkpt>
      <trkpt lat="45.94429" lon="4.72853">
        <ele>166</ele>
        <time>2017-05-07T09:49:29Z</time>
      </trkpt>
      <trkpt lat="45.94428" lon="4.72843">
        <ele>166</ele>
        <time>2017-05-07T09:49:30Z</time>
      </trkpt>
      <trkpt lat="45.94427" lon="4.72834">
        <ele>166</ele>
        <time>2017-05-07T09:49:31Z</time>
      </trkpt>
      <trkpt lat="45.94426" lon="4.72824">
        <ele>167</ele>
        <time>2017-05-07T09:49:32Z</time>
      </trkpt>
      <trkpt lat="45.94424" lon="4.72814">
        <ele>167</ele>
        <time>2017-05-07T09:49:33Z</time>
      </trkpt>
      <trkpt lat="45.94423" lon="4.72804">
        <ele>167</ele>
        <time>2017-05-07T09:49:34Z</time>
      </trkpt>
      <trkpt lat="45.94422" lon="4.72794">
        <ele>168</ele>
        <time>2017-05-07T09:49:35Z</time>
      </trkpt>
      <trkpt lat="45.94421" lon="4.72783">
        <ele>168</ele>
        <time>2017-05-07T09:49:36Z</time>
      </trkpt>
      <trkpt lat="45.94419" lon="4.72773">
        <ele>169</ele>
        <time>2017-05-07T09:49:37Z</time>
      </trkpt>
      <trkpt lat="45.94418" lon="4.72763">
        <ele>169</ele>
        <time>2017-05-07T09:49:38Z</time>
      </trkpt>
      <trkpt lat="45.94417" lon="4.72753">
        <ele>171</ele>
        <time>2017-05-07T09:49:39Z</time>
      </trkpt>
      <trkpt lat="45.94415" lon="4.72743">
        <ele>171</ele>
        <time>2017-05-07T09:49:40Z</time>
      </trkpt>
      <trkpt lat="45.94414" lon="4.72733">
        <ele>172</ele>
        <time>2017-05-07T09:49:41Z</time>
      </trkpt>
      <trkpt lat="45.94413" lon="4.72723">
        <ele>172</ele>
        <time>2017-05-07T09:49:42Z</time>
      </trkpt>
      <trkpt lat="45.94411" lon="4.72714">
        <ele>172</ele>
        <time>2017-05-07T09:49:43Z</time>
      </trkpt>
      <trkpt lat="45.9441" lon="4.72704">
        <ele>172</ele>
        <time>2017-05-07T09:49:44Z</time>
      </trkpt>
      <trkpt lat="45.94409" lon="4.72695">
        <ele>173</ele>
        <time>2017-05-07T09:49:45Z</time>
      </trkpt>
      <trkpt lat="45.94408" lon="4.72686">
        <ele>173</ele>
        <time>2017-05-07T09:49:46Z</time>
      </trkpt>
      <trkpt lat="45.94407" lon="4.72677">
        <ele>173</ele>
        <time>2017-05-07T09:49:47Z</time>
      </trkpt>
      <trkpt lat="45.94406" lon="4.72668">
        <ele>173</ele>
        <time>2017-05-07T09:49:48Z</time>
      </trkpt>
      <trkpt lat="45.94405" lon="4.7266">
        <ele>174</ele>
        <time>2017-05-07T09:49:49Z</time>
      </trkpt>
      <trkpt lat="45.94404" lon="4.7265">
        <ele>174</ele>
        <time>2017-05-07T09:49:50Z</time>
      </trkpt>
      <trkpt lat="45.94404" lon="4.72642">
        <ele>174</ele>
        <time>2017-05-07T09:49:51Z</time>
      </trkpt>
      <trkpt lat="45.94403" lon="4.72634">
        <ele>174</ele>
        <time>2017-05-07T09:49:52Z</time>
      </trkpt>
      <trkpt lat="45.94402" lon="4.72626">
        <ele>174</ele>
        <time>2017-05-07T09:49:53Z</time>
      </trkpt>
      <trkpt lat="45.94401" lon="4.72618">
        <ele>173</ele>
        <time>2017-05-07T09:49:54Z</time>
      </trkpt>
      <trkpt lat="45.94399" lon="4.72609">
        <ele>173</ele>
        <time>2017-05-07T09:49:55Z</time>
      </trkpt>
      <trkpt lat="45.94398" lon="4.72602">
        <ele>173</ele>
        <time>2017-05-07T09:49:56Z</time>
      </trkpt>
      <trkpt lat="45.94397" lon="4.72594">
        <ele>173</ele>
        <time>2017-05-07T09:49:57Z</time>
      </trkpt>
      <trkpt lat="45.94395" lon="4.72587">
        <ele>173</ele>
        <time>2017-05-07T09:49:58Z</time>
      </trkpt>
      <trkpt lat="45.94394" lon="4.72579">
        <ele>173</ele>
        <time>2017-05-07T09:49:59Z</time>
      </trkpt>
      <trkpt lat="45.94392" lon="4.72572">
        <ele>173</ele>
        <time>2017-05-07T09:50:00Z</time>
      </trkpt>
      <trkpt lat="45.9439" lon="4.72563">
        <ele>173</ele>
        <time>2017-05-07T09:50:01Z</time>
      </trkpt>
      <trkpt lat="45.94388" lon="4.72555">
        <ele>173</ele>
        <time>2017-05-07T09:50:02Z</time>
      </trkpt>
      <trkpt lat="45.94386" lon="4.72546">
        <ele>173</ele>
        <time>2017-05-07T09:50:03Z</time>
      </trkpt>
      <trkpt lat="45.94384" lon="4.72537">
        <ele>174</ele>
        <time>2017-05-07T09:50:04Z</time>
      </trkpt>
      <trkpt lat="45.94381" lon="4.72528">
        <ele>174</ele>
        <time>2017-05-07T09:50:05Z</time>
      </trkpt>
      <trkpt lat="45.94379" lon="4.72519">
        <ele>174</ele>
        <time>2017-05-07T09:50:06Z</time>
      </trkpt>
      <trkpt lat="45.94376" lon="4.7251">
        <ele>174</ele>
        <time>2017-05-07T09:50:07Z</time>
      </trkpt>
      <trkpt lat="45.94372" lon="4.72501">
        <ele>173</ele>
        <time>2017-05-07T09:50:08Z</time>
      </trkpt>
      <trkpt lat="45.94369" lon="4.72491">
        <ele>173</ele>
        <time>2017-05-07T09:50:09Z</time>
      </trkpt>
      <trkpt lat="45.94366" lon="4.72482">
        <ele>173</ele>
        <time>2017-05-07T09:50:10Z</time>
      </trkpt>
      <trkpt lat="45.94363" lon="4.72474">
        <ele>173</ele>
        <time>2017-05-07T09:50:11Z</time>
      </trkpt>
      <trkpt lat="45.9436" lon="4.72466">
        <ele>173</ele>
        <time>2017-05-07T09:50:12Z</time>
      </trkpt>
      <trkpt lat="45.94357" lon="4.72459">
        <ele>173</ele>
        <time>2017-05-07T09:50:13Z</time>
      </trkpt>
      <trkpt lat="45.94353" lon="4.72451">
        <ele>173</ele>
        <time>2017-05-07T09:50:14Z</time>
      </trkpt>
      <trkpt lat="45.9435" lon="4.72444">
        <ele>173</ele>
        <time>2017-05-07T09:50:15Z</time>
      </trkpt>
      <trkpt lat="45.94347" lon="4.72438">
        <ele>173</ele>
        <time>2017-05-07T09:50:16Z</time>
      </trkpt>
      <trkpt lat="45.94344" lon="4.72431">
        <ele>173</ele>
        <time>2017-05-07T09:50:17Z</time>
      </trkpt>
      <trkpt lat="45.94341" lon="4.72424">
        <ele>173</ele>
        <time>2017-05-07T09:50:18Z</time>
      </trkpt>
      <trkpt lat="45.94338" lon="4.72417">
        <ele>173</ele>
        <time>2017-05-07T09:50:19Z</time>
      </trkpt>
      <trkpt lat="45.94335" lon="4.7241">
        <ele>173</ele>
        <time>2017-05-07T09:50:20Z</time>
      </trkpt>
      <trkpt lat="45.94332" lon="4.72404">
        <ele>173</ele>
        <time>2017-05-07T09:50:21Z</time>
      </trkpt>
      <trkpt lat="45.9433" lon="4.72398">
        <ele>172</ele>
        <time>2017-05-07T09:50:22Z</time>
      </trkpt>
      <trkpt lat="45.94326" lon="4.72391">
        <ele>172</ele>
        <time>2017-05-07T09:50:23Z</time>
      </trkpt>
      <trkpt lat="45.94322" lon="4.72384">
        <ele>172</ele>
        <time>2017-05-07T09:50:24Z</time>
      </trkpt>
      <trkpt lat="45.94318" lon="4.72375">
        <ele>172</ele>
        <time>2017-05-07T09:50:25Z</time>
      </trkpt>
      <trkpt lat="45.94315" lon="4.72368">
        <ele>172</ele>
        <time>2017-05-07T09:50:26Z</time>
      </trkpt>
      <trkpt lat="45.9431" lon="4.7236">
        <ele>172</ele>
        <time>2017-05-07T09:50:27Z</time>
      </trkpt>
      <trkpt lat="45.94307" lon="4.72351">
        <ele>172</ele>
        <time>2017-05-07T09:50:28Z</time>
      </trkpt>
      <trkpt lat="45.94303" lon="4.72342">
        <ele>172</ele>
        <time>2017-05-07T09:50:29Z</time>
      </trkpt>
      <trkpt lat="45.94299" lon="4.72333">
        <ele>171</ele>
        <time>2017-05-07T09:50:30Z</time>
      </trkpt>
      <trkpt lat="45.94295" lon="4.72324">
        <ele>171</ele>
        <time>2017-05-07T09:50:31Z</time>
      </trkpt>
      <trkpt lat="45.94291" lon="4.72316">
        <ele>171</ele>
        <time>2017-05-07T09:50:32Z</time>
      </trkpt>
      <trkpt lat="45.94288" lon="4.72308">
        <ele>171</ele>
        <time>2017-05-07T09:50:33Z</time>
      </trkpt>
      <trkpt lat="45.94285" lon="4.723">
        <ele>171</ele>
        <time>2017-05-07T09:50:34Z</time>
      </trkpt>
      <trkpt lat="45.94282" lon="4.72292">
        <ele>171</ele>
        <time>2017-05-07T09:50:35Z</time>
      </trkpt>
      <trkpt lat="45.94279" lon="4.72285">
        <ele>171</ele>
        <time>2017-05-07T09:50:36Z</time>
      </trkpt>
      <trkpt lat="45.94275" lon="4.72278">
        <ele>171</ele>
        <time>2017-05-07T09:50:37Z</time>
      </trkpt>
      <trkpt lat="45.9427" lon="4.72273">
        <ele>171</ele>
        <time>2017-05-07T09:50:38Z</time>
      </trkpt>
      <trkpt lat="45.94265" lon="4.72272">
        <ele>171</ele>
        <time>2017-05-07T09:50:39Z</time>
      </trkpt>
      <trkpt lat="45.94259" lon="4.72272">
        <ele>171</ele>
        <time>2017-05-07T09:50:40Z</time>
      </trkpt>
      <trkpt lat="45.94254" lon="4.72274">
        <ele>171</ele>
        <time>2017-05-07T09:50:41Z</time>
      </trkpt>
      <trkpt lat="45.94249" lon="4.72276">
        <ele>171</ele>
        <time>2017-05-07T09:50:42Z</time>
      </trkpt>
      <trkpt lat="45.94244" lon="4.72278">
        <ele>171</ele>
        <time>2017-05-07T09:50:43Z</time>
      </trkpt>
      <trkpt lat="45.94239" lon="4.72279">
        <ele>171</ele>
        <time>2017-05-07T09:50:44Z</time>
      </trkpt>
      <trkpt lat="45.94234" lon="4.72281">
        <ele>171</ele>
        <time>2017-05-07T09:50:45Z</time>
      </trkpt>
      <trkpt lat="45.94229" lon="4.72282">
        <ele>171</ele>
        <time>2017-05-07T09:50:46Z</time>
      </trkpt>
      <trkpt lat="45.94224" lon="4.72283">
        <ele>171</ele>
        <time>2017-05-07T09:50:47Z</time>
      </trkpt>
      <trkpt lat="45.94218" lon="4.72284">
        <ele>171</ele>
        <time>2017-05-07T09:50:48Z</time>
      </trkpt>
      <trkpt lat="45.94212" lon="4.72285">
        <ele>171</ele>
        <time>2017-05-07T09:50:49Z</time>
      </trkpt>
      <trkpt lat="45.94206" lon="4.72286">
        <ele>171</ele>
        <time>2017-05-07T09:50:50Z</time>
      </trkpt>
      <trkpt lat="45.942" lon="4.72287">
        <ele>171</ele>
        <time>2017-05-07T09:50:51Z</time>
      </trkpt>
      <trkpt lat="45.94193" lon="4.72287">
        <ele>171</ele>
        <time>2017-05-07T09:50:52Z</time>
      </trkpt>
      <trkpt lat="45.94186" lon="4.72287">
        <ele>171</ele>
        <time>2017-05-07T09:50:53Z</time>
      </trkpt>
      <trkpt lat="45.94179" lon="4.72287">
        <ele>171</ele>
        <time>2017-05-07T09:50:54Z</time>
      </trkpt>
      <trkpt lat="45.94173" lon="4.72286">
        <ele>171</ele>
        <time>2017-05-07T09:50:55Z</time>
      </trkpt>
      <trkpt lat="45.94166" lon="4.72284">
        <ele>171</ele>
        <time>2017-05-07T09:50:56Z</time>
      </trkpt>
      <trkpt lat="45.9416" lon="4.72284">
        <ele>171</ele>
        <time>2017-05-07T09:50:57Z</time>
      </trkpt>
      <trkpt lat="45.94153" lon="4.72283">
        <ele>171</ele>
        <time>2017-05-07T09:50:58Z</time>
      </trkpt>
      <trkpt lat="45.94147" lon="4.72281">
        <ele>171</ele>
        <time>2017-05-07T09:50:59Z</time>
      </trkpt>
      <trkpt lat="45.94142" lon="4.72278">
        <ele>171</ele>
        <time>2017-05-07T09:51:00Z</time>
      </trkpt>
      <trkpt lat="45.94136" lon="4.72276">
        <ele>171</ele>
        <time>2017-05-07T09:51:01Z</time>
      </trkpt>
      <trkpt lat="45.94131" lon="4.72273">
        <ele>171</ele>
        <time>2017-05-07T09:51:02Z</time>
      </trkpt>
      <trkpt lat="45.94125" lon="4.7227">
        <ele>171</ele>
        <time>2017-05-07T09:51:03Z</time>
      </trkpt>
      <trkpt lat="45.94119" lon="4.72268">
        <ele>171</ele>
        <time>2017-05-07T09:51:04Z</time>
      </trkpt>
      <trkpt lat="45.94113" lon="4.72266">
        <ele>171</ele>
        <time>2017-05-07T09:51:05Z</time>
      </trkpt>
      <trkpt lat="45.94108" lon="4.72264">
        <ele>171</ele>
        <time>2017-05-07T09:51:06Z</time>
      </trkpt>
      <trkpt lat="45.94102" lon="4.72263">
        <ele>171</ele>
        <time>2017-05-07T09:51:07Z</time>
      </trkpt>
      <trkpt lat="45.94096" lon="4.72262">
        <ele>171</ele>
        <time>2017-05-07T09:51:08Z</time>
      </trkpt>
      <trkpt lat="45.9409" lon="4.72261">
        <ele>171</ele>
        <time>2017-05-07T09:51:09Z</time>
      </trkpt>
      <trkpt lat="45.94083" lon="4.72262">
        <ele>171</ele>
        <time>2017-05-07T09:51:10Z</time>
      </trkpt>
      <trkpt lat="45.94078" lon="4.72264">
        <ele>171</ele>
        <time>2017-05-07T09:51:11Z</time>
      </trkpt>
      <trkpt lat="45.94072" lon="4.72268">
        <ele>171</ele>
        <time>2017-05-07T09:51:12Z</time>
      </trkpt>
      <trkpt lat="45.94066" lon="4.72273">
        <ele>171</ele>
        <time>2017-05-07T09:51:13Z</time>
      </trkpt>
      <trkpt lat="45.94061" lon="4.72279">
        <ele>171</ele>
        <time>2017-05-07T09:51:14Z</time>
      </trkpt>
      <trkpt lat="45.94055" lon="4.72285">
        <ele>171</ele>
        <time>2017-05-07T09:51:15Z</time>
      </trkpt>
      <trkpt lat="45.9405" lon="4.72292">
        <ele>171</ele>
        <time>2017-05-07T09:51:16Z</time>
      </trkpt>
      <trkpt lat="45.94045" lon="4.72298">
        <ele>171</ele>
        <time>2017-05-07T09:51:17Z</time>
      </trkpt>
      <trkpt lat="45.9404" lon="4.72305">
        <ele>171</ele>
        <time>2017-05-07T09:51:18Z</time>
      </trkpt>
      <trkpt lat="45.94035" lon="4.72312">
        <ele>171</ele>
        <time>2017-05-07T09:51:19Z</time>
      </trkpt>
      <trkpt lat="45.9403" lon="4.72319">
        <ele>171</ele>
        <time>2017-05-07T09:51:20Z</time>
      </trkpt>
      <trkpt lat="45.94024" lon="4.72325">
        <ele>171</ele>
        <time>2017-05-07T09:51:21Z</time>
      </trkpt>
      <trkpt lat="45.94019" lon="4.72332">
        <ele>171</ele>
        <time>2017-05-07T09:51:22Z</time>
      </trkpt>
      <trkpt lat="45.94014" lon="4.72338">
        <ele>171</ele>
        <time>2017-05-07T09:51:23Z</time>
      </trkpt>
      <trkpt lat="45.94009" lon="4.72345">
        <ele>171</ele>
        <time>2017-05-07T09:51:24Z</time>
      </trkpt>
      <trkpt lat="45.94004" lon="4.72351">
        <ele>171</ele>
        <time>2017-05-07T09:51:25Z</time>
      </trkpt>
      <trkpt lat="45.93999" lon="4.72357">
        <ele>171</ele>
        <time>2017-05-07T09:51:26Z</time>
      </trkpt>
      <trkpt lat="45.93994" lon="4.72363">
        <ele>171</ele>
        <time>2017-05-07T09:51:27Z</time>
      </trkpt>
      <trkpt lat="45.9399" lon="4.72369">
        <ele>171</ele>
        <time>2017-05-07T09:51:28Z</time>
      </trkpt>
      <trkpt lat="45.93985" lon="4.72376">
        <ele>171</ele>
        <time>2017-05-07T09:51:29Z</time>
      </trkpt>
      <trkpt lat="45.9398" lon="4.72381">
        <ele>171</ele>
        <time>2017-05-07T09:51:30Z</time>
      </trkpt>
      <trkpt lat="45.93976" lon="4.72387">
        <ele>171</ele>
        <time>2017-05-07T09:51:31Z</time>
      </trkpt>
      <trkpt lat="45.93971" lon="4.72393">
        <ele>171</ele>
        <time>2017-05-07T09:51:32Z</time>
      </trkpt>
      <trkpt lat="45.93967" lon="4.72399">
        <ele>171</ele>
        <time>2017-05-07T09:51:33Z</time>
      </trkpt>
      <trkpt lat="45.93962" lon="4.72404">
        <ele>171</ele>
        <time>2017-05-07T09:51:34Z</time>
      </trkpt>
      <trkpt lat="45.93958" lon="4.7241">
        <ele>171</ele>
        <time>2017-05-07T09:51:35Z</time>
      </trkpt>
      <trkpt lat="45.93953" lon="4.72415">
        <ele>171</ele>
        <time>2017-05-07T09:51:36Z</time>
      </trkpt>
      <trkpt lat="45.93949" lon="4.72421">
        <ele>171</ele>
        <time>2017-05-07T09:51:37Z</time>
      </trkpt>
      <trkpt lat="45.93945" lon="4.72426">
        <ele>171</ele>
        <time>2017-05-07T09:51:38Z</time>
      </trkpt>
      <trkpt lat="45.9394" lon="4.72432">
        <ele>171</ele>
        <time>2017-05-07T09:51:39Z</time>
      </trkpt>
      <trkpt lat="45.93936" lon="4.72437">
        <ele>171</ele>
        <time>2017-05-07T09:51:40Z</time>
      </trkpt>
      <trkpt lat="45.93932" lon="4.72442">
        <ele>171</ele>
        <time>2017-05-07T09:51:41Z</time>
      </trkpt>
      <trkpt lat="45.93927" lon="4.72448">
        <ele>171</ele>
        <time>2017-05-07T09:51:42Z</time>
      </trkpt>
      <trkpt lat="45.93923" lon="4.72454">
        <ele>171</ele>
        <time>2017-05-07T09:51:43Z</time>
      </trkpt>
      <trkpt lat="45.93918" lon="4.72459">
        <ele>171</ele>
        <time>2017-05-07T09:51:44Z</time>
      </trkpt>
      <trkpt lat="45.93913" lon="4.72465">
        <ele>172</ele>
        <time>2017-05-07T09:51:45Z</time>
      </trkpt>
      <trkpt lat="45.93908" lon="4.72471">
        <ele>172</ele>
        <time>2017-05-07T09:51:46Z</time>
      </trkpt>
      <trkpt lat="45.93904" lon="4.72476">
        <ele>172</ele>
        <time>2017-05-07T09:51:47Z</time>
      </trkpt>
      <trkpt lat="45.939" lon="4.72482">
        <ele>172</ele>
        <time>2017-05-07T09:51:48Z</time>
      </trkpt>
      <trkpt lat="45.93896" lon="4.72487">
        <ele>172</ele>
        <time>2017-05-07T09:51:49Z</time>
      </trkpt>
      <trkpt lat="45.93892" lon="4.72492">
        <ele>172</ele>
        <time>2017-05-07T09:51:50Z</time>
      </trkpt>
      <trkpt lat="45.93888" lon="4.72497">
        <ele>172</ele>
        <time>2017-05-07T09:51:51Z</time>
      </trkpt>
      <trkpt lat="45.93884" lon="4.72502">
        <ele>173</ele>
        <time>2017-05-07T09:51:52Z</time>
      </trkpt>
      <trkpt lat="45.9388" lon="4.72507">
        <ele>173</ele>
        <time>2017-05-07T09:51:53Z</time>
      </trkpt>
      <trkpt lat="45.93876" lon="4.72511">
        <ele>173</ele>
        <time>2017-05-07T09:51:54Z</time>
      </trkpt>
      <trkpt lat="45.93872" lon="4.72514">
        <ele>173</ele>
        <time>2017-05-07T09:51:55Z</time>
      </trkpt>
      <trkpt lat="45.93867" lon="4.72515">
        <ele>173</ele>
        <time>2017-05-07T09:51:56Z</time>
      </trkpt>
      <trkpt lat="45.93862" lon="4.72515">
        <ele>173</ele>
        <time>2017-05-07T09:51:57Z</time>
      </trkpt>
      <trkpt lat="45.93858" lon="4.72513">
        <ele>173</ele>
        <time>2017-05-07T09:51:58Z</time>
      </trkpt>
      <trkpt lat="45.93853" lon="4.72511">
        <ele>173</ele>
        <time>2017-05-07T09:51:59Z</time>
      </trkpt>
      <trkpt lat="45.93849" lon="4.72508">
        <ele>174</ele>
        <time>2017-05-07T09:52:00Z</time>
      </trkpt>
      <trkpt lat="45.93845" lon="4.72505">
        <ele>174</ele>
        <time>2017-05-07T09:52:01Z</time>
      </trkpt>
      <trkpt lat="45.93841" lon="4.72501">
        <ele>174</ele>
        <time>2017-05-07T09:52:02Z</time>
      </trkpt>
      <trkpt lat="45.93836" lon="4.72498">
        <ele>174</ele>
        <time>2017-05-07T09:52:03Z</time>
      </trkpt>
      <trkpt lat="45.93832" lon="4.72494">
        <ele>173</ele>
        <time>2017-05-07T09:52:04Z</time>
      </trkpt>
      <trkpt lat="45.93826" lon="4.72489">
        <ele>173</ele>
        <time>2017-05-07T09:52:05Z</time>
      </trkpt>
      <trkpt lat="45.93821" lon="4.72483">
        <ele>173</ele>
        <time>2017-05-07T09:52:06Z</time>
      </trkpt>
      <trkpt lat="45.93814" lon="4.72477">
        <ele>172</ele>
        <time>2017-05-07T09:52:07Z</time>
      </trkpt>
      <trkpt lat="45.93809" lon="4.72472">
        <ele>172</ele>
        <time>2017-05-07T09:52:08Z</time>
      </trkpt>
      <trkpt lat="45.93805" lon="4.72467">
        <ele>172</ele>
        <time>2017-05-07T09:52:09Z</time>
      </trkpt>
      <trkpt lat="45.938" lon="4.72463">
        <ele>172</ele>
        <time>2017-05-07T09:52:10Z</time>
      </trkpt>
      <trkpt lat="45.93794" lon="4.72459">
        <ele>172</ele>
        <time>2017-05-07T09:52:11Z</time>
      </trkpt>
      <trkpt lat="45.93788" lon="4.72453">
        <ele>172</ele>
        <time>2017-05-07T09:52:12Z</time>
      </trkpt>
      <trkpt lat="45.93783" lon="4.72449">
        <ele>172</ele>
        <time>2017-05-07T09:52:13Z</time>
      </trkpt>
      <trkpt lat="45.93778" lon="4.72445">
        <ele>172</ele>
        <time>2017-05-07T09:52:14Z</time>
      </trkpt>
      <trkpt lat="45.93774" lon="4.72441">
        <ele>171</ele>
        <time>2017-05-07T09:52:15Z</time>
      </trkpt>
      <trkpt lat="45.9377" lon="4.72436">
        <ele>171</ele>
        <time>2017-05-07T09:52:16Z</time>
      </trkpt>
      <trkpt lat="45.93767" lon="4.72432">
        <ele>171</ele>
        <time>2017-05-07T09:52:17Z</time>
      </trkpt>
      <trkpt lat="45.93762" lon="4.72428">
        <ele>171</ele>
        <time>2017-05-07T09:52:18Z</time>
      </trkpt>
      <trkpt lat="45.93758" lon="4.72423">
        <ele>171</ele>
        <time>2017-05-07T09:52:19Z</time>
      </trkpt>
      <trkpt lat="45.93754" lon="4.72419">
        <ele>171</ele>
        <time>2017-05-07T09:52:20Z</time>
      </trkpt>
      <trkpt lat="45.9375" lon="4.72413">
        <ele>171</ele>
        <time>2017-05-07T09:52:21Z</time>
      </trkpt>
      <trkpt lat="45.93745" lon="4.72407">
        <ele>171</ele>
        <time>2017-05-07T09:52:22Z</time>
      </trkpt>
      <trkpt lat="45.9374" lon="4.72403">
        <ele>171</ele>
        <time>2017-05-07T09:52:23Z</time>
      </trkpt>
      <trkpt lat="45.93735" lon="4.72398">
        <ele>171</ele>
        <time>2017-05-07T09:52:24Z</time>
      </trkpt>
      <trkpt lat="45.9373" lon="4.72394">
        <ele>171</ele>
        <time>2017-05-07T09:52:25Z</time>
      </trkpt>
      <trkpt lat="45.93725" lon="4.72389">
        <ele>171</ele>
        <time>2017-05-07T09:52:26Z</time>
      </trkpt>
      <trkpt lat="45.93719" lon="4.72384">
        <ele>171</ele>
        <time>2017-05-07T09:52:27Z</time>
      </trkpt>
      <trkpt lat="45.93714" lon="4.72379">
        <ele>171</ele>
        <time>2017-05-07T09:52:28Z</time>
      </trkpt>
      <trkpt lat="45.93709" lon="4.72373">
        <ele>172</ele>
        <time>2017-05-07T09:52:29Z</time>
      </trkpt>
      <trkpt lat="45.93705" lon="4.72367">
        <ele>171</ele>
        <time>2017-05-07T09:52:30Z</time>
      </trkpt>
      <trkpt lat="45.937" lon="4.72362">
        <ele>171</ele>
        <time>2017-05-07T09:52:31Z</time>
      </trkpt>
      <trkpt lat="45.93696" lon="4.72358">
        <ele>171</ele>
        <time>2017-05-07T09:52:32Z</time>
      </trkpt>
      <trkpt lat="45.93692" lon="4.72354">
        <ele>171</ele>
        <time>2017-05-07T09:52:33Z</time>
      </trkpt>
      <trkpt lat="45.93687" lon="4.7235">
        <ele>171</ele>
        <time>2017-05-07T09:52:34Z</time>
      </trkpt>
      <trkpt lat="45.93684" lon="4.72345">
        <ele>171</ele>
        <time>2017-05-07T09:52:35Z</time>
      </trkpt>
      <trkpt lat="45.9368" lon="4.72339">
        <ele>171</ele>
        <time>2017-05-07T09:52:36Z</time>
      </trkpt>
      <trkpt lat="45.93676" lon="4.72335">
        <ele>171</ele>
        <time>2017-05-07T09:52:37Z</time>
      </trkpt>
      <trkpt lat="45.93672" lon="4.7233">
        <ele>171</ele>
        <time>2017-05-07T09:52:38Z</time>
      </trkpt>
      <trkpt lat="45.93665" lon="4.72323">
        <ele>171</ele>
        <time>2017-05-07T09:52:40Z</time>
      </trkpt>
      <trkpt lat="45.93661" lon="4.72319">
        <ele>172</ele>
        <time>2017-05-07T09:52:41Z</time>
      </trkpt>
      <trkpt lat="45.93657" lon="4.72315">
        <ele>172</ele>
        <time>2017-05-07T09:52:42Z</time>
      </trkpt>
      <trkpt lat="45.93653" lon="4.72311">
        <ele>172</ele>
        <time>2017-05-07T09:52:43Z</time>
      </trkpt>
      <trkpt lat="45.93649" lon="4.72308">
        <ele>172</ele>
        <time>2017-05-07T09:52:44Z</time>
      </trkpt>
      <trkpt lat="45.93644" lon="4.72304">
        <ele>172</ele>
        <time>2017-05-07T09:52:45Z</time>
      </trkpt>
      <trkpt lat="45.9364" lon="4.723">
        <ele>172</ele>
        <time>2017-05-07T09:52:46Z</time>
      </trkpt>
      <trkpt lat="45.93636" lon="4.72296">
        <ele>172</ele>
        <time>2017-05-07T09:52:47Z</time>
      </trkpt>
      <trkpt lat="45.93631" lon="4.72292">
        <ele>172</ele>
        <time>2017-05-07T09:52:48Z</time>
      </trkpt>
      <trkpt lat="45.93627" lon="4.72288">
        <ele>172</ele>
        <time>2017-05-07T09:52:49Z</time>
      </trkpt>
      <trkpt lat="45.93623" lon="4.72284">
        <ele>172</ele>
        <time>2017-05-07T09:52:50Z</time>
      </trkpt>
      <trkpt lat="45.93618" lon="4.7228">
        <ele>172</ele>
        <time>2017-05-07T09:52:51Z</time>
      </trkpt>
      <trkpt lat="45.93614" lon="4.72276">
        <ele>172</ele>
        <time>2017-05-07T09:52:52Z</time>
      </trkpt>
      <trkpt lat="45.9361" lon="4.72272">
        <ele>172</ele>
        <time>2017-05-07T09:52:53Z</time>
      </trkpt>
      <trkpt lat="45.93602" lon="4.72266">
        <ele>173</ele>
        <time>2017-05-07T09:52:55Z</time>
      </trkpt>
      <trkpt lat="45.93599" lon="4.72262">
        <ele>173</ele>
        <time>2017-05-07T09:52:56Z</time>
      </trkpt>
      <trkpt lat="45.93595" lon="4.72258">
        <ele>173</ele>
        <time>2017-05-07T09:52:57Z</time>
      </trkpt>
      <trkpt lat="45.93591" lon="4.72254">
        <ele>173</ele>
        <time>2017-05-07T09:52:58Z</time>
      </trkpt>
      <trkpt lat="45.93584" lon="4.72246">
        <ele>173</ele>
        <time>2017-05-07T09:53:00Z</time>
      </trkpt>
      <trkpt lat="45.93581" lon="4.72243">
        <ele>173</ele>
        <time>2017-05-07T09:53:01Z</time>
      </trkpt>
      <trkpt lat="45.93577" lon="4.72234">
        <ele>173</ele>
        <time>2017-05-07T09:53:03Z</time>
      </trkpt>
      <trkpt lat="45.93576" lon="4.72229">
        <ele>173</ele>
        <time>2017-05-07T09:53:04Z</time>
      </trkpt>
      <trkpt lat="45.93576" lon="4.72219">
        <ele>173</ele>
        <time>2017-05-07T09:53:06Z</time>
      </trkpt>
      <trkpt lat="45.93576" lon="4.72215">
        <ele>173</ele>
        <time>2017-05-07T09:53:07Z</time>
      </trkpt>
      <trkpt lat="45.93574" lon="4.72205">
        <ele>173</ele>
        <time>2017-05-07T09:53:10Z</time>
      </trkpt>
      <trkpt lat="45.93574" lon="4.72204">
        <ele>173</ele>
        <time>2017-05-07T09:53:11Z</time>
      </trkpt>
      <trkpt lat="45.93572" lon="4.72204">
        <ele>173</ele>
        <time>2017-05-07T09:53:20Z</time>
      </trkpt>
      <trkpt lat="45.93571" lon="4.72204">
        <ele>173</ele>
        <time>2017-05-07T09:53:21Z</time>
      </trkpt>
      <trkpt lat="45.93563" lon="4.7221">
        <ele>173</ele>
        <time>2017-05-07T09:53:25Z</time>
      </trkpt>
      <trkpt lat="45.9356" lon="4.72211">
        <ele>173</ele>
        <time>2017-05-07T09:53:26Z</time>
      </trkpt>
      <trkpt lat="45.93552" lon="4.72216">
        <ele>173</ele>
        <time>2017-05-07T09:53:29Z</time>
      </trkpt>
      <trkpt lat="45.9355" lon="4.72219">
        <ele>173</ele>
        <time>2017-05-07T09:53:30Z</time>
      </trkpt>
      <trkpt lat="45.93545" lon="4.72226">
        <ele>172</ele>
        <time>2017-05-07T09:53:32Z</time>
      </trkpt>
      <trkpt lat="45.93542" lon="4.7223">
        <ele>172</ele>
        <time>2017-05-07T09:53:33Z</time>
      </trkpt>
      <trkpt lat="45.93537" lon="4.72241">
        <ele>172</ele>
        <time>2017-05-07T09:53:35Z</time>
      </trkpt>
      <trkpt lat="45.93534" lon="4.72246">
        <ele>172</ele>
        <time>2017-05-07T09:53:36Z</time>
      </trkpt>
      <trkpt lat="45.93532" lon="4.72252">
        <ele>172</ele>
        <time>2017-05-07T09:53:37Z</time>
      </trkpt>
      <trkpt lat="45.93529" lon="4.72258">
        <ele>172</ele>
        <time>2017-05-07T09:53:38Z</time>
      </trkpt>
      <trkpt lat="45.93527" lon="4.72265">
        <ele>172</ele>
        <time>2017-05-07T09:53:39Z</time>
      </trkpt>
      <trkpt lat="45.93524" lon="4.72272">
        <ele>172</ele>
        <time>2017-05-07T09:53:40Z</time>
      </trkpt>
      <trkpt lat="45.93521" lon="4.72279">
        <ele>172</ele>
        <time>2017-05-07T09:53:41Z</time>
      </trkpt>
      <trkpt lat="45.93518" lon="4.72286">
        <ele>172</ele>
        <time>2017-05-07T09:53:42Z</time>
      </trkpt>
      <trkpt lat="45.93514" lon="4.72294">
        <ele>172</ele>
        <time>2017-05-07T09:53:43Z</time>
      </trkpt>
      <trkpt lat="45.9351" lon="4.723">
        <ele>172</ele>
        <time>2017-05-07T09:53:44Z</time>
      </trkpt>
      <trkpt lat="45.93506" lon="4.72307">
        <ele>173</ele>
        <time>2017-05-07T09:53:45Z</time>
      </trkpt>
      <trkpt lat="45.93502" lon="4.72314">
        <ele>173</ele>
        <time>2017-05-07T09:53:46Z</time>
      </trkpt>
      <trkpt lat="45.93497" lon="4.72321">
        <ele>173</ele>
        <time>2017-05-07T09:53:47Z</time>
      </trkpt>
      <trkpt lat="45.93492" lon="4.72328">
        <ele>173</ele>
        <time>2017-05-07T09:53:48Z</time>
      </trkpt>
      <trkpt lat="45.93487" lon="4.72335">
        <ele>173</ele>
        <time>2017-05-07T09:53:49Z</time>
      </trkpt>
      <trkpt lat="45.93482" lon="4.72342">
        <ele>173</ele>
        <time>2017-05-07T09:53:50Z</time>
      </trkpt>
      <trkpt lat="45.93478" lon="4.72349">
        <ele>173</ele>
        <time>2017-05-07T09:53:51Z</time>
      </trkpt>
      <trkpt lat="45.93473" lon="4.72356">
        <ele>173</ele>
        <time>2017-05-07T09:53:52Z</time>
      </trkpt>
      <trkpt lat="45.93468" lon="4.72362">
        <ele>173</ele>
        <time>2017-05-07T09:53:53Z</time>
      </trkpt>
      <trkpt lat="45.93463" lon="4.72369">
        <ele>173</ele>
        <time>2017-05-07T09:53:54Z</time>
      </trkpt>
      <trkpt lat="45.93459" lon="4.72375">
        <ele>173</ele>
        <time>2017-05-07T09:53:55Z</time>
      </trkpt>
      <trkpt lat="45.93453" lon="4.72381">
        <ele>173</ele>
        <time>2017-05-07T09:53:56Z</time>
      </trkpt>
      <trkpt lat="45.93448" lon="4.72386">
        <ele>173</ele>
        <time>2017-05-07T09:53:57Z</time>
      </trkpt>
      <trkpt lat="45.93443" lon="4.72391">
        <ele>173</ele>
        <time>2017-05-07T09:53:58Z</time>
      </trkpt>
      <trkpt lat="45.93437" lon="4.72394">
        <ele>173</ele>
        <time>2017-05-07T09:53:59Z</time>
      </trkpt>
      <trkpt lat="45.93432" lon="4.72398">
        <ele>174</ele>
        <time>2017-05-07T09:54:00Z</time>
      </trkpt>
      <trkpt lat="45.93426" lon="4.72401">
        <ele>174</ele>
        <time>2017-05-07T09:54:01Z</time>
      </trkpt>
      <trkpt lat="45.9342" lon="4.72404">
        <ele>174</ele>
        <time>2017-05-07T09:54:02Z</time>
      </trkpt>
      <trkpt lat="45.93415" lon="4.72406">
        <ele>174</ele>
        <time>2017-05-07T09:54:03Z</time>
      </trkpt>
      <trkpt lat="45.9341" lon="4.72407">
        <ele>174</ele>
        <time>2017-05-07T09:54:04Z</time>
      </trkpt>
      <trkpt lat="45.93405" lon="4.72408">
        <ele>174</ele>
        <time>2017-05-07T09:54:05Z</time>
      </trkpt>
      <trkpt lat="45.93399" lon="4.72407">
        <ele>174</ele>
        <time>2017-05-07T09:54:06Z</time>
      </trkpt>
      <trkpt lat="45.93394" lon="4.72406">
        <ele>174</ele>
        <time>2017-05-07T09:54:07Z</time>
      </trkpt>
      <trkpt lat="45.9339" lon="4.72406">
        <ele>174</ele>
        <time>2017-05-07T09:54:08Z</time>
      </trkpt>
      <trkpt lat="45.93385" lon="4.72408">
        <ele>174</ele>
        <time>2017-05-07T09:54:09Z</time>
      </trkpt>
      <trkpt lat="45.93381" lon="4.72413">
        <ele>174</ele>
        <time>2017-05-07T09:54:10Z</time>
      </trkpt>
      <trkpt lat="45.9338" lon="4.7242">
        <ele>173</ele>
        <time>2017-05-07T09:54:11Z</time>
      </trkpt>
      <trkpt lat="45.9338" lon="4.72427">
        <ele>173</ele>
        <time>2017-05-07T09:54:12Z</time>
      </trkpt>
      <trkpt lat="45.93383" lon="4.72435">
        <ele>173</ele>
        <time>2017-05-07T09:54:13Z</time>
      </trkpt>
      <trkpt lat="45.93385" lon="4.72443">
        <ele>173</ele>
        <time>2017-05-07T09:54:14Z</time>
      </trkpt>
      <trkpt lat="45.93387" lon="4.72451">
        <ele>173</ele>
        <time>2017-05-07T09:54:15Z</time>
      </trkpt>
      <trkpt lat="45.93386" lon="4.72459">
        <ele>173</ele>
        <time>2017-05-07T09:54:16Z</time>
      </trkpt>
      <trkpt lat="45.93384" lon="4.72467">
        <ele>173</ele>
        <time>2017-05-07T09:54:17Z</time>
      </trkpt>
      <trkpt lat="45.9338" lon="4.72473">
        <ele>173</ele>
        <time>2017-05-07T09:54:18Z</time>
      </trkpt>
      <trkpt lat="45.93375" lon="4.72478">
        <ele>173</ele>
        <time>2017-05-07T09:54:19Z</time>
      </trkpt>
      <trkpt lat="45.93369" lon="4.72484">
        <ele>173</ele>
        <time>2017-05-07T09:54:20Z</time>
      </trkpt>
      <trkpt lat="45.93364" lon="4.72489">
        <ele>173</ele>
        <time>2017-05-07T09:54:21Z</time>
      </trkpt>
      <trkpt lat="45.93359" lon="4.72495">
        <ele>173</ele>
        <time>2017-05-07T09:54:22Z</time>
      </trkpt>
      <trkpt lat="45.93353" lon="4.72502">
        <ele>172</ele>
        <time>2017-05-07T09:54:23Z</time>
      </trkpt>
      <trkpt lat="45.93348" lon="4.72507">
        <ele>172</ele>
        <time>2017-05-07T09:54:24Z</time>
      </trkpt>
      <trkpt lat="45.93343" lon="4.72514">
        <ele>172</ele>
        <time>2017-05-07T09:54:25Z</time>
      </trkpt>
      <trkpt lat="45.93337" lon="4.7252">
        <ele>172</ele>
        <time>2017-05-07T09:54:26Z</time>
      </trkpt>
      <trkpt lat="45.93332" lon="4.72526">
        <ele>172</ele>
        <time>2017-05-07T09:54:27Z</time>
      </trkpt>
      <trkpt lat="45.93327" lon="4.72533">
        <ele>172</ele>
        <time>2017-05-07T09:54:28Z</time>
      </trkpt>
      <trkpt lat="45.93322" lon="4.72539">
        <ele>172</ele>
        <time>2017-05-07T09:54:29Z</time>
      </trkpt>
      <trkpt lat="45.93317" lon="4.72544">
        <ele>172</ele>
        <time>2017-05-07T09:54:30Z</time>
      </trkpt>
      <trkpt lat="45.93312" lon="4.7255">
        <ele>172</ele>
        <time>2017-05-07T09:54:31Z</time>
      </trkpt>
      <trkpt lat="45.93308" lon="4.72556">
        <ele>172</ele>
        <time>2017-05-07T09:54:32Z</time>
      </trkpt>
      <trkpt lat="45.93303" lon="4.72562">
        <ele>172</ele>
        <time>2017-05-07T09:54:33Z</time>
      </trkpt>
      <trkpt lat="45.93299" lon="4.72567">
        <ele>172</ele>
        <time>2017-05-07T09:54:34Z</time>
      </trkpt>
      <trkpt lat="45.93294" lon="4.72573">
        <ele>171</ele>
        <time>2017-05-07T09:54:35Z</time>
      </trkpt>
      <trkpt lat="45.93289" lon="4.72579">
        <ele>171</ele>
        <time>2017-05-07T09:54:36Z</time>
      </trkpt>
      <trkpt lat="45.93284" lon="4.72585">
        <ele>170</ele>
        <time>2017-05-07T09:54:37Z</time>
      </trkpt>
      <trkpt lat="45.93279" lon="4.72591">
        <ele>170</ele>
        <time>2017-05-07T09:54:38Z</time>
      </trkpt>
      <trkpt lat="45.93274" lon="4.72596">
        <ele>170</ele>
        <time>2017-05-07T09:54:39Z</time>
      </trkpt>
      <trkpt lat="45.93269" lon="4.72602">
        <ele>170</ele>
        <time>2017-05-07T09:54:40Z</time>
      </trkpt>
      <trkpt lat="45.93264" lon="4.72608">
        <ele>170</ele>
        <time>2017-05-07T09:54:41Z</time>
      </trkpt>
      <trkpt lat="45.93259" lon="4.72614">
        <ele>170</ele>
        <time>2017-05-07T09:54:42Z</time>
      </trkpt>
      <trkpt lat="45.93254" lon="4.72619">
        <ele>170</ele>
        <time>2017-05-07T09:54:43Z</time>
      </trkpt>
      <trkpt lat="45.93249" lon="4.72625">
        <ele>170</ele>
        <time>2017-05-07T09:54:44Z</time>
      </trkpt>
      <trkpt lat="45.93245" lon="4.7263">
        <ele>170</ele>
        <time>2017-05-07T09:54:45Z</time>
      </trkpt>
      <trkpt lat="45.9324" lon="4.72636">
        <ele>170</ele>
        <time>2017-05-07T09:54:46Z</time>
      </trkpt>
      <trkpt lat="45.93235" lon="4.72641">
        <ele>170</ele>
        <time>2017-05-07T09:54:47Z</time>
      </trkpt>
      <trkpt lat="45.9323" lon="4.72646">
        <ele>170</ele>
        <time>2017-05-07T09:54:48Z</time>
      </trkpt>
      <trkpt lat="45.93225" lon="4.72652">
        <ele>170</ele>
        <time>2017-05-07T09:54:49Z</time>
      </trkpt>
      <trkpt lat="45.93221" lon="4.72657">
        <ele>170</ele>
        <time>2017-05-07T09:54:50Z</time>
      </trkpt>
      <trkpt lat="45.93216" lon="4.72663">
        <ele>170</ele>
        <time>2017-05-07T09:54:51Z</time>
      </trkpt>
      <trkpt lat="45.93212" lon="4.72668">
        <ele>169</ele>
        <time>2017-05-07T09:54:52Z</time>
      </trkpt>
      <trkpt lat="45.93208" lon="4.72672">
        <ele>169</ele>
        <time>2017-05-07T09:54:53Z</time>
      </trkpt>
      <trkpt lat="45.93204" lon="4.72678">
        <ele>169</ele>
        <time>2017-05-07T09:54:54Z</time>
      </trkpt>
      <trkpt lat="45.93199" lon="4.72682">
        <ele>169</ele>
        <time>2017-05-07T09:54:55Z</time>
      </trkpt>
      <trkpt lat="45.93195" lon="4.72687">
        <ele>169</ele>
        <time>2017-05-07T09:54:56Z</time>
      </trkpt>
      <trkpt lat="45.93191" lon="4.72692">
        <ele>169</ele>
        <time>2017-05-07T09:54:57Z</time>
      </trkpt>
      <trkpt lat="45.93186" lon="4.72698">
        <ele>169</ele>
        <time>2017-05-07T09:54:58Z</time>
      </trkpt>
      <trkpt lat="45.93182" lon="4.72703">
        <ele>169</ele>
        <time>2017-05-07T09:54:59Z</time>
      </trkpt>
      <trkpt lat="45.93177" lon="4.72709">
        <ele>169</ele>
        <time>2017-05-07T09:55:00Z</time>
      </trkpt>
      <trkpt lat="45.93173" lon="4.72715">
        <ele>170</ele>
        <time>2017-05-07T09:55:01Z</time>
      </trkpt>
      <trkpt lat="45.93168" lon="4.72721">
        <ele>170</ele>
        <time>2017-05-07T09:55:02Z</time>
      </trkpt>
      <trkpt lat="45.93163" lon="4.72727">
        <ele>170</ele>
        <time>2017-05-07T09:55:03Z</time>
      </trkpt>
      <trkpt lat="45.93158" lon="4.72732">
        <ele>170</ele>
        <time>2017-05-07T09:55:04Z</time>
      </trkpt>
      <trkpt lat="45.93153" lon="4.72736">
        <ele>170</ele>
        <time>2017-05-07T09:55:05Z</time>
      </trkpt>
      <trkpt lat="45.93147" lon="4.72742">
        <ele>170</ele>
        <time>2017-05-07T09:55:06Z</time>
      </trkpt>
      <trkpt lat="45.93142" lon="4.72748">
        <ele>170</ele>
        <time>2017-05-07T09:55:07Z</time>
      </trkpt>
      <trkpt lat="45.93137" lon="4.72755">
        <ele>171</ele>
        <time>2017-05-07T09:55:08Z</time>
      </trkpt>
      <trkpt lat="45.93131" lon="4.72762">
        <ele>171</ele>
        <time>2017-05-07T09:55:09Z</time>
      </trkpt>
      <trkpt lat="45.93126" lon="4.72768">
        <ele>171</ele>
        <time>2017-05-07T09:55:10Z</time>
      </trkpt>
      <trkpt lat="45.9312" lon="4.72775">
        <ele>171</ele>
        <time>2017-05-07T09:55:11Z</time>
      </trkpt>
      <trkpt lat="45.93115" lon="4.72782">
        <ele>171</ele>
        <time>2017-05-07T09:55:12Z</time>
      </trkpt>
      <trkpt lat="45.93109" lon="4.72788">
        <ele>171</ele>
        <time>2017-05-07T09:55:13Z</time>
      </trkpt>
      <trkpt lat="45.93104" lon="4.72794">
        <ele>171</ele>
        <time>2017-05-07T09:55:14Z</time>
      </trkpt>
      <trkpt lat="45.93099" lon="4.728">
        <ele>171</ele>
        <time>2017-05-07T09:55:15Z</time>
      </trkpt>
      <trkpt lat="45.93094" lon="4.72806">
        <ele>172</ele>
        <time>2017-05-07T09:55:16Z</time>
      </trkpt>
      <trkpt lat="45.93089" lon="4.72812">
        <ele>172</ele>
        <time>2017-05-07T09:55:17Z</time>
      </trkpt>
      <trkpt lat="45.93084" lon="4.72818">
        <ele>172</ele>
        <time>2017-05-07T09:55:18Z</time>
      </trkpt>
      <trkpt lat="45.93079" lon="4.72823">
        <ele>173</ele>
        <time>2017-05-07T09:55:19Z</time>
      </trkpt>
      <trkpt lat="45.93074" lon="4.72828">
        <ele>173</ele>
        <time>2017-05-07T09:55:20Z</time>
      </trkpt>
      <trkpt lat="45.93069" lon="4.72832">
        <ele>173</ele>
        <time>2017-05-07T09:55:21Z</time>
      </trkpt>
      <trkpt lat="45.93064" lon="4.72836">
        <ele>173</ele>
        <time>2017-05-07T09:55:22Z</time>
      </trkpt>
      <trkpt lat="45.93059" lon="4.7284">
        <ele>172</ele>
        <time>2017-05-07T09:55:23Z</time>
      </trkpt>
      <trkpt lat="45.93053" lon="4.72845">
        <ele>172</ele>
        <time>2017-05-07T09:55:24Z</time>
      </trkpt>
      <trkpt lat="45.93051" lon="4.72853">
        <ele>172</ele>
        <time>2017-05-07T09:55:25Z</time>
      </trkpt>
      <trkpt lat="45.93046" lon="4.72858">
        <ele>172</ele>
        <time>2017-05-07T09:55:26Z</time>
      </trkpt>
      <trkpt lat="45.93041" lon="4.72864">
        <ele>172</ele>
        <time>2017-05-07T09:55:27Z</time>
      </trkpt>
      <trkpt lat="45.93036" lon="4.7287">
        <ele>172</ele>
        <time>2017-05-07T09:55:28Z</time>
      </trkpt>
      <trkpt lat="45.93031" lon="4.72877">
        <ele>172</ele>
        <time>2017-05-07T09:55:29Z</time>
      </trkpt>
      <trkpt lat="45.93025" lon="4.72884">
        <ele>172</ele>
        <time>2017-05-07T09:55:30Z</time>
      </trkpt>
      <trkpt lat="45.9302" lon="4.7289">
        <ele>172</ele>
        <time>2017-05-07T09:55:31Z</time>
      </trkpt>
      <trkpt lat="45.93015" lon="4.72897">
        <ele>172</ele>
        <time>2017-05-07T09:55:32Z</time>
      </trkpt>
      <trkpt lat="45.93009" lon="4.72903">
        <ele>172</ele>
        <time>2017-05-07T09:55:33Z</time>
      </trkpt>
      <trkpt lat="45.93004" lon="4.72909">
        <ele>171</ele>
        <time>2017-05-07T09:55:34Z</time>
      </trkpt>
      <trkpt lat="45.92999" lon="4.72917">
        <ele>171</ele>
        <time>2017-05-07T09:55:35Z</time>
      </trkpt>
      <trkpt lat="45.92994" lon="4.72923">
        <ele>171</ele>
        <time>2017-05-07T09:55:36Z</time>
      </trkpt>
      <trkpt lat="45.92989" lon="4.7293">
        <ele>171</ele>
        <time>2017-05-07T09:55:37Z</time>
      </trkpt>
      <trkpt lat="45.92984" lon="4.72936">
        <ele>171</ele>
        <time>2017-05-07T09:55:38Z</time>
      </trkpt>
      <trkpt lat="45.92979" lon="4.72942">
        <ele>171</ele>
        <time>2017-05-07T09:55:39Z</time>
      </trkpt>
      <trkpt lat="45.92974" lon="4.72948">
        <ele>171</ele>
        <time>2017-05-07T09:55:40Z</time>
      </trkpt>
      <trkpt lat="45.92968" lon="4.72954">
        <ele>171</ele>
        <time>2017-05-07T09:55:41Z</time>
      </trkpt>
      <trkpt lat="45.92963" lon="4.72961">
        <ele>171</ele>
        <time>2017-05-07T09:55:42Z</time>
      </trkpt>
      <trkpt lat="45.92958" lon="4.72967">
        <ele>171</ele>
        <time>2017-05-07T09:55:43Z</time>
      </trkpt>
      <trkpt lat="45.92952" lon="4.72974">
        <ele>171</ele>
        <time>2017-05-07T09:55:44Z</time>
      </trkpt>
      <trkpt lat="45.92947" lon="4.7298">
        <ele>171</ele>
        <time>2017-05-07T09:55:45Z</time>
      </trkpt>
      <trkpt lat="45.92942" lon="4.72985">
        <ele>171</ele>
        <time>2017-05-07T09:55:46Z</time>
      </trkpt>
      <trkpt lat="45.92937" lon="4.72991">
        <ele>171</ele>
        <time>2017-05-07T09:55:47Z</time>
      </trkpt>
      <trkpt lat="45.92933" lon="4.72997">
        <ele>172</ele>
        <time>2017-05-07T09:55:48Z</time>
      </trkpt>
      <trkpt lat="45.92928" lon="4.73002">
        <ele>172</ele>
        <time>2017-05-07T09:55:49Z</time>
      </trkpt>
      <trkpt lat="45.92924" lon="4.73007">
        <ele>172</ele>
        <time>2017-05-07T09:55:50Z</time>
      </trkpt>
      <trkpt lat="45.9292" lon="4.73012">
        <ele>172</ele>
        <time>2017-05-07T09:55:51Z</time>
      </trkpt>
      <trkpt lat="45.92915" lon="4.73017">
        <ele>172</ele>
        <time>2017-05-07T09:55:52Z</time>
      </trkpt>
      <trkpt lat="45.92911" lon="4.73022">
        <ele>172</ele>
        <time>2017-05-07T09:55:53Z</time>
      </trkpt>
      <trkpt lat="45.92907" lon="4.73027">
        <ele>172</ele>
        <time>2017-05-07T09:55:54Z</time>
      </trkpt>
      <trkpt lat="45.92903" lon="4.73033">
        <ele>172</ele>
        <time>2017-05-07T09:55:55Z</time>
      </trkpt>
      <trkpt lat="45.92899" lon="4.73039">
        <ele>172</ele>
        <time>2017-05-07T09:55:56Z</time>
      </trkpt>
      <trkpt lat="45.92895" lon="4.73046">
        <ele>172</ele>
        <time>2017-05-07T09:55:57Z</time>
      </trkpt>
      <trkpt lat="45.92891" lon="4.73052">
        <ele>172</ele>
        <time>2017-05-07T09:55:58Z</time>
      </trkpt>
      <trkpt lat="45.92888" lon="4.73059">
        <ele>172</ele>
        <time>2017-05-07T09:55:59Z</time>
      </trkpt>
      <trkpt lat="45.92884" lon="4.73066">
        <ele>172</ele>
        <time>2017-05-07T09:56:00Z</time>
      </trkpt>
      <trkpt lat="45.9288" lon="4.73073">
        <ele>172</ele>
        <time>2017-05-07T09:56:01Z</time>
      </trkpt>
      <trkpt lat="45.92876" lon="4.73079">
        <ele>172</ele>
        <time>2017-05-07T09:56:02Z</time>
      </trkpt>
      <trkpt lat="45.92872" lon="4.73084">
        <ele>172</ele>
        <time>2017-05-07T09:56:03Z</time>
      </trkpt>
      <trkpt lat="45.92868" lon="4.73089">
        <ele>172</ele>
        <time>2017-05-07T09:56:04Z</time>
      </trkpt>
      <trkpt lat="45.92863" lon="4.73094">
        <ele>171</ele>
        <time>2017-05-07T09:56:05Z</time>
      </trkpt>
      <trkpt lat="45.92858" lon="4.731">
        <ele>171</ele>
        <time>2017-05-07T09:56:06Z</time>
      </trkpt>
      <trkpt lat="45.92854" lon="4.73104">
        <ele>171</ele>
        <time>2017-05-07T09:56:07Z</time>
      </trkpt>
      <trkpt lat="45.9285" lon="4.73107">
        <ele>171</ele>
        <time>2017-05-07T09:56:08Z</time>
      </trkpt>
      <trkpt lat="45.92842" lon="4.73102">
        <ele>171</ele>
        <time>2017-05-07T09:56:11Z</time>
      </trkpt>
      <trkpt lat="45.92841" lon="4.73097">
        <ele>171</ele>
        <time>2017-05-07T09:56:12Z</time>
      </trkpt>
      <trkpt lat="45.92841" lon="4.7309">
        <ele>171</ele>
        <time>2017-05-07T09:56:13Z</time>
      </trkpt>
      <trkpt lat="45.9284" lon="4.73083">
        <ele>171</ele>
        <time>2017-05-07T09:56:14Z</time>
      </trkpt>
      <trkpt lat="45.9284" lon="4.73075">
        <ele>171</ele>
        <time>2017-05-07T09:56:15Z</time>
      </trkpt>
      <trkpt lat="45.92839" lon="4.73067">
        <ele>171</ele>
        <time>2017-05-07T09:56:16Z</time>
      </trkpt>
      <trkpt lat="45.92838" lon="4.73059">
        <ele>171</ele>
        <time>2017-05-07T09:56:17Z</time>
      </trkpt>
      <trkpt lat="45.92836" lon="4.73051">
        <ele>171</ele>
        <time>2017-05-07T09:56:18Z</time>
      </trkpt>
      <trkpt lat="45.92835" lon="4.73042">
        <ele>171</ele>
        <time>2017-05-07T09:56:19Z</time>
      </trkpt>
      <trkpt lat="45.92833" lon="4.73034">
        <ele>170</ele>
        <time>2017-05-07T09:56:20Z</time>
      </trkpt>
      <trkpt lat="45.92832" lon="4.73025">
        <ele>170</ele>
        <time>2017-05-07T09:56:21Z</time>
      </trkpt>
      <trkpt lat="45.9283" lon="4.73016">
        <ele>170</ele>
        <time>2017-05-07T09:56:22Z</time>
      </trkpt>
      <trkpt lat="45.92829" lon="4.73007">
        <ele>170</ele>
        <time>2017-05-07T09:56:23Z</time>
      </trkpt>
      <trkpt lat="45.92828" lon="4.72997">
        <ele>170</ele>
        <time>2017-05-07T09:56:24Z</time>
      </trkpt>
      <trkpt lat="45.92827" lon="4.72988">
        <ele>170</ele>
        <time>2017-05-07T09:56:25Z</time>
      </trkpt>
      <trkpt lat="45.92826" lon="4.72979">
        <ele>170</ele>
        <time>2017-05-07T09:56:26Z</time>
      </trkpt>
      <trkpt lat="45.92825" lon="4.7297">
        <ele>170</ele>
        <time>2017-05-07T09:56:27Z</time>
      </trkpt>
      <trkpt lat="45.92824" lon="4.72962">
        <ele>170</ele>
        <time>2017-05-07T09:56:28Z</time>
      </trkpt>
      <trkpt lat="45.92824" lon="4.72953">
        <ele>170</ele>
        <time>2017-05-07T09:56:29Z</time>
      </trkpt>
      <trkpt lat="45.92823" lon="4.72945">
        <ele>170</ele>
        <time>2017-05-07T09:56:30Z</time>
      </trkpt>
      <trkpt lat="45.92823" lon="4.72937">
        <ele>170</ele>
        <time>2017-05-07T09:56:31Z</time>
      </trkpt>
      <trkpt lat="45.92822" lon="4.72929">
        <ele>170</ele>
        <time>2017-05-07T09:56:32Z</time>
      </trkpt>
      <trkpt lat="45.92821" lon="4.72922">
        <ele>170</ele>
        <time>2017-05-07T09:56:33Z</time>
      </trkpt>
      <trkpt lat="45.92821" lon="4.72914">
        <ele>170</ele>
        <time>2017-05-07T09:56:34Z</time>
      </trkpt>
      <trkpt lat="45.9282" lon="4.72907">
        <ele>170</ele>
        <time>2017-05-07T09:56:35Z</time>
      </trkpt>
      <trkpt lat="45.92819" lon="4.729">
        <ele>170</ele>
        <time>2017-05-07T09:56:36Z</time>
      </trkpt>
      <trkpt lat="45.92818" lon="4.72894">
        <ele>170</ele>
        <time>2017-05-07T09:56:37Z</time>
      </trkpt>
      <trkpt lat="45.92816" lon="4.72887">
        <ele>170</ele>
        <time>2017-05-07T09:56:38Z</time>
      </trkpt>
      <trkpt lat="45.92814" lon="4.72879">
        <ele>170</ele>
        <time>2017-05-07T09:56:39Z</time>
      </trkpt>
      <trkpt lat="45.92812" lon="4.7287">
        <ele>170</ele>
        <time>2017-05-07T09:56:40Z</time>
      </trkpt>
      <trkpt lat="45.9281" lon="4.72861">
        <ele>170</ele>
        <time>2017-05-07T09:56:41Z</time>
      </trkpt>
      <trkpt lat="45.92808" lon="4.72853">
        <ele>170</ele>
        <time>2017-05-07T09:56:42Z</time>
      </trkpt>
      <trkpt lat="45.92806" lon="4.72844">
        <ele>170</ele>
        <time>2017-05-07T09:56:43Z</time>
      </trkpt>
      <trkpt lat="45.92805" lon="4.72835">
        <ele>170</ele>
        <time>2017-05-07T09:56:44Z</time>
      </trkpt>
      <trkpt lat="45.92804" lon="4.72826">
        <ele>170</ele>
        <time>2017-05-07T09:56:45Z</time>
      </trkpt>
      <trkpt lat="45.92802" lon="4.72817">
        <ele>170</ele>
        <time>2017-05-07T09:56:46Z</time>
      </trkpt>
      <trkpt lat="45.92801" lon="4.72808">
        <ele>170</ele>
        <time>2017-05-07T09:56:47Z</time>
      </trkpt>
      <trkpt lat="45.928" lon="4.728">
        <ele>171</ele>
        <time>2017-05-07T09:56:48Z</time>
      </trkpt>
      <trkpt lat="45.92797" lon="4.72794">
        <ele>171</ele>
        <time>2017-05-07T09:56:49Z</time>
      </trkpt>
      <trkpt lat="45.92793" lon="4.7279">
        <ele>171</ele>
        <time>2017-05-07T09:56:50Z</time>
      </trkpt>
      <trkpt lat="45.92785" lon="4.72791">
        <ele>170</ele>
        <time>2017-05-07T09:56:52Z</time>
      </trkpt>
      <trkpt lat="45.92781" lon="4.72794">
        <ele>170</ele>
        <time>2017-05-07T09:56:53Z</time>
      </trkpt>
      <trkpt lat="45.92776" lon="4.72797">
        <ele>170</ele>
        <time>2017-05-07T09:56:54Z</time>
      </trkpt>
      <trkpt lat="45.92772" lon="4.728">
        <ele>170</ele>
        <time>2017-05-07T09:56:55Z</time>
      </trkpt>
      <trkpt lat="45.92766" lon="4.72803">
        <ele>170</ele>
        <time>2017-05-07T09:56:56Z</time>
      </trkpt>
      <trkpt lat="45.92761" lon="4.72806">
        <ele>170</ele>
        <time>2017-05-07T09:56:57Z</time>
      </trkpt>
      <trkpt lat="45.92756" lon="4.7281">
        <ele>170</ele>
        <time>2017-05-07T09:56:58Z</time>
      </trkpt>
      <trkpt lat="45.92751" lon="4.72814">
        <ele>170</ele>
        <time>2017-05-07T09:56:59Z</time>
      </trkpt>
      <trkpt lat="45.92745" lon="4.72819">
        <ele>169</ele>
        <time>2017-05-07T09:57:00Z</time>
      </trkpt>
      <trkpt lat="45.9274" lon="4.72823">
        <ele>169</ele>
        <time>2017-05-07T09:57:01Z</time>
      </trkpt>
      <trkpt lat="45.92735" lon="4.72827">
        <ele>169</ele>
        <time>2017-05-07T09:57:02Z</time>
      </trkpt>
      <trkpt lat="45.9273" lon="4.72831">
        <ele>169</ele>
        <time>2017-05-07T09:57:03Z</time>
      </trkpt>
      <trkpt lat="45.92725" lon="4.72836">
        <ele>169</ele>
        <time>2017-05-07T09:57:04Z</time>
      </trkpt>
      <trkpt lat="45.9272" lon="4.7284">
        <ele>169</ele>
        <time>2017-05-07T09:57:05Z</time>
      </trkpt>
      <trkpt lat="45.92714" lon="4.72844">
        <ele>169</ele>
        <time>2017-05-07T09:57:06Z</time>
      </trkpt>
      <trkpt lat="45.92709" lon="4.72848">
        <ele>169</ele>
        <time>2017-05-07T09:57:07Z</time>
      </trkpt>
      <trkpt lat="45.92704" lon="4.72852">
        <ele>169</ele>
        <time>2017-05-07T09:57:08Z</time>
      </trkpt>
      <trkpt lat="45.92698" lon="4.72857">
        <ele>169</ele>
        <time>2017-05-07T09:57:09Z</time>
      </trkpt>
      <trkpt lat="45.92693" lon="4.72862">
        <ele>169</ele>
        <time>2017-05-07T09:57:10Z</time>
      </trkpt>
      <trkpt lat="45.92687" lon="4.72866">
        <ele>169</ele>
        <time>2017-05-07T09:57:11Z</time>
      </trkpt>
      <trkpt lat="45.92682" lon="4.72871">
        <ele>169</ele>
        <time>2017-05-07T09:57:12Z</time>
      </trkpt>
      <trkpt lat="45.92676" lon="4.72875">
        <ele>170</ele>
        <time>2017-05-07T09:57:13Z</time>
      </trkpt>
      <trkpt lat="45.92671" lon="4.7288">
        <ele>170</ele>
        <time>2017-05-07T09:57:14Z</time>
      </trkpt>
      <trkpt lat="45.92666" lon="4.72884">
        <ele>169</ele>
        <time>2017-05-07T09:57:15Z</time>
      </trkpt>
      <trkpt lat="45.92661" lon="4.72887">
        <ele>169</ele>
        <time>2017-05-07T09:57:16Z</time>
      </trkpt>
      <trkpt lat="45.92656" lon="4.72892">
        <ele>169</ele>
        <time>2017-05-07T09:57:17Z</time>
      </trkpt>
      <trkpt lat="45.92651" lon="4.72896">
        <ele>169</ele>
        <time>2017-05-07T09:57:18Z</time>
      </trkpt>
      <trkpt lat="45.92645" lon="4.72901">
        <ele>169</ele>
        <time>2017-05-07T09:57:19Z</time>
      </trkpt>
      <trkpt lat="45.9264" lon="4.72905">
        <ele>169</ele>
        <time>2017-05-07T09:57:20Z</time>
      </trkpt>
      <trkpt lat="45.92634" lon="4.7291">
        <ele>169</ele>
        <time>2017-05-07T09:57:21Z</time>
      </trkpt>
      <trkpt lat="45.92628" lon="4.72915">
        <ele>169</ele>
        <time>2017-05-07T09:57:22Z</time>
      </trkpt>
      <trkpt lat="45.92622" lon="4.7292">
        <ele>169</ele>
        <time>2017-05-07T09:57:23Z</time>
      </trkpt>
      <trkpt lat="45.92617" lon="4.72925">
        <ele>169</ele>
        <time>2017-05-07T09:57:24Z</time>
      </trkpt>
      <trkpt lat="45.92611" lon="4.7293">
        <ele>169</ele>
        <time>2017-05-07T09:57:25Z</time>
      </trkpt>
      <trkpt lat="45.92605" lon="4.72936">
        <ele>169</ele>
        <time>2017-05-07T09:57:26Z</time>
      </trkpt>
      <trkpt lat="45.92599" lon="4.72942">
        <ele>169</ele>
        <time>2017-05-07T09:57:27Z</time>
      </trkpt>
      <trkpt lat="45.92593" lon="4.72949">
        <ele>169</ele>
        <time>2017-05-07T09:57:28Z</time>
      </trkpt>
      <trkpt lat="45.92588" lon="4.72955">
        <ele>169</ele>
        <time>2017-05-07T09:57:29Z</time>
      </trkpt>
      <trkpt lat="45.92583" lon="4.72961">
        <ele>169</ele>
        <time>2017-05-07T09:57:30Z</time>
      </trkpt>
      <trkpt lat="45.92578" lon="4.72966">
        <ele>169</ele>
        <time>2017-05-07T09:57:31Z</time>
      </trkpt>
      <trkpt lat="45.92572" lon="4.72972">
        <ele>169</ele>
        <time>2017-05-07T09:57:32Z</time>
      </trkpt>
      <trkpt lat="45.92567" lon="4.72978">
        <ele>169</ele>
        <time>2017-05-07T09:57:33Z</time>
      </trkpt>
      <trkpt lat="45.92562" lon="4.72984">
        <ele>169</ele>
        <time>2017-05-07T09:57:34Z</time>
      </trkpt>
      <trkpt lat="45.92557" lon="4.72989">
        <ele>169</ele>
        <time>2017-05-07T09:57:35Z</time>
      </trkpt>
      <trkpt lat="45.92552" lon="4.72995">
        <ele>169</ele>
        <time>2017-05-07T09:57:36Z</time>
      </trkpt>
      <trkpt lat="45.92546" lon="4.73">
        <ele>169</ele>
        <time>2017-05-07T09:57:37Z</time>
      </trkpt>
      <trkpt lat="45.9254" lon="4.73005">
        <ele>169</ele>
        <time>2017-05-07T09:57:38Z</time>
      </trkpt>
      <trkpt lat="45.92535" lon="4.73011">
        <ele>169</ele>
        <time>2017-05-07T09:57:39Z</time>
      </trkpt>
      <trkpt lat="45.92529" lon="4.73016">
        <ele>169</ele>
        <time>2017-05-07T09:57:40Z</time>
      </trkpt>
      <trkpt lat="45.92523" lon="4.73022">
        <ele>169</ele>
        <time>2017-05-07T09:57:41Z</time>
      </trkpt>
      <trkpt lat="45.92517" lon="4.73027">
        <ele>169</ele>
        <time>2017-05-07T09:57:42Z</time>
      </trkpt>
      <trkpt lat="45.92512" lon="4.73032">
        <ele>169</ele>
        <time>2017-05-07T09:57:43Z</time>
      </trkpt>
      <trkpt lat="45.92506" lon="4.73037">
        <ele>169</ele>
        <time>2017-05-07T09:57:44Z</time>
      </trkpt>
      <trkpt lat="45.92501" lon="4.73041">
        <ele>169</ele>
        <time>2017-05-07T09:57:45Z</time>
      </trkpt>
      <trkpt lat="45.92496" lon="4.73046">
        <ele>170</ele>
        <time>2017-05-07T09:57:46Z</time>
      </trkpt>
      <trkpt lat="45.92491" lon="4.73051">
        <ele>170</ele>
        <time>2017-05-07T09:57:47Z</time>
      </trkpt>
      <trkpt lat="45.92485" lon="4.73056">
        <ele>170</ele>
        <time>2017-05-07T09:57:48Z</time>
      </trkpt>
      <trkpt lat="45.9248" lon="4.7306">
        <ele>170</ele>
        <time>2017-05-07T09:57:49Z</time>
      </trkpt>
      <trkpt lat="45.92475" lon="4.73063">
        <ele>170</ele>
        <time>2017-05-07T09:57:50Z</time>
      </trkpt>
      <trkpt lat="45.92469" lon="4.73067">
        <ele>170</ele>
        <time>2017-05-07T09:57:51Z</time>
      </trkpt>
      <trkpt lat="45.92464" lon="4.73072">
        <ele>170</ele>
        <time>2017-05-07T09:57:52Z</time>
      </trkpt>
      <trkpt lat="45.92459" lon="4.73076">
        <ele>170</ele>
        <time>2017-05-07T09:57:53Z</time>
      </trkpt>
      <trkpt lat="45.92454" lon="4.7308">
        <ele>170</ele>
        <time>2017-05-07T09:57:54Z</time>
      </trkpt>
      <trkpt lat="45.92449" lon="4.73085">
        <ele>170</ele>
        <time>2017-05-07T09:57:55Z</time>
      </trkpt>
      <trkpt lat="45.92444" lon="4.73089">
        <ele>170</ele>
        <time>2017-05-07T09:57:56Z</time>
      </trkpt>
      <trkpt lat="45.9244" lon="4.73093">
        <ele>171</ele>
        <time>2017-05-07T09:57:57Z</time>
      </trkpt>
      <trkpt lat="45.92435" lon="4.73097">
        <ele>171</ele>
        <time>2017-05-07T09:57:58Z</time>
      </trkpt>
      <trkpt lat="45.9243" lon="4.73101">
        <ele>171</ele>
        <time>2017-05-07T09:57:59Z</time>
      </trkpt>
      <trkpt lat="45.92426" lon="4.73105">
        <ele>171</ele>
        <time>2017-05-07T09:58:00Z</time>
      </trkpt>
      <trkpt lat="45.92421" lon="4.73109">
        <ele>170</ele>
        <time>2017-05-07T09:58:01Z</time>
      </trkpt>
      <trkpt lat="45.92417" lon="4.73112">
        <ele>170</ele>
        <time>2017-05-07T09:58:02Z</time>
      </trkpt>
      <trkpt lat="45.92413" lon="4.73116">
        <ele>171</ele>
        <time>2017-05-07T09:58:03Z</time>
      </trkpt>
      <trkpt lat="45.92409" lon="4.73121">
        <ele>171</ele>
        <time>2017-05-07T09:58:04Z</time>
      </trkpt>
      <trkpt lat="45.92407" lon="4.73127">
        <ele>171</ele>
        <time>2017-05-07T09:58:05Z</time>
      </trkpt>
      <trkpt lat="45.92405" lon="4.73134">
        <ele>171</ele>
        <time>2017-05-07T09:58:06Z</time>
      </trkpt>
      <trkpt lat="45.92405" lon="4.73142">
        <ele>171</ele>
        <time>2017-05-07T09:58:07Z</time>
      </trkpt>
      <trkpt lat="45.92404" lon="4.7315">
        <ele>171</ele>
        <time>2017-05-07T09:58:08Z</time>
      </trkpt>
      <trkpt lat="45.92404" lon="4.73158">
        <ele>170</ele>
        <time>2017-05-07T09:58:09Z</time>
      </trkpt>
      <trkpt lat="45.92405" lon="4.73167">
        <ele>170</ele>
        <time>2017-05-07T09:58:10Z</time>
      </trkpt>
      <trkpt lat="45.92405" lon="4.73175">
        <ele>171</ele>
        <time>2017-05-07T09:58:11Z</time>
      </trkpt>
      <trkpt lat="45.92406" lon="4.73183">
        <ele>171</ele>
        <time>2017-05-07T09:58:12Z</time>
      </trkpt>
      <trkpt lat="45.92406" lon="4.73192">
        <ele>171</ele>
        <time>2017-05-07T09:58:13Z</time>
      </trkpt>
      <trkpt lat="45.92406" lon="4.732">
        <ele>171</ele>
        <time>2017-05-07T09:58:14Z</time>
      </trkpt>
      <trkpt lat="45.92406" lon="4.73209">
        <ele>171</ele>
        <time>2017-05-07T09:58:15Z</time>
      </trkpt>
      <trkpt lat="45.92406" lon="4.73218">
        <ele>171</ele>
        <time>2017-05-07T09:58:16Z</time>
      </trkpt>
      <trkpt lat="45.92407" lon="4.73227">
        <ele>171</ele>
        <time>2017-05-07T09:58:17Z</time>
      </trkpt>
      <trkpt lat="45.92407" lon="4.73236">
        <ele>171</ele>
        <time>2017-05-07T09:58:18Z</time>
      </trkpt>
      <trkpt lat="45.92408" lon="4.73245">
        <ele>171</ele>
        <time>2017-05-07T09:58:19Z</time>
      </trkpt>
      <trkpt lat="45.92408" lon="4.73255">
        <ele>171</ele>
        <time>2017-05-07T09:58:20Z</time>
      </trkpt>
      <trkpt lat="45.92409" lon="4.73264">
        <ele>171</ele>
        <time>2017-05-07T09:58:21Z</time>
      </trkpt>
      <trkpt lat="45.92409" lon="4.73273">
        <ele>171</ele>
        <time>2017-05-07T09:58:22Z</time>
      </trkpt>
      <trkpt lat="45.9241" lon="4.73282">
        <ele>171</ele>
        <time>2017-05-07T09:58:23Z</time>
      </trkpt>
      <trkpt lat="45.9241" lon="4.7329">
        <ele>171</ele>
        <time>2017-05-07T09:58:24Z</time>
      </trkpt>
      <trkpt lat="45.92411" lon="4.73299">
        <ele>171</ele>
        <time>2017-05-07T09:58:25Z</time>
      </trkpt>
      <trkpt lat="45.92411" lon="4.73307">
        <ele>171</ele>
        <time>2017-05-07T09:58:26Z</time>
      </trkpt>
      <trkpt lat="45.92412" lon="4.73314">
        <ele>171</ele>
        <time>2017-05-07T09:58:27Z</time>
      </trkpt>
      <trkpt lat="45.92412" lon="4.73322">
        <ele>171</ele>
        <time>2017-05-07T09:58:28Z</time>
      </trkpt>
      <trkpt lat="45.92413" lon="4.7333">
        <ele>171</ele>
        <time>2017-05-07T09:58:29Z</time>
      </trkpt>
      <trkpt lat="45.92414" lon="4.73338">
        <ele>171</ele>
        <time>2017-05-07T09:58:30Z</time>
      </trkpt>
      <trkpt lat="45.92414" lon="4.73346">
        <ele>171</ele>
        <time>2017-05-07T09:58:31Z</time>
      </trkpt>
      <trkpt lat="45.92415" lon="4.73355">
        <ele>171</ele>
        <time>2017-05-07T09:58:32Z</time>
      </trkpt>
      <trkpt lat="45.92417" lon="4.73363">
        <ele>171</ele>
        <time>2017-05-07T09:58:33Z</time>
      </trkpt>
      <trkpt lat="45.92418" lon="4.7337">
        <ele>172</ele>
        <time>2017-05-07T09:58:34Z</time>
      </trkpt>
      <trkpt lat="45.9242" lon="4.73378">
        <ele>172</ele>
        <time>2017-05-07T09:58:35Z</time>
      </trkpt>
      <trkpt lat="45.92421" lon="4.73385">
        <ele>172</ele>
        <time>2017-05-07T09:58:36Z</time>
      </trkpt>
      <trkpt lat="45.92422" lon="4.73392">
        <ele>172</ele>
        <time>2017-05-07T09:58:37Z</time>
      </trkpt>
      <trkpt lat="45.92423" lon="4.73399">
        <ele>172</ele>
        <time>2017-05-07T09:58:38Z</time>
      </trkpt>
      <trkpt lat="45.92426" lon="4.73406">
        <ele>172</ele>
        <time>2017-05-07T09:58:39Z</time>
      </trkpt>
      <trkpt lat="45.92429" lon="4.73412">
        <ele>172</ele>
        <time>2017-05-07T09:58:40Z</time>
      </trkpt>
      <trkpt lat="45.92433" lon="4.73417">
        <ele>172</ele>
        <time>2017-05-07T09:58:41Z</time>
      </trkpt>
      <trkpt lat="45.92438" lon="4.73421">
        <ele>173</ele>
        <time>2017-05-07T09:58:42Z</time>
      </trkpt>
      <trkpt lat="45.92443" lon="4.73424">
        <ele>173</ele>
        <time>2017-05-07T09:58:43Z</time>
      </trkpt>
      <trkpt lat="45.92448" lon="4.73427">
        <ele>173</ele>
        <time>2017-05-07T09:58:44Z</time>
      </trkpt>
      <trkpt lat="45.92454" lon="4.73431">
        <ele>173</ele>
        <time>2017-05-07T09:58:45Z</time>
      </trkpt>
      <trkpt lat="45.92458" lon="4.73436">
        <ele>173</ele>
        <time>2017-05-07T09:58:46Z</time>
      </trkpt>
      <trkpt lat="45.92462" lon="4.73443">
        <ele>173</ele>
        <time>2017-05-07T09:58:47Z</time>
      </trkpt>
      <trkpt lat="45.92465" lon="4.73451">
        <ele>173</ele>
        <time>2017-05-07T09:58:48Z</time>
      </trkpt>
      <trkpt lat="45.92466" lon="4.73459">
        <ele>173</ele>
        <time>2017-05-07T09:58:49Z</time>
      </trkpt>
      <trkpt lat="45.92467" lon="4.73467">
        <ele>173</ele>
        <time>2017-05-07T09:58:50Z</time>
      </trkpt>
      <trkpt lat="45.92467" lon="4.73475">
        <ele>173</ele>
        <time>2017-05-07T09:58:51Z</time>
      </trkpt>
      <trkpt lat="45.92467" lon="4.73483">
        <ele>173</ele>
        <time>2017-05-07T09:58:52Z</time>
      </trkpt>
      <trkpt lat="45.92467" lon="4.73491">
        <ele>173</ele>
        <time>2017-05-07T09:58:53Z</time>
      </trkpt>
      <trkpt lat="45.92467" lon="4.73499">
        <ele>173</ele>
        <time>2017-05-07T09:58:54Z</time>
      </trkpt>
      <trkpt lat="45.92467" lon="4.73506">
        <ele>174</ele>
        <time>2017-05-07T09:58:55Z</time>
      </trkpt>
      <trkpt lat="45.92467" lon="4.73513">
        <ele>174</ele>
        <time>2017-05-07T09:58:56Z</time>
      </trkpt>
      <trkpt lat="45.92467" lon="4.7352">
        <ele>174</ele>
        <time>2017-05-07T09:58:57Z</time>
      </trkpt>
      <trkpt lat="45.92467" lon="4.73532">
        <ele>174</ele>
        <time>2017-05-07T09:58:59Z</time>
      </trkpt>
      <trkpt lat="45.92466" lon="4.73538">
        <ele>174</ele>
        <time>2017-05-07T09:59:00Z</time>
      </trkpt>
      <trkpt lat="45.92466" lon="4.73545">
        <ele>173</ele>
        <time>2017-05-07T09:59:01Z</time>
      </trkpt>
      <trkpt lat="45.92465" lon="4.73552">
        <ele>173</ele>
        <time>2017-05-07T09:59:02Z</time>
      </trkpt>
      <trkpt lat="45.92466" lon="4.7356">
        <ele>173</ele>
        <time>2017-05-07T09:59:03Z</time>
      </trkpt>
      <trkpt lat="45.92466" lon="4.73568">
        <ele>173</ele>
        <time>2017-05-07T09:59:04Z</time>
      </trkpt>
      <trkpt lat="45.92467" lon="4.73576">
        <ele>173</ele>
        <time>2017-05-07T09:59:05Z</time>
      </trkpt>
      <trkpt lat="45.92468" lon="4.73585">
        <ele>174</ele>
        <time>2017-05-07T09:59:06Z</time>
      </trkpt>
      <trkpt lat="45.92468" lon="4.73593">
        <ele>174</ele>
        <time>2017-05-07T09:59:07Z</time>
      </trkpt>
      <trkpt lat="45.92468" lon="4.73602">
        <ele>174</ele>
        <time>2017-05-07T09:59:08Z</time>
      </trkpt>
      <trkpt lat="45.92469" lon="4.73611">
        <ele>174</ele>
        <time>2017-05-07T09:59:09Z</time>
      </trkpt>
      <trkpt lat="45.92469" lon="4.7362">
        <ele>174</ele>
        <time>2017-05-07T09:59:10Z</time>
      </trkpt>
      <trkpt lat="45.9247" lon="4.73628">
        <ele>174</ele>
        <time>2017-05-07T09:59:11Z</time>
      </trkpt>
      <trkpt lat="45.9247" lon="4.73637">
        <ele>174</ele>
        <time>2017-05-07T09:59:12Z</time>
      </trkpt>
      <trkpt lat="45.9247" lon="4.73645">
        <ele>174</ele>
        <time>2017-05-07T09:59:13Z</time>
      </trkpt>
      <trkpt lat="45.92469" lon="4.73653">
        <ele>174</ele>
        <time>2017-05-07T09:59:14Z</time>
      </trkpt>
      <trkpt lat="45.92468" lon="4.7366">
        <ele>174</ele>
        <time>2017-05-07T09:59:15Z</time>
      </trkpt>
      <trkpt lat="45.92468" lon="4.73668">
        <ele>174</ele>
        <time>2017-05-07T09:59:16Z</time>
      </trkpt>
      <trkpt lat="45.92468" lon="4.73676">
        <ele>174</ele>
        <time>2017-05-07T09:59:17Z</time>
      </trkpt>
      <trkpt lat="45.92468" lon="4.73683">
        <ele>174</ele>
        <time>2017-05-07T09:59:18Z</time>
      </trkpt>
      <trkpt lat="45.92468" lon="4.7369">
        <ele>174</ele>
        <time>2017-05-07T09:59:19Z</time>
      </trkpt>
      <trkpt lat="45.92467" lon="4.73696">
        <ele>174</ele>
        <time>2017-05-07T09:59:20Z</time>
      </trkpt>
      <trkpt lat="45.92464" lon="4.73708">
        <ele>174</ele>
        <time>2017-05-07T09:59:23Z</time>
      </trkpt>
      <trkpt lat="45.92463" lon="4.7371">
        <ele>174</ele>
        <time>2017-05-07T09:59:24Z</time>
      </trkpt>
      <trkpt lat="45.92462" lon="4.7371">
        <ele>174</ele>
        <time>2017-05-07T09:59:31Z</time>
      </trkpt>
      <trkpt lat="45.92462" lon="4.73711">
        <ele>174</ele>
        <time>2017-05-07T09:59:32Z</time>
      </trkpt>
      <trkpt lat="45.92461" lon="4.73712">
        <ele>174</ele>
        <time>2017-05-07T09:59:34Z</time>
      </trkpt>
      <trkpt lat="45.9246" lon="4.73712">
        <ele>174</ele>
        <time>2017-05-07T09:59:35Z</time>
      </trkpt>
      <trkpt lat="45.92458" lon="4.73712">
        <ele>174</ele>
        <time>2017-05-07T09:59:54.935Z</time>
      </trkpt>
    </trkseg>
  </trk>
</gpx>